<?xml version="1.0" encoding="UTF-8"?>
<gpx version="1.1" creator="https://www.youtrack.es" xsi:schemaLocation="http://www.topografix.com/GPX/1/1 http://www.topografix.com/GPX/1/1/gpx.xsd http://www.garmin.com/xmlschemas/GpxExtensions/v3 http://www.garmin.com/xmlschemas/GpxExtensionsv3.xsd http://www.garmin.com/xmlschemas/TrackPointExtension/v1 http://www.garmin.com/xmlschemas/TrackPointExtensionv1.xsd" xmlns:gpxtpx="http://www.garmin.com/xmlschemas/TrackPointExtension/v1" xmlns:gpxx="http://www.garmin.com/xmlschemas/GpxExtensions/v3" xmlns:xsi="http://www.w3.org/2001/XMLSchema-instance">
  <metadata>
    <link href="https://www.youtrack.es">
      <text>YouTrack.es</text>
    </link>
    <time>2026-05-08T14:31:00Z</time>
  </metadata>
  <trk>
    <src>https://www.youtrack.es</src>
    <link href="https://www.youtrack.es/ruta/6267-mura">
      <text>YouTrack.es</text>
    </link>
    <trkseg>
      <trkpt lat="41.618278339999996" lon="2.1326716699999997">
        <ele>280.0</ele>
        <time>2019-06-09T07:18:53+02:00</time>
      </trkpt>
      <trkpt lat="41.61829833999999" lon="2.13263667">
        <ele>280.0</ele>
        <time>2019-06-09T07:18:54+02:00</time>
      </trkpt>
      <trkpt lat="41.61835" lon="2.1325696699999996">
        <ele>281.0</ele>
        <time>2019-06-09T07:18:56+02:00</time>
      </trkpt>
      <trkpt lat="41.6184" lon="2.13250634">
        <ele>282.0</ele>
        <time>2019-06-09T07:18:58+02:00</time>
      </trkpt>
      <trkpt lat="41.618446670000004" lon="2.132443">
        <ele>283.0</ele>
        <time>2019-06-09T07:19:00+02:00</time>
      </trkpt>
      <trkpt lat="41.618498339999995" lon="2.1323743399999997">
        <ele>284.0</ele>
        <time>2019-06-09T07:19:02+02:00</time>
      </trkpt>
      <trkpt lat="41.61854667000001" lon="2.13230934">
        <ele>285.0</ele>
        <time>2019-06-09T07:19:04+02:00</time>
      </trkpt>
      <trkpt lat="41.61859834" lon="2.1322483399999994">
        <ele>286.0</ele>
        <time>2019-06-09T07:19:06+02:00</time>
      </trkpt>
      <trkpt lat="41.61865334" lon="2.13219567">
        <ele>287.0</ele>
        <time>2019-06-09T07:19:08+02:00</time>
      </trkpt>
      <trkpt lat="41.61872" lon="2.13214534">
        <ele>288.0</ele>
        <time>2019-06-09T07:19:10+02:00</time>
      </trkpt>
      <trkpt lat="41.61878" lon="2.13210567">
        <ele>289.0</ele>
        <time>2019-06-09T07:19:12+02:00</time>
      </trkpt>
      <trkpt lat="41.61884167000001" lon="2.1320639999999997">
        <ele>290.0</ele>
        <time>2019-06-09T07:19:14+02:00</time>
      </trkpt>
      <trkpt lat="41.61889834" lon="2.13202367">
        <ele>291.0</ele>
        <time>2019-06-09T07:19:16+02:00</time>
      </trkpt>
      <trkpt lat="41.61896" lon="2.13197834">
        <ele>292.0</ele>
        <time>2019-06-09T07:19:18+02:00</time>
      </trkpt>
      <trkpt lat="41.61901833999999" lon="2.13193267">
        <ele>293.0</ele>
        <time>2019-06-09T07:19:20+02:00</time>
      </trkpt>
      <trkpt lat="41.619080000000004" lon="2.1318840000000003">
        <ele>294.0</ele>
        <time>2019-06-09T07:19:22+02:00</time>
      </trkpt>
      <trkpt lat="41.61914167000001" lon="2.13183367">
        <ele>295.0</ele>
        <time>2019-06-09T07:19:24+02:00</time>
      </trkpt>
      <trkpt lat="41.61920167" lon="2.1317860000000004">
        <ele>296.0</ele>
        <time>2019-06-09T07:19:26+02:00</time>
      </trkpt>
      <trkpt lat="41.61927000000001" lon="2.13173434">
        <ele>296.0</ele>
        <time>2019-06-09T07:19:28+02:00</time>
      </trkpt>
      <trkpt lat="41.619345" lon="2.13168134">
        <ele>296.0</ele>
        <time>2019-06-09T07:19:30+02:00</time>
      </trkpt>
      <trkpt lat="41.619420000000005" lon="2.1316306699999994">
        <ele>297.0</ele>
        <time>2019-06-09T07:19:32+02:00</time>
      </trkpt>
      <trkpt lat="41.619490000000006" lon="2.13158534">
        <ele>298.0</ele>
        <time>2019-06-09T07:19:34+02:00</time>
      </trkpt>
      <trkpt lat="41.61956167" lon="2.13154067">
        <ele>299.0</ele>
        <time>2019-06-09T07:19:36+02:00</time>
      </trkpt>
      <trkpt lat="41.619629999999994" lon="2.1314979999999997">
        <ele>300.0</ele>
        <time>2019-06-09T07:19:38+02:00</time>
      </trkpt>
      <trkpt lat="41.61969834" lon="2.13145567">
        <ele>300.0</ele>
        <time>2019-06-09T07:19:40+02:00</time>
      </trkpt>
      <trkpt lat="41.61976833999999" lon="2.13141334">
        <ele>301.0</ele>
        <time>2019-06-09T07:19:42+02:00</time>
      </trkpt>
      <trkpt lat="41.61983834000001" lon="2.13136834">
        <ele>302.0</ele>
        <time>2019-06-09T07:19:44+02:00</time>
      </trkpt>
      <trkpt lat="41.61991" lon="2.13132367">
        <ele>302.0</ele>
        <time>2019-06-09T07:19:46+02:00</time>
      </trkpt>
      <trkpt lat="41.61998334" lon="2.1312779999999996">
        <ele>304.0</ele>
        <time>2019-06-09T07:19:48+02:00</time>
      </trkpt>
      <trkpt lat="41.62005333999999" lon="2.1312400000000005">
        <ele>304.0</ele>
        <time>2019-06-09T07:19:50+02:00</time>
      </trkpt>
      <trkpt lat="41.620126670000005" lon="2.1311973399999995">
        <ele>305.0</ele>
        <time>2019-06-09T07:19:52+02:00</time>
      </trkpt>
      <trkpt lat="41.620205000000006" lon="2.1311516700000004">
        <ele>306.0</ele>
        <time>2019-06-09T07:19:54+02:00</time>
      </trkpt>
      <trkpt lat="41.620284999999996" lon="2.1311109999999998">
        <ele>307.0</ele>
        <time>2019-06-09T07:19:56+02:00</time>
      </trkpt>
      <trkpt lat="41.62036334" lon="2.13107267">
        <ele>307.0</ele>
        <time>2019-06-09T07:19:58+02:00</time>
      </trkpt>
      <trkpt lat="41.620441670000005" lon="2.131036">
        <ele>308.0</ele>
        <time>2019-06-09T07:20:00+02:00</time>
      </trkpt>
      <trkpt lat="41.620515" lon="2.13099934">
        <ele>309.0</ele>
        <time>2019-06-09T07:20:02+02:00</time>
      </trkpt>
      <trkpt lat="41.62059167000001" lon="2.13096134">
        <ele>309.0</ele>
        <time>2019-06-09T07:20:04+02:00</time>
      </trkpt>
      <trkpt lat="41.620666670000006" lon="2.13093034">
        <ele>310.0</ele>
        <time>2019-06-09T07:20:06+02:00</time>
      </trkpt>
      <trkpt lat="41.620731670000005" lon="2.13090167">
        <ele>311.0</ele>
        <time>2019-06-09T07:20:08+02:00</time>
      </trkpt>
      <trkpt lat="41.62080834" lon="2.1308666699999996">
        <ele>311.0</ele>
        <time>2019-06-09T07:20:10+02:00</time>
      </trkpt>
      <trkpt lat="41.620870000000004" lon="2.1308409999999998">
        <ele>312.0</ele>
        <time>2019-06-09T07:20:12+02:00</time>
      </trkpt>
      <trkpt lat="41.620940000000004" lon="2.1308113399999997">
        <ele>313.0</ele>
        <time>2019-06-09T07:20:14+02:00</time>
      </trkpt>
      <trkpt lat="41.62100667000001" lon="2.13077834">
        <ele>313.0</ele>
        <time>2019-06-09T07:20:16+02:00</time>
      </trkpt>
      <trkpt lat="41.621075000000005" lon="2.13074467">
        <ele>314.0</ele>
        <time>2019-06-09T07:20:18+02:00</time>
      </trkpt>
      <trkpt lat="41.621146669999995" lon="2.1307153399999996">
        <ele>315.0</ele>
        <time>2019-06-09T07:20:20+02:00</time>
      </trkpt>
      <trkpt lat="41.62121667000001" lon="2.13068134">
        <ele>315.0</ele>
        <time>2019-06-09T07:20:22+02:00</time>
      </trkpt>
      <trkpt lat="41.62125999999999" lon="2.1306633400000003">
        <ele>316.0</ele>
        <time>2019-06-09T07:20:23+02:00</time>
      </trkpt>
      <trkpt lat="41.62133334" lon="2.13062834">
        <ele>316.0</ele>
        <time>2019-06-09T07:20:25+02:00</time>
      </trkpt>
      <trkpt lat="41.62141167" lon="2.13059067">
        <ele>317.0</ele>
        <time>2019-06-09T07:20:27+02:00</time>
      </trkpt>
      <trkpt lat="41.62147999999999" lon="2.1305590000000003">
        <ele>317.0</ele>
        <time>2019-06-09T07:20:29+02:00</time>
      </trkpt>
      <trkpt lat="41.621555" lon="2.13052434">
        <ele>317.0</ele>
        <time>2019-06-09T07:20:31+02:00</time>
      </trkpt>
      <trkpt lat="41.621631670000006" lon="2.1304980000000002">
        <ele>318.0</ele>
        <time>2019-06-09T07:20:33+02:00</time>
      </trkpt>
      <trkpt lat="41.6217" lon="2.1304773399999997">
        <ele>318.0</ele>
        <time>2019-06-09T07:20:35+02:00</time>
      </trkpt>
      <trkpt lat="41.62177167" lon="2.13044934">
        <ele>319.0</ele>
        <time>2019-06-09T07:20:37+02:00</time>
      </trkpt>
      <trkpt lat="41.621846670000004" lon="2.130427">
        <ele>319.0</ele>
        <time>2019-06-09T07:20:39+02:00</time>
      </trkpt>
      <trkpt lat="41.621915" lon="2.130403">
        <ele>320.0</ele>
        <time>2019-06-09T07:20:41+02:00</time>
      </trkpt>
      <trkpt lat="41.621981670000004" lon="2.13038034">
        <ele>320.0</ele>
        <time>2019-06-09T07:20:43+02:00</time>
      </trkpt>
      <trkpt lat="41.622045" lon="2.1303530000000004">
        <ele>321.0</ele>
        <time>2019-06-09T07:20:45+02:00</time>
      </trkpt>
      <trkpt lat="41.62210834" lon="2.13033234">
        <ele>321.0</ele>
        <time>2019-06-09T07:20:47+02:00</time>
      </trkpt>
      <trkpt lat="41.62216334" lon="2.1303090000000005">
        <ele>321.0</ele>
        <time>2019-06-09T07:20:49+02:00</time>
      </trkpt>
      <trkpt lat="41.622209999999995" lon="2.1302416699999998">
        <ele>321.0</ele>
        <time>2019-06-09T07:20:51+02:00</time>
      </trkpt>
      <trkpt lat="41.62225" lon="2.13016167">
        <ele>321.0</ele>
        <time>2019-06-09T07:20:53+02:00</time>
      </trkpt>
      <trkpt lat="41.62229000000001" lon="2.1300850000000002">
        <ele>321.0</ele>
        <time>2019-06-09T07:20:55+02:00</time>
      </trkpt>
      <trkpt lat="41.62233134" lon="2.13001334">
        <ele>322.0</ele>
        <time>2019-06-09T07:20:57+02:00</time>
      </trkpt>
      <trkpt lat="41.62236500000001" lon="2.1299349999999997">
        <ele>322.0</ele>
        <time>2019-06-09T07:20:59+02:00</time>
      </trkpt>
      <trkpt lat="41.622398000000004" lon="2.12986">
        <ele>323.0</ele>
        <time>2019-06-09T07:21:01+02:00</time>
      </trkpt>
      <trkpt lat="41.62243433999999" lon="2.1297916699999995">
        <ele>323.0</ele>
        <time>2019-06-09T07:21:03+02:00</time>
      </trkpt>
      <trkpt lat="41.62247367" lon="2.1297233399999995">
        <ele>324.0</ele>
        <time>2019-06-09T07:21:05+02:00</time>
      </trkpt>
      <trkpt lat="41.62251467" lon="2.1296583399999998">
        <ele>324.0</ele>
        <time>2019-06-09T07:21:07+02:00</time>
      </trkpt>
      <trkpt lat="41.622558340000005" lon="2.129585">
        <ele>325.0</ele>
        <time>2019-06-09T07:21:09+02:00</time>
      </trkpt>
      <trkpt lat="41.62260233999999" lon="2.12951334">
        <ele>325.0</ele>
        <time>2019-06-09T07:21:11+02:00</time>
      </trkpt>
      <trkpt lat="41.622646" lon="2.129445">
        <ele>325.0</ele>
        <time>2019-06-09T07:21:13+02:00</time>
      </trkpt>
      <trkpt lat="41.622689" lon="2.1293833399999995">
        <ele>326.0</ele>
        <time>2019-06-09T07:21:15+02:00</time>
      </trkpt>
      <trkpt lat="41.622735" lon="2.1293183399999998">
        <ele>326.0</ele>
        <time>2019-06-09T07:21:17+02:00</time>
      </trkpt>
      <trkpt lat="41.62281" lon="2.1292549999999997">
        <ele>327.0</ele>
        <time>2019-06-09T07:21:19+02:00</time>
      </trkpt>
      <trkpt lat="41.622865000000004" lon="2.1291996699999998">
        <ele>327.0</ele>
        <time>2019-06-09T07:21:21+02:00</time>
      </trkpt>
      <trkpt lat="41.62292334" lon="2.1291413399999994">
        <ele>328.0</ele>
        <time>2019-06-09T07:21:23+02:00</time>
      </trkpt>
      <trkpt lat="41.622985" lon="2.1290893399999993">
        <ele>328.0</ele>
        <time>2019-06-09T07:21:25+02:00</time>
      </trkpt>
      <trkpt lat="41.623041670000006" lon="2.1290379999999995">
        <ele>328.0</ele>
        <time>2019-06-09T07:21:27+02:00</time>
      </trkpt>
      <trkpt lat="41.62310334" lon="2.12898267">
        <ele>329.0</ele>
        <time>2019-06-09T07:21:29+02:00</time>
      </trkpt>
      <trkpt lat="41.62316" lon="2.12892867">
        <ele>329.0</ele>
        <time>2019-06-09T07:21:31+02:00</time>
      </trkpt>
      <trkpt lat="41.62322" lon="2.12887134">
        <ele>330.0</ele>
        <time>2019-06-09T07:21:33+02:00</time>
      </trkpt>
      <trkpt lat="41.623275" lon="2.1288133399999998">
        <ele>330.0</ele>
        <time>2019-06-09T07:21:35+02:00</time>
      </trkpt>
      <trkpt lat="41.623324999999994" lon="2.128756">
        <ele>331.0</ele>
        <time>2019-06-09T07:21:37+02:00</time>
      </trkpt>
      <trkpt lat="41.62337000000001" lon="2.1286953399999997">
        <ele>331.0</ele>
        <time>2019-06-09T07:21:39+02:00</time>
      </trkpt>
      <trkpt lat="41.62341500000001" lon="2.12858167">
        <ele>331.0</ele>
        <time>2019-06-09T07:21:41+02:00</time>
      </trkpt>
      <trkpt lat="41.62345634" lon="2.12850167">
        <ele>332.0</ele>
        <time>2019-06-09T07:21:43+02:00</time>
      </trkpt>
      <trkpt lat="41.623501999999995" lon="2.12842334">
        <ele>332.0</ele>
        <time>2019-06-09T07:21:45+02:00</time>
      </trkpt>
      <trkpt lat="41.623549000000004" lon="2.1283499999999997">
        <ele>333.0</ele>
        <time>2019-06-09T07:21:47+02:00</time>
      </trkpt>
      <trkpt lat="41.623593" lon="2.1282799999999997">
        <ele>333.0</ele>
        <time>2019-06-09T07:21:49+02:00</time>
      </trkpt>
      <trkpt lat="41.623636999999995" lon="2.1282083399999996">
        <ele>333.0</ele>
        <time>2019-06-09T07:21:51+02:00</time>
      </trkpt>
      <trkpt lat="41.623678999999996" lon="2.1281349999999994">
        <ele>333.0</ele>
        <time>2019-06-09T07:21:52+02:00</time>
      </trkpt>
      <trkpt lat="41.62371734" lon="2.1280633399999997">
        <ele>334.0</ele>
        <time>2019-06-09T07:21:54+02:00</time>
      </trkpt>
      <trkpt lat="41.62375433999999" lon="2.1279866699999994">
        <ele>334.0</ele>
        <time>2019-06-09T07:21:56+02:00</time>
      </trkpt>
      <trkpt lat="41.623791" lon="2.12791">
        <ele>334.0</ele>
        <time>2019-06-09T07:21:58+02:00</time>
      </trkpt>
      <trkpt lat="41.62382667" lon="2.12783">
        <ele>334.0</ele>
        <time>2019-06-09T07:22:00+02:00</time>
      </trkpt>
      <trkpt lat="41.623865339999995" lon="2.12773667">
        <ele>335.0</ele>
        <time>2019-06-09T07:22:02+02:00</time>
      </trkpt>
      <trkpt lat="41.62390499999999" lon="2.1276400000000004">
        <ele>335.0</ele>
        <time>2019-06-09T07:22:04+02:00</time>
      </trkpt>
      <trkpt lat="41.62394467" lon="2.12753834">
        <ele>335.0</ele>
        <time>2019-06-09T07:22:06+02:00</time>
      </trkpt>
      <trkpt lat="41.62396467000001" lon="2.1274849999999996">
        <ele>335.0</ele>
        <time>2019-06-09T07:22:07+02:00</time>
      </trkpt>
      <trkpt lat="41.62398734" lon="2.12743">
        <ele>335.0</ele>
        <time>2019-06-09T07:22:08+02:00</time>
      </trkpt>
      <trkpt lat="41.624011339999996" lon="2.1273733399999997">
        <ele>335.0</ele>
        <time>2019-06-09T07:22:09+02:00</time>
      </trkpt>
      <trkpt lat="41.62403767000001" lon="2.12731667">
        <ele>335.0</ele>
        <time>2019-06-09T07:22:10+02:00</time>
      </trkpt>
      <trkpt lat="41.624065" lon="2.1272650000000004">
        <ele>335.0</ele>
        <time>2019-06-09T07:22:11+02:00</time>
      </trkpt>
      <trkpt lat="41.62409334" lon="2.12721334">
        <ele>336.0</ele>
        <time>2019-06-09T07:22:12+02:00</time>
      </trkpt>
      <trkpt lat="41.62411834000001" lon="2.1271700000000004">
        <ele>336.0</ele>
        <time>2019-06-09T07:22:13+02:00</time>
      </trkpt>
      <trkpt lat="41.62414734" lon="2.1271250000000004">
        <ele>336.0</ele>
        <time>2019-06-09T07:22:14+02:00</time>
      </trkpt>
      <trkpt lat="41.624176999999996" lon="2.1270800000000003">
        <ele>336.0</ele>
        <time>2019-06-09T07:22:15+02:00</time>
      </trkpt>
      <trkpt lat="41.624207340000005" lon="2.12702834">
        <ele>336.0</ele>
        <time>2019-06-09T07:22:16+02:00</time>
      </trkpt>
      <trkpt lat="41.624259339999995" lon="2.1269250000000004">
        <ele>337.0</ele>
        <time>2019-06-09T07:22:18+02:00</time>
      </trkpt>
      <trkpt lat="41.624235" lon="2.12683834">
        <ele>337.0</ele>
        <time>2019-06-09T07:22:20+02:00</time>
      </trkpt>
      <trkpt lat="41.62418334" lon="2.12675167">
        <ele>338.0</ele>
        <time>2019-06-09T07:22:22+02:00</time>
      </trkpt>
      <trkpt lat="41.62412500000001" lon="2.1266716699999995">
        <ele>338.0</ele>
        <time>2019-06-09T07:22:24+02:00</time>
      </trkpt>
      <trkpt lat="41.624065" lon="2.126585">
        <ele>339.0</ele>
        <time>2019-06-09T07:22:26+02:00</time>
      </trkpt>
      <trkpt lat="41.62402" lon="2.1264849999999997">
        <ele>339.0</ele>
        <time>2019-06-09T07:22:28+02:00</time>
      </trkpt>
      <trkpt lat="41.623987" lon="2.12637334">
        <ele>339.0</ele>
        <time>2019-06-09T07:22:30+02:00</time>
      </trkpt>
      <trkpt lat="41.62396834" lon="2.12626167">
        <ele>340.0</ele>
        <time>2019-06-09T07:22:32+02:00</time>
      </trkpt>
      <trkpt lat="41.62397333999999" lon="2.1261533399999997">
        <ele>340.0</ele>
        <time>2019-06-09T07:22:34+02:00</time>
      </trkpt>
      <trkpt lat="41.62397333999999" lon="2.12609167">
        <ele>340.0</ele>
        <time>2019-06-09T07:22:35+02:00</time>
      </trkpt>
      <trkpt lat="41.623972" lon="2.12602834">
        <ele>341.0</ele>
        <time>2019-06-09T07:22:36+02:00</time>
      </trkpt>
      <trkpt lat="41.62397067" lon="2.125965">
        <ele>341.0</ele>
        <time>2019-06-09T07:22:37+02:00</time>
      </trkpt>
      <trkpt lat="41.623971" lon="2.12590334">
        <ele>341.0</ele>
        <time>2019-06-09T07:22:38+02:00</time>
      </trkpt>
      <trkpt lat="41.623972" lon="2.12584167">
        <ele>341.0</ele>
        <time>2019-06-09T07:22:39+02:00</time>
      </trkpt>
      <trkpt lat="41.623976000000006" lon="2.125725">
        <ele>342.0</ele>
        <time>2019-06-09T07:22:41+02:00</time>
      </trkpt>
      <trkpt lat="41.623986339999995" lon="2.12561834">
        <ele>342.0</ele>
        <time>2019-06-09T07:22:43+02:00</time>
      </trkpt>
      <trkpt lat="41.623998" lon="2.1255150000000005">
        <ele>343.0</ele>
        <time>2019-06-09T07:22:45+02:00</time>
      </trkpt>
      <trkpt lat="41.62401200000001" lon="2.12541334">
        <ele>343.0</ele>
        <time>2019-06-09T07:22:47+02:00</time>
      </trkpt>
      <trkpt lat="41.62402967" lon="2.12532334">
        <ele>343.0</ele>
        <time>2019-06-09T07:22:49+02:00</time>
      </trkpt>
      <trkpt lat="41.62404" lon="2.12523667">
        <ele>344.0</ele>
        <time>2019-06-09T07:22:51+02:00</time>
      </trkpt>
      <trkpt lat="41.62405334" lon="2.12514834">
        <ele>344.0</ele>
        <time>2019-06-09T07:22:53+02:00</time>
      </trkpt>
      <trkpt lat="41.62406867" lon="2.1250549999999997">
        <ele>344.0</ele>
        <time>2019-06-09T07:22:55+02:00</time>
      </trkpt>
      <trkpt lat="41.624083999999996" lon="2.12494834">
        <ele>344.0</ele>
        <time>2019-06-09T07:22:57+02:00</time>
      </trkpt>
      <trkpt lat="41.62410333999999" lon="2.12484">
        <ele>344.0</ele>
        <time>2019-06-09T07:22:59+02:00</time>
      </trkpt>
      <trkpt lat="41.62412033999999" lon="2.12473167">
        <ele>344.0</ele>
        <time>2019-06-09T07:23:01+02:00</time>
      </trkpt>
      <trkpt lat="41.624138" lon="2.1246199999999997">
        <ele>344.0</ele>
        <time>2019-06-09T07:23:03+02:00</time>
      </trkpt>
      <trkpt lat="41.62415134" lon="2.1245183399999994">
        <ele>345.0</ele>
        <time>2019-06-09T07:23:05+02:00</time>
      </trkpt>
      <trkpt lat="41.624167670000006" lon="2.1244199999999998">
        <ele>345.0</ele>
        <time>2019-06-09T07:23:07+02:00</time>
      </trkpt>
      <trkpt lat="41.624181" lon="2.12432">
        <ele>345.0</ele>
        <time>2019-06-09T07:23:09+02:00</time>
      </trkpt>
      <trkpt lat="41.62419267" lon="2.12423167">
        <ele>345.0</ele>
        <time>2019-06-09T07:23:11+02:00</time>
      </trkpt>
      <trkpt lat="41.624208669999994" lon="2.12414834">
        <ele>346.0</ele>
        <time>2019-06-09T07:23:13+02:00</time>
      </trkpt>
      <trkpt lat="41.62422334" lon="2.1240866699999996">
        <ele>346.0</ele>
        <time>2019-06-09T07:23:15+02:00</time>
      </trkpt>
      <trkpt lat="41.62431834" lon="2.1240416699999995">
        <ele>347.0</ele>
        <time>2019-06-09T07:23:17+02:00</time>
      </trkpt>
      <trkpt lat="41.624376670000004" lon="2.1240066699999995">
        <ele>347.0</ele>
        <time>2019-06-09T07:23:19+02:00</time>
      </trkpt>
      <trkpt lat="41.62443667000001" lon="2.1239766700000002">
        <ele>348.0</ele>
        <time>2019-06-09T07:23:21+02:00</time>
      </trkpt>
      <trkpt lat="41.624505" lon="2.1239533399999995">
        <ele>348.0</ele>
        <time>2019-06-09T07:23:23+02:00</time>
      </trkpt>
      <trkpt lat="41.62457167000001" lon="2.1239299999999997">
        <ele>348.0</ele>
        <time>2019-06-09T07:23:25+02:00</time>
      </trkpt>
      <trkpt lat="41.62463334" lon="2.1239029999999994">
        <ele>349.0</ele>
        <time>2019-06-09T07:23:27+02:00</time>
      </trkpt>
      <trkpt lat="41.624695" lon="2.123868">
        <ele>349.0</ele>
        <time>2019-06-09T07:23:29+02:00</time>
      </trkpt>
      <trkpt lat="41.62474667" lon="2.12382634">
        <ele>349.0</ele>
        <time>2019-06-09T07:23:31+02:00</time>
      </trkpt>
      <trkpt lat="41.624786670000006" lon="2.12377867">
        <ele>349.0</ele>
        <time>2019-06-09T07:23:33+02:00</time>
      </trkpt>
      <trkpt lat="41.62482833999999" lon="2.123726">
        <ele>350.0</ele>
        <time>2019-06-09T07:23:35+02:00</time>
      </trkpt>
      <trkpt lat="41.624865000000014" lon="2.123666">
        <ele>350.0</ele>
        <time>2019-06-09T07:23:37+02:00</time>
      </trkpt>
      <trkpt lat="41.62491" lon="2.1235283399999996">
        <ele>351.0</ele>
        <time>2019-06-09T07:23:39+02:00</time>
      </trkpt>
      <trkpt lat="41.624947999999996" lon="2.1234499999999996">
        <ele>351.0</ele>
        <time>2019-06-09T07:23:41+02:00</time>
      </trkpt>
      <trkpt lat="41.62498466999999" lon="2.1233733399999997">
        <ele>352.0</ele>
        <time>2019-06-09T07:23:43+02:00</time>
      </trkpt>
      <trkpt lat="41.62502033999999" lon="2.1232866699999997">
        <ele>353.0</ele>
        <time>2019-06-09T07:23:45+02:00</time>
      </trkpt>
      <trkpt lat="41.62505" lon="2.1231750000000003">
        <ele>353.0</ele>
        <time>2019-06-09T07:23:47+02:00</time>
      </trkpt>
      <trkpt lat="41.62506" lon="2.1231116699999997">
        <ele>354.0</ele>
        <time>2019-06-09T07:23:48+02:00</time>
      </trkpt>
      <trkpt lat="41.625071000000005" lon="2.12304">
        <ele>354.0</ele>
        <time>2019-06-09T07:23:49+02:00</time>
      </trkpt>
      <trkpt lat="41.62508367" lon="2.12297">
        <ele>354.0</ele>
        <time>2019-06-09T07:23:50+02:00</time>
      </trkpt>
      <trkpt lat="41.62509967" lon="2.12289834">
        <ele>354.0</ele>
        <time>2019-06-09T07:23:51+02:00</time>
      </trkpt>
      <trkpt lat="41.62511834" lon="2.1228216699999995">
        <ele>354.0</ele>
        <time>2019-06-09T07:23:52+02:00</time>
      </trkpt>
      <trkpt lat="41.62513967000001" lon="2.1227466699999997">
        <ele>354.0</ele>
        <time>2019-06-09T07:23:53+02:00</time>
      </trkpt>
      <trkpt lat="41.62516167" lon="2.1226733399999995">
        <ele>355.0</ele>
        <time>2019-06-09T07:23:54+02:00</time>
      </trkpt>
      <trkpt lat="41.62518399999999" lon="2.12260167">
        <ele>355.0</ele>
        <time>2019-06-09T07:23:55+02:00</time>
      </trkpt>
      <trkpt lat="41.625210339999995" lon="2.1225333399999995">
        <ele>355.0</ele>
        <time>2019-06-09T07:23:56+02:00</time>
      </trkpt>
      <trkpt lat="41.62523666999999" lon="2.12247167">
        <ele>356.0</ele>
        <time>2019-06-09T07:23:57+02:00</time>
      </trkpt>
      <trkpt lat="41.62526567000001" lon="2.1224049999999997">
        <ele>356.0</ele>
        <time>2019-06-09T07:23:58+02:00</time>
      </trkpt>
      <trkpt lat="41.625298339999986" lon="2.1223300000000003">
        <ele>356.0</ele>
        <time>2019-06-09T07:23:59+02:00</time>
      </trkpt>
      <trkpt lat="41.625332" lon="2.1222566699999996">
        <ele>357.0</ele>
        <time>2019-06-09T07:24:00+02:00</time>
      </trkpt>
      <trkpt lat="41.625367999999995" lon="2.1221783399999996">
        <ele>357.0</ele>
        <time>2019-06-09T07:24:01+02:00</time>
      </trkpt>
      <trkpt lat="41.62540467000001" lon="2.122105">
        <ele>358.0</ele>
        <time>2019-06-09T07:24:02+02:00</time>
      </trkpt>
      <trkpt lat="41.62543933999999" lon="2.1220416699999993">
        <ele>358.0</ele>
        <time>2019-06-09T07:24:03+02:00</time>
      </trkpt>
      <trkpt lat="41.625477339999996" lon="2.12199167">
        <ele>359.0</ele>
        <time>2019-06-09T07:24:04+02:00</time>
      </trkpt>
      <trkpt lat="41.62551234000001" lon="2.121945">
        <ele>359.0</ele>
        <time>2019-06-09T07:24:05+02:00</time>
      </trkpt>
      <trkpt lat="41.62568334000001" lon="2.1219099999999997">
        <ele>360.0</ele>
        <time>2019-06-09T07:24:06+02:00</time>
      </trkpt>
      <trkpt lat="41.62574834" lon="2.12188">
        <ele>360.0</ele>
        <time>2019-06-09T07:24:07+02:00</time>
      </trkpt>
      <trkpt lat="41.625805" lon="2.121855">
        <ele>361.0</ele>
        <time>2019-06-09T07:24:08+02:00</time>
      </trkpt>
      <trkpt lat="41.62586166999999" lon="2.12185">
        <ele>361.0</ele>
        <time>2019-06-09T07:24:09+02:00</time>
      </trkpt>
      <trkpt lat="41.62591667" lon="2.1218516700000003">
        <ele>363.0</ele>
        <time>2019-06-09T07:24:10+02:00</time>
      </trkpt>
      <trkpt lat="41.625969999999995" lon="2.1218583399999997">
        <ele>363.0</ele>
        <time>2019-06-09T07:24:11+02:00</time>
      </trkpt>
      <trkpt lat="41.626020000000004" lon="2.1218566700000006">
        <ele>364.0</ele>
        <time>2019-06-09T07:24:12+02:00</time>
      </trkpt>
      <trkpt lat="41.62609500000001" lon="2.1218083399999994">
        <ele>366.0</ele>
        <time>2019-06-09T07:24:14+02:00</time>
      </trkpt>
      <trkpt lat="41.62616167" lon="2.1217610000000002">
        <ele>367.0</ele>
        <time>2019-06-09T07:24:16+02:00</time>
      </trkpt>
      <trkpt lat="41.626215" lon="2.1217213399999997">
        <ele>368.0</ele>
        <time>2019-06-09T07:24:18+02:00</time>
      </trkpt>
      <trkpt lat="41.626255" lon="2.1216783399999994">
        <ele>370.0</ele>
        <time>2019-06-09T07:24:20+02:00</time>
      </trkpt>
      <trkpt lat="41.62627834" lon="2.1216099999999996">
        <ele>371.0</ele>
        <time>2019-06-09T07:24:22+02:00</time>
      </trkpt>
      <trkpt lat="41.626305" lon="2.12156">
        <ele>372.0</ele>
        <time>2019-06-09T07:24:24+02:00</time>
      </trkpt>
      <trkpt lat="41.62634" lon="2.1214916699999997">
        <ele>374.0</ele>
        <time>2019-06-09T07:24:27+02:00</time>
      </trkpt>
      <trkpt lat="41.626383340000004" lon="2.1214383399999996">
        <ele>376.0</ele>
        <time>2019-06-09T07:24:30+02:00</time>
      </trkpt>
      <trkpt lat="41.62642667" lon="2.1213849999999996">
        <ele>377.0</ele>
        <time>2019-06-09T07:24:33+02:00</time>
      </trkpt>
      <trkpt lat="41.626464670000004" lon="2.1213333399999996">
        <ele>379.0</ele>
        <time>2019-06-09T07:24:36+02:00</time>
      </trkpt>
      <trkpt lat="41.626500670000006" lon="2.1212716699999996">
        <ele>379.0</ele>
        <time>2019-06-09T07:24:39+02:00</time>
      </trkpt>
      <trkpt lat="41.626535669999996" lon="2.12121667">
        <ele>380.0</ele>
        <time>2019-06-09T07:24:42+02:00</time>
      </trkpt>
      <trkpt lat="41.62659334" lon="2.12117167">
        <ele>381.0</ele>
        <time>2019-06-09T07:24:45+02:00</time>
      </trkpt>
      <trkpt lat="41.62665" lon="2.12115334">
        <ele>382.0</ele>
        <time>2019-06-09T07:24:48+02:00</time>
      </trkpt>
      <trkpt lat="41.62671334" lon="2.12114834">
        <ele>383.0</ele>
        <time>2019-06-09T07:24:51+02:00</time>
      </trkpt>
      <trkpt lat="41.62677167" lon="2.12112634">
        <ele>384.0</ele>
        <time>2019-06-09T07:24:53+02:00</time>
      </trkpt>
      <trkpt lat="41.62681834" lon="2.121111">
        <ele>384.0</ele>
        <time>2019-06-09T07:24:55+02:00</time>
      </trkpt>
      <trkpt lat="41.62687" lon="2.1210736700000004">
        <ele>385.0</ele>
        <time>2019-06-09T07:24:58+02:00</time>
      </trkpt>
      <trkpt lat="41.626888339999994" lon="2.1210033399999997">
        <ele>386.0</ele>
        <time>2019-06-09T07:25:01+02:00</time>
      </trkpt>
      <trkpt lat="41.62687" lon="2.12093">
        <ele>387.0</ele>
        <time>2019-06-09T07:25:05+02:00</time>
      </trkpt>
      <trkpt lat="41.62686167" lon="2.1208566699999998">
        <ele>387.0</ele>
        <time>2019-06-09T07:25:08+02:00</time>
      </trkpt>
      <trkpt lat="41.62685499999999" lon="2.120795">
        <ele>387.0</ele>
        <time>2019-06-09T07:25:11+02:00</time>
      </trkpt>
      <trkpt lat="41.626825" lon="2.120735">
        <ele>387.0</ele>
        <time>2019-06-09T07:25:15+02:00</time>
      </trkpt>
      <trkpt lat="41.62676667000001" lon="2.12073667">
        <ele>387.0</ele>
        <time>2019-06-09T07:25:18+02:00</time>
      </trkpt>
      <trkpt lat="41.626720000000006" lon="2.1207650000000005">
        <ele>387.0</ele>
        <time>2019-06-09T07:25:20+02:00</time>
      </trkpt>
      <trkpt lat="41.62667167000001" lon="2.1208099999999996">
        <ele>387.0</ele>
        <time>2019-06-09T07:25:23+02:00</time>
      </trkpt>
      <trkpt lat="41.626635" lon="2.1208566699999998">
        <ele>387.0</ele>
        <time>2019-06-09T07:25:26+02:00</time>
      </trkpt>
      <trkpt lat="41.62659167" lon="2.12090334">
        <ele>387.0</ele>
        <time>2019-06-09T07:25:29+02:00</time>
      </trkpt>
      <trkpt lat="41.62655334" lon="2.1209463399999997">
        <ele>387.0</ele>
        <time>2019-06-09T07:25:32+02:00</time>
      </trkpt>
      <trkpt lat="41.62650834" lon="2.1209893399999995">
        <ele>386.0</ele>
        <time>2019-06-09T07:25:35+02:00</time>
      </trkpt>
      <trkpt lat="41.62645500000001" lon="2.12103034">
        <ele>386.0</ele>
        <time>2019-06-09T07:25:38+02:00</time>
      </trkpt>
      <trkpt lat="41.62640499999999" lon="2.12106034">
        <ele>386.0</ele>
        <time>2019-06-09T07:25:40+02:00</time>
      </trkpt>
      <trkpt lat="41.626343340000005" lon="2.12108467">
        <ele>386.0</ele>
        <time>2019-06-09T07:25:42+02:00</time>
      </trkpt>
      <trkpt lat="41.62627500000001" lon="2.12110034">
        <ele>386.0</ele>
        <time>2019-06-09T07:25:44+02:00</time>
      </trkpt>
      <trkpt lat="41.62619833999999" lon="2.1211053399999997">
        <ele>385.0</ele>
        <time>2019-06-09T07:25:46+02:00</time>
      </trkpt>
      <trkpt lat="41.62615334" lon="2.121098">
        <ele>385.0</ele>
        <time>2019-06-09T07:25:47+02:00</time>
      </trkpt>
      <trkpt lat="41.62610333999999" lon="2.121045">
        <ele>385.0</ele>
        <time>2019-06-09T07:25:48+02:00</time>
      </trkpt>
      <trkpt lat="41.62605334" lon="2.1210216699999997">
        <ele>385.0</ele>
        <time>2019-06-09T07:25:49+02:00</time>
      </trkpt>
      <trkpt lat="41.625998339999995" lon="2.121">
        <ele>385.0</ele>
        <time>2019-06-09T07:25:50+02:00</time>
      </trkpt>
      <trkpt lat="41.62594333999999" lon="2.1209866699999997">
        <ele>385.0</ele>
        <time>2019-06-09T07:25:51+02:00</time>
      </trkpt>
      <trkpt lat="41.62587499999999" lon="2.12098734">
        <ele>385.0</ele>
        <time>2019-06-09T07:25:52+02:00</time>
      </trkpt>
      <trkpt lat="41.625815" lon="2.12100534">
        <ele>385.0</ele>
        <time>2019-06-09T07:25:53+02:00</time>
      </trkpt>
      <trkpt lat="41.625758340000004" lon="2.1210329999999997">
        <ele>385.0</ele>
        <time>2019-06-09T07:25:54+02:00</time>
      </trkpt>
      <trkpt lat="41.625699999999995" lon="2.1210983399999996">
        <ele>385.0</ele>
        <time>2019-06-09T07:25:55+02:00</time>
      </trkpt>
      <trkpt lat="41.625636670000006" lon="2.1211283399999994">
        <ele>385.0</ele>
        <time>2019-06-09T07:25:56+02:00</time>
      </trkpt>
      <trkpt lat="41.625573339999995" lon="2.1211510000000002">
        <ele>385.0</ele>
        <time>2019-06-09T07:25:57+02:00</time>
      </trkpt>
      <trkpt lat="41.625508339999996" lon="2.1211626700000004">
        <ele>385.0</ele>
        <time>2019-06-09T07:25:58+02:00</time>
      </trkpt>
      <trkpt lat="41.625443340000004" lon="2.121166">
        <ele>385.0</ele>
        <time>2019-06-09T07:25:59+02:00</time>
      </trkpt>
      <trkpt lat="41.62539167000001" lon="2.1211629999999997">
        <ele>385.0</ele>
        <time>2019-06-09T07:26:00+02:00</time>
      </trkpt>
      <trkpt lat="41.625315" lon="2.1211620000000004">
        <ele>385.0</ele>
        <time>2019-06-09T07:26:01+02:00</time>
      </trkpt>
      <trkpt lat="41.62526667" lon="2.121159">
        <ele>385.0</ele>
        <time>2019-06-09T07:26:02+02:00</time>
      </trkpt>
      <trkpt lat="41.62519" lon="2.1211593399999997">
        <ele>385.0</ele>
        <time>2019-06-09T07:26:03+02:00</time>
      </trkpt>
      <trkpt lat="41.62513833999999" lon="2.12116034">
        <ele>385.0</ele>
        <time>2019-06-09T07:26:04+02:00</time>
      </trkpt>
      <trkpt lat="41.625074999999995" lon="2.12116334">
        <ele>385.0</ele>
        <time>2019-06-09T07:26:05+02:00</time>
      </trkpt>
      <trkpt lat="41.62492667" lon="2.121171">
        <ele>385.0</ele>
        <time>2019-06-09T07:26:06+02:00</time>
      </trkpt>
      <trkpt lat="41.62487167000001" lon="2.1211733399999995">
        <ele>385.0</ele>
        <time>2019-06-09T07:26:07+02:00</time>
      </trkpt>
      <trkpt lat="41.624788339999995" lon="2.1211756699999995">
        <ele>385.0</ele>
        <time>2019-06-09T07:26:08+02:00</time>
      </trkpt>
      <trkpt lat="41.624715" lon="2.12117434">
        <ele>385.0</ele>
        <time>2019-06-09T07:26:09+02:00</time>
      </trkpt>
      <trkpt lat="41.624645" lon="2.12117167">
        <ele>385.0</ele>
        <time>2019-06-09T07:26:10+02:00</time>
      </trkpt>
      <trkpt lat="41.62457167000001" lon="2.12117067">
        <ele>385.0</ele>
        <time>2019-06-09T07:26:11+02:00</time>
      </trkpt>
      <trkpt lat="41.62450834" lon="2.1211670000000007">
        <ele>385.0</ele>
        <time>2019-06-09T07:26:12+02:00</time>
      </trkpt>
      <trkpt lat="41.62438667" lon="2.12116634">
        <ele>385.0</ele>
        <time>2019-06-09T07:26:13+02:00</time>
      </trkpt>
      <trkpt lat="41.62430667" lon="2.1211676699999997">
        <ele>385.0</ele>
        <time>2019-06-09T07:26:14+02:00</time>
      </trkpt>
      <trkpt lat="41.624235" lon="2.1211693399999993">
        <ele>385.0</ele>
        <time>2019-06-09T07:26:15+02:00</time>
      </trkpt>
      <trkpt lat="41.62416834" lon="2.121179">
        <ele>385.0</ele>
        <time>2019-06-09T07:26:16+02:00</time>
      </trkpt>
      <trkpt lat="41.624120000000005" lon="2.12118934">
        <ele>385.0</ele>
        <time>2019-06-09T07:26:17+02:00</time>
      </trkpt>
      <trkpt lat="41.624050000000004" lon="2.121205">
        <ele>385.0</ele>
        <time>2019-06-09T07:26:18+02:00</time>
      </trkpt>
      <trkpt lat="41.62396834" lon="2.1212229999999996">
        <ele>385.0</ele>
        <time>2019-06-09T07:26:19+02:00</time>
      </trkpt>
      <trkpt lat="41.623909999999995" lon="2.121241">
        <ele>385.0</ele>
        <time>2019-06-09T07:26:20+02:00</time>
      </trkpt>
      <trkpt lat="41.62381834" lon="2.12126267">
        <ele>385.0</ele>
        <time>2019-06-09T07:26:21+02:00</time>
      </trkpt>
      <trkpt lat="41.623734999999996" lon="2.1212806699999995">
        <ele>385.0</ele>
        <time>2019-06-09T07:26:22+02:00</time>
      </trkpt>
      <trkpt lat="41.623668339999995" lon="2.121298">
        <ele>385.0</ele>
        <time>2019-06-09T07:26:23+02:00</time>
      </trkpt>
      <trkpt lat="41.62358167000001" lon="2.12131767">
        <ele>385.0</ele>
        <time>2019-06-09T07:26:24+02:00</time>
      </trkpt>
      <trkpt lat="41.623490000000004" lon="2.12133367">
        <ele>385.0</ele>
        <time>2019-06-09T07:26:25+02:00</time>
      </trkpt>
      <trkpt lat="41.62339667" lon="2.12134967">
        <ele>385.0</ele>
        <time>2019-06-09T07:26:26+02:00</time>
      </trkpt>
      <trkpt lat="41.62329667" lon="2.1213616699999998">
        <ele>385.0</ele>
        <time>2019-06-09T07:26:27+02:00</time>
      </trkpt>
      <trkpt lat="41.62319334" lon="2.1213733399999994">
        <ele>385.0</ele>
        <time>2019-06-09T07:26:28+02:00</time>
      </trkpt>
      <trkpt lat="41.623085" lon="2.1213849999999996">
        <ele>385.0</ele>
        <time>2019-06-09T07:26:29+02:00</time>
      </trkpt>
      <trkpt lat="41.622975" lon="2.12139067">
        <ele>385.0</ele>
        <time>2019-06-09T07:26:30+02:00</time>
      </trkpt>
      <trkpt lat="41.62287" lon="2.121395">
        <ele>385.0</ele>
        <time>2019-06-09T07:26:31+02:00</time>
      </trkpt>
      <trkpt lat="41.62276667" lon="2.12140434">
        <ele>385.0</ele>
        <time>2019-06-09T07:26:32+02:00</time>
      </trkpt>
      <trkpt lat="41.62266167" lon="2.1214076699999995">
        <ele>385.0</ele>
        <time>2019-06-09T07:26:33+02:00</time>
      </trkpt>
      <trkpt lat="41.62260499999999" lon="2.12141334">
        <ele>385.0</ele>
        <time>2019-06-09T07:26:34+02:00</time>
      </trkpt>
      <trkpt lat="41.62254" lon="2.121421">
        <ele>385.0</ele>
        <time>2019-06-09T07:26:35+02:00</time>
      </trkpt>
      <trkpt lat="41.62249667000001" lon="2.12153834">
        <ele>385.0</ele>
        <time>2019-06-09T07:26:36+02:00</time>
      </trkpt>
      <trkpt lat="41.62247334" lon="2.12162834">
        <ele>385.0</ele>
        <time>2019-06-09T07:26:37+02:00</time>
      </trkpt>
      <trkpt lat="41.62245333999999" lon="2.1217333399999996">
        <ele>385.0</ele>
        <time>2019-06-09T07:26:38+02:00</time>
      </trkpt>
      <trkpt lat="41.62252" lon="2.1218583399999997">
        <ele>386.0</ele>
        <time>2019-06-09T07:26:39+02:00</time>
      </trkpt>
      <trkpt lat="41.62247167" lon="2.1219616699999997">
        <ele>386.0</ele>
        <time>2019-06-09T07:26:40+02:00</time>
      </trkpt>
      <trkpt lat="41.622434999999996" lon="2.122">
        <ele>386.0</ele>
        <time>2019-06-09T07:26:41+02:00</time>
      </trkpt>
      <trkpt lat="41.622405" lon="2.12207">
        <ele>386.0</ele>
        <time>2019-06-09T07:26:42+02:00</time>
      </trkpt>
      <trkpt lat="41.622378" lon="2.1221349999999997">
        <ele>386.0</ele>
        <time>2019-06-09T07:26:43+02:00</time>
      </trkpt>
      <trkpt lat="41.622346670000006" lon="2.12221">
        <ele>386.0</ele>
        <time>2019-06-09T07:26:44+02:00</time>
      </trkpt>
      <trkpt lat="41.622319000000005" lon="2.12226">
        <ele>386.0</ele>
        <time>2019-06-09T07:26:45+02:00</time>
      </trkpt>
      <trkpt lat="41.622265670000004" lon="2.1223483399999994">
        <ele>386.0</ele>
        <time>2019-06-09T07:26:47+02:00</time>
      </trkpt>
      <trkpt lat="41.622226" lon="2.1224083399999993">
        <ele>386.0</ele>
        <time>2019-06-09T07:26:48+02:00</time>
      </trkpt>
      <trkpt lat="41.622168" lon="2.12248667">
        <ele>386.0</ele>
        <time>2019-06-09T07:26:50+02:00</time>
      </trkpt>
      <trkpt lat="41.62213233999999" lon="2.122525">
        <ele>386.0</ele>
        <time>2019-06-09T07:26:51+02:00</time>
      </trkpt>
      <trkpt lat="41.622097000000004" lon="2.1225650000000003">
        <ele>386.0</ele>
        <time>2019-06-09T07:26:52+02:00</time>
      </trkpt>
      <trkpt lat="41.62206267" lon="2.12260334">
        <ele>386.0</ele>
        <time>2019-06-09T07:26:53+02:00</time>
      </trkpt>
      <trkpt lat="41.622028" lon="2.1226416699999997">
        <ele>386.0</ele>
        <time>2019-06-09T07:26:54+02:00</time>
      </trkpt>
      <trkpt lat="41.621959669999995" lon="2.12272667">
        <ele>386.0</ele>
        <time>2019-06-09T07:26:56+02:00</time>
      </trkpt>
      <trkpt lat="41.62187667" lon="2.12279834">
        <ele>386.0</ele>
        <time>2019-06-09T07:26:58+02:00</time>
      </trkpt>
      <trkpt lat="41.62181667000001" lon="2.1228716699999994">
        <ele>386.0</ele>
        <time>2019-06-09T07:27:00+02:00</time>
      </trkpt>
      <trkpt lat="41.62175167" lon="2.1229426699999996">
        <ele>386.0</ele>
        <time>2019-06-09T07:27:02+02:00</time>
      </trkpt>
      <trkpt lat="41.621685" lon="2.12300867">
        <ele>386.0</ele>
        <time>2019-06-09T07:27:04+02:00</time>
      </trkpt>
      <trkpt lat="41.621605" lon="2.1230683399999997">
        <ele>386.0</ele>
        <time>2019-06-09T07:27:06+02:00</time>
      </trkpt>
      <trkpt lat="41.62152" lon="2.12308">
        <ele>386.0</ele>
        <time>2019-06-09T07:27:08+02:00</time>
      </trkpt>
      <trkpt lat="41.62143334" lon="2.123095">
        <ele>386.0</ele>
        <time>2019-06-09T07:27:10+02:00</time>
      </trkpt>
      <trkpt lat="41.621388339999996" lon="2.1230996699999998">
        <ele>385.0</ele>
        <time>2019-06-09T07:27:11+02:00</time>
      </trkpt>
      <trkpt lat="41.62134334" lon="2.12310767">
        <ele>385.0</ele>
        <time>2019-06-09T07:27:12+02:00</time>
      </trkpt>
      <trkpt lat="41.621298339999996" lon="2.12311434">
        <ele>385.0</ele>
        <time>2019-06-09T07:27:13+02:00</time>
      </trkpt>
      <trkpt lat="41.621253339999996" lon="2.12312034">
        <ele>385.0</ele>
        <time>2019-06-09T07:27:14+02:00</time>
      </trkpt>
      <trkpt lat="41.62120667000001" lon="2.123126">
        <ele>385.0</ele>
        <time>2019-06-09T07:27:15+02:00</time>
      </trkpt>
      <trkpt lat="41.621161670000006" lon="2.12313234">
        <ele>385.0</ele>
        <time>2019-06-09T07:27:16+02:00</time>
      </trkpt>
      <trkpt lat="41.62111500000001" lon="2.123139">
        <ele>385.0</ele>
        <time>2019-06-09T07:27:17+02:00</time>
      </trkpt>
      <trkpt lat="41.621069999999996" lon="2.1231459999999998">
        <ele>385.0</ele>
        <time>2019-06-09T07:27:18+02:00</time>
      </trkpt>
      <trkpt lat="41.620981670000006" lon="2.1231599999999995">
        <ele>385.0</ele>
        <time>2019-06-09T07:27:20+02:00</time>
      </trkpt>
      <trkpt lat="41.620936670000006" lon="2.1231663399999996">
        <ele>384.0</ele>
        <time>2019-06-09T07:27:21+02:00</time>
      </trkpt>
      <trkpt lat="41.62085167" lon="2.1231786700000006">
        <ele>384.0</ele>
        <time>2019-06-09T07:27:23+02:00</time>
      </trkpt>
      <trkpt lat="41.620754999999996" lon="2.1231946699999997">
        <ele>384.0</ele>
        <time>2019-06-09T07:27:25+02:00</time>
      </trkpt>
      <trkpt lat="41.62067834" lon="2.123206">
        <ele>383.0</ele>
        <time>2019-06-09T07:27:27+02:00</time>
      </trkpt>
      <trkpt lat="41.62062667" lon="2.123214">
        <ele>383.0</ele>
        <time>2019-06-09T07:27:28+02:00</time>
      </trkpt>
      <trkpt lat="41.62054" lon="2.1232293399999995">
        <ele>383.0</ele>
        <time>2019-06-09T07:27:30+02:00</time>
      </trkpt>
      <trkpt lat="41.620461670000005" lon="2.1232413399999994">
        <ele>382.0</ele>
        <time>2019-06-09T07:27:32+02:00</time>
      </trkpt>
      <trkpt lat="41.620375" lon="2.12325434">
        <ele>382.0</ele>
        <time>2019-06-09T07:27:34+02:00</time>
      </trkpt>
      <trkpt lat="41.620288339999995" lon="2.123268">
        <ele>381.0</ele>
        <time>2019-06-09T07:27:36+02:00</time>
      </trkpt>
      <trkpt lat="41.62023667" lon="2.123279">
        <ele>381.0</ele>
        <time>2019-06-09T07:27:37+02:00</time>
      </trkpt>
      <trkpt lat="41.620191670000004" lon="2.123286">
        <ele>381.0</ele>
        <time>2019-06-09T07:27:38+02:00</time>
      </trkpt>
      <trkpt lat="41.620115000000006" lon="2.12329867">
        <ele>381.0</ele>
        <time>2019-06-09T07:27:40+02:00</time>
      </trkpt>
      <trkpt lat="41.62007" lon="2.123309">
        <ele>380.0</ele>
        <time>2019-06-09T07:27:41+02:00</time>
      </trkpt>
      <trkpt lat="41.61998334" lon="2.123327">
        <ele>380.0</ele>
        <time>2019-06-09T07:27:43+02:00</time>
      </trkpt>
      <trkpt lat="41.619935" lon="2.1233393399999994">
        <ele>380.0</ele>
        <time>2019-06-09T07:27:44+02:00</time>
      </trkpt>
      <trkpt lat="41.61989167" lon="2.12335134">
        <ele>379.0</ele>
        <time>2019-06-09T07:27:45+02:00</time>
      </trkpt>
      <trkpt lat="41.619815" lon="2.123373">
        <ele>379.0</ele>
        <time>2019-06-09T07:27:47+02:00</time>
      </trkpt>
      <trkpt lat="41.61972334" lon="2.123395">
        <ele>378.0</ele>
        <time>2019-06-09T07:27:49+02:00</time>
      </trkpt>
      <trkpt lat="41.61965" lon="2.123418">
        <ele>378.0</ele>
        <time>2019-06-09T07:27:51+02:00</time>
      </trkpt>
      <trkpt lat="41.619568339999994" lon="2.1234396700000002">
        <ele>377.0</ele>
        <time>2019-06-09T07:27:53+02:00</time>
      </trkpt>
      <trkpt lat="41.61948834" lon="2.1234653399999996">
        <ele>376.0</ele>
        <time>2019-06-09T07:27:55+02:00</time>
      </trkpt>
      <trkpt lat="41.61944167" lon="2.1234803399999995">
        <ele>376.0</ele>
        <time>2019-06-09T07:27:57+02:00</time>
      </trkpt>
      <trkpt lat="41.619369999999996" lon="2.12349634">
        <ele>376.0</ele>
        <time>2019-06-09T07:27:58+02:00</time>
      </trkpt>
      <trkpt lat="41.61929" lon="2.1235183399999995">
        <ele>375.0</ele>
        <time>2019-06-09T07:28:00+02:00</time>
      </trkpt>
      <trkpt lat="41.61924167" lon="2.1235336699999996">
        <ele>375.0</ele>
        <time>2019-06-09T07:28:01+02:00</time>
      </trkpt>
      <trkpt lat="41.61916333999999" lon="2.12355167">
        <ele>374.0</ele>
        <time>2019-06-09T07:28:03+02:00</time>
      </trkpt>
      <trkpt lat="41.61909167" lon="2.12357234">
        <ele>374.0</ele>
        <time>2019-06-09T07:28:05+02:00</time>
      </trkpt>
      <trkpt lat="41.619009999999996" lon="2.12359134">
        <ele>374.0</ele>
        <time>2019-06-09T07:28:07+02:00</time>
      </trkpt>
      <trkpt lat="41.61896" lon="2.1236083399999997">
        <ele>374.0</ele>
        <time>2019-06-09T07:28:08+02:00</time>
      </trkpt>
      <trkpt lat="41.618876670000006" lon="2.1236273399999996">
        <ele>373.0</ele>
        <time>2019-06-09T07:28:10+02:00</time>
      </trkpt>
      <trkpt lat="41.61880167" lon="2.12365067">
        <ele>373.0</ele>
        <time>2019-06-09T07:28:12+02:00</time>
      </trkpt>
      <trkpt lat="41.61870667" lon="2.1236729999999997">
        <ele>372.0</ele>
        <time>2019-06-09T07:28:14+02:00</time>
      </trkpt>
      <trkpt lat="41.61863999999999" lon="2.123695">
        <ele>372.0</ele>
        <time>2019-06-09T07:28:16+02:00</time>
      </trkpt>
      <trkpt lat="41.618590000000005" lon="2.1237079999999997">
        <ele>372.0</ele>
        <time>2019-06-09T07:28:17+02:00</time>
      </trkpt>
      <trkpt lat="41.61850667" lon="2.12373434">
        <ele>371.0</ele>
        <time>2019-06-09T07:28:19+02:00</time>
      </trkpt>
      <trkpt lat="41.61842834" lon="2.123754">
        <ele>371.0</ele>
        <time>2019-06-09T07:28:21+02:00</time>
      </trkpt>
      <trkpt lat="41.61834334" lon="2.1237823400000004">
        <ele>370.0</ele>
        <time>2019-06-09T07:28:23+02:00</time>
      </trkpt>
      <trkpt lat="41.618289999999995" lon="2.12380367">
        <ele>370.0</ele>
        <time>2019-06-09T07:28:24+02:00</time>
      </trkpt>
      <trkpt lat="41.618205" lon="2.1238333399999996">
        <ele>370.0</ele>
        <time>2019-06-09T07:28:26+02:00</time>
      </trkpt>
      <trkpt lat="41.61815834" lon="2.12385367">
        <ele>369.0</ele>
        <time>2019-06-09T07:28:27+02:00</time>
      </trkpt>
      <trkpt lat="41.61811167" lon="2.12388">
        <ele>369.0</ele>
        <time>2019-06-09T07:28:28+02:00</time>
      </trkpt>
      <trkpt lat="41.618055000000005" lon="2.1239093399999995">
        <ele>369.0</ele>
        <time>2019-06-09T07:28:29+02:00</time>
      </trkpt>
      <trkpt lat="41.61801334" lon="2.1239276699999996">
        <ele>369.0</ele>
        <time>2019-06-09T07:28:30+02:00</time>
      </trkpt>
      <trkpt lat="41.617945" lon="2.1239606699999998">
        <ele>369.0</ele>
        <time>2019-06-09T07:28:32+02:00</time>
      </trkpt>
      <trkpt lat="41.61787667" lon="2.12399367">
        <ele>368.0</ele>
        <time>2019-06-09T07:28:34+02:00</time>
      </trkpt>
      <trkpt lat="41.61783667000001" lon="2.12401167">
        <ele>367.0</ele>
        <time>2019-06-09T07:28:36+02:00</time>
      </trkpt>
      <trkpt lat="41.61784000000001" lon="2.12402">
        <ele>367.0</ele>
        <time>2019-06-09T07:28:38+02:00</time>
      </trkpt>
      <trkpt lat="41.61786834000001" lon="2.1239733399999996">
        <ele>367.0</ele>
        <time>2019-06-09T07:28:40+02:00</time>
      </trkpt>
      <trkpt lat="41.617906340000005" lon="2.1239166699999994">
        <ele>367.0</ele>
        <time>2019-06-09T07:28:42+02:00</time>
      </trkpt>
      <trkpt lat="41.61793633999999" lon="2.1238616699999997">
        <ele>367.0</ele>
        <time>2019-06-09T07:28:44+02:00</time>
      </trkpt>
      <trkpt lat="41.61797" lon="2.1237933399999998">
        <ele>367.0</ele>
        <time>2019-06-09T07:28:46+02:00</time>
      </trkpt>
      <trkpt lat="41.618006" lon="2.12372">
        <ele>367.0</ele>
        <time>2019-06-09T07:28:48+02:00</time>
      </trkpt>
      <trkpt lat="41.618039339999996" lon="2.123645">
        <ele>367.0</ele>
        <time>2019-06-09T07:28:50+02:00</time>
      </trkpt>
      <trkpt lat="41.618070669999994" lon="2.1235633399999996">
        <ele>367.0</ele>
        <time>2019-06-09T07:28:52+02:00</time>
      </trkpt>
      <trkpt lat="41.618101339999996" lon="2.1234833399999995">
        <ele>366.0</ele>
        <time>2019-06-09T07:28:54+02:00</time>
      </trkpt>
      <trkpt lat="41.61813367" lon="2.1234">
        <ele>366.0</ele>
        <time>2019-06-09T07:28:56+02:00</time>
      </trkpt>
      <trkpt lat="41.618165" lon="2.1233200000000005">
        <ele>366.0</ele>
        <time>2019-06-09T07:28:58+02:00</time>
      </trkpt>
      <trkpt lat="41.61819767" lon="2.12324">
        <ele>366.0</ele>
        <time>2019-06-09T07:29:00+02:00</time>
      </trkpt>
      <trkpt lat="41.61823299999999" lon="2.12316167">
        <ele>366.0</ele>
        <time>2019-06-09T07:29:02+02:00</time>
      </trkpt>
      <trkpt lat="41.61826734" lon="2.12308834">
        <ele>365.0</ele>
        <time>2019-06-09T07:29:04+02:00</time>
      </trkpt>
      <trkpt lat="41.618304" lon="2.12301667">
        <ele>365.0</ele>
        <time>2019-06-09T07:29:06+02:00</time>
      </trkpt>
      <trkpt lat="41.61834700000001" lon="2.1229450000000005">
        <ele>365.0</ele>
        <time>2019-06-09T07:29:08+02:00</time>
      </trkpt>
      <trkpt lat="41.61839200000001" lon="2.1228733399999995">
        <ele>364.0</ele>
        <time>2019-06-09T07:29:10+02:00</time>
      </trkpt>
      <trkpt lat="41.61844367" lon="2.1227849999999995">
        <ele>363.0</ele>
        <time>2019-06-09T07:29:12+02:00</time>
      </trkpt>
      <trkpt lat="41.618495" lon="2.12269334">
        <ele>363.0</ele>
        <time>2019-06-09T07:29:14+02:00</time>
      </trkpt>
      <trkpt lat="41.61854100000001" lon="2.12260167">
        <ele>363.0</ele>
        <time>2019-06-09T07:29:16+02:00</time>
      </trkpt>
      <trkpt lat="41.618590000000005" lon="2.1225">
        <ele>363.0</ele>
        <time>2019-06-09T07:29:18+02:00</time>
      </trkpt>
      <trkpt lat="41.618612" lon="2.12244">
        <ele>363.0</ele>
        <time>2019-06-09T07:29:19+02:00</time>
      </trkpt>
      <trkpt lat="41.61864533999999" lon="2.1223533399999996">
        <ele>363.0</ele>
        <time>2019-06-09T07:29:21+02:00</time>
      </trkpt>
      <trkpt lat="41.61868167000001" lon="2.122255">
        <ele>363.0</ele>
        <time>2019-06-09T07:29:23+02:00</time>
      </trkpt>
      <trkpt lat="41.61871" lon="2.1221533399999997">
        <ele>363.0</ele>
        <time>2019-06-09T07:29:25+02:00</time>
      </trkpt>
      <trkpt lat="41.618735" lon="2.1220533399999995">
        <ele>363.0</ele>
        <time>2019-06-09T07:29:27+02:00</time>
      </trkpt>
      <trkpt lat="41.61875567" lon="2.121955">
        <ele>363.0</ele>
        <time>2019-06-09T07:29:29+02:00</time>
      </trkpt>
      <trkpt lat="41.618770000000005" lon="2.1218533399999995">
        <ele>363.0</ele>
        <time>2019-06-09T07:29:31+02:00</time>
      </trkpt>
      <trkpt lat="41.618778999999996" lon="2.121755">
        <ele>362.0</ele>
        <time>2019-06-09T07:29:33+02:00</time>
      </trkpt>
      <trkpt lat="41.618786" lon="2.1216533399999995">
        <ele>362.0</ele>
        <time>2019-06-09T07:29:35+02:00</time>
      </trkpt>
      <trkpt lat="41.61878" lon="2.12156167">
        <ele>362.0</ele>
        <time>2019-06-09T07:29:37+02:00</time>
      </trkpt>
      <trkpt lat="41.61877667" lon="2.12147">
        <ele>362.0</ele>
        <time>2019-06-09T07:29:39+02:00</time>
      </trkpt>
      <trkpt lat="41.61877200000001" lon="2.1213716699999994">
        <ele>362.0</ele>
        <time>2019-06-09T07:29:41+02:00</time>
      </trkpt>
      <trkpt lat="41.61876033999999" lon="2.1212899999999997">
        <ele>362.0</ele>
        <time>2019-06-09T07:29:43+02:00</time>
      </trkpt>
      <trkpt lat="41.61875067" lon="2.1212183399999995">
        <ele>362.0</ele>
        <time>2019-06-09T07:29:45+02:00</time>
      </trkpt>
      <trkpt lat="41.618555" lon="2.1211466699999995">
        <ele>362.0</ele>
        <time>2019-06-09T07:29:47+02:00</time>
      </trkpt>
      <trkpt lat="41.618575" lon="2.12108167">
        <ele>362.0</ele>
        <time>2019-06-09T07:29:49+02:00</time>
      </trkpt>
      <trkpt lat="41.618597339999994" lon="2.12101834">
        <ele>361.0</ele>
        <time>2019-06-09T07:29:51+02:00</time>
      </trkpt>
      <trkpt lat="41.61861834" lon="2.12095667">
        <ele>361.0</ele>
        <time>2019-06-09T07:29:53+02:00</time>
      </trkpt>
      <trkpt lat="41.618639339999994" lon="2.1208966699999996">
        <ele>361.0</ele>
        <time>2019-06-09T07:29:55+02:00</time>
      </trkpt>
      <trkpt lat="41.61866134" lon="2.1208366699999996">
        <ele>361.0</ele>
        <time>2019-06-09T07:29:57+02:00</time>
      </trkpt>
      <trkpt lat="41.61868367" lon="2.120775">
        <ele>361.0</ele>
        <time>2019-06-09T07:29:59+02:00</time>
      </trkpt>
      <trkpt lat="41.61870567" lon="2.12071">
        <ele>361.0</ele>
        <time>2019-06-09T07:30:01+02:00</time>
      </trkpt>
      <trkpt lat="41.618726339999995" lon="2.12064334">
        <ele>361.0</ele>
        <time>2019-06-09T07:30:03+02:00</time>
      </trkpt>
      <trkpt lat="41.618746339999994" lon="2.1205749999999997">
        <ele>361.0</ele>
        <time>2019-06-09T07:30:05+02:00</time>
      </trkpt>
      <trkpt lat="41.61876967" lon="2.1204983399999997">
        <ele>361.0</ele>
        <time>2019-06-09T07:30:07+02:00</time>
      </trkpt>
      <trkpt lat="41.61878699999999" lon="2.12044">
        <ele>361.0</ele>
        <time>2019-06-09T07:30:09+02:00</time>
      </trkpt>
      <trkpt lat="41.618807340000004" lon="2.1203766699999997">
        <ele>361.0</ele>
        <time>2019-06-09T07:30:11+02:00</time>
      </trkpt>
      <trkpt lat="41.618828670000006" lon="2.1203049999999997">
        <ele>360.0</ele>
        <time>2019-06-09T07:30:13+02:00</time>
      </trkpt>
      <trkpt lat="41.618848" lon="2.1202383399999998">
        <ele>360.0</ele>
        <time>2019-06-09T07:30:15+02:00</time>
      </trkpt>
      <trkpt lat="41.618867339999994" lon="2.120175">
        <ele>360.0</ele>
        <time>2019-06-09T07:30:17+02:00</time>
      </trkpt>
      <trkpt lat="41.61888534" lon="2.1201099999999995">
        <ele>360.0</ele>
        <time>2019-06-09T07:30:19+02:00</time>
      </trkpt>
      <trkpt lat="41.618903669999995" lon="2.1200433399999996">
        <ele>360.0</ele>
        <time>2019-06-09T07:30:21+02:00</time>
      </trkpt>
      <trkpt lat="41.618922000000005" lon="2.1199816700000005">
        <ele>360.0</ele>
        <time>2019-06-09T07:30:22+02:00</time>
      </trkpt>
      <trkpt lat="41.61893934" lon="2.11991834">
        <ele>360.0</ele>
        <time>2019-06-09T07:30:24+02:00</time>
      </trkpt>
      <trkpt lat="41.61895834" lon="2.1198550000000003">
        <ele>360.0</ele>
        <time>2019-06-09T07:30:26+02:00</time>
      </trkpt>
      <trkpt lat="41.618976999999994" lon="2.1197933399999997">
        <ele>359.0</ele>
        <time>2019-06-09T07:30:28+02:00</time>
      </trkpt>
      <trkpt lat="41.61899533999999" lon="2.1197233399999993">
        <ele>359.0</ele>
        <time>2019-06-09T07:30:30+02:00</time>
      </trkpt>
      <trkpt lat="41.61902" lon="2.11963834">
        <ele>359.0</ele>
        <time>2019-06-09T07:30:33+02:00</time>
      </trkpt>
      <trkpt lat="41.619034670000005" lon="2.11957667">
        <ele>359.0</ele>
        <time>2019-06-09T07:30:35+02:00</time>
      </trkpt>
      <trkpt lat="41.619051999999996" lon="2.1195033399999996">
        <ele>359.0</ele>
        <time>2019-06-09T07:30:38+02:00</time>
      </trkpt>
      <trkpt lat="41.619074" lon="2.11942834">
        <ele>359.0</ele>
        <time>2019-06-09T07:30:41+02:00</time>
      </trkpt>
      <trkpt lat="41.619108340000004" lon="2.1193666700000002">
        <ele>358.0</ele>
        <time>2019-06-09T07:30:44+02:00</time>
      </trkpt>
      <trkpt lat="41.619153" lon="2.1193">
        <ele>358.0</ele>
        <time>2019-06-09T07:30:47+02:00</time>
      </trkpt>
      <trkpt lat="41.61918034" lon="2.1192466699999994">
        <ele>358.0</ele>
        <time>2019-06-09T07:30:49+02:00</time>
      </trkpt>
      <trkpt lat="41.619211670000006" lon="2.11917667">
        <ele>358.0</ele>
        <time>2019-06-09T07:30:52+02:00</time>
      </trkpt>
      <trkpt lat="41.619235339999996" lon="2.119125">
        <ele>358.0</ele>
        <time>2019-06-09T07:30:54+02:00</time>
      </trkpt>
      <trkpt lat="41.61926" lon="2.11908">
        <ele>357.0</ele>
        <time>2019-06-09T07:30:56+02:00</time>
      </trkpt>
      <trkpt lat="41.6193" lon="2.119015">
        <ele>356.0</ele>
        <time>2019-06-09T07:30:59+02:00</time>
      </trkpt>
      <trkpt lat="41.619331339999995" lon="2.118965">
        <ele>356.0</ele>
        <time>2019-06-09T07:31:01+02:00</time>
      </trkpt>
      <trkpt lat="41.619362" lon="2.1189166699999995">
        <ele>356.0</ele>
        <time>2019-06-09T07:31:03+02:00</time>
      </trkpt>
      <trkpt lat="41.61939367000001" lon="2.1188683399999997">
        <ele>356.0</ele>
        <time>2019-06-09T07:31:05+02:00</time>
      </trkpt>
      <trkpt lat="41.619425" lon="2.11881834">
        <ele>356.0</ele>
        <time>2019-06-09T07:31:07+02:00</time>
      </trkpt>
      <trkpt lat="41.61945667" lon="2.11876834">
        <ele>356.0</ele>
        <time>2019-06-09T07:31:09+02:00</time>
      </trkpt>
      <trkpt lat="41.619488000000004" lon="2.11872334">
        <ele>355.0</ele>
        <time>2019-06-09T07:31:11+02:00</time>
      </trkpt>
      <trkpt lat="41.619522" lon="2.11867334">
        <ele>355.0</ele>
        <time>2019-06-09T07:31:13+02:00</time>
      </trkpt>
      <trkpt lat="41.619559339999995" lon="2.1186216699999996">
        <ele>355.0</ele>
        <time>2019-06-09T07:31:15+02:00</time>
      </trkpt>
      <trkpt lat="41.61961167" lon="2.11858">
        <ele>354.0</ele>
        <time>2019-06-09T07:31:17+02:00</time>
      </trkpt>
      <trkpt lat="41.61965167" lon="2.1185383399999997">
        <ele>354.0</ele>
        <time>2019-06-09T07:31:19+02:00</time>
      </trkpt>
      <trkpt lat="41.61968834" lon="2.1184913399999994">
        <ele>353.0</ele>
        <time>2019-06-09T07:31:21+02:00</time>
      </trkpt>
      <trkpt lat="41.619725" lon="2.118439">
        <ele>353.0</ele>
        <time>2019-06-09T07:31:23+02:00</time>
      </trkpt>
      <trkpt lat="41.619761669999995" lon="2.1183870000000002">
        <ele>352.0</ele>
        <time>2019-06-09T07:31:25+02:00</time>
      </trkpt>
      <trkpt lat="41.61979834" lon="2.1183356699999996">
        <ele>352.0</ele>
        <time>2019-06-09T07:31:27+02:00</time>
      </trkpt>
      <trkpt lat="41.61983834000001" lon="2.11828067">
        <ele>351.0</ele>
        <time>2019-06-09T07:31:29+02:00</time>
      </trkpt>
      <trkpt lat="41.619875" lon="2.1182290000000004">
        <ele>351.0</ele>
        <time>2019-06-09T07:31:31+02:00</time>
      </trkpt>
      <trkpt lat="41.619913340000004" lon="2.1181683399999995">
        <ele>350.0</ele>
        <time>2019-06-09T07:31:33+02:00</time>
      </trkpt>
      <trkpt lat="41.619949670000004" lon="2.11811334">
        <ele>350.0</ele>
        <time>2019-06-09T07:31:35+02:00</time>
      </trkpt>
      <trkpt lat="41.61998767" lon="2.11805667">
        <ele>349.0</ele>
        <time>2019-06-09T07:31:37+02:00</time>
      </trkpt>
      <trkpt lat="41.620025000000005" lon="2.118">
        <ele>349.0</ele>
        <time>2019-06-09T07:31:39+02:00</time>
      </trkpt>
      <trkpt lat="41.620065000000004" lon="2.11794667">
        <ele>348.0</ele>
        <time>2019-06-09T07:31:41+02:00</time>
      </trkpt>
      <trkpt lat="41.620104999999995" lon="2.117895">
        <ele>347.0</ele>
        <time>2019-06-09T07:31:43+02:00</time>
      </trkpt>
      <trkpt lat="41.620153339999995" lon="2.1178383399999996">
        <ele>347.0</ele>
        <time>2019-06-09T07:31:45+02:00</time>
      </trkpt>
      <trkpt lat="41.620196670000006" lon="2.11777667">
        <ele>346.0</ele>
        <time>2019-06-09T07:31:47+02:00</time>
      </trkpt>
      <trkpt lat="41.620245000000004" lon="2.11771267">
        <ele>346.0</ele>
        <time>2019-06-09T07:31:49+02:00</time>
      </trkpt>
      <trkpt lat="41.62028334" lon="2.1176596699999997">
        <ele>346.0</ele>
        <time>2019-06-09T07:31:51+02:00</time>
      </trkpt>
      <trkpt lat="41.62033" lon="2.11759167">
        <ele>345.0</ele>
        <time>2019-06-09T07:31:53+02:00</time>
      </trkpt>
      <trkpt lat="41.62037334" lon="2.11753167">
        <ele>345.0</ele>
        <time>2019-06-09T07:31:55+02:00</time>
      </trkpt>
      <trkpt lat="41.62041633999999" lon="2.1174733399999996">
        <ele>344.0</ele>
        <time>2019-06-09T07:31:57+02:00</time>
      </trkpt>
      <trkpt lat="41.62045634" lon="2.1174183399999995">
        <ele>344.0</ele>
        <time>2019-06-09T07:31:59+02:00</time>
      </trkpt>
      <trkpt lat="41.620504" lon="2.11735167">
        <ele>344.0</ele>
        <time>2019-06-09T07:32:01+02:00</time>
      </trkpt>
      <trkpt lat="41.620541" lon="2.1173">
        <ele>344.0</ele>
        <time>2019-06-09T07:32:03+02:00</time>
      </trkpt>
      <trkpt lat="41.620582999999996" lon="2.1172383399999997">
        <ele>343.0</ele>
        <time>2019-06-09T07:32:05+02:00</time>
      </trkpt>
      <trkpt lat="41.62062533999999" lon="2.1171750000000005">
        <ele>343.0</ele>
        <time>2019-06-09T07:32:07+02:00</time>
      </trkpt>
      <trkpt lat="41.62066734" lon="2.1171083399999997">
        <ele>342.0</ele>
        <time>2019-06-09T07:32:09+02:00</time>
      </trkpt>
      <trkpt lat="41.62070534000001" lon="2.1170466699999997">
        <ele>342.0</ele>
        <time>2019-06-09T07:32:11+02:00</time>
      </trkpt>
      <trkpt lat="41.620743000000004" lon="2.11698834">
        <ele>341.0</ele>
        <time>2019-06-09T07:32:13+02:00</time>
      </trkpt>
      <trkpt lat="41.62078067" lon="2.11693">
        <ele>341.0</ele>
        <time>2019-06-09T07:32:15+02:00</time>
      </trkpt>
      <trkpt lat="41.62081667" lon="2.11687834">
        <ele>340.0</ele>
        <time>2019-06-09T07:32:17+02:00</time>
      </trkpt>
      <trkpt lat="41.62085167" lon="2.1168299999999998">
        <ele>340.0</ele>
        <time>2019-06-09T07:32:19+02:00</time>
      </trkpt>
      <trkpt lat="41.62090334" lon="2.1167883400000003">
        <ele>339.0</ele>
        <time>2019-06-09T07:32:21+02:00</time>
      </trkpt>
      <trkpt lat="41.62094667" lon="2.116755">
        <ele>339.0</ele>
        <time>2019-06-09T07:32:23+02:00</time>
      </trkpt>
      <trkpt lat="41.620996670000004" lon="2.116755">
        <ele>338.0</ele>
        <time>2019-06-09T07:32:25+02:00</time>
      </trkpt>
      <trkpt lat="41.62105167" lon="2.11677667">
        <ele>338.0</ele>
        <time>2019-06-09T07:32:27+02:00</time>
      </trkpt>
      <trkpt lat="41.62111" lon="2.11680167">
        <ele>338.0</ele>
        <time>2019-06-09T07:32:29+02:00</time>
      </trkpt>
      <trkpt lat="41.62117" lon="2.1168216699999998">
        <ele>338.0</ele>
        <time>2019-06-09T07:32:31+02:00</time>
      </trkpt>
      <trkpt lat="41.621238340000005" lon="2.11683167">
        <ele>338.0</ele>
        <time>2019-06-09T07:32:33+02:00</time>
      </trkpt>
      <trkpt lat="41.621311670000004" lon="2.1168050000000003">
        <ele>337.0</ele>
        <time>2019-06-09T07:32:35+02:00</time>
      </trkpt>
      <trkpt lat="41.62137833999999" lon="2.11672667">
        <ele>337.0</ele>
        <time>2019-06-09T07:32:37+02:00</time>
      </trkpt>
      <trkpt lat="41.62141" lon="2.1166816699999997">
        <ele>337.0</ele>
        <time>2019-06-09T07:32:38+02:00</time>
      </trkpt>
      <trkpt lat="41.62144" lon="2.116633339999999">
        <ele>337.0</ele>
        <time>2019-06-09T07:32:39+02:00</time>
      </trkpt>
      <trkpt lat="41.621473339999994" lon="2.1165833399999996">
        <ele>337.0</ele>
        <time>2019-06-09T07:32:40+02:00</time>
      </trkpt>
      <trkpt lat="41.621506669999995" lon="2.1165333399999993">
        <ele>337.0</ele>
        <time>2019-06-09T07:32:41+02:00</time>
      </trkpt>
      <trkpt lat="41.621541670000006" lon="2.116478">
        <ele>337.0</ele>
        <time>2019-06-09T07:32:42+02:00</time>
      </trkpt>
      <trkpt lat="41.62157667" lon="2.11642034">
        <ele>337.0</ele>
        <time>2019-06-09T07:32:43+02:00</time>
      </trkpt>
      <trkpt lat="41.621613339999996" lon="2.11636234">
        <ele>337.0</ele>
        <time>2019-06-09T07:32:44+02:00</time>
      </trkpt>
      <trkpt lat="41.62165167000001" lon="2.11630367">
        <ele>337.0</ele>
        <time>2019-06-09T07:32:45+02:00</time>
      </trkpt>
      <trkpt lat="41.621686669999995" lon="2.1162466699999998">
        <ele>337.0</ele>
        <time>2019-06-09T07:32:46+02:00</time>
      </trkpt>
      <trkpt lat="41.62172167000001" lon="2.11618167">
        <ele>337.0</ele>
        <time>2019-06-09T07:32:47+02:00</time>
      </trkpt>
      <trkpt lat="41.621756340000005" lon="2.11611834">
        <ele>337.0</ele>
        <time>2019-06-09T07:32:48+02:00</time>
      </trkpt>
      <trkpt lat="41.621786" lon="2.11605167">
        <ele>337.0</ele>
        <time>2019-06-09T07:32:49+02:00</time>
      </trkpt>
      <trkpt lat="41.621813" lon="2.11598">
        <ele>337.0</ele>
        <time>2019-06-09T07:32:50+02:00</time>
      </trkpt>
      <trkpt lat="41.62183534" lon="2.11591">
        <ele>337.0</ele>
        <time>2019-06-09T07:32:51+02:00</time>
      </trkpt>
      <trkpt lat="41.621854" lon="2.1158416699999996">
        <ele>337.0</ele>
        <time>2019-06-09T07:32:52+02:00</time>
      </trkpt>
      <trkpt lat="41.621872999999994" lon="2.1157733399999996">
        <ele>337.0</ele>
        <time>2019-06-09T07:32:53+02:00</time>
      </trkpt>
      <trkpt lat="41.621891000000005" lon="2.1157066700000002">
        <ele>337.0</ele>
        <time>2019-06-09T07:32:54+02:00</time>
      </trkpt>
      <trkpt lat="41.621911999999995" lon="2.11562334">
        <ele>337.0</ele>
        <time>2019-06-09T07:32:55+02:00</time>
      </trkpt>
      <trkpt lat="41.62193967000001" lon="2.1155049999999997">
        <ele>337.0</ele>
        <time>2019-06-09T07:32:57+02:00</time>
      </trkpt>
      <trkpt lat="41.62195" lon="2.1154416699999996">
        <ele>337.0</ele>
        <time>2019-06-09T07:32:58+02:00</time>
      </trkpt>
      <trkpt lat="41.62196" lon="2.11538167">
        <ele>337.0</ele>
        <time>2019-06-09T07:32:59+02:00</time>
      </trkpt>
      <trkpt lat="41.621979339999996" lon="2.1152733399999994">
        <ele>337.0</ele>
        <time>2019-06-09T07:33:01+02:00</time>
      </trkpt>
      <trkpt lat="41.62199467000001" lon="2.11517667">
        <ele>337.0</ele>
        <time>2019-06-09T07:33:03+02:00</time>
      </trkpt>
      <trkpt lat="41.622009" lon="2.11508">
        <ele>337.0</ele>
        <time>2019-06-09T07:33:05+02:00</time>
      </trkpt>
      <trkpt lat="41.62202334" lon="2.1149866699999995">
        <ele>337.0</ele>
        <time>2019-06-09T07:33:07+02:00</time>
      </trkpt>
      <trkpt lat="41.62203533999999" lon="2.11489834">
        <ele>337.0</ele>
        <time>2019-06-09T07:33:09+02:00</time>
      </trkpt>
      <trkpt lat="41.622046" lon="2.11481334">
        <ele>337.0</ele>
        <time>2019-06-09T07:33:11+02:00</time>
      </trkpt>
      <trkpt lat="41.62205766999999" lon="2.11473334">
        <ele>337.0</ele>
        <time>2019-06-09T07:33:13+02:00</time>
      </trkpt>
      <trkpt lat="41.62206567" lon="2.114655">
        <ele>337.0</ele>
        <time>2019-06-09T07:33:15+02:00</time>
      </trkpt>
      <trkpt lat="41.62207567" lon="2.11458">
        <ele>337.0</ele>
        <time>2019-06-09T07:33:17+02:00</time>
      </trkpt>
      <trkpt lat="41.622083999999994" lon="2.1145099999999997">
        <ele>337.0</ele>
        <time>2019-06-09T07:33:19+02:00</time>
      </trkpt>
      <trkpt lat="41.622090670000006" lon="2.11444667">
        <ele>337.0</ele>
        <time>2019-06-09T07:33:21+02:00</time>
      </trkpt>
      <trkpt lat="41.622092" lon="2.11436">
        <ele>337.0</ele>
        <time>2019-06-09T07:33:24+02:00</time>
      </trkpt>
      <trkpt lat="41.62209267" lon="2.11429">
        <ele>337.0</ele>
        <time>2019-06-09T07:33:26+02:00</time>
      </trkpt>
      <trkpt lat="41.62208834" lon="2.11421834">
        <ele>337.0</ele>
        <time>2019-06-09T07:33:28+02:00</time>
      </trkpt>
      <trkpt lat="41.62208733999999" lon="2.11415">
        <ele>336.0</ele>
        <time>2019-06-09T07:33:30+02:00</time>
      </trkpt>
      <trkpt lat="41.622015" lon="2.11408667">
        <ele>336.0</ele>
        <time>2019-06-09T07:33:32+02:00</time>
      </trkpt>
      <trkpt lat="41.622032999999995" lon="2.1140099999999995">
        <ele>336.0</ele>
        <time>2019-06-09T07:33:36+02:00</time>
      </trkpt>
      <trkpt lat="41.62204433999999" lon="2.1139316700000004">
        <ele>336.0</ele>
        <time>2019-06-09T07:33:39+02:00</time>
      </trkpt>
      <trkpt lat="41.622063" lon="2.113865">
        <ele>336.0</ele>
        <time>2019-06-09T07:33:42+02:00</time>
      </trkpt>
      <trkpt lat="41.622083" lon="2.11381167">
        <ele>336.0</ele>
        <time>2019-06-09T07:33:44+02:00</time>
      </trkpt>
      <trkpt lat="41.622136669999996" lon="2.1137583399999995">
        <ele>336.0</ele>
        <time>2019-06-09T07:33:47+02:00</time>
      </trkpt>
      <trkpt lat="41.62217333999999" lon="2.113715">
        <ele>336.0</ele>
        <time>2019-06-09T07:33:50+02:00</time>
      </trkpt>
      <trkpt lat="41.622226669999996" lon="2.1136566699999997">
        <ele>335.0</ele>
        <time>2019-06-09T07:33:53+02:00</time>
      </trkpt>
      <trkpt lat="41.622276670000005" lon="2.113595">
        <ele>335.0</ele>
        <time>2019-06-09T07:33:55+02:00</time>
      </trkpt>
      <trkpt lat="41.62231" lon="2.1135456699999997">
        <ele>335.0</ele>
        <time>2019-06-09T07:33:57+02:00</time>
      </trkpt>
      <trkpt lat="41.62235" lon="2.1134783399999995">
        <ele>335.0</ele>
        <time>2019-06-09T07:34:00+02:00</time>
      </trkpt>
      <trkpt lat="41.622381340000004" lon="2.1134216699999997">
        <ele>335.0</ele>
        <time>2019-06-09T07:34:03+02:00</time>
      </trkpt>
      <trkpt lat="41.622411670000005" lon="2.11337667">
        <ele>335.0</ele>
        <time>2019-06-09T07:34:06+02:00</time>
      </trkpt>
      <trkpt lat="41.62245167" lon="2.1133433399999997">
        <ele>335.0</ele>
        <time>2019-06-09T07:34:09+02:00</time>
      </trkpt>
      <trkpt lat="41.62250999999999" lon="2.1133249999999997">
        <ele>335.0</ele>
        <time>2019-06-09T07:34:13+02:00</time>
      </trkpt>
      <trkpt lat="41.622566670000005" lon="2.11330167">
        <ele>335.0</ele>
        <time>2019-06-09T07:34:17+02:00</time>
      </trkpt>
      <trkpt lat="41.622616670000006" lon="2.11328667">
        <ele>334.0</ele>
        <time>2019-06-09T07:34:20+02:00</time>
      </trkpt>
      <trkpt lat="41.62267167" lon="2.11327">
        <ele>334.0</ele>
        <time>2019-06-09T07:34:24+02:00</time>
      </trkpt>
      <trkpt lat="41.622728339999995" lon="2.113245">
        <ele>334.0</ele>
        <time>2019-06-09T07:34:28+02:00</time>
      </trkpt>
      <trkpt lat="41.62276667" lon="2.1132193399999997">
        <ele>334.0</ele>
        <time>2019-06-09T07:34:31+02:00</time>
      </trkpt>
      <trkpt lat="41.622818339999995" lon="2.1131870000000004">
        <ele>334.0</ele>
        <time>2019-06-09T07:34:35+02:00</time>
      </trkpt>
      <trkpt lat="41.622855" lon="2.1131510000000002">
        <ele>334.0</ele>
        <time>2019-06-09T07:34:38+02:00</time>
      </trkpt>
      <trkpt lat="41.62289834" lon="2.11311234">
        <ele>334.0</ele>
        <time>2019-06-09T07:34:42+02:00</time>
      </trkpt>
      <trkpt lat="41.62294334" lon="2.1130649999999997">
        <ele>334.0</ele>
        <time>2019-06-09T07:34:46+02:00</time>
      </trkpt>
      <trkpt lat="41.62297667000001" lon="2.1130083399999995">
        <ele>334.0</ele>
        <time>2019-06-09T07:34:50+02:00</time>
      </trkpt>
      <trkpt lat="41.62301334" lon="2.11296167">
        <ele>333.0</ele>
        <time>2019-06-09T07:34:54+02:00</time>
      </trkpt>
      <trkpt lat="41.62305334" lon="2.1129056699999995">
        <ele>333.0</ele>
        <time>2019-06-09T07:34:58+02:00</time>
      </trkpt>
      <trkpt lat="41.62308" lon="2.11285334">
        <ele>332.0</ele>
        <time>2019-06-09T07:35:01+02:00</time>
      </trkpt>
      <trkpt lat="41.62312" lon="2.1128033399999997">
        <ele>332.0</ele>
        <time>2019-06-09T07:35:04+02:00</time>
      </trkpt>
      <trkpt lat="41.623173339999994" lon="2.112783339999999">
        <ele>332.0</ele>
        <time>2019-06-09T07:35:07+02:00</time>
      </trkpt>
      <trkpt lat="41.62322667" lon="2.112775">
        <ele>332.0</ele>
        <time>2019-06-09T07:35:10+02:00</time>
      </trkpt>
      <trkpt lat="41.62328334" lon="2.11277667">
        <ele>332.0</ele>
        <time>2019-06-09T07:35:13+02:00</time>
      </trkpt>
      <trkpt lat="41.62334167000001" lon="2.11278467">
        <ele>332.0</ele>
        <time>2019-06-09T07:35:16+02:00</time>
      </trkpt>
      <trkpt lat="41.62340667" lon="2.1127920000000002">
        <ele>332.0</ele>
        <time>2019-06-09T07:35:19+02:00</time>
      </trkpt>
      <trkpt lat="41.623466670000006" lon="2.112796">
        <ele>332.0</ele>
        <time>2019-06-09T07:35:22+02:00</time>
      </trkpt>
      <trkpt lat="41.62352167" lon="2.1127946700000004">
        <ele>332.0</ele>
        <time>2019-06-09T07:35:25+02:00</time>
      </trkpt>
      <trkpt lat="41.623578339999995" lon="2.1127849999999997">
        <ele>332.0</ele>
        <time>2019-06-09T07:35:28+02:00</time>
      </trkpt>
      <trkpt lat="41.62363499999999" lon="2.11277">
        <ele>332.0</ele>
        <time>2019-06-09T07:35:31+02:00</time>
      </trkpt>
      <trkpt lat="41.62369667000001" lon="2.11275134">
        <ele>332.0</ele>
        <time>2019-06-09T07:35:34+02:00</time>
      </trkpt>
      <trkpt lat="41.62375333999999" lon="2.1127283399999994">
        <ele>332.0</ele>
        <time>2019-06-09T07:35:37+02:00</time>
      </trkpt>
      <trkpt lat="41.623796670000004" lon="2.1127089999999997">
        <ele>332.0</ele>
        <time>2019-06-09T07:35:39+02:00</time>
      </trkpt>
      <trkpt lat="41.62385667" lon="2.11268467">
        <ele>333.0</ele>
        <time>2019-06-09T07:35:42+02:00</time>
      </trkpt>
      <trkpt lat="41.623900000000006" lon="2.1126629999999995">
        <ele>333.0</ele>
        <time>2019-06-09T07:35:44+02:00</time>
      </trkpt>
      <trkpt lat="41.62395333999999" lon="2.1126349999999996">
        <ele>333.0</ele>
        <time>2019-06-09T07:35:47+02:00</time>
      </trkpt>
      <trkpt lat="41.623995" lon="2.1126099999999997">
        <ele>333.0</ele>
        <time>2019-06-09T07:35:49+02:00</time>
      </trkpt>
      <trkpt lat="41.624050000000004" lon="2.1125803399999996">
        <ele>334.0</ele>
        <time>2019-06-09T07:35:52+02:00</time>
      </trkpt>
      <trkpt lat="41.62410834000001" lon="2.11255">
        <ele>334.0</ele>
        <time>2019-06-09T07:35:55+02:00</time>
      </trkpt>
      <trkpt lat="41.62416167" lon="2.112519">
        <ele>334.0</ele>
        <time>2019-06-09T07:35:58+02:00</time>
      </trkpt>
      <trkpt lat="41.624205" lon="2.1124883399999996">
        <ele>334.0</ele>
        <time>2019-06-09T07:36:01+02:00</time>
      </trkpt>
      <trkpt lat="41.62424334000001" lon="2.1124533399999996">
        <ele>335.0</ele>
        <time>2019-06-09T07:36:04+02:00</time>
      </trkpt>
      <trkpt lat="41.624285" lon="2.11241634">
        <ele>335.0</ele>
        <time>2019-06-09T07:36:07+02:00</time>
      </trkpt>
      <trkpt lat="41.62432" lon="2.112379">
        <ele>335.0</ele>
        <time>2019-06-09T07:36:09+02:00</time>
      </trkpt>
      <trkpt lat="41.62435334" lon="2.11219667">
        <ele>335.0</ele>
        <time>2019-06-09T07:36:12+02:00</time>
      </trkpt>
      <trkpt lat="41.62438" lon="2.1121433399999994">
        <ele>335.0</ele>
        <time>2019-06-09T07:36:14+02:00</time>
      </trkpt>
      <trkpt lat="41.624401" lon="2.112085">
        <ele>335.0</ele>
        <time>2019-06-09T07:36:16+02:00</time>
      </trkpt>
      <trkpt lat="41.62442" lon="2.11202667">
        <ele>336.0</ele>
        <time>2019-06-09T07:36:18+02:00</time>
      </trkpt>
      <trkpt lat="41.624436" lon="2.11196667">
        <ele>336.0</ele>
        <time>2019-06-09T07:36:20+02:00</time>
      </trkpt>
      <trkpt lat="41.62445433999999" lon="2.1119066699999998">
        <ele>336.0</ele>
        <time>2019-06-09T07:36:22+02:00</time>
      </trkpt>
      <trkpt lat="41.62447467" lon="2.1118533399999997">
        <ele>337.0</ele>
        <time>2019-06-09T07:36:24+02:00</time>
      </trkpt>
      <trkpt lat="41.624497000000005" lon="2.111805">
        <ele>337.0</ele>
        <time>2019-06-09T07:36:26+02:00</time>
      </trkpt>
      <trkpt lat="41.62452167" lon="2.1117533399999995">
        <ele>338.0</ele>
        <time>2019-06-09T07:36:28+02:00</time>
      </trkpt>
      <trkpt lat="41.624549339999994" lon="2.1117083399999994">
        <ele>338.0</ele>
        <time>2019-06-09T07:36:30+02:00</time>
      </trkpt>
      <trkpt lat="41.62458067000001" lon="2.1116666699999995">
        <ele>339.0</ele>
        <time>2019-06-09T07:36:32+02:00</time>
      </trkpt>
      <trkpt lat="41.624655000000004" lon="2.11163167">
        <ele>340.0</ele>
        <time>2019-06-09T07:36:34+02:00</time>
      </trkpt>
      <trkpt lat="41.62469167000001" lon="2.1115933399999998">
        <ele>341.0</ele>
        <time>2019-06-09T07:36:36+02:00</time>
      </trkpt>
      <trkpt lat="41.62473334" lon="2.11155134">
        <ele>341.0</ele>
        <time>2019-06-09T07:36:38+02:00</time>
      </trkpt>
      <trkpt lat="41.624781670000004" lon="2.1114943399999997">
        <ele>342.0</ele>
        <time>2019-06-09T07:36:41+02:00</time>
      </trkpt>
      <trkpt lat="41.624826670000004" lon="2.11143767">
        <ele>343.0</ele>
        <time>2019-06-09T07:36:44+02:00</time>
      </trkpt>
      <trkpt lat="41.624865000000014" lon="2.1113633399999996">
        <ele>344.0</ele>
        <time>2019-06-09T07:36:47+02:00</time>
      </trkpt>
      <trkpt lat="41.624906339999995" lon="2.1113000000000004">
        <ele>346.0</ele>
        <time>2019-06-09T07:36:50+02:00</time>
      </trkpt>
      <trkpt lat="41.62496" lon="2.11124">
        <ele>347.0</ele>
        <time>2019-06-09T07:36:53+02:00</time>
      </trkpt>
      <trkpt lat="41.62500999999999" lon="2.11121334">
        <ele>348.0</ele>
        <time>2019-06-09T07:36:56+02:00</time>
      </trkpt>
      <trkpt lat="41.625055" lon="2.1112033399999994">
        <ele>348.0</ele>
        <time>2019-06-09T07:36:58+02:00</time>
      </trkpt>
      <trkpt lat="41.62511000000001" lon="2.1111779999999998">
        <ele>349.0</ele>
        <time>2019-06-09T07:37:01+02:00</time>
      </trkpt>
      <trkpt lat="41.625159999999994" lon="2.11114167">
        <ele>350.0</ele>
        <time>2019-06-09T07:37:04+02:00</time>
      </trkpt>
      <trkpt lat="41.62519834" lon="2.11109467">
        <ele>351.0</ele>
        <time>2019-06-09T07:37:07+02:00</time>
      </trkpt>
      <trkpt lat="41.62522167000001" lon="2.1110099999999994">
        <ele>352.0</ele>
        <time>2019-06-09T07:37:10+02:00</time>
      </trkpt>
      <trkpt lat="41.625233339999994" lon="2.1109316700000003">
        <ele>352.0</ele>
        <time>2019-06-09T07:37:13+02:00</time>
      </trkpt>
      <trkpt lat="41.625249999999994" lon="2.1108433399999997">
        <ele>353.0</ele>
        <time>2019-06-09T07:37:16+02:00</time>
      </trkpt>
      <trkpt lat="41.62526799999999" lon="2.110785">
        <ele>353.0</ele>
        <time>2019-06-09T07:37:18+02:00</time>
      </trkpt>
      <trkpt lat="41.625289" lon="2.1107316700000003">
        <ele>353.0</ele>
        <time>2019-06-09T07:37:20+02:00</time>
      </trkpt>
      <trkpt lat="41.625311339999996" lon="2.11068">
        <ele>352.0</ele>
        <time>2019-06-09T07:37:22+02:00</time>
      </trkpt>
      <trkpt lat="41.62533534000001" lon="2.1106233399999996">
        <ele>351.0</ele>
        <time>2019-06-09T07:37:24+02:00</time>
      </trkpt>
      <trkpt lat="41.625358340000005" lon="2.1105633399999997">
        <ele>351.0</ele>
        <time>2019-06-09T07:37:26+02:00</time>
      </trkpt>
      <trkpt lat="41.62538167000001" lon="2.11048">
        <ele>353.0</ele>
        <time>2019-06-09T07:37:29+02:00</time>
      </trkpt>
      <trkpt lat="41.625392999999995" lon="2.1104149999999997">
        <ele>354.0</ele>
        <time>2019-06-09T07:37:31+02:00</time>
      </trkpt>
      <trkpt lat="41.6254" lon="2.1103249999999996">
        <ele>355.0</ele>
        <time>2019-06-09T07:37:34+02:00</time>
      </trkpt>
      <trkpt lat="41.62539767" lon="2.1102650000000005">
        <ele>356.0</ele>
        <time>2019-06-09T07:37:36+02:00</time>
      </trkpt>
      <trkpt lat="41.62539667" lon="2.1102049999999997">
        <ele>357.0</ele>
        <time>2019-06-09T07:37:38+02:00</time>
      </trkpt>
      <trkpt lat="41.62540299999999" lon="2.11013834">
        <ele>357.0</ele>
        <time>2019-06-09T07:37:40+02:00</time>
      </trkpt>
      <trkpt lat="41.625426669999996" lon="2.1100833399999996">
        <ele>358.0</ele>
        <time>2019-06-09T07:37:42+02:00</time>
      </trkpt>
      <trkpt lat="41.62547833999999" lon="2.110065">
        <ele>360.0</ele>
        <time>2019-06-09T07:37:44+02:00</time>
      </trkpt>
      <trkpt lat="41.62552667000001" lon="2.11008834">
        <ele>361.0</ele>
        <time>2019-06-09T07:37:46+02:00</time>
      </trkpt>
      <trkpt lat="41.62557667" lon="2.11011667">
        <ele>362.0</ele>
        <time>2019-06-09T07:37:48+02:00</time>
      </trkpt>
      <trkpt lat="41.62561834" lon="2.110145">
        <ele>362.0</ele>
        <time>2019-06-09T07:37:50+02:00</time>
      </trkpt>
      <trkpt lat="41.62568667000001" lon="2.11017334">
        <ele>364.0</ele>
        <time>2019-06-09T07:37:53+02:00</time>
      </trkpt>
      <trkpt lat="41.62573167000001" lon="2.1101716699999997">
        <ele>364.0</ele>
        <time>2019-06-09T07:37:55+02:00</time>
      </trkpt>
      <trkpt lat="41.62578167" lon="2.1101573399999998">
        <ele>365.0</ele>
        <time>2019-06-09T07:37:57+02:00</time>
      </trkpt>
      <trkpt lat="41.62583000000001" lon="2.11014234">
        <ele>366.0</ele>
        <time>2019-06-09T07:37:59+02:00</time>
      </trkpt>
      <trkpt lat="41.625879999999995" lon="2.11012934">
        <ele>366.0</ele>
        <time>2019-06-09T07:38:01+02:00</time>
      </trkpt>
      <trkpt lat="41.62592834" lon="2.1101143399999995">
        <ele>367.0</ele>
        <time>2019-06-09T07:38:03+02:00</time>
      </trkpt>
      <trkpt lat="41.62598" lon="2.110097">
        <ele>367.0</ele>
        <time>2019-06-09T07:38:05+02:00</time>
      </trkpt>
      <trkpt lat="41.62602667000001" lon="2.1100816700000005">
        <ele>368.0</ele>
        <time>2019-06-09T07:38:07+02:00</time>
      </trkpt>
      <trkpt lat="41.626081670000005" lon="2.110067">
        <ele>369.0</ele>
        <time>2019-06-09T07:38:09+02:00</time>
      </trkpt>
      <trkpt lat="41.62614500000001" lon="2.11006167">
        <ele>369.0</ele>
        <time>2019-06-09T07:38:11+02:00</time>
      </trkpt>
      <trkpt lat="41.626196670000006" lon="2.1101283399999997">
        <ele>370.0</ele>
        <time>2019-06-09T07:38:13+02:00</time>
      </trkpt>
      <trkpt lat="41.626231669999996" lon="2.1101816700000002">
        <ele>371.0</ele>
        <time>2019-06-09T07:38:15+02:00</time>
      </trkpt>
      <trkpt lat="41.626263339999994" lon="2.11025334">
        <ele>371.0</ele>
        <time>2019-06-09T07:38:17+02:00</time>
      </trkpt>
      <trkpt lat="41.626279999999994" lon="2.11032667">
        <ele>371.0</ele>
        <time>2019-06-09T07:38:19+02:00</time>
      </trkpt>
      <trkpt lat="41.626295" lon="2.1103933399999995">
        <ele>371.0</ele>
        <time>2019-06-09T07:38:21+02:00</time>
      </trkpt>
      <trkpt lat="41.62631" lon="2.11046334">
        <ele>372.0</ele>
        <time>2019-06-09T07:38:23+02:00</time>
      </trkpt>
      <trkpt lat="41.62632" lon="2.11054">
        <ele>372.0</ele>
        <time>2019-06-09T07:38:25+02:00</time>
      </trkpt>
      <trkpt lat="41.62634" lon="2.110635">
        <ele>373.0</ele>
        <time>2019-06-09T07:38:28+02:00</time>
      </trkpt>
      <trkpt lat="41.62636267" lon="2.1106916699999996">
        <ele>373.0</ele>
        <time>2019-06-09T07:38:30+02:00</time>
      </trkpt>
      <trkpt lat="41.62640033999999" lon="2.1107533399999996">
        <ele>374.0</ele>
        <time>2019-06-09T07:38:33+02:00</time>
      </trkpt>
      <trkpt lat="41.62646167000001" lon="2.1107733399999997">
        <ele>374.0</ele>
        <time>2019-06-09T07:38:35+02:00</time>
      </trkpt>
      <trkpt lat="41.62652833999999" lon="2.11079334">
        <ele>374.0</ele>
        <time>2019-06-09T07:38:38+02:00</time>
      </trkpt>
      <trkpt lat="41.626578339999995" lon="2.1108000000000002">
        <ele>374.0</ele>
        <time>2019-06-09T07:38:40+02:00</time>
      </trkpt>
      <trkpt lat="41.626628339999996" lon="2.1107983399999997">
        <ele>374.0</ele>
        <time>2019-06-09T07:38:42+02:00</time>
      </trkpt>
      <trkpt lat="41.62668834" lon="2.11077834">
        <ele>374.0</ele>
        <time>2019-06-09T07:38:45+02:00</time>
      </trkpt>
      <trkpt lat="41.62674667000001" lon="2.1107349999999996">
        <ele>374.0</ele>
        <time>2019-06-09T07:38:48+02:00</time>
      </trkpt>
      <trkpt lat="41.62684" lon="2.110675">
        <ele>374.0</ele>
        <time>2019-06-09T07:38:50+02:00</time>
      </trkpt>
      <trkpt lat="41.62688167" lon="2.1106420000000004">
        <ele>374.0</ele>
        <time>2019-06-09T07:38:52+02:00</time>
      </trkpt>
      <trkpt lat="41.626915" lon="2.110606">
        <ele>374.0</ele>
        <time>2019-06-09T07:38:54+02:00</time>
      </trkpt>
      <trkpt lat="41.62694834" lon="2.110561">
        <ele>374.0</ele>
        <time>2019-06-09T07:38:56+02:00</time>
      </trkpt>
      <trkpt lat="41.626985000000005" lon="2.1104966699999994">
        <ele>374.0</ele>
        <time>2019-06-09T07:38:58+02:00</time>
      </trkpt>
      <trkpt lat="41.62701667" lon="2.1104363399999997">
        <ele>375.0</ele>
        <time>2019-06-09T07:39:00+02:00</time>
      </trkpt>
      <trkpt lat="41.62704667" lon="2.1103716699999997">
        <ele>375.0</ele>
        <time>2019-06-09T07:39:02+02:00</time>
      </trkpt>
      <trkpt lat="41.62708334" lon="2.1103033399999993">
        <ele>375.0</ele>
        <time>2019-06-09T07:39:04+02:00</time>
      </trkpt>
      <trkpt lat="41.627123" lon="2.11023">
        <ele>375.0</ele>
        <time>2019-06-09T07:39:06+02:00</time>
      </trkpt>
      <trkpt lat="41.62716667000001" lon="2.1101666699999995">
        <ele>375.0</ele>
        <time>2019-06-09T07:39:08+02:00</time>
      </trkpt>
      <trkpt lat="41.62720899999999" lon="2.110115">
        <ele>375.0</ele>
        <time>2019-06-09T07:39:10+02:00</time>
      </trkpt>
      <trkpt lat="41.627266670000004" lon="2.1100666699999997">
        <ele>375.0</ele>
        <time>2019-06-09T07:39:12+02:00</time>
      </trkpt>
      <trkpt lat="41.62731" lon="2.11002">
        <ele>376.0</ele>
        <time>2019-06-09T07:39:14+02:00</time>
      </trkpt>
      <trkpt lat="41.62735667" lon="2.1099780000000004">
        <ele>376.0</ele>
        <time>2019-06-09T07:39:16+02:00</time>
      </trkpt>
      <trkpt lat="41.62740334" lon="2.10994034">
        <ele>376.0</ele>
        <time>2019-06-09T07:39:18+02:00</time>
      </trkpt>
      <trkpt lat="41.62745167" lon="2.1099">
        <ele>377.0</ele>
        <time>2019-06-09T07:39:20+02:00</time>
      </trkpt>
      <trkpt lat="41.62750333999999" lon="2.109862">
        <ele>377.0</ele>
        <time>2019-06-09T07:39:22+02:00</time>
      </trkpt>
      <trkpt lat="41.62755167" lon="2.1098323399999996">
        <ele>377.0</ele>
        <time>2019-06-09T07:39:24+02:00</time>
      </trkpt>
      <trkpt lat="41.62759834" lon="2.10981167">
        <ele>378.0</ele>
        <time>2019-06-09T07:39:26+02:00</time>
      </trkpt>
      <trkpt lat="41.62764833999999" lon="2.10984167">
        <ele>378.0</ele>
        <time>2019-06-09T07:39:28+02:00</time>
      </trkpt>
      <trkpt lat="41.627698339999995" lon="2.1098733399999996">
        <ele>378.0</ele>
        <time>2019-06-09T07:39:30+02:00</time>
      </trkpt>
      <trkpt lat="41.627741670000006" lon="2.10991334">
        <ele>378.0</ele>
        <time>2019-06-09T07:39:32+02:00</time>
      </trkpt>
      <trkpt lat="41.627768339999996" lon="2.1099650000000003">
        <ele>378.0</ele>
        <time>2019-06-09T07:39:34+02:00</time>
      </trkpt>
      <trkpt lat="41.62779667000001" lon="2.11005">
        <ele>379.0</ele>
        <time>2019-06-09T07:39:37+02:00</time>
      </trkpt>
      <trkpt lat="41.62780834" lon="2.1101199999999998">
        <ele>379.0</ele>
        <time>2019-06-09T07:39:39+02:00</time>
      </trkpt>
      <trkpt lat="41.627815" lon="2.11019334">
        <ele>379.0</ele>
        <time>2019-06-09T07:39:41+02:00</time>
      </trkpt>
      <trkpt lat="41.62781667000001" lon="2.11026667">
        <ele>379.0</ele>
        <time>2019-06-09T07:39:43+02:00</time>
      </trkpt>
      <trkpt lat="41.627818" lon="2.110335">
        <ele>379.0</ele>
        <time>2019-06-09T07:39:45+02:00</time>
      </trkpt>
      <trkpt lat="41.62782" lon="2.1104066699999997">
        <ele>379.0</ele>
        <time>2019-06-09T07:39:47+02:00</time>
      </trkpt>
      <trkpt lat="41.62782867" lon="2.110475">
        <ele>379.0</ele>
        <time>2019-06-09T07:39:49+02:00</time>
      </trkpt>
      <trkpt lat="41.627842" lon="2.11054834">
        <ele>379.0</ele>
        <time>2019-06-09T07:39:52+02:00</time>
      </trkpt>
      <trkpt lat="41.627885" lon="2.11061167">
        <ele>378.0</ele>
        <time>2019-06-09T07:39:55+02:00</time>
      </trkpt>
      <trkpt lat="41.62792667" lon="2.11063667">
        <ele>378.0</ele>
        <time>2019-06-09T07:39:58+02:00</time>
      </trkpt>
      <trkpt lat="41.62797167000001" lon="2.11062">
        <ele>378.0</ele>
        <time>2019-06-09T07:40:01+02:00</time>
      </trkpt>
      <trkpt lat="41.62799667000001" lon="2.1105583399999994">
        <ele>378.0</ele>
        <time>2019-06-09T07:40:04+02:00</time>
      </trkpt>
      <trkpt lat="41.628008339999994" lon="2.11047167">
        <ele>378.0</ele>
        <time>2019-06-09T07:40:07+02:00</time>
      </trkpt>
      <trkpt lat="41.62802334" lon="2.11039167">
        <ele>378.0</ele>
        <time>2019-06-09T07:40:10+02:00</time>
      </trkpt>
      <trkpt lat="41.628041339999996" lon="2.11031167">
        <ele>377.0</ele>
        <time>2019-06-09T07:40:13+02:00</time>
      </trkpt>
      <trkpt lat="41.62806467" lon="2.1102416699999997">
        <ele>377.0</ele>
        <time>2019-06-09T07:40:16+02:00</time>
      </trkpt>
      <trkpt lat="41.628092" lon="2.1101683399999995">
        <ele>377.0</ele>
        <time>2019-06-09T07:40:19+02:00</time>
      </trkpt>
      <trkpt lat="41.628111669999996" lon="2.1100933399999997">
        <ele>376.0</ele>
        <time>2019-06-09T07:40:22+02:00</time>
      </trkpt>
      <trkpt lat="41.62812067000001" lon="2.11001667">
        <ele>376.0</ele>
        <time>2019-06-09T07:40:25+02:00</time>
      </trkpt>
      <trkpt lat="41.628130670000004" lon="2.10994167">
        <ele>375.0</ele>
        <time>2019-06-09T07:40:28+02:00</time>
      </trkpt>
      <trkpt lat="41.62814533999999" lon="2.1098833399999997">
        <ele>374.0</ele>
        <time>2019-06-09T07:40:31+02:00</time>
      </trkpt>
      <trkpt lat="41.628164670000004" lon="2.109825">
        <ele>373.0</ele>
        <time>2019-06-09T07:40:34+02:00</time>
      </trkpt>
      <trkpt lat="41.62818367" lon="2.1097616699999997">
        <ele>373.0</ele>
        <time>2019-06-09T07:40:37+02:00</time>
      </trkpt>
      <trkpt lat="41.62820267" lon="2.1096933399999998">
        <ele>372.0</ele>
        <time>2019-06-09T07:40:40+02:00</time>
      </trkpt>
      <trkpt lat="41.62822167" lon="2.10961834">
        <ele>372.0</ele>
        <time>2019-06-09T07:40:43+02:00</time>
      </trkpt>
      <trkpt lat="41.62823067000001" lon="2.10954834">
        <ele>372.0</ele>
        <time>2019-06-09T07:40:46+02:00</time>
      </trkpt>
      <trkpt lat="41.62818334000001" lon="2.1094966699999995">
        <ele>372.0</ele>
        <time>2019-06-09T07:40:49+02:00</time>
      </trkpt>
      <trkpt lat="41.62815167000001" lon="2.109435">
        <ele>371.0</ele>
        <time>2019-06-09T07:40:52+02:00</time>
      </trkpt>
      <trkpt lat="41.628128339999996" lon="2.1093650000000004">
        <ele>371.0</ele>
        <time>2019-06-09T07:40:55+02:00</time>
      </trkpt>
      <trkpt lat="41.62811767" lon="2.1093">
        <ele>370.0</ele>
        <time>2019-06-09T07:40:58+02:00</time>
      </trkpt>
      <trkpt lat="41.628088000000005" lon="2.109225">
        <ele>369.0</ele>
        <time>2019-06-09T07:41:01+02:00</time>
      </trkpt>
      <trkpt lat="41.62804834" lon="2.109185">
        <ele>368.0</ele>
        <time>2019-06-09T07:41:03+02:00</time>
      </trkpt>
      <trkpt lat="41.628004999999995" lon="2.1091433399999997">
        <ele>368.0</ele>
        <time>2019-06-09T07:41:05+02:00</time>
      </trkpt>
      <trkpt lat="41.627941670000006" lon="2.1091266699999998">
        <ele>367.0</ele>
        <time>2019-06-09T07:41:08+02:00</time>
      </trkpt>
      <trkpt lat="41.62789333999999" lon="2.1091249999999997">
        <ele>367.0</ele>
        <time>2019-06-09T07:41:10+02:00</time>
      </trkpt>
      <trkpt lat="41.627833339999995" lon="2.1091133399999995">
        <ele>366.0</ele>
        <time>2019-06-09T07:41:13+02:00</time>
      </trkpt>
      <trkpt lat="41.62776" lon="2.10911">
        <ele>366.0</ele>
        <time>2019-06-09T07:41:16+02:00</time>
      </trkpt>
      <trkpt lat="41.62769333999999" lon="2.1091133399999995">
        <ele>365.0</ele>
        <time>2019-06-09T07:41:19+02:00</time>
      </trkpt>
      <trkpt lat="41.627645" lon="2.1091143399999996">
        <ele>365.0</ele>
        <time>2019-06-09T07:41:21+02:00</time>
      </trkpt>
      <trkpt lat="41.627593340000004" lon="2.10912034">
        <ele>365.0</ele>
        <time>2019-06-09T07:41:23+02:00</time>
      </trkpt>
      <trkpt lat="41.62753834" lon="2.1091360000000003">
        <ele>365.0</ele>
        <time>2019-06-09T07:41:26+02:00</time>
      </trkpt>
      <trkpt lat="41.62749000000001" lon="2.1091493399999997">
        <ele>365.0</ele>
        <time>2019-06-09T07:41:28+02:00</time>
      </trkpt>
      <trkpt lat="41.62743834" lon="2.10917167">
        <ele>365.0</ele>
        <time>2019-06-09T07:41:30+02:00</time>
      </trkpt>
      <trkpt lat="41.62739167000001" lon="2.1092366699999996">
        <ele>364.0</ele>
        <time>2019-06-09T07:41:32+02:00</time>
      </trkpt>
      <trkpt lat="41.627343339999996" lon="2.1092733399999997">
        <ele>364.0</ele>
        <time>2019-06-09T07:41:34+02:00</time>
      </trkpt>
      <trkpt lat="41.627301669999994" lon="2.10929934">
        <ele>364.0</ele>
        <time>2019-06-09T07:41:36+02:00</time>
      </trkpt>
      <trkpt lat="41.62723834" lon="2.1093326699999997">
        <ele>363.0</ele>
        <time>2019-06-09T07:41:39+02:00</time>
      </trkpt>
      <trkpt lat="41.627188340000004" lon="2.10934267">
        <ele>363.0</ele>
        <time>2019-06-09T07:41:41+02:00</time>
      </trkpt>
      <trkpt lat="41.62714167" lon="2.1093249999999997">
        <ele>363.0</ele>
        <time>2019-06-09T07:41:43+02:00</time>
      </trkpt>
      <trkpt lat="41.62709167000001" lon="2.109305">
        <ele>363.0</ele>
        <time>2019-06-09T07:41:45+02:00</time>
      </trkpt>
      <trkpt lat="41.627041670000004" lon="2.10928834">
        <ele>362.0</ele>
        <time>2019-06-09T07:41:47+02:00</time>
      </trkpt>
      <trkpt lat="41.62699167000001" lon="2.1092816699999997">
        <ele>362.0</ele>
        <time>2019-06-09T07:41:49+02:00</time>
      </trkpt>
      <trkpt lat="41.62694334" lon="2.1092670000000004">
        <ele>362.0</ele>
        <time>2019-06-09T07:41:51+02:00</time>
      </trkpt>
      <trkpt lat="41.626875" lon="2.1092349999999995">
        <ele>361.0</ele>
        <time>2019-06-09T07:41:54+02:00</time>
      </trkpt>
      <trkpt lat="41.62681334" lon="2.1092040000000005">
        <ele>361.0</ele>
        <time>2019-06-09T07:41:57+02:00</time>
      </trkpt>
      <trkpt lat="41.62676834" lon="2.1091879999999996">
        <ele>360.0</ele>
        <time>2019-06-09T07:41:59+02:00</time>
      </trkpt>
      <trkpt lat="41.62671" lon="2.109171">
        <ele>359.0</ele>
        <time>2019-06-09T07:42:02+02:00</time>
      </trkpt>
      <trkpt lat="41.62664500000001" lon="2.1091476699999996">
        <ele>359.0</ele>
        <time>2019-06-09T07:42:05+02:00</time>
      </trkpt>
      <trkpt lat="41.626605" lon="2.109127">
        <ele>359.0</ele>
        <time>2019-06-09T07:42:07+02:00</time>
      </trkpt>
      <trkpt lat="41.62656667000001" lon="2.10909734">
        <ele>359.0</ele>
        <time>2019-06-09T07:42:10+02:00</time>
      </trkpt>
      <trkpt lat="41.62653667000001" lon="2.10899667">
        <ele>358.0</ele>
        <time>2019-06-09T07:42:13+02:00</time>
      </trkpt>
      <trkpt lat="41.62650834" lon="2.10891334">
        <ele>357.0</ele>
        <time>2019-06-09T07:42:16+02:00</time>
      </trkpt>
      <trkpt lat="41.626479999999994" lon="2.10886334">
        <ele>357.0</ele>
        <time>2019-06-09T07:42:18+02:00</time>
      </trkpt>
      <trkpt lat="41.626441670000006" lon="2.1087949999999998">
        <ele>356.0</ele>
        <time>2019-06-09T07:42:21+02:00</time>
      </trkpt>
      <trkpt lat="41.626398339999994" lon="2.10873834">
        <ele>356.0</ele>
        <time>2019-06-09T07:42:24+02:00</time>
      </trkpt>
      <trkpt lat="41.626358339999996" lon="2.10869834">
        <ele>355.0</ele>
        <time>2019-06-09T07:42:26+02:00</time>
      </trkpt>
      <trkpt lat="41.62631667000001" lon="2.10866334">
        <ele>355.0</ele>
        <time>2019-06-09T07:42:28+02:00</time>
      </trkpt>
      <trkpt lat="41.62627667" lon="2.108634">
        <ele>354.0</ele>
        <time>2019-06-09T07:42:30+02:00</time>
      </trkpt>
      <trkpt lat="41.626234999999994" lon="2.10859934">
        <ele>354.0</ele>
        <time>2019-06-09T07:42:32+02:00</time>
      </trkpt>
      <trkpt lat="41.626185" lon="2.108548">
        <ele>353.0</ele>
        <time>2019-06-09T07:42:35+02:00</time>
      </trkpt>
      <trkpt lat="41.626149999999996" lon="2.10850867">
        <ele>352.0</ele>
        <time>2019-06-09T07:42:37+02:00</time>
      </trkpt>
      <trkpt lat="41.62612333999999" lon="2.1084266699999996">
        <ele>352.0</ele>
        <time>2019-06-09T07:42:40+02:00</time>
      </trkpt>
      <trkpt lat="41.62609834" lon="2.1083583399999997">
        <ele>352.0</ele>
        <time>2019-06-09T07:42:43+02:00</time>
      </trkpt>
      <trkpt lat="41.62605834" lon="2.1082983399999997">
        <ele>352.0</ele>
        <time>2019-06-09T07:42:46+02:00</time>
      </trkpt>
      <trkpt lat="41.62602833999999" lon="2.1082533399999996">
        <ele>351.0</ele>
        <time>2019-06-09T07:42:48+02:00</time>
      </trkpt>
      <trkpt lat="41.62599634" lon="2.1081766699999998">
        <ele>351.0</ele>
        <time>2019-06-09T07:42:51+02:00</time>
      </trkpt>
      <trkpt lat="41.62597400000001" lon="2.10811">
        <ele>350.0</ele>
        <time>2019-06-09T07:42:54+02:00</time>
      </trkpt>
      <trkpt lat="41.62595233999999" lon="2.1080516699999996">
        <ele>349.0</ele>
        <time>2019-06-09T07:42:57+02:00</time>
      </trkpt>
      <trkpt lat="41.62592567" lon="2.1079833399999997">
        <ele>349.0</ele>
        <time>2019-06-09T07:43:00+02:00</time>
      </trkpt>
      <trkpt lat="41.625906670000006" lon="2.1079216699999996">
        <ele>348.0</ele>
        <time>2019-06-09T07:43:03+02:00</time>
      </trkpt>
      <trkpt lat="41.62589034" lon="2.1078566700000003">
        <ele>348.0</ele>
        <time>2019-06-09T07:43:05+02:00</time>
      </trkpt>
      <trkpt lat="41.62588133999999" lon="2.107785">
        <ele>347.0</ele>
        <time>2019-06-09T07:43:08+02:00</time>
      </trkpt>
      <trkpt lat="41.625915000000006" lon="2.10771834">
        <ele>347.0</ele>
        <time>2019-06-09T07:43:11+02:00</time>
      </trkpt>
      <trkpt lat="41.625901670000005" lon="2.1076533399999997">
        <ele>347.0</ele>
        <time>2019-06-09T07:43:14+02:00</time>
      </trkpt>
      <trkpt lat="41.625885339999996" lon="2.10758834">
        <ele>347.0</ele>
        <time>2019-06-09T07:43:17+02:00</time>
      </trkpt>
      <trkpt lat="41.62585499999999" lon="2.1075349999999995">
        <ele>346.0</ele>
        <time>2019-06-09T07:43:20+02:00</time>
      </trkpt>
      <trkpt lat="41.625811670000004" lon="2.107505">
        <ele>346.0</ele>
        <time>2019-06-09T07:43:23+02:00</time>
      </trkpt>
      <trkpt lat="41.625758340000004" lon="2.10745834">
        <ele>345.0</ele>
        <time>2019-06-09T07:43:27+02:00</time>
      </trkpt>
      <trkpt lat="41.62572" lon="2.107412">
        <ele>345.0</ele>
        <time>2019-06-09T07:43:30+02:00</time>
      </trkpt>
      <trkpt lat="41.62567333999999" lon="2.1073796699999994">
        <ele>345.0</ele>
        <time>2019-06-09T07:43:33+02:00</time>
      </trkpt>
      <trkpt lat="41.625634999999996" lon="2.107336">
        <ele>344.0</ele>
        <time>2019-06-09T07:43:36+02:00</time>
      </trkpt>
      <trkpt lat="41.62559" lon="2.1072879999999996">
        <ele>344.0</ele>
        <time>2019-06-09T07:43:39+02:00</time>
      </trkpt>
      <trkpt lat="41.625546670000006" lon="2.107243">
        <ele>343.0</ele>
        <time>2019-06-09T07:43:42+02:00</time>
      </trkpt>
      <trkpt lat="41.62550499999999" lon="2.1072023399999997">
        <ele>343.0</ele>
        <time>2019-06-09T07:43:45+02:00</time>
      </trkpt>
      <trkpt lat="41.625456670000005" lon="2.107162">
        <ele>342.0</ele>
        <time>2019-06-09T07:43:48+02:00</time>
      </trkpt>
      <trkpt lat="41.62539500000001" lon="2.10712567">
        <ele>342.0</ele>
        <time>2019-06-09T07:43:51+02:00</time>
      </trkpt>
      <trkpt lat="41.62533667000001" lon="2.10709767">
        <ele>342.0</ele>
        <time>2019-06-09T07:43:54+02:00</time>
      </trkpt>
      <trkpt lat="41.625275" lon="2.1070733400000003">
        <ele>342.0</ele>
        <time>2019-06-09T07:43:57+02:00</time>
      </trkpt>
      <trkpt lat="41.62520667" lon="2.107054">
        <ele>342.0</ele>
        <time>2019-06-09T07:44:00+02:00</time>
      </trkpt>
      <trkpt lat="41.625148339999996" lon="2.10705034">
        <ele>342.0</ele>
        <time>2019-06-09T07:44:03+02:00</time>
      </trkpt>
      <trkpt lat="41.625103339999995" lon="2.10716834">
        <ele>342.0</ele>
        <time>2019-06-09T07:44:06+02:00</time>
      </trkpt>
      <trkpt lat="41.62506334" lon="2.10723167">
        <ele>342.0</ele>
        <time>2019-06-09T07:44:09+02:00</time>
      </trkpt>
      <trkpt lat="41.62502834" lon="2.1073049999999998">
        <ele>342.0</ele>
        <time>2019-06-09T07:44:12+02:00</time>
      </trkpt>
      <trkpt lat="41.62497334" lon="2.107353">
        <ele>342.0</ele>
        <time>2019-06-09T07:44:15+02:00</time>
      </trkpt>
      <trkpt lat="41.624925000000005" lon="2.10734667">
        <ele>342.0</ele>
        <time>2019-06-09T07:44:18+02:00</time>
      </trkpt>
      <trkpt lat="41.62489667" lon="2.10728">
        <ele>341.0</ele>
        <time>2019-06-09T07:44:21+02:00</time>
      </trkpt>
      <trkpt lat="41.62489834" lon="2.1071966699999995">
        <ele>341.0</ele>
        <time>2019-06-09T07:44:24+02:00</time>
      </trkpt>
      <trkpt lat="41.62491" lon="2.10711334">
        <ele>341.0</ele>
        <time>2019-06-09T07:44:27+02:00</time>
      </trkpt>
      <trkpt lat="41.624916670000005" lon="2.1070283400000003">
        <ele>341.0</ele>
        <time>2019-06-09T07:44:30+02:00</time>
      </trkpt>
      <trkpt lat="41.62492667" lon="2.10695">
        <ele>341.0</ele>
        <time>2019-06-09T07:44:33+02:00</time>
      </trkpt>
      <trkpt lat="41.62494433999999" lon="2.1068800000000003">
        <ele>341.0</ele>
        <time>2019-06-09T07:44:36+02:00</time>
      </trkpt>
      <trkpt lat="41.624959000000004" lon="2.10681">
        <ele>340.0</ele>
        <time>2019-06-09T07:44:39+02:00</time>
      </trkpt>
      <trkpt lat="41.62497467" lon="2.1067500000000003">
        <ele>340.0</ele>
        <time>2019-06-09T07:44:42+02:00</time>
      </trkpt>
      <trkpt lat="41.62499334" lon="2.106695">
        <ele>339.0</ele>
        <time>2019-06-09T07:44:45+02:00</time>
      </trkpt>
      <trkpt lat="41.625016" lon="2.106635">
        <ele>339.0</ele>
        <time>2019-06-09T07:44:48+02:00</time>
      </trkpt>
      <trkpt lat="41.62504367" lon="2.10657">
        <ele>338.0</ele>
        <time>2019-06-09T07:44:51+02:00</time>
      </trkpt>
      <trkpt lat="41.625071670000004" lon="2.10650167">
        <ele>337.0</ele>
        <time>2019-06-09T07:44:54+02:00</time>
      </trkpt>
      <trkpt lat="41.62509867" lon="2.1064333399999997">
        <ele>337.0</ele>
        <time>2019-06-09T07:44:57+02:00</time>
      </trkpt>
      <trkpt lat="41.62512367000001" lon="2.1063833399999994">
        <ele>336.0</ele>
        <time>2019-06-09T07:45:00+02:00</time>
      </trkpt>
      <trkpt lat="41.62519167000001" lon="2.1063466699999998">
        <ele>335.0</ele>
        <time>2019-06-09T07:45:03+02:00</time>
      </trkpt>
      <trkpt lat="41.625238339999996" lon="2.106315">
        <ele>335.0</ele>
        <time>2019-06-09T07:45:06+02:00</time>
      </trkpt>
      <trkpt lat="41.62528667" lon="2.1062916699999996">
        <ele>334.0</ele>
        <time>2019-06-09T07:45:09+02:00</time>
      </trkpt>
      <trkpt lat="41.625323339999994" lon="2.10625634">
        <ele>333.0</ele>
        <time>2019-06-09T07:45:12+02:00</time>
      </trkpt>
      <trkpt lat="41.625355" lon="2.1061866700000005">
        <ele>332.0</ele>
        <time>2019-06-09T07:45:16+02:00</time>
      </trkpt>
      <trkpt lat="41.62535" lon="2.106125">
        <ele>331.0</ele>
        <time>2019-06-09T07:45:19+02:00</time>
      </trkpt>
      <trkpt lat="41.62533834" lon="2.1060633399999995">
        <ele>331.0</ele>
        <time>2019-06-09T07:45:21+02:00</time>
      </trkpt>
      <trkpt lat="41.62531833999999" lon="2.1059833399999994">
        <ele>331.0</ele>
        <time>2019-06-09T07:45:23+02:00</time>
      </trkpt>
      <trkpt lat="41.625278339999994" lon="2.105915">
        <ele>330.0</ele>
        <time>2019-06-09T07:45:25+02:00</time>
      </trkpt>
      <trkpt lat="41.62521500000001" lon="2.10584334">
        <ele>330.0</ele>
        <time>2019-06-09T07:45:27+02:00</time>
      </trkpt>
      <trkpt lat="41.625175" lon="2.1058083399999994">
        <ele>329.0</ele>
        <time>2019-06-09T07:45:28+02:00</time>
      </trkpt>
      <trkpt lat="41.625125" lon="2.1057599999999996">
        <ele>329.0</ele>
        <time>2019-06-09T07:45:29+02:00</time>
      </trkpt>
      <trkpt lat="41.62509" lon="2.10572167">
        <ele>329.0</ele>
        <time>2019-06-09T07:45:30+02:00</time>
      </trkpt>
      <trkpt lat="41.625051670000005" lon="2.10566167">
        <ele>329.0</ele>
        <time>2019-06-09T07:45:31+02:00</time>
      </trkpt>
      <trkpt lat="41.62501567000001" lon="2.1055933399999995">
        <ele>328.0</ele>
        <time>2019-06-09T07:45:32+02:00</time>
      </trkpt>
      <trkpt lat="41.624968339999995" lon="2.1055183399999997">
        <ele>328.0</ele>
        <time>2019-06-09T07:45:33+02:00</time>
      </trkpt>
      <trkpt lat="41.624931339999996" lon="2.1054749999999998">
        <ele>328.0</ele>
        <time>2019-06-09T07:45:34+02:00</time>
      </trkpt>
      <trkpt lat="41.62485834" lon="2.10543834">
        <ele>328.0</ele>
        <time>2019-06-09T07:45:35+02:00</time>
      </trkpt>
      <trkpt lat="41.62474834" lon="2.10542">
        <ele>328.0</ele>
        <time>2019-06-09T07:45:36+02:00</time>
      </trkpt>
      <trkpt lat="41.624673339999994" lon="2.10539334">
        <ele>327.0</ele>
        <time>2019-06-09T07:45:37+02:00</time>
      </trkpt>
      <trkpt lat="41.624613339999996" lon="2.1053866699999997">
        <ele>327.0</ele>
        <time>2019-06-09T07:45:38+02:00</time>
      </trkpt>
      <trkpt lat="41.62454334" lon="2.1054633399999996">
        <ele>327.0</ele>
        <time>2019-06-09T07:45:40+02:00</time>
      </trkpt>
      <trkpt lat="41.624496670000006" lon="2.1054966699999995">
        <ele>327.0</ele>
        <time>2019-06-09T07:45:41+02:00</time>
      </trkpt>
      <trkpt lat="41.62444834" lon="2.1055146700000003">
        <ele>327.0</ele>
        <time>2019-06-09T07:45:42+02:00</time>
      </trkpt>
      <trkpt lat="41.6244" lon="2.105504">
        <ele>327.0</ele>
        <time>2019-06-09T07:45:43+02:00</time>
      </trkpt>
      <trkpt lat="41.624336670000005" lon="2.1054489999999992">
        <ele>327.0</ele>
        <time>2019-06-09T07:45:45+02:00</time>
      </trkpt>
      <trkpt lat="41.624286670000004" lon="2.1053400000000004">
        <ele>327.0</ele>
        <time>2019-06-09T07:45:47+02:00</time>
      </trkpt>
      <trkpt lat="41.62425499999999" lon="2.1052466699999997">
        <ele>326.0</ele>
        <time>2019-06-09T07:45:49+02:00</time>
      </trkpt>
      <trkpt lat="41.62423667" lon="2.10516334">
        <ele>326.0</ele>
        <time>2019-06-09T07:45:51+02:00</time>
      </trkpt>
      <trkpt lat="41.624210000000005" lon="2.1050999999999997">
        <ele>326.0</ele>
        <time>2019-06-09T07:45:53+02:00</time>
      </trkpt>
      <trkpt lat="41.62419" lon="2.10504">
        <ele>326.0</ele>
        <time>2019-06-09T07:45:55+02:00</time>
      </trkpt>
      <trkpt lat="41.62417299999999" lon="2.1049833399999995">
        <ele>325.0</ele>
        <time>2019-06-09T07:45:57+02:00</time>
      </trkpt>
      <trkpt lat="41.624156000000006" lon="2.104925">
        <ele>325.0</ele>
        <time>2019-06-09T07:45:59+02:00</time>
      </trkpt>
      <trkpt lat="41.62412934" lon="2.1048383399999997">
        <ele>325.0</ele>
        <time>2019-06-09T07:46:01+02:00</time>
      </trkpt>
      <trkpt lat="41.62411067" lon="2.10478">
        <ele>325.0</ele>
        <time>2019-06-09T07:46:02+02:00</time>
      </trkpt>
      <trkpt lat="41.62408667000001" lon="2.10471">
        <ele>325.0</ele>
        <time>2019-06-09T07:46:03+02:00</time>
      </trkpt>
      <trkpt lat="41.624059" lon="2.1046349999999996">
        <ele>325.0</ele>
        <time>2019-06-09T07:46:04+02:00</time>
      </trkpt>
      <trkpt lat="41.624028669999994" lon="2.10455667">
        <ele>325.0</ele>
        <time>2019-06-09T07:46:05+02:00</time>
      </trkpt>
      <trkpt lat="41.623997339999995" lon="2.104475">
        <ele>325.0</ele>
        <time>2019-06-09T07:46:06+02:00</time>
      </trkpt>
      <trkpt lat="41.623963" lon="2.1043950000000002">
        <ele>325.0</ele>
        <time>2019-06-09T07:46:07+02:00</time>
      </trkpt>
      <trkpt lat="41.62392633999999" lon="2.10431667">
        <ele>325.0</ele>
        <time>2019-06-09T07:46:08+02:00</time>
      </trkpt>
      <trkpt lat="41.623889" lon="2.10424834">
        <ele>325.0</ele>
        <time>2019-06-09T07:46:09+02:00</time>
      </trkpt>
      <trkpt lat="41.62385267" lon="2.1041883399999994">
        <ele>325.0</ele>
        <time>2019-06-09T07:46:10+02:00</time>
      </trkpt>
      <trkpt lat="41.62381434" lon="2.10412834">
        <ele>324.0</ele>
        <time>2019-06-09T07:46:11+02:00</time>
      </trkpt>
      <trkpt lat="41.62377933999999" lon="2.1040733400000002">
        <ele>324.0</ele>
        <time>2019-06-09T07:46:12+02:00</time>
      </trkpt>
      <trkpt lat="41.62372967" lon="2.103965">
        <ele>324.0</ele>
        <time>2019-06-09T07:46:14+02:00</time>
      </trkpt>
      <trkpt lat="41.62372334" lon="2.10388167">
        <ele>324.0</ele>
        <time>2019-06-09T07:46:16+02:00</time>
      </trkpt>
      <trkpt lat="41.62371667000001" lon="2.10381334">
        <ele>324.0</ele>
        <time>2019-06-09T07:46:18+02:00</time>
      </trkpt>
      <trkpt lat="41.62369334" lon="2.10375334">
        <ele>324.0</ele>
        <time>2019-06-09T07:46:20+02:00</time>
      </trkpt>
      <trkpt lat="41.623659339999996" lon="2.1037066700000002">
        <ele>324.0</ele>
        <time>2019-06-09T07:46:22+02:00</time>
      </trkpt>
      <trkpt lat="41.62359834" lon="2.1036849999999996">
        <ele>324.0</ele>
        <time>2019-06-09T07:46:24+02:00</time>
      </trkpt>
      <trkpt lat="41.62354334" lon="2.10364834">
        <ele>324.0</ele>
        <time>2019-06-09T07:46:26+02:00</time>
      </trkpt>
      <trkpt lat="41.62350334" lon="2.103585">
        <ele>324.0</ele>
        <time>2019-06-09T07:46:28+02:00</time>
      </trkpt>
      <trkpt lat="41.623475" lon="2.1035083399999994">
        <ele>324.0</ele>
        <time>2019-06-09T07:46:30+02:00</time>
      </trkpt>
      <trkpt lat="41.62345334" lon="2.1034250000000005">
        <ele>324.0</ele>
        <time>2019-06-09T07:46:32+02:00</time>
      </trkpt>
      <trkpt lat="41.62342667" lon="2.10335167">
        <ele>324.0</ele>
        <time>2019-06-09T07:46:34+02:00</time>
      </trkpt>
      <trkpt lat="41.62339733999999" lon="2.1032833399999995">
        <ele>324.0</ele>
        <time>2019-06-09T07:46:36+02:00</time>
      </trkpt>
      <trkpt lat="41.62336634" lon="2.10321834">
        <ele>324.0</ele>
        <time>2019-06-09T07:46:38+02:00</time>
      </trkpt>
      <trkpt lat="41.62333167" lon="2.1031666699999993">
        <ele>324.0</ele>
        <time>2019-06-09T07:46:40+02:00</time>
      </trkpt>
      <trkpt lat="41.62329467000001" lon="2.10311834">
        <ele>324.0</ele>
        <time>2019-06-09T07:46:42+02:00</time>
      </trkpt>
      <trkpt lat="41.623259999999995" lon="2.1030766699999996">
        <ele>324.0</ele>
        <time>2019-06-09T07:46:44+02:00</time>
      </trkpt>
      <trkpt lat="41.62322234" lon="2.10302667">
        <ele>324.0</ele>
        <time>2019-06-09T07:46:46+02:00</time>
      </trkpt>
      <trkpt lat="41.62317734" lon="2.1029450000000005">
        <ele>324.0</ele>
        <time>2019-06-09T07:46:49+02:00</time>
      </trkpt>
      <trkpt lat="41.623165" lon="2.1028783399999997">
        <ele>324.0</ele>
        <time>2019-06-09T07:46:52+02:00</time>
      </trkpt>
      <trkpt lat="41.62312334" lon="2.10285334">
        <ele>324.0</ele>
        <time>2019-06-09T07:46:55+02:00</time>
      </trkpt>
      <trkpt lat="41.62308834" lon="2.10290834">
        <ele>324.0</ele>
        <time>2019-06-09T07:46:58+02:00</time>
      </trkpt>
      <trkpt lat="41.62305167000001" lon="2.102955">
        <ele>324.0</ele>
        <time>2019-06-09T07:47:00+02:00</time>
      </trkpt>
      <trkpt lat="41.62299167" lon="2.10299334">
        <ele>324.0</ele>
        <time>2019-06-09T07:47:03+02:00</time>
      </trkpt>
      <trkpt lat="41.622945" lon="2.102965">
        <ele>324.0</ele>
        <time>2019-06-09T07:47:05+02:00</time>
      </trkpt>
      <trkpt lat="41.62290834" lon="2.1028900000000004">
        <ele>324.0</ele>
        <time>2019-06-09T07:47:07+02:00</time>
      </trkpt>
      <trkpt lat="41.62287167000001" lon="2.10280167">
        <ele>324.0</ele>
        <time>2019-06-09T07:47:09+02:00</time>
      </trkpt>
      <trkpt lat="41.62283334" lon="2.10271834">
        <ele>324.0</ele>
        <time>2019-06-09T07:47:11+02:00</time>
      </trkpt>
      <trkpt lat="41.62280834" lon="2.102645">
        <ele>324.0</ele>
        <time>2019-06-09T07:47:13+02:00</time>
      </trkpt>
      <trkpt lat="41.62278499999999" lon="2.1025799999999997">
        <ele>324.0</ele>
        <time>2019-06-09T07:47:15+02:00</time>
      </trkpt>
      <trkpt lat="41.62277334" lon="2.1025183399999996">
        <ele>323.0</ele>
        <time>2019-06-09T07:47:17+02:00</time>
      </trkpt>
      <trkpt lat="41.622727" lon="2.1023716699999992">
        <ele>323.0</ele>
        <time>2019-06-09T07:47:19+02:00</time>
      </trkpt>
      <trkpt lat="41.62269933999999" lon="2.1022916699999996">
        <ele>323.0</ele>
        <time>2019-06-09T07:47:21+02:00</time>
      </trkpt>
      <trkpt lat="41.622661" lon="2.102225">
        <ele>323.0</ele>
        <time>2019-06-09T07:47:23+02:00</time>
      </trkpt>
      <trkpt lat="41.622585" lon="2.10216667">
        <ele>323.0</ele>
        <time>2019-06-09T07:47:25+02:00</time>
      </trkpt>
      <trkpt lat="41.622535" lon="2.1021099999999997">
        <ele>323.0</ele>
        <time>2019-06-09T07:47:27+02:00</time>
      </trkpt>
      <trkpt lat="41.622474999999994" lon="2.102065">
        <ele>322.0</ele>
        <time>2019-06-09T07:47:29+02:00</time>
      </trkpt>
      <trkpt lat="41.62240334" lon="2.1020233399999997">
        <ele>322.0</ele>
        <time>2019-06-09T07:47:31+02:00</time>
      </trkpt>
      <trkpt lat="41.62235834" lon="2.101998">
        <ele>322.0</ele>
        <time>2019-06-09T07:47:32+02:00</time>
      </trkpt>
      <trkpt lat="41.62231834000001" lon="2.1019676699999996">
        <ele>322.0</ele>
        <time>2019-06-09T07:47:33+02:00</time>
      </trkpt>
      <trkpt lat="41.62228499999999" lon="2.1019340000000004">
        <ele>322.0</ele>
        <time>2019-06-09T07:47:34+02:00</time>
      </trkpt>
      <trkpt lat="41.622226669999996" lon="2.10186334">
        <ele>322.0</ele>
        <time>2019-06-09T07:47:36+02:00</time>
      </trkpt>
      <trkpt lat="41.62216334" lon="2.10178134">
        <ele>322.0</ele>
        <time>2019-06-09T07:47:38+02:00</time>
      </trkpt>
      <trkpt lat="41.62210834" lon="2.1017040000000002">
        <ele>322.0</ele>
        <time>2019-06-09T07:47:40+02:00</time>
      </trkpt>
      <trkpt lat="41.62204334" lon="2.101619">
        <ele>322.0</ele>
        <time>2019-06-09T07:47:42+02:00</time>
      </trkpt>
      <trkpt lat="41.62198667" lon="2.10153767">
        <ele>322.0</ele>
        <time>2019-06-09T07:47:44+02:00</time>
      </trkpt>
      <trkpt lat="41.62194000000001" lon="2.1014133399999997">
        <ele>321.0</ele>
        <time>2019-06-09T07:47:46+02:00</time>
      </trkpt>
      <trkpt lat="41.621911669999996" lon="2.1013166699999997">
        <ele>321.0</ele>
        <time>2019-06-09T07:47:48+02:00</time>
      </trkpt>
      <trkpt lat="41.62189500000001" lon="2.1012283399999996">
        <ele>321.0</ele>
        <time>2019-06-09T07:47:50+02:00</time>
      </trkpt>
      <trkpt lat="41.621891670000004" lon="2.101135">
        <ele>321.0</ele>
        <time>2019-06-09T07:47:52+02:00</time>
      </trkpt>
      <trkpt lat="41.62190234" lon="2.10106834">
        <ele>321.0</ele>
        <time>2019-06-09T07:47:53+02:00</time>
      </trkpt>
      <trkpt lat="41.621923339999995" lon="2.101">
        <ele>321.0</ele>
        <time>2019-06-09T07:47:54+02:00</time>
      </trkpt>
      <trkpt lat="41.62194667000001" lon="2.10093">
        <ele>320.0</ele>
        <time>2019-06-09T07:47:55+02:00</time>
      </trkpt>
      <trkpt lat="41.621990000000004" lon="2.1008283399999996">
        <ele>320.0</ele>
        <time>2019-06-09T07:47:57+02:00</time>
      </trkpt>
      <trkpt lat="41.622020000000006" lon="2.1007666699999996">
        <ele>320.0</ele>
        <time>2019-06-09T07:47:58+02:00</time>
      </trkpt>
      <trkpt lat="41.62207" lon="2.10069">
        <ele>320.0</ele>
        <time>2019-06-09T07:48:00+02:00</time>
      </trkpt>
      <trkpt lat="41.62212667000001" lon="2.1005933399999996">
        <ele>320.0</ele>
        <time>2019-06-09T07:48:02+02:00</time>
      </trkpt>
      <trkpt lat="41.62215667" lon="2.1005433399999998">
        <ele>320.0</ele>
        <time>2019-06-09T07:48:03+02:00</time>
      </trkpt>
      <trkpt lat="41.62218434" lon="2.1004816699999997">
        <ele>320.0</ele>
        <time>2019-06-09T07:48:04+02:00</time>
      </trkpt>
      <trkpt lat="41.62221034" lon="2.1004250000000004">
        <ele>320.0</ele>
        <time>2019-06-09T07:48:05+02:00</time>
      </trkpt>
      <trkpt lat="41.622231670000005" lon="2.100365">
        <ele>320.0</ele>
        <time>2019-06-09T07:48:06+02:00</time>
      </trkpt>
      <trkpt lat="41.622252339999996" lon="2.1002533399999996">
        <ele>320.0</ele>
        <time>2019-06-09T07:48:08+02:00</time>
      </trkpt>
      <trkpt lat="41.622238339999996" lon="2.1001333399999993">
        <ele>320.0</ele>
        <time>2019-06-09T07:48:10+02:00</time>
      </trkpt>
      <trkpt lat="41.622209999999995" lon="2.1000233399999995">
        <ele>320.0</ele>
        <time>2019-06-09T07:48:12+02:00</time>
      </trkpt>
      <trkpt lat="41.622158340000006" lon="2.0999299999999996">
        <ele>320.0</ele>
        <time>2019-06-09T07:48:14+02:00</time>
      </trkpt>
      <trkpt lat="41.62213167" lon="2.0998783399999996">
        <ele>320.0</ele>
        <time>2019-06-09T07:48:15+02:00</time>
      </trkpt>
      <trkpt lat="41.62210499999999" lon="2.0998266699999997">
        <ele>320.0</ele>
        <time>2019-06-09T07:48:16+02:00</time>
      </trkpt>
      <trkpt lat="41.62205834" lon="2.09973">
        <ele>320.0</ele>
        <time>2019-06-09T07:48:18+02:00</time>
      </trkpt>
      <trkpt lat="41.622026670000004" lon="2.099625">
        <ele>320.0</ele>
        <time>2019-06-09T07:48:20+02:00</time>
      </trkpt>
      <trkpt lat="41.62201734" lon="2.09954">
        <ele>320.0</ele>
        <time>2019-06-09T07:48:22+02:00</time>
      </trkpt>
      <trkpt lat="41.622012670000004" lon="2.0994533399999993">
        <ele>320.0</ele>
        <time>2019-06-09T07:48:24+02:00</time>
      </trkpt>
      <trkpt lat="41.622007339999996" lon="2.099365">
        <ele>320.0</ele>
        <time>2019-06-09T07:48:26+02:00</time>
      </trkpt>
      <trkpt lat="41.62199467000001" lon="2.09926667">
        <ele>320.0</ele>
        <time>2019-06-09T07:48:28+02:00</time>
      </trkpt>
      <trkpt lat="41.62197067" lon="2.09917">
        <ele>320.0</ele>
        <time>2019-06-09T07:48:30+02:00</time>
      </trkpt>
      <trkpt lat="41.62189500000001" lon="2.099125">
        <ele>320.0</ele>
        <time>2019-06-09T07:48:32+02:00</time>
      </trkpt>
      <trkpt lat="41.62183667000001" lon="2.0990516699999997">
        <ele>320.0</ele>
        <time>2019-06-09T07:48:34+02:00</time>
      </trkpt>
      <trkpt lat="41.621785" lon="2.09896667">
        <ele>321.0</ele>
        <time>2019-06-09T07:48:36+02:00</time>
      </trkpt>
      <trkpt lat="41.621734339999996" lon="2.09888834">
        <ele>321.0</ele>
        <time>2019-06-09T07:48:38+02:00</time>
      </trkpt>
      <trkpt lat="41.621683999999995" lon="2.0987983399999997">
        <ele>321.0</ele>
        <time>2019-06-09T07:48:40+02:00</time>
      </trkpt>
      <trkpt lat="41.621646670000004" lon="2.0987166699999995">
        <ele>321.0</ele>
        <time>2019-06-09T07:48:42+02:00</time>
      </trkpt>
      <trkpt lat="41.621618" lon="2.0986433399999997">
        <ele>321.0</ele>
        <time>2019-06-09T07:48:44+02:00</time>
      </trkpt>
      <trkpt lat="41.62158633999999" lon="2.09856">
        <ele>322.0</ele>
        <time>2019-06-09T07:48:46+02:00</time>
      </trkpt>
      <trkpt lat="41.62156434" lon="2.0984949999999998">
        <ele>322.0</ele>
        <time>2019-06-09T07:48:48+02:00</time>
      </trkpt>
      <trkpt lat="41.62154267" lon="2.0984216699999996">
        <ele>322.0</ele>
        <time>2019-06-09T07:48:50+02:00</time>
      </trkpt>
      <trkpt lat="41.62152367" lon="2.098355">
        <ele>322.0</ele>
        <time>2019-06-09T07:48:52+02:00</time>
      </trkpt>
      <trkpt lat="41.62150567" lon="2.0982816699999995">
        <ele>322.0</ele>
        <time>2019-06-09T07:48:54+02:00</time>
      </trkpt>
      <trkpt lat="41.62148834" lon="2.09821334">
        <ele>322.0</ele>
        <time>2019-06-09T07:48:56+02:00</time>
      </trkpt>
      <trkpt lat="41.621470669999994" lon="2.09814">
        <ele>322.0</ele>
        <time>2019-06-09T07:48:58+02:00</time>
      </trkpt>
      <trkpt lat="41.62145033999999" lon="2.098045">
        <ele>322.0</ele>
        <time>2019-06-09T07:49:01+02:00</time>
      </trkpt>
      <trkpt lat="41.62143399999999" lon="2.0979533399999997">
        <ele>323.0</ele>
        <time>2019-06-09T07:49:04+02:00</time>
      </trkpt>
      <trkpt lat="41.621425" lon="2.0978849999999998">
        <ele>323.0</ele>
        <time>2019-06-09T07:49:06+02:00</time>
      </trkpt>
      <trkpt lat="41.62141433999999" lon="2.0977966699999997">
        <ele>323.0</ele>
        <time>2019-06-09T07:49:09+02:00</time>
      </trkpt>
      <trkpt lat="41.621404999999996" lon="2.0977233399999995">
        <ele>323.0</ele>
        <time>2019-06-09T07:49:11+02:00</time>
      </trkpt>
      <trkpt lat="41.621392" lon="2.0976333399999993">
        <ele>323.0</ele>
        <time>2019-06-09T07:49:14+02:00</time>
      </trkpt>
      <trkpt lat="41.62138267" lon="2.0975683399999996">
        <ele>323.0</ele>
        <time>2019-06-09T07:49:16+02:00</time>
      </trkpt>
      <trkpt lat="41.62138" lon="2.09751334">
        <ele>324.0</ele>
        <time>2019-06-09T07:49:18+02:00</time>
      </trkpt>
      <trkpt lat="41.621335" lon="2.0974700000000004">
        <ele>324.0</ele>
        <time>2019-06-09T07:49:20+02:00</time>
      </trkpt>
      <trkpt lat="41.62128834" lon="2.0974333399999994">
        <ele>324.0</ele>
        <time>2019-06-09T07:49:22+02:00</time>
      </trkpt>
      <trkpt lat="41.62124000000001" lon="2.09740167">
        <ele>324.0</ele>
        <time>2019-06-09T07:49:24+02:00</time>
      </trkpt>
      <trkpt lat="41.621190000000006" lon="2.09736834">
        <ele>324.0</ele>
        <time>2019-06-09T07:49:26+02:00</time>
      </trkpt>
      <trkpt lat="41.621145000000006" lon="2.0973200000000003">
        <ele>324.0</ele>
        <time>2019-06-09T07:49:28+02:00</time>
      </trkpt>
      <trkpt lat="41.62110167000001" lon="2.09726834">
        <ele>324.0</ele>
        <time>2019-06-09T07:49:30+02:00</time>
      </trkpt>
      <trkpt lat="41.62105667000001" lon="2.097213">
        <ele>324.0</ele>
        <time>2019-06-09T07:49:32+02:00</time>
      </trkpt>
      <trkpt lat="41.62101833999999" lon="2.0971683399999996">
        <ele>324.0</ele>
        <time>2019-06-09T07:49:34+02:00</time>
      </trkpt>
      <trkpt lat="41.62097334" lon="2.0971233399999996">
        <ele>324.0</ele>
        <time>2019-06-09T07:49:36+02:00</time>
      </trkpt>
      <trkpt lat="41.62092667" lon="2.0970839999999997">
        <ele>324.0</ele>
        <time>2019-06-09T07:49:38+02:00</time>
      </trkpt>
      <trkpt lat="41.620875" lon="2.0970459999999997">
        <ele>324.0</ele>
        <time>2019-06-09T07:49:40+02:00</time>
      </trkpt>
      <trkpt lat="41.62082667000001" lon="2.0970116699999997">
        <ele>324.0</ele>
        <time>2019-06-09T07:49:42+02:00</time>
      </trkpt>
      <trkpt lat="41.620779999999996" lon="2.096976">
        <ele>324.0</ele>
        <time>2019-06-09T07:49:44+02:00</time>
      </trkpt>
      <trkpt lat="41.62073334" lon="2.096939">
        <ele>324.0</ele>
        <time>2019-06-09T07:49:46+02:00</time>
      </trkpt>
      <trkpt lat="41.62069167000001" lon="2.09690334">
        <ele>324.0</ele>
        <time>2019-06-09T07:49:48+02:00</time>
      </trkpt>
      <trkpt lat="41.62065834" lon="2.096871">
        <ele>324.0</ele>
        <time>2019-06-09T07:49:50+02:00</time>
      </trkpt>
      <trkpt lat="41.62061834" lon="2.096828">
        <ele>323.0</ele>
        <time>2019-06-09T07:49:52+02:00</time>
      </trkpt>
      <trkpt lat="41.62057333999999" lon="2.0967783399999997">
        <ele>323.0</ele>
        <time>2019-06-09T07:49:54+02:00</time>
      </trkpt>
      <trkpt lat="41.62050167" lon="2.0967043399999996">
        <ele>323.0</ele>
        <time>2019-06-09T07:49:56+02:00</time>
      </trkpt>
      <trkpt lat="41.620423339999995" lon="2.0966320000000005">
        <ele>323.0</ele>
        <time>2019-06-09T07:49:58+02:00</time>
      </trkpt>
      <trkpt lat="41.620368340000006" lon="2.0965893399999995">
        <ele>323.0</ele>
        <time>2019-06-09T07:49:59+02:00</time>
      </trkpt>
      <trkpt lat="41.62027667" lon="2.0965866699999998">
        <ele>322.0</ele>
        <time>2019-06-09T07:50:01+02:00</time>
      </trkpt>
      <trkpt lat="41.620223339999995" lon="2.096565">
        <ele>322.0</ele>
        <time>2019-06-09T07:50:02+02:00</time>
      </trkpt>
      <trkpt lat="41.620175" lon="2.0965396700000003">
        <ele>322.0</ele>
        <time>2019-06-09T07:50:03+02:00</time>
      </trkpt>
      <trkpt lat="41.62013167" lon="2.09651067">
        <ele>322.0</ele>
        <time>2019-06-09T07:50:04+02:00</time>
      </trkpt>
      <trkpt lat="41.62009667" lon="2.09647734">
        <ele>322.0</ele>
        <time>2019-06-09T07:50:05+02:00</time>
      </trkpt>
      <trkpt lat="41.62006667000001" lon="2.0964163399999998">
        <ele>322.0</ele>
        <time>2019-06-09T07:50:07+02:00</time>
      </trkpt>
      <trkpt lat="41.620079999999994" lon="2.09625667">
        <ele>322.0</ele>
        <time>2019-06-09T07:50:09+02:00</time>
      </trkpt>
      <trkpt lat="41.62010334" lon="2.0961583399999997">
        <ele>322.0</ele>
        <time>2019-06-09T07:50:11+02:00</time>
      </trkpt>
      <trkpt lat="41.620126670000005" lon="2.09606834">
        <ele>322.0</ele>
        <time>2019-06-09T07:50:13+02:00</time>
      </trkpt>
      <trkpt lat="41.62014834" lon="2.09598">
        <ele>322.0</ele>
        <time>2019-06-09T07:50:15+02:00</time>
      </trkpt>
      <trkpt lat="41.620171670000005" lon="2.0958983399999997">
        <ele>322.0</ele>
        <time>2019-06-09T07:50:17+02:00</time>
      </trkpt>
      <trkpt lat="41.620191000000005" lon="2.0958016699999997">
        <ele>321.0</ele>
        <time>2019-06-09T07:50:19+02:00</time>
      </trkpt>
      <trkpt lat="41.620206339999996" lon="2.09571834">
        <ele>321.0</ele>
        <time>2019-06-09T07:50:21+02:00</time>
      </trkpt>
      <trkpt lat="41.620222999999996" lon="2.09562667">
        <ele>321.0</ele>
        <time>2019-06-09T07:50:23+02:00</time>
      </trkpt>
      <trkpt lat="41.620240339999995" lon="2.09553667">
        <ele>321.0</ele>
        <time>2019-06-09T07:50:25+02:00</time>
      </trkpt>
      <trkpt lat="41.62025634" lon="2.09545">
        <ele>320.0</ele>
        <time>2019-06-09T07:50:27+02:00</time>
      </trkpt>
      <trkpt lat="41.62027433999999" lon="2.0953666699999998">
        <ele>320.0</ele>
        <time>2019-06-09T07:50:29+02:00</time>
      </trkpt>
      <trkpt lat="41.620295" lon="2.0952833399999995">
        <ele>320.0</ele>
        <time>2019-06-09T07:50:31+02:00</time>
      </trkpt>
      <trkpt lat="41.620313" lon="2.09519834">
        <ele>320.0</ele>
        <time>2019-06-09T07:50:33+02:00</time>
      </trkpt>
      <trkpt lat="41.62032867" lon="2.0951116699999996">
        <ele>320.0</ele>
        <time>2019-06-09T07:50:35+02:00</time>
      </trkpt>
      <trkpt lat="41.620340999999996" lon="2.0950233399999996">
        <ele>320.0</ele>
        <time>2019-06-09T07:50:37+02:00</time>
      </trkpt>
      <trkpt lat="41.62034834" lon="2.0949283399999996">
        <ele>320.0</ele>
        <time>2019-06-09T07:50:39+02:00</time>
      </trkpt>
      <trkpt lat="41.620351670000005" lon="2.09482334">
        <ele>320.0</ele>
        <time>2019-06-09T07:50:41+02:00</time>
      </trkpt>
      <trkpt lat="41.620346000000005" lon="2.0947116699999997">
        <ele>319.0</ele>
        <time>2019-06-09T07:50:43+02:00</time>
      </trkpt>
      <trkpt lat="41.620332669999996" lon="2.09465167">
        <ele>319.0</ele>
        <time>2019-06-09T07:50:44+02:00</time>
      </trkpt>
      <trkpt lat="41.620243339999995" lon="2.09459334">
        <ele>319.0</ele>
        <time>2019-06-09T07:50:45+02:00</time>
      </trkpt>
      <trkpt lat="41.62022" lon="2.0945349999999996">
        <ele>319.0</ele>
        <time>2019-06-09T07:50:46+02:00</time>
      </trkpt>
      <trkpt lat="41.620195339999995" lon="2.094475">
        <ele>319.0</ele>
        <time>2019-06-09T07:50:47+02:00</time>
      </trkpt>
      <trkpt lat="41.620166000000005" lon="2.0944116700000004">
        <ele>319.0</ele>
        <time>2019-06-09T07:50:48+02:00</time>
      </trkpt>
      <trkpt lat="41.620133669999994" lon="2.0943416699999995">
        <ele>319.0</ele>
        <time>2019-06-09T07:50:49+02:00</time>
      </trkpt>
      <trkpt lat="41.62009833999999" lon="2.09426667">
        <ele>319.0</ele>
        <time>2019-06-09T07:50:50+02:00</time>
      </trkpt>
      <trkpt lat="41.620062" lon="2.09419">
        <ele>319.0</ele>
        <time>2019-06-09T07:50:51+02:00</time>
      </trkpt>
      <trkpt lat="41.62002334" lon="2.0941083399999996">
        <ele>319.0</ele>
        <time>2019-06-09T07:50:52+02:00</time>
      </trkpt>
      <trkpt lat="41.61998534000001" lon="2.0939966699999997">
        <ele>319.0</ele>
        <time>2019-06-09T07:50:53+02:00</time>
      </trkpt>
      <trkpt lat="41.619930999999994" lon="2.0938933399999997">
        <ele>318.0</ele>
        <time>2019-06-09T07:50:54+02:00</time>
      </trkpt>
      <trkpt lat="41.619888" lon="2.0938133399999996">
        <ele>318.0</ele>
        <time>2019-06-09T07:50:55+02:00</time>
      </trkpt>
      <trkpt lat="41.61985467000001" lon="2.09373">
        <ele>318.0</ele>
        <time>2019-06-09T07:50:56+02:00</time>
      </trkpt>
      <trkpt lat="41.61982833999999" lon="2.0936433399999994">
        <ele>318.0</ele>
        <time>2019-06-09T07:50:57+02:00</time>
      </trkpt>
      <trkpt lat="41.61980799999999" lon="2.09354834">
        <ele>318.0</ele>
        <time>2019-06-09T07:50:58+02:00</time>
      </trkpt>
      <trkpt lat="41.619875" lon="2.09349">
        <ele>318.0</ele>
        <time>2019-06-09T07:50:59+02:00</time>
      </trkpt>
      <trkpt lat="41.61988834" lon="2.09342">
        <ele>318.0</ele>
        <time>2019-06-09T07:51:00+02:00</time>
      </trkpt>
      <trkpt lat="41.61989834" lon="2.09335167">
        <ele>318.0</ele>
        <time>2019-06-09T07:51:01+02:00</time>
      </trkpt>
      <trkpt lat="41.619905" lon="2.09328667">
        <ele>318.0</ele>
        <time>2019-06-09T07:51:02+02:00</time>
      </trkpt>
      <trkpt lat="41.61991533999999" lon="2.0932283399999996">
        <ele>318.0</ele>
        <time>2019-06-09T07:51:03+02:00</time>
      </trkpt>
      <trkpt lat="41.619935" lon="2.0931216699999995">
        <ele>318.0</ele>
        <time>2019-06-09T07:51:05+02:00</time>
      </trkpt>
      <trkpt lat="41.61995167" lon="2.0930299999999997">
        <ele>318.0</ele>
        <time>2019-06-09T07:51:07+02:00</time>
      </trkpt>
      <trkpt lat="41.619958669999995" lon="2.0929450000000003">
        <ele>317.0</ele>
        <time>2019-06-09T07:51:09+02:00</time>
      </trkpt>
      <trkpt lat="41.619963000000006" lon="2.09287">
        <ele>317.0</ele>
        <time>2019-06-09T07:51:11+02:00</time>
      </trkpt>
      <trkpt lat="41.61996700000001" lon="2.09279">
        <ele>317.0</ele>
        <time>2019-06-09T07:51:13+02:00</time>
      </trkpt>
      <trkpt lat="41.61996834" lon="2.0927133399999995">
        <ele>317.0</ele>
        <time>2019-06-09T07:51:15+02:00</time>
      </trkpt>
      <trkpt lat="41.61996967000001" lon="2.0926400000000003">
        <ele>316.0</ele>
        <time>2019-06-09T07:51:17+02:00</time>
      </trkpt>
      <trkpt lat="41.61997100000001" lon="2.0925683399999997">
        <ele>316.0</ele>
        <time>2019-06-09T07:51:19+02:00</time>
      </trkpt>
      <trkpt lat="41.61997067" lon="2.0924916700000002">
        <ele>316.0</ele>
        <time>2019-06-09T07:51:21+02:00</time>
      </trkpt>
      <trkpt lat="41.61997067" lon="2.09241334">
        <ele>316.0</ele>
        <time>2019-06-09T07:51:23+02:00</time>
      </trkpt>
      <trkpt lat="41.61997233999999" lon="2.0923333399999997">
        <ele>315.0</ele>
        <time>2019-06-09T07:51:25+02:00</time>
      </trkpt>
      <trkpt lat="41.619974" lon="2.09225167">
        <ele>315.0</ele>
        <time>2019-06-09T07:51:27+02:00</time>
      </trkpt>
      <trkpt lat="41.61997567" lon="2.0921666699999997">
        <ele>315.0</ele>
        <time>2019-06-09T07:51:29+02:00</time>
      </trkpt>
      <trkpt lat="41.61997934" lon="2.09208167">
        <ele>315.0</ele>
        <time>2019-06-09T07:51:31+02:00</time>
      </trkpt>
      <trkpt lat="41.619983999999995" lon="2.0919933399999997">
        <ele>315.0</ele>
        <time>2019-06-09T07:51:33+02:00</time>
      </trkpt>
      <trkpt lat="41.619995" lon="2.0919083399999994">
        <ele>315.0</ele>
        <time>2019-06-09T07:51:34+02:00</time>
      </trkpt>
      <trkpt lat="41.62000467" lon="2.0918283399999997">
        <ele>315.0</ele>
        <time>2019-06-09T07:51:36+02:00</time>
      </trkpt>
      <trkpt lat="41.62002167000001" lon="2.09175">
        <ele>315.0</ele>
        <time>2019-06-09T07:51:38+02:00</time>
      </trkpt>
      <trkpt lat="41.620040669999995" lon="2.091678339999999">
        <ele>315.0</ele>
        <time>2019-06-09T07:51:40+02:00</time>
      </trkpt>
      <trkpt lat="41.62006467000001" lon="2.09160334">
        <ele>315.0</ele>
        <time>2019-06-09T07:51:42+02:00</time>
      </trkpt>
      <trkpt lat="41.62008667" lon="2.0915333399999994">
        <ele>315.0</ele>
        <time>2019-06-09T07:51:44+02:00</time>
      </trkpt>
      <trkpt lat="41.62010567" lon="2.09146">
        <ele>314.0</ele>
        <time>2019-06-09T07:51:46+02:00</time>
      </trkpt>
      <trkpt lat="41.620124" lon="2.09138834">
        <ele>314.0</ele>
        <time>2019-06-09T07:51:48+02:00</time>
      </trkpt>
      <trkpt lat="41.620146670000004" lon="2.09131667">
        <ele>314.0</ele>
        <time>2019-06-09T07:51:50+02:00</time>
      </trkpt>
      <trkpt lat="41.620095000000006" lon="2.09122667">
        <ele>316.0</ele>
        <time>2019-06-09T07:51:52+02:00</time>
      </trkpt>
      <trkpt lat="41.620063339999994" lon="2.09118">
        <ele>316.0</ele>
        <time>2019-06-09T07:51:53+02:00</time>
      </trkpt>
      <trkpt lat="41.62003" lon="2.09113">
        <ele>316.0</ele>
        <time>2019-06-09T07:51:54+02:00</time>
      </trkpt>
      <trkpt lat="41.619995" lon="2.0910783399999997">
        <ele>316.0</ele>
        <time>2019-06-09T07:51:55+02:00</time>
      </trkpt>
      <trkpt lat="41.61996167" lon="2.09102834">
        <ele>316.0</ele>
        <time>2019-06-09T07:51:56+02:00</time>
      </trkpt>
      <trkpt lat="41.61992334" lon="2.09097667">
        <ele>316.0</ele>
        <time>2019-06-09T07:51:57+02:00</time>
      </trkpt>
      <trkpt lat="41.61988533999999" lon="2.0909250000000004">
        <ele>316.0</ele>
        <time>2019-06-09T07:51:58+02:00</time>
      </trkpt>
      <trkpt lat="41.619848000000005" lon="2.0908733399999995">
        <ele>317.0</ele>
        <time>2019-06-09T07:51:59+02:00</time>
      </trkpt>
      <trkpt lat="41.619810339999994" lon="2.0908183399999998">
        <ele>317.0</ele>
        <time>2019-06-09T07:52:00+02:00</time>
      </trkpt>
      <trkpt lat="41.61977399999999" lon="2.09076334">
        <ele>317.0</ele>
        <time>2019-06-09T07:52:01+02:00</time>
      </trkpt>
      <trkpt lat="41.61974034" lon="2.09071">
        <ele>317.0</ele>
        <time>2019-06-09T07:52:02+02:00</time>
      </trkpt>
      <trkpt lat="41.61970666999999" lon="2.09065667">
        <ele>317.0</ele>
        <time>2019-06-09T07:52:03+02:00</time>
      </trkpt>
      <trkpt lat="41.61967333999999" lon="2.090605">
        <ele>317.0</ele>
        <time>2019-06-09T07:52:04+02:00</time>
      </trkpt>
      <trkpt lat="41.619644" lon="2.09055167">
        <ele>318.0</ele>
        <time>2019-06-09T07:52:05+02:00</time>
      </trkpt>
      <trkpt lat="41.61961467" lon="2.0904833399999996">
        <ele>318.0</ele>
        <time>2019-06-09T07:52:06+02:00</time>
      </trkpt>
      <trkpt lat="41.61968334" lon="2.09038667">
        <ele>318.0</ele>
        <time>2019-06-09T07:52:08+02:00</time>
      </trkpt>
      <trkpt lat="41.61971167" lon="2.0903283399999997">
        <ele>319.0</ele>
        <time>2019-06-09T07:52:09+02:00</time>
      </trkpt>
      <trkpt lat="41.619748339999994" lon="2.0902716699999995">
        <ele>319.0</ele>
        <time>2019-06-09T07:52:10+02:00</time>
      </trkpt>
      <trkpt lat="41.619794999999996" lon="2.0902149999999997">
        <ele>319.0</ele>
        <time>2019-06-09T07:52:11+02:00</time>
      </trkpt>
      <trkpt lat="41.61985" lon="2.0901583399999994">
        <ele>319.0</ele>
        <time>2019-06-09T07:52:12+02:00</time>
      </trkpt>
      <trkpt lat="41.61991" lon="2.0901050000000003">
        <ele>319.0</ele>
        <time>2019-06-09T07:52:13+02:00</time>
      </trkpt>
      <trkpt lat="41.620005000000006" lon="2.0900666699999997">
        <ele>320.0</ele>
        <time>2019-06-09T07:52:14+02:00</time>
      </trkpt>
      <trkpt lat="41.62009667" lon="2.09007">
        <ele>320.0</ele>
        <time>2019-06-09T07:52:15+02:00</time>
      </trkpt>
      <trkpt lat="41.620175" lon="2.0900083399999994">
        <ele>320.0</ele>
        <time>2019-06-09T07:52:16+02:00</time>
      </trkpt>
      <trkpt lat="41.62025167" lon="2.08994667">
        <ele>320.0</ele>
        <time>2019-06-09T07:52:17+02:00</time>
      </trkpt>
      <trkpt lat="41.62031" lon="2.08987734">
        <ele>320.0</ele>
        <time>2019-06-09T07:52:18+02:00</time>
      </trkpt>
      <trkpt lat="41.62034667000001" lon="2.08979">
        <ele>321.0</ele>
        <time>2019-06-09T07:52:19+02:00</time>
      </trkpt>
      <trkpt lat="41.62036667" lon="2.08969667">
        <ele>321.0</ele>
        <time>2019-06-09T07:52:20+02:00</time>
      </trkpt>
      <trkpt lat="41.62037334" lon="2.08961334">
        <ele>321.0</ele>
        <time>2019-06-09T07:52:21+02:00</time>
      </trkpt>
      <trkpt lat="41.620371670000004" lon="2.0895483399999994">
        <ele>321.0</ele>
        <time>2019-06-09T07:52:22+02:00</time>
      </trkpt>
      <trkpt lat="41.62043834" lon="2.089505">
        <ele>322.0</ele>
        <time>2019-06-09T07:52:24+02:00</time>
      </trkpt>
      <trkpt lat="41.62047667" lon="2.0895433399999996">
        <ele>322.0</ele>
        <time>2019-06-09T07:52:25+02:00</time>
      </trkpt>
      <trkpt lat="41.620509999999996" lon="2.08960167">
        <ele>323.0</ele>
        <time>2019-06-09T07:52:26+02:00</time>
      </trkpt>
      <trkpt lat="41.62054500000001" lon="2.0896583399999993">
        <ele>323.0</ele>
        <time>2019-06-09T07:52:27+02:00</time>
      </trkpt>
      <trkpt lat="41.62057333999999" lon="2.08970667">
        <ele>323.0</ele>
        <time>2019-06-09T07:52:28+02:00</time>
      </trkpt>
      <trkpt lat="41.620605" lon="2.0897599999999996">
        <ele>324.0</ele>
        <time>2019-06-09T07:52:29+02:00</time>
      </trkpt>
      <trkpt lat="41.620633340000005" lon="2.089825">
        <ele>324.0</ele>
        <time>2019-06-09T07:52:30+02:00</time>
      </trkpt>
      <trkpt lat="41.620670000000004" lon="2.0898849999999998">
        <ele>324.0</ele>
        <time>2019-06-09T07:52:31+02:00</time>
      </trkpt>
      <trkpt lat="41.62071334" lon="2.08994">
        <ele>325.0</ele>
        <time>2019-06-09T07:52:32+02:00</time>
      </trkpt>
      <trkpt lat="41.62076167" lon="2.0899849999999995">
        <ele>325.0</ele>
        <time>2019-06-09T07:52:33+02:00</time>
      </trkpt>
      <trkpt lat="41.62081167" lon="2.09002734">
        <ele>325.0</ele>
        <time>2019-06-09T07:52:34+02:00</time>
      </trkpt>
      <trkpt lat="41.620865" lon="2.0900606699999997">
        <ele>326.0</ele>
        <time>2019-06-09T07:52:35+02:00</time>
      </trkpt>
      <trkpt lat="41.62092" lon="2.090080339999999">
        <ele>326.0</ele>
        <time>2019-06-09T07:52:36+02:00</time>
      </trkpt>
      <trkpt lat="41.62097334" lon="2.0900846700000004">
        <ele>326.0</ele>
        <time>2019-06-09T07:52:37+02:00</time>
      </trkpt>
      <trkpt lat="41.62102000000001" lon="2.09007434">
        <ele>327.0</ele>
        <time>2019-06-09T07:52:38+02:00</time>
      </trkpt>
      <trkpt lat="41.62105667000001" lon="2.09">
        <ele>327.0</ele>
        <time>2019-06-09T07:52:39+02:00</time>
      </trkpt>
      <trkpt lat="41.62109" lon="2.0899">
        <ele>328.0</ele>
        <time>2019-06-09T07:52:41+02:00</time>
      </trkpt>
      <trkpt lat="41.62111167" lon="2.089785">
        <ele>328.0</ele>
        <time>2019-06-09T07:52:43+02:00</time>
      </trkpt>
      <trkpt lat="41.621146669999995" lon="2.0896833399999997">
        <ele>329.0</ele>
        <time>2019-06-09T07:52:45+02:00</time>
      </trkpt>
      <trkpt lat="41.621176670000004" lon="2.0896316699999997">
        <ele>329.0</ele>
        <time>2019-06-09T07:52:46+02:00</time>
      </trkpt>
      <trkpt lat="41.62122633999999" lon="2.0895599999999996">
        <ele>330.0</ele>
        <time>2019-06-09T07:52:48+02:00</time>
      </trkpt>
      <trkpt lat="41.62128366999999" lon="2.089485">
        <ele>331.0</ele>
        <time>2019-06-09T07:52:50+02:00</time>
      </trkpt>
      <trkpt lat="41.62132167000001" lon="2.089445">
        <ele>331.0</ele>
        <time>2019-06-09T07:52:51+02:00</time>
      </trkpt>
      <trkpt lat="41.621375" lon="2.08938834">
        <ele>331.0</ele>
        <time>2019-06-09T07:52:53+02:00</time>
      </trkpt>
      <trkpt lat="41.621435000000005" lon="2.08932334">
        <ele>332.0</ele>
        <time>2019-06-09T07:52:55+02:00</time>
      </trkpt>
      <trkpt lat="41.621495" lon="2.0892606699999994">
        <ele>333.0</ele>
        <time>2019-06-09T07:52:57+02:00</time>
      </trkpt>
      <trkpt lat="41.621551669999995" lon="2.0892056699999997">
        <ele>333.0</ele>
        <time>2019-06-09T07:52:59+02:00</time>
      </trkpt>
      <trkpt lat="41.621615000000006" lon="2.08914434">
        <ele>334.0</ele>
        <time>2019-06-09T07:53:01+02:00</time>
      </trkpt>
      <trkpt lat="41.62166667" lon="2.089092">
        <ele>335.0</ele>
        <time>2019-06-09T07:53:03+02:00</time>
      </trkpt>
      <trkpt lat="41.62172833999999" lon="2.0890273399999995">
        <ele>335.0</ele>
        <time>2019-06-09T07:53:05+02:00</time>
      </trkpt>
      <trkpt lat="41.621795000000006" lon="2.0889610000000003">
        <ele>336.0</ele>
        <time>2019-06-09T07:53:07+02:00</time>
      </trkpt>
      <trkpt lat="41.62186500000001" lon="2.0888910000000003">
        <ele>336.0</ele>
        <time>2019-06-09T07:53:09+02:00</time>
      </trkpt>
      <trkpt lat="41.62190167000001" lon="2.088855">
        <ele>336.0</ele>
        <time>2019-06-09T07:53:10+02:00</time>
      </trkpt>
      <trkpt lat="41.62194000000001" lon="2.0888166699999995">
        <ele>336.0</ele>
        <time>2019-06-09T07:53:11+02:00</time>
      </trkpt>
      <trkpt lat="41.621981670000004" lon="2.088775">
        <ele>337.0</ele>
        <time>2019-06-09T07:53:12+02:00</time>
      </trkpt>
      <trkpt lat="41.62202167" lon="2.08873434">
        <ele>337.0</ele>
        <time>2019-06-09T07:53:13+02:00</time>
      </trkpt>
      <trkpt lat="41.622063340000004" lon="2.08869234">
        <ele>337.0</ele>
        <time>2019-06-09T07:53:14+02:00</time>
      </trkpt>
      <trkpt lat="41.62210499999999" lon="2.08865034">
        <ele>337.0</ele>
        <time>2019-06-09T07:53:15+02:00</time>
      </trkpt>
      <trkpt lat="41.622145" lon="2.088612">
        <ele>338.0</ele>
        <time>2019-06-09T07:53:16+02:00</time>
      </trkpt>
      <trkpt lat="41.622185" lon="2.088572">
        <ele>338.0</ele>
        <time>2019-06-09T07:53:17+02:00</time>
      </trkpt>
      <trkpt lat="41.62222167000001" lon="2.08853534">
        <ele>338.0</ele>
        <time>2019-06-09T07:53:18+02:00</time>
      </trkpt>
      <trkpt lat="41.622258339999995" lon="2.0885003399999995">
        <ele>338.0</ele>
        <time>2019-06-09T07:53:19+02:00</time>
      </trkpt>
      <trkpt lat="41.62233167000001" lon="2.0884270000000003">
        <ele>338.0</ele>
        <time>2019-06-09T07:53:21+02:00</time>
      </trkpt>
      <trkpt lat="41.62240167000001" lon="2.0883599999999993">
        <ele>339.0</ele>
        <time>2019-06-09T07:53:23+02:00</time>
      </trkpt>
      <trkpt lat="41.62247167" lon="2.0882963400000003">
        <ele>339.0</ele>
        <time>2019-06-09T07:53:25+02:00</time>
      </trkpt>
      <trkpt lat="41.62251334" lon="2.0882606699999995">
        <ele>340.0</ele>
        <time>2019-06-09T07:53:26+02:00</time>
      </trkpt>
      <trkpt lat="41.62257667" lon="2.0882023399999996">
        <ele>340.0</ele>
        <time>2019-06-09T07:53:28+02:00</time>
      </trkpt>
      <trkpt lat="41.622654999999995" lon="2.08813634">
        <ele>340.0</ele>
        <time>2019-06-09T07:53:30+02:00</time>
      </trkpt>
      <trkpt lat="41.62270333999999" lon="2.0881033399999995">
        <ele>341.0</ele>
        <time>2019-06-09T07:53:31+02:00</time>
      </trkpt>
      <trkpt lat="41.62277334" lon="2.0880520000000002">
        <ele>341.0</ele>
        <time>2019-06-09T07:53:33+02:00</time>
      </trkpt>
      <trkpt lat="41.62285333999999" lon="2.088001">
        <ele>342.0</ele>
        <time>2019-06-09T07:53:35+02:00</time>
      </trkpt>
      <trkpt lat="41.622933339999996" lon="2.0879576699999998">
        <ele>342.0</ele>
        <time>2019-06-09T07:53:37+02:00</time>
      </trkpt>
      <trkpt lat="41.62300834" lon="2.08792667">
        <ele>343.0</ele>
        <time>2019-06-09T07:53:39+02:00</time>
      </trkpt>
      <trkpt lat="41.62308167" lon="2.087902">
        <ele>343.0</ele>
        <time>2019-06-09T07:53:41+02:00</time>
      </trkpt>
      <trkpt lat="41.623151670000006" lon="2.08788834">
        <ele>344.0</ele>
        <time>2019-06-09T07:53:43+02:00</time>
      </trkpt>
      <trkpt lat="41.62321834000001" lon="2.08788167">
        <ele>344.0</ele>
        <time>2019-06-09T07:53:45+02:00</time>
      </trkpt>
      <trkpt lat="41.623281670000004" lon="2.0878810000000003">
        <ele>344.0</ele>
        <time>2019-06-09T07:53:47+02:00</time>
      </trkpt>
      <trkpt lat="41.623343340000005" lon="2.08788467">
        <ele>345.0</ele>
        <time>2019-06-09T07:53:49+02:00</time>
      </trkpt>
      <trkpt lat="41.623403339999996" lon="2.087889">
        <ele>345.0</ele>
        <time>2019-06-09T07:53:51+02:00</time>
      </trkpt>
      <trkpt lat="41.62345834" lon="2.0878986700000004">
        <ele>345.0</ele>
        <time>2019-06-09T07:53:53+02:00</time>
      </trkpt>
      <trkpt lat="41.62351167" lon="2.08790734">
        <ele>345.0</ele>
        <time>2019-06-09T07:53:55+02:00</time>
      </trkpt>
      <trkpt lat="41.62356334" lon="2.0879186699999996">
        <ele>346.0</ele>
        <time>2019-06-09T07:53:57+02:00</time>
      </trkpt>
      <trkpt lat="41.62361500000001" lon="2.087927">
        <ele>347.0</ele>
        <time>2019-06-09T07:53:59+02:00</time>
      </trkpt>
      <trkpt lat="41.62366667" lon="2.0879416699999997">
        <ele>347.0</ele>
        <time>2019-06-09T07:54:01+02:00</time>
      </trkpt>
      <trkpt lat="41.623718339999996" lon="2.0879540000000003">
        <ele>347.0</ele>
        <time>2019-06-09T07:54:03+02:00</time>
      </trkpt>
      <trkpt lat="41.62377500000001" lon="2.08796534">
        <ele>348.0</ele>
        <time>2019-06-09T07:54:05+02:00</time>
      </trkpt>
      <trkpt lat="41.62383167" lon="2.087974">
        <ele>348.0</ele>
        <time>2019-06-09T07:54:07+02:00</time>
      </trkpt>
      <trkpt lat="41.62389167" lon="2.0879879999999997">
        <ele>349.0</ele>
        <time>2019-06-09T07:54:09+02:00</time>
      </trkpt>
      <trkpt lat="41.623949999999994" lon="2.0880046699999997">
        <ele>350.0</ele>
        <time>2019-06-09T07:54:11+02:00</time>
      </trkpt>
      <trkpt lat="41.624005" lon="2.08801934">
        <ele>350.0</ele>
        <time>2019-06-09T07:54:13+02:00</time>
      </trkpt>
      <trkpt lat="41.624065" lon="2.0880333399999995">
        <ele>351.0</ele>
        <time>2019-06-09T07:54:15+02:00</time>
      </trkpt>
      <trkpt lat="41.62412834" lon="2.08804767">
        <ele>351.0</ele>
        <time>2019-06-09T07:54:17+02:00</time>
      </trkpt>
      <trkpt lat="41.62419334" lon="2.0880763399999998">
        <ele>352.0</ele>
        <time>2019-06-09T07:54:19+02:00</time>
      </trkpt>
      <trkpt lat="41.624253339999996" lon="2.088109">
        <ele>352.0</ele>
        <time>2019-06-09T07:54:21+02:00</time>
      </trkpt>
      <trkpt lat="41.624316670000006" lon="2.08814767">
        <ele>353.0</ele>
        <time>2019-06-09T07:54:23+02:00</time>
      </trkpt>
      <trkpt lat="41.624381670000005" lon="2.088183">
        <ele>354.0</ele>
        <time>2019-06-09T07:54:25+02:00</time>
      </trkpt>
      <trkpt lat="41.62444167" lon="2.08822167">
        <ele>354.0</ele>
        <time>2019-06-09T07:54:27+02:00</time>
      </trkpt>
      <trkpt lat="41.62450167000001" lon="2.0882560000000003">
        <ele>355.0</ele>
        <time>2019-06-09T07:54:29+02:00</time>
      </trkpt>
      <trkpt lat="41.62456334" lon="2.08829867">
        <ele>355.0</ele>
        <time>2019-06-09T07:54:31+02:00</time>
      </trkpt>
      <trkpt lat="41.62462667000001" lon="2.0883433399999998">
        <ele>355.0</ele>
        <time>2019-06-09T07:54:33+02:00</time>
      </trkpt>
      <trkpt lat="41.62468834" lon="2.0883846700000004">
        <ele>356.0</ele>
        <time>2019-06-09T07:54:35+02:00</time>
      </trkpt>
      <trkpt lat="41.62474667" lon="2.08842234">
        <ele>357.0</ele>
        <time>2019-06-09T07:54:37+02:00</time>
      </trkpt>
      <trkpt lat="41.62480667000001" lon="2.08846767">
        <ele>357.0</ele>
        <time>2019-06-09T07:54:39+02:00</time>
      </trkpt>
      <trkpt lat="41.62486667" lon="2.08851467">
        <ele>358.0</ele>
        <time>2019-06-09T07:54:41+02:00</time>
      </trkpt>
      <trkpt lat="41.62492834" lon="2.08856367">
        <ele>358.0</ele>
        <time>2019-06-09T07:54:43+02:00</time>
      </trkpt>
      <trkpt lat="41.62498667" lon="2.0886133399999998">
        <ele>359.0</ele>
        <time>2019-06-09T07:54:45+02:00</time>
      </trkpt>
      <trkpt lat="41.62504667" lon="2.0886649999999998">
        <ele>360.0</ele>
        <time>2019-06-09T07:54:47+02:00</time>
      </trkpt>
      <trkpt lat="41.62510667" lon="2.08871234">
        <ele>361.0</ele>
        <time>2019-06-09T07:54:49+02:00</time>
      </trkpt>
      <trkpt lat="41.62516667000001" lon="2.08876667">
        <ele>362.0</ele>
        <time>2019-06-09T07:54:51+02:00</time>
      </trkpt>
      <trkpt lat="41.62522167000001" lon="2.08881567">
        <ele>363.0</ele>
        <time>2019-06-09T07:54:53+02:00</time>
      </trkpt>
      <trkpt lat="41.625278339999994" lon="2.088866">
        <ele>364.0</ele>
        <time>2019-06-09T07:54:55+02:00</time>
      </trkpt>
      <trkpt lat="41.62533334" lon="2.0889166699999997">
        <ele>364.0</ele>
        <time>2019-06-09T07:54:57+02:00</time>
      </trkpt>
      <trkpt lat="41.625384999999994" lon="2.08896834">
        <ele>364.0</ele>
        <time>2019-06-09T07:54:59+02:00</time>
      </trkpt>
      <trkpt lat="41.62544" lon="2.0890170000000006">
        <ele>365.0</ele>
        <time>2019-06-09T07:55:01+02:00</time>
      </trkpt>
      <trkpt lat="41.625495" lon="2.0890613399999998">
        <ele>366.0</ele>
        <time>2019-06-09T07:55:03+02:00</time>
      </trkpt>
      <trkpt lat="41.625548339999995" lon="2.08911167">
        <ele>367.0</ele>
        <time>2019-06-09T07:55:05+02:00</time>
      </trkpt>
      <trkpt lat="41.625606669999996" lon="2.08915467">
        <ele>368.0</ele>
        <time>2019-06-09T07:55:07+02:00</time>
      </trkpt>
      <trkpt lat="41.62565834" lon="2.0891960000000003">
        <ele>369.0</ele>
        <time>2019-06-09T07:55:09+02:00</time>
      </trkpt>
      <trkpt lat="41.625713340000004" lon="2.08924">
        <ele>369.0</ele>
        <time>2019-06-09T07:55:11+02:00</time>
      </trkpt>
      <trkpt lat="41.625766670000004" lon="2.08927834">
        <ele>370.0</ele>
        <time>2019-06-09T07:55:13+02:00</time>
      </trkpt>
      <trkpt lat="41.625818339999995" lon="2.0893170000000003">
        <ele>371.0</ele>
        <time>2019-06-09T07:55:15+02:00</time>
      </trkpt>
      <trkpt lat="41.625870000000006" lon="2.08935667">
        <ele>371.0</ele>
        <time>2019-06-09T07:55:17+02:00</time>
      </trkpt>
      <trkpt lat="41.62592500000001" lon="2.0893930000000003">
        <ele>372.0</ele>
        <time>2019-06-09T07:55:19+02:00</time>
      </trkpt>
      <trkpt lat="41.625978339999996" lon="2.08942867">
        <ele>373.0</ele>
        <time>2019-06-09T07:55:21+02:00</time>
      </trkpt>
      <trkpt lat="41.626025" lon="2.0894613399999997">
        <ele>374.0</ele>
        <time>2019-06-09T07:55:23+02:00</time>
      </trkpt>
      <trkpt lat="41.62608834000001" lon="2.08950267">
        <ele>375.0</ele>
        <time>2019-06-09T07:55:26+02:00</time>
      </trkpt>
      <trkpt lat="41.62615667" lon="2.08954667">
        <ele>376.0</ele>
        <time>2019-06-09T07:55:29+02:00</time>
      </trkpt>
      <trkpt lat="41.6262" lon="2.0895723399999997">
        <ele>377.0</ele>
        <time>2019-06-09T07:55:31+02:00</time>
      </trkpt>
      <trkpt lat="41.626263339999994" lon="2.08960867">
        <ele>378.0</ele>
        <time>2019-06-09T07:55:34+02:00</time>
      </trkpt>
      <trkpt lat="41.62631" lon="2.0896420000000004">
        <ele>379.0</ele>
        <time>2019-06-09T07:55:36+02:00</time>
      </trkpt>
      <trkpt lat="41.626353339999994" lon="2.089668">
        <ele>379.0</ele>
        <time>2019-06-09T07:55:38+02:00</time>
      </trkpt>
      <trkpt lat="41.626400000000004" lon="2.0896963399999997">
        <ele>380.0</ele>
        <time>2019-06-09T07:55:40+02:00</time>
      </trkpt>
      <trkpt lat="41.626448339999996" lon="2.0897200000000007">
        <ele>381.0</ele>
        <time>2019-06-09T07:55:42+02:00</time>
      </trkpt>
      <trkpt lat="41.62650167" lon="2.08974567">
        <ele>381.0</ele>
        <time>2019-06-09T07:55:44+02:00</time>
      </trkpt>
      <trkpt lat="41.626548339999985" lon="2.0896700000000004">
        <ele>382.0</ele>
        <time>2019-06-09T07:55:46+02:00</time>
      </trkpt>
      <trkpt lat="41.626639999999995" lon="2.08962">
        <ele>383.0</ele>
        <time>2019-06-09T07:55:48+02:00</time>
      </trkpt>
      <trkpt lat="41.626684999999995" lon="2.0895966699999997">
        <ele>383.0</ele>
        <time>2019-06-09T07:55:50+02:00</time>
      </trkpt>
      <trkpt lat="41.626728339999985" lon="2.0895706699999996">
        <ele>384.0</ele>
        <time>2019-06-09T07:55:52+02:00</time>
      </trkpt>
      <trkpt lat="41.62677167" lon="2.0895510000000006">
        <ele>384.0</ele>
        <time>2019-06-09T07:55:54+02:00</time>
      </trkpt>
      <trkpt lat="41.626819999999995" lon="2.0895326699999996">
        <ele>385.0</ele>
        <time>2019-06-09T07:55:56+02:00</time>
      </trkpt>
      <trkpt lat="41.62687" lon="2.08951867">
        <ele>385.0</ele>
        <time>2019-06-09T07:55:58+02:00</time>
      </trkpt>
      <trkpt lat="41.62691334" lon="2.089505">
        <ele>385.0</ele>
        <time>2019-06-09T07:56:00+02:00</time>
      </trkpt>
      <trkpt lat="41.62696167" lon="2.089496">
        <ele>386.0</ele>
        <time>2019-06-09T07:56:02+02:00</time>
      </trkpt>
      <trkpt lat="41.62702667000001" lon="2.08948834">
        <ele>386.0</ele>
        <time>2019-06-09T07:56:05+02:00</time>
      </trkpt>
      <trkpt lat="41.62707833999999" lon="2.08949167">
        <ele>387.0</ele>
        <time>2019-06-09T07:56:07+02:00</time>
      </trkpt>
      <trkpt lat="41.62712834" lon="2.08949734">
        <ele>387.0</ele>
        <time>2019-06-09T07:56:09+02:00</time>
      </trkpt>
      <trkpt lat="41.62717500000001" lon="2.0895053399999997">
        <ele>388.0</ele>
        <time>2019-06-09T07:56:11+02:00</time>
      </trkpt>
      <trkpt lat="41.627224999999996" lon="2.0895189999999997">
        <ele>388.0</ele>
        <time>2019-06-09T07:56:13+02:00</time>
      </trkpt>
      <trkpt lat="41.62727000000001" lon="2.08953734">
        <ele>388.0</ele>
        <time>2019-06-09T07:56:15+02:00</time>
      </trkpt>
      <trkpt lat="41.62732" lon="2.089555">
        <ele>389.0</ele>
        <time>2019-06-09T07:56:17+02:00</time>
      </trkpt>
      <trkpt lat="41.627368340000004" lon="2.08957467">
        <ele>389.0</ele>
        <time>2019-06-09T07:56:19+02:00</time>
      </trkpt>
      <trkpt lat="41.627413340000004" lon="2.08959367">
        <ele>389.0</ele>
        <time>2019-06-09T07:56:21+02:00</time>
      </trkpt>
      <trkpt lat="41.62746" lon="2.08961234">
        <ele>390.0</ele>
        <time>2019-06-09T07:56:23+02:00</time>
      </trkpt>
      <trkpt lat="41.62750667" lon="2.08962867">
        <ele>390.0</ele>
        <time>2019-06-09T07:56:25+02:00</time>
      </trkpt>
      <trkpt lat="41.62755167" lon="2.08964434">
        <ele>391.0</ele>
        <time>2019-06-09T07:56:27+02:00</time>
      </trkpt>
      <trkpt lat="41.62759834" lon="2.0896603399999996">
        <ele>391.0</ele>
        <time>2019-06-09T07:56:29+02:00</time>
      </trkpt>
      <trkpt lat="41.62764167" lon="2.08967467">
        <ele>391.0</ele>
        <time>2019-06-09T07:56:31+02:00</time>
      </trkpt>
      <trkpt lat="41.62769" lon="2.0896916699999997">
        <ele>391.0</ele>
        <time>2019-06-09T07:56:33+02:00</time>
      </trkpt>
      <trkpt lat="41.62775499999999" lon="2.0897143399999996">
        <ele>391.0</ele>
        <time>2019-06-09T07:56:36+02:00</time>
      </trkpt>
      <trkpt lat="41.627815" lon="2.0897379999999997">
        <ele>392.0</ele>
        <time>2019-06-09T07:56:39+02:00</time>
      </trkpt>
      <trkpt lat="41.62785834" lon="2.0897573400000002">
        <ele>392.0</ele>
        <time>2019-06-09T07:56:41+02:00</time>
      </trkpt>
      <trkpt lat="41.627905" lon="2.08977767">
        <ele>393.0</ele>
        <time>2019-06-09T07:56:43+02:00</time>
      </trkpt>
      <trkpt lat="41.627948339999996" lon="2.08980067">
        <ele>393.0</ele>
        <time>2019-06-09T07:56:45+02:00</time>
      </trkpt>
      <trkpt lat="41.62799334" lon="2.08982234">
        <ele>393.0</ele>
        <time>2019-06-09T07:56:47+02:00</time>
      </trkpt>
      <trkpt lat="41.62805667000001" lon="2.0898463400000002">
        <ele>393.0</ele>
        <time>2019-06-09T07:56:50+02:00</time>
      </trkpt>
      <trkpt lat="41.62811500000001" lon="2.0898733399999996">
        <ele>393.0</ele>
        <time>2019-06-09T07:56:53+02:00</time>
      </trkpt>
      <trkpt lat="41.62817833999999" lon="2.089899">
        <ele>393.0</ele>
        <time>2019-06-09T07:56:56+02:00</time>
      </trkpt>
      <trkpt lat="41.628240000000005" lon="2.08992067">
        <ele>393.0</ele>
        <time>2019-06-09T07:56:59+02:00</time>
      </trkpt>
      <trkpt lat="41.62828499999999" lon="2.0899379999999996">
        <ele>393.0</ele>
        <time>2019-06-09T07:57:01+02:00</time>
      </trkpt>
      <trkpt lat="41.62834000000001" lon="2.089954">
        <ele>393.0</ele>
        <time>2019-06-09T07:57:03+02:00</time>
      </trkpt>
      <trkpt lat="41.62839167" lon="2.0899686699999998">
        <ele>393.0</ele>
        <time>2019-06-09T07:57:05+02:00</time>
      </trkpt>
      <trkpt lat="41.628441670000015" lon="2.089978">
        <ele>393.0</ele>
        <time>2019-06-09T07:57:07+02:00</time>
      </trkpt>
      <trkpt lat="41.628493340000006" lon="2.08998367">
        <ele>393.0</ele>
        <time>2019-06-09T07:57:09+02:00</time>
      </trkpt>
      <trkpt lat="41.628546670000006" lon="2.08999267">
        <ele>393.0</ele>
        <time>2019-06-09T07:57:11+02:00</time>
      </trkpt>
      <trkpt lat="41.628593339999995" lon="2.0899949999999996">
        <ele>394.0</ele>
        <time>2019-06-09T07:57:13+02:00</time>
      </trkpt>
      <trkpt lat="41.628638339999995" lon="2.089992">
        <ele>394.0</ele>
        <time>2019-06-09T07:57:15+02:00</time>
      </trkpt>
      <trkpt lat="41.62868334000001" lon="2.089992">
        <ele>394.0</ele>
        <time>2019-06-09T07:57:17+02:00</time>
      </trkpt>
      <trkpt lat="41.628724999999996" lon="2.0899856699999995">
        <ele>394.0</ele>
        <time>2019-06-09T07:57:19+02:00</time>
      </trkpt>
      <trkpt lat="41.62876834" lon="2.0899790000000005">
        <ele>394.0</ele>
        <time>2019-06-09T07:57:21+02:00</time>
      </trkpt>
      <trkpt lat="41.628808340000006" lon="2.08997034">
        <ele>395.0</ele>
        <time>2019-06-09T07:57:23+02:00</time>
      </trkpt>
      <trkpt lat="41.62886667000001" lon="2.0899593399999996">
        <ele>395.0</ele>
        <time>2019-06-09T07:57:26+02:00</time>
      </trkpt>
      <trkpt lat="41.62891334" lon="2.089945">
        <ele>396.0</ele>
        <time>2019-06-09T07:57:28+02:00</time>
      </trkpt>
      <trkpt lat="41.628956669999994" lon="2.0899333399999995">
        <ele>396.0</ele>
        <time>2019-06-09T07:57:30+02:00</time>
      </trkpt>
      <trkpt lat="41.629" lon="2.08991634">
        <ele>396.0</ele>
        <time>2019-06-09T07:57:32+02:00</time>
      </trkpt>
      <trkpt lat="41.62907" lon="2.08990134">
        <ele>397.0</ele>
        <time>2019-06-09T07:57:35+02:00</time>
      </trkpt>
      <trkpt lat="41.62911167" lon="2.08988534">
        <ele>397.0</ele>
        <time>2019-06-09T07:57:37+02:00</time>
      </trkpt>
      <trkpt lat="41.629158340000004" lon="2.08986534">
        <ele>397.0</ele>
        <time>2019-06-09T07:57:39+02:00</time>
      </trkpt>
      <trkpt lat="41.62922667000001" lon="2.0898473399999995">
        <ele>398.0</ele>
        <time>2019-06-09T07:57:42+02:00</time>
      </trkpt>
      <trkpt lat="41.62927834" lon="2.089823">
        <ele>398.0</ele>
        <time>2019-06-09T07:57:44+02:00</time>
      </trkpt>
      <trkpt lat="41.629325" lon="2.0898036700000002">
        <ele>398.0</ele>
        <time>2019-06-09T07:57:46+02:00</time>
      </trkpt>
      <trkpt lat="41.62938667" lon="2.0897806699999997">
        <ele>398.0</ele>
        <time>2019-06-09T07:57:49+02:00</time>
      </trkpt>
      <trkpt lat="41.62945" lon="2.089758">
        <ele>399.0</ele>
        <time>2019-06-09T07:57:52+02:00</time>
      </trkpt>
      <trkpt lat="41.62949667000001" lon="2.08974">
        <ele>399.0</ele>
        <time>2019-06-09T07:57:54+02:00</time>
      </trkpt>
      <trkpt lat="41.62955" lon="2.089645">
        <ele>400.0</ele>
        <time>2019-06-09T07:57:57+02:00</time>
      </trkpt>
      <trkpt lat="41.629583339999996" lon="2.08968667">
        <ele>400.0</ele>
        <time>2019-06-09T07:57:59+02:00</time>
      </trkpt>
      <trkpt lat="41.629631669999995" lon="2.08974334">
        <ele>401.0</ele>
        <time>2019-06-09T07:58:02+02:00</time>
      </trkpt>
      <trkpt lat="41.629661670000004" lon="2.08979134">
        <ele>401.0</ele>
        <time>2019-06-09T07:58:04+02:00</time>
      </trkpt>
      <trkpt lat="41.629705" lon="2.0898586700000004">
        <ele>401.0</ele>
        <time>2019-06-09T07:58:07+02:00</time>
      </trkpt>
      <trkpt lat="41.62973" lon="2.0899083399999996">
        <ele>402.0</ele>
        <time>2019-06-09T07:58:09+02:00</time>
      </trkpt>
      <trkpt lat="41.62976" lon="2.0899566700000003">
        <ele>402.0</ele>
        <time>2019-06-09T07:58:11+02:00</time>
      </trkpt>
      <trkpt lat="41.62978833999999" lon="2.09000334">
        <ele>402.0</ele>
        <time>2019-06-09T07:58:13+02:00</time>
      </trkpt>
      <trkpt lat="41.629830670000004" lon="2.090055">
        <ele>402.0</ele>
        <time>2019-06-09T07:58:16+02:00</time>
      </trkpt>
      <trkpt lat="41.629884999999994" lon="2.0900749999999997">
        <ele>403.0</ele>
        <time>2019-06-09T07:58:19+02:00</time>
      </trkpt>
      <trkpt lat="41.629934999999996" lon="2.09004834">
        <ele>403.0</ele>
        <time>2019-06-09T07:58:22+02:00</time>
      </trkpt>
      <trkpt lat="41.629985" lon="2.0900083399999994">
        <ele>403.0</ele>
        <time>2019-06-09T07:58:25+02:00</time>
      </trkpt>
      <trkpt lat="41.63004167000001" lon="2.0899683399999995">
        <ele>403.0</ele>
        <time>2019-06-09T07:58:28+02:00</time>
      </trkpt>
      <trkpt lat="41.630100000000006" lon="2.0899349999999997">
        <ele>404.0</ele>
        <time>2019-06-09T07:58:31+02:00</time>
      </trkpt>
      <trkpt lat="41.63016166999999" lon="2.0899083399999996">
        <ele>404.0</ele>
        <time>2019-06-09T07:58:34+02:00</time>
      </trkpt>
      <trkpt lat="41.63021500000001" lon="2.0898886699999997">
        <ele>404.0</ele>
        <time>2019-06-09T07:58:37+02:00</time>
      </trkpt>
      <trkpt lat="41.63027834" lon="2.089868">
        <ele>404.0</ele>
        <time>2019-06-09T07:58:40+02:00</time>
      </trkpt>
      <trkpt lat="41.630336670000005" lon="2.089849">
        <ele>404.0</ele>
        <time>2019-06-09T07:58:43+02:00</time>
      </trkpt>
      <trkpt lat="41.63039834" lon="2.0898273400000003">
        <ele>404.0</ele>
        <time>2019-06-09T07:58:46+02:00</time>
      </trkpt>
      <trkpt lat="41.63044167000001" lon="2.08981234">
        <ele>404.0</ele>
        <time>2019-06-09T07:58:48+02:00</time>
      </trkpt>
      <trkpt lat="41.63050833999999" lon="2.0897916699999994">
        <ele>404.0</ele>
        <time>2019-06-09T07:58:51+02:00</time>
      </trkpt>
      <trkpt lat="41.630555" lon="2.08977667">
        <ele>404.0</ele>
        <time>2019-06-09T07:58:53+02:00</time>
      </trkpt>
      <trkpt lat="41.630604999999996" lon="2.08976467">
        <ele>404.0</ele>
        <time>2019-06-09T07:58:55+02:00</time>
      </trkpt>
      <trkpt lat="41.630651670000006" lon="2.0897526699999998">
        <ele>404.0</ele>
        <time>2019-06-09T07:58:57+02:00</time>
      </trkpt>
      <trkpt lat="41.630696670000006" lon="2.0897396699999997">
        <ele>405.0</ele>
        <time>2019-06-09T07:58:59+02:00</time>
      </trkpt>
      <trkpt lat="41.63075834" lon="2.08972167">
        <ele>405.0</ele>
        <time>2019-06-09T07:59:02+02:00</time>
      </trkpt>
      <trkpt lat="41.63081834" lon="2.0897020000000004">
        <ele>405.0</ele>
        <time>2019-06-09T07:59:05+02:00</time>
      </trkpt>
      <trkpt lat="41.630874999999996" lon="2.08967767">
        <ele>405.0</ele>
        <time>2019-06-09T07:59:08+02:00</time>
      </trkpt>
      <trkpt lat="41.630915" lon="2.0896570000000003">
        <ele>405.0</ele>
        <time>2019-06-09T07:59:10+02:00</time>
      </trkpt>
      <trkpt lat="41.63097667" lon="2.08962834">
        <ele>405.0</ele>
        <time>2019-06-09T07:59:13+02:00</time>
      </trkpt>
      <trkpt lat="41.63102334" lon="2.08960367">
        <ele>405.0</ele>
        <time>2019-06-09T07:59:15+02:00</time>
      </trkpt>
      <trkpt lat="41.63108167" lon="2.0895736700000005">
        <ele>405.0</ele>
        <time>2019-06-09T07:59:18+02:00</time>
      </trkpt>
      <trkpt lat="41.631123339999995" lon="2.08954934">
        <ele>405.0</ele>
        <time>2019-06-09T07:59:20+02:00</time>
      </trkpt>
      <trkpt lat="41.631190000000004" lon="2.0895146700000002">
        <ele>406.0</ele>
        <time>2019-06-09T07:59:23+02:00</time>
      </trkpt>
      <trkpt lat="41.63124834" lon="2.08948467">
        <ele>406.0</ele>
        <time>2019-06-09T07:59:26+02:00</time>
      </trkpt>
      <trkpt lat="41.63131500000001" lon="2.089454">
        <ele>406.0</ele>
        <time>2019-06-09T07:59:29+02:00</time>
      </trkpt>
      <trkpt lat="41.63136000000001" lon="2.08943234">
        <ele>407.0</ele>
        <time>2019-06-09T07:59:31+02:00</time>
      </trkpt>
      <trkpt lat="41.631404999999994" lon="2.08941334">
        <ele>407.0</ele>
        <time>2019-06-09T07:59:33+02:00</time>
      </trkpt>
      <trkpt lat="41.631451670000004" lon="2.08939367">
        <ele>407.0</ele>
        <time>2019-06-09T07:59:35+02:00</time>
      </trkpt>
      <trkpt lat="41.631496670000004" lon="2.0893753399999997">
        <ele>408.0</ele>
        <time>2019-06-09T07:59:37+02:00</time>
      </trkpt>
      <trkpt lat="41.63154333999999" lon="2.089359">
        <ele>408.0</ele>
        <time>2019-06-09T07:59:39+02:00</time>
      </trkpt>
      <trkpt lat="41.63159" lon="2.08934367">
        <ele>408.0</ele>
        <time>2019-06-09T07:59:41+02:00</time>
      </trkpt>
      <trkpt lat="41.63163834" lon="2.0893279999999996">
        <ele>409.0</ele>
        <time>2019-06-09T07:59:43+02:00</time>
      </trkpt>
      <trkpt lat="41.63168667" lon="2.0893900000000003">
        <ele>409.0</ele>
        <time>2019-06-09T07:59:45+02:00</time>
      </trkpt>
      <trkpt lat="41.63173167" lon="2.08941334">
        <ele>409.0</ele>
        <time>2019-06-09T07:59:47+02:00</time>
      </trkpt>
      <trkpt lat="41.631768339999994" lon="2.0894500000000003">
        <ele>409.0</ele>
        <time>2019-06-09T07:59:49+02:00</time>
      </trkpt>
      <trkpt lat="41.631816670000006" lon="2.089508339999999">
        <ele>409.0</ele>
        <time>2019-06-09T07:59:52+02:00</time>
      </trkpt>
      <trkpt lat="41.63184834" lon="2.0895633399999998">
        <ele>410.0</ele>
        <time>2019-06-09T07:59:54+02:00</time>
      </trkpt>
      <trkpt lat="41.631873340000006" lon="2.08962">
        <ele>410.0</ele>
        <time>2019-06-09T07:59:56+02:00</time>
      </trkpt>
      <trkpt lat="41.63189667" lon="2.08967667">
        <ele>411.0</ele>
        <time>2019-06-09T07:59:58+02:00</time>
      </trkpt>
      <trkpt lat="41.63192333999999" lon="2.0897283399999997">
        <ele>411.0</ele>
        <time>2019-06-09T08:00:00+02:00</time>
      </trkpt>
      <trkpt lat="41.631978339999996" lon="2.08982667">
        <ele>412.0</ele>
        <time>2019-06-09T08:00:02+02:00</time>
      </trkpt>
      <trkpt lat="41.63202267" lon="2.0898849999999998">
        <ele>412.0</ele>
        <time>2019-06-09T08:00:05+02:00</time>
      </trkpt>
      <trkpt lat="41.63208667000001" lon="2.08992">
        <ele>413.0</ele>
        <time>2019-06-09T08:00:08+02:00</time>
      </trkpt>
      <trkpt lat="41.63215" lon="2.0899183399999997">
        <ele>413.0</ele>
        <time>2019-06-09T08:00:11+02:00</time>
      </trkpt>
      <trkpt lat="41.63220834" lon="2.0899049999999995">
        <ele>414.0</ele>
        <time>2019-06-09T08:00:14+02:00</time>
      </trkpt>
      <trkpt lat="41.63226167" lon="2.089883339999999">
        <ele>414.0</ele>
        <time>2019-06-09T08:00:17+02:00</time>
      </trkpt>
      <trkpt lat="41.63231" lon="2.08984667">
        <ele>414.0</ele>
        <time>2019-06-09T08:00:20+02:00</time>
      </trkpt>
      <trkpt lat="41.63236" lon="2.08981667">
        <ele>414.0</ele>
        <time>2019-06-09T08:00:23+02:00</time>
      </trkpt>
      <trkpt lat="41.632416670000005" lon="2.0897889999999997">
        <ele>415.0</ele>
        <time>2019-06-09T08:00:26+02:00</time>
      </trkpt>
      <trkpt lat="41.63247499999999" lon="2.08977634">
        <ele>415.0</ele>
        <time>2019-06-09T08:00:29+02:00</time>
      </trkpt>
      <trkpt lat="41.632533339999995" lon="2.0898000000000003">
        <ele>415.0</ele>
        <time>2019-06-09T08:00:32+02:00</time>
      </trkpt>
      <trkpt lat="41.63259167000001" lon="2.08981667">
        <ele>415.0</ele>
        <time>2019-06-09T08:00:35+02:00</time>
      </trkpt>
      <trkpt lat="41.632648339999996" lon="2.0898200000000005">
        <ele>415.0</ele>
        <time>2019-06-09T08:00:38+02:00</time>
      </trkpt>
      <trkpt lat="41.63270667" lon="2.08983434">
        <ele>415.0</ele>
        <time>2019-06-09T08:00:41+02:00</time>
      </trkpt>
      <trkpt lat="41.63276834" lon="2.089839">
        <ele>415.0</ele>
        <time>2019-06-09T08:00:44+02:00</time>
      </trkpt>
      <trkpt lat="41.632831669999995" lon="2.0898486700000003">
        <ele>415.0</ele>
        <time>2019-06-09T08:00:47+02:00</time>
      </trkpt>
      <trkpt lat="41.63289167000001" lon="2.0898586700000004">
        <ele>415.0</ele>
        <time>2019-06-09T08:00:50+02:00</time>
      </trkpt>
      <trkpt lat="41.63293667" lon="2.089862">
        <ele>415.0</ele>
        <time>2019-06-09T08:00:52+02:00</time>
      </trkpt>
      <trkpt lat="41.63299833999999" lon="2.0898783399999994">
        <ele>415.0</ele>
        <time>2019-06-09T08:00:55+02:00</time>
      </trkpt>
      <trkpt lat="41.63303834" lon="2.0898969999999997">
        <ele>415.0</ele>
        <time>2019-06-09T08:00:57+02:00</time>
      </trkpt>
      <trkpt lat="41.63309667" lon="2.08992134">
        <ele>415.0</ele>
        <time>2019-06-09T08:01:00+02:00</time>
      </trkpt>
      <trkpt lat="41.633155" lon="2.08994567">
        <ele>415.0</ele>
        <time>2019-06-09T08:01:03+02:00</time>
      </trkpt>
      <trkpt lat="41.633213340000005" lon="2.0899726700000003">
        <ele>415.0</ele>
        <time>2019-06-09T08:01:06+02:00</time>
      </trkpt>
      <trkpt lat="41.63327667" lon="2.09000067">
        <ele>415.0</ele>
        <time>2019-06-09T08:01:09+02:00</time>
      </trkpt>
      <trkpt lat="41.63332167" lon="2.09002234">
        <ele>415.0</ele>
        <time>2019-06-09T08:01:11+02:00</time>
      </trkpt>
      <trkpt lat="41.63336834" lon="2.090044">
        <ele>414.0</ele>
        <time>2019-06-09T08:01:13+02:00</time>
      </trkpt>
      <trkpt lat="41.633415" lon="2.090068">
        <ele>414.0</ele>
        <time>2019-06-09T08:01:15+02:00</time>
      </trkpt>
      <trkpt lat="41.63346" lon="2.09008867">
        <ele>414.0</ele>
        <time>2019-06-09T08:01:17+02:00</time>
      </trkpt>
      <trkpt lat="41.63350667000001" lon="2.0901099999999997">
        <ele>414.0</ele>
        <time>2019-06-09T08:01:19+02:00</time>
      </trkpt>
      <trkpt lat="41.63354834" lon="2.0901306699999997">
        <ele>414.0</ele>
        <time>2019-06-09T08:01:21+02:00</time>
      </trkpt>
      <trkpt lat="41.633590000000005" lon="2.090154">
        <ele>415.0</ele>
        <time>2019-06-09T08:01:23+02:00</time>
      </trkpt>
      <trkpt lat="41.63363499999999" lon="2.0901773399999994">
        <ele>415.0</ele>
        <time>2019-06-09T08:01:25+02:00</time>
      </trkpt>
      <trkpt lat="41.633678339999996" lon="2.0902083399999998">
        <ele>415.0</ele>
        <time>2019-06-09T08:01:28+02:00</time>
      </trkpt>
      <trkpt lat="41.633723339999996" lon="2.09024467">
        <ele>415.0</ele>
        <time>2019-06-09T08:01:31+02:00</time>
      </trkpt>
      <trkpt lat="41.633768339999996" lon="2.0902830000000003">
        <ele>416.0</ele>
        <time>2019-06-09T08:01:34+02:00</time>
      </trkpt>
      <trkpt lat="41.63381667" lon="2.0903273399999995">
        <ele>416.0</ele>
        <time>2019-06-09T08:01:37+02:00</time>
      </trkpt>
      <trkpt lat="41.633865" lon="2.09037034">
        <ele>416.0</ele>
        <time>2019-06-09T08:01:40+02:00</time>
      </trkpt>
      <trkpt lat="41.63391834" lon="2.09041167">
        <ele>416.0</ele>
        <time>2019-06-09T08:01:43+02:00</time>
      </trkpt>
      <trkpt lat="41.633961670000005" lon="2.0904483399999996">
        <ele>417.0</ele>
        <time>2019-06-09T08:01:45+02:00</time>
      </trkpt>
      <trkpt lat="41.634004999999995" lon="2.0904833399999996">
        <ele>417.0</ele>
        <time>2019-06-09T08:01:47+02:00</time>
      </trkpt>
      <trkpt lat="41.63404833999999" lon="2.09052234">
        <ele>417.0</ele>
        <time>2019-06-09T08:01:49+02:00</time>
      </trkpt>
      <trkpt lat="41.63408667" lon="2.09055967">
        <ele>417.0</ele>
        <time>2019-06-09T08:01:51+02:00</time>
      </trkpt>
      <trkpt lat="41.63411834" lon="2.0905940000000003">
        <ele>418.0</ele>
        <time>2019-06-09T08:01:53+02:00</time>
      </trkpt>
      <trkpt lat="41.63415" lon="2.09063267">
        <ele>418.0</ele>
        <time>2019-06-09T08:01:55+02:00</time>
      </trkpt>
      <trkpt lat="41.63418834" lon="2.0906723400000002">
        <ele>418.0</ele>
        <time>2019-06-09T08:01:57+02:00</time>
      </trkpt>
      <trkpt lat="41.634235000000004" lon="2.0907146700000006">
        <ele>418.0</ele>
        <time>2019-06-09T08:01:59+02:00</time>
      </trkpt>
      <trkpt lat="41.634296670000005" lon="2.09080667">
        <ele>418.0</ele>
        <time>2019-06-09T08:02:02+02:00</time>
      </trkpt>
      <trkpt lat="41.63434" lon="2.09077834">
        <ele>418.0</ele>
        <time>2019-06-09T08:02:04+02:00</time>
      </trkpt>
      <trkpt lat="41.63438167" lon="2.09075">
        <ele>418.0</ele>
        <time>2019-06-09T08:02:06+02:00</time>
      </trkpt>
      <trkpt lat="41.63442334" lon="2.0907150000000003">
        <ele>418.0</ele>
        <time>2019-06-09T08:02:08+02:00</time>
      </trkpt>
      <trkpt lat="41.63445834" lon="2.090675">
        <ele>418.0</ele>
        <time>2019-06-09T08:02:10+02:00</time>
      </trkpt>
      <trkpt lat="41.634499999999996" lon="2.0906516700000006">
        <ele>418.0</ele>
        <time>2019-06-09T08:02:12+02:00</time>
      </trkpt>
      <trkpt lat="41.63454667" lon="2.0906333399999992">
        <ele>418.0</ele>
        <time>2019-06-09T08:02:14+02:00</time>
      </trkpt>
      <trkpt lat="41.63459334" lon="2.0906216699999995">
        <ele>418.0</ele>
        <time>2019-06-09T08:02:16+02:00</time>
      </trkpt>
      <trkpt lat="41.63463834" lon="2.0906143399999997">
        <ele>418.0</ele>
        <time>2019-06-09T08:02:18+02:00</time>
      </trkpt>
      <trkpt lat="41.63468334" lon="2.0906106699999993">
        <ele>419.0</ele>
        <time>2019-06-09T08:02:20+02:00</time>
      </trkpt>
      <trkpt lat="41.63474" lon="2.0906089999999997">
        <ele>420.0</ele>
        <time>2019-06-09T08:02:23+02:00</time>
      </trkpt>
      <trkpt lat="41.63480667" lon="2.09060734">
        <ele>420.0</ele>
        <time>2019-06-09T08:02:26+02:00</time>
      </trkpt>
      <trkpt lat="41.634855" lon="2.09061034">
        <ele>421.0</ele>
        <time>2019-06-09T08:02:28+02:00</time>
      </trkpt>
      <trkpt lat="41.634913340000004" lon="2.0906156700000005">
        <ele>421.0</ele>
        <time>2019-06-09T08:02:31+02:00</time>
      </trkpt>
      <trkpt lat="41.63497" lon="2.090623">
        <ele>422.0</ele>
        <time>2019-06-09T08:02:34+02:00</time>
      </trkpt>
      <trkpt lat="41.635031670000004" lon="2.09062734">
        <ele>423.0</ele>
        <time>2019-06-09T08:02:37+02:00</time>
      </trkpt>
      <trkpt lat="41.635093340000005" lon="2.09063234">
        <ele>424.0</ele>
        <time>2019-06-09T08:02:40+02:00</time>
      </trkpt>
      <trkpt lat="41.63515834" lon="2.090634">
        <ele>424.0</ele>
        <time>2019-06-09T08:02:43+02:00</time>
      </trkpt>
      <trkpt lat="41.635223339999996" lon="2.0906316699999996">
        <ele>425.0</ele>
        <time>2019-06-09T08:02:46+02:00</time>
      </trkpt>
      <trkpt lat="41.635284999999996" lon="2.090631">
        <ele>425.0</ele>
        <time>2019-06-09T08:02:49+02:00</time>
      </trkpt>
      <trkpt lat="41.63534334" lon="2.09062534">
        <ele>426.0</ele>
        <time>2019-06-09T08:02:52+02:00</time>
      </trkpt>
      <trkpt lat="41.635405000000006" lon="2.0906170000000004">
        <ele>426.0</ele>
        <time>2019-06-09T08:02:55+02:00</time>
      </trkpt>
      <trkpt lat="41.635470000000005" lon="2.0906089999999997">
        <ele>427.0</ele>
        <time>2019-06-09T08:02:58+02:00</time>
      </trkpt>
      <trkpt lat="41.635535" lon="2.090598">
        <ele>428.0</ele>
        <time>2019-06-09T08:03:01+02:00</time>
      </trkpt>
      <trkpt lat="41.635598339999994" lon="2.090589">
        <ele>428.0</ele>
        <time>2019-06-09T08:03:04+02:00</time>
      </trkpt>
      <trkpt lat="41.635643339999994" lon="2.09058267">
        <ele>429.0</ele>
        <time>2019-06-09T08:03:06+02:00</time>
      </trkpt>
      <trkpt lat="41.635690000000004" lon="2.0905796700000003">
        <ele>429.0</ele>
        <time>2019-06-09T08:03:08+02:00</time>
      </trkpt>
      <trkpt lat="41.635740000000006" lon="2.090577">
        <ele>430.0</ele>
        <time>2019-06-09T08:03:10+02:00</time>
      </trkpt>
      <trkpt lat="41.635785" lon="2.090578">
        <ele>430.0</ele>
        <time>2019-06-09T08:03:12+02:00</time>
      </trkpt>
      <trkpt lat="41.635845" lon="2.0905816699999997">
        <ele>430.0</ele>
        <time>2019-06-09T08:03:15+02:00</time>
      </trkpt>
      <trkpt lat="41.635913339999995" lon="2.0905863399999998">
        <ele>430.0</ele>
        <time>2019-06-09T08:03:18+02:00</time>
      </trkpt>
      <trkpt lat="41.635974999999995" lon="2.0905923399999997">
        <ele>431.0</ele>
        <time>2019-06-09T08:03:21+02:00</time>
      </trkpt>
      <trkpt lat="41.63603833999999" lon="2.0905943399999996">
        <ele>432.0</ele>
        <time>2019-06-09T08:03:24+02:00</time>
      </trkpt>
      <trkpt lat="41.63608333999999" lon="2.0905983399999997">
        <ele>432.0</ele>
        <time>2019-06-09T08:03:26+02:00</time>
      </trkpt>
      <trkpt lat="41.636134999999996" lon="2.09055167">
        <ele>433.0</ele>
        <time>2019-06-09T08:03:29+02:00</time>
      </trkpt>
      <trkpt lat="41.636188340000004" lon="2.09050167">
        <ele>433.0</ele>
        <time>2019-06-09T08:03:32+02:00</time>
      </trkpt>
      <trkpt lat="41.63624000000001" lon="2.090453">
        <ele>433.0</ele>
        <time>2019-06-09T08:03:35+02:00</time>
      </trkpt>
      <trkpt lat="41.63628334" lon="2.0904063400000004">
        <ele>434.0</ele>
        <time>2019-06-09T08:03:38+02:00</time>
      </trkpt>
      <trkpt lat="41.63632833999999" lon="2.0903590000000003">
        <ele>434.0</ele>
        <time>2019-06-09T08:03:41+02:00</time>
      </trkpt>
      <trkpt lat="41.63638334" lon="2.09030234">
        <ele>434.0</ele>
        <time>2019-06-09T08:03:44+02:00</time>
      </trkpt>
      <trkpt lat="41.636438340000005" lon="2.0902483399999996">
        <ele>435.0</ele>
        <time>2019-06-09T08:03:47+02:00</time>
      </trkpt>
      <trkpt lat="41.63648667" lon="2.090198">
        <ele>435.0</ele>
        <time>2019-06-09T08:03:50+02:00</time>
      </trkpt>
      <trkpt lat="41.63653000000001" lon="2.09014734">
        <ele>436.0</ele>
        <time>2019-06-09T08:03:53+02:00</time>
      </trkpt>
      <trkpt lat="41.63657334" lon="2.09009467">
        <ele>436.0</ele>
        <time>2019-06-09T08:03:56+02:00</time>
      </trkpt>
      <trkpt lat="41.636618340000005" lon="2.09004034">
        <ele>436.0</ele>
        <time>2019-06-09T08:03:59+02:00</time>
      </trkpt>
      <trkpt lat="41.636655000000005" lon="2.0899970000000003">
        <ele>436.0</ele>
        <time>2019-06-09T08:04:01+02:00</time>
      </trkpt>
      <trkpt lat="41.63669" lon="2.08995467">
        <ele>436.0</ele>
        <time>2019-06-09T08:04:03+02:00</time>
      </trkpt>
      <trkpt lat="41.63672667000001" lon="2.0899126700000004">
        <ele>436.0</ele>
        <time>2019-06-09T08:04:05+02:00</time>
      </trkpt>
      <trkpt lat="41.636786670000006" lon="2.089855">
        <ele>437.0</ele>
        <time>2019-06-09T08:04:08+02:00</time>
      </trkpt>
      <trkpt lat="41.63683667" lon="2.0898733399999996">
        <ele>437.0</ele>
        <time>2019-06-09T08:04:10+02:00</time>
      </trkpt>
      <trkpt lat="41.636896670000006" lon="2.089883339999999">
        <ele>437.0</ele>
        <time>2019-06-09T08:04:13+02:00</time>
      </trkpt>
      <trkpt lat="41.636941670000006" lon="2.089895">
        <ele>437.0</ele>
        <time>2019-06-09T08:04:15+02:00</time>
      </trkpt>
      <trkpt lat="41.637001670000004" lon="2.0899049999999995">
        <ele>438.0</ele>
        <time>2019-06-09T08:04:17+02:00</time>
      </trkpt>
      <trkpt lat="41.637063340000005" lon="2.0899106699999996">
        <ele>438.0</ele>
        <time>2019-06-09T08:04:20+02:00</time>
      </trkpt>
      <trkpt lat="41.63712334" lon="2.089918">
        <ele>439.0</ele>
        <time>2019-06-09T08:04:23+02:00</time>
      </trkpt>
      <trkpt lat="41.63716834" lon="2.0899263400000003">
        <ele>439.0</ele>
        <time>2019-06-09T08:04:25+02:00</time>
      </trkpt>
      <trkpt lat="41.637211670000006" lon="2.0899396700000006">
        <ele>439.0</ele>
        <time>2019-06-09T08:04:27+02:00</time>
      </trkpt>
      <trkpt lat="41.637271670000004" lon="2.0899633399999997">
        <ele>439.0</ele>
        <time>2019-06-09T08:04:30+02:00</time>
      </trkpt>
      <trkpt lat="41.637323339999995" lon="2.0899970000000003">
        <ele>440.0</ele>
        <time>2019-06-09T08:04:33+02:00</time>
      </trkpt>
      <trkpt lat="41.63736834" lon="2.0900386699999998">
        <ele>440.0</ele>
        <time>2019-06-09T08:04:36+02:00</time>
      </trkpt>
      <trkpt lat="41.637415" lon="2.09008867">
        <ele>440.0</ele>
        <time>2019-06-09T08:04:39+02:00</time>
      </trkpt>
      <trkpt lat="41.63743834" lon="2.0901279999999995">
        <ele>440.0</ele>
        <time>2019-06-09T08:04:41+02:00</time>
      </trkpt>
      <trkpt lat="41.63746167000001" lon="2.0902833399999996">
        <ele>440.0</ele>
        <time>2019-06-09T08:04:44+02:00</time>
      </trkpt>
      <trkpt lat="41.63747" lon="2.09036834">
        <ele>441.0</ele>
        <time>2019-06-09T08:04:47+02:00</time>
      </trkpt>
      <trkpt lat="41.63746167000001" lon="2.09043">
        <ele>441.0</ele>
        <time>2019-06-09T08:04:49+02:00</time>
      </trkpt>
      <trkpt lat="41.637455" lon="2.0904900000000004">
        <ele>441.0</ele>
        <time>2019-06-09T08:04:51+02:00</time>
      </trkpt>
      <trkpt lat="41.63745333999999" lon="2.0905783399999995">
        <ele>441.0</ele>
        <time>2019-06-09T08:04:54+02:00</time>
      </trkpt>
      <trkpt lat="41.637468" lon="2.09066334">
        <ele>441.0</ele>
        <time>2019-06-09T08:04:57+02:00</time>
      </trkpt>
      <trkpt lat="41.637496670000004" lon="2.09071834">
        <ele>441.0</ele>
        <time>2019-06-09T08:04:59+02:00</time>
      </trkpt>
      <trkpt lat="41.637548339999995" lon="2.090765">
        <ele>441.0</ele>
        <time>2019-06-09T08:05:02+02:00</time>
      </trkpt>
      <trkpt lat="41.637606670000004" lon="2.09075334">
        <ele>441.0</ele>
        <time>2019-06-09T08:05:05+02:00</time>
      </trkpt>
      <trkpt lat="41.637665" lon="2.0907216699999998">
        <ele>441.0</ele>
        <time>2019-06-09T08:05:08+02:00</time>
      </trkpt>
      <trkpt lat="41.637718340000006" lon="2.09068667">
        <ele>441.0</ele>
        <time>2019-06-09T08:05:11+02:00</time>
      </trkpt>
      <trkpt lat="41.63777334" lon="2.09068167">
        <ele>441.0</ele>
        <time>2019-06-09T08:05:14+02:00</time>
      </trkpt>
      <trkpt lat="41.63782667" lon="2.09068734">
        <ele>441.0</ele>
        <time>2019-06-09T08:05:17+02:00</time>
      </trkpt>
      <trkpt lat="41.637881670000006" lon="2.0907033399999997">
        <ele>441.0</ele>
        <time>2019-06-09T08:05:20+02:00</time>
      </trkpt>
      <trkpt lat="41.63794334000001" lon="2.09072234">
        <ele>441.0</ele>
        <time>2019-06-09T08:05:23+02:00</time>
      </trkpt>
      <trkpt lat="41.638" lon="2.0907349999999996">
        <ele>441.0</ele>
        <time>2019-06-09T08:05:26+02:00</time>
      </trkpt>
      <trkpt lat="41.63805334" lon="2.0907443399999996">
        <ele>440.0</ele>
        <time>2019-06-09T08:05:29+02:00</time>
      </trkpt>
      <trkpt lat="41.63810334" lon="2.090748">
        <ele>440.0</ele>
        <time>2019-06-09T08:05:32+02:00</time>
      </trkpt>
      <trkpt lat="41.63816" lon="2.0907453400000002">
        <ele>440.0</ele>
        <time>2019-06-09T08:05:35+02:00</time>
      </trkpt>
      <trkpt lat="41.63821334000001" lon="2.09073767">
        <ele>440.0</ele>
        <time>2019-06-09T08:05:38+02:00</time>
      </trkpt>
      <trkpt lat="41.63826667" lon="2.0907263400000002">
        <ele>440.0</ele>
        <time>2019-06-09T08:05:41+02:00</time>
      </trkpt>
      <trkpt lat="41.63831334" lon="2.09071267">
        <ele>440.0</ele>
        <time>2019-06-09T08:05:44+02:00</time>
      </trkpt>
      <trkpt lat="41.638361669999995" lon="2.090699">
        <ele>440.0</ele>
        <time>2019-06-09T08:05:47+02:00</time>
      </trkpt>
      <trkpt lat="41.63841334" lon="2.0906826699999996">
        <ele>440.0</ele>
        <time>2019-06-09T08:05:50+02:00</time>
      </trkpt>
      <trkpt lat="41.638468339999996" lon="2.0906676699999998">
        <ele>439.0</ele>
        <time>2019-06-09T08:05:53+02:00</time>
      </trkpt>
      <trkpt lat="41.63852000000001" lon="2.0906516700000006">
        <ele>439.0</ele>
        <time>2019-06-09T08:05:56+02:00</time>
      </trkpt>
      <trkpt lat="41.638580000000005" lon="2.09064067">
        <ele>439.0</ele>
        <time>2019-06-09T08:05:59+02:00</time>
      </trkpt>
      <trkpt lat="41.63863667" lon="2.0906296699999998">
        <ele>439.0</ele>
        <time>2019-06-09T08:06:02+02:00</time>
      </trkpt>
      <trkpt lat="41.638693339999996" lon="2.0906233399999996">
        <ele>439.0</ele>
        <time>2019-06-09T08:06:05+02:00</time>
      </trkpt>
      <trkpt lat="41.638743340000005" lon="2.0906466699999995">
        <ele>439.0</ele>
        <time>2019-06-09T08:06:08+02:00</time>
      </trkpt>
      <trkpt lat="41.63879333999999" lon="2.090645">
        <ele>439.0</ele>
        <time>2019-06-09T08:06:11+02:00</time>
      </trkpt>
      <trkpt lat="41.63883834" lon="2.09064367">
        <ele>439.0</ele>
        <time>2019-06-09T08:06:14+02:00</time>
      </trkpt>
      <trkpt lat="41.63889" lon="2.090614">
        <ele>439.0</ele>
        <time>2019-06-09T08:06:17+02:00</time>
      </trkpt>
      <trkpt lat="41.63892834" lon="2.0905549999999997">
        <ele>438.0</ele>
        <time>2019-06-09T08:06:20+02:00</time>
      </trkpt>
      <trkpt lat="41.63895834" lon="2.0904933399999996">
        <ele>438.0</ele>
        <time>2019-06-09T08:06:23+02:00</time>
      </trkpt>
      <trkpt lat="41.638983339999996" lon="2.09043">
        <ele>438.0</ele>
        <time>2019-06-09T08:06:26+02:00</time>
      </trkpt>
      <trkpt lat="41.639013340000005" lon="2.09038">
        <ele>438.0</ele>
        <time>2019-06-09T08:06:28+02:00</time>
      </trkpt>
      <trkpt lat="41.63904700000001" lon="2.0903466699999997">
        <ele>437.0</ele>
        <time>2019-06-09T08:06:30+02:00</time>
      </trkpt>
      <trkpt lat="41.639095" lon="2.0903283399999997">
        <ele>437.0</ele>
        <time>2019-06-09T08:06:32+02:00</time>
      </trkpt>
      <trkpt lat="41.63913834" lon="2.09031167">
        <ele>437.0</ele>
        <time>2019-06-09T08:06:34+02:00</time>
      </trkpt>
      <trkpt lat="41.63919833999999" lon="2.09029667">
        <ele>436.0</ele>
        <time>2019-06-09T08:06:37+02:00</time>
      </trkpt>
      <trkpt lat="41.63925999999999" lon="2.0902716699999995">
        <ele>436.0</ele>
        <time>2019-06-09T08:06:40+02:00</time>
      </trkpt>
      <trkpt lat="41.63931667000001" lon="2.09024567">
        <ele>436.0</ele>
        <time>2019-06-09T08:06:43+02:00</time>
      </trkpt>
      <trkpt lat="41.63936167" lon="2.09023067">
        <ele>436.0</ele>
        <time>2019-06-09T08:06:45+02:00</time>
      </trkpt>
      <trkpt lat="41.639425" lon="2.09021067">
        <ele>436.0</ele>
        <time>2019-06-09T08:06:48+02:00</time>
      </trkpt>
      <trkpt lat="41.63947667000001" lon="2.09018734">
        <ele>437.0</ele>
        <time>2019-06-09T08:06:51+02:00</time>
      </trkpt>
      <trkpt lat="41.63952667" lon="2.09015434">
        <ele>437.0</ele>
        <time>2019-06-09T08:06:54+02:00</time>
      </trkpt>
      <trkpt lat="41.639574999999994" lon="2.0901140000000002">
        <ele>437.0</ele>
        <time>2019-06-09T08:06:57+02:00</time>
      </trkpt>
      <trkpt lat="41.63962167000001" lon="2.0900703399999996">
        <ele>437.0</ele>
        <time>2019-06-09T08:07:00+02:00</time>
      </trkpt>
      <trkpt lat="41.63965999999999" lon="2.09002567">
        <ele>438.0</ele>
        <time>2019-06-09T08:07:03+02:00</time>
      </trkpt>
      <trkpt lat="41.639709999999994" lon="2.08997367">
        <ele>438.0</ele>
        <time>2019-06-09T08:07:06+02:00</time>
      </trkpt>
      <trkpt lat="41.639765" lon="2.089918">
        <ele>438.0</ele>
        <time>2019-06-09T08:07:09+02:00</time>
      </trkpt>
      <trkpt lat="41.639804999999996" lon="2.0898783399999994">
        <ele>438.0</ele>
        <time>2019-06-09T08:07:11+02:00</time>
      </trkpt>
      <trkpt lat="41.63984834" lon="2.08984134">
        <ele>438.0</ele>
        <time>2019-06-09T08:07:13+02:00</time>
      </trkpt>
      <trkpt lat="41.63989334" lon="2.08982667">
        <ele>438.0</ele>
        <time>2019-06-09T08:07:15+02:00</time>
      </trkpt>
      <trkpt lat="41.639956670000004" lon="2.089825">
        <ele>438.0</ele>
        <time>2019-06-09T08:07:18+02:00</time>
      </trkpt>
      <trkpt lat="41.640025" lon="2.0898329999999996">
        <ele>438.0</ele>
        <time>2019-06-09T08:07:21+02:00</time>
      </trkpt>
      <trkpt lat="41.640069999999994" lon="2.0898333399999993">
        <ele>438.0</ele>
        <time>2019-06-09T08:07:23+02:00</time>
      </trkpt>
      <trkpt lat="41.64011667000001" lon="2.0898329999999996">
        <ele>438.0</ele>
        <time>2019-06-09T08:07:25+02:00</time>
      </trkpt>
      <trkpt lat="41.64016167" lon="2.08983">
        <ele>438.0</ele>
        <time>2019-06-09T08:07:27+02:00</time>
      </trkpt>
      <trkpt lat="41.640226670000004" lon="2.08982634">
        <ele>438.0</ele>
        <time>2019-06-09T08:07:30+02:00</time>
      </trkpt>
      <trkpt lat="41.640271670000004" lon="2.0898220000000003">
        <ele>438.0</ele>
        <time>2019-06-09T08:07:32+02:00</time>
      </trkpt>
      <trkpt lat="41.640331669999995" lon="2.089817">
        <ele>438.0</ele>
        <time>2019-06-09T08:07:35+02:00</time>
      </trkpt>
      <trkpt lat="41.64039667" lon="2.0898163399999996">
        <ele>438.0</ele>
        <time>2019-06-09T08:07:38+02:00</time>
      </trkpt>
      <trkpt lat="41.64044167000001" lon="2.0898186699999997">
        <ele>438.0</ele>
        <time>2019-06-09T08:07:40+02:00</time>
      </trkpt>
      <trkpt lat="41.64049167" lon="2.0898233399999997">
        <ele>438.0</ele>
        <time>2019-06-09T08:07:42+02:00</time>
      </trkpt>
      <trkpt lat="41.64055667000001" lon="2.08983">
        <ele>438.0</ele>
        <time>2019-06-09T08:07:45+02:00</time>
      </trkpt>
      <trkpt lat="41.64059999999999" lon="2.08984067">
        <ele>438.0</ele>
        <time>2019-06-09T08:07:47+02:00</time>
      </trkpt>
      <trkpt lat="41.64066" lon="2.0898540000000003">
        <ele>438.0</ele>
        <time>2019-06-09T08:07:50+02:00</time>
      </trkpt>
      <trkpt lat="41.640723339999994" lon="2.089868">
        <ele>438.0</ele>
        <time>2019-06-09T08:07:53+02:00</time>
      </trkpt>
      <trkpt lat="41.64077" lon="2.0898820000000002">
        <ele>438.0</ele>
        <time>2019-06-09T08:07:55+02:00</time>
      </trkpt>
      <trkpt lat="41.640815" lon="2.08989367">
        <ele>438.0</ele>
        <time>2019-06-09T08:07:57+02:00</time>
      </trkpt>
      <trkpt lat="41.640879999999996" lon="2.08991034">
        <ele>438.0</ele>
        <time>2019-06-09T08:08:00+02:00</time>
      </trkpt>
      <trkpt lat="41.640935" lon="2.0899279999999996">
        <ele>438.0</ele>
        <time>2019-06-09T08:08:03+02:00</time>
      </trkpt>
      <trkpt lat="41.64097833999999" lon="2.089947">
        <ele>438.0</ele>
        <time>2019-06-09T08:08:05+02:00</time>
      </trkpt>
      <trkpt lat="41.64102167" lon="2.08996534">
        <ele>438.0</ele>
        <time>2019-06-09T08:08:07+02:00</time>
      </trkpt>
      <trkpt lat="41.64107833999999" lon="2.089987">
        <ele>437.0</ele>
        <time>2019-06-09T08:08:10+02:00</time>
      </trkpt>
      <trkpt lat="41.64112167000001" lon="2.0900073400000005">
        <ele>437.0</ele>
        <time>2019-06-09T08:08:12+02:00</time>
      </trkpt>
      <trkpt lat="41.64118334000001" lon="2.0900299999999996">
        <ele>437.0</ele>
        <time>2019-06-09T08:08:15+02:00</time>
      </trkpt>
      <trkpt lat="41.64124667000001" lon="2.09005034">
        <ele>436.0</ele>
        <time>2019-06-09T08:08:18+02:00</time>
      </trkpt>
      <trkpt lat="41.641305" lon="2.09007334">
        <ele>436.0</ele>
        <time>2019-06-09T08:08:21+02:00</time>
      </trkpt>
      <trkpt lat="41.64135" lon="2.0900613399999997">
        <ele>436.0</ele>
        <time>2019-06-09T08:08:23+02:00</time>
      </trkpt>
      <trkpt lat="41.641414999999995" lon="2.09006734">
        <ele>435.0</ele>
        <time>2019-06-09T08:08:26+02:00</time>
      </trkpt>
      <trkpt lat="41.64147833999999" lon="2.0900833399999996">
        <ele>435.0</ele>
        <time>2019-06-09T08:08:29+02:00</time>
      </trkpt>
      <trkpt lat="41.641540000000006" lon="2.0901083399999996">
        <ele>434.0</ele>
        <time>2019-06-09T08:08:32+02:00</time>
      </trkpt>
      <trkpt lat="41.64160167" lon="2.09013834">
        <ele>434.0</ele>
        <time>2019-06-09T08:08:34+02:00</time>
      </trkpt>
      <trkpt lat="41.641639999999995" lon="2.09016367">
        <ele>434.0</ele>
        <time>2019-06-09T08:08:36+02:00</time>
      </trkpt>
      <trkpt lat="41.641676669999995" lon="2.0901936699999997">
        <ele>433.0</ele>
        <time>2019-06-09T08:08:38+02:00</time>
      </trkpt>
      <trkpt lat="41.64171334000001" lon="2.09022634">
        <ele>433.0</ele>
        <time>2019-06-09T08:08:40+02:00</time>
      </trkpt>
      <trkpt lat="41.64174167" lon="2.0903133399999994">
        <ele>433.0</ele>
        <time>2019-06-09T08:08:42+02:00</time>
      </trkpt>
      <trkpt lat="41.64176667" lon="2.0903699999999996">
        <ele>433.0</ele>
        <time>2019-06-09T08:08:44+02:00</time>
      </trkpt>
      <trkpt lat="41.64178167" lon="2.0904350000000003">
        <ele>433.0</ele>
        <time>2019-06-09T08:08:46+02:00</time>
      </trkpt>
      <trkpt lat="41.6418" lon="2.0904966699999994">
        <ele>433.0</ele>
        <time>2019-06-09T08:08:48+02:00</time>
      </trkpt>
      <trkpt lat="41.641808340000004" lon="2.0905583399999994">
        <ele>433.0</ele>
        <time>2019-06-09T08:08:50+02:00</time>
      </trkpt>
      <trkpt lat="41.64181500000001" lon="2.09061834">
        <ele>432.0</ele>
        <time>2019-06-09T08:08:52+02:00</time>
      </trkpt>
      <trkpt lat="41.64183167" lon="2.09069834">
        <ele>432.0</ele>
        <time>2019-06-09T08:08:55+02:00</time>
      </trkpt>
      <trkpt lat="41.64185299999999" lon="2.09075">
        <ele>432.0</ele>
        <time>2019-06-09T08:08:57+02:00</time>
      </trkpt>
      <trkpt lat="41.64190834" lon="2.090785">
        <ele>431.0</ele>
        <time>2019-06-09T08:09:00+02:00</time>
      </trkpt>
      <trkpt lat="41.64196667000001" lon="2.090775">
        <ele>430.0</ele>
        <time>2019-06-09T08:09:03+02:00</time>
      </trkpt>
      <trkpt lat="41.642021670000005" lon="2.0907216699999998">
        <ele>430.0</ele>
        <time>2019-06-09T08:09:06+02:00</time>
      </trkpt>
      <trkpt lat="41.64205667" lon="2.0906783399999993">
        <ele>429.0</ele>
        <time>2019-06-09T08:09:08+02:00</time>
      </trkpt>
      <trkpt lat="41.642095" lon="2.09063834">
        <ele>429.0</ele>
        <time>2019-06-09T08:09:10+02:00</time>
      </trkpt>
      <trkpt lat="41.64213667" lon="2.0906016700000003">
        <ele>428.0</ele>
        <time>2019-06-09T08:09:12+02:00</time>
      </trkpt>
      <trkpt lat="41.642179999999996" lon="2.0905700000000005">
        <ele>428.0</ele>
        <time>2019-06-09T08:09:14+02:00</time>
      </trkpt>
      <trkpt lat="41.64222667" lon="2.09054634">
        <ele>427.0</ele>
        <time>2019-06-09T08:09:16+02:00</time>
      </trkpt>
      <trkpt lat="41.642275" lon="2.09053367">
        <ele>427.0</ele>
        <time>2019-06-09T08:09:18+02:00</time>
      </trkpt>
      <trkpt lat="41.64232334" lon="2.09055">
        <ele>426.0</ele>
        <time>2019-06-09T08:09:20+02:00</time>
      </trkpt>
      <trkpt lat="41.642375" lon="2.090575">
        <ele>426.0</ele>
        <time>2019-06-09T08:09:22+02:00</time>
      </trkpt>
      <trkpt lat="41.64243667000001" lon="2.090625">
        <ele>425.0</ele>
        <time>2019-06-09T08:09:25+02:00</time>
      </trkpt>
      <trkpt lat="41.64247" lon="2.09067334">
        <ele>424.0</ele>
        <time>2019-06-09T08:09:27+02:00</time>
      </trkpt>
      <trkpt lat="41.642511670000005" lon="2.09074334">
        <ele>423.0</ele>
        <time>2019-06-09T08:09:30+02:00</time>
      </trkpt>
      <trkpt lat="41.642534999999995" lon="2.0908">
        <ele>423.0</ele>
        <time>2019-06-09T08:09:32+02:00</time>
      </trkpt>
      <trkpt lat="41.64254834" lon="2.0908666699999996">
        <ele>423.0</ele>
        <time>2019-06-09T08:09:34+02:00</time>
      </trkpt>
      <trkpt lat="41.64254667" lon="2.09095167">
        <ele>422.0</ele>
        <time>2019-06-09T08:09:37+02:00</time>
      </trkpt>
      <trkpt lat="41.64254333999999" lon="2.0910333399999996">
        <ele>422.0</ele>
        <time>2019-06-09T08:09:40+02:00</time>
      </trkpt>
      <trkpt lat="41.642545" lon="2.09111834">
        <ele>421.0</ele>
        <time>2019-06-09T08:09:43+02:00</time>
      </trkpt>
      <trkpt lat="41.642569" lon="2.0911883399999995">
        <ele>420.0</ele>
        <time>2019-06-09T08:09:46+02:00</time>
      </trkpt>
      <trkpt lat="41.64263334" lon="2.091205">
        <ele>419.0</ele>
        <time>2019-06-09T08:09:49+02:00</time>
      </trkpt>
      <trkpt lat="41.642695" lon="2.09120167">
        <ele>418.0</ele>
        <time>2019-06-09T08:09:52+02:00</time>
      </trkpt>
      <trkpt lat="41.642755" lon="2.0911999999999997">
        <ele>417.0</ele>
        <time>2019-06-09T08:09:55+02:00</time>
      </trkpt>
      <trkpt lat="41.64281834" lon="2.09122467">
        <ele>416.0</ele>
        <time>2019-06-09T08:09:58+02:00</time>
      </trkpt>
      <trkpt lat="41.64285667" lon="2.091252">
        <ele>416.0</ele>
        <time>2019-06-09T08:10:00+02:00</time>
      </trkpt>
      <trkpt lat="41.642893339999986" lon="2.09128634">
        <ele>416.0</ele>
        <time>2019-06-09T08:10:02+02:00</time>
      </trkpt>
      <trkpt lat="41.64294167000001" lon="2.091341">
        <ele>415.0</ele>
        <time>2019-06-09T08:10:05+02:00</time>
      </trkpt>
      <trkpt lat="41.64297499999999" lon="2.0914349999999997">
        <ele>415.0</ele>
        <time>2019-06-09T08:10:08+02:00</time>
      </trkpt>
      <trkpt lat="41.64299834" lon="2.09150667">
        <ele>413.0</ele>
        <time>2019-06-09T08:10:11+02:00</time>
      </trkpt>
      <trkpt lat="41.643015" lon="2.09158834">
        <ele>412.0</ele>
        <time>2019-06-09T08:10:14+02:00</time>
      </trkpt>
      <trkpt lat="41.643021669999996" lon="2.091675">
        <ele>412.0</ele>
        <time>2019-06-09T08:10:17+02:00</time>
      </trkpt>
      <trkpt lat="41.64302834" lon="2.0917566699999997">
        <ele>412.0</ele>
        <time>2019-06-09T08:10:20+02:00</time>
      </trkpt>
      <trkpt lat="41.64303434" lon="2.09183334">
        <ele>411.0</ele>
        <time>2019-06-09T08:10:23+02:00</time>
      </trkpt>
      <trkpt lat="41.643044339999996" lon="2.09191167">
        <ele>410.0</ele>
        <time>2019-06-09T08:10:26+02:00</time>
      </trkpt>
      <trkpt lat="41.64309" lon="2.0919700000000003">
        <ele>409.0</ele>
        <time>2019-06-09T08:10:29+02:00</time>
      </trkpt>
      <trkpt lat="41.643136670000004" lon="2.09201667">
        <ele>408.0</ele>
        <time>2019-06-09T08:10:32+02:00</time>
      </trkpt>
      <trkpt lat="41.643184999999995" lon="2.0920716699999997">
        <ele>407.0</ele>
        <time>2019-06-09T08:10:35+02:00</time>
      </trkpt>
      <trkpt lat="41.643227339999996" lon="2.09214167">
        <ele>407.0</ele>
        <time>2019-06-09T08:10:38+02:00</time>
      </trkpt>
      <trkpt lat="41.643263" lon="2.0922116699999997">
        <ele>407.0</ele>
        <time>2019-06-09T08:10:41+02:00</time>
      </trkpt>
      <trkpt lat="41.643296" lon="2.09228834">
        <ele>406.0</ele>
        <time>2019-06-09T08:10:44+02:00</time>
      </trkpt>
      <trkpt lat="41.643321" lon="2.0923683399999997">
        <ele>405.0</ele>
        <time>2019-06-09T08:10:47+02:00</time>
      </trkpt>
      <trkpt lat="41.64333800000001" lon="2.09245">
        <ele>404.0</ele>
        <time>2019-06-09T08:10:50+02:00</time>
      </trkpt>
      <trkpt lat="41.64329167000001" lon="2.0925233399999996">
        <ele>404.0</ele>
        <time>2019-06-09T08:10:53+02:00</time>
      </trkpt>
      <trkpt lat="41.64325667" lon="2.0925900000000004">
        <ele>403.0</ele>
        <time>2019-06-09T08:10:56+02:00</time>
      </trkpt>
      <trkpt lat="41.643226670000004" lon="2.09265334">
        <ele>402.0</ele>
        <time>2019-06-09T08:10:59+02:00</time>
      </trkpt>
      <trkpt lat="41.643209999999996" lon="2.0927266700000002">
        <ele>401.0</ele>
        <time>2019-06-09T08:11:02+02:00</time>
      </trkpt>
      <trkpt lat="41.64321867" lon="2.0928016699999996">
        <ele>400.0</ele>
        <time>2019-06-09T08:11:05+02:00</time>
      </trkpt>
      <trkpt lat="41.64325999999999" lon="2.0928466699999997">
        <ele>399.0</ele>
        <time>2019-06-09T08:11:08+02:00</time>
      </trkpt>
      <trkpt lat="41.64331833999999" lon="2.0928733399999997">
        <ele>399.0</ele>
        <time>2019-06-09T08:11:11+02:00</time>
      </trkpt>
      <trkpt lat="41.643375" lon="2.0929049999999996">
        <ele>399.0</ele>
        <time>2019-06-09T08:11:14+02:00</time>
      </trkpt>
      <trkpt lat="41.64342667" lon="2.09294667">
        <ele>398.0</ele>
        <time>2019-06-09T08:11:17+02:00</time>
      </trkpt>
      <trkpt lat="41.64346167000001" lon="2.0930029999999995">
        <ele>397.0</ele>
        <time>2019-06-09T08:11:20+02:00</time>
      </trkpt>
      <trkpt lat="41.64348833999999" lon="2.0930950000000004">
        <ele>396.0</ele>
        <time>2019-06-09T08:11:23+02:00</time>
      </trkpt>
      <trkpt lat="41.643496670000005" lon="2.093155">
        <ele>396.0</ele>
        <time>2019-06-09T08:11:25+02:00</time>
      </trkpt>
      <trkpt lat="41.64351" lon="2.09323167">
        <ele>395.0</ele>
        <time>2019-06-09T08:11:28+02:00</time>
      </trkpt>
      <trkpt lat="41.64352334" lon="2.09329">
        <ele>394.0</ele>
        <time>2019-06-09T08:11:30+02:00</time>
      </trkpt>
      <trkpt lat="41.643528339999996" lon="2.09337334">
        <ele>393.0</ele>
        <time>2019-06-09T08:11:33+02:00</time>
      </trkpt>
      <trkpt lat="41.64353167" lon="2.0934583399999998">
        <ele>393.0</ele>
        <time>2019-06-09T08:11:36+02:00</time>
      </trkpt>
      <trkpt lat="41.643537339999995" lon="2.09353834">
        <ele>393.0</ele>
        <time>2019-06-09T08:11:39+02:00</time>
      </trkpt>
      <trkpt lat="41.64354" lon="2.09362">
        <ele>392.0</ele>
        <time>2019-06-09T08:11:42+02:00</time>
      </trkpt>
      <trkpt lat="41.643550000000005" lon="2.09369">
        <ele>391.0</ele>
        <time>2019-06-09T08:11:45+02:00</time>
      </trkpt>
      <trkpt lat="41.643593339999995" lon="2.0937449999999997">
        <ele>390.0</ele>
        <time>2019-06-09T08:11:48+02:00</time>
      </trkpt>
      <trkpt lat="41.64364334" lon="2.0937599999999996">
        <ele>390.0</ele>
        <time>2019-06-09T08:11:51+02:00</time>
      </trkpt>
      <trkpt lat="41.643694999999994" lon="2.0937466699999994">
        <ele>389.0</ele>
        <time>2019-06-09T08:11:54+02:00</time>
      </trkpt>
      <trkpt lat="41.64375667" lon="2.0937366699999997">
        <ele>389.0</ele>
        <time>2019-06-09T08:11:57+02:00</time>
      </trkpt>
      <trkpt lat="41.643818339999996" lon="2.0937446700000004">
        <ele>389.0</ele>
        <time>2019-06-09T08:12:00+02:00</time>
      </trkpt>
      <trkpt lat="41.643874999999994" lon="2.09376534">
        <ele>388.0</ele>
        <time>2019-06-09T08:12:03+02:00</time>
      </trkpt>
      <trkpt lat="41.64392667" lon="2.093802">
        <ele>387.0</ele>
        <time>2019-06-09T08:12:06+02:00</time>
      </trkpt>
      <trkpt lat="41.64396167000001" lon="2.09387667">
        <ele>386.0</ele>
        <time>2019-06-09T08:12:09+02:00</time>
      </trkpt>
      <trkpt lat="41.64400334" lon="2.09393834">
        <ele>386.0</ele>
        <time>2019-06-09T08:12:12+02:00</time>
      </trkpt>
      <trkpt lat="41.644034999999995" lon="2.094015">
        <ele>385.0</ele>
        <time>2019-06-09T08:12:15+02:00</time>
      </trkpt>
      <trkpt lat="41.64406334" lon="2.09408667">
        <ele>384.0</ele>
        <time>2019-06-09T08:12:18+02:00</time>
      </trkpt>
      <trkpt lat="41.644092" lon="2.09416">
        <ele>383.0</ele>
        <time>2019-06-09T08:12:21+02:00</time>
      </trkpt>
      <trkpt lat="41.644114" lon="2.09423">
        <ele>383.0</ele>
        <time>2019-06-09T08:12:24+02:00</time>
      </trkpt>
      <trkpt lat="41.64414" lon="2.09431167">
        <ele>382.0</ele>
        <time>2019-06-09T08:12:27+02:00</time>
      </trkpt>
      <trkpt lat="41.644155669999996" lon="2.09437">
        <ele>382.0</ele>
        <time>2019-06-09T08:12:29+02:00</time>
      </trkpt>
      <trkpt lat="41.64415999999999" lon="2.0944499999999997">
        <ele>381.0</ele>
        <time>2019-06-09T08:12:32+02:00</time>
      </trkpt>
      <trkpt lat="41.644181339999996" lon="2.09452167">
        <ele>381.0</ele>
        <time>2019-06-09T08:12:35+02:00</time>
      </trkpt>
      <trkpt lat="41.644180670000004" lon="2.0946016700000003">
        <ele>380.0</ele>
        <time>2019-06-09T08:12:38+02:00</time>
      </trkpt>
      <trkpt lat="41.644171670000006" lon="2.09468167">
        <ele>379.0</ele>
        <time>2019-06-09T08:12:41+02:00</time>
      </trkpt>
      <trkpt lat="41.64416767000001" lon="2.0947583399999994">
        <ele>379.0</ele>
        <time>2019-06-09T08:12:44+02:00</time>
      </trkpt>
      <trkpt lat="41.64417234" lon="2.09484">
        <ele>378.0</ele>
        <time>2019-06-09T08:12:47+02:00</time>
      </trkpt>
      <trkpt lat="41.644190339999994" lon="2.09491834">
        <ele>378.0</ele>
        <time>2019-06-09T08:12:49+02:00</time>
      </trkpt>
      <trkpt lat="41.64424334" lon="2.09498667">
        <ele>377.0</ele>
        <time>2019-06-09T08:12:52+02:00</time>
      </trkpt>
      <trkpt lat="41.64427667000001" lon="2.0950516699999997">
        <ele>376.0</ele>
        <time>2019-06-09T08:12:55+02:00</time>
      </trkpt>
      <trkpt lat="41.644307" lon="2.09512">
        <ele>376.0</ele>
        <time>2019-06-09T08:12:58+02:00</time>
      </trkpt>
      <trkpt lat="41.644330000000004" lon="2.0951750000000002">
        <ele>376.0</ele>
        <time>2019-06-09T08:13:00+02:00</time>
      </trkpt>
      <trkpt lat="41.644364339999996" lon="2.0952349999999997">
        <ele>376.0</ele>
        <time>2019-06-09T08:13:03+02:00</time>
      </trkpt>
      <trkpt lat="41.644420000000004" lon="2.0952333399999996">
        <ele>376.0</ele>
        <time>2019-06-09T08:13:06+02:00</time>
      </trkpt>
      <trkpt lat="41.64447" lon="2.095185">
        <ele>376.0</ele>
        <time>2019-06-09T08:13:09+02:00</time>
      </trkpt>
      <trkpt lat="41.64451667" lon="2.0951216699999997">
        <ele>376.0</ele>
        <time>2019-06-09T08:13:12+02:00</time>
      </trkpt>
      <trkpt lat="41.644549999999995" lon="2.09507">
        <ele>375.0</ele>
        <time>2019-06-09T08:13:14+02:00</time>
      </trkpt>
      <trkpt lat="41.644576670000006" lon="2.0950183399999998">
        <ele>375.0</ele>
        <time>2019-06-09T08:13:16+02:00</time>
      </trkpt>
      <trkpt lat="41.64460834" lon="2.09496967">
        <ele>375.0</ele>
        <time>2019-06-09T08:13:18+02:00</time>
      </trkpt>
      <trkpt lat="41.644645000000004" lon="2.09492767">
        <ele>375.0</ele>
        <time>2019-06-09T08:13:20+02:00</time>
      </trkpt>
      <trkpt lat="41.64468834" lon="2.0948813399999997">
        <ele>374.0</ele>
        <time>2019-06-09T08:13:22+02:00</time>
      </trkpt>
      <trkpt lat="41.644735000000004" lon="2.09483867">
        <ele>374.0</ele>
        <time>2019-06-09T08:13:24+02:00</time>
      </trkpt>
      <trkpt lat="41.64478167" lon="2.09480167">
        <ele>373.0</ele>
        <time>2019-06-09T08:13:26+02:00</time>
      </trkpt>
      <trkpt lat="41.64483334" lon="2.09476334">
        <ele>373.0</ele>
        <time>2019-06-09T08:13:28+02:00</time>
      </trkpt>
      <trkpt lat="41.644870000000004" lon="2.094734">
        <ele>373.0</ele>
        <time>2019-06-09T08:13:30+02:00</time>
      </trkpt>
      <trkpt lat="41.64489999999999" lon="2.0947020000000003">
        <ele>372.0</ele>
        <time>2019-06-09T08:13:32+02:00</time>
      </trkpt>
      <trkpt lat="41.64494499999999" lon="2.09465067">
        <ele>372.0</ele>
        <time>2019-06-09T08:13:35+02:00</time>
      </trkpt>
      <trkpt lat="41.64498167" lon="2.0945716699999997">
        <ele>371.0</ele>
        <time>2019-06-09T08:13:38+02:00</time>
      </trkpt>
      <trkpt lat="41.64503167000001" lon="2.09452834">
        <ele>370.0</ele>
        <time>2019-06-09T08:13:41+02:00</time>
      </trkpt>
      <trkpt lat="41.645076669999995" lon="2.0945333399999995">
        <ele>370.0</ele>
        <time>2019-06-09T08:13:43+02:00</time>
      </trkpt>
      <trkpt lat="41.64511667000001" lon="2.09456834">
        <ele>369.0</ele>
        <time>2019-06-09T08:13:45+02:00</time>
      </trkpt>
      <trkpt lat="41.645151670000004" lon="2.09461334">
        <ele>369.0</ele>
        <time>2019-06-09T08:13:47+02:00</time>
      </trkpt>
      <trkpt lat="41.64517834" lon="2.0946633400000003">
        <ele>369.0</ele>
        <time>2019-06-09T08:13:49+02:00</time>
      </trkpt>
      <trkpt lat="41.645201670000006" lon="2.09471834">
        <ele>368.0</ele>
        <time>2019-06-09T08:13:51+02:00</time>
      </trkpt>
      <trkpt lat="41.64522167000001" lon="2.0947799999999996">
        <ele>368.0</ele>
        <time>2019-06-09T08:13:53+02:00</time>
      </trkpt>
      <trkpt lat="41.64524" lon="2.09485">
        <ele>367.0</ele>
        <time>2019-06-09T08:13:55+02:00</time>
      </trkpt>
      <trkpt lat="41.645256669999995" lon="2.094925">
        <ele>367.0</ele>
        <time>2019-06-09T08:13:57+02:00</time>
      </trkpt>
      <trkpt lat="41.645268339999994" lon="2.0949966699999996">
        <ele>366.0</ele>
        <time>2019-06-09T08:13:59+02:00</time>
      </trkpt>
      <trkpt lat="41.645275000000005" lon="2.0950683399999996">
        <ele>366.0</ele>
        <time>2019-06-09T08:14:01+02:00</time>
      </trkpt>
      <trkpt lat="41.645285339999994" lon="2.095135">
        <ele>365.0</ele>
        <time>2019-06-09T08:14:03+02:00</time>
      </trkpt>
      <trkpt lat="41.64529799999999" lon="2.0951999999999997">
        <ele>365.0</ele>
        <time>2019-06-09T08:14:05+02:00</time>
      </trkpt>
      <trkpt lat="41.64531100000001" lon="2.0952650000000004">
        <ele>365.0</ele>
        <time>2019-06-09T08:14:07+02:00</time>
      </trkpt>
      <trkpt lat="41.64532967" lon="2.0953366699999996">
        <ele>362.0</ele>
        <time>2019-06-09T08:14:09+02:00</time>
      </trkpt>
      <trkpt lat="41.64535267" lon="2.09539834">
        <ele>360.0</ele>
        <time>2019-06-09T08:14:11+02:00</time>
      </trkpt>
      <trkpt lat="41.64540999999999" lon="2.09544834">
        <ele>361.0</ele>
        <time>2019-06-09T08:14:13+02:00</time>
      </trkpt>
      <trkpt lat="41.645455000000005" lon="2.09548">
        <ele>361.0</ele>
        <time>2019-06-09T08:14:15+02:00</time>
      </trkpt>
      <trkpt lat="41.64550834" lon="2.0954866699999997">
        <ele>362.0</ele>
        <time>2019-06-09T08:14:17+02:00</time>
      </trkpt>
      <trkpt lat="41.645561670000006" lon="2.09548">
        <ele>362.0</ele>
        <time>2019-06-09T08:14:19+02:00</time>
      </trkpt>
      <trkpt lat="41.64561334" lon="2.09545167">
        <ele>362.0</ele>
        <time>2019-06-09T08:14:21+02:00</time>
      </trkpt>
      <trkpt lat="41.645661669999996" lon="2.0954283399999993">
        <ele>362.0</ele>
        <time>2019-06-09T08:14:23+02:00</time>
      </trkpt>
      <trkpt lat="41.64571334" lon="2.09540667">
        <ele>362.0</ele>
        <time>2019-06-09T08:14:25+02:00</time>
      </trkpt>
      <trkpt lat="41.645765" lon="2.0953833399999993">
        <ele>362.0</ele>
        <time>2019-06-09T08:14:27+02:00</time>
      </trkpt>
      <trkpt lat="41.64581" lon="2.0953633399999996">
        <ele>362.0</ele>
        <time>2019-06-09T08:14:29+02:00</time>
      </trkpt>
      <trkpt lat="41.645855" lon="2.09534667">
        <ele>362.0</ele>
        <time>2019-06-09T08:14:31+02:00</time>
      </trkpt>
      <trkpt lat="41.64589834" lon="2.09532867">
        <ele>362.0</ele>
        <time>2019-06-09T08:14:33+02:00</time>
      </trkpt>
      <trkpt lat="41.64595167" lon="2.09530867">
        <ele>362.0</ele>
        <time>2019-06-09T08:14:36+02:00</time>
      </trkpt>
      <trkpt lat="41.64601" lon="2.0952840000000004">
        <ele>362.0</ele>
        <time>2019-06-09T08:14:39+02:00</time>
      </trkpt>
      <trkpt lat="41.64606834" lon="2.0952593399999992">
        <ele>362.0</ele>
        <time>2019-06-09T08:14:42+02:00</time>
      </trkpt>
      <trkpt lat="41.646125" lon="2.0952313399999998">
        <ele>362.0</ele>
        <time>2019-06-09T08:14:45+02:00</time>
      </trkpt>
      <trkpt lat="41.64617" lon="2.09520734">
        <ele>362.0</ele>
        <time>2019-06-09T08:14:47+02:00</time>
      </trkpt>
      <trkpt lat="41.64621" lon="2.095181">
        <ele>362.0</ele>
        <time>2019-06-09T08:14:49+02:00</time>
      </trkpt>
      <trkpt lat="41.64624834" lon="2.0951546700000003">
        <ele>362.0</ele>
        <time>2019-06-09T08:14:51+02:00</time>
      </trkpt>
      <trkpt lat="41.646298339999994" lon="2.09511534">
        <ele>362.0</ele>
        <time>2019-06-09T08:14:54+02:00</time>
      </trkpt>
      <trkpt lat="41.64633167" lon="2.0950813399999997">
        <ele>362.0</ele>
        <time>2019-06-09T08:14:56+02:00</time>
      </trkpt>
      <trkpt lat="41.64636334" lon="2.09504734">
        <ele>362.0</ele>
        <time>2019-06-09T08:14:58+02:00</time>
      </trkpt>
      <trkpt lat="41.646406670000005" lon="2.0950013399999996">
        <ele>362.0</ele>
        <time>2019-06-09T08:15:01+02:00</time>
      </trkpt>
      <trkpt lat="41.646463340000004" lon="2.0949470000000003">
        <ele>361.0</ele>
        <time>2019-06-09T08:15:04+02:00</time>
      </trkpt>
      <trkpt lat="41.646525000000004" lon="2.09485667">
        <ele>360.0</ele>
        <time>2019-06-09T08:15:07+02:00</time>
      </trkpt>
      <trkpt lat="41.64657167" lon="2.094855">
        <ele>360.0</ele>
        <time>2019-06-09T08:15:09+02:00</time>
      </trkpt>
      <trkpt lat="41.64662667" lon="2.0948716699999994">
        <ele>359.0</ele>
        <time>2019-06-09T08:15:11+02:00</time>
      </trkpt>
      <trkpt lat="41.64669167000001" lon="2.09488667">
        <ele>359.0</ele>
        <time>2019-06-09T08:15:13+02:00</time>
      </trkpt>
      <trkpt lat="41.64675999999999" lon="2.0949033399999997">
        <ele>359.0</ele>
        <time>2019-06-09T08:15:15+02:00</time>
      </trkpt>
      <trkpt lat="41.64682833999999" lon="2.0949139999999997">
        <ele>359.0</ele>
        <time>2019-06-09T08:15:17+02:00</time>
      </trkpt>
      <trkpt lat="41.6469" lon="2.0949163399999997">
        <ele>358.0</ele>
        <time>2019-06-09T08:15:19+02:00</time>
      </trkpt>
      <trkpt lat="41.646973339999995" lon="2.09491067">
        <ele>358.0</ele>
        <time>2019-06-09T08:15:21+02:00</time>
      </trkpt>
      <trkpt lat="41.647045" lon="2.0948943399999997">
        <ele>358.0</ele>
        <time>2019-06-09T08:15:23+02:00</time>
      </trkpt>
      <trkpt lat="41.64711834" lon="2.0948636699999996">
        <ele>358.0</ele>
        <time>2019-06-09T08:15:25+02:00</time>
      </trkpt>
      <trkpt lat="41.647185" lon="2.0947750000000003">
        <ele>357.0</ele>
        <time>2019-06-09T08:15:27+02:00</time>
      </trkpt>
      <trkpt lat="41.64724834" lon="2.0947166699999995">
        <ele>357.0</ele>
        <time>2019-06-09T08:15:29+02:00</time>
      </trkpt>
      <trkpt lat="41.647318340000005" lon="2.0946433399999997">
        <ele>357.0</ele>
        <time>2019-06-09T08:15:31+02:00</time>
      </trkpt>
      <trkpt lat="41.64736333999999" lon="2.0946053399999998">
        <ele>357.0</ele>
        <time>2019-06-09T08:15:32+02:00</time>
      </trkpt>
      <trkpt lat="41.647415" lon="2.0945720000000003">
        <ele>357.0</ele>
        <time>2019-06-09T08:15:33+02:00</time>
      </trkpt>
      <trkpt lat="41.647468339999996" lon="2.09453834">
        <ele>357.0</ele>
        <time>2019-06-09T08:15:34+02:00</time>
      </trkpt>
      <trkpt lat="41.64752167" lon="2.0945003399999997">
        <ele>357.0</ele>
        <time>2019-06-09T08:15:35+02:00</time>
      </trkpt>
      <trkpt lat="41.647574999999996" lon="2.0944589999999996">
        <ele>357.0</ele>
        <time>2019-06-09T08:15:36+02:00</time>
      </trkpt>
      <trkpt lat="41.64762667000001" lon="2.0944116700000004">
        <ele>357.0</ele>
        <time>2019-06-09T08:15:37+02:00</time>
      </trkpt>
      <trkpt lat="41.64767334" lon="2.094361">
        <ele>357.0</ele>
        <time>2019-06-09T08:15:38+02:00</time>
      </trkpt>
      <trkpt lat="41.64771834" lon="2.09430567">
        <ele>357.0</ele>
        <time>2019-06-09T08:15:39+02:00</time>
      </trkpt>
      <trkpt lat="41.647753339999994" lon="2.0942516700000002">
        <ele>357.0</ele>
        <time>2019-06-09T08:15:40+02:00</time>
      </trkpt>
      <trkpt lat="41.64778167000001" lon="2.09420167">
        <ele>357.0</ele>
        <time>2019-06-09T08:15:41+02:00</time>
      </trkpt>
      <trkpt lat="41.64780167" lon="2.09406167">
        <ele>357.0</ele>
        <time>2019-06-09T08:15:42+02:00</time>
      </trkpt>
      <trkpt lat="41.64782167" lon="2.093995">
        <ele>357.0</ele>
        <time>2019-06-09T08:15:43+02:00</time>
      </trkpt>
      <trkpt lat="41.647835" lon="2.0939349999999997">
        <ele>357.0</ele>
        <time>2019-06-09T08:15:44+02:00</time>
      </trkpt>
      <trkpt lat="41.647858340000006" lon="2.0938333399999998">
        <ele>357.0</ele>
        <time>2019-06-09T08:15:46+02:00</time>
      </trkpt>
      <trkpt lat="41.64787167000001" lon="2.0937550000000003">
        <ele>358.0</ele>
        <time>2019-06-09T08:15:48+02:00</time>
      </trkpt>
      <trkpt lat="41.647881670000004" lon="2.093685">
        <ele>358.0</ele>
        <time>2019-06-09T08:15:50+02:00</time>
      </trkpt>
      <trkpt lat="41.64789200000001" lon="2.09362667">
        <ele>359.0</ele>
        <time>2019-06-09T08:15:52+02:00</time>
      </trkpt>
      <trkpt lat="41.64790167000001" lon="2.093555">
        <ele>360.0</ele>
        <time>2019-06-09T08:15:55+02:00</time>
      </trkpt>
      <trkpt lat="41.64790434" lon="2.0934916699999997">
        <ele>360.0</ele>
        <time>2019-06-09T08:15:58+02:00</time>
      </trkpt>
      <trkpt lat="41.647912" lon="2.09341334">
        <ele>361.0</ele>
        <time>2019-06-09T08:16:01+02:00</time>
      </trkpt>
      <trkpt lat="41.64792299999999" lon="2.0933433399999997">
        <ele>361.0</ele>
        <time>2019-06-09T08:16:04+02:00</time>
      </trkpt>
      <trkpt lat="41.647934670000005" lon="2.093275">
        <ele>361.0</ele>
        <time>2019-06-09T08:16:07+02:00</time>
      </trkpt>
      <trkpt lat="41.64794634" lon="2.0932">
        <ele>361.0</ele>
        <time>2019-06-09T08:16:10+02:00</time>
      </trkpt>
      <trkpt lat="41.647958669999994" lon="2.09313667">
        <ele>361.0</ele>
        <time>2019-06-09T08:16:13+02:00</time>
      </trkpt>
      <trkpt lat="41.64797267" lon="2.09307">
        <ele>361.0</ele>
        <time>2019-06-09T08:16:16+02:00</time>
      </trkpt>
      <trkpt lat="41.64798466999999" lon="2.09300667">
        <ele>361.0</ele>
        <time>2019-06-09T08:16:19+02:00</time>
      </trkpt>
      <trkpt lat="41.647997000000004" lon="2.09294334">
        <ele>361.0</ele>
        <time>2019-06-09T08:16:22+02:00</time>
      </trkpt>
      <trkpt lat="41.648011" lon="2.09287667">
        <ele>361.0</ele>
        <time>2019-06-09T08:16:25+02:00</time>
      </trkpt>
      <trkpt lat="41.64802667000001" lon="2.09281">
        <ele>361.0</ele>
        <time>2019-06-09T08:16:28+02:00</time>
      </trkpt>
      <trkpt lat="41.64804067" lon="2.0927466699999995">
        <ele>361.0</ele>
        <time>2019-06-09T08:16:31+02:00</time>
      </trkpt>
      <trkpt lat="41.648057" lon="2.0926883399999996">
        <ele>361.0</ele>
        <time>2019-06-09T08:16:34+02:00</time>
      </trkpt>
      <trkpt lat="41.64807534" lon="2.092625">
        <ele>361.0</ele>
        <time>2019-06-09T08:16:37+02:00</time>
      </trkpt>
      <trkpt lat="41.64809434" lon="2.09256167">
        <ele>361.0</ele>
        <time>2019-06-09T08:16:40+02:00</time>
      </trkpt>
      <trkpt lat="41.64811533999999" lon="2.0925066699999997">
        <ele>361.0</ele>
        <time>2019-06-09T08:16:43+02:00</time>
      </trkpt>
      <trkpt lat="41.64813567" lon="2.09244667">
        <ele>361.0</ele>
        <time>2019-06-09T08:16:46+02:00</time>
      </trkpt>
      <trkpt lat="41.648155339999995" lon="2.0923900000000004">
        <ele>361.0</ele>
        <time>2019-06-09T08:16:49+02:00</time>
      </trkpt>
      <trkpt lat="41.648178339999994" lon="2.0923249999999998">
        <ele>361.0</ele>
        <time>2019-06-09T08:16:53+02:00</time>
      </trkpt>
      <trkpt lat="41.64819867" lon="2.092275">
        <ele>361.0</ele>
        <time>2019-06-09T08:16:56+02:00</time>
      </trkpt>
      <trkpt lat="41.64821967000001" lon="2.092225">
        <ele>360.0</ele>
        <time>2019-06-09T08:17:00+02:00</time>
      </trkpt>
      <trkpt lat="41.648305" lon="2.0921549999999995">
        <ele>360.0</ele>
        <time>2019-06-09T08:17:02+02:00</time>
      </trkpt>
      <trkpt lat="41.64832499999999" lon="2.09209667">
        <ele>360.0</ele>
        <time>2019-06-09T08:17:06+02:00</time>
      </trkpt>
      <trkpt lat="41.648341" lon="2.09203">
        <ele>360.0</ele>
        <time>2019-06-09T08:17:10+02:00</time>
      </trkpt>
      <trkpt lat="41.64835634" lon="2.09195667">
        <ele>359.0</ele>
        <time>2019-06-09T08:17:14+02:00</time>
      </trkpt>
      <trkpt lat="41.64837267" lon="2.09189167">
        <ele>359.0</ele>
        <time>2019-06-09T08:17:18+02:00</time>
      </trkpt>
      <trkpt lat="41.64838967000001" lon="2.09183">
        <ele>359.0</ele>
        <time>2019-06-09T08:17:22+02:00</time>
      </trkpt>
      <trkpt lat="41.64840600000001" lon="2.0917566699999997">
        <ele>359.0</ele>
        <time>2019-06-09T08:17:26+02:00</time>
      </trkpt>
      <trkpt lat="41.64842133999999" lon="2.0916883399999997">
        <ele>358.0</ele>
        <time>2019-06-09T08:17:30+02:00</time>
      </trkpt>
      <trkpt lat="41.648438000000006" lon="2.09163167">
        <ele>358.0</ele>
        <time>2019-06-09T08:17:33+02:00</time>
      </trkpt>
      <trkpt lat="41.648459669999994" lon="2.0915716699999995">
        <ele>358.0</ele>
        <time>2019-06-09T08:17:36+02:00</time>
      </trkpt>
      <trkpt lat="41.64848533999999" lon="2.0915016700000004">
        <ele>358.0</ele>
        <time>2019-06-09T08:17:39+02:00</time>
      </trkpt>
      <trkpt lat="41.648511" lon="2.09143167">
        <ele>358.0</ele>
        <time>2019-06-09T08:17:42+02:00</time>
      </trkpt>
      <trkpt lat="41.64853734" lon="2.0913716699999996">
        <ele>358.0</ele>
        <time>2019-06-09T08:17:45+02:00</time>
      </trkpt>
      <trkpt lat="41.648563339999995" lon="2.09131">
        <ele>358.0</ele>
        <time>2019-06-09T08:17:48+02:00</time>
      </trkpt>
      <trkpt lat="41.648590670000004" lon="2.0912483399999995">
        <ele>358.0</ele>
        <time>2019-06-09T08:17:51+02:00</time>
      </trkpt>
      <trkpt lat="41.64862467000001" lon="2.09116834">
        <ele>357.0</ele>
        <time>2019-06-09T08:17:54+02:00</time>
      </trkpt>
      <trkpt lat="41.64865433999999" lon="2.0911">
        <ele>357.0</ele>
        <time>2019-06-09T08:17:57+02:00</time>
      </trkpt>
      <trkpt lat="41.64868267" lon="2.0910450000000003">
        <ele>357.0</ele>
        <time>2019-06-09T08:17:59+02:00</time>
      </trkpt>
      <trkpt lat="41.64871334000001" lon="2.09098667">
        <ele>357.0</ele>
        <time>2019-06-09T08:18:01+02:00</time>
      </trkpt>
      <trkpt lat="41.648742670000004" lon="2.0909266699999995">
        <ele>358.0</ele>
        <time>2019-06-09T08:18:03+02:00</time>
      </trkpt>
      <trkpt lat="41.64877867" lon="2.0908499999999997">
        <ele>358.0</ele>
        <time>2019-06-09T08:18:06+02:00</time>
      </trkpt>
      <trkpt lat="41.648805" lon="2.0907733399999997">
        <ele>358.0</ele>
        <time>2019-06-09T08:18:09+02:00</time>
      </trkpt>
      <trkpt lat="41.64880167" lon="2.09068834">
        <ele>358.0</ele>
        <time>2019-06-09T08:18:12+02:00</time>
      </trkpt>
      <trkpt lat="41.64879834" lon="2.09062834">
        <ele>358.0</ele>
        <time>2019-06-09T08:18:14+02:00</time>
      </trkpt>
      <trkpt lat="41.64880167" lon="2.0905549999999997">
        <ele>358.0</ele>
        <time>2019-06-09T08:18:16+02:00</time>
      </trkpt>
      <trkpt lat="41.648797" lon="2.0904716700000003">
        <ele>358.0</ele>
        <time>2019-06-09T08:18:19+02:00</time>
      </trkpt>
      <trkpt lat="41.648782" lon="2.09038667">
        <ele>357.0</ele>
        <time>2019-06-09T08:18:22+02:00</time>
      </trkpt>
      <trkpt lat="41.648748340000004" lon="2.09033334">
        <ele>357.0</ele>
        <time>2019-06-09T08:18:24+02:00</time>
      </trkpt>
      <trkpt lat="41.648715" lon="2.0902849999999997">
        <ele>356.0</ele>
        <time>2019-06-09T08:18:26+02:00</time>
      </trkpt>
      <trkpt lat="41.64867667" lon="2.0902416699999997">
        <ele>355.0</ele>
        <time>2019-06-09T08:18:28+02:00</time>
      </trkpt>
      <trkpt lat="41.64863834" lon="2.0901983399999997">
        <ele>355.0</ele>
        <time>2019-06-09T08:18:30+02:00</time>
      </trkpt>
      <trkpt lat="41.64859867" lon="2.0901500000000004">
        <ele>354.0</ele>
        <time>2019-06-09T08:18:32+02:00</time>
      </trkpt>
      <trkpt lat="41.648562670000004" lon="2.09010167">
        <ele>353.0</ele>
        <time>2019-06-09T08:18:34+02:00</time>
      </trkpt>
      <trkpt lat="41.64853134" lon="2.0900416699999997">
        <ele>353.0</ele>
        <time>2019-06-09T08:18:36+02:00</time>
      </trkpt>
      <trkpt lat="41.648536670000006" lon="2.089975">
        <ele>352.0</ele>
        <time>2019-06-09T08:18:38+02:00</time>
      </trkpt>
      <trkpt lat="41.648563339999995" lon="2.089915">
        <ele>351.0</ele>
        <time>2019-06-09T08:18:40+02:00</time>
      </trkpt>
      <trkpt lat="41.648604999999996" lon="2.0898683399999998">
        <ele>350.0</ele>
        <time>2019-06-09T08:18:42+02:00</time>
      </trkpt>
      <trkpt lat="41.64864334" lon="2.08983167">
        <ele>350.0</ele>
        <time>2019-06-09T08:18:44+02:00</time>
      </trkpt>
      <trkpt lat="41.64868499999999" lon="2.0897916699999994">
        <ele>349.0</ele>
        <time>2019-06-09T08:18:46+02:00</time>
      </trkpt>
      <trkpt lat="41.648719670000006" lon="2.0897466699999994">
        <ele>348.0</ele>
        <time>2019-06-09T08:18:48+02:00</time>
      </trkpt>
      <trkpt lat="41.648751000000004" lon="2.08969834">
        <ele>347.0</ele>
        <time>2019-06-09T08:18:50+02:00</time>
      </trkpt>
      <trkpt lat="41.64877500000001" lon="2.08964167">
        <ele>347.0</ele>
        <time>2019-06-09T08:18:52+02:00</time>
      </trkpt>
      <trkpt lat="41.64879167000001" lon="2.0895783399999996">
        <ele>347.0</ele>
        <time>2019-06-09T08:18:54+02:00</time>
      </trkpt>
      <trkpt lat="41.648785" lon="2.089508339999999">
        <ele>345.0</ele>
        <time>2019-06-09T08:18:56+02:00</time>
      </trkpt>
      <trkpt lat="41.64878334" lon="2.08943667">
        <ele>345.0</ele>
        <time>2019-06-09T08:18:58+02:00</time>
      </trkpt>
      <trkpt lat="41.64877167000001" lon="2.0893616699999997">
        <ele>345.0</ele>
        <time>2019-06-09T08:19:00+02:00</time>
      </trkpt>
      <trkpt lat="41.648773" lon="2.08928834">
        <ele>344.0</ele>
        <time>2019-06-09T08:19:02+02:00</time>
      </trkpt>
      <trkpt lat="41.64878399999999" lon="2.08922">
        <ele>344.0</ele>
        <time>2019-06-09T08:19:04+02:00</time>
      </trkpt>
      <trkpt lat="41.64880467" lon="2.0891583399999996">
        <ele>343.0</ele>
        <time>2019-06-09T08:19:06+02:00</time>
      </trkpt>
      <trkpt lat="41.64885499999999" lon="2.0891083399999997">
        <ele>343.0</ele>
        <time>2019-06-09T08:19:08+02:00</time>
      </trkpt>
      <trkpt lat="41.64890334" lon="2.08906834">
        <ele>342.0</ele>
        <time>2019-06-09T08:19:10+02:00</time>
      </trkpt>
      <trkpt lat="41.64896" lon="2.08904334">
        <ele>342.0</ele>
        <time>2019-06-09T08:19:12+02:00</time>
      </trkpt>
      <trkpt lat="41.649013339999996" lon="2.0890183399999995">
        <ele>341.0</ele>
        <time>2019-06-09T08:19:14+02:00</time>
      </trkpt>
      <trkpt lat="41.64907" lon="2.08900667">
        <ele>341.0</ele>
        <time>2019-06-09T08:19:16+02:00</time>
      </trkpt>
      <trkpt lat="41.649125000000005" lon="2.0889966699999993">
        <ele>340.0</ele>
        <time>2019-06-09T08:19:18+02:00</time>
      </trkpt>
      <trkpt lat="41.649179999999994" lon="2.0889800000000003">
        <ele>340.0</ele>
        <time>2019-06-09T08:19:20+02:00</time>
      </trkpt>
      <trkpt lat="41.649235" lon="2.08896867">
        <ele>339.0</ele>
        <time>2019-06-09T08:19:22+02:00</time>
      </trkpt>
      <trkpt lat="41.64929667" lon="2.08896667">
        <ele>339.0</ele>
        <time>2019-06-09T08:19:24+02:00</time>
      </trkpt>
      <trkpt lat="41.64935834" lon="2.088976">
        <ele>338.0</ele>
        <time>2019-06-09T08:19:26+02:00</time>
      </trkpt>
      <trkpt lat="41.64941667000001" lon="2.08898767">
        <ele>338.0</ele>
        <time>2019-06-09T08:19:28+02:00</time>
      </trkpt>
      <trkpt lat="41.64947334" lon="2.0889963400000005">
        <ele>338.0</ele>
        <time>2019-06-09T08:19:30+02:00</time>
      </trkpt>
      <trkpt lat="41.64953334" lon="2.0890050000000002">
        <ele>338.0</ele>
        <time>2019-06-09T08:19:32+02:00</time>
      </trkpt>
      <trkpt lat="41.64959334" lon="2.08901167">
        <ele>337.0</ele>
        <time>2019-06-09T08:19:34+02:00</time>
      </trkpt>
      <trkpt lat="41.649651670000004" lon="2.0890239999999998">
        <ele>337.0</ele>
        <time>2019-06-09T08:19:36+02:00</time>
      </trkpt>
      <trkpt lat="41.64971667000001" lon="2.08904">
        <ele>337.0</ele>
        <time>2019-06-09T08:19:38+02:00</time>
      </trkpt>
      <trkpt lat="41.649786670000005" lon="2.0890560000000002">
        <ele>337.0</ele>
        <time>2019-06-09T08:19:40+02:00</time>
      </trkpt>
      <trkpt lat="41.64986500000001" lon="2.08906634">
        <ele>337.0</ele>
        <time>2019-06-09T08:19:42+02:00</time>
      </trkpt>
      <trkpt lat="41.649955" lon="2.08906734">
        <ele>337.0</ele>
        <time>2019-06-09T08:19:44+02:00</time>
      </trkpt>
      <trkpt lat="41.65000167" lon="2.0890613399999998">
        <ele>337.0</ele>
        <time>2019-06-09T08:19:45+02:00</time>
      </trkpt>
      <trkpt lat="41.65005" lon="2.08905534">
        <ele>337.0</ele>
        <time>2019-06-09T08:19:46+02:00</time>
      </trkpt>
      <trkpt lat="41.650104999999996" lon="2.08904934">
        <ele>337.0</ele>
        <time>2019-06-09T08:19:47+02:00</time>
      </trkpt>
      <trkpt lat="41.65015834" lon="2.089044">
        <ele>337.0</ele>
        <time>2019-06-09T08:19:48+02:00</time>
      </trkpt>
      <trkpt lat="41.65021167000001" lon="2.08903867">
        <ele>337.0</ele>
        <time>2019-06-09T08:19:49+02:00</time>
      </trkpt>
      <trkpt lat="41.65026334" lon="2.08903467">
        <ele>337.0</ele>
        <time>2019-06-09T08:19:50+02:00</time>
      </trkpt>
      <trkpt lat="41.650315" lon="2.0890329999999997">
        <ele>337.0</ele>
        <time>2019-06-09T08:19:51+02:00</time>
      </trkpt>
      <trkpt lat="41.650365" lon="2.0890320000000004">
        <ele>337.0</ele>
        <time>2019-06-09T08:19:52+02:00</time>
      </trkpt>
      <trkpt lat="41.650416670000006" lon="2.0890363399999994">
        <ele>337.0</ele>
        <time>2019-06-09T08:19:53+02:00</time>
      </trkpt>
      <trkpt lat="41.650470000000006" lon="2.0890416699999994">
        <ele>337.0</ele>
        <time>2019-06-09T08:19:54+02:00</time>
      </trkpt>
      <trkpt lat="41.650525" lon="2.0890443399999996">
        <ele>337.0</ele>
        <time>2019-06-09T08:19:55+02:00</time>
      </trkpt>
      <trkpt lat="41.650580000000005" lon="2.08904934">
        <ele>337.0</ele>
        <time>2019-06-09T08:19:56+02:00</time>
      </trkpt>
      <trkpt lat="41.65063" lon="2.0890476700000002">
        <ele>337.0</ele>
        <time>2019-06-09T08:19:57+02:00</time>
      </trkpt>
      <trkpt lat="41.65068334000001" lon="2.0890416699999994">
        <ele>337.0</ele>
        <time>2019-06-09T08:19:58+02:00</time>
      </trkpt>
      <trkpt lat="41.650735000000005" lon="2.088965">
        <ele>337.0</ele>
        <time>2019-06-09T08:19:59+02:00</time>
      </trkpt>
      <trkpt lat="41.650786669999995" lon="2.0889416699999996">
        <ele>337.0</ele>
        <time>2019-06-09T08:20:00+02:00</time>
      </trkpt>
      <trkpt lat="41.65084167000001" lon="2.088925">
        <ele>337.0</ele>
        <time>2019-06-09T08:20:01+02:00</time>
      </trkpt>
      <trkpt lat="41.6509" lon="2.08890934">
        <ele>337.0</ele>
        <time>2019-06-09T08:20:02+02:00</time>
      </trkpt>
      <trkpt lat="41.65095666999999" lon="2.088899">
        <ele>337.0</ele>
        <time>2019-06-09T08:20:03+02:00</time>
      </trkpt>
      <trkpt lat="41.651014999999994" lon="2.08889467">
        <ele>337.0</ele>
        <time>2019-06-09T08:20:04+02:00</time>
      </trkpt>
      <trkpt lat="41.65107" lon="2.08889067">
        <ele>337.0</ele>
        <time>2019-06-09T08:20:05+02:00</time>
      </trkpt>
      <trkpt lat="41.651126670000004" lon="2.08888767">
        <ele>337.0</ele>
        <time>2019-06-09T08:20:06+02:00</time>
      </trkpt>
      <trkpt lat="41.65118334" lon="2.088885">
        <ele>337.0</ele>
        <time>2019-06-09T08:20:07+02:00</time>
      </trkpt>
      <trkpt lat="41.65123834" lon="2.088879">
        <ele>337.0</ele>
        <time>2019-06-09T08:20:08+02:00</time>
      </trkpt>
      <trkpt lat="41.65129667" lon="2.088868">
        <ele>337.0</ele>
        <time>2019-06-09T08:20:09+02:00</time>
      </trkpt>
      <trkpt lat="41.65135334" lon="2.088855">
        <ele>337.0</ele>
        <time>2019-06-09T08:20:10+02:00</time>
      </trkpt>
      <trkpt lat="41.65140667000001" lon="2.08883734">
        <ele>337.0</ele>
        <time>2019-06-09T08:20:11+02:00</time>
      </trkpt>
      <trkpt lat="41.65145667" lon="2.08881134">
        <ele>337.0</ele>
        <time>2019-06-09T08:20:12+02:00</time>
      </trkpt>
      <trkpt lat="41.651491670000006" lon="2.08877934">
        <ele>337.0</ele>
        <time>2019-06-09T08:20:13+02:00</time>
      </trkpt>
      <trkpt lat="41.651511670000005" lon="2.0886150000000003">
        <ele>337.0</ele>
        <time>2019-06-09T08:20:14+02:00</time>
      </trkpt>
      <trkpt lat="41.651511670000005" lon="2.088535">
        <ele>337.0</ele>
        <time>2019-06-09T08:20:15+02:00</time>
      </trkpt>
      <trkpt lat="41.65150834" lon="2.0884549999999997">
        <ele>337.0</ele>
        <time>2019-06-09T08:20:16+02:00</time>
      </trkpt>
      <trkpt lat="41.651491670000006" lon="2.088375">
        <ele>337.0</ele>
        <time>2019-06-09T08:20:17+02:00</time>
      </trkpt>
      <trkpt lat="41.65148333999999" lon="2.0882916699999994">
        <ele>337.0</ele>
        <time>2019-06-09T08:20:18+02:00</time>
      </trkpt>
      <trkpt lat="41.65147999999999" lon="2.088205">
        <ele>337.0</ele>
        <time>2019-06-09T08:20:19+02:00</time>
      </trkpt>
      <trkpt lat="41.65147834" lon="2.0881216699999996">
        <ele>337.0</ele>
        <time>2019-06-09T08:20:20+02:00</time>
      </trkpt>
      <trkpt lat="41.65147834" lon="2.0880466699999998">
        <ele>337.0</ele>
        <time>2019-06-09T08:20:21+02:00</time>
      </trkpt>
      <trkpt lat="41.65148067" lon="2.0879733399999996">
        <ele>337.0</ele>
        <time>2019-06-09T08:20:22+02:00</time>
      </trkpt>
      <trkpt lat="41.65148467" lon="2.0879033399999996">
        <ele>337.0</ele>
        <time>2019-06-09T08:20:23+02:00</time>
      </trkpt>
      <trkpt lat="41.651492669999996" lon="2.0878366699999997">
        <ele>337.0</ele>
        <time>2019-06-09T08:20:24+02:00</time>
      </trkpt>
      <trkpt lat="41.65150299999999" lon="2.0877733399999996">
        <ele>337.0</ele>
        <time>2019-06-09T08:20:25+02:00</time>
      </trkpt>
      <trkpt lat="41.651527339999994" lon="2.08767">
        <ele>337.0</ele>
        <time>2019-06-09T08:20:27+02:00</time>
      </trkpt>
      <trkpt lat="41.65156399999999" lon="2.08756834">
        <ele>337.0</ele>
        <time>2019-06-09T08:20:29+02:00</time>
      </trkpt>
      <trkpt lat="41.651589339999994" lon="2.0875166700000003">
        <ele>337.0</ele>
        <time>2019-06-09T08:20:30+02:00</time>
      </trkpt>
      <trkpt lat="41.65161667" lon="2.0874616699999997">
        <ele>337.0</ele>
        <time>2019-06-09T08:20:31+02:00</time>
      </trkpt>
      <trkpt lat="41.65164467000001" lon="2.0874066699999996">
        <ele>337.0</ele>
        <time>2019-06-09T08:20:32+02:00</time>
      </trkpt>
      <trkpt lat="41.65167467" lon="2.0873533399999995">
        <ele>337.0</ele>
        <time>2019-06-09T08:20:33+02:00</time>
      </trkpt>
      <trkpt lat="41.65170634" lon="2.08730167">
        <ele>336.0</ele>
        <time>2019-06-09T08:20:34+02:00</time>
      </trkpt>
      <trkpt lat="41.651737999999995" lon="2.08725667">
        <ele>336.0</ele>
        <time>2019-06-09T08:20:35+02:00</time>
      </trkpt>
      <trkpt lat="41.651772339999994" lon="2.08721">
        <ele>336.0</ele>
        <time>2019-06-09T08:20:36+02:00</time>
      </trkpt>
      <trkpt lat="41.651805339999996" lon="2.08717">
        <ele>336.0</ele>
        <time>2019-06-09T08:20:37+02:00</time>
      </trkpt>
      <trkpt lat="41.651838340000005" lon="2.08712834">
        <ele>335.0</ele>
        <time>2019-06-09T08:20:38+02:00</time>
      </trkpt>
      <trkpt lat="41.651869669999996" lon="2.08709">
        <ele>335.0</ele>
        <time>2019-06-09T08:20:39+02:00</time>
      </trkpt>
      <trkpt lat="41.651985" lon="2.087055">
        <ele>335.0</ele>
        <time>2019-06-09T08:20:40+02:00</time>
      </trkpt>
      <trkpt lat="41.65206" lon="2.0869916699999997">
        <ele>334.0</ele>
        <time>2019-06-09T08:20:42+02:00</time>
      </trkpt>
      <trkpt lat="41.65213334" lon="2.08694234">
        <ele>334.0</ele>
        <time>2019-06-09T08:20:44+02:00</time>
      </trkpt>
      <trkpt lat="41.65219999999999" lon="2.0868953400000003">
        <ele>333.0</ele>
        <time>2019-06-09T08:20:46+02:00</time>
      </trkpt>
      <trkpt lat="41.652263340000005" lon="2.086848">
        <ele>333.0</ele>
        <time>2019-06-09T08:20:48+02:00</time>
      </trkpt>
      <trkpt lat="41.652325000000005" lon="2.0868046700000003">
        <ele>332.0</ele>
        <time>2019-06-09T08:20:50+02:00</time>
      </trkpt>
      <trkpt lat="41.652395000000006" lon="2.08676034">
        <ele>331.0</ele>
        <time>2019-06-09T08:20:52+02:00</time>
      </trkpt>
      <trkpt lat="41.65246667000001" lon="2.0867173400000003">
        <ele>331.0</ele>
        <time>2019-06-09T08:20:54+02:00</time>
      </trkpt>
      <trkpt lat="41.65254" lon="2.0866723400000002">
        <ele>330.0</ele>
        <time>2019-06-09T08:20:56+02:00</time>
      </trkpt>
      <trkpt lat="41.652606670000004" lon="2.0866296699999998">
        <ele>330.0</ele>
        <time>2019-06-09T08:20:58+02:00</time>
      </trkpt>
      <trkpt lat="41.65267" lon="2.08658534">
        <ele>329.0</ele>
        <time>2019-06-09T08:21:00+02:00</time>
      </trkpt>
      <trkpt lat="41.652728339999996" lon="2.08654034">
        <ele>329.0</ele>
        <time>2019-06-09T08:21:02+02:00</time>
      </trkpt>
      <trkpt lat="41.65277834" lon="2.08649967">
        <ele>329.0</ele>
        <time>2019-06-09T08:21:04+02:00</time>
      </trkpt>
      <trkpt lat="41.652834999999996" lon="2.0864516699999998">
        <ele>329.0</ele>
        <time>2019-06-09T08:21:06+02:00</time>
      </trkpt>
      <trkpt lat="41.652903339999995" lon="2.0863963400000003">
        <ele>329.0</ele>
        <time>2019-06-09T08:21:08+02:00</time>
      </trkpt>
      <trkpt lat="41.65297334" lon="2.08634034">
        <ele>328.0</ele>
        <time>2019-06-09T08:21:10+02:00</time>
      </trkpt>
      <trkpt lat="41.65305" lon="2.086284">
        <ele>328.0</ele>
        <time>2019-06-09T08:21:12+02:00</time>
      </trkpt>
      <trkpt lat="41.65313" lon="2.08622934">
        <ele>328.0</ele>
        <time>2019-06-09T08:21:14+02:00</time>
      </trkpt>
      <trkpt lat="41.653263339999995" lon="2.0861639999999997">
        <ele>327.0</ele>
        <time>2019-06-09T08:21:16+02:00</time>
      </trkpt>
      <trkpt lat="41.65331" lon="2.0862483399999996">
        <ele>327.0</ele>
        <time>2019-06-09T08:21:17+02:00</time>
      </trkpt>
      <trkpt lat="41.65335667000001" lon="2.086265">
        <ele>327.0</ele>
        <time>2019-06-09T08:21:18+02:00</time>
      </trkpt>
      <trkpt lat="41.65340167000001" lon="2.0862883400000003">
        <ele>327.0</ele>
        <time>2019-06-09T08:21:19+02:00</time>
      </trkpt>
      <trkpt lat="41.653481670000005" lon="2.0863383399999997">
        <ele>327.0</ele>
        <time>2019-06-09T08:21:21+02:00</time>
      </trkpt>
      <trkpt lat="41.65352000000001" lon="2.08637">
        <ele>327.0</ele>
        <time>2019-06-09T08:21:22+02:00</time>
      </trkpt>
      <trkpt lat="41.65359334" lon="2.08643834">
        <ele>327.0</ele>
        <time>2019-06-09T08:21:24+02:00</time>
      </trkpt>
      <trkpt lat="41.65366334" lon="2.08650634">
        <ele>326.0</ele>
        <time>2019-06-09T08:21:26+02:00</time>
      </trkpt>
      <trkpt lat="41.653729999999996" lon="2.08657734">
        <ele>326.0</ele>
        <time>2019-06-09T08:21:28+02:00</time>
      </trkpt>
      <trkpt lat="41.653800000000004" lon="2.0866480000000003">
        <ele>326.0</ele>
        <time>2019-06-09T08:21:30+02:00</time>
      </trkpt>
      <trkpt lat="41.65383667" lon="2.08668434">
        <ele>326.0</ele>
        <time>2019-06-09T08:21:31+02:00</time>
      </trkpt>
      <trkpt lat="41.65390834" lon="2.08675534">
        <ele>326.0</ele>
        <time>2019-06-09T08:21:33+02:00</time>
      </trkpt>
      <trkpt lat="41.65394334" lon="2.08679034">
        <ele>325.0</ele>
        <time>2019-06-09T08:21:34+02:00</time>
      </trkpt>
      <trkpt lat="41.654015" lon="2.08686234">
        <ele>325.0</ele>
        <time>2019-06-09T08:21:36+02:00</time>
      </trkpt>
      <trkpt lat="41.65405667000001" lon="2.08690467">
        <ele>325.0</ele>
        <time>2019-06-09T08:21:37+02:00</time>
      </trkpt>
      <trkpt lat="41.65410167" lon="2.08694967">
        <ele>325.0</ele>
        <time>2019-06-09T08:21:38+02:00</time>
      </trkpt>
      <trkpt lat="41.65414834" lon="2.0869980000000004">
        <ele>325.0</ele>
        <time>2019-06-09T08:21:39+02:00</time>
      </trkpt>
      <trkpt lat="41.65419334" lon="2.087045">
        <ele>325.0</ele>
        <time>2019-06-09T08:21:40+02:00</time>
      </trkpt>
      <trkpt lat="41.65424167" lon="2.0870956699999996">
        <ele>325.0</ele>
        <time>2019-06-09T08:21:41+02:00</time>
      </trkpt>
      <trkpt lat="41.654295000000005" lon="2.0871496699999996">
        <ele>325.0</ele>
        <time>2019-06-09T08:21:42+02:00</time>
      </trkpt>
      <trkpt lat="41.654351670000004" lon="2.0872053399999997">
        <ele>325.0</ele>
        <time>2019-06-09T08:21:43+02:00</time>
      </trkpt>
      <trkpt lat="41.65441167" lon="2.087257">
        <ele>325.0</ele>
        <time>2019-06-09T08:21:44+02:00</time>
      </trkpt>
      <trkpt lat="41.65447999999999" lon="2.0873076699999995">
        <ele>325.0</ele>
        <time>2019-06-09T08:21:45+02:00</time>
      </trkpt>
      <trkpt lat="41.65458334" lon="2.087376">
        <ele>325.0</ele>
        <time>2019-06-09T08:21:46+02:00</time>
      </trkpt>
      <trkpt lat="41.65465999999999" lon="2.0874099999999998">
        <ele>325.0</ele>
        <time>2019-06-09T08:21:47+02:00</time>
      </trkpt>
      <trkpt lat="41.65474667" lon="2.0872766700000005">
        <ele>324.0</ele>
        <time>2019-06-09T08:21:48+02:00</time>
      </trkpt>
      <trkpt lat="41.65483667" lon="2.0872766700000005">
        <ele>324.0</ele>
        <time>2019-06-09T08:21:49+02:00</time>
      </trkpt>
      <trkpt lat="41.65491334" lon="2.0872716699999994">
        <ele>324.0</ele>
        <time>2019-06-09T08:21:50+02:00</time>
      </trkpt>
      <trkpt lat="41.654998340000006" lon="2.0872683399999996">
        <ele>324.0</ele>
        <time>2019-06-09T08:21:51+02:00</time>
      </trkpt>
      <trkpt lat="41.65508334" lon="2.0872610000000003">
        <ele>324.0</ele>
        <time>2019-06-09T08:21:52+02:00</time>
      </trkpt>
      <trkpt lat="41.65515499999999" lon="2.08725734">
        <ele>324.0</ele>
        <time>2019-06-09T08:21:53+02:00</time>
      </trkpt>
      <trkpt lat="41.65522333999999" lon="2.08725367">
        <ele>324.0</ele>
        <time>2019-06-09T08:21:54+02:00</time>
      </trkpt>
      <trkpt lat="41.655296670000006" lon="2.0872533399999997">
        <ele>324.0</ele>
        <time>2019-06-09T08:21:55+02:00</time>
      </trkpt>
      <trkpt lat="41.65536667" lon="2.08725067">
        <ele>324.0</ele>
        <time>2019-06-09T08:21:56+02:00</time>
      </trkpt>
      <trkpt lat="41.65544167000001" lon="2.0872529999999996">
        <ele>324.0</ele>
        <time>2019-06-09T08:21:57+02:00</time>
      </trkpt>
      <trkpt lat="41.65552667000001" lon="2.08726567">
        <ele>324.0</ele>
        <time>2019-06-09T08:21:58+02:00</time>
      </trkpt>
      <trkpt lat="41.65559999999999" lon="2.0872963399999995">
        <ele>324.0</ele>
        <time>2019-06-09T08:21:59+02:00</time>
      </trkpt>
      <trkpt lat="41.655656670000006" lon="2.0873329999999997">
        <ele>324.0</ele>
        <time>2019-06-09T08:22:00+02:00</time>
      </trkpt>
      <trkpt lat="41.655721670000005" lon="2.08736967">
        <ele>324.0</ele>
        <time>2019-06-09T08:22:01+02:00</time>
      </trkpt>
      <trkpt lat="41.655795" lon="2.08740467">
        <ele>324.0</ele>
        <time>2019-06-09T08:22:02+02:00</time>
      </trkpt>
      <trkpt lat="41.655860000000004" lon="2.0874383399999994">
        <ele>324.0</ele>
        <time>2019-06-09T08:22:03+02:00</time>
      </trkpt>
      <trkpt lat="41.65591334" lon="2.08747034">
        <ele>324.0</ele>
        <time>2019-06-09T08:22:04+02:00</time>
      </trkpt>
      <trkpt lat="41.65595" lon="2.08750267">
        <ele>324.0</ele>
        <time>2019-06-09T08:22:05+02:00</time>
      </trkpt>
      <trkpt lat="41.65601334" lon="2.0876716699999998">
        <ele>324.0</ele>
        <time>2019-06-09T08:22:07+02:00</time>
      </trkpt>
      <trkpt lat="41.65607" lon="2.08776167">
        <ele>324.0</ele>
        <time>2019-06-09T08:22:09+02:00</time>
      </trkpt>
      <trkpt lat="41.656096670000004" lon="2.08782167">
        <ele>324.0</ele>
        <time>2019-06-09T08:22:10+02:00</time>
      </trkpt>
      <trkpt lat="41.65612" lon="2.0878900000000007">
        <ele>324.0</ele>
        <time>2019-06-09T08:22:11+02:00</time>
      </trkpt>
      <trkpt lat="41.656148" lon="2.08795667">
        <ele>324.0</ele>
        <time>2019-06-09T08:22:12+02:00</time>
      </trkpt>
      <trkpt lat="41.65617767" lon="2.08802167">
        <ele>324.0</ele>
        <time>2019-06-09T08:22:13+02:00</time>
      </trkpt>
      <trkpt lat="41.65621067" lon="2.08808334">
        <ele>324.0</ele>
        <time>2019-06-09T08:22:14+02:00</time>
      </trkpt>
      <trkpt lat="41.65624567000001" lon="2.08814">
        <ele>324.0</ele>
        <time>2019-06-09T08:22:15+02:00</time>
      </trkpt>
      <trkpt lat="41.656282" lon="2.08819667">
        <ele>324.0</ele>
        <time>2019-06-09T08:22:16+02:00</time>
      </trkpt>
      <trkpt lat="41.65631634" lon="2.0882466699999993">
        <ele>324.0</ele>
        <time>2019-06-09T08:22:17+02:00</time>
      </trkpt>
      <trkpt lat="41.656353" lon="2.0882983399999997">
        <ele>324.0</ele>
        <time>2019-06-09T08:22:18+02:00</time>
      </trkpt>
      <trkpt lat="41.656389000000004" lon="2.08835167">
        <ele>324.0</ele>
        <time>2019-06-09T08:22:19+02:00</time>
      </trkpt>
      <trkpt lat="41.65642367" lon="2.08840334">
        <ele>324.0</ele>
        <time>2019-06-09T08:22:20+02:00</time>
      </trkpt>
      <trkpt lat="41.65645500000001" lon="2.08845167">
        <ele>324.0</ele>
        <time>2019-06-09T08:22:21+02:00</time>
      </trkpt>
      <trkpt lat="41.65648666999999" lon="2.0885016700000003">
        <ele>325.0</ele>
        <time>2019-06-09T08:22:22+02:00</time>
      </trkpt>
      <trkpt lat="41.656518670000004" lon="2.0885533399999994">
        <ele>325.0</ele>
        <time>2019-06-09T08:22:23+02:00</time>
      </trkpt>
      <trkpt lat="41.656547999999994" lon="2.0886033399999997">
        <ele>325.0</ele>
        <time>2019-06-09T08:22:24+02:00</time>
      </trkpt>
      <trkpt lat="41.65657667000001" lon="2.0886549999999997">
        <ele>325.0</ele>
        <time>2019-06-09T08:22:25+02:00</time>
      </trkpt>
      <trkpt lat="41.65660466999999" lon="2.088705">
        <ele>325.0</ele>
        <time>2019-06-09T08:22:26+02:00</time>
      </trkpt>
      <trkpt lat="41.65665634" lon="2.0888016699999996">
        <ele>325.0</ele>
        <time>2019-06-09T08:22:28+02:00</time>
      </trkpt>
      <trkpt lat="41.65670634" lon="2.0888983399999996">
        <ele>326.0</ele>
        <time>2019-06-09T08:22:30+02:00</time>
      </trkpt>
      <trkpt lat="41.65674934" lon="2.0889866699999997">
        <ele>326.0</ele>
        <time>2019-06-09T08:22:32+02:00</time>
      </trkpt>
      <trkpt lat="41.65678967000001" lon="2.0890733399999997">
        <ele>327.0</ele>
        <time>2019-06-09T08:22:34+02:00</time>
      </trkpt>
      <trkpt lat="41.656826" lon="2.08915667">
        <ele>327.0</ele>
        <time>2019-06-09T08:22:36+02:00</time>
      </trkpt>
      <trkpt lat="41.656859669999996" lon="2.0892299999999997">
        <ele>328.0</ele>
        <time>2019-06-09T08:22:38+02:00</time>
      </trkpt>
      <trkpt lat="41.656887999999995" lon="2.08928834">
        <ele>328.0</ele>
        <time>2019-06-09T08:22:40+02:00</time>
      </trkpt>
      <trkpt lat="41.656919" lon="2.08933834">
        <ele>329.0</ele>
        <time>2019-06-09T08:22:42+02:00</time>
      </trkpt>
      <trkpt lat="41.657005" lon="2.08938834">
        <ele>329.0</ele>
        <time>2019-06-09T08:22:44+02:00</time>
      </trkpt>
      <trkpt lat="41.65708334" lon="2.0894316699999997">
        <ele>329.0</ele>
        <time>2019-06-09T08:22:46+02:00</time>
      </trkpt>
      <trkpt lat="41.65716667" lon="2.08946967">
        <ele>329.0</ele>
        <time>2019-06-09T08:22:48+02:00</time>
      </trkpt>
      <trkpt lat="41.657248339999995" lon="2.08950267">
        <ele>330.0</ele>
        <time>2019-06-09T08:22:50+02:00</time>
      </trkpt>
      <trkpt lat="41.657293339999995" lon="2.08951867">
        <ele>330.0</ele>
        <time>2019-06-09T08:22:51+02:00</time>
      </trkpt>
      <trkpt lat="41.657378339999994" lon="2.089543">
        <ele>330.0</ele>
        <time>2019-06-09T08:22:53+02:00</time>
      </trkpt>
      <trkpt lat="41.65746" lon="2.089553">
        <ele>330.0</ele>
        <time>2019-06-09T08:22:55+02:00</time>
      </trkpt>
      <trkpt lat="41.65753667" lon="2.089508339999999">
        <ele>331.0</ele>
        <time>2019-06-09T08:22:57+02:00</time>
      </trkpt>
      <trkpt lat="41.65761667" lon="2.0894616699999995">
        <ele>331.0</ele>
        <time>2019-06-09T08:22:59+02:00</time>
      </trkpt>
      <trkpt lat="41.65765667000001" lon="2.0894283399999996">
        <ele>331.0</ele>
        <time>2019-06-09T08:23:00+02:00</time>
      </trkpt>
      <trkpt lat="41.657698339999996" lon="2.08939334">
        <ele>331.0</ele>
        <time>2019-06-09T08:23:01+02:00</time>
      </trkpt>
      <trkpt lat="41.65774167000001" lon="2.08935667">
        <ele>331.0</ele>
        <time>2019-06-09T08:23:02+02:00</time>
      </trkpt>
      <trkpt lat="41.65778334" lon="2.08933">
        <ele>331.0</ele>
        <time>2019-06-09T08:23:03+02:00</time>
      </trkpt>
      <trkpt lat="41.65786333999999" lon="2.0892860000000004">
        <ele>331.0</ele>
        <time>2019-06-09T08:23:05+02:00</time>
      </trkpt>
      <trkpt lat="41.65794667" lon="2.0892613399999997">
        <ele>331.0</ele>
        <time>2019-06-09T08:23:07+02:00</time>
      </trkpt>
      <trkpt lat="41.65799167" lon="2.089258">
        <ele>331.0</ele>
        <time>2019-06-09T08:23:08+02:00</time>
      </trkpt>
      <trkpt lat="41.65807833999999" lon="2.089259">
        <ele>331.0</ele>
        <time>2019-06-09T08:23:10+02:00</time>
      </trkpt>
      <trkpt lat="41.658155" lon="2.0893083399999997">
        <ele>332.0</ele>
        <time>2019-06-09T08:23:12+02:00</time>
      </trkpt>
      <trkpt lat="41.65820167" lon="2.089335">
        <ele>332.0</ele>
        <time>2019-06-09T08:23:14+02:00</time>
      </trkpt>
      <trkpt lat="41.658246670000004" lon="2.0893699999999997">
        <ele>332.0</ele>
        <time>2019-06-09T08:23:16+02:00</time>
      </trkpt>
      <trkpt lat="41.658291670000004" lon="2.08940167">
        <ele>332.0</ele>
        <time>2019-06-09T08:23:18+02:00</time>
      </trkpt>
      <trkpt lat="41.658336670000004" lon="2.0894233399999997">
        <ele>332.0</ele>
        <time>2019-06-09T08:23:20+02:00</time>
      </trkpt>
      <trkpt lat="41.65838834" lon="2.0894386700000003">
        <ele>332.0</ele>
        <time>2019-06-09T08:23:22+02:00</time>
      </trkpt>
      <trkpt lat="41.658441670000016" lon="2.089444">
        <ele>332.0</ele>
        <time>2019-06-09T08:23:24+02:00</time>
      </trkpt>
      <trkpt lat="41.65850667000001" lon="2.08941">
        <ele>332.0</ele>
        <time>2019-06-09T08:23:27+02:00</time>
      </trkpt>
      <trkpt lat="41.65856" lon="2.08937667">
        <ele>333.0</ele>
        <time>2019-06-09T08:23:30+02:00</time>
      </trkpt>
      <trkpt lat="41.65861500000001" lon="2.0893733399999994">
        <ele>333.0</ele>
        <time>2019-06-09T08:23:33+02:00</time>
      </trkpt>
      <trkpt lat="41.65865834" lon="2.08938967">
        <ele>333.0</ele>
        <time>2019-06-09T08:23:35+02:00</time>
      </trkpt>
      <trkpt lat="41.65870167" lon="2.0894283399999996">
        <ele>333.0</ele>
        <time>2019-06-09T08:23:37+02:00</time>
      </trkpt>
      <trkpt lat="41.65874000000001" lon="2.0894700000000004">
        <ele>333.0</ele>
        <time>2019-06-09T08:23:39+02:00</time>
      </trkpt>
      <trkpt lat="41.65877834" lon="2.08951167">
        <ele>333.0</ele>
        <time>2019-06-09T08:23:41+02:00</time>
      </trkpt>
      <trkpt lat="41.65881667000001" lon="2.08954667">
        <ele>332.0</ele>
        <time>2019-06-09T08:23:43+02:00</time>
      </trkpt>
      <trkpt lat="41.658860000000004" lon="2.089578">
        <ele>332.0</ele>
        <time>2019-06-09T08:23:45+02:00</time>
      </trkpt>
      <trkpt lat="41.658901670000006" lon="2.08960434">
        <ele>332.0</ele>
        <time>2019-06-09T08:23:47+02:00</time>
      </trkpt>
      <trkpt lat="41.65894999999999" lon="2.089626">
        <ele>332.0</ele>
        <time>2019-06-09T08:23:49+02:00</time>
      </trkpt>
      <trkpt lat="41.659" lon="2.08964534">
        <ele>332.0</ele>
        <time>2019-06-09T08:23:51+02:00</time>
      </trkpt>
      <trkpt lat="41.65905000000001" lon="2.089664">
        <ele>332.0</ele>
        <time>2019-06-09T08:23:53+02:00</time>
      </trkpt>
      <trkpt lat="41.659105" lon="2.08968667">
        <ele>331.0</ele>
        <time>2019-06-09T08:23:55+02:00</time>
      </trkpt>
      <trkpt lat="41.659173339999995" lon="2.0897110000000003">
        <ele>331.0</ele>
        <time>2019-06-09T08:23:57+02:00</time>
      </trkpt>
      <trkpt lat="41.65925167" lon="2.08972734">
        <ele>331.0</ele>
        <time>2019-06-09T08:23:59+02:00</time>
      </trkpt>
      <trkpt lat="41.65932833999999" lon="2.08967667">
        <ele>330.0</ele>
        <time>2019-06-09T08:24:01+02:00</time>
      </trkpt>
      <trkpt lat="41.659409999999994" lon="2.0896433399999994">
        <ele>330.0</ele>
        <time>2019-06-09T08:24:03+02:00</time>
      </trkpt>
      <trkpt lat="41.659490000000005" lon="2.0896066699999998">
        <ele>330.0</ele>
        <time>2019-06-09T08:24:05+02:00</time>
      </trkpt>
      <trkpt lat="41.65956167" lon="2.08956834">
        <ele>330.0</ele>
        <time>2019-06-09T08:24:07+02:00</time>
      </trkpt>
      <trkpt lat="41.65964" lon="2.08953067">
        <ele>330.0</ele>
        <time>2019-06-09T08:24:09+02:00</time>
      </trkpt>
      <trkpt lat="41.65971667000001" lon="2.08949567">
        <ele>330.0</ele>
        <time>2019-06-09T08:24:11+02:00</time>
      </trkpt>
      <trkpt lat="41.65979334" lon="2.0894633399999996">
        <ele>330.0</ele>
        <time>2019-06-09T08:24:13+02:00</time>
      </trkpt>
      <trkpt lat="41.65987" lon="2.08943634">
        <ele>330.0</ele>
        <time>2019-06-09T08:24:15+02:00</time>
      </trkpt>
      <trkpt lat="41.659955000000004" lon="2.0894129999999995">
        <ele>330.0</ele>
        <time>2019-06-09T08:24:17+02:00</time>
      </trkpt>
      <trkpt lat="41.660023339999995" lon="2.0893996699999997">
        <ele>329.0</ele>
        <time>2019-06-09T08:24:19+02:00</time>
      </trkpt>
      <trkpt lat="41.660095" lon="2.089391">
        <ele>329.0</ele>
        <time>2019-06-09T08:24:21+02:00</time>
      </trkpt>
      <trkpt lat="41.66016667000001" lon="2.089389">
        <ele>329.0</ele>
        <time>2019-06-09T08:24:23+02:00</time>
      </trkpt>
      <trkpt lat="41.660235" lon="2.08939467">
        <ele>329.0</ele>
        <time>2019-06-09T08:24:25+02:00</time>
      </trkpt>
      <trkpt lat="41.660293339999996" lon="2.08949167">
        <ele>329.0</ele>
        <time>2019-06-09T08:24:27+02:00</time>
      </trkpt>
      <trkpt lat="41.66035" lon="2.0895333399999996">
        <ele>328.0</ele>
        <time>2019-06-09T08:24:29+02:00</time>
      </trkpt>
      <trkpt lat="41.660405000000004" lon="2.0895866699999996">
        <ele>328.0</ele>
        <time>2019-06-09T08:24:31+02:00</time>
      </trkpt>
      <trkpt lat="41.66044667" lon="2.0896433399999994">
        <ele>328.0</ele>
        <time>2019-06-09T08:24:33+02:00</time>
      </trkpt>
      <trkpt lat="41.66049334" lon="2.08969134">
        <ele>328.0</ele>
        <time>2019-06-09T08:24:35+02:00</time>
      </trkpt>
      <trkpt lat="41.660540000000005" lon="2.08973167">
        <ele>327.0</ele>
        <time>2019-06-09T08:24:37+02:00</time>
      </trkpt>
      <trkpt lat="41.660588340000004" lon="2.08976134">
        <ele>327.0</ele>
        <time>2019-06-09T08:24:39+02:00</time>
      </trkpt>
      <trkpt lat="41.66065167000001" lon="2.08977234">
        <ele>326.0</ele>
        <time>2019-06-09T08:24:42+02:00</time>
      </trkpt>
      <trkpt lat="41.660701669999995" lon="2.089725">
        <ele>326.0</ele>
        <time>2019-06-09T08:24:44+02:00</time>
      </trkpt>
      <trkpt lat="41.66075333999999" lon="2.0896916699999997">
        <ele>326.0</ele>
        <time>2019-06-09T08:24:46+02:00</time>
      </trkpt>
      <trkpt lat="41.660804999999996" lon="2.0896583399999993">
        <ele>326.0</ele>
        <time>2019-06-09T08:24:48+02:00</time>
      </trkpt>
      <trkpt lat="41.66085667" lon="2.0896150000000002">
        <ele>325.0</ele>
        <time>2019-06-09T08:24:50+02:00</time>
      </trkpt>
      <trkpt lat="41.66090667" lon="2.089569">
        <ele>325.0</ele>
        <time>2019-06-09T08:24:52+02:00</time>
      </trkpt>
      <trkpt lat="41.66095833999999" lon="2.089522">
        <ele>324.0</ele>
        <time>2019-06-09T08:24:54+02:00</time>
      </trkpt>
      <trkpt lat="41.66101" lon="2.0894836700000003">
        <ele>323.0</ele>
        <time>2019-06-09T08:24:56+02:00</time>
      </trkpt>
      <trkpt lat="41.661064999999994" lon="2.0894526699999996">
        <ele>323.0</ele>
        <time>2019-06-09T08:24:58+02:00</time>
      </trkpt>
      <trkpt lat="41.66111834" lon="2.0894306699999996">
        <ele>323.0</ele>
        <time>2019-06-09T08:25:00+02:00</time>
      </trkpt>
      <trkpt lat="41.661168339999996" lon="2.089415">
        <ele>322.0</ele>
        <time>2019-06-09T08:25:02+02:00</time>
      </trkpt>
      <trkpt lat="41.66121667000001" lon="2.08939367">
        <ele>321.0</ele>
        <time>2019-06-09T08:25:04+02:00</time>
      </trkpt>
      <trkpt lat="41.661271670000005" lon="2.0893693399999997">
        <ele>321.0</ele>
        <time>2019-06-09T08:25:06+02:00</time>
      </trkpt>
      <trkpt lat="41.661331669999996" lon="2.0893456699999993">
        <ele>320.0</ele>
        <time>2019-06-09T08:25:08+02:00</time>
      </trkpt>
      <trkpt lat="41.661395000000006" lon="2.08932167">
        <ele>320.0</ele>
        <time>2019-06-09T08:25:10+02:00</time>
      </trkpt>
      <trkpt lat="41.661453339999994" lon="2.0893076699999997">
        <ele>319.0</ele>
        <time>2019-06-09T08:25:12+02:00</time>
      </trkpt>
      <trkpt lat="41.66151" lon="2.0892963399999998">
        <ele>319.0</ele>
        <time>2019-06-09T08:25:14+02:00</time>
      </trkpt>
      <trkpt lat="41.661565" lon="2.089289">
        <ele>318.0</ele>
        <time>2019-06-09T08:25:16+02:00</time>
      </trkpt>
      <trkpt lat="41.661618340000004" lon="2.08928467">
        <ele>318.0</ele>
        <time>2019-06-09T08:25:18+02:00</time>
      </trkpt>
      <trkpt lat="41.661675" lon="2.089282">
        <ele>318.0</ele>
        <time>2019-06-09T08:25:20+02:00</time>
      </trkpt>
      <trkpt lat="41.66173" lon="2.0892803399999997">
        <ele>317.0</ele>
        <time>2019-06-09T08:25:22+02:00</time>
      </trkpt>
      <trkpt lat="41.661784999999995" lon="2.08927867">
        <ele>316.0</ele>
        <time>2019-06-09T08:25:24+02:00</time>
      </trkpt>
      <trkpt lat="41.66184334" lon="2.0892779999999997">
        <ele>316.0</ele>
        <time>2019-06-09T08:25:26+02:00</time>
      </trkpt>
      <trkpt lat="41.66189834" lon="2.08927767">
        <ele>316.0</ele>
        <time>2019-06-09T08:25:28+02:00</time>
      </trkpt>
      <trkpt lat="41.66195" lon="2.089277">
        <ele>315.0</ele>
        <time>2019-06-09T08:25:30+02:00</time>
      </trkpt>
      <trkpt lat="41.66200667" lon="2.0892760000000004">
        <ele>315.0</ele>
        <time>2019-06-09T08:25:31+02:00</time>
      </trkpt>
      <trkpt lat="41.66206334" lon="2.08927367">
        <ele>314.0</ele>
        <time>2019-06-09T08:25:33+02:00</time>
      </trkpt>
      <trkpt lat="41.662121670000005" lon="2.0892716699999996">
        <ele>314.0</ele>
        <time>2019-06-09T08:25:35+02:00</time>
      </trkpt>
      <trkpt lat="41.66218" lon="2.0892676700000004">
        <ele>314.0</ele>
        <time>2019-06-09T08:25:37+02:00</time>
      </trkpt>
      <trkpt lat="41.66224167" lon="2.08926367">
        <ele>314.0</ele>
        <time>2019-06-09T08:25:39+02:00</time>
      </trkpt>
      <trkpt lat="41.662311669999994" lon="2.089259">
        <ele>313.0</ele>
        <time>2019-06-09T08:25:41+02:00</time>
      </trkpt>
      <trkpt lat="41.66237667" lon="2.0892560000000002">
        <ele>312.0</ele>
        <time>2019-06-09T08:25:43+02:00</time>
      </trkpt>
      <trkpt lat="41.662436670000005" lon="2.089254">
        <ele>312.0</ele>
        <time>2019-06-09T08:25:45+02:00</time>
      </trkpt>
      <trkpt lat="41.6625" lon="2.08924867">
        <ele>311.0</ele>
        <time>2019-06-09T08:25:47+02:00</time>
      </trkpt>
      <trkpt lat="41.66256500000001" lon="2.0892436699999997">
        <ele>311.0</ele>
        <time>2019-06-09T08:25:49+02:00</time>
      </trkpt>
      <trkpt lat="41.66263" lon="2.0892429999999997">
        <ele>310.0</ele>
        <time>2019-06-09T08:25:51+02:00</time>
      </trkpt>
      <trkpt lat="41.66269834" lon="2.08924267">
        <ele>310.0</ele>
        <time>2019-06-09T08:25:53+02:00</time>
      </trkpt>
      <trkpt lat="41.662765" lon="2.0892443399999996">
        <ele>310.0</ele>
        <time>2019-06-09T08:25:55+02:00</time>
      </trkpt>
      <trkpt lat="41.66282667" lon="2.08924767">
        <ele>309.0</ele>
        <time>2019-06-09T08:25:57+02:00</time>
      </trkpt>
      <trkpt lat="41.66288667" lon="2.089257">
        <ele>309.0</ele>
        <time>2019-06-09T08:25:59+02:00</time>
      </trkpt>
      <trkpt lat="41.66294833999999" lon="2.089262">
        <ele>309.0</ele>
        <time>2019-06-09T08:26:01+02:00</time>
      </trkpt>
      <trkpt lat="41.66300834" lon="2.089273">
        <ele>309.0</ele>
        <time>2019-06-09T08:26:03+02:00</time>
      </trkpt>
      <trkpt lat="41.663065" lon="2.0892803399999997">
        <ele>309.0</ele>
        <time>2019-06-09T08:26:05+02:00</time>
      </trkpt>
      <trkpt lat="41.66311667" lon="2.089288">
        <ele>309.0</ele>
        <time>2019-06-09T08:26:07+02:00</time>
      </trkpt>
      <trkpt lat="41.663171670000004" lon="2.0892916699999993">
        <ele>309.0</ele>
        <time>2019-06-09T08:26:09+02:00</time>
      </trkpt>
      <trkpt lat="41.66322167" lon="2.08930034">
        <ele>309.0</ele>
        <time>2019-06-09T08:26:11+02:00</time>
      </trkpt>
      <trkpt lat="41.66327" lon="2.0893036700000005">
        <ele>309.0</ele>
        <time>2019-06-09T08:26:13+02:00</time>
      </trkpt>
      <trkpt lat="41.663325" lon="2.08930667">
        <ele>309.0</ele>
        <time>2019-06-09T08:26:15+02:00</time>
      </trkpt>
      <trkpt lat="41.66339333999999" lon="2.0893036700000005">
        <ele>309.0</ele>
        <time>2019-06-09T08:26:17+02:00</time>
      </trkpt>
      <trkpt lat="41.66346" lon="2.0893">
        <ele>309.0</ele>
        <time>2019-06-09T08:26:19+02:00</time>
      </trkpt>
      <trkpt lat="41.66351667000001" lon="2.0892966699999995">
        <ele>310.0</ele>
        <time>2019-06-09T08:26:21+02:00</time>
      </trkpt>
      <trkpt lat="41.66356667000001" lon="2.08929367">
        <ele>310.0</ele>
        <time>2019-06-09T08:26:23+02:00</time>
      </trkpt>
      <trkpt lat="41.66361" lon="2.0892906699999996">
        <ele>311.0</ele>
        <time>2019-06-09T08:26:25+02:00</time>
      </trkpt>
      <trkpt lat="41.663655" lon="2.08928834">
        <ele>311.0</ele>
        <time>2019-06-09T08:26:27+02:00</time>
      </trkpt>
      <trkpt lat="41.663715" lon="2.0892920000000004">
        <ele>313.0</ele>
        <time>2019-06-09T08:26:30+02:00</time>
      </trkpt>
      <trkpt lat="41.663763339999996" lon="2.0892906699999996">
        <ele>313.0</ele>
        <time>2019-06-09T08:26:33+02:00</time>
      </trkpt>
      <trkpt lat="41.66380834" lon="2.089285">
        <ele>313.0</ele>
        <time>2019-06-09T08:26:36+02:00</time>
      </trkpt>
      <trkpt lat="41.66386834" lon="2.08927867">
        <ele>315.0</ele>
        <time>2019-06-09T08:26:39+02:00</time>
      </trkpt>
      <trkpt lat="41.66390167000001" lon="2.0892666699999998">
        <ele>315.0</ele>
        <time>2019-06-09T08:26:42+02:00</time>
      </trkpt>
      <trkpt lat="41.66390334" lon="2.0890283399999996">
        <ele>315.0</ele>
        <time>2019-06-09T08:26:46+02:00</time>
      </trkpt>
      <trkpt lat="41.66388667" lon="2.08896667">
        <ele>315.0</ele>
        <time>2019-06-09T08:26:48+02:00</time>
      </trkpt>
      <trkpt lat="41.663866670000004" lon="2.08889">
        <ele>316.0</ele>
        <time>2019-06-09T08:26:51+02:00</time>
      </trkpt>
      <trkpt lat="41.663848339999994" lon="2.0888316700000003">
        <ele>317.0</ele>
        <time>2019-06-09T08:26:54+02:00</time>
      </trkpt>
      <trkpt lat="41.663805" lon="2.08879667">
        <ele>317.0</ele>
        <time>2019-06-09T08:26:59+02:00</time>
      </trkpt>
      <trkpt lat="41.663745" lon="2.08879834">
        <ele>316.0</ele>
        <time>2019-06-09T08:27:02+02:00</time>
      </trkpt>
      <trkpt lat="41.663705" lon="2.08873834">
        <ele>316.0</ele>
        <time>2019-06-09T08:27:05+02:00</time>
      </trkpt>
      <trkpt lat="41.66365834" lon="2.0886756699999998">
        <ele>316.0</ele>
        <time>2019-06-09T08:27:08+02:00</time>
      </trkpt>
      <trkpt lat="41.66361" lon="2.08862667">
        <ele>316.0</ele>
        <time>2019-06-09T08:27:10+02:00</time>
      </trkpt>
      <trkpt lat="41.66354834" lon="2.088593">
        <ele>316.0</ele>
        <time>2019-06-09T08:27:12+02:00</time>
      </trkpt>
      <trkpt lat="41.663509999999995" lon="2.0885593399999998">
        <ele>316.0</ele>
        <time>2019-06-09T08:27:14+02:00</time>
      </trkpt>
      <trkpt lat="41.66347834" lon="2.08851467">
        <ele>315.0</ele>
        <time>2019-06-09T08:27:16+02:00</time>
      </trkpt>
      <trkpt lat="41.66348" lon="2.0884049999999994">
        <ele>315.0</ele>
        <time>2019-06-09T08:27:19+02:00</time>
      </trkpt>
      <trkpt lat="41.663506670000004" lon="2.0883416699999997">
        <ele>315.0</ele>
        <time>2019-06-09T08:27:21+02:00</time>
      </trkpt>
      <trkpt lat="41.66353667" lon="2.088285">
        <ele>315.0</ele>
        <time>2019-06-09T08:27:23+02:00</time>
      </trkpt>
      <trkpt lat="41.66358667000001" lon="2.0882349999999996">
        <ele>315.0</ele>
        <time>2019-06-09T08:27:26+02:00</time>
      </trkpt>
      <trkpt lat="41.66363334" lon="2.0881916699999996">
        <ele>315.0</ele>
        <time>2019-06-09T08:27:29+02:00</time>
      </trkpt>
      <trkpt lat="41.663673339999995" lon="2.0881616700000003">
        <ele>315.0</ele>
        <time>2019-06-09T08:27:31+02:00</time>
      </trkpt>
      <trkpt lat="41.663716670000014" lon="2.08811167">
        <ele>315.0</ele>
        <time>2019-06-09T08:27:33+02:00</time>
      </trkpt>
      <trkpt lat="41.66376167" lon="2.088047">
        <ele>314.0</ele>
        <time>2019-06-09T08:27:35+02:00</time>
      </trkpt>
      <trkpt lat="41.66379833999999" lon="2.0879683399999998">
        <ele>314.0</ele>
        <time>2019-06-09T08:27:37+02:00</time>
      </trkpt>
      <trkpt lat="41.663843" lon="2.0878983399999997">
        <ele>314.0</ele>
        <time>2019-06-09T08:27:39+02:00</time>
      </trkpt>
      <trkpt lat="41.66390167000001" lon="2.0878400000000004">
        <ele>314.0</ele>
        <time>2019-06-09T08:27:41+02:00</time>
      </trkpt>
      <trkpt lat="41.663963339999995" lon="2.0877813400000003">
        <ele>314.0</ele>
        <time>2019-06-09T08:27:43+02:00</time>
      </trkpt>
      <trkpt lat="41.66401667" lon="2.08772467">
        <ele>313.0</ele>
        <time>2019-06-09T08:27:45+02:00</time>
      </trkpt>
      <trkpt lat="41.66406667000001" lon="2.0876670000000006">
        <ele>313.0</ele>
        <time>2019-06-09T08:27:47+02:00</time>
      </trkpt>
      <trkpt lat="41.66410333999999" lon="2.087621">
        <ele>312.0</ele>
        <time>2019-06-09T08:27:49+02:00</time>
      </trkpt>
      <trkpt lat="41.66412834" lon="2.08757967">
        <ele>312.0</ele>
        <time>2019-06-09T08:27:51+02:00</time>
      </trkpt>
      <trkpt lat="41.664165000000004" lon="2.0874800000000002">
        <ele>311.0</ele>
        <time>2019-06-09T08:27:53+02:00</time>
      </trkpt>
      <trkpt lat="41.66422167" lon="2.08739">
        <ele>311.0</ele>
        <time>2019-06-09T08:27:55+02:00</time>
      </trkpt>
      <trkpt lat="41.66425767" lon="2.08735167">
        <ele>311.0</ele>
        <time>2019-06-09T08:27:56+02:00</time>
      </trkpt>
      <trkpt lat="41.66429534" lon="2.08731167">
        <ele>311.0</ele>
        <time>2019-06-09T08:27:57+02:00</time>
      </trkpt>
      <trkpt lat="41.664335" lon="2.0872650000000004">
        <ele>311.0</ele>
        <time>2019-06-09T08:27:58+02:00</time>
      </trkpt>
      <trkpt lat="41.664375339999985" lon="2.0872033399999994">
        <ele>311.0</ele>
        <time>2019-06-09T08:27:59+02:00</time>
      </trkpt>
      <trkpt lat="41.664407999999995" lon="2.0871416700000003">
        <ele>311.0</ele>
        <time>2019-06-09T08:28:00+02:00</time>
      </trkpt>
      <trkpt lat="41.664438669999996" lon="2.0870783399999997">
        <ele>311.0</ele>
        <time>2019-06-09T08:28:01+02:00</time>
      </trkpt>
      <trkpt lat="41.66446834" lon="2.087015">
        <ele>311.0</ele>
        <time>2019-06-09T08:28:02+02:00</time>
      </trkpt>
      <trkpt lat="41.66449867" lon="2.08694834">
        <ele>311.0</ele>
        <time>2019-06-09T08:28:03+02:00</time>
      </trkpt>
      <trkpt lat="41.664525000000005" lon="2.0868866699999997">
        <ele>311.0</ele>
        <time>2019-06-09T08:28:04+02:00</time>
      </trkpt>
      <trkpt lat="41.66456167" lon="2.0868116700000003">
        <ele>310.0</ele>
        <time>2019-06-09T08:28:06+02:00</time>
      </trkpt>
      <trkpt lat="41.66459467000001" lon="2.0867449999999996">
        <ele>310.0</ele>
        <time>2019-06-09T08:28:09+02:00</time>
      </trkpt>
      <trkpt lat="41.664635" lon="2.08672334">
        <ele>309.0</ele>
        <time>2019-06-09T08:28:12+02:00</time>
      </trkpt>
      <trkpt lat="41.66467667" lon="2.0866866699999997">
        <ele>309.0</ele>
        <time>2019-06-09T08:28:14+02:00</time>
      </trkpt>
      <trkpt lat="41.66473834" lon="2.0866616700000002">
        <ele>308.0</ele>
        <time>2019-06-09T08:28:16+02:00</time>
      </trkpt>
      <trkpt lat="41.6648" lon="2.08665">
        <ele>308.0</ele>
        <time>2019-06-09T08:28:18+02:00</time>
      </trkpt>
      <trkpt lat="41.66486667" lon="2.08663667">
        <ele>308.0</ele>
        <time>2019-06-09T08:28:20+02:00</time>
      </trkpt>
      <trkpt lat="41.66494000000001" lon="2.0866433399999997">
        <ele>308.0</ele>
        <time>2019-06-09T08:28:22+02:00</time>
      </trkpt>
      <trkpt lat="41.66500333999999" lon="2.08667334">
        <ele>308.0</ele>
        <time>2019-06-09T08:28:24+02:00</time>
      </trkpt>
      <trkpt lat="41.665065000000006" lon="2.0866833399999996">
        <ele>307.0</ele>
        <time>2019-06-09T08:28:26+02:00</time>
      </trkpt>
      <trkpt lat="41.66513" lon="2.0866666699999996">
        <ele>307.0</ele>
        <time>2019-06-09T08:28:28+02:00</time>
      </trkpt>
      <trkpt lat="41.66520834" lon="2.0866670000000007">
        <ele>307.0</ele>
        <time>2019-06-09T08:28:30+02:00</time>
      </trkpt>
      <trkpt lat="41.66530000000001" lon="2.08667967">
        <ele>307.0</ele>
        <time>2019-06-09T08:28:32+02:00</time>
      </trkpt>
      <trkpt lat="41.66535167" lon="2.0866860000000003">
        <ele>307.0</ele>
        <time>2019-06-09T08:28:33+02:00</time>
      </trkpt>
      <trkpt lat="41.66540667" lon="2.0866823400000003">
        <ele>307.0</ele>
        <time>2019-06-09T08:28:34+02:00</time>
      </trkpt>
      <trkpt lat="41.66546167" lon="2.08667467">
        <ele>307.0</ele>
        <time>2019-06-09T08:28:35+02:00</time>
      </trkpt>
      <trkpt lat="41.66551834" lon="2.0866616700000002">
        <ele>307.0</ele>
        <time>2019-06-09T08:28:36+02:00</time>
      </trkpt>
      <trkpt lat="41.66557667" lon="2.08664367">
        <ele>307.0</ele>
        <time>2019-06-09T08:28:37+02:00</time>
      </trkpt>
      <trkpt lat="41.665636670000005" lon="2.0866243399999997">
        <ele>307.0</ele>
        <time>2019-06-09T08:28:38+02:00</time>
      </trkpt>
      <trkpt lat="41.66569334" lon="2.0866023399999998">
        <ele>307.0</ele>
        <time>2019-06-09T08:28:39+02:00</time>
      </trkpt>
      <trkpt lat="41.66574834" lon="2.0865736700000004">
        <ele>307.0</ele>
        <time>2019-06-09T08:28:40+02:00</time>
      </trkpt>
      <trkpt lat="41.665800000000004" lon="2.08653967">
        <ele>307.0</ele>
        <time>2019-06-09T08:28:41+02:00</time>
      </trkpt>
      <trkpt lat="41.66585" lon="2.0864183399999994">
        <ele>307.0</ele>
        <time>2019-06-09T08:28:42+02:00</time>
      </trkpt>
      <trkpt lat="41.665895" lon="2.08636">
        <ele>307.0</ele>
        <time>2019-06-09T08:28:43+02:00</time>
      </trkpt>
      <trkpt lat="41.665938340000004" lon="2.0863033399999997">
        <ele>307.0</ele>
        <time>2019-06-09T08:28:44+02:00</time>
      </trkpt>
      <trkpt lat="41.665978339999995" lon="2.08625">
        <ele>307.0</ele>
        <time>2019-06-09T08:28:45+02:00</time>
      </trkpt>
      <trkpt lat="41.66601334" lon="2.086193">
        <ele>307.0</ele>
        <time>2019-06-09T08:28:46+02:00</time>
      </trkpt>
      <trkpt lat="41.666041670000006" lon="2.08613734">
        <ele>307.0</ele>
        <time>2019-06-09T08:28:47+02:00</time>
      </trkpt>
      <trkpt lat="41.666070000000005" lon="2.0860829999999995">
        <ele>307.0</ele>
        <time>2019-06-09T08:28:48+02:00</time>
      </trkpt>
      <trkpt lat="41.666115000000005" lon="2.0860010000000004">
        <ele>307.0</ele>
        <time>2019-06-09T08:28:50+02:00</time>
      </trkpt>
      <trkpt lat="41.66616667" lon="2.0859443399999997">
        <ele>307.0</ele>
        <time>2019-06-09T08:28:52+02:00</time>
      </trkpt>
      <trkpt lat="41.66622" lon="2.0859193399999993">
        <ele>307.0</ele>
        <time>2019-06-09T08:28:54+02:00</time>
      </trkpt>
      <trkpt lat="41.666265" lon="2.08599334">
        <ele>307.0</ele>
        <time>2019-06-09T08:28:56+02:00</time>
      </trkpt>
      <trkpt lat="41.66632167000001" lon="2.08608167">
        <ele>306.0</ele>
        <time>2019-06-09T08:28:58+02:00</time>
      </trkpt>
      <trkpt lat="41.666378339999994" lon="2.0861766699999995">
        <ele>306.0</ele>
        <time>2019-06-09T08:29:00+02:00</time>
      </trkpt>
      <trkpt lat="41.666405" lon="2.08627667">
        <ele>306.0</ele>
        <time>2019-06-09T08:29:01+02:00</time>
      </trkpt>
      <trkpt lat="41.666430000000005" lon="2.08637">
        <ele>306.0</ele>
        <time>2019-06-09T08:29:02+02:00</time>
      </trkpt>
      <trkpt lat="41.666456669999995" lon="2.0864616699999994">
        <ele>305.0</ele>
        <time>2019-06-09T08:29:03+02:00</time>
      </trkpt>
      <trkpt lat="41.666545" lon="2.08661334">
        <ele>305.0</ele>
        <time>2019-06-09T08:29:04+02:00</time>
      </trkpt>
      <trkpt lat="41.666635" lon="2.0866783399999997">
        <ele>305.0</ele>
        <time>2019-06-09T08:29:05+02:00</time>
      </trkpt>
      <trkpt lat="41.66668167000001" lon="2.08671834">
        <ele>305.0</ele>
        <time>2019-06-09T08:29:06+02:00</time>
      </trkpt>
      <trkpt lat="41.66670834" lon="2.0867750000000003">
        <ele>305.0</ele>
        <time>2019-06-09T08:29:07+02:00</time>
      </trkpt>
      <trkpt lat="41.66672967000001" lon="2.0868483399999995">
        <ele>305.0</ele>
        <time>2019-06-09T08:29:08+02:00</time>
      </trkpt>
      <trkpt lat="41.66675367" lon="2.08695">
        <ele>305.0</ele>
        <time>2019-06-09T08:29:09+02:00</time>
      </trkpt>
      <trkpt lat="41.66677000000001" lon="2.0870416699999996">
        <ele>305.0</ele>
        <time>2019-06-09T08:29:10+02:00</time>
      </trkpt>
      <trkpt lat="41.66680133999999" lon="2.0871333399999994">
        <ele>305.0</ele>
        <time>2019-06-09T08:29:11+02:00</time>
      </trkpt>
      <trkpt lat="41.666827999999995" lon="2.0871950000000004">
        <ele>305.0</ele>
        <time>2019-06-09T08:29:12+02:00</time>
      </trkpt>
      <trkpt lat="41.66687233999999" lon="2.08727">
        <ele>305.0</ele>
        <time>2019-06-09T08:29:13+02:00</time>
      </trkpt>
      <trkpt lat="41.666926000000004" lon="2.0873533399999995">
        <ele>305.0</ele>
        <time>2019-06-09T08:29:14+02:00</time>
      </trkpt>
      <trkpt lat="41.66700634" lon="2.0874083399999996">
        <ele>305.0</ele>
        <time>2019-06-09T08:29:16+02:00</time>
      </trkpt>
      <trkpt lat="41.66712834" lon="2.0874516699999996">
        <ele>305.0</ele>
        <time>2019-06-09T08:29:17+02:00</time>
      </trkpt>
      <trkpt lat="41.66720667" lon="2.0874866699999997">
        <ele>305.0</ele>
        <time>2019-06-09T08:29:18+02:00</time>
      </trkpt>
      <trkpt lat="41.66728499999999" lon="2.0875150000000002">
        <ele>306.0</ele>
        <time>2019-06-09T08:29:19+02:00</time>
      </trkpt>
      <trkpt lat="41.667381670000005" lon="2.08756834">
        <ele>306.0</ele>
        <time>2019-06-09T08:29:20+02:00</time>
      </trkpt>
      <trkpt lat="41.667463340000005" lon="2.08760634">
        <ele>306.0</ele>
        <time>2019-06-09T08:29:21+02:00</time>
      </trkpt>
      <trkpt lat="41.667528340000004" lon="2.0876376700000003">
        <ele>306.0</ele>
        <time>2019-06-09T08:29:22+02:00</time>
      </trkpt>
      <trkpt lat="41.66761" lon="2.0876729999999997">
        <ele>307.0</ele>
        <time>2019-06-09T08:29:23+02:00</time>
      </trkpt>
      <trkpt lat="41.667695" lon="2.0877116699999996">
        <ele>307.0</ele>
        <time>2019-06-09T08:29:24+02:00</time>
      </trkpt>
      <trkpt lat="41.66778000000001" lon="2.087745">
        <ele>307.0</ele>
        <time>2019-06-09T08:29:25+02:00</time>
      </trkpt>
      <trkpt lat="41.667868340000005" lon="2.0877733399999996">
        <ele>308.0</ele>
        <time>2019-06-09T08:29:26+02:00</time>
      </trkpt>
      <trkpt lat="41.667925000000004" lon="2.08778167">
        <ele>308.0</ele>
        <time>2019-06-09T08:29:27+02:00</time>
      </trkpt>
      <trkpt lat="41.66798667" lon="2.08771834">
        <ele>308.0</ele>
        <time>2019-06-09T08:29:28+02:00</time>
      </trkpt>
      <trkpt lat="41.668045" lon="2.08767334">
        <ele>308.0</ele>
        <time>2019-06-09T08:29:29+02:00</time>
      </trkpt>
      <trkpt lat="41.66809833999999" lon="2.0875950000000003">
        <ele>309.0</ele>
        <time>2019-06-09T08:29:30+02:00</time>
      </trkpt>
      <trkpt lat="41.668158340000005" lon="2.0875166700000003">
        <ele>309.0</ele>
        <time>2019-06-09T08:29:31+02:00</time>
      </trkpt>
      <trkpt lat="41.66821334" lon="2.08742667">
        <ele>309.0</ele>
        <time>2019-06-09T08:29:32+02:00</time>
      </trkpt>
      <trkpt lat="41.668279999999996" lon="2.087345">
        <ele>309.0</ele>
        <time>2019-06-09T08:29:33+02:00</time>
      </trkpt>
      <trkpt lat="41.66834667000001" lon="2.08728">
        <ele>309.0</ele>
        <time>2019-06-09T08:29:34+02:00</time>
      </trkpt>
      <trkpt lat="41.668416670000006" lon="2.0872409999999997">
        <ele>309.0</ele>
        <time>2019-06-09T08:29:35+02:00</time>
      </trkpt>
      <trkpt lat="41.66849167" lon="2.08723234">
        <ele>309.0</ele>
        <time>2019-06-09T08:29:36+02:00</time>
      </trkpt>
      <trkpt lat="41.668563340000006" lon="2.0872513399999995">
        <ele>309.0</ele>
        <time>2019-06-09T08:29:37+02:00</time>
      </trkpt>
      <trkpt lat="41.66861834" lon="2.08733667">
        <ele>309.0</ele>
        <time>2019-06-09T08:29:38+02:00</time>
      </trkpt>
      <trkpt lat="41.668741669999996" lon="2.08744667">
        <ele>310.0</ele>
        <time>2019-06-09T08:29:39+02:00</time>
      </trkpt>
      <trkpt lat="41.668808340000005" lon="2.0875250000000003">
        <ele>310.0</ele>
        <time>2019-06-09T08:29:41+02:00</time>
      </trkpt>
      <trkpt lat="41.66885167" lon="2.08754834">
        <ele>310.0</ele>
        <time>2019-06-09T08:29:42+02:00</time>
      </trkpt>
      <trkpt lat="41.66891334" lon="2.087556">
        <ele>310.0</ele>
        <time>2019-06-09T08:29:43+02:00</time>
      </trkpt>
      <trkpt lat="41.668978339999995" lon="2.08756067">
        <ele>310.0</ele>
        <time>2019-06-09T08:29:44+02:00</time>
      </trkpt>
      <trkpt lat="41.669036670000004" lon="2.08755667">
        <ele>310.0</ele>
        <time>2019-06-09T08:29:45+02:00</time>
      </trkpt>
      <trkpt lat="41.66915834" lon="2.087511">
        <ele>311.0</ele>
        <time>2019-06-09T08:29:46+02:00</time>
      </trkpt>
      <trkpt lat="41.669221670000006" lon="2.087445">
        <ele>311.0</ele>
        <time>2019-06-09T08:29:47+02:00</time>
      </trkpt>
      <trkpt lat="41.66926334" lon="2.08738134">
        <ele>311.0</ele>
        <time>2019-06-09T08:29:48+02:00</time>
      </trkpt>
      <trkpt lat="41.66933667" lon="2.0873646700000004">
        <ele>311.0</ele>
        <time>2019-06-09T08:29:49+02:00</time>
      </trkpt>
      <trkpt lat="41.66943499999999" lon="2.08733667">
        <ele>311.0</ele>
        <time>2019-06-09T08:29:50+02:00</time>
      </trkpt>
      <trkpt lat="41.669513339999995" lon="2.0873203399999998">
        <ele>311.0</ele>
        <time>2019-06-09T08:29:51+02:00</time>
      </trkpt>
      <trkpt lat="41.66956834" lon="2.087303339999999">
        <ele>312.0</ele>
        <time>2019-06-09T08:29:52+02:00</time>
      </trkpt>
      <trkpt lat="41.669635" lon="2.0872776699999998">
        <ele>312.0</ele>
        <time>2019-06-09T08:29:53+02:00</time>
      </trkpt>
      <trkpt lat="41.669691670000006" lon="2.0871783399999995">
        <ele>312.0</ele>
        <time>2019-06-09T08:29:55+02:00</time>
      </trkpt>
      <trkpt lat="41.66969999999999" lon="2.0871083399999995">
        <ele>312.0</ele>
        <time>2019-06-09T08:29:56+02:00</time>
      </trkpt>
      <trkpt lat="41.669693339999995" lon="2.0870166699999997">
        <ele>313.0</ele>
        <time>2019-06-09T08:29:57+02:00</time>
      </trkpt>
      <trkpt lat="41.66970334" lon="2.086925">
        <ele>313.0</ele>
        <time>2019-06-09T08:29:58+02:00</time>
      </trkpt>
      <trkpt lat="41.669693339999995" lon="2.08684667">
        <ele>313.0</ele>
        <time>2019-06-09T08:29:59+02:00</time>
      </trkpt>
      <trkpt lat="41.66966834" lon="2.08676167">
        <ele>313.0</ele>
        <time>2019-06-09T08:30:00+02:00</time>
      </trkpt>
      <trkpt lat="41.66957167" lon="2.0866683399999997">
        <ele>313.0</ele>
        <time>2019-06-09T08:30:01+02:00</time>
      </trkpt>
      <trkpt lat="41.669515000000004" lon="2.0865783399999995">
        <ele>313.0</ele>
        <time>2019-06-09T08:30:02+02:00</time>
      </trkpt>
      <trkpt lat="41.66947834" lon="2.0865066699999995">
        <ele>313.0</ele>
        <time>2019-06-09T08:30:03+02:00</time>
      </trkpt>
      <trkpt lat="41.669444999999996" lon="2.086425">
        <ele>313.0</ele>
        <time>2019-06-09T08:30:04+02:00</time>
      </trkpt>
      <trkpt lat="41.669423339999994" lon="2.08632667">
        <ele>313.0</ele>
        <time>2019-06-09T08:30:05+02:00</time>
      </trkpt>
      <trkpt lat="41.66941433999999" lon="2.0862216699999996">
        <ele>313.0</ele>
        <time>2019-06-09T08:30:06+02:00</time>
      </trkpt>
      <trkpt lat="41.669404670000006" lon="2.08611334">
        <ele>313.0</ele>
        <time>2019-06-09T08:30:07+02:00</time>
      </trkpt>
      <trkpt lat="41.66939334" lon="2.0860099999999995">
        <ele>313.0</ele>
        <time>2019-06-09T08:30:08+02:00</time>
      </trkpt>
      <trkpt lat="41.66938134" lon="2.0859049999999995">
        <ele>313.0</ele>
        <time>2019-06-09T08:30:09+02:00</time>
      </trkpt>
      <trkpt lat="41.669376" lon="2.0857966699999997">
        <ele>314.0</ele>
        <time>2019-06-09T08:30:10+02:00</time>
      </trkpt>
      <trkpt lat="41.669377000000004" lon="2.0856850000000002">
        <ele>314.0</ele>
        <time>2019-06-09T08:30:11+02:00</time>
      </trkpt>
      <trkpt lat="41.66938334" lon="2.08557334">
        <ele>314.0</ele>
        <time>2019-06-09T08:30:12+02:00</time>
      </trkpt>
      <trkpt lat="41.669401" lon="2.08545167">
        <ele>314.0</ele>
        <time>2019-06-09T08:30:13+02:00</time>
      </trkpt>
      <trkpt lat="41.66947834" lon="2.08533">
        <ele>314.0</ele>
        <time>2019-06-09T08:30:14+02:00</time>
      </trkpt>
      <trkpt lat="41.669518" lon="2.0852116699999996">
        <ele>314.0</ele>
        <time>2019-06-09T08:30:15+02:00</time>
      </trkpt>
      <trkpt lat="41.66954534" lon="2.0850950000000004">
        <ele>314.0</ele>
        <time>2019-06-09T08:30:16+02:00</time>
      </trkpt>
      <trkpt lat="41.66955299999999" lon="2.0849816700000003">
        <ele>316.0</ele>
        <time>2019-06-09T08:30:17+02:00</time>
      </trkpt>
      <trkpt lat="41.669548" lon="2.0848733399999997">
        <ele>316.0</ele>
        <time>2019-06-09T08:30:18+02:00</time>
      </trkpt>
      <trkpt lat="41.669526" lon="2.084775">
        <ele>316.0</ele>
        <time>2019-06-09T08:30:19+02:00</time>
      </trkpt>
      <trkpt lat="41.669444999999996" lon="2.0846833399999998">
        <ele>316.0</ele>
        <time>2019-06-09T08:30:20+02:00</time>
      </trkpt>
      <trkpt lat="41.66939834" lon="2.084585">
        <ele>317.0</ele>
        <time>2019-06-09T08:30:21+02:00</time>
      </trkpt>
      <trkpt lat="41.66936834" lon="2.08448">
        <ele>317.0</ele>
        <time>2019-06-09T08:30:22+02:00</time>
      </trkpt>
      <trkpt lat="41.66934967" lon="2.0843783399999998">
        <ele>318.0</ele>
        <time>2019-06-09T08:30:23+02:00</time>
      </trkpt>
      <trkpt lat="41.66933467" lon="2.0842666700000003">
        <ele>318.0</ele>
        <time>2019-06-09T08:30:24+02:00</time>
      </trkpt>
      <trkpt lat="41.669321000000004" lon="2.08414334">
        <ele>319.0</ele>
        <time>2019-06-09T08:30:25+02:00</time>
      </trkpt>
      <trkpt lat="41.669310669999994" lon="2.08401667">
        <ele>319.0</ele>
        <time>2019-06-09T08:30:26+02:00</time>
      </trkpt>
      <trkpt lat="41.66931134" lon="2.0839000000000003">
        <ele>320.0</ele>
        <time>2019-06-09T08:30:27+02:00</time>
      </trkpt>
      <trkpt lat="41.66932267" lon="2.0837916699999997">
        <ele>320.0</ele>
        <time>2019-06-09T08:30:28+02:00</time>
      </trkpt>
      <trkpt lat="41.66938499999999" lon="2.0836833399999994">
        <ele>321.0</ele>
        <time>2019-06-09T08:30:29+02:00</time>
      </trkpt>
      <trkpt lat="41.66942667" lon="2.083565">
        <ele>321.0</ele>
        <time>2019-06-09T08:30:30+02:00</time>
      </trkpt>
      <trkpt lat="41.66947667000001" lon="2.083455">
        <ele>322.0</ele>
        <time>2019-06-09T08:30:31+02:00</time>
      </trkpt>
      <trkpt lat="41.66953334" lon="2.08336334">
        <ele>322.0</ele>
        <time>2019-06-09T08:30:32+02:00</time>
      </trkpt>
      <trkpt lat="41.66959167000001" lon="2.083295">
        <ele>323.0</ele>
        <time>2019-06-09T08:30:33+02:00</time>
      </trkpt>
      <trkpt lat="41.66965667000001" lon="2.08326334">
        <ele>323.0</ele>
        <time>2019-06-09T08:30:34+02:00</time>
      </trkpt>
      <trkpt lat="41.669723340000004" lon="2.0832599999999997">
        <ele>324.0</ele>
        <time>2019-06-09T08:30:35+02:00</time>
      </trkpt>
      <trkpt lat="41.66979167000001" lon="2.083275">
        <ele>324.0</ele>
        <time>2019-06-09T08:30:36+02:00</time>
      </trkpt>
      <trkpt lat="41.669903340000005" lon="2.08335">
        <ele>325.0</ele>
        <time>2019-06-09T08:30:37+02:00</time>
      </trkpt>
      <trkpt lat="41.669966670000015" lon="2.08332667">
        <ele>325.0</ele>
        <time>2019-06-09T08:30:38+02:00</time>
      </trkpt>
      <trkpt lat="41.670035" lon="2.08327334">
        <ele>326.0</ele>
        <time>2019-06-09T08:30:39+02:00</time>
      </trkpt>
      <trkpt lat="41.67006167000001" lon="2.0832313399999998">
        <ele>326.0</ele>
        <time>2019-06-09T08:30:40+02:00</time>
      </trkpt>
      <trkpt lat="41.670075" lon="2.083174">
        <ele>328.0</ele>
        <time>2019-06-09T08:30:42+02:00</time>
      </trkpt>
      <trkpt lat="41.67005167000001" lon="2.0830599999999997">
        <ele>329.0</ele>
        <time>2019-06-09T08:30:43+02:00</time>
      </trkpt>
      <trkpt lat="41.67002000000001" lon="2.083">
        <ele>329.0</ele>
        <time>2019-06-09T08:30:44+02:00</time>
      </trkpt>
      <trkpt lat="41.669985" lon="2.0829333399999994">
        <ele>330.0</ele>
        <time>2019-06-09T08:30:45+02:00</time>
      </trkpt>
      <trkpt lat="41.66995667" lon="2.082855">
        <ele>330.0</ele>
        <time>2019-06-09T08:30:46+02:00</time>
      </trkpt>
      <trkpt lat="41.66993334000001" lon="2.0827766700000003">
        <ele>331.0</ele>
        <time>2019-06-09T08:30:47+02:00</time>
      </trkpt>
      <trkpt lat="41.669918339999995" lon="2.08268667">
        <ele>331.0</ele>
        <time>2019-06-09T08:30:48+02:00</time>
      </trkpt>
      <trkpt lat="41.66990834" lon="2.08259334">
        <ele>332.0</ele>
        <time>2019-06-09T08:30:49+02:00</time>
      </trkpt>
      <trkpt lat="41.669855670000004" lon="2.08247">
        <ele>332.0</ele>
        <time>2019-06-09T08:30:50+02:00</time>
      </trkpt>
      <trkpt lat="41.66984067" lon="2.08234667">
        <ele>333.0</ele>
        <time>2019-06-09T08:30:51+02:00</time>
      </trkpt>
      <trkpt lat="41.669824" lon="2.08221334">
        <ele>333.0</ele>
        <time>2019-06-09T08:30:52+02:00</time>
      </trkpt>
      <trkpt lat="41.66981" lon="2.08209667">
        <ele>335.0</ele>
        <time>2019-06-09T08:30:53+02:00</time>
      </trkpt>
      <trkpt lat="41.669786" lon="2.0819700000000005">
        <ele>335.0</ele>
        <time>2019-06-09T08:30:54+02:00</time>
      </trkpt>
      <trkpt lat="41.66975899999999" lon="2.0818583399999997">
        <ele>336.0</ele>
        <time>2019-06-09T08:30:55+02:00</time>
      </trkpt>
      <trkpt lat="41.669727" lon="2.08173167">
        <ele>336.0</ele>
        <time>2019-06-09T08:30:56+02:00</time>
      </trkpt>
      <trkpt lat="41.669697670000005" lon="2.0816133399999996">
        <ele>337.0</ele>
        <time>2019-06-09T08:30:57+02:00</time>
      </trkpt>
      <trkpt lat="41.66967734" lon="2.08150167">
        <ele>337.0</ele>
        <time>2019-06-09T08:30:58+02:00</time>
      </trkpt>
      <trkpt lat="41.66966734" lon="2.0813966699999997">
        <ele>339.0</ele>
        <time>2019-06-09T08:30:59+02:00</time>
      </trkpt>
      <trkpt lat="41.669671339999994" lon="2.0813">
        <ele>340.0</ele>
        <time>2019-06-09T08:31:00+02:00</time>
      </trkpt>
      <trkpt lat="41.66977667000001" lon="2.0812033399999996">
        <ele>341.0</ele>
        <time>2019-06-09T08:31:01+02:00</time>
      </trkpt>
      <trkpt lat="41.66981667000001" lon="2.0811116699999994">
        <ele>342.0</ele>
        <time>2019-06-09T08:31:02+02:00</time>
      </trkpt>
      <trkpt lat="41.669858340000005" lon="2.0810183399999995">
        <ele>342.0</ele>
        <time>2019-06-09T08:31:03+02:00</time>
      </trkpt>
      <trkpt lat="41.66990299999999" lon="2.08091">
        <ele>343.0</ele>
        <time>2019-06-09T08:31:04+02:00</time>
      </trkpt>
      <trkpt lat="41.670021" lon="2.08079667">
        <ele>343.0</ele>
        <time>2019-06-09T08:31:05+02:00</time>
      </trkpt>
      <trkpt lat="41.670076339999994" lon="2.0806599999999995">
        <ele>345.0</ele>
        <time>2019-06-09T08:31:06+02:00</time>
      </trkpt>
      <trkpt lat="41.670112" lon="2.0805266700000002">
        <ele>345.0</ele>
        <time>2019-06-09T08:31:07+02:00</time>
      </trkpt>
      <trkpt lat="41.670139" lon="2.080395">
        <ele>346.0</ele>
        <time>2019-06-09T08:31:08+02:00</time>
      </trkpt>
      <trkpt lat="41.670163" lon="2.0802683399999995">
        <ele>347.0</ele>
        <time>2019-06-09T08:31:09+02:00</time>
      </trkpt>
      <trkpt lat="41.670165" lon="2.0800716699999997">
        <ele>348.0</ele>
        <time>2019-06-09T08:31:10+02:00</time>
      </trkpt>
      <trkpt lat="41.67017" lon="2.07994667">
        <ele>349.0</ele>
        <time>2019-06-09T08:31:11+02:00</time>
      </trkpt>
      <trkpt lat="41.67019167" lon="2.079835">
        <ele>350.0</ele>
        <time>2019-06-09T08:31:12+02:00</time>
      </trkpt>
      <trkpt lat="41.670225" lon="2.07973167">
        <ele>351.0</ele>
        <time>2019-06-09T08:31:13+02:00</time>
      </trkpt>
      <trkpt lat="41.670320000000004" lon="2.07964167">
        <ele>352.0</ele>
        <time>2019-06-09T08:31:14+02:00</time>
      </trkpt>
      <trkpt lat="41.670398340000006" lon="2.0795666699999997">
        <ele>352.0</ele>
        <time>2019-06-09T08:31:15+02:00</time>
      </trkpt>
      <trkpt lat="41.67047334" lon="2.07950167">
        <ele>353.0</ele>
        <time>2019-06-09T08:31:16+02:00</time>
      </trkpt>
      <trkpt lat="41.670548" lon="2.07943667">
        <ele>354.0</ele>
        <time>2019-06-09T08:31:17+02:00</time>
      </trkpt>
      <trkpt lat="41.670619669999994" lon="2.0793666699999998">
        <ele>355.0</ele>
        <time>2019-06-09T08:31:18+02:00</time>
      </trkpt>
      <trkpt lat="41.67068867" lon="2.0792916699999995">
        <ele>356.0</ele>
        <time>2019-06-09T08:31:19+02:00</time>
      </trkpt>
      <trkpt lat="41.670755" lon="2.0792233399999995">
        <ele>357.0</ele>
        <time>2019-06-09T08:31:20+02:00</time>
      </trkpt>
      <trkpt lat="41.670815000000005" lon="2.0791666699999998">
        <ele>357.0</ele>
        <time>2019-06-09T08:31:21+02:00</time>
      </trkpt>
      <trkpt lat="41.67085667" lon="2.07912267">
        <ele>358.0</ele>
        <time>2019-06-09T08:31:22+02:00</time>
      </trkpt>
      <trkpt lat="41.670865000000006" lon="2.0790433399999997">
        <ele>360.0</ele>
        <time>2019-06-09T08:31:24+02:00</time>
      </trkpt>
      <trkpt lat="41.67076667" lon="2.0789833399999997">
        <ele>361.0</ele>
        <time>2019-06-09T08:31:25+02:00</time>
      </trkpt>
      <trkpt lat="41.67078299999999" lon="2.0790150000000005">
        <ele>362.0</ele>
        <time>2019-06-09T08:31:26+02:00</time>
      </trkpt>
      <trkpt lat="41.670625" lon="2.0790383400000003">
        <ele>363.0</ele>
        <time>2019-06-09T08:31:28+02:00</time>
      </trkpt>
      <trkpt lat="41.67057667" lon="2.0790216699999995">
        <ele>363.0</ele>
        <time>2019-06-09T08:31:29+02:00</time>
      </trkpt>
      <trkpt lat="41.67052334" lon="2.078982">
        <ele>365.0</ele>
        <time>2019-06-09T08:31:30+02:00</time>
      </trkpt>
      <trkpt lat="41.670485" lon="2.0789413399999996">
        <ele>365.0</ele>
        <time>2019-06-09T08:31:31+02:00</time>
      </trkpt>
      <trkpt lat="41.67044167000001" lon="2.07884667">
        <ele>366.0</ele>
        <time>2019-06-09T08:31:33+02:00</time>
      </trkpt>
      <trkpt lat="41.67040333999999" lon="2.07876367">
        <ele>368.0</ele>
        <time>2019-06-09T08:31:35+02:00</time>
      </trkpt>
      <trkpt lat="41.67037667000001" lon="2.07869334">
        <ele>369.0</ele>
        <time>2019-06-09T08:31:37+02:00</time>
      </trkpt>
      <trkpt lat="41.67035834" lon="2.07861334">
        <ele>370.0</ele>
        <time>2019-06-09T08:31:39+02:00</time>
      </trkpt>
      <trkpt lat="41.670336670000005" lon="2.078535">
        <ele>372.0</ele>
        <time>2019-06-09T08:31:41+02:00</time>
      </trkpt>
      <trkpt lat="41.670323339999996" lon="2.07845167">
        <ele>373.0</ele>
        <time>2019-06-09T08:31:43+02:00</time>
      </trkpt>
      <trkpt lat="41.670311000000005" lon="2.07836334">
        <ele>374.0</ele>
        <time>2019-06-09T08:31:45+02:00</time>
      </trkpt>
      <trkpt lat="41.67030234" lon="2.07828167">
        <ele>375.0</ele>
        <time>2019-06-09T08:31:47+02:00</time>
      </trkpt>
      <trkpt lat="41.67029133999999" lon="2.07818667">
        <ele>376.0</ele>
        <time>2019-06-09T08:31:49+02:00</time>
      </trkpt>
      <trkpt lat="41.67027533999999" lon="2.07807167">
        <ele>377.0</ele>
        <time>2019-06-09T08:31:51+02:00</time>
      </trkpt>
      <trkpt lat="41.670255669999996" lon="2.0779583399999995">
        <ele>377.0</ele>
        <time>2019-06-09T08:31:53+02:00</time>
      </trkpt>
      <trkpt lat="41.67023567" lon="2.0778450000000004">
        <ele>378.0</ele>
        <time>2019-06-09T08:31:55+02:00</time>
      </trkpt>
      <trkpt lat="41.67021234" lon="2.0777366699999997">
        <ele>379.0</ele>
        <time>2019-06-09T08:31:57+02:00</time>
      </trkpt>
      <trkpt lat="41.67018933999999" lon="2.0776233399999997">
        <ele>379.0</ele>
        <time>2019-06-09T08:31:59+02:00</time>
      </trkpt>
      <trkpt lat="41.67017633999999" lon="2.0775633399999998">
        <ele>380.0</ele>
        <time>2019-06-09T08:32:00+02:00</time>
      </trkpt>
      <trkpt lat="41.67016334" lon="2.077508339999999">
        <ele>380.0</ele>
        <time>2019-06-09T08:32:01+02:00</time>
      </trkpt>
      <trkpt lat="41.670137000000004" lon="2.07741334">
        <ele>381.0</ele>
        <time>2019-06-09T08:32:03+02:00</time>
      </trkpt>
      <trkpt lat="41.670103" lon="2.07731834">
        <ele>381.0</ele>
        <time>2019-06-09T08:32:05+02:00</time>
      </trkpt>
      <trkpt lat="41.670066000000006" lon="2.077225">
        <ele>382.0</ele>
        <time>2019-06-09T08:32:07+02:00</time>
      </trkpt>
      <trkpt lat="41.670027" lon="2.07713667">
        <ele>383.0</ele>
        <time>2019-06-09T08:32:09+02:00</time>
      </trkpt>
      <trkpt lat="41.669988339999996" lon="2.0770466699999997">
        <ele>383.0</ele>
        <time>2019-06-09T08:32:11+02:00</time>
      </trkpt>
      <trkpt lat="41.669953" lon="2.0769733399999994">
        <ele>384.0</ele>
        <time>2019-06-09T08:32:13+02:00</time>
      </trkpt>
      <trkpt lat="41.66992834" lon="2.0769183399999998">
        <ele>385.0</ele>
        <time>2019-06-09T08:32:15+02:00</time>
      </trkpt>
      <trkpt lat="41.66989100000001" lon="2.0768333399999994">
        <ele>385.0</ele>
        <time>2019-06-09T08:32:18+02:00</time>
      </trkpt>
      <trkpt lat="41.66986067" lon="2.07675">
        <ele>385.0</ele>
        <time>2019-06-09T08:32:20+02:00</time>
      </trkpt>
      <trkpt lat="41.66982434" lon="2.0766466699999997">
        <ele>385.0</ele>
        <time>2019-06-09T08:32:22+02:00</time>
      </trkpt>
      <trkpt lat="41.669797669999994" lon="2.07657334">
        <ele>385.0</ele>
        <time>2019-06-09T08:32:23+02:00</time>
      </trkpt>
      <trkpt lat="41.66977967000001" lon="2.0765183399999994">
        <ele>385.0</ele>
        <time>2019-06-09T08:32:24+02:00</time>
      </trkpt>
      <trkpt lat="41.669752339999995" lon="2.0764450000000005">
        <ele>385.0</ele>
        <time>2019-06-09T08:32:25+02:00</time>
      </trkpt>
      <trkpt lat="41.669728" lon="2.07637">
        <ele>386.0</ele>
        <time>2019-06-09T08:32:26+02:00</time>
      </trkpt>
      <trkpt lat="41.66970034" lon="2.07629667">
        <ele>386.0</ele>
        <time>2019-06-09T08:32:27+02:00</time>
      </trkpt>
      <trkpt lat="41.669678340000004" lon="2.07623">
        <ele>386.0</ele>
        <time>2019-06-09T08:32:28+02:00</time>
      </trkpt>
      <trkpt lat="41.669658" lon="2.0761683399999997">
        <ele>386.0</ele>
        <time>2019-06-09T08:32:29+02:00</time>
      </trkpt>
      <trkpt lat="41.669633340000004" lon="2.07610667">
        <ele>386.0</ele>
        <time>2019-06-09T08:32:30+02:00</time>
      </trkpt>
      <trkpt lat="41.66961334" lon="2.0760466699999998">
        <ele>387.0</ele>
        <time>2019-06-09T08:32:31+02:00</time>
      </trkpt>
      <trkpt lat="41.669590670000005" lon="2.07599334">
        <ele>387.0</ele>
        <time>2019-06-09T08:32:32+02:00</time>
      </trkpt>
      <trkpt lat="41.669572339999995" lon="2.07594">
        <ele>387.0</ele>
        <time>2019-06-09T08:32:33+02:00</time>
      </trkpt>
      <trkpt lat="41.669534000000006" lon="2.07584167">
        <ele>388.0</ele>
        <time>2019-06-09T08:32:35+02:00</time>
      </trkpt>
      <trkpt lat="41.669498999999995" lon="2.075755">
        <ele>388.0</ele>
        <time>2019-06-09T08:32:37+02:00</time>
      </trkpt>
      <trkpt lat="41.669467999999995" lon="2.075665">
        <ele>388.0</ele>
        <time>2019-06-09T08:32:39+02:00</time>
      </trkpt>
      <trkpt lat="41.669429" lon="2.07556834">
        <ele>389.0</ele>
        <time>2019-06-09T08:32:41+02:00</time>
      </trkpt>
      <trkpt lat="41.669394" lon="2.0754650000000003">
        <ele>389.0</ele>
        <time>2019-06-09T08:32:43+02:00</time>
      </trkpt>
      <trkpt lat="41.669359" lon="2.07536167">
        <ele>389.0</ele>
        <time>2019-06-09T08:32:45+02:00</time>
      </trkpt>
      <trkpt lat="41.66932667" lon="2.0752633400000002">
        <ele>390.0</ele>
        <time>2019-06-09T08:32:47+02:00</time>
      </trkpt>
      <trkpt lat="41.66930133999999" lon="2.0751666699999993">
        <ele>390.0</ele>
        <time>2019-06-09T08:32:49+02:00</time>
      </trkpt>
      <trkpt lat="41.669278670000004" lon="2.07507334">
        <ele>390.0</ele>
        <time>2019-06-09T08:32:51+02:00</time>
      </trkpt>
      <trkpt lat="41.66925834" lon="2.0749816700000006">
        <ele>391.0</ele>
        <time>2019-06-09T08:32:53+02:00</time>
      </trkpt>
      <trkpt lat="41.66938667000001" lon="2.0748966699999998">
        <ele>391.0</ele>
        <time>2019-06-09T08:32:55+02:00</time>
      </trkpt>
      <trkpt lat="41.66943" lon="2.074815">
        <ele>391.0</ele>
        <time>2019-06-09T08:32:57+02:00</time>
      </trkpt>
      <trkpt lat="41.66947999999999" lon="2.0747366699999996">
        <ele>391.0</ele>
        <time>2019-06-09T08:32:59+02:00</time>
      </trkpt>
      <trkpt lat="41.669531670000005" lon="2.0746700000000002">
        <ele>391.0</ele>
        <time>2019-06-09T08:33:01+02:00</time>
      </trkpt>
      <trkpt lat="41.66958133999999" lon="2.074605">
        <ele>391.0</ele>
        <time>2019-06-09T08:33:03+02:00</time>
      </trkpt>
      <trkpt lat="41.66965167" lon="2.07453834">
        <ele>391.0</ele>
        <time>2019-06-09T08:33:05+02:00</time>
      </trkpt>
      <trkpt lat="41.66971667000001" lon="2.0744700000000003">
        <ele>391.0</ele>
        <time>2019-06-09T08:33:07+02:00</time>
      </trkpt>
      <trkpt lat="41.669751670000004" lon="2.07443">
        <ele>391.0</ele>
        <time>2019-06-09T08:33:08+02:00</time>
      </trkpt>
      <trkpt lat="41.66978667" lon="2.0743843399999995">
        <ele>391.0</ele>
        <time>2019-06-09T08:33:09+02:00</time>
      </trkpt>
      <trkpt lat="41.66982" lon="2.074335">
        <ele>391.0</ele>
        <time>2019-06-09T08:33:10+02:00</time>
      </trkpt>
      <trkpt lat="41.669846670000005" lon="2.07427334">
        <ele>391.0</ele>
        <time>2019-06-09T08:33:11+02:00</time>
      </trkpt>
      <trkpt lat="41.66986667" lon="2.07421">
        <ele>390.0</ele>
        <time>2019-06-09T08:33:12+02:00</time>
      </trkpt>
      <trkpt lat="41.66986834000001" lon="2.0741366699999997">
        <ele>390.0</ele>
        <time>2019-06-09T08:33:13+02:00</time>
      </trkpt>
      <trkpt lat="41.669846670000005" lon="2.0740666699999997">
        <ele>390.0</ele>
        <time>2019-06-09T08:33:14+02:00</time>
      </trkpt>
      <trkpt lat="41.66981834" lon="2.07400834">
        <ele>390.0</ele>
        <time>2019-06-09T08:33:15+02:00</time>
      </trkpt>
      <trkpt lat="41.66978" lon="2.0739483400000003">
        <ele>390.0</ele>
        <time>2019-06-09T08:33:16+02:00</time>
      </trkpt>
      <trkpt lat="41.669743340000004" lon="2.07388667">
        <ele>390.0</ele>
        <time>2019-06-09T08:33:17+02:00</time>
      </trkpt>
      <trkpt lat="41.66970667" lon="2.07382667">
        <ele>390.0</ele>
        <time>2019-06-09T08:33:18+02:00</time>
      </trkpt>
      <trkpt lat="41.66967667" lon="2.07376834">
        <ele>390.0</ele>
        <time>2019-06-09T08:33:19+02:00</time>
      </trkpt>
      <trkpt lat="41.669650000000004" lon="2.07371334">
        <ele>390.0</ele>
        <time>2019-06-09T08:33:20+02:00</time>
      </trkpt>
      <trkpt lat="41.669633340000004" lon="2.0736549999999996">
        <ele>390.0</ele>
        <time>2019-06-09T08:33:21+02:00</time>
      </trkpt>
      <trkpt lat="41.669614" lon="2.07354834">
        <ele>390.0</ele>
        <time>2019-06-09T08:33:23+02:00</time>
      </trkpt>
      <trkpt lat="41.669602999999995" lon="2.07344334">
        <ele>391.0</ele>
        <time>2019-06-09T08:33:25+02:00</time>
      </trkpt>
      <trkpt lat="41.66962" lon="2.07333834">
        <ele>391.0</ele>
        <time>2019-06-09T08:33:27+02:00</time>
      </trkpt>
      <trkpt lat="41.669655" lon="2.073245">
        <ele>391.0</ele>
        <time>2019-06-09T08:33:29+02:00</time>
      </trkpt>
      <trkpt lat="41.66970834" lon="2.0731683399999996">
        <ele>391.0</ele>
        <time>2019-06-09T08:33:31+02:00</time>
      </trkpt>
      <trkpt lat="41.66976667000001" lon="2.0731033399999994">
        <ele>391.0</ele>
        <time>2019-06-09T08:33:33+02:00</time>
      </trkpt>
      <trkpt lat="41.66983167" lon="2.07304334">
        <ele>391.0</ele>
        <time>2019-06-09T08:33:35+02:00</time>
      </trkpt>
      <trkpt lat="41.669889999999995" lon="2.0729783399999997">
        <ele>391.0</ele>
        <time>2019-06-09T08:33:37+02:00</time>
      </trkpt>
      <trkpt lat="41.669939670000005" lon="2.07290334">
        <ele>391.0</ele>
        <time>2019-06-09T08:33:39+02:00</time>
      </trkpt>
      <trkpt lat="41.66998367" lon="2.07281167">
        <ele>391.0</ele>
        <time>2019-06-09T08:33:41+02:00</time>
      </trkpt>
      <trkpt lat="41.670021" lon="2.0727083399999997">
        <ele>391.0</ele>
        <time>2019-06-09T08:33:43+02:00</time>
      </trkpt>
      <trkpt lat="41.67005367" lon="2.0725950000000006">
        <ele>391.0</ele>
        <time>2019-06-09T08:33:45+02:00</time>
      </trkpt>
      <trkpt lat="41.67006567" lon="2.072535">
        <ele>391.0</ele>
        <time>2019-06-09T08:33:46+02:00</time>
      </trkpt>
      <trkpt lat="41.67008" lon="2.07247">
        <ele>391.0</ele>
        <time>2019-06-09T08:33:47+02:00</time>
      </trkpt>
      <trkpt lat="41.670095" lon="2.07240667">
        <ele>391.0</ele>
        <time>2019-06-09T08:33:48+02:00</time>
      </trkpt>
      <trkpt lat="41.67011133999999" lon="2.0723483399999996">
        <ele>391.0</ele>
        <time>2019-06-09T08:33:49+02:00</time>
      </trkpt>
      <trkpt lat="41.670128999999996" lon="2.0722933399999994">
        <ele>391.0</ele>
        <time>2019-06-09T08:33:50+02:00</time>
      </trkpt>
      <trkpt lat="41.67014834" lon="2.07225">
        <ele>391.0</ele>
        <time>2019-06-09T08:33:51+02:00</time>
      </trkpt>
      <trkpt lat="41.670169" lon="2.07221834">
        <ele>391.0</ele>
        <time>2019-06-09T08:33:52+02:00</time>
      </trkpt>
      <trkpt lat="41.67019067" lon="2.07219667">
        <ele>391.0</ele>
        <time>2019-06-09T08:33:53+02:00</time>
      </trkpt>
      <trkpt lat="41.67030000000001" lon="2.0721883399999994">
        <ele>391.0</ele>
        <time>2019-06-09T08:33:54+02:00</time>
      </trkpt>
      <trkpt lat="41.67035167" lon="2.07218667">
        <ele>391.0</ele>
        <time>2019-06-09T08:33:55+02:00</time>
      </trkpt>
      <trkpt lat="41.67040167000001" lon="2.0721933399999997">
        <ele>391.0</ele>
        <time>2019-06-09T08:33:56+02:00</time>
      </trkpt>
      <trkpt lat="41.670453339999995" lon="2.0721999999999996">
        <ele>391.0</ele>
        <time>2019-06-09T08:33:57+02:00</time>
      </trkpt>
      <trkpt lat="41.67050167000001" lon="2.07220667">
        <ele>392.0</ele>
        <time>2019-06-09T08:33:58+02:00</time>
      </trkpt>
      <trkpt lat="41.670550000000006" lon="2.0722116699999997">
        <ele>392.0</ele>
        <time>2019-06-09T08:33:59+02:00</time>
      </trkpt>
      <trkpt lat="41.67060334" lon="2.0722200000000006">
        <ele>392.0</ele>
        <time>2019-06-09T08:34:00+02:00</time>
      </trkpt>
      <trkpt lat="41.670715" lon="2.0722383399999997">
        <ele>392.0</ele>
        <time>2019-06-09T08:34:01+02:00</time>
      </trkpt>
      <trkpt lat="41.67077167000001" lon="2.07225367">
        <ele>392.0</ele>
        <time>2019-06-09T08:34:02+02:00</time>
      </trkpt>
      <trkpt lat="41.67083167" lon="2.0722763399999997">
        <ele>393.0</ele>
        <time>2019-06-09T08:34:03+02:00</time>
      </trkpt>
      <trkpt lat="41.67089167" lon="2.0723066699999997">
        <ele>393.0</ele>
        <time>2019-06-09T08:34:04+02:00</time>
      </trkpt>
      <trkpt lat="41.670955000000006" lon="2.07235334">
        <ele>393.0</ele>
        <time>2019-06-09T08:34:05+02:00</time>
      </trkpt>
      <trkpt lat="41.671015" lon="2.0723933399999996">
        <ele>393.0</ele>
        <time>2019-06-09T08:34:06+02:00</time>
      </trkpt>
      <trkpt lat="41.671078339999994" lon="2.0724299999999998">
        <ele>394.0</ele>
        <time>2019-06-09T08:34:07+02:00</time>
      </trkpt>
      <trkpt lat="41.67114167000001" lon="2.0724690000000003">
        <ele>394.0</ele>
        <time>2019-06-09T08:34:08+02:00</time>
      </trkpt>
      <trkpt lat="41.67120833999999" lon="2.07250634">
        <ele>394.0</ele>
        <time>2019-06-09T08:34:09+02:00</time>
      </trkpt>
      <trkpt lat="41.67132667" lon="2.0725613399999996">
        <ele>394.0</ele>
        <time>2019-06-09T08:34:10+02:00</time>
      </trkpt>
      <trkpt lat="41.67141334" lon="2.07260067">
        <ele>395.0</ele>
        <time>2019-06-09T08:34:11+02:00</time>
      </trkpt>
      <trkpt lat="41.671483339999995" lon="2.072632">
        <ele>395.0</ele>
        <time>2019-06-09T08:34:12+02:00</time>
      </trkpt>
      <trkpt lat="41.671544999999995" lon="2.0726696700000002">
        <ele>396.0</ele>
        <time>2019-06-09T08:34:13+02:00</time>
      </trkpt>
      <trkpt lat="41.671616670000006" lon="2.07271567">
        <ele>396.0</ele>
        <time>2019-06-09T08:34:14+02:00</time>
      </trkpt>
      <trkpt lat="41.67168834" lon="2.072761">
        <ele>396.0</ele>
        <time>2019-06-09T08:34:15+02:00</time>
      </trkpt>
      <trkpt lat="41.671761669999995" lon="2.07279934">
        <ele>397.0</ele>
        <time>2019-06-09T08:34:16+02:00</time>
      </trkpt>
      <trkpt lat="41.67183" lon="2.0728313399999996">
        <ele>397.0</ele>
        <time>2019-06-09T08:34:17+02:00</time>
      </trkpt>
      <trkpt lat="41.671901670000004" lon="2.0728603400000005">
        <ele>397.0</ele>
        <time>2019-06-09T08:34:18+02:00</time>
      </trkpt>
      <trkpt lat="41.67196834" lon="2.0728873400000003">
        <ele>398.0</ele>
        <time>2019-06-09T08:34:19+02:00</time>
      </trkpt>
      <trkpt lat="41.67202667" lon="2.07291167">
        <ele>398.0</ele>
        <time>2019-06-09T08:34:20+02:00</time>
      </trkpt>
      <trkpt lat="41.67207833999999" lon="2.072929">
        <ele>398.0</ele>
        <time>2019-06-09T08:34:21+02:00</time>
      </trkpt>
      <trkpt lat="41.672138340000004" lon="2.0729466699999994">
        <ele>398.0</ele>
        <time>2019-06-09T08:34:22+02:00</time>
      </trkpt>
      <trkpt lat="41.67221334" lon="2.072966">
        <ele>399.0</ele>
        <time>2019-06-09T08:34:24+02:00</time>
      </trkpt>
      <trkpt lat="41.67221334" lon="2.0728316700000002">
        <ele>399.0</ele>
        <time>2019-06-09T08:34:26+02:00</time>
      </trkpt>
      <trkpt lat="41.672185" lon="2.07272834">
        <ele>400.0</ele>
        <time>2019-06-09T08:34:28+02:00</time>
      </trkpt>
      <trkpt lat="41.67214834" lon="2.07261834">
        <ele>401.0</ele>
        <time>2019-06-09T08:34:30+02:00</time>
      </trkpt>
      <trkpt lat="41.67212000000001" lon="2.0725166699999997">
        <ele>401.0</ele>
        <time>2019-06-09T08:34:32+02:00</time>
      </trkpt>
      <trkpt lat="41.672095" lon="2.072405">
        <ele>402.0</ele>
        <time>2019-06-09T08:34:34+02:00</time>
      </trkpt>
      <trkpt lat="41.67207334" lon="2.0723083399999997">
        <ele>402.0</ele>
        <time>2019-06-09T08:34:36+02:00</time>
      </trkpt>
      <trkpt lat="41.67205167" lon="2.07221">
        <ele>402.0</ele>
        <time>2019-06-09T08:34:38+02:00</time>
      </trkpt>
      <trkpt lat="41.67203867" lon="2.0721183400000003">
        <ele>403.0</ele>
        <time>2019-06-09T08:34:40+02:00</time>
      </trkpt>
      <trkpt lat="41.67203267" lon="2.0720333399999995">
        <ele>403.0</ele>
        <time>2019-06-09T08:34:42+02:00</time>
      </trkpt>
      <trkpt lat="41.672027" lon="2.071935">
        <ele>403.0</ele>
        <time>2019-06-09T08:34:44+02:00</time>
      </trkpt>
      <trkpt lat="41.67202467" lon="2.0718400000000003">
        <ele>403.0</ele>
        <time>2019-06-09T08:34:46+02:00</time>
      </trkpt>
      <trkpt lat="41.67202433999999" lon="2.0717400000000006">
        <ele>403.0</ele>
        <time>2019-06-09T08:34:48+02:00</time>
      </trkpt>
      <trkpt lat="41.672022000000005" lon="2.071645">
        <ele>403.0</ele>
        <time>2019-06-09T08:34:50+02:00</time>
      </trkpt>
      <trkpt lat="41.67201134" lon="2.0715583399999997">
        <ele>404.0</ele>
        <time>2019-06-09T08:34:52+02:00</time>
      </trkpt>
      <trkpt lat="41.671994" lon="2.07147167">
        <ele>404.0</ele>
        <time>2019-06-09T08:34:54+02:00</time>
      </trkpt>
      <trkpt lat="41.671928339999994" lon="2.071395">
        <ele>404.0</ele>
        <time>2019-06-09T08:34:56+02:00</time>
      </trkpt>
      <trkpt lat="41.67188" lon="2.07132334">
        <ele>404.0</ele>
        <time>2019-06-09T08:34:58+02:00</time>
      </trkpt>
      <trkpt lat="41.671835" lon="2.071255">
        <ele>404.0</ele>
        <time>2019-06-09T08:35:00+02:00</time>
      </trkpt>
      <trkpt lat="41.671791" lon="2.0711833399999997">
        <ele>404.0</ele>
        <time>2019-06-09T08:35:02+02:00</time>
      </trkpt>
      <trkpt lat="41.671752" lon="2.07110834">
        <ele>404.0</ele>
        <time>2019-06-09T08:35:04+02:00</time>
      </trkpt>
      <trkpt lat="41.67171334000001" lon="2.0710349999999997">
        <ele>404.0</ele>
        <time>2019-06-09T08:35:06+02:00</time>
      </trkpt>
      <trkpt lat="41.671674339999996" lon="2.07095667">
        <ele>404.0</ele>
        <time>2019-06-09T08:35:08+02:00</time>
      </trkpt>
      <trkpt lat="41.671641" lon="2.0708816699999995">
        <ele>404.0</ele>
        <time>2019-06-09T08:35:10+02:00</time>
      </trkpt>
      <trkpt lat="41.67161234" lon="2.070795">
        <ele>404.0</ele>
        <time>2019-06-09T08:35:12+02:00</time>
      </trkpt>
      <trkpt lat="41.671589000000004" lon="2.0707133399999997">
        <ele>404.0</ele>
        <time>2019-06-09T08:35:14+02:00</time>
      </trkpt>
      <trkpt lat="41.671567" lon="2.070625">
        <ele>404.0</ele>
        <time>2019-06-09T08:35:16+02:00</time>
      </trkpt>
      <trkpt lat="41.67154467" lon="2.0705266700000005">
        <ele>404.0</ele>
        <time>2019-06-09T08:35:18+02:00</time>
      </trkpt>
      <trkpt lat="41.67151833999999" lon="2.0704216699999995">
        <ele>404.0</ele>
        <time>2019-06-09T08:35:20+02:00</time>
      </trkpt>
      <trkpt lat="41.671490000000006" lon="2.0703183399999996">
        <ele>404.0</ele>
        <time>2019-06-09T08:35:22+02:00</time>
      </trkpt>
      <trkpt lat="41.67145834" lon="2.0702083399999998">
        <ele>404.0</ele>
        <time>2019-06-09T08:35:24+02:00</time>
      </trkpt>
      <trkpt lat="41.671444" lon="2.0701466699999997">
        <ele>404.0</ele>
        <time>2019-06-09T08:35:25+02:00</time>
      </trkpt>
      <trkpt lat="41.67143334000001" lon="2.0700833399999996">
        <ele>404.0</ele>
        <time>2019-06-09T08:35:26+02:00</time>
      </trkpt>
      <trkpt lat="41.67147999999999" lon="2.0699650000000003">
        <ele>404.0</ele>
        <time>2019-06-09T08:35:28+02:00</time>
      </trkpt>
      <trkpt lat="41.671455" lon="2.0698650000000005">
        <ele>404.0</ele>
        <time>2019-06-09T08:35:30+02:00</time>
      </trkpt>
      <trkpt lat="41.671406000000005" lon="2.06977334">
        <ele>404.0</ele>
        <time>2019-06-09T08:35:32+02:00</time>
      </trkpt>
      <trkpt lat="41.671375999999995" lon="2.0696666699999997">
        <ele>404.0</ele>
        <time>2019-06-09T08:35:34+02:00</time>
      </trkpt>
      <trkpt lat="41.67137334" lon="2.0695783399999996">
        <ele>403.0</ele>
        <time>2019-06-09T08:35:36+02:00</time>
      </trkpt>
      <trkpt lat="41.671416670000006" lon="2.0694983399999995">
        <ele>403.0</ele>
        <time>2019-06-09T08:35:38+02:00</time>
      </trkpt>
      <trkpt lat="41.67142467" lon="2.0694066700000002">
        <ele>403.0</ele>
        <time>2019-06-09T08:35:40+02:00</time>
      </trkpt>
      <trkpt lat="41.671425" lon="2.069335">
        <ele>403.0</ele>
        <time>2019-06-09T08:35:42+02:00</time>
      </trkpt>
      <trkpt lat="41.671412" lon="2.0692733399999996">
        <ele>403.0</ele>
        <time>2019-06-09T08:35:44+02:00</time>
      </trkpt>
      <trkpt lat="41.671371670000006" lon="2.069195">
        <ele>402.0</ele>
        <time>2019-06-09T08:35:46+02:00</time>
      </trkpt>
      <trkpt lat="41.67136834" lon="2.069115">
        <ele>402.0</ele>
        <time>2019-06-09T08:35:48+02:00</time>
      </trkpt>
      <trkpt lat="41.671346670000005" lon="2.0690549999999996">
        <ele>402.0</ele>
        <time>2019-06-09T08:35:50+02:00</time>
      </trkpt>
      <trkpt lat="41.671296670000004" lon="2.068995">
        <ele>402.0</ele>
        <time>2019-06-09T08:35:52+02:00</time>
      </trkpt>
      <trkpt lat="41.67123834" lon="2.0689349999999997">
        <ele>402.0</ele>
        <time>2019-06-09T08:35:54+02:00</time>
      </trkpt>
      <trkpt lat="41.671195" lon="2.0689">
        <ele>402.0</ele>
        <time>2019-06-09T08:35:55+02:00</time>
      </trkpt>
      <trkpt lat="41.67114834" lon="2.0688616699999995">
        <ele>402.0</ele>
        <time>2019-06-09T08:35:56+02:00</time>
      </trkpt>
      <trkpt lat="41.67109667000001" lon="2.068815">
        <ele>402.0</ele>
        <time>2019-06-09T08:35:57+02:00</time>
      </trkpt>
      <trkpt lat="41.67105334" lon="2.0687616699999998">
        <ele>402.0</ele>
        <time>2019-06-09T08:35:58+02:00</time>
      </trkpt>
      <trkpt lat="41.67103" lon="2.06870667">
        <ele>402.0</ele>
        <time>2019-06-09T08:35:59+02:00</time>
      </trkpt>
      <trkpt lat="41.67103467" lon="2.0686033399999997">
        <ele>402.0</ele>
        <time>2019-06-09T08:36:01+02:00</time>
      </trkpt>
      <trkpt lat="41.671099999999996" lon="2.068545">
        <ele>402.0</ele>
        <time>2019-06-09T08:36:03+02:00</time>
      </trkpt>
      <trkpt lat="41.67118667000001" lon="2.06854667">
        <ele>402.0</ele>
        <time>2019-06-09T08:36:05+02:00</time>
      </trkpt>
      <trkpt lat="41.67123334" lon="2.06856334">
        <ele>402.0</ele>
        <time>2019-06-09T08:36:06+02:00</time>
      </trkpt>
      <trkpt lat="41.67128334" lon="2.0685833399999995">
        <ele>402.0</ele>
        <time>2019-06-09T08:36:07+02:00</time>
      </trkpt>
      <trkpt lat="41.67133834" lon="2.0686066700000003">
        <ele>402.0</ele>
        <time>2019-06-09T08:36:08+02:00</time>
      </trkpt>
      <trkpt lat="41.671393339999995" lon="2.06862667">
        <ele>402.0</ele>
        <time>2019-06-09T08:36:09+02:00</time>
      </trkpt>
      <trkpt lat="41.671455" lon="2.06863167">
        <ele>402.0</ele>
        <time>2019-06-09T08:36:10+02:00</time>
      </trkpt>
      <trkpt lat="41.67151667" lon="2.0686216699999997">
        <ele>402.0</ele>
        <time>2019-06-09T08:36:11+02:00</time>
      </trkpt>
      <trkpt lat="41.671571670000006" lon="2.0685996700000002">
        <ele>402.0</ele>
        <time>2019-06-09T08:36:12+02:00</time>
      </trkpt>
      <trkpt lat="41.67161333999999" lon="2.06856634">
        <ele>402.0</ele>
        <time>2019-06-09T08:36:13+02:00</time>
      </trkpt>
      <trkpt lat="41.67164167000001" lon="2.0685283399999994">
        <ele>402.0</ele>
        <time>2019-06-09T08:36:14+02:00</time>
      </trkpt>
      <trkpt lat="41.67165834000001" lon="2.0684433399999995">
        <ele>403.0</ele>
        <time>2019-06-09T08:36:15+02:00</time>
      </trkpt>
      <trkpt lat="41.671665000000004" lon="2.0683800000000003">
        <ele>403.0</ele>
        <time>2019-06-09T08:36:16+02:00</time>
      </trkpt>
      <trkpt lat="41.671665000000004" lon="2.0683166699999997">
        <ele>403.0</ele>
        <time>2019-06-09T08:36:17+02:00</time>
      </trkpt>
      <trkpt lat="41.671663339999995" lon="2.06825167">
        <ele>403.0</ele>
        <time>2019-06-09T08:36:18+02:00</time>
      </trkpt>
      <trkpt lat="41.67165999999999" lon="2.0681916699999996">
        <ele>403.0</ele>
        <time>2019-06-09T08:36:19+02:00</time>
      </trkpt>
      <trkpt lat="41.67165167000001" lon="2.0681316699999996">
        <ele>403.0</ele>
        <time>2019-06-09T08:36:20+02:00</time>
      </trkpt>
      <trkpt lat="41.67163834" lon="2.0680116699999997">
        <ele>403.0</ele>
        <time>2019-06-09T08:36:22+02:00</time>
      </trkpt>
      <trkpt lat="41.67162999999999" lon="2.0679516700000002">
        <ele>404.0</ele>
        <time>2019-06-09T08:36:23+02:00</time>
      </trkpt>
      <trkpt lat="41.671620000000004" lon="2.06788834">
        <ele>404.0</ele>
        <time>2019-06-09T08:36:24+02:00</time>
      </trkpt>
      <trkpt lat="41.67161333999999" lon="2.06782667">
        <ele>404.0</ele>
        <time>2019-06-09T08:36:25+02:00</time>
      </trkpt>
      <trkpt lat="41.671602670000006" lon="2.06776667">
        <ele>404.0</ele>
        <time>2019-06-09T08:36:26+02:00</time>
      </trkpt>
      <trkpt lat="41.67158867" lon="2.06770667">
        <ele>404.0</ele>
        <time>2019-06-09T08:36:27+02:00</time>
      </trkpt>
      <trkpt lat="41.671564000000004" lon="2.0675966699999995">
        <ele>404.0</ele>
        <time>2019-06-09T08:36:29+02:00</time>
      </trkpt>
      <trkpt lat="41.67154033999999" lon="2.06749334">
        <ele>405.0</ele>
        <time>2019-06-09T08:36:31+02:00</time>
      </trkpt>
      <trkpt lat="41.67152133999999" lon="2.06739667">
        <ele>405.0</ele>
        <time>2019-06-09T08:36:33+02:00</time>
      </trkpt>
      <trkpt lat="41.671508669999994" lon="2.06731167">
        <ele>405.0</ele>
        <time>2019-06-09T08:36:35+02:00</time>
      </trkpt>
      <trkpt lat="41.671504670000004" lon="2.0672333399999996">
        <ele>405.0</ele>
        <time>2019-06-09T08:36:37+02:00</time>
      </trkpt>
      <trkpt lat="41.67154167" lon="2.0671583399999998">
        <ele>406.0</ele>
        <time>2019-06-09T08:36:39+02:00</time>
      </trkpt>
      <trkpt lat="41.67158667" lon="2.067105">
        <ele>406.0</ele>
        <time>2019-06-09T08:36:41+02:00</time>
      </trkpt>
      <trkpt lat="41.67164333999999" lon="2.0670650000000004">
        <ele>406.0</ele>
        <time>2019-06-09T08:36:43+02:00</time>
      </trkpt>
      <trkpt lat="41.671706670000006" lon="2.06702167">
        <ele>406.0</ele>
        <time>2019-06-09T08:36:45+02:00</time>
      </trkpt>
      <trkpt lat="41.67176499999999" lon="2.06696334">
        <ele>406.0</ele>
        <time>2019-06-09T08:36:47+02:00</time>
      </trkpt>
      <trkpt lat="41.671811670000004" lon="2.06688167">
        <ele>406.0</ele>
        <time>2019-06-09T08:36:49+02:00</time>
      </trkpt>
      <trkpt lat="41.67184633999999" lon="2.066785">
        <ele>406.0</ele>
        <time>2019-06-09T08:36:51+02:00</time>
      </trkpt>
      <trkpt lat="41.671874339999995" lon="2.0666900000000004">
        <ele>406.0</ele>
        <time>2019-06-09T08:36:53+02:00</time>
      </trkpt>
      <trkpt lat="41.67189967" lon="2.0665950000000004">
        <ele>405.0</ele>
        <time>2019-06-09T08:36:55+02:00</time>
      </trkpt>
      <trkpt lat="41.671926" lon="2.0664949999999997">
        <ele>405.0</ele>
        <time>2019-06-09T08:36:57+02:00</time>
      </trkpt>
      <trkpt lat="41.671947339999996" lon="2.0663966699999996">
        <ele>405.0</ele>
        <time>2019-06-09T08:36:59+02:00</time>
      </trkpt>
      <trkpt lat="41.671968670000005" lon="2.0663033399999997">
        <ele>405.0</ele>
        <time>2019-06-09T08:37:01+02:00</time>
      </trkpt>
      <trkpt lat="41.67198634" lon="2.06620667">
        <ele>405.0</ele>
        <time>2019-06-09T08:37:03+02:00</time>
      </trkpt>
      <trkpt lat="41.672002000000006" lon="2.0661150000000004">
        <ele>405.0</ele>
        <time>2019-06-09T08:37:05+02:00</time>
      </trkpt>
      <trkpt lat="41.672014000000004" lon="2.06602334">
        <ele>405.0</ele>
        <time>2019-06-09T08:37:07+02:00</time>
      </trkpt>
      <trkpt lat="41.67202267" lon="2.06593667">
        <ele>405.0</ele>
        <time>2019-06-09T08:37:09+02:00</time>
      </trkpt>
      <trkpt lat="41.672028669999996" lon="2.0658483399999996">
        <ele>405.0</ele>
        <time>2019-06-09T08:37:11+02:00</time>
      </trkpt>
      <trkpt lat="41.67202967" lon="2.06576334">
        <ele>405.0</ele>
        <time>2019-06-09T08:37:13+02:00</time>
      </trkpt>
      <trkpt lat="41.67203167000001" lon="2.065675">
        <ele>405.0</ele>
        <time>2019-06-09T08:37:15+02:00</time>
      </trkpt>
      <trkpt lat="41.672034999999994" lon="2.0655783399999996">
        <ele>405.0</ele>
        <time>2019-06-09T08:37:17+02:00</time>
      </trkpt>
      <trkpt lat="41.672037339999996" lon="2.06547667">
        <ele>405.0</ele>
        <time>2019-06-09T08:37:19+02:00</time>
      </trkpt>
      <trkpt lat="41.672037" lon="2.065385">
        <ele>404.0</ele>
        <time>2019-06-09T08:37:21+02:00</time>
      </trkpt>
      <trkpt lat="41.672034999999994" lon="2.065295">
        <ele>404.0</ele>
        <time>2019-06-09T08:37:23+02:00</time>
      </trkpt>
      <trkpt lat="41.67203933999999" lon="2.06521">
        <ele>404.0</ele>
        <time>2019-06-09T08:37:25+02:00</time>
      </trkpt>
      <trkpt lat="41.67205167" lon="2.06515">
        <ele>404.0</ele>
        <time>2019-06-09T08:37:27+02:00</time>
      </trkpt>
      <trkpt lat="41.67210333999999" lon="2.0651249999999997">
        <ele>404.0</ele>
        <time>2019-06-09T08:37:29+02:00</time>
      </trkpt>
      <trkpt lat="41.67216" lon="2.0651233399999995">
        <ele>404.0</ele>
        <time>2019-06-09T08:37:31+02:00</time>
      </trkpt>
      <trkpt lat="41.67222167000001" lon="2.06512834">
        <ele>404.0</ele>
        <time>2019-06-09T08:37:33+02:00</time>
      </trkpt>
      <trkpt lat="41.672290000000004" lon="2.06513">
        <ele>404.0</ele>
        <time>2019-06-09T08:37:35+02:00</time>
      </trkpt>
      <trkpt lat="41.67235834" lon="2.0651216699999995">
        <ele>403.0</ele>
        <time>2019-06-09T08:37:37+02:00</time>
      </trkpt>
      <trkpt lat="41.672416670000004" lon="2.0651106699999997">
        <ele>403.0</ele>
        <time>2019-06-09T08:37:39+02:00</time>
      </trkpt>
      <trkpt lat="41.67247667" lon="2.06509567">
        <ele>403.0</ele>
        <time>2019-06-09T08:37:41+02:00</time>
      </trkpt>
      <trkpt lat="41.67253667" lon="2.065077">
        <ele>403.0</ele>
        <time>2019-06-09T08:37:43+02:00</time>
      </trkpt>
      <trkpt lat="41.672593340000006" lon="2.0650506699999998">
        <ele>402.0</ele>
        <time>2019-06-09T08:37:45+02:00</time>
      </trkpt>
      <trkpt lat="41.67266334" lon="2.06502067">
        <ele>402.0</ele>
        <time>2019-06-09T08:37:47+02:00</time>
      </trkpt>
      <trkpt lat="41.67274167000001" lon="2.06499467">
        <ele>402.0</ele>
        <time>2019-06-09T08:37:49+02:00</time>
      </trkpt>
      <trkpt lat="41.672828339999995" lon="2.06497667">
        <ele>402.0</ele>
        <time>2019-06-09T08:37:51+02:00</time>
      </trkpt>
      <trkpt lat="41.67291999999999" lon="2.06496867">
        <ele>402.0</ele>
        <time>2019-06-09T08:37:53+02:00</time>
      </trkpt>
      <trkpt lat="41.67296667000001" lon="2.06497167">
        <ele>402.0</ele>
        <time>2019-06-09T08:37:54+02:00</time>
      </trkpt>
      <trkpt lat="41.67301667" lon="2.064974">
        <ele>402.0</ele>
        <time>2019-06-09T08:37:55+02:00</time>
      </trkpt>
      <trkpt lat="41.67306834" lon="2.064977">
        <ele>402.0</ele>
        <time>2019-06-09T08:37:56+02:00</time>
      </trkpt>
      <trkpt lat="41.67312" lon="2.06497934">
        <ele>402.0</ele>
        <time>2019-06-09T08:37:57+02:00</time>
      </trkpt>
      <trkpt lat="41.67317333999999" lon="2.06498267">
        <ele>402.0</ele>
        <time>2019-06-09T08:37:58+02:00</time>
      </trkpt>
      <trkpt lat="41.67323167000001" lon="2.06498234">
        <ele>402.0</ele>
        <time>2019-06-09T08:37:59+02:00</time>
      </trkpt>
      <trkpt lat="41.67328834" lon="2.0649806699999997">
        <ele>402.0</ele>
        <time>2019-06-09T08:38:00+02:00</time>
      </trkpt>
      <trkpt lat="41.673345" lon="2.06497934">
        <ele>402.0</ele>
        <time>2019-06-09T08:38:01+02:00</time>
      </trkpt>
      <trkpt lat="41.673406670000006" lon="2.06497534">
        <ele>402.0</ele>
        <time>2019-06-09T08:38:02+02:00</time>
      </trkpt>
      <trkpt lat="41.67346667" lon="2.0649693399999998">
        <ele>402.0</ele>
        <time>2019-06-09T08:38:03+02:00</time>
      </trkpt>
      <trkpt lat="41.673525" lon="2.064966">
        <ele>403.0</ele>
        <time>2019-06-09T08:38:04+02:00</time>
      </trkpt>
      <trkpt lat="41.673581670000004" lon="2.06496034">
        <ele>403.0</ele>
        <time>2019-06-09T08:38:05+02:00</time>
      </trkpt>
      <trkpt lat="41.67363834" lon="2.06495467">
        <ele>403.0</ele>
        <time>2019-06-09T08:38:06+02:00</time>
      </trkpt>
      <trkpt lat="41.673691670000004" lon="2.0649489999999995">
        <ele>403.0</ele>
        <time>2019-06-09T08:38:07+02:00</time>
      </trkpt>
      <trkpt lat="41.673745" lon="2.0649396700000002">
        <ele>403.0</ele>
        <time>2019-06-09T08:38:08+02:00</time>
      </trkpt>
      <trkpt lat="41.67379667" lon="2.064927">
        <ele>404.0</ele>
        <time>2019-06-09T08:38:09+02:00</time>
      </trkpt>
      <trkpt lat="41.673845" lon="2.06491334">
        <ele>404.0</ele>
        <time>2019-06-09T08:38:10+02:00</time>
      </trkpt>
      <trkpt lat="41.67389" lon="2.0648989999999996">
        <ele>404.0</ele>
        <time>2019-06-09T08:38:11+02:00</time>
      </trkpt>
      <trkpt lat="41.67393167" lon="2.0648810000000006">
        <ele>404.0</ele>
        <time>2019-06-09T08:38:12+02:00</time>
      </trkpt>
      <trkpt lat="41.67397167000001" lon="2.0648623400000004">
        <ele>405.0</ele>
        <time>2019-06-09T08:38:13+02:00</time>
      </trkpt>
      <trkpt lat="41.674015" lon="2.064842">
        <ele>405.0</ele>
        <time>2019-06-09T08:38:14+02:00</time>
      </trkpt>
      <trkpt lat="41.67405667000001" lon="2.0648216699999997">
        <ele>405.0</ele>
        <time>2019-06-09T08:38:15+02:00</time>
      </trkpt>
      <trkpt lat="41.67413834" lon="2.0647779999999996">
        <ele>405.0</ele>
        <time>2019-06-09T08:38:16+02:00</time>
      </trkpt>
      <trkpt lat="41.674206670000004" lon="2.06474534">
        <ele>406.0</ele>
        <time>2019-06-09T08:38:18+02:00</time>
      </trkpt>
      <trkpt lat="41.674263339999996" lon="2.0647079999999995">
        <ele>406.0</ele>
        <time>2019-06-09T08:38:20+02:00</time>
      </trkpt>
      <trkpt lat="41.67431334" lon="2.0646700000000004">
        <ele>407.0</ele>
        <time>2019-06-09T08:38:22+02:00</time>
      </trkpt>
      <trkpt lat="41.67435834" lon="2.06462667">
        <ele>407.0</ele>
        <time>2019-06-09T08:38:24+02:00</time>
      </trkpt>
      <trkpt lat="41.674383340000006" lon="2.0642316700000003">
        <ele>407.0</ele>
        <time>2019-06-09T08:38:25+02:00</time>
      </trkpt>
      <trkpt lat="41.67441" lon="2.0641583399999996">
        <ele>407.0</ele>
        <time>2019-06-09T08:38:26+02:00</time>
      </trkpt>
      <trkpt lat="41.67443934" lon="2.0640816699999998">
        <ele>407.0</ele>
        <time>2019-06-09T08:38:27+02:00</time>
      </trkpt>
      <trkpt lat="41.674472339999994" lon="2.0640099999999997">
        <ele>407.0</ele>
        <time>2019-06-09T08:38:28+02:00</time>
      </trkpt>
      <trkpt lat="41.674505669999995" lon="2.0639416699999997">
        <ele>407.0</ele>
        <time>2019-06-09T08:38:29+02:00</time>
      </trkpt>
      <trkpt lat="41.67453933999999" lon="2.063875">
        <ele>407.0</ele>
        <time>2019-06-09T08:38:30+02:00</time>
      </trkpt>
      <trkpt lat="41.67456967" lon="2.0638083399999996">
        <ele>407.0</ele>
        <time>2019-06-09T08:38:31+02:00</time>
      </trkpt>
      <trkpt lat="41.674595" lon="2.063735">
        <ele>408.0</ele>
        <time>2019-06-09T08:38:32+02:00</time>
      </trkpt>
      <trkpt lat="41.67461367000001" lon="2.0636583399999995">
        <ele>408.0</ele>
        <time>2019-06-09T08:38:33+02:00</time>
      </trkpt>
      <trkpt lat="41.67462533999999" lon="2.06358">
        <ele>408.0</ele>
        <time>2019-06-09T08:38:34+02:00</time>
      </trkpt>
      <trkpt lat="41.6746" lon="2.0635">
        <ele>408.0</ele>
        <time>2019-06-09T08:38:35+02:00</time>
      </trkpt>
      <trkpt lat="41.674620000000004" lon="2.063425">
        <ele>409.0</ele>
        <time>2019-06-09T08:38:36+02:00</time>
      </trkpt>
      <trkpt lat="41.67464867" lon="2.0633583399999997">
        <ele>409.0</ele>
        <time>2019-06-09T08:38:37+02:00</time>
      </trkpt>
      <trkpt lat="41.67468366999999" lon="2.063295">
        <ele>409.0</ele>
        <time>2019-06-09T08:38:38+02:00</time>
      </trkpt>
      <trkpt lat="41.674722" lon="2.0632366699999998">
        <ele>409.0</ele>
        <time>2019-06-09T08:38:39+02:00</time>
      </trkpt>
      <trkpt lat="41.67476433999999" lon="2.0631783399999994">
        <ele>409.0</ele>
        <time>2019-06-09T08:38:40+02:00</time>
      </trkpt>
      <trkpt lat="41.67481234" lon="2.06311167">
        <ele>409.0</ele>
        <time>2019-06-09T08:38:41+02:00</time>
      </trkpt>
      <trkpt lat="41.67486267" lon="2.06303834">
        <ele>410.0</ele>
        <time>2019-06-09T08:38:42+02:00</time>
      </trkpt>
      <trkpt lat="41.674932" lon="2.062975">
        <ele>410.0</ele>
        <time>2019-06-09T08:38:43+02:00</time>
      </trkpt>
      <trkpt lat="41.67499467" lon="2.0629233399999998">
        <ele>410.0</ele>
        <time>2019-06-09T08:38:44+02:00</time>
      </trkpt>
      <trkpt lat="41.67507833999999" lon="2.06281167">
        <ele>411.0</ele>
        <time>2019-06-09T08:38:45+02:00</time>
      </trkpt>
      <trkpt lat="41.67513834" lon="2.0627133399999997">
        <ele>411.0</ele>
        <time>2019-06-09T08:38:46+02:00</time>
      </trkpt>
      <trkpt lat="41.675188670000004" lon="2.0626216699999995">
        <ele>411.0</ele>
        <time>2019-06-09T08:38:47+02:00</time>
      </trkpt>
      <trkpt lat="41.675247999999996" lon="2.0625150000000003">
        <ele>412.0</ele>
        <time>2019-06-09T08:38:48+02:00</time>
      </trkpt>
      <trkpt lat="41.67528967" lon="2.0624450000000003">
        <ele>412.0</ele>
        <time>2019-06-09T08:38:49+02:00</time>
      </trkpt>
      <trkpt lat="41.67534234" lon="2.0623533399999996">
        <ele>412.0</ele>
        <time>2019-06-09T08:38:50+02:00</time>
      </trkpt>
      <trkpt lat="41.67539333999999" lon="2.06226167">
        <ele>413.0</ele>
        <time>2019-06-09T08:38:51+02:00</time>
      </trkpt>
      <trkpt lat="41.67544833999999" lon="2.0621599999999995">
        <ele>413.0</ele>
        <time>2019-06-09T08:38:52+02:00</time>
      </trkpt>
      <trkpt lat="41.67550267" lon="2.06205667">
        <ele>413.0</ele>
        <time>2019-06-09T08:38:53+02:00</time>
      </trkpt>
      <trkpt lat="41.67555867" lon="2.0619466699999998">
        <ele>414.0</ele>
        <time>2019-06-09T08:38:54+02:00</time>
      </trkpt>
      <trkpt lat="41.67560867" lon="2.0618366699999995">
        <ele>414.0</ele>
        <time>2019-06-09T08:38:55+02:00</time>
      </trkpt>
      <trkpt lat="41.675658999999996" lon="2.0617283399999997">
        <ele>414.0</ele>
        <time>2019-06-09T08:38:56+02:00</time>
      </trkpt>
      <trkpt lat="41.67571099999999" lon="2.0616216699999996">
        <ele>415.0</ele>
        <time>2019-06-09T08:38:57+02:00</time>
      </trkpt>
      <trkpt lat="41.67576067" lon="2.06151667">
        <ele>415.0</ele>
        <time>2019-06-09T08:38:58+02:00</time>
      </trkpt>
      <trkpt lat="41.67581067" lon="2.06141">
        <ele>415.0</ele>
        <time>2019-06-09T08:38:59+02:00</time>
      </trkpt>
      <trkpt lat="41.67585766999999" lon="2.0613066699999996">
        <ele>415.0</ele>
        <time>2019-06-09T08:39:00+02:00</time>
      </trkpt>
      <trkpt lat="41.675903" lon="2.0612133399999997">
        <ele>416.0</ele>
        <time>2019-06-09T08:39:01+02:00</time>
      </trkpt>
      <trkpt lat="41.67595134" lon="2.06111334">
        <ele>416.0</ele>
        <time>2019-06-09T08:39:02+02:00</time>
      </trkpt>
      <trkpt lat="41.675987000000006" lon="2.061025">
        <ele>416.0</ele>
        <time>2019-06-09T08:39:03+02:00</time>
      </trkpt>
      <trkpt lat="41.676020339999994" lon="2.0609383399999994">
        <ele>416.0</ele>
        <time>2019-06-09T08:39:04+02:00</time>
      </trkpt>
      <trkpt lat="41.67605367" lon="2.0608599999999995">
        <ele>416.0</ele>
        <time>2019-06-09T08:39:05+02:00</time>
      </trkpt>
      <trkpt lat="41.676076339999995" lon="2.06077667">
        <ele>417.0</ele>
        <time>2019-06-09T08:39:06+02:00</time>
      </trkpt>
      <trkpt lat="41.67590167" lon="2.0606583399999994">
        <ele>417.0</ele>
        <time>2019-06-09T08:39:07+02:00</time>
      </trkpt>
      <trkpt lat="41.67586834" lon="2.06059667">
        <ele>417.0</ele>
        <time>2019-06-09T08:39:08+02:00</time>
      </trkpt>
      <trkpt lat="41.675848339999995" lon="2.0605216699999995">
        <ele>417.0</ele>
        <time>2019-06-09T08:39:09+02:00</time>
      </trkpt>
      <trkpt lat="41.675821670000005" lon="2.0604483399999998">
        <ele>417.0</ele>
        <time>2019-06-09T08:39:10+02:00</time>
      </trkpt>
      <trkpt lat="41.67579334" lon="2.0603783399999998">
        <ele>417.0</ele>
        <time>2019-06-09T08:39:11+02:00</time>
      </trkpt>
      <trkpt lat="41.67575999999999" lon="2.0603083399999997">
        <ele>417.0</ele>
        <time>2019-06-09T08:39:12+02:00</time>
      </trkpt>
      <trkpt lat="41.675729999999994" lon="2.06022667">
        <ele>417.0</ele>
        <time>2019-06-09T08:39:13+02:00</time>
      </trkpt>
      <trkpt lat="41.675707" lon="2.0601433399999998">
        <ele>417.0</ele>
        <time>2019-06-09T08:39:14+02:00</time>
      </trkpt>
      <trkpt lat="41.675689" lon="2.0600650000000003">
        <ele>417.0</ele>
        <time>2019-06-09T08:39:15+02:00</time>
      </trkpt>
      <trkpt lat="41.67567467" lon="2.05998667">
        <ele>417.0</ele>
        <time>2019-06-09T08:39:16+02:00</time>
      </trkpt>
      <trkpt lat="41.67566567" lon="2.05990334">
        <ele>418.0</ele>
        <time>2019-06-09T08:39:17+02:00</time>
      </trkpt>
      <trkpt lat="41.675661000000005" lon="2.05982167">
        <ele>418.0</ele>
        <time>2019-06-09T08:39:18+02:00</time>
      </trkpt>
      <trkpt lat="41.675658999999996" lon="2.05973834">
        <ele>418.0</ele>
        <time>2019-06-09T08:39:19+02:00</time>
      </trkpt>
      <trkpt lat="41.67565634" lon="2.059655">
        <ele>418.0</ele>
        <time>2019-06-09T08:39:20+02:00</time>
      </trkpt>
      <trkpt lat="41.67565234" lon="2.05957">
        <ele>418.0</ele>
        <time>2019-06-09T08:39:21+02:00</time>
      </trkpt>
      <trkpt lat="41.675647670000004" lon="2.0594866699999996">
        <ele>418.0</ele>
        <time>2019-06-09T08:39:22+02:00</time>
      </trkpt>
      <trkpt lat="41.67563934" lon="2.05940667">
        <ele>418.0</ele>
        <time>2019-06-09T08:39:23+02:00</time>
      </trkpt>
      <trkpt lat="41.67562833999999" lon="2.059325">
        <ele>419.0</ele>
        <time>2019-06-09T08:39:24+02:00</time>
      </trkpt>
      <trkpt lat="41.67561533999999" lon="2.0592533399999997">
        <ele>419.0</ele>
        <time>2019-06-09T08:39:25+02:00</time>
      </trkpt>
      <trkpt lat="41.67560067000001" lon="2.0591783399999994">
        <ele>419.0</ele>
        <time>2019-06-09T08:39:26+02:00</time>
      </trkpt>
      <trkpt lat="41.675585" lon="2.059105">
        <ele>419.0</ele>
        <time>2019-06-09T08:39:27+02:00</time>
      </trkpt>
      <trkpt lat="41.67556667000001" lon="2.05902">
        <ele>419.0</ele>
        <time>2019-06-09T08:39:28+02:00</time>
      </trkpt>
      <trkpt lat="41.675549669999995" lon="2.0589466699999996">
        <ele>419.0</ele>
        <time>2019-06-09T08:39:29+02:00</time>
      </trkpt>
      <trkpt lat="41.675536339999994" lon="2.0588849999999996">
        <ele>420.0</ele>
        <time>2019-06-09T08:39:30+02:00</time>
      </trkpt>
      <trkpt lat="41.675521339999996" lon="2.0588100000000003">
        <ele>420.0</ele>
        <time>2019-06-09T08:39:31+02:00</time>
      </trkpt>
      <trkpt lat="41.675506670000004" lon="2.05873834">
        <ele>420.0</ele>
        <time>2019-06-09T08:39:32+02:00</time>
      </trkpt>
      <trkpt lat="41.6755" lon="2.0586733399999995">
        <ele>420.0</ele>
        <time>2019-06-09T08:39:33+02:00</time>
      </trkpt>
      <trkpt lat="41.67549834" lon="2.05860167">
        <ele>420.0</ele>
        <time>2019-06-09T08:39:35+02:00</time>
      </trkpt>
      <trkpt lat="41.67561667" lon="2.05855834">
        <ele>420.0</ele>
        <time>2019-06-09T08:39:37+02:00</time>
      </trkpt>
      <trkpt lat="41.675691670000006" lon="2.05852667">
        <ele>421.0</ele>
        <time>2019-06-09T08:39:39+02:00</time>
      </trkpt>
      <trkpt lat="41.67576667" lon="2.0584949999999997">
        <ele>421.0</ele>
        <time>2019-06-09T08:39:41+02:00</time>
      </trkpt>
      <trkpt lat="41.67584334" lon="2.0584650000000004">
        <ele>421.0</ele>
        <time>2019-06-09T08:39:43+02:00</time>
      </trkpt>
      <trkpt lat="41.67591667000001" lon="2.05844">
        <ele>421.0</ele>
        <time>2019-06-09T08:39:45+02:00</time>
      </trkpt>
      <trkpt lat="41.67598667" lon="2.05841167">
        <ele>421.0</ele>
        <time>2019-06-09T08:39:47+02:00</time>
      </trkpt>
      <trkpt lat="41.676050000000004" lon="2.058388">
        <ele>421.0</ele>
        <time>2019-06-09T08:39:49+02:00</time>
      </trkpt>
      <trkpt lat="41.67611" lon="2.05837367">
        <ele>421.0</ele>
        <time>2019-06-09T08:39:51+02:00</time>
      </trkpt>
      <trkpt lat="41.67617" lon="2.058361">
        <ele>421.0</ele>
        <time>2019-06-09T08:39:53+02:00</time>
      </trkpt>
      <trkpt lat="41.676233339999996" lon="2.0583470000000004">
        <ele>421.0</ele>
        <time>2019-06-09T08:39:55+02:00</time>
      </trkpt>
      <trkpt lat="41.676294999999996" lon="2.05833634">
        <ele>420.0</ele>
        <time>2019-06-09T08:39:57+02:00</time>
      </trkpt>
      <trkpt lat="41.67636" lon="2.0583303399999995">
        <ele>420.0</ele>
        <time>2019-06-09T08:39:59+02:00</time>
      </trkpt>
      <trkpt lat="41.67641999999999" lon="2.0583329999999997">
        <ele>419.0</ele>
        <time>2019-06-09T08:40:01+02:00</time>
      </trkpt>
      <trkpt lat="41.676485" lon="2.05833867">
        <ele>419.0</ele>
        <time>2019-06-09T08:40:03+02:00</time>
      </trkpt>
      <trkpt lat="41.67654833999999" lon="2.0583470000000004">
        <ele>418.0</ele>
        <time>2019-06-09T08:40:05+02:00</time>
      </trkpt>
      <trkpt lat="41.676615000000005" lon="2.0583549999999997">
        <ele>418.0</ele>
        <time>2019-06-09T08:40:07+02:00</time>
      </trkpt>
      <trkpt lat="41.67668167000001" lon="2.0583650000000002">
        <ele>418.0</ele>
        <time>2019-06-09T08:40:09+02:00</time>
      </trkpt>
      <trkpt lat="41.676745" lon="2.05837367">
        <ele>417.0</ele>
        <time>2019-06-09T08:40:11+02:00</time>
      </trkpt>
      <trkpt lat="41.67681334" lon="2.0583800000000005">
        <ele>417.0</ele>
        <time>2019-06-09T08:40:13+02:00</time>
      </trkpt>
      <trkpt lat="41.676878339999995" lon="2.05838267">
        <ele>417.0</ele>
        <time>2019-06-09T08:40:15+02:00</time>
      </trkpt>
      <trkpt lat="41.676943339999994" lon="2.0583856699999994">
        <ele>416.0</ele>
        <time>2019-06-09T08:40:17+02:00</time>
      </trkpt>
      <trkpt lat="41.677006670000004" lon="2.0583886700000003">
        <ele>416.0</ele>
        <time>2019-06-09T08:40:19+02:00</time>
      </trkpt>
      <trkpt lat="41.677071670000004" lon="2.05838667">
        <ele>415.0</ele>
        <time>2019-06-09T08:40:21+02:00</time>
      </trkpt>
      <trkpt lat="41.677136669999996" lon="2.05838667">
        <ele>415.0</ele>
        <time>2019-06-09T08:40:23+02:00</time>
      </trkpt>
      <trkpt lat="41.67720333999999" lon="2.058383">
        <ele>415.0</ele>
        <time>2019-06-09T08:40:25+02:00</time>
      </trkpt>
      <trkpt lat="41.67727000000001" lon="2.0583756699999998">
        <ele>414.0</ele>
        <time>2019-06-09T08:40:27+02:00</time>
      </trkpt>
      <trkpt lat="41.67734" lon="2.05836667">
        <ele>414.0</ele>
        <time>2019-06-09T08:40:29+02:00</time>
      </trkpt>
      <trkpt lat="41.67741334" lon="2.05835367">
        <ele>413.0</ele>
        <time>2019-06-09T08:40:31+02:00</time>
      </trkpt>
      <trkpt lat="41.677488340000004" lon="2.058339">
        <ele>413.0</ele>
        <time>2019-06-09T08:40:33+02:00</time>
      </trkpt>
      <trkpt lat="41.677565" lon="2.0583229999999997">
        <ele>413.0</ele>
        <time>2019-06-09T08:40:35+02:00</time>
      </trkpt>
      <trkpt lat="41.677640000000004" lon="2.05830934">
        <ele>413.0</ele>
        <time>2019-06-09T08:40:37+02:00</time>
      </trkpt>
      <trkpt lat="41.67771167000001" lon="2.058291">
        <ele>413.0</ele>
        <time>2019-06-09T08:40:39+02:00</time>
      </trkpt>
      <trkpt lat="41.67778499999999" lon="2.0582753399999993">
        <ele>412.0</ele>
        <time>2019-06-09T08:40:41+02:00</time>
      </trkpt>
      <trkpt lat="41.67785834" lon="2.0582546699999997">
        <ele>412.0</ele>
        <time>2019-06-09T08:40:43+02:00</time>
      </trkpt>
      <trkpt lat="41.67792167" lon="2.0582373400000002">
        <ele>412.0</ele>
        <time>2019-06-09T08:40:45+02:00</time>
      </trkpt>
      <trkpt lat="41.677981669999994" lon="2.058215">
        <ele>412.0</ele>
        <time>2019-06-09T08:40:47+02:00</time>
      </trkpt>
      <trkpt lat="41.67804667" lon="2.0581856699999994">
        <ele>411.0</ele>
        <time>2019-06-09T08:40:49+02:00</time>
      </trkpt>
      <trkpt lat="41.67811167" lon="2.058154">
        <ele>411.0</ele>
        <time>2019-06-09T08:40:51+02:00</time>
      </trkpt>
      <trkpt lat="41.678178339999995" lon="2.0581210000000003">
        <ele>410.0</ele>
        <time>2019-06-09T08:40:53+02:00</time>
      </trkpt>
      <trkpt lat="41.67824334" lon="2.05809134">
        <ele>410.0</ele>
        <time>2019-06-09T08:40:55+02:00</time>
      </trkpt>
      <trkpt lat="41.678295" lon="2.0580629999999998">
        <ele>409.0</ele>
        <time>2019-06-09T08:40:57+02:00</time>
      </trkpt>
      <trkpt lat="41.67832833999999" lon="2.0580316699999996">
        <ele>409.0</ele>
        <time>2019-06-09T08:41:00+02:00</time>
      </trkpt>
      <trkpt lat="41.67831667" lon="2.0577416699999995">
        <ele>408.0</ele>
        <time>2019-06-09T08:41:02+02:00</time>
      </trkpt>
      <trkpt lat="41.678293339999996" lon="2.05766167">
        <ele>408.0</ele>
        <time>2019-06-09T08:41:04+02:00</time>
      </trkpt>
      <trkpt lat="41.67825999999999" lon="2.05757667">
        <ele>407.0</ele>
        <time>2019-06-09T08:41:06+02:00</time>
      </trkpt>
      <trkpt lat="41.678223339999995" lon="2.0575">
        <ele>407.0</ele>
        <time>2019-06-09T08:41:08+02:00</time>
      </trkpt>
      <trkpt lat="41.67818834" lon="2.05742667">
        <ele>407.0</ele>
        <time>2019-06-09T08:41:10+02:00</time>
      </trkpt>
      <trkpt lat="41.678191670000004" lon="2.05735667">
        <ele>407.0</ele>
        <time>2019-06-09T08:41:12+02:00</time>
      </trkpt>
      <trkpt lat="41.67822834" lon="2.0573183399999997">
        <ele>407.0</ele>
        <time>2019-06-09T08:41:14+02:00</time>
      </trkpt>
      <trkpt lat="41.67827667" lon="2.057275">
        <ele>407.0</ele>
        <time>2019-06-09T08:41:16+02:00</time>
      </trkpt>
      <trkpt lat="41.67833" lon="2.0572283399999995">
        <ele>406.0</ele>
        <time>2019-06-09T08:41:18+02:00</time>
      </trkpt>
      <trkpt lat="41.67838167" lon="2.0571833399999995">
        <ele>406.0</ele>
        <time>2019-06-09T08:41:20+02:00</time>
      </trkpt>
      <trkpt lat="41.67843" lon="2.057133339999999">
        <ele>406.0</ele>
        <time>2019-06-09T08:41:22+02:00</time>
      </trkpt>
      <trkpt lat="41.67848" lon="2.0570883399999995">
        <ele>406.0</ele>
        <time>2019-06-09T08:41:24+02:00</time>
      </trkpt>
      <trkpt lat="41.67853" lon="2.057035">
        <ele>405.0</ele>
        <time>2019-06-09T08:41:26+02:00</time>
      </trkpt>
      <trkpt lat="41.67858" lon="2.05698167">
        <ele>405.0</ele>
        <time>2019-06-09T08:41:28+02:00</time>
      </trkpt>
      <trkpt lat="41.67863167" lon="2.05693667">
        <ele>405.0</ele>
        <time>2019-06-09T08:41:30+02:00</time>
      </trkpt>
      <trkpt lat="41.67868" lon="2.056893">
        <ele>405.0</ele>
        <time>2019-06-09T08:41:32+02:00</time>
      </trkpt>
      <trkpt lat="41.67872834" lon="2.05685167">
        <ele>404.0</ele>
        <time>2019-06-09T08:41:34+02:00</time>
      </trkpt>
      <trkpt lat="41.67877167" lon="2.05681434">
        <ele>404.0</ele>
        <time>2019-06-09T08:41:36+02:00</time>
      </trkpt>
      <trkpt lat="41.67881834" lon="2.0567706699999997">
        <ele>403.0</ele>
        <time>2019-06-09T08:41:39+02:00</time>
      </trkpt>
      <trkpt lat="41.67887667000001" lon="2.05674167">
        <ele>278.0</ele>
        <time>2019-06-09T08:46:56+02:00</time>
      </trkpt>
      <trkpt lat="41.678931670000004" lon="2.05673167">
        <ele>278.0</ele>
        <time>2019-06-09T08:46:59+02:00</time>
      </trkpt>
      <trkpt lat="41.67898167" lon="2.0566916699999997">
        <ele>277.0</ele>
        <time>2019-06-09T08:47:03+02:00</time>
      </trkpt>
      <trkpt lat="41.67893667" lon="2.0566916699999997">
        <ele>277.0</ele>
        <time>2019-06-09T08:47:08+02:00</time>
      </trkpt>
      <trkpt lat="41.67888833999999" lon="2.0567183399999998">
        <ele>277.0</ele>
        <time>2019-06-09T08:47:11+02:00</time>
      </trkpt>
      <trkpt lat="41.678836669999995" lon="2.05674367">
        <ele>277.0</ele>
        <time>2019-06-09T08:47:14+02:00</time>
      </trkpt>
      <trkpt lat="41.678868339999994" lon="2.0566750000000003">
        <ele>277.0</ele>
        <time>2019-06-09T08:47:19+02:00</time>
      </trkpt>
      <trkpt lat="41.678913339999994" lon="2.0566596699999997">
        <ele>277.0</ele>
        <time>2019-06-09T08:47:22+02:00</time>
      </trkpt>
      <trkpt lat="41.678958339999994" lon="2.056645">
        <ele>277.0</ele>
        <time>2019-06-09T08:47:25+02:00</time>
      </trkpt>
      <trkpt lat="41.67898834" lon="2.0566129999999996">
        <ele>277.0</ele>
        <time>2019-06-09T08:47:29+02:00</time>
      </trkpt>
      <trkpt lat="41.678931670000004" lon="2.05661834">
        <ele>277.0</ele>
        <time>2019-06-09T08:47:33+02:00</time>
      </trkpt>
      <trkpt lat="41.67887167000001" lon="2.05664167">
        <ele>277.0</ele>
        <time>2019-06-09T08:47:36+02:00</time>
      </trkpt>
      <trkpt lat="41.67881167" lon="2.0566566699999997">
        <ele>277.0</ele>
        <time>2019-06-09T08:47:39+02:00</time>
      </trkpt>
      <trkpt lat="41.67876667" lon="2.0566696700000002">
        <ele>278.0</ele>
        <time>2019-06-09T08:47:42+02:00</time>
      </trkpt>
      <trkpt lat="41.678720000000006" lon="2.0566583399999994">
        <ele>279.0</ele>
        <time>2019-06-09T08:47:45+02:00</time>
      </trkpt>
      <trkpt lat="41.67872834" lon="2.05657667">
        <ele>280.0</ele>
        <time>2019-06-09T08:47:48+02:00</time>
      </trkpt>
      <trkpt lat="41.67876667" lon="2.056533339999999">
        <ele>281.0</ele>
        <time>2019-06-09T08:47:51+02:00</time>
      </trkpt>
      <trkpt lat="41.678795" lon="2.0564833399999998">
        <ele>281.0</ele>
        <time>2019-06-09T08:47:54+02:00</time>
      </trkpt>
      <trkpt lat="41.678822999999994" lon="2.0564333399999994">
        <ele>282.0</ele>
        <time>2019-06-09T08:47:57+02:00</time>
      </trkpt>
      <trkpt lat="41.678861669999996" lon="2.0564016700000005">
        <ele>283.0</ele>
        <time>2019-06-09T08:48:00+02:00</time>
      </trkpt>
      <trkpt lat="41.67890667" lon="2.05636334">
        <ele>283.0</ele>
        <time>2019-06-09T08:48:03+02:00</time>
      </trkpt>
      <trkpt lat="41.678951670000004" lon="2.05633834">
        <ele>284.0</ele>
        <time>2019-06-09T08:48:05+02:00</time>
      </trkpt>
      <trkpt lat="41.678995" lon="2.0563116700000004">
        <ele>285.0</ele>
        <time>2019-06-09T08:48:07+02:00</time>
      </trkpt>
      <trkpt lat="41.67904" lon="2.056286">
        <ele>285.0</ele>
        <time>2019-06-09T08:48:09+02:00</time>
      </trkpt>
      <trkpt lat="41.679091670000005" lon="2.056259">
        <ele>286.0</ele>
        <time>2019-06-09T08:48:11+02:00</time>
      </trkpt>
      <trkpt lat="41.67915333999999" lon="2.05623034">
        <ele>286.0</ele>
        <time>2019-06-09T08:48:13+02:00</time>
      </trkpt>
      <trkpt lat="41.67920667" lon="2.05619867">
        <ele>286.0</ele>
        <time>2019-06-09T08:48:15+02:00</time>
      </trkpt>
      <trkpt lat="41.67925667000001" lon="2.0561599999999998">
        <ele>287.0</ele>
        <time>2019-06-09T08:48:17+02:00</time>
      </trkpt>
      <trkpt lat="41.679308340000006" lon="2.05612834">
        <ele>287.0</ele>
        <time>2019-06-09T08:48:19+02:00</time>
      </trkpt>
      <trkpt lat="41.67938" lon="2.0560896700000004">
        <ele>289.0</ele>
        <time>2019-06-09T08:48:21+02:00</time>
      </trkpt>
      <trkpt lat="41.67945167" lon="2.05605634">
        <ele>290.0</ele>
        <time>2019-06-09T08:48:23+02:00</time>
      </trkpt>
      <trkpt lat="41.67952667000001" lon="2.05602267">
        <ele>291.0</ele>
        <time>2019-06-09T08:48:25+02:00</time>
      </trkpt>
      <trkpt lat="41.679604999999995" lon="2.0559893399999996">
        <ele>291.0</ele>
        <time>2019-06-09T08:48:27+02:00</time>
      </trkpt>
      <trkpt lat="41.67967667" lon="2.05595867">
        <ele>292.0</ele>
        <time>2019-06-09T08:48:29+02:00</time>
      </trkpt>
      <trkpt lat="41.67976167" lon="2.05592434">
        <ele>292.0</ele>
        <time>2019-06-09T08:48:31+02:00</time>
      </trkpt>
      <trkpt lat="41.67984334" lon="2.055894">
        <ele>293.0</ele>
        <time>2019-06-09T08:48:33+02:00</time>
      </trkpt>
      <trkpt lat="41.67992834" lon="2.05586234">
        <ele>294.0</ele>
        <time>2019-06-09T08:48:35+02:00</time>
      </trkpt>
      <trkpt lat="41.680009999999996" lon="2.05583334">
        <ele>295.0</ele>
        <time>2019-06-09T08:48:37+02:00</time>
      </trkpt>
      <trkpt lat="41.68009167000001" lon="2.05580534">
        <ele>297.0</ele>
        <time>2019-06-09T08:48:39+02:00</time>
      </trkpt>
      <trkpt lat="41.680173339999996" lon="2.055773">
        <ele>298.0</ele>
        <time>2019-06-09T08:48:41+02:00</time>
      </trkpt>
      <trkpt lat="41.68021667000001" lon="2.0557576699999998">
        <ele>299.0</ele>
        <time>2019-06-09T08:48:42+02:00</time>
      </trkpt>
      <trkpt lat="41.68030334" lon="2.055727">
        <ele>300.0</ele>
        <time>2019-06-09T08:48:44+02:00</time>
      </trkpt>
      <trkpt lat="41.68034834" lon="2.0557120000000006">
        <ele>300.0</ele>
        <time>2019-06-09T08:48:45+02:00</time>
      </trkpt>
      <trkpt lat="41.68043334" lon="2.0556799999999997">
        <ele>301.0</ele>
        <time>2019-06-09T08:48:47+02:00</time>
      </trkpt>
      <trkpt lat="41.68051834" lon="2.05564867">
        <ele>302.0</ele>
        <time>2019-06-09T08:48:49+02:00</time>
      </trkpt>
      <trkpt lat="41.68060334" lon="2.0556143399999995">
        <ele>303.0</ele>
        <time>2019-06-09T08:48:51+02:00</time>
      </trkpt>
      <trkpt lat="41.68064834" lon="2.0555996700000003">
        <ele>304.0</ele>
        <time>2019-06-09T08:48:52+02:00</time>
      </trkpt>
      <trkpt lat="41.680695" lon="2.055581">
        <ele>304.0</ele>
        <time>2019-06-09T08:48:53+02:00</time>
      </trkpt>
      <trkpt lat="41.68074" lon="2.055567">
        <ele>306.0</ele>
        <time>2019-06-09T08:48:54+02:00</time>
      </trkpt>
      <trkpt lat="41.68082833999999" lon="2.0555316699999997">
        <ele>307.0</ele>
        <time>2019-06-09T08:48:56+02:00</time>
      </trkpt>
      <trkpt lat="41.680875" lon="2.0555173399999997">
        <ele>307.0</ele>
        <time>2019-06-09T08:48:57+02:00</time>
      </trkpt>
      <trkpt lat="41.68092" lon="2.05549967">
        <ele>308.0</ele>
        <time>2019-06-09T08:48:58+02:00</time>
      </trkpt>
      <trkpt lat="41.68096667000001" lon="2.0554856699999995">
        <ele>308.0</ele>
        <time>2019-06-09T08:48:59+02:00</time>
      </trkpt>
      <trkpt lat="41.68101334" lon="2.0554676699999996">
        <ele>309.0</ele>
        <time>2019-06-09T08:49:00+02:00</time>
      </trkpt>
      <trkpt lat="41.68105834" lon="2.05544967">
        <ele>309.0</ele>
        <time>2019-06-09T08:49:01+02:00</time>
      </trkpt>
      <trkpt lat="41.681104999999995" lon="2.0554360000000003">
        <ele>310.0</ele>
        <time>2019-06-09T08:49:02+02:00</time>
      </trkpt>
      <trkpt lat="41.681151670000006" lon="2.0554176699999998">
        <ele>310.0</ele>
        <time>2019-06-09T08:49:03+02:00</time>
      </trkpt>
      <trkpt lat="41.681194999999995" lon="2.05540134">
        <ele>311.0</ele>
        <time>2019-06-09T08:49:04+02:00</time>
      </trkpt>
      <trkpt lat="41.68123834" lon="2.05538467">
        <ele>311.0</ele>
        <time>2019-06-09T08:49:05+02:00</time>
      </trkpt>
      <trkpt lat="41.68128334" lon="2.0553713399999998">
        <ele>312.0</ele>
        <time>2019-06-09T08:49:06+02:00</time>
      </trkpt>
      <trkpt lat="41.68136667" lon="2.0553393399999997">
        <ele>313.0</ele>
        <time>2019-06-09T08:49:08+02:00</time>
      </trkpt>
      <trkpt lat="41.681445000000004" lon="2.05530867">
        <ele>313.0</ele>
        <time>2019-06-09T08:49:10+02:00</time>
      </trkpt>
      <trkpt lat="41.68152" lon="2.05527967">
        <ele>313.0</ele>
        <time>2019-06-09T08:49:12+02:00</time>
      </trkpt>
      <trkpt lat="41.68159667000001" lon="2.05525">
        <ele>314.0</ele>
        <time>2019-06-09T08:49:14+02:00</time>
      </trkpt>
      <trkpt lat="41.68167" lon="2.055222">
        <ele>316.0</ele>
        <time>2019-06-09T08:49:16+02:00</time>
      </trkpt>
      <trkpt lat="41.68174167" lon="2.05519967">
        <ele>316.0</ele>
        <time>2019-06-09T08:49:18+02:00</time>
      </trkpt>
      <trkpt lat="41.68181" lon="2.0551733399999996">
        <ele>317.0</ele>
        <time>2019-06-09T08:49:20+02:00</time>
      </trkpt>
      <trkpt lat="41.68187667" lon="2.0551476699999998">
        <ele>318.0</ele>
        <time>2019-06-09T08:49:22+02:00</time>
      </trkpt>
      <trkpt lat="41.681951670000004" lon="2.05511834">
        <ele>318.0</ele>
        <time>2019-06-09T08:49:24+02:00</time>
      </trkpt>
      <trkpt lat="41.682026670000006" lon="2.0550889999999997">
        <ele>319.0</ele>
        <time>2019-06-09T08:49:26+02:00</time>
      </trkpt>
      <trkpt lat="41.68210333999999" lon="2.0550593399999997">
        <ele>320.0</ele>
        <time>2019-06-09T08:49:28+02:00</time>
      </trkpt>
      <trkpt lat="41.68218167000001" lon="2.0550273399999996">
        <ele>320.0</ele>
        <time>2019-06-09T08:49:30+02:00</time>
      </trkpt>
      <trkpt lat="41.68225667" lon="2.05499734">
        <ele>321.0</ele>
        <time>2019-06-09T08:49:32+02:00</time>
      </trkpt>
      <trkpt lat="41.68233334" lon="2.05497267">
        <ele>322.0</ele>
        <time>2019-06-09T08:49:34+02:00</time>
      </trkpt>
      <trkpt lat="41.68241167" lon="2.05494167">
        <ele>323.0</ele>
        <time>2019-06-09T08:49:36+02:00</time>
      </trkpt>
      <trkpt lat="41.682491670000005" lon="2.0549166699999994">
        <ele>324.0</ele>
        <time>2019-06-09T08:49:38+02:00</time>
      </trkpt>
      <trkpt lat="41.682565000000004" lon="2.054888">
        <ele>324.0</ele>
        <time>2019-06-09T08:49:40+02:00</time>
      </trkpt>
      <trkpt lat="41.682640000000006" lon="2.0548593399999997">
        <ele>325.0</ele>
        <time>2019-06-09T08:49:42+02:00</time>
      </trkpt>
      <trkpt lat="41.682716670000005" lon="2.05483067">
        <ele>326.0</ele>
        <time>2019-06-09T08:49:44+02:00</time>
      </trkpt>
      <trkpt lat="41.68280000000001" lon="2.05479934">
        <ele>327.0</ele>
        <time>2019-06-09T08:49:46+02:00</time>
      </trkpt>
      <trkpt lat="41.682883340000004" lon="2.0547760000000004">
        <ele>327.0</ele>
        <time>2019-06-09T08:49:48+02:00</time>
      </trkpt>
      <trkpt lat="41.682970000000005" lon="2.05475267">
        <ele>328.0</ele>
        <time>2019-06-09T08:49:50+02:00</time>
      </trkpt>
      <trkpt lat="41.68305334" lon="2.054739">
        <ele>328.0</ele>
        <time>2019-06-09T08:49:52+02:00</time>
      </trkpt>
      <trkpt lat="41.68313667" lon="2.0547333399999994">
        <ele>328.0</ele>
        <time>2019-06-09T08:49:54+02:00</time>
      </trkpt>
      <trkpt lat="41.68317834" lon="2.0547366699999996">
        <ele>328.0</ele>
        <time>2019-06-09T08:49:55+02:00</time>
      </trkpt>
      <trkpt lat="41.68322167" lon="2.054746669999999">
        <ele>329.0</ele>
        <time>2019-06-09T08:49:56+02:00</time>
      </trkpt>
      <trkpt lat="41.683263339999996" lon="2.054757">
        <ele>329.0</ele>
        <time>2019-06-09T08:49:57+02:00</time>
      </trkpt>
      <trkpt lat="41.68330667" lon="2.0547736700000003">
        <ele>329.0</ele>
        <time>2019-06-09T08:49:58+02:00</time>
      </trkpt>
      <trkpt lat="41.68338667" lon="2.0547739999999997">
        <ele>329.0</ele>
        <time>2019-06-09T08:50:00+02:00</time>
      </trkpt>
      <trkpt lat="41.68345667" lon="2.0547920000000004">
        <ele>329.0</ele>
        <time>2019-06-09T08:50:02+02:00</time>
      </trkpt>
      <trkpt lat="41.683533340000004" lon="2.0548033399999994">
        <ele>330.0</ele>
        <time>2019-06-09T08:50:04+02:00</time>
      </trkpt>
      <trkpt lat="41.68358" lon="2.05482967">
        <ele>330.0</ele>
        <time>2019-06-09T08:50:05+02:00</time>
      </trkpt>
      <trkpt lat="41.68365667" lon="2.0548496700000003">
        <ele>330.0</ele>
        <time>2019-06-09T08:50:07+02:00</time>
      </trkpt>
      <trkpt lat="41.683735" lon="2.0548713400000005">
        <ele>331.0</ele>
        <time>2019-06-09T08:50:09+02:00</time>
      </trkpt>
      <trkpt lat="41.683809999999994" lon="2.054896">
        <ele>331.0</ele>
        <time>2019-06-09T08:50:11+02:00</time>
      </trkpt>
      <trkpt lat="41.68388667000001" lon="2.0549286700000002">
        <ele>332.0</ele>
        <time>2019-06-09T08:50:13+02:00</time>
      </trkpt>
      <trkpt lat="41.68396167000001" lon="2.0549633399999996">
        <ele>332.0</ele>
        <time>2019-06-09T08:50:15+02:00</time>
      </trkpt>
      <trkpt lat="41.68404334" lon="2.0549983399999996">
        <ele>332.0</ele>
        <time>2019-06-09T08:50:17+02:00</time>
      </trkpt>
      <trkpt lat="41.684118340000005" lon="2.05503534">
        <ele>333.0</ele>
        <time>2019-06-09T08:50:19+02:00</time>
      </trkpt>
      <trkpt lat="41.68419667" lon="2.0550666699999995">
        <ele>333.0</ele>
        <time>2019-06-09T08:50:21+02:00</time>
      </trkpt>
      <trkpt lat="41.684270000000005" lon="2.0554133400000003">
        <ele>333.0</ele>
        <time>2019-06-09T08:50:23+02:00</time>
      </trkpt>
      <trkpt lat="41.684340000000006" lon="2.05536667">
        <ele>334.0</ele>
        <time>2019-06-09T08:50:25+02:00</time>
      </trkpt>
      <trkpt lat="41.684405" lon="2.05532334">
        <ele>334.0</ele>
        <time>2019-06-09T08:50:27+02:00</time>
      </trkpt>
      <trkpt lat="41.68447667" lon="2.055285">
        <ele>334.0</ele>
        <time>2019-06-09T08:50:29+02:00</time>
      </trkpt>
      <trkpt lat="41.684551670000005" lon="2.0552590000000004">
        <ele>334.0</ele>
        <time>2019-06-09T08:50:31+02:00</time>
      </trkpt>
      <trkpt lat="41.68463334" lon="2.05524167">
        <ele>334.0</ele>
        <time>2019-06-09T08:50:33+02:00</time>
      </trkpt>
      <trkpt lat="41.68470667" lon="2.0552336700000002">
        <ele>334.0</ele>
        <time>2019-06-09T08:50:35+02:00</time>
      </trkpt>
      <trkpt lat="41.68479167" lon="2.0552353400000003">
        <ele>335.0</ele>
        <time>2019-06-09T08:50:37+02:00</time>
      </trkpt>
      <trkpt lat="41.684873339999996" lon="2.05528667">
        <ele>335.0</ele>
        <time>2019-06-09T08:50:39+02:00</time>
      </trkpt>
      <trkpt lat="41.68494833999999" lon="2.05531667">
        <ele>335.0</ele>
        <time>2019-06-09T08:50:41+02:00</time>
      </trkpt>
      <trkpt lat="41.68503" lon="2.0553553399999993">
        <ele>336.0</ele>
        <time>2019-06-09T08:50:43+02:00</time>
      </trkpt>
      <trkpt lat="41.685098339999996" lon="2.0553939999999997">
        <ele>336.0</ele>
        <time>2019-06-09T08:50:45+02:00</time>
      </trkpt>
      <trkpt lat="41.68517" lon="2.0554326699999996">
        <ele>336.0</ele>
        <time>2019-06-09T08:50:47+02:00</time>
      </trkpt>
      <trkpt lat="41.68524000000001" lon="2.05547167">
        <ele>337.0</ele>
        <time>2019-06-09T08:50:49+02:00</time>
      </trkpt>
      <trkpt lat="41.68531" lon="2.05551167">
        <ele>337.0</ele>
        <time>2019-06-09T08:50:51+02:00</time>
      </trkpt>
      <trkpt lat="41.685379999999995" lon="2.0555546700000003">
        <ele>337.0</ele>
        <time>2019-06-09T08:50:53+02:00</time>
      </trkpt>
      <trkpt lat="41.68544833999999" lon="2.055598">
        <ele>338.0</ele>
        <time>2019-06-09T08:50:55+02:00</time>
      </trkpt>
      <trkpt lat="41.685516670000005" lon="2.05564367">
        <ele>338.0</ele>
        <time>2019-06-09T08:50:57+02:00</time>
      </trkpt>
      <trkpt lat="41.68557333999999" lon="2.055686">
        <ele>338.0</ele>
        <time>2019-06-09T08:50:58+02:00</time>
      </trkpt>
      <trkpt lat="41.68563667" lon="2.05573634">
        <ele>339.0</ele>
        <time>2019-06-09T08:51:00+02:00</time>
      </trkpt>
      <trkpt lat="41.685691670000004" lon="2.05577934">
        <ele>339.0</ele>
        <time>2019-06-09T08:51:02+02:00</time>
      </trkpt>
      <trkpt lat="41.68575667" lon="2.0558249999999996">
        <ele>339.0</ele>
        <time>2019-06-09T08:51:04+02:00</time>
      </trkpt>
      <trkpt lat="41.685824999999994" lon="2.05586734">
        <ele>339.0</ele>
        <time>2019-06-09T08:51:06+02:00</time>
      </trkpt>
      <trkpt lat="41.685903339999996" lon="2.055909">
        <ele>339.0</ele>
        <time>2019-06-09T08:51:08+02:00</time>
      </trkpt>
      <trkpt lat="41.68598" lon="2.05594">
        <ele>340.0</ele>
        <time>2019-06-09T08:51:10+02:00</time>
      </trkpt>
      <trkpt lat="41.68603667000001" lon="2.0559583399999997">
        <ele>340.0</ele>
        <time>2019-06-09T08:51:11+02:00</time>
      </trkpt>
      <trkpt lat="41.68608167000001" lon="2.05596634">
        <ele>340.0</ele>
        <time>2019-06-09T08:51:12+02:00</time>
      </trkpt>
      <trkpt lat="41.686158340000006" lon="2.0559923399999995">
        <ele>340.0</ele>
        <time>2019-06-09T08:51:14+02:00</time>
      </trkpt>
      <trkpt lat="41.68620833999999" lon="2.0560016699999997">
        <ele>340.0</ele>
        <time>2019-06-09T08:51:15+02:00</time>
      </trkpt>
      <trkpt lat="41.68628" lon="2.056021">
        <ele>340.0</ele>
        <time>2019-06-09T08:51:17+02:00</time>
      </trkpt>
      <trkpt lat="41.686348339999995" lon="2.056033">
        <ele>340.0</ele>
        <time>2019-06-09T08:51:19+02:00</time>
      </trkpt>
      <trkpt lat="41.686415" lon="2.0560443399999992">
        <ele>341.0</ele>
        <time>2019-06-09T08:51:21+02:00</time>
      </trkpt>
      <trkpt lat="41.686478339999994" lon="2.056049">
        <ele>341.0</ele>
        <time>2019-06-09T08:51:23+02:00</time>
      </trkpt>
      <trkpt lat="41.68653834" lon="2.0560493400000004">
        <ele>341.0</ele>
        <time>2019-06-09T08:51:25+02:00</time>
      </trkpt>
      <trkpt lat="41.686591670000006" lon="2.056045">
        <ele>342.0</ele>
        <time>2019-06-09T08:51:27+02:00</time>
      </trkpt>
      <trkpt lat="41.686663339999996" lon="2.056045">
        <ele>342.0</ele>
        <time>2019-06-09T08:51:29+02:00</time>
      </trkpt>
      <trkpt lat="41.68672334" lon="2.0560379999999996">
        <ele>343.0</ele>
        <time>2019-06-09T08:51:31+02:00</time>
      </trkpt>
      <trkpt lat="41.686800000000005" lon="2.05603867">
        <ele>343.0</ele>
        <time>2019-06-09T08:51:33+02:00</time>
      </trkpt>
      <trkpt lat="41.68686167" lon="2.0560283399999997">
        <ele>343.0</ele>
        <time>2019-06-09T08:51:35+02:00</time>
      </trkpt>
      <trkpt lat="41.68693667000001" lon="2.05602367">
        <ele>343.0</ele>
        <time>2019-06-09T08:51:37+02:00</time>
      </trkpt>
      <trkpt lat="41.68699334" lon="2.056012">
        <ele>344.0</ele>
        <time>2019-06-09T08:51:39+02:00</time>
      </trkpt>
      <trkpt lat="41.687065000000004" lon="2.05600234">
        <ele>344.0</ele>
        <time>2019-06-09T08:51:41+02:00</time>
      </trkpt>
      <trkpt lat="41.687135" lon="2.0559906700000004">
        <ele>344.0</ele>
        <time>2019-06-09T08:51:43+02:00</time>
      </trkpt>
      <trkpt lat="41.68721334" lon="2.055978">
        <ele>344.0</ele>
        <time>2019-06-09T08:51:45+02:00</time>
      </trkpt>
      <trkpt lat="41.687281670000004" lon="2.0559666699999997">
        <ele>345.0</ele>
        <time>2019-06-09T08:51:47+02:00</time>
      </trkpt>
      <trkpt lat="41.68735667" lon="2.05595434">
        <ele>345.0</ele>
        <time>2019-06-09T08:51:49+02:00</time>
      </trkpt>
      <trkpt lat="41.687430000000006" lon="2.05594067">
        <ele>345.0</ele>
        <time>2019-06-09T08:51:51+02:00</time>
      </trkpt>
      <trkpt lat="41.68750999999999" lon="2.0559256699999997">
        <ele>345.0</ele>
        <time>2019-06-09T08:51:53+02:00</time>
      </trkpt>
      <trkpt lat="41.68757334" lon="2.0559070000000004">
        <ele>345.0</ele>
        <time>2019-06-09T08:51:55+02:00</time>
      </trkpt>
      <trkpt lat="41.68765834" lon="2.05589534">
        <ele>345.0</ele>
        <time>2019-06-09T08:51:57+02:00</time>
      </trkpt>
      <trkpt lat="41.68772667" lon="2.0558803399999994">
        <ele>345.0</ele>
        <time>2019-06-09T08:51:59+02:00</time>
      </trkpt>
      <trkpt lat="41.687798339999986" lon="2.05586467">
        <ele>345.0</ele>
        <time>2019-06-09T08:52:01+02:00</time>
      </trkpt>
      <trkpt lat="41.68786" lon="2.0558473399999997">
        <ele>345.0</ele>
        <time>2019-06-09T08:52:03+02:00</time>
      </trkpt>
      <trkpt lat="41.687905" lon="2.055834">
        <ele>345.0</ele>
        <time>2019-06-09T08:52:04+02:00</time>
      </trkpt>
      <trkpt lat="41.68796667" lon="2.05581467">
        <ele>345.0</ele>
        <time>2019-06-09T08:52:06+02:00</time>
      </trkpt>
      <trkpt lat="41.68801" lon="2.05552">
        <ele>345.0</ele>
        <time>2019-06-09T08:52:08+02:00</time>
      </trkpt>
      <trkpt lat="41.688046670000006" lon="2.05543167">
        <ele>346.0</ele>
        <time>2019-06-09T08:52:10+02:00</time>
      </trkpt>
      <trkpt lat="41.688071670000014" lon="2.055355">
        <ele>346.0</ele>
        <time>2019-06-09T08:52:12+02:00</time>
      </trkpt>
      <trkpt lat="41.68810167" lon="2.0552583399999995">
        <ele>346.0</ele>
        <time>2019-06-09T08:52:14+02:00</time>
      </trkpt>
      <trkpt lat="41.688125" lon="2.055165">
        <ele>346.0</ele>
        <time>2019-06-09T08:52:16+02:00</time>
      </trkpt>
      <trkpt lat="41.688145000000006" lon="2.05508">
        <ele>346.0</ele>
        <time>2019-06-09T08:52:18+02:00</time>
      </trkpt>
      <trkpt lat="41.688169339999995" lon="2.0549933400000002">
        <ele>346.0</ele>
        <time>2019-06-09T08:52:20+02:00</time>
      </trkpt>
      <trkpt lat="41.688198670000006" lon="2.0549049999999998">
        <ele>346.0</ele>
        <time>2019-06-09T08:52:22+02:00</time>
      </trkpt>
      <trkpt lat="41.68822967" lon="2.05483">
        <ele>346.0</ele>
        <time>2019-06-09T08:52:24+02:00</time>
      </trkpt>
      <trkpt lat="41.688253669999995" lon="2.05478">
        <ele>347.0</ele>
        <time>2019-06-09T08:52:25+02:00</time>
      </trkpt>
      <trkpt lat="41.688294000000006" lon="2.05471">
        <ele>347.0</ele>
        <time>2019-06-09T08:52:27+02:00</time>
      </trkpt>
      <trkpt lat="41.688337000000004" lon="2.05465167">
        <ele>347.0</ele>
        <time>2019-06-09T08:52:29+02:00</time>
      </trkpt>
      <trkpt lat="41.68842500000001" lon="2.0546016700000003">
        <ele>347.0</ele>
        <time>2019-06-09T08:52:31+02:00</time>
      </trkpt>
      <trkpt lat="41.68848833999999" lon="2.0545633399999996">
        <ele>347.0</ele>
        <time>2019-06-09T08:52:33+02:00</time>
      </trkpt>
      <trkpt lat="41.688550000000006" lon="2.054521">
        <ele>347.0</ele>
        <time>2019-06-09T08:52:35+02:00</time>
      </trkpt>
      <trkpt lat="41.688604999999995" lon="2.054476">
        <ele>347.0</ele>
        <time>2019-06-09T08:52:37+02:00</time>
      </trkpt>
      <trkpt lat="41.688665" lon="2.05442234">
        <ele>347.0</ele>
        <time>2019-06-09T08:52:39+02:00</time>
      </trkpt>
      <trkpt lat="41.68872167000001" lon="2.05436934">
        <ele>347.0</ele>
        <time>2019-06-09T08:52:41+02:00</time>
      </trkpt>
      <trkpt lat="41.68877334" lon="2.0543166699999995">
        <ele>347.0</ele>
        <time>2019-06-09T08:52:43+02:00</time>
      </trkpt>
      <trkpt lat="41.688824999999994" lon="2.05426234">
        <ele>347.0</ele>
        <time>2019-06-09T08:52:45+02:00</time>
      </trkpt>
      <trkpt lat="41.688891670000004" lon="2.05419334">
        <ele>346.0</ele>
        <time>2019-06-09T08:52:47+02:00</time>
      </trkpt>
      <trkpt lat="41.688928340000004" lon="2.0541516700000004">
        <ele>346.0</ele>
        <time>2019-06-09T08:52:48+02:00</time>
      </trkpt>
      <trkpt lat="41.688988339999995" lon="2.0540839999999996">
        <ele>346.0</ele>
        <time>2019-06-09T08:52:50+02:00</time>
      </trkpt>
      <trkpt lat="41.68903667000001" lon="2.05402867">
        <ele>347.0</ele>
        <time>2019-06-09T08:52:52+02:00</time>
      </trkpt>
      <trkpt lat="41.689071670000004" lon="2.05398534">
        <ele>347.0</ele>
        <time>2019-06-09T08:52:53+02:00</time>
      </trkpt>
      <trkpt lat="41.68912999999999" lon="2.0539189999999996">
        <ele>347.0</ele>
        <time>2019-06-09T08:52:55+02:00</time>
      </trkpt>
      <trkpt lat="41.68918" lon="2.05386167">
        <ele>347.0</ele>
        <time>2019-06-09T08:52:57+02:00</time>
      </trkpt>
      <trkpt lat="41.689235" lon="2.0537959999999997">
        <ele>347.0</ele>
        <time>2019-06-09T08:52:59+02:00</time>
      </trkpt>
      <trkpt lat="41.68929333999999" lon="2.0537296699999996">
        <ele>347.0</ele>
        <time>2019-06-09T08:53:01+02:00</time>
      </trkpt>
      <trkpt lat="41.689346670000006" lon="2.05366767">
        <ele>347.0</ele>
        <time>2019-06-09T08:53:03+02:00</time>
      </trkpt>
      <trkpt lat="41.689406670000004" lon="2.0535989999999997">
        <ele>347.0</ele>
        <time>2019-06-09T08:53:05+02:00</time>
      </trkpt>
      <trkpt lat="41.689468340000005" lon="2.053535">
        <ele>347.0</ele>
        <time>2019-06-09T08:53:07+02:00</time>
      </trkpt>
      <trkpt lat="41.68953" lon="2.053472">
        <ele>347.0</ele>
        <time>2019-06-09T08:53:09+02:00</time>
      </trkpt>
      <trkpt lat="41.68959000000001" lon="2.05341334">
        <ele>347.0</ele>
        <time>2019-06-09T08:53:11+02:00</time>
      </trkpt>
      <trkpt lat="41.68965" lon="2.0533533399999997">
        <ele>347.0</ele>
        <time>2019-06-09T08:53:13+02:00</time>
      </trkpt>
      <trkpt lat="41.68971500000001" lon="2.053294">
        <ele>346.0</ele>
        <time>2019-06-09T08:53:15+02:00</time>
      </trkpt>
      <trkpt lat="41.68977667000001" lon="2.05324">
        <ele>346.0</ele>
        <time>2019-06-09T08:53:17+02:00</time>
      </trkpt>
      <trkpt lat="41.68983834000001" lon="2.05318367">
        <ele>346.0</ele>
        <time>2019-06-09T08:53:19+02:00</time>
      </trkpt>
      <trkpt lat="41.68988667" lon="2.05313834">
        <ele>345.0</ele>
        <time>2019-06-09T08:53:21+02:00</time>
      </trkpt>
      <trkpt lat="41.68993167000001" lon="2.05309567">
        <ele>345.0</ele>
        <time>2019-06-09T08:53:23+02:00</time>
      </trkpt>
      <trkpt lat="41.68997667000001" lon="2.05304567">
        <ele>345.0</ele>
        <time>2019-06-09T08:53:25+02:00</time>
      </trkpt>
      <trkpt lat="41.69003167000001" lon="2.05298534">
        <ele>344.0</ele>
        <time>2019-06-09T08:53:27+02:00</time>
      </trkpt>
      <trkpt lat="41.69009" lon="2.052925">
        <ele>344.0</ele>
        <time>2019-06-09T08:53:29+02:00</time>
      </trkpt>
      <trkpt lat="41.69016334" lon="2.05285034">
        <ele>344.0</ele>
        <time>2019-06-09T08:53:31+02:00</time>
      </trkpt>
      <trkpt lat="41.69022833999999" lon="2.05286">
        <ele>344.0</ele>
        <time>2019-06-09T08:53:33+02:00</time>
      </trkpt>
      <trkpt lat="41.69029833999999" lon="2.052835">
        <ele>344.0</ele>
        <time>2019-06-09T08:53:35+02:00</time>
      </trkpt>
      <trkpt lat="41.69035667" lon="2.0527879999999996">
        <ele>344.0</ele>
        <time>2019-06-09T08:53:37+02:00</time>
      </trkpt>
      <trkpt lat="41.690401670000014" lon="2.0527243399999997">
        <ele>343.0</ele>
        <time>2019-06-09T08:53:39+02:00</time>
      </trkpt>
      <trkpt lat="41.69044334" lon="2.0526133399999997">
        <ele>343.0</ele>
        <time>2019-06-09T08:53:41+02:00</time>
      </trkpt>
      <trkpt lat="41.690470000000005" lon="2.0525383400000003">
        <ele>343.0</ele>
        <time>2019-06-09T08:53:43+02:00</time>
      </trkpt>
      <trkpt lat="41.6905" lon="2.05244834">
        <ele>343.0</ele>
        <time>2019-06-09T08:53:45+02:00</time>
      </trkpt>
      <trkpt lat="41.690524999999994" lon="2.0523416699999997">
        <ele>343.0</ele>
        <time>2019-06-09T08:53:47+02:00</time>
      </trkpt>
      <trkpt lat="41.690552339999996" lon="2.0522400000000003">
        <ele>343.0</ele>
        <time>2019-06-09T08:53:49+02:00</time>
      </trkpt>
      <trkpt lat="41.690580669999996" lon="2.052165">
        <ele>343.0</ele>
        <time>2019-06-09T08:53:51+02:00</time>
      </trkpt>
      <trkpt lat="41.690618670000006" lon="2.0520866699999996">
        <ele>342.0</ele>
        <time>2019-06-09T08:53:53+02:00</time>
      </trkpt>
      <trkpt lat="41.69066334" lon="2.0520050000000003">
        <ele>342.0</ele>
        <time>2019-06-09T08:53:55+02:00</time>
      </trkpt>
      <trkpt lat="41.690693339999996" lon="2.05195667">
        <ele>342.0</ele>
        <time>2019-06-09T08:53:56+02:00</time>
      </trkpt>
      <trkpt lat="41.690736" lon="2.05189">
        <ele>342.0</ele>
        <time>2019-06-09T08:53:58+02:00</time>
      </trkpt>
      <trkpt lat="41.690785999999996" lon="2.05181167">
        <ele>342.0</ele>
        <time>2019-06-09T08:54:00+02:00</time>
      </trkpt>
      <trkpt lat="41.690819" lon="2.0517650000000005">
        <ele>342.0</ele>
        <time>2019-06-09T08:54:01+02:00</time>
      </trkpt>
      <trkpt lat="41.690864" lon="2.0517">
        <ele>342.0</ele>
        <time>2019-06-09T08:54:03+02:00</time>
      </trkpt>
      <trkpt lat="41.69091367" lon="2.05163167">
        <ele>342.0</ele>
        <time>2019-06-09T08:54:05+02:00</time>
      </trkpt>
      <trkpt lat="41.690965999999996" lon="2.05156">
        <ele>342.0</ele>
        <time>2019-06-09T08:54:07+02:00</time>
      </trkpt>
      <trkpt lat="41.69102300000001" lon="2.05148">
        <ele>341.0</ele>
        <time>2019-06-09T08:54:09+02:00</time>
      </trkpt>
      <trkpt lat="41.69108567" lon="2.0513933399999997">
        <ele>341.0</ele>
        <time>2019-06-09T08:54:11+02:00</time>
      </trkpt>
      <trkpt lat="41.69114167000001" lon="2.0513166699999994">
        <ele>341.0</ele>
        <time>2019-06-09T08:54:13+02:00</time>
      </trkpt>
      <trkpt lat="41.69124167" lon="2.05125">
        <ele>341.0</ele>
        <time>2019-06-09T08:54:15+02:00</time>
      </trkpt>
      <trkpt lat="41.69130667" lon="2.0511999999999997">
        <ele>341.0</ele>
        <time>2019-06-09T08:54:17+02:00</time>
      </trkpt>
      <trkpt lat="41.691379999999995" lon="2.0511416700000002">
        <ele>340.0</ele>
        <time>2019-06-09T08:54:19+02:00</time>
      </trkpt>
      <trkpt lat="41.691445" lon="2.05108">
        <ele>340.0</ele>
        <time>2019-06-09T08:54:21+02:00</time>
      </trkpt>
      <trkpt lat="41.69149334" lon="2.0510213400000006">
        <ele>340.0</ele>
        <time>2019-06-09T08:54:23+02:00</time>
      </trkpt>
      <trkpt lat="41.69153167" lon="2.05091667">
        <ele>340.0</ele>
        <time>2019-06-09T08:54:25+02:00</time>
      </trkpt>
      <trkpt lat="41.691555" lon="2.05081">
        <ele>340.0</ele>
        <time>2019-06-09T08:54:27+02:00</time>
      </trkpt>
      <trkpt lat="41.69156667000001" lon="2.0507516700000004">
        <ele>339.0</ele>
        <time>2019-06-09T08:54:28+02:00</time>
      </trkpt>
      <trkpt lat="41.69159334" lon="2.05063667">
        <ele>339.0</ele>
        <time>2019-06-09T08:54:30+02:00</time>
      </trkpt>
      <trkpt lat="41.691610000000004" lon="2.0505783399999995">
        <ele>339.0</ele>
        <time>2019-06-09T08:54:31+02:00</time>
      </trkpt>
      <trkpt lat="41.691632670000004" lon="2.05052667">
        <ele>339.0</ele>
        <time>2019-06-09T08:54:32+02:00</time>
      </trkpt>
      <trkpt lat="41.691661999999994" lon="2.05048167">
        <ele>339.0</ele>
        <time>2019-06-09T08:54:33+02:00</time>
      </trkpt>
      <trkpt lat="41.691694670000004" lon="2.05044667">
        <ele>339.0</ele>
        <time>2019-06-09T08:54:34+02:00</time>
      </trkpt>
      <trkpt lat="41.691726" lon="2.050425">
        <ele>339.0</ele>
        <time>2019-06-09T08:54:35+02:00</time>
      </trkpt>
      <trkpt lat="41.691801670000004" lon="2.0504166699999997">
        <ele>339.0</ele>
        <time>2019-06-09T08:54:36+02:00</time>
      </trkpt>
      <trkpt lat="41.69184833999999" lon="2.05042">
        <ele>339.0</ele>
        <time>2019-06-09T08:54:37+02:00</time>
      </trkpt>
      <trkpt lat="41.691895" lon="2.0504299999999995">
        <ele>339.0</ele>
        <time>2019-06-09T08:54:38+02:00</time>
      </trkpt>
      <trkpt lat="41.69194" lon="2.05045">
        <ele>339.0</ele>
        <time>2019-06-09T08:54:39+02:00</time>
      </trkpt>
      <trkpt lat="41.69198333999999" lon="2.05047167">
        <ele>339.0</ele>
        <time>2019-06-09T08:54:40+02:00</time>
      </trkpt>
      <trkpt lat="41.692026670000004" lon="2.05049334">
        <ele>339.0</ele>
        <time>2019-06-09T08:54:41+02:00</time>
      </trkpt>
      <trkpt lat="41.692111669999996" lon="2.050535">
        <ele>339.0</ele>
        <time>2019-06-09T08:54:43+02:00</time>
      </trkpt>
      <trkpt lat="41.692155" lon="2.05055167">
        <ele>339.0</ele>
        <time>2019-06-09T08:54:44+02:00</time>
      </trkpt>
      <trkpt lat="41.69224167" lon="2.05056034">
        <ele>338.0</ele>
        <time>2019-06-09T08:54:46+02:00</time>
      </trkpt>
      <trkpt lat="41.692328339999996" lon="2.0505416699999994">
        <ele>338.0</ele>
        <time>2019-06-09T08:54:48+02:00</time>
      </trkpt>
      <trkpt lat="41.692373339999996" lon="2.050523">
        <ele>338.0</ele>
        <time>2019-06-09T08:54:49+02:00</time>
      </trkpt>
      <trkpt lat="41.692420000000006" lon="2.0505033399999997">
        <ele>338.0</ele>
        <time>2019-06-09T08:54:50+02:00</time>
      </trkpt>
      <trkpt lat="41.69246667000001" lon="2.0504883400000002">
        <ele>338.0</ele>
        <time>2019-06-09T08:54:51+02:00</time>
      </trkpt>
      <trkpt lat="41.69251834" lon="2.050477">
        <ele>337.0</ele>
        <time>2019-06-09T08:54:52+02:00</time>
      </trkpt>
      <trkpt lat="41.692566670000005" lon="2.05047267">
        <ele>337.0</ele>
        <time>2019-06-09T08:54:53+02:00</time>
      </trkpt>
      <trkpt lat="41.692613339999994" lon="2.050476">
        <ele>337.0</ele>
        <time>2019-06-09T08:54:54+02:00</time>
      </trkpt>
      <trkpt lat="41.692658339999994" lon="2.05048367">
        <ele>337.0</ele>
        <time>2019-06-09T08:54:55+02:00</time>
      </trkpt>
      <trkpt lat="41.692701670000005" lon="2.05049467">
        <ele>337.0</ele>
        <time>2019-06-09T08:54:56+02:00</time>
      </trkpt>
      <trkpt lat="41.692745" lon="2.0505083399999995">
        <ele>337.0</ele>
        <time>2019-06-09T08:54:57+02:00</time>
      </trkpt>
      <trkpt lat="41.69282833999999" lon="2.050528">
        <ele>337.0</ele>
        <time>2019-06-09T08:54:59+02:00</time>
      </trkpt>
      <trkpt lat="41.692915000000006" lon="2.0505510000000005">
        <ele>336.0</ele>
        <time>2019-06-09T08:55:01+02:00</time>
      </trkpt>
      <trkpt lat="41.692998339999995" lon="2.05056967">
        <ele>336.0</ele>
        <time>2019-06-09T08:55:03+02:00</time>
      </trkpt>
      <trkpt lat="41.693083339999994" lon="2.05058167">
        <ele>336.0</ele>
        <time>2019-06-09T08:55:05+02:00</time>
      </trkpt>
      <trkpt lat="41.693165" lon="2.0505829999999996">
        <ele>336.0</ele>
        <time>2019-06-09T08:55:07+02:00</time>
      </trkpt>
      <trkpt lat="41.69324667000001" lon="2.0505796700000003">
        <ele>336.0</ele>
        <time>2019-06-09T08:55:09+02:00</time>
      </trkpt>
      <trkpt lat="41.69332167" lon="2.05056834">
        <ele>335.0</ele>
        <time>2019-06-09T08:55:11+02:00</time>
      </trkpt>
      <trkpt lat="41.69338667" lon="2.05054734">
        <ele>335.0</ele>
        <time>2019-06-09T08:55:12+02:00</time>
      </trkpt>
      <trkpt lat="41.69344667" lon="2.0503833399999993">
        <ele>335.0</ele>
        <time>2019-06-09T08:55:14+02:00</time>
      </trkpt>
      <trkpt lat="41.69349834" lon="2.05029834">
        <ele>335.0</ele>
        <time>2019-06-09T08:55:16+02:00</time>
      </trkpt>
      <trkpt lat="41.69354167" lon="2.05020667">
        <ele>334.0</ele>
        <time>2019-06-09T08:55:18+02:00</time>
      </trkpt>
      <trkpt lat="41.693565" lon="2.0501033399999997">
        <ele>334.0</ele>
        <time>2019-06-09T08:55:20+02:00</time>
      </trkpt>
      <trkpt lat="41.69357333999999" lon="2.04999">
        <ele>334.0</ele>
        <time>2019-06-09T08:55:22+02:00</time>
      </trkpt>
      <trkpt lat="41.69357333999999" lon="2.0498716699999995">
        <ele>334.0</ele>
        <time>2019-06-09T08:55:24+02:00</time>
      </trkpt>
      <trkpt lat="41.69356834" lon="2.04975667">
        <ele>334.0</ele>
        <time>2019-06-09T08:55:26+02:00</time>
      </trkpt>
      <trkpt lat="41.693563340000004" lon="2.04964">
        <ele>334.0</ele>
        <time>2019-06-09T08:55:28+02:00</time>
      </trkpt>
      <trkpt lat="41.69355967" lon="2.049525">
        <ele>334.0</ele>
        <time>2019-06-09T08:55:30+02:00</time>
      </trkpt>
      <trkpt lat="41.69356" lon="2.0494083399999994">
        <ele>333.0</ele>
        <time>2019-06-09T08:55:32+02:00</time>
      </trkpt>
      <trkpt lat="41.693563000000005" lon="2.0492983399999996">
        <ele>333.0</ele>
        <time>2019-06-09T08:55:34+02:00</time>
      </trkpt>
      <trkpt lat="41.693571000000006" lon="2.049185">
        <ele>333.0</ele>
        <time>2019-06-09T08:55:36+02:00</time>
      </trkpt>
      <trkpt lat="41.693585999999996" lon="2.04908">
        <ele>332.0</ele>
        <time>2019-06-09T08:55:38+02:00</time>
      </trkpt>
      <trkpt lat="41.69359867" lon="2.0490183399999995">
        <ele>332.0</ele>
        <time>2019-06-09T08:55:39+02:00</time>
      </trkpt>
      <trkpt lat="41.69361667" lon="2.0489216699999995">
        <ele>332.0</ele>
        <time>2019-06-09T08:55:41+02:00</time>
      </trkpt>
      <trkpt lat="41.693642999999994" lon="2.0488150000000003">
        <ele>332.0</ele>
        <time>2019-06-09T08:55:43+02:00</time>
      </trkpt>
      <trkpt lat="41.69366233999999" lon="2.0487616699999998">
        <ele>331.0</ele>
        <time>2019-06-09T08:55:44+02:00</time>
      </trkpt>
      <trkpt lat="41.69368433999999" lon="2.04869834">
        <ele>331.0</ele>
        <time>2019-06-09T08:55:45+02:00</time>
      </trkpt>
      <trkpt lat="41.69371700000001" lon="2.04860167">
        <ele>331.0</ele>
        <time>2019-06-09T08:55:47+02:00</time>
      </trkpt>
      <trkpt lat="41.693742" lon="2.04855">
        <ele>331.0</ele>
        <time>2019-06-09T08:55:48+02:00</time>
      </trkpt>
      <trkpt lat="41.69376967" lon="2.048505">
        <ele>331.0</ele>
        <time>2019-06-09T08:55:49+02:00</time>
      </trkpt>
      <trkpt lat="41.693795339999994" lon="2.04846334">
        <ele>331.0</ele>
        <time>2019-06-09T08:55:50+02:00</time>
      </trkpt>
      <trkpt lat="41.69382334" lon="2.0484283399999996">
        <ele>331.0</ele>
        <time>2019-06-09T08:55:51+02:00</time>
      </trkpt>
      <trkpt lat="41.693963339999996" lon="2.0484">
        <ele>331.0</ele>
        <time>2019-06-09T08:55:52+02:00</time>
      </trkpt>
      <trkpt lat="41.694008339999996" lon="2.04838167">
        <ele>330.0</ele>
        <time>2019-06-09T08:55:53+02:00</time>
      </trkpt>
      <trkpt lat="41.694058340000005" lon="2.0483716699999994">
        <ele>330.0</ele>
        <time>2019-06-09T08:55:54+02:00</time>
      </trkpt>
      <trkpt lat="41.69411" lon="2.04837">
        <ele>330.0</ele>
        <time>2019-06-09T08:55:55+02:00</time>
      </trkpt>
      <trkpt lat="41.69415834" lon="2.048375">
        <ele>330.0</ele>
        <time>2019-06-09T08:55:56+02:00</time>
      </trkpt>
      <trkpt lat="41.694208339999996" lon="2.04838667">
        <ele>330.0</ele>
        <time>2019-06-09T08:55:57+02:00</time>
      </trkpt>
      <trkpt lat="41.69425499999999" lon="2.0484">
        <ele>330.0</ele>
        <time>2019-06-09T08:55:58+02:00</time>
      </trkpt>
      <trkpt lat="41.69430334" lon="2.0484216699999998">
        <ele>330.0</ele>
        <time>2019-06-09T08:55:59+02:00</time>
      </trkpt>
      <trkpt lat="41.69435" lon="2.0484433399999995">
        <ele>330.0</ele>
        <time>2019-06-09T08:56:00+02:00</time>
      </trkpt>
      <trkpt lat="41.69439667" lon="2.04846334">
        <ele>330.0</ele>
        <time>2019-06-09T08:56:01+02:00</time>
      </trkpt>
      <trkpt lat="41.69444334" lon="2.0484780000000002">
        <ele>330.0</ele>
        <time>2019-06-09T08:56:02+02:00</time>
      </trkpt>
      <trkpt lat="41.69449834" lon="2.04848634">
        <ele>330.0</ele>
        <time>2019-06-09T08:56:03+02:00</time>
      </trkpt>
      <trkpt lat="41.69458667000001" lon="2.0484703399999997">
        <ele>330.0</ele>
        <time>2019-06-09T08:56:05+02:00</time>
      </trkpt>
      <trkpt lat="41.694658340000004" lon="2.04839667">
        <ele>330.0</ele>
        <time>2019-06-09T08:56:07+02:00</time>
      </trkpt>
      <trkpt lat="41.69469333999999" lon="2.0483483399999995">
        <ele>330.0</ele>
        <time>2019-06-09T08:56:08+02:00</time>
      </trkpt>
      <trkpt lat="41.69473" lon="2.04829667">
        <ele>330.0</ele>
        <time>2019-06-09T08:56:09+02:00</time>
      </trkpt>
      <trkpt lat="41.694763339999994" lon="2.04824334">
        <ele>329.0</ele>
        <time>2019-06-09T08:56:10+02:00</time>
      </trkpt>
      <trkpt lat="41.694788339999995" lon="2.048185">
        <ele>329.0</ele>
        <time>2019-06-09T08:56:11+02:00</time>
      </trkpt>
      <trkpt lat="41.694806670000006" lon="2.0481216699999996">
        <ele>329.0</ele>
        <time>2019-06-09T08:56:12+02:00</time>
      </trkpt>
      <trkpt lat="41.69482" lon="2.0480566700000002">
        <ele>329.0</ele>
        <time>2019-06-09T08:56:13+02:00</time>
      </trkpt>
      <trkpt lat="41.694826670000005" lon="2.0479866699999993">
        <ele>329.0</ele>
        <time>2019-06-09T08:56:14+02:00</time>
      </trkpt>
      <trkpt lat="41.694826670000005" lon="2.04791334">
        <ele>329.0</ele>
        <time>2019-06-09T08:56:15+02:00</time>
      </trkpt>
      <trkpt lat="41.694825" lon="2.047835">
        <ele>329.0</ele>
        <time>2019-06-09T08:56:16+02:00</time>
      </trkpt>
      <trkpt lat="41.69483" lon="2.04775667">
        <ele>329.0</ele>
        <time>2019-06-09T08:56:17+02:00</time>
      </trkpt>
      <trkpt lat="41.694840000000006" lon="2.0476783399999996">
        <ele>329.0</ele>
        <time>2019-06-09T08:56:18+02:00</time>
      </trkpt>
      <trkpt lat="41.694857999999996" lon="2.047605">
        <ele>329.0</ele>
        <time>2019-06-09T08:56:19+02:00</time>
      </trkpt>
      <trkpt lat="41.69488434" lon="2.04754">
        <ele>329.0</ele>
        <time>2019-06-09T08:56:20+02:00</time>
      </trkpt>
      <trkpt lat="41.694917999999994" lon="2.04748167">
        <ele>329.0</ele>
        <time>2019-06-09T08:56:21+02:00</time>
      </trkpt>
      <trkpt lat="41.69495533999999" lon="2.04743167">
        <ele>329.0</ele>
        <time>2019-06-09T08:56:22+02:00</time>
      </trkpt>
      <trkpt lat="41.69499634" lon="2.0473833399999997">
        <ele>329.0</ele>
        <time>2019-06-09T08:56:23+02:00</time>
      </trkpt>
      <trkpt lat="41.69507334" lon="2.04734">
        <ele>329.0</ele>
        <time>2019-06-09T08:56:24+02:00</time>
      </trkpt>
      <trkpt lat="41.695121670000006" lon="2.047295">
        <ele>329.0</ele>
        <time>2019-06-09T08:56:25+02:00</time>
      </trkpt>
      <trkpt lat="41.69516167" lon="2.0472433399999996">
        <ele>329.0</ele>
        <time>2019-06-09T08:56:26+02:00</time>
      </trkpt>
      <trkpt lat="41.69519933999999" lon="2.0471833399999997">
        <ele>329.0</ele>
        <time>2019-06-09T08:56:27+02:00</time>
      </trkpt>
      <trkpt lat="41.69523367" lon="2.04711834">
        <ele>329.0</ele>
        <time>2019-06-09T08:56:28+02:00</time>
      </trkpt>
      <trkpt lat="41.695264339999994" lon="2.047045">
        <ele>329.0</ele>
        <time>2019-06-09T08:56:29+02:00</time>
      </trkpt>
      <trkpt lat="41.69529100000001" lon="2.04697">
        <ele>329.0</ele>
        <time>2019-06-09T08:56:30+02:00</time>
      </trkpt>
      <trkpt lat="41.69531866999999" lon="2.0468900000000003">
        <ele>329.0</ele>
        <time>2019-06-09T08:56:31+02:00</time>
      </trkpt>
      <trkpt lat="41.695346670000006" lon="2.0468083399999992">
        <ele>329.0</ele>
        <time>2019-06-09T08:56:32+02:00</time>
      </trkpt>
      <trkpt lat="41.695376339999996" lon="2.04673167">
        <ele>329.0</ele>
        <time>2019-06-09T08:56:33+02:00</time>
      </trkpt>
      <trkpt lat="41.69541034" lon="2.0466533399999998">
        <ele>330.0</ele>
        <time>2019-06-09T08:56:34+02:00</time>
      </trkpt>
      <trkpt lat="41.69544567" lon="2.0465733399999997">
        <ele>330.0</ele>
        <time>2019-06-09T08:56:35+02:00</time>
      </trkpt>
      <trkpt lat="41.69548234" lon="2.04649834">
        <ele>330.0</ele>
        <time>2019-06-09T08:56:36+02:00</time>
      </trkpt>
      <trkpt lat="41.695523" lon="2.04642">
        <ele>330.0</ele>
        <time>2019-06-09T08:56:37+02:00</time>
      </trkpt>
      <trkpt lat="41.69556300000001" lon="2.04634167">
        <ele>330.0</ele>
        <time>2019-06-09T08:56:38+02:00</time>
      </trkpt>
      <trkpt lat="41.69560467" lon="2.04626334">
        <ele>330.0</ele>
        <time>2019-06-09T08:56:39+02:00</time>
      </trkpt>
      <trkpt lat="41.695645670000005" lon="2.04618">
        <ele>331.0</ele>
        <time>2019-06-09T08:56:40+02:00</time>
      </trkpt>
      <trkpt lat="41.69568367" lon="2.0460900000000004">
        <ele>331.0</ele>
        <time>2019-06-09T08:56:41+02:00</time>
      </trkpt>
      <trkpt lat="41.69571667000001" lon="2.045995">
        <ele>331.0</ele>
        <time>2019-06-09T08:56:42+02:00</time>
      </trkpt>
      <trkpt lat="41.695744" lon="2.04589834">
        <ele>331.0</ele>
        <time>2019-06-09T08:56:43+02:00</time>
      </trkpt>
      <trkpt lat="41.695765" lon="2.0457716699999997">
        <ele>332.0</ele>
        <time>2019-06-09T08:56:44+02:00</time>
      </trkpt>
      <trkpt lat="41.69578034" lon="2.0456983399999995">
        <ele>332.0</ele>
        <time>2019-06-09T08:56:45+02:00</time>
      </trkpt>
      <trkpt lat="41.69580266999999" lon="2.0456316699999997">
        <ele>332.0</ele>
        <time>2019-06-09T08:56:46+02:00</time>
      </trkpt>
      <trkpt lat="41.69588667" lon="2.0456033399999995">
        <ele>333.0</ele>
        <time>2019-06-09T08:56:47+02:00</time>
      </trkpt>
      <trkpt lat="41.69596334" lon="2.0456033399999995">
        <ele>333.0</ele>
        <time>2019-06-09T08:56:48+02:00</time>
      </trkpt>
      <trkpt lat="41.69603334" lon="2.045645">
        <ele>333.0</ele>
        <time>2019-06-09T08:56:49+02:00</time>
      </trkpt>
      <trkpt lat="41.696105" lon="2.0456849999999998">
        <ele>334.0</ele>
        <time>2019-06-09T08:56:50+02:00</time>
      </trkpt>
      <trkpt lat="41.69617167" lon="2.04572334">
        <ele>334.0</ele>
        <time>2019-06-09T08:56:51+02:00</time>
      </trkpt>
      <trkpt lat="41.69624" lon="2.0457533399999996">
        <ele>334.0</ele>
        <time>2019-06-09T08:56:52+02:00</time>
      </trkpt>
      <trkpt lat="41.69630834000001" lon="2.0457716699999997">
        <ele>335.0</ele>
        <time>2019-06-09T08:56:53+02:00</time>
      </trkpt>
      <trkpt lat="41.69637667000001" lon="2.0457783399999996">
        <ele>335.0</ele>
        <time>2019-06-09T08:56:54+02:00</time>
      </trkpt>
      <trkpt lat="41.69644167" lon="2.04576867">
        <ele>335.0</ele>
        <time>2019-06-09T08:56:55+02:00</time>
      </trkpt>
      <trkpt lat="41.69650334" lon="2.04574267">
        <ele>335.0</ele>
        <time>2019-06-09T08:56:56+02:00</time>
      </trkpt>
      <trkpt lat="41.69657334" lon="2.0456983399999995">
        <ele>335.0</ele>
        <time>2019-06-09T08:56:57+02:00</time>
      </trkpt>
      <trkpt lat="41.696616670000004" lon="2.0456573400000004">
        <ele>335.0</ele>
        <time>2019-06-09T08:56:58+02:00</time>
      </trkpt>
      <trkpt lat="41.69666334" lon="2.04556834">
        <ele>335.0</ele>
        <time>2019-06-09T08:56:59+02:00</time>
      </trkpt>
      <trkpt lat="41.69671" lon="2.045505">
        <ele>336.0</ele>
        <time>2019-06-09T08:57:00+02:00</time>
      </trkpt>
      <trkpt lat="41.69675334" lon="2.04543834">
        <ele>336.0</ele>
        <time>2019-06-09T08:57:01+02:00</time>
      </trkpt>
      <trkpt lat="41.6968" lon="2.04537667">
        <ele>336.0</ele>
        <time>2019-06-09T08:57:02+02:00</time>
      </trkpt>
      <trkpt lat="41.69684667" lon="2.04532034">
        <ele>336.0</ele>
        <time>2019-06-09T08:57:03+02:00</time>
      </trkpt>
      <trkpt lat="41.696893339999995" lon="2.045262">
        <ele>337.0</ele>
        <time>2019-06-09T08:57:04+02:00</time>
      </trkpt>
      <trkpt lat="41.69692833999999" lon="2.0452033399999996">
        <ele>337.0</ele>
        <time>2019-06-09T08:57:05+02:00</time>
      </trkpt>
      <trkpt lat="41.69695667" lon="2.045145">
        <ele>337.0</ele>
        <time>2019-06-09T08:57:06+02:00</time>
      </trkpt>
      <trkpt lat="41.696983339999996" lon="2.04504834">
        <ele>338.0</ele>
        <time>2019-06-09T08:57:07+02:00</time>
      </trkpt>
      <trkpt lat="41.697015" lon="2.0449733399999994">
        <ele>338.0</ele>
        <time>2019-06-09T08:57:08+02:00</time>
      </trkpt>
      <trkpt lat="41.697050000000004" lon="2.04490334">
        <ele>338.0</ele>
        <time>2019-06-09T08:57:09+02:00</time>
      </trkpt>
      <trkpt lat="41.697086" lon="2.0448333399999994">
        <ele>339.0</ele>
        <time>2019-06-09T08:57:10+02:00</time>
      </trkpt>
      <trkpt lat="41.697123999999995" lon="2.0447666699999996">
        <ele>339.0</ele>
        <time>2019-06-09T08:57:11+02:00</time>
      </trkpt>
      <trkpt lat="41.697160999999994" lon="2.0446999999999997">
        <ele>339.0</ele>
        <time>2019-06-09T08:57:12+02:00</time>
      </trkpt>
      <trkpt lat="41.697204" lon="2.0446216699999997">
        <ele>339.0</ele>
        <time>2019-06-09T08:57:13+02:00</time>
      </trkpt>
      <trkpt lat="41.69723034" lon="2.04457167">
        <ele>340.0</ele>
        <time>2019-06-09T08:57:14+02:00</time>
      </trkpt>
      <trkpt lat="41.69726433999999" lon="2.0445083399999993">
        <ele>340.0</ele>
        <time>2019-06-09T08:57:15+02:00</time>
      </trkpt>
      <trkpt lat="41.697298669999995" lon="2.04445">
        <ele>340.0</ele>
        <time>2019-06-09T08:57:16+02:00</time>
      </trkpt>
      <trkpt lat="41.69733333999999" lon="2.04440167">
        <ele>340.0</ele>
        <time>2019-06-09T08:57:17+02:00</time>
      </trkpt>
      <trkpt lat="41.69736933999999" lon="2.04436334">
        <ele>341.0</ele>
        <time>2019-06-09T08:57:18+02:00</time>
      </trkpt>
      <trkpt lat="41.69746167" lon="2.044335">
        <ele>341.0</ele>
        <time>2019-06-09T08:57:19+02:00</time>
      </trkpt>
      <trkpt lat="41.69752334" lon="2.04432667">
        <ele>341.0</ele>
        <time>2019-06-09T08:57:20+02:00</time>
      </trkpt>
      <trkpt lat="41.69758667" lon="2.04433667">
        <ele>341.0</ele>
        <time>2019-06-09T08:57:21+02:00</time>
      </trkpt>
      <trkpt lat="41.69764334" lon="2.044365">
        <ele>342.0</ele>
        <time>2019-06-09T08:57:22+02:00</time>
      </trkpt>
      <trkpt lat="41.6977" lon="2.0444033399999997">
        <ele>342.0</ele>
        <time>2019-06-09T08:57:23+02:00</time>
      </trkpt>
      <trkpt lat="41.69775167000001" lon="2.04444667">
        <ele>342.0</ele>
        <time>2019-06-09T08:57:24+02:00</time>
      </trkpt>
      <trkpt lat="41.69781833999999" lon="2.04449167">
        <ele>342.0</ele>
        <time>2019-06-09T08:57:25+02:00</time>
      </trkpt>
      <trkpt lat="41.69786667" lon="2.04451334">
        <ele>343.0</ele>
        <time>2019-06-09T08:57:26+02:00</time>
      </trkpt>
      <trkpt lat="41.69792334" lon="2.0445333399999996">
        <ele>343.0</ele>
        <time>2019-06-09T08:57:27+02:00</time>
      </trkpt>
      <trkpt lat="41.69797833999999" lon="2.0445420000000003">
        <ele>343.0</ele>
        <time>2019-06-09T08:57:28+02:00</time>
      </trkpt>
      <trkpt lat="41.69803334" lon="2.0445409999999997">
        <ele>343.0</ele>
        <time>2019-06-09T08:57:29+02:00</time>
      </trkpt>
      <trkpt lat="41.698088340000005" lon="2.044534">
        <ele>344.0</ele>
        <time>2019-06-09T08:57:30+02:00</time>
      </trkpt>
      <trkpt lat="41.698143339999994" lon="2.044521">
        <ele>344.0</ele>
        <time>2019-06-09T08:57:31+02:00</time>
      </trkpt>
      <trkpt lat="41.698201669999996" lon="2.0445033399999994">
        <ele>344.0</ele>
        <time>2019-06-09T08:57:32+02:00</time>
      </trkpt>
      <trkpt lat="41.69825834" lon="2.044482">
        <ele>344.0</ele>
        <time>2019-06-09T08:57:33+02:00</time>
      </trkpt>
      <trkpt lat="41.698313340000006" lon="2.0444283399999996">
        <ele>344.0</ele>
        <time>2019-06-09T08:57:34+02:00</time>
      </trkpt>
      <trkpt lat="41.69836334" lon="2.0443866699999997">
        <ele>344.0</ele>
        <time>2019-06-09T08:57:35+02:00</time>
      </trkpt>
      <trkpt lat="41.698411670000006" lon="2.04433834">
        <ele>344.0</ele>
        <time>2019-06-09T08:57:36+02:00</time>
      </trkpt>
      <trkpt lat="41.69845667" lon="2.04428834">
        <ele>345.0</ele>
        <time>2019-06-09T08:57:37+02:00</time>
      </trkpt>
      <trkpt lat="41.698496670000004" lon="2.04423167">
        <ele>345.0</ele>
        <time>2019-06-09T08:57:38+02:00</time>
      </trkpt>
      <trkpt lat="41.698533340000004" lon="2.0441683399999997">
        <ele>345.0</ele>
        <time>2019-06-09T08:57:39+02:00</time>
      </trkpt>
      <trkpt lat="41.69856334" lon="2.0441">
        <ele>345.0</ele>
        <time>2019-06-09T08:57:40+02:00</time>
      </trkpt>
      <trkpt lat="41.698595000000005" lon="2.0440300000000002">
        <ele>346.0</ele>
        <time>2019-06-09T08:57:41+02:00</time>
      </trkpt>
      <trkpt lat="41.69863667" lon="2.0439466699999995">
        <ele>346.0</ele>
        <time>2019-06-09T08:57:42+02:00</time>
      </trkpt>
      <trkpt lat="41.69867167" lon="2.0438946700000002">
        <ele>346.0</ele>
        <time>2019-06-09T08:57:43+02:00</time>
      </trkpt>
      <trkpt lat="41.69872334" lon="2.0438406700000002">
        <ele>346.0</ele>
        <time>2019-06-09T08:57:44+02:00</time>
      </trkpt>
      <trkpt lat="41.69878" lon="2.0437950000000003">
        <ele>346.0</ele>
        <time>2019-06-09T08:57:45+02:00</time>
      </trkpt>
      <trkpt lat="41.69885000000001" lon="2.0437489999999996">
        <ele>347.0</ele>
        <time>2019-06-09T08:57:46+02:00</time>
      </trkpt>
      <trkpt lat="41.698901670000005" lon="2.04372467">
        <ele>347.0</ele>
        <time>2019-06-09T08:57:47+02:00</time>
      </trkpt>
      <trkpt lat="41.69896167" lon="2.043725">
        <ele>347.0</ele>
        <time>2019-06-09T08:57:48+02:00</time>
      </trkpt>
      <trkpt lat="41.69902167" lon="2.043705">
        <ele>347.0</ele>
        <time>2019-06-09T08:57:49+02:00</time>
      </trkpt>
      <trkpt lat="41.69908167" lon="2.0436799999999997">
        <ele>348.0</ele>
        <time>2019-06-09T08:57:50+02:00</time>
      </trkpt>
      <trkpt lat="41.699153339999995" lon="2.04364834">
        <ele>348.0</ele>
        <time>2019-06-09T08:57:51+02:00</time>
      </trkpt>
      <trkpt lat="41.699200000000005" lon="2.0436283399999997">
        <ele>348.0</ele>
        <time>2019-06-09T08:57:52+02:00</time>
      </trkpt>
      <trkpt lat="41.699259999999995" lon="2.0436020000000004">
        <ele>348.0</ele>
        <time>2019-06-09T08:57:53+02:00</time>
      </trkpt>
      <trkpt lat="41.69931667000001" lon="2.0435763400000004">
        <ele>348.0</ele>
        <time>2019-06-09T08:57:54+02:00</time>
      </trkpt>
      <trkpt lat="41.699374999999996" lon="2.043551">
        <ele>349.0</ele>
        <time>2019-06-09T08:57:55+02:00</time>
      </trkpt>
      <trkpt lat="41.699433340000006" lon="2.04352767">
        <ele>349.0</ele>
        <time>2019-06-09T08:57:56+02:00</time>
      </trkpt>
      <trkpt lat="41.69949167000001" lon="2.0435049999999997">
        <ele>349.0</ele>
        <time>2019-06-09T08:57:57+02:00</time>
      </trkpt>
      <trkpt lat="41.69954833999999" lon="2.0434840000000003">
        <ele>349.0</ele>
        <time>2019-06-09T08:57:58+02:00</time>
      </trkpt>
      <trkpt lat="41.69960167000001" lon="2.0434650000000003">
        <ele>350.0</ele>
        <time>2019-06-09T08:57:59+02:00</time>
      </trkpt>
      <trkpt lat="41.699658340000006" lon="2.043445">
        <ele>350.0</ele>
        <time>2019-06-09T08:58:00+02:00</time>
      </trkpt>
      <trkpt lat="41.699711670000006" lon="2.04342434">
        <ele>350.0</ele>
        <time>2019-06-09T08:58:01+02:00</time>
      </trkpt>
      <trkpt lat="41.69976" lon="2.04340434">
        <ele>350.0</ele>
        <time>2019-06-09T08:58:02+02:00</time>
      </trkpt>
      <trkpt lat="41.699805" lon="2.04338234">
        <ele>350.0</ele>
        <time>2019-06-09T08:58:03+02:00</time>
      </trkpt>
      <trkpt lat="41.699843339999994" lon="2.0433583399999997">
        <ele>350.0</ele>
        <time>2019-06-09T08:58:04+02:00</time>
      </trkpt>
      <trkpt lat="41.69987834" lon="2.043332">
        <ele>351.0</ele>
        <time>2019-06-09T08:58:05+02:00</time>
      </trkpt>
      <trkpt lat="41.699906670000004" lon="2.043303">
        <ele>351.0</ele>
        <time>2019-06-09T08:58:06+02:00</time>
      </trkpt>
      <trkpt lat="41.69993000000001" lon="2.04316334">
        <ele>351.0</ele>
        <time>2019-06-09T08:58:07+02:00</time>
      </trkpt>
      <trkpt lat="41.69994667000001" lon="2.0431">
        <ele>351.0</ele>
        <time>2019-06-09T08:58:08+02:00</time>
      </trkpt>
      <trkpt lat="41.69995667" lon="2.0430349999999997">
        <ele>351.0</ele>
        <time>2019-06-09T08:58:09+02:00</time>
      </trkpt>
      <trkpt lat="41.699963340000004" lon="2.0429666699999998">
        <ele>351.0</ele>
        <time>2019-06-09T08:58:10+02:00</time>
      </trkpt>
      <trkpt lat="41.699963340000004" lon="2.042905">
        <ele>351.0</ele>
        <time>2019-06-09T08:58:11+02:00</time>
      </trkpt>
      <trkpt lat="41.69996" lon="2.04284334">
        <ele>351.0</ele>
        <time>2019-06-09T08:58:12+02:00</time>
      </trkpt>
      <trkpt lat="41.69995667" lon="2.0427833399999993">
        <ele>351.0</ele>
        <time>2019-06-09T08:58:13+02:00</time>
      </trkpt>
      <trkpt lat="41.699955" lon="2.04272">
        <ele>351.0</ele>
        <time>2019-06-09T08:58:14+02:00</time>
      </trkpt>
      <trkpt lat="41.69995967" lon="2.04260167">
        <ele>351.0</ele>
        <time>2019-06-09T08:58:16+02:00</time>
      </trkpt>
      <trkpt lat="41.69997567" lon="2.0424866699999997">
        <ele>351.0</ele>
        <time>2019-06-09T08:58:18+02:00</time>
      </trkpt>
      <trkpt lat="41.699997669999995" lon="2.04237834">
        <ele>351.0</ele>
        <time>2019-06-09T08:58:20+02:00</time>
      </trkpt>
      <trkpt lat="41.70002867" lon="2.0422716699999994">
        <ele>351.0</ele>
        <time>2019-06-09T08:58:22+02:00</time>
      </trkpt>
      <trkpt lat="41.700046339999986" lon="2.04221334">
        <ele>351.0</ele>
        <time>2019-06-09T08:58:23+02:00</time>
      </trkpt>
      <trkpt lat="41.70006434" lon="2.04215667">
        <ele>351.0</ele>
        <time>2019-06-09T08:58:24+02:00</time>
      </trkpt>
      <trkpt lat="41.700083340000006" lon="2.04210167">
        <ele>351.0</ele>
        <time>2019-06-09T08:58:25+02:00</time>
      </trkpt>
      <trkpt lat="41.70010700000001" lon="2.042035">
        <ele>351.0</ele>
        <time>2019-06-09T08:58:26+02:00</time>
      </trkpt>
      <trkpt lat="41.70013134" lon="2.0419816699999997">
        <ele>351.0</ele>
        <time>2019-06-09T08:58:27+02:00</time>
      </trkpt>
      <trkpt lat="41.700171669999996" lon="2.0418916699999996">
        <ele>351.0</ele>
        <time>2019-06-09T08:58:29+02:00</time>
      </trkpt>
      <trkpt lat="41.700202669999996" lon="2.0418466699999995">
        <ele>351.0</ele>
        <time>2019-06-09T08:58:30+02:00</time>
      </trkpt>
      <trkpt lat="41.70023134" lon="2.0418033399999995">
        <ele>351.0</ele>
        <time>2019-06-09T08:58:31+02:00</time>
      </trkpt>
      <trkpt lat="41.70026234" lon="2.0417566700000003">
        <ele>351.0</ele>
        <time>2019-06-09T08:58:32+02:00</time>
      </trkpt>
      <trkpt lat="41.700291670000006" lon="2.04171167">
        <ele>351.0</ele>
        <time>2019-06-09T08:58:33+02:00</time>
      </trkpt>
      <trkpt lat="41.70034334" lon="2.0416116699999995">
        <ele>351.0</ele>
        <time>2019-06-09T08:58:35+02:00</time>
      </trkpt>
      <trkpt lat="41.70039500000001" lon="2.04150167">
        <ele>351.0</ele>
        <time>2019-06-09T08:58:37+02:00</time>
      </trkpt>
      <trkpt lat="41.70043" lon="2.04138834">
        <ele>350.0</ele>
        <time>2019-06-09T08:58:39+02:00</time>
      </trkpt>
      <trkpt lat="41.70042334" lon="2.0412633399999995">
        <ele>350.0</ele>
        <time>2019-06-09T08:58:41+02:00</time>
      </trkpt>
      <trkpt lat="41.70041500000001" lon="2.041195">
        <ele>350.0</ele>
        <time>2019-06-09T08:58:42+02:00</time>
      </trkpt>
      <trkpt lat="41.700405" lon="2.041125">
        <ele>350.0</ele>
        <time>2019-06-09T08:58:43+02:00</time>
      </trkpt>
      <trkpt lat="41.700396669999996" lon="2.0410549999999996">
        <ele>350.0</ele>
        <time>2019-06-09T08:58:44+02:00</time>
      </trkpt>
      <trkpt lat="41.70039267" lon="2.0409883399999997">
        <ele>349.0</ele>
        <time>2019-06-09T08:58:45+02:00</time>
      </trkpt>
      <trkpt lat="41.700393670000004" lon="2.0409216699999995">
        <ele>349.0</ele>
        <time>2019-06-09T08:58:46+02:00</time>
      </trkpt>
      <trkpt lat="41.70039834000001" lon="2.0408549999999996">
        <ele>349.0</ele>
        <time>2019-06-09T08:58:47+02:00</time>
      </trkpt>
      <trkpt lat="41.70040667" lon="2.04079167">
        <ele>349.0</ele>
        <time>2019-06-09T08:58:48+02:00</time>
      </trkpt>
      <trkpt lat="41.700421000000006" lon="2.04073">
        <ele>349.0</ele>
        <time>2019-06-09T08:58:49+02:00</time>
      </trkpt>
      <trkpt lat="41.700438999999996" lon="2.0406716699999996">
        <ele>348.0</ele>
        <time>2019-06-09T08:58:50+02:00</time>
      </trkpt>
      <trkpt lat="41.700461" lon="2.04061667">
        <ele>348.0</ele>
        <time>2019-06-09T08:58:51+02:00</time>
      </trkpt>
      <trkpt lat="41.70052167" lon="2.04056334">
        <ele>348.0</ele>
        <time>2019-06-09T08:58:52+02:00</time>
      </trkpt>
      <trkpt lat="41.700556670000005" lon="2.04051">
        <ele>348.0</ele>
        <time>2019-06-09T08:58:53+02:00</time>
      </trkpt>
      <trkpt lat="41.70059834" lon="2.0404466699999997">
        <ele>347.0</ele>
        <time>2019-06-09T08:58:54+02:00</time>
      </trkpt>
      <trkpt lat="41.70067" lon="2.040345">
        <ele>347.0</ele>
        <time>2019-06-09T08:58:56+02:00</time>
      </trkpt>
      <trkpt lat="41.700709669999995" lon="2.0403">
        <ele>347.0</ele>
        <time>2019-06-09T08:58:57+02:00</time>
      </trkpt>
      <trkpt lat="41.700753" lon="2.04027">
        <ele>347.0</ele>
        <time>2019-06-09T08:58:58+02:00</time>
      </trkpt>
      <trkpt lat="41.700851670000006" lon="2.04025167">
        <ele>346.0</ele>
        <time>2019-06-09T08:59:00+02:00</time>
      </trkpt>
      <trkpt lat="41.70090167" lon="2.04026">
        <ele>346.0</ele>
        <time>2019-06-09T08:59:01+02:00</time>
      </trkpt>
      <trkpt lat="41.70094834" lon="2.0402866699999995">
        <ele>346.0</ele>
        <time>2019-06-09T08:59:02+02:00</time>
      </trkpt>
      <trkpt lat="41.700993340000004" lon="2.0403200000000004">
        <ele>345.0</ele>
        <time>2019-06-09T08:59:03+02:00</time>
      </trkpt>
      <trkpt lat="41.70103334" lon="2.04036167">
        <ele>345.0</ele>
        <time>2019-06-09T08:59:04+02:00</time>
      </trkpt>
      <trkpt lat="41.70107167" lon="2.04040834">
        <ele>345.0</ele>
        <time>2019-06-09T08:59:05+02:00</time>
      </trkpt>
      <trkpt lat="41.70110667" lon="2.04046">
        <ele>345.0</ele>
        <time>2019-06-09T08:59:06+02:00</time>
      </trkpt>
      <trkpt lat="41.701134999999994" lon="2.0405183399999998">
        <ele>345.0</ele>
        <time>2019-06-09T08:59:07+02:00</time>
      </trkpt>
      <trkpt lat="41.701168339999995" lon="2.040575">
        <ele>344.0</ele>
        <time>2019-06-09T08:59:08+02:00</time>
      </trkpt>
      <trkpt lat="41.70120667" lon="2.040625">
        <ele>344.0</ele>
        <time>2019-06-09T08:59:09+02:00</time>
      </trkpt>
      <trkpt lat="41.70125167" lon="2.040665">
        <ele>344.0</ele>
        <time>2019-06-09T08:59:10+02:00</time>
      </trkpt>
      <trkpt lat="41.701303339999996" lon="2.040693">
        <ele>343.0</ele>
        <time>2019-06-09T08:59:11+02:00</time>
      </trkpt>
      <trkpt lat="41.70135834" lon="2.04071">
        <ele>343.0</ele>
        <time>2019-06-09T08:59:12+02:00</time>
      </trkpt>
      <trkpt lat="41.701415" lon="2.0407153399999998">
        <ele>343.0</ele>
        <time>2019-06-09T08:59:13+02:00</time>
      </trkpt>
      <trkpt lat="41.70147167000001" lon="2.040707">
        <ele>343.0</ele>
        <time>2019-06-09T08:59:14+02:00</time>
      </trkpt>
      <trkpt lat="41.701530000000005" lon="2.04064167">
        <ele>343.0</ele>
        <time>2019-06-09T08:59:15+02:00</time>
      </trkpt>
      <trkpt lat="41.70156" lon="2.040595">
        <ele>343.0</ele>
        <time>2019-06-09T08:59:16+02:00</time>
      </trkpt>
      <trkpt lat="41.70159334" lon="2.0405283399999994">
        <ele>343.0</ele>
        <time>2019-06-09T08:59:17+02:00</time>
      </trkpt>
      <trkpt lat="41.701615000000004" lon="2.040455">
        <ele>342.0</ele>
        <time>2019-06-09T08:59:18+02:00</time>
      </trkpt>
      <trkpt lat="41.70162834" lon="2.040375">
        <ele>342.0</ele>
        <time>2019-06-09T08:59:19+02:00</time>
      </trkpt>
      <trkpt lat="41.70163667" lon="2.04029">
        <ele>342.0</ele>
        <time>2019-06-09T08:59:20+02:00</time>
      </trkpt>
      <trkpt lat="41.70164333999999" lon="2.0402033399999997">
        <ele>342.0</ele>
        <time>2019-06-09T08:59:21+02:00</time>
      </trkpt>
      <trkpt lat="41.70165167000001" lon="2.040115">
        <ele>341.0</ele>
        <time>2019-06-09T08:59:22+02:00</time>
      </trkpt>
      <trkpt lat="41.70166167000001" lon="2.040025">
        <ele>341.0</ele>
        <time>2019-06-09T08:59:23+02:00</time>
      </trkpt>
      <trkpt lat="41.70167500000001" lon="2.03993667">
        <ele>341.0</ele>
        <time>2019-06-09T08:59:24+02:00</time>
      </trkpt>
      <trkpt lat="41.70168667" lon="2.03983">
        <ele>341.0</ele>
        <time>2019-06-09T08:59:25+02:00</time>
      </trkpt>
      <trkpt lat="41.70169" lon="2.03976">
        <ele>341.0</ele>
        <time>2019-06-09T08:59:26+02:00</time>
      </trkpt>
      <trkpt lat="41.70167834" lon="2.03959">
        <ele>340.0</ele>
        <time>2019-06-09T08:59:27+02:00</time>
      </trkpt>
      <trkpt lat="41.701665000000006" lon="2.03950834">
        <ele>340.0</ele>
        <time>2019-06-09T08:59:28+02:00</time>
      </trkpt>
      <trkpt lat="41.70164667" lon="2.0394116700000002">
        <ele>340.0</ele>
        <time>2019-06-09T08:59:29+02:00</time>
      </trkpt>
      <trkpt lat="41.701629999999994" lon="2.0393466699999996">
        <ele>340.0</ele>
        <time>2019-06-09T08:59:30+02:00</time>
      </trkpt>
      <trkpt lat="41.70161667000001" lon="2.03926334">
        <ele>339.0</ele>
        <time>2019-06-09T08:59:31+02:00</time>
      </trkpt>
      <trkpt lat="41.70161167" lon="2.03917834">
        <ele>339.0</ele>
        <time>2019-06-09T08:59:32+02:00</time>
      </trkpt>
      <trkpt lat="41.70161834" lon="2.0390900000000003">
        <ele>339.0</ele>
        <time>2019-06-09T08:59:33+02:00</time>
      </trkpt>
      <trkpt lat="41.70164200000001" lon="2.0389966699999995">
        <ele>339.0</ele>
        <time>2019-06-09T08:59:34+02:00</time>
      </trkpt>
      <trkpt lat="41.70166933999999" lon="2.0389500000000003">
        <ele>338.0</ele>
        <time>2019-06-09T08:59:35+02:00</time>
      </trkpt>
      <trkpt lat="41.701753339999996" lon="2.03890667">
        <ele>338.0</ele>
        <time>2019-06-09T08:59:36+02:00</time>
      </trkpt>
      <trkpt lat="41.701815" lon="2.03889167">
        <ele>338.0</ele>
        <time>2019-06-09T08:59:37+02:00</time>
      </trkpt>
      <trkpt lat="41.70188" lon="2.03888834">
        <ele>338.0</ele>
        <time>2019-06-09T08:59:38+02:00</time>
      </trkpt>
      <trkpt lat="41.701946670000005" lon="2.03888667">
        <ele>338.0</ele>
        <time>2019-06-09T08:59:39+02:00</time>
      </trkpt>
      <trkpt lat="41.70200999999999" lon="2.03888167">
        <ele>338.0</ele>
        <time>2019-06-09T08:59:40+02:00</time>
      </trkpt>
      <trkpt lat="41.70207334" lon="2.03886">
        <ele>337.0</ele>
        <time>2019-06-09T08:59:41+02:00</time>
      </trkpt>
      <trkpt lat="41.70212834" lon="2.0388233399999995">
        <ele>337.0</ele>
        <time>2019-06-09T08:59:42+02:00</time>
      </trkpt>
      <trkpt lat="41.702175000000004" lon="2.03877667">
        <ele>337.0</ele>
        <time>2019-06-09T08:59:43+02:00</time>
      </trkpt>
      <trkpt lat="41.70221167000001" lon="2.0387239999999998">
        <ele>337.0</ele>
        <time>2019-06-09T08:59:44+02:00</time>
      </trkpt>
      <trkpt lat="41.70224167" lon="2.0386680000000004">
        <ele>337.0</ele>
        <time>2019-06-09T08:59:45+02:00</time>
      </trkpt>
      <trkpt lat="41.70226334" lon="2.03861267">
        <ele>337.0</ele>
        <time>2019-06-09T08:59:46+02:00</time>
      </trkpt>
      <trkpt lat="41.702275" lon="2.03850167">
        <ele>337.0</ele>
        <time>2019-06-09T08:59:47+02:00</time>
      </trkpt>
      <trkpt lat="41.70228334" lon="2.03842834">
        <ele>337.0</ele>
        <time>2019-06-09T08:59:48+02:00</time>
      </trkpt>
      <trkpt lat="41.702284999999996" lon="2.038355">
        <ele>337.0</ele>
        <time>2019-06-09T08:59:49+02:00</time>
      </trkpt>
      <trkpt lat="41.70228334" lon="2.03828167">
        <ele>337.0</ele>
        <time>2019-06-09T08:59:50+02:00</time>
      </trkpt>
      <trkpt lat="41.702275" lon="2.03820667">
        <ele>337.0</ele>
        <time>2019-06-09T08:59:51+02:00</time>
      </trkpt>
      <trkpt lat="41.70226833999999" lon="2.0381333399999995">
        <ele>337.0</ele>
        <time>2019-06-09T08:59:52+02:00</time>
      </trkpt>
      <trkpt lat="41.70225667000001" lon="2.0380599999999998">
        <ele>337.0</ele>
        <time>2019-06-09T08:59:53+02:00</time>
      </trkpt>
      <trkpt lat="41.70224834" lon="2.037985">
        <ele>337.0</ele>
        <time>2019-06-09T08:59:54+02:00</time>
      </trkpt>
      <trkpt lat="41.702238339999994" lon="2.03791">
        <ele>337.0</ele>
        <time>2019-06-09T08:59:55+02:00</time>
      </trkpt>
      <trkpt lat="41.70222833999999" lon="2.03783667">
        <ele>337.0</ele>
        <time>2019-06-09T08:59:56+02:00</time>
      </trkpt>
      <trkpt lat="41.702222670000005" lon="2.037765">
        <ele>337.0</ele>
        <time>2019-06-09T08:59:57+02:00</time>
      </trkpt>
      <trkpt lat="41.70222334" lon="2.0376233399999997">
        <ele>337.0</ele>
        <time>2019-06-09T08:59:59+02:00</time>
      </trkpt>
      <trkpt lat="41.70222867" lon="2.037555">
        <ele>337.0</ele>
        <time>2019-06-09T09:00:00+02:00</time>
      </trkpt>
      <trkpt lat="41.70223334000001" lon="2.0374849999999998">
        <ele>337.0</ele>
        <time>2019-06-09T09:00:01+02:00</time>
      </trkpt>
      <trkpt lat="41.702241" lon="2.03741667">
        <ele>336.0</ele>
        <time>2019-06-09T09:00:02+02:00</time>
      </trkpt>
      <trkpt lat="41.702248" lon="2.03734834">
        <ele>336.0</ele>
        <time>2019-06-09T09:00:03+02:00</time>
      </trkpt>
      <trkpt lat="41.70225566999999" lon="2.0372816699999996">
        <ele>336.0</ele>
        <time>2019-06-09T09:00:04+02:00</time>
      </trkpt>
      <trkpt lat="41.702263" lon="2.03721167">
        <ele>336.0</ele>
        <time>2019-06-09T09:00:05+02:00</time>
      </trkpt>
      <trkpt lat="41.70226700000001" lon="2.0371416699999996">
        <ele>336.0</ele>
        <time>2019-06-09T09:00:06+02:00</time>
      </trkpt>
      <trkpt lat="41.702268999999994" lon="2.03707334">
        <ele>336.0</ele>
        <time>2019-06-09T09:00:07+02:00</time>
      </trkpt>
      <trkpt lat="41.70226867" lon="2.0370033399999996">
        <ele>336.0</ele>
        <time>2019-06-09T09:00:08+02:00</time>
      </trkpt>
      <trkpt lat="41.702266339999994" lon="2.0369333399999996">
        <ele>335.0</ele>
        <time>2019-06-09T09:00:09+02:00</time>
      </trkpt>
      <trkpt lat="41.70226067" lon="2.0368616699999995">
        <ele>335.0</ele>
        <time>2019-06-09T09:00:10+02:00</time>
      </trkpt>
      <trkpt lat="41.70225367" lon="2.03679167">
        <ele>335.0</ele>
        <time>2019-06-09T09:00:11+02:00</time>
      </trkpt>
      <trkpt lat="41.702242999999996" lon="2.0367083399999997">
        <ele>335.0</ele>
        <time>2019-06-09T09:00:12+02:00</time>
      </trkpt>
      <trkpt lat="41.70223167" lon="2.0365900000000003">
        <ele>334.0</ele>
        <time>2019-06-09T09:00:14+02:00</time>
      </trkpt>
      <trkpt lat="41.70221933999999" lon="2.03652167">
        <ele>334.0</ele>
        <time>2019-06-09T09:00:15+02:00</time>
      </trkpt>
      <trkpt lat="41.70220334" lon="2.0364533399999996">
        <ele>334.0</ele>
        <time>2019-06-09T09:00:16+02:00</time>
      </trkpt>
      <trkpt lat="41.70219167000001" lon="2.0363833399999995">
        <ele>334.0</ele>
        <time>2019-06-09T09:00:17+02:00</time>
      </trkpt>
      <trkpt lat="41.70217667" lon="2.036315">
        <ele>334.0</ele>
        <time>2019-06-09T09:00:18+02:00</time>
      </trkpt>
      <trkpt lat="41.70216367" lon="2.0362466699999997">
        <ele>334.0</ele>
        <time>2019-06-09T09:00:19+02:00</time>
      </trkpt>
      <trkpt lat="41.70215" lon="2.0361783399999998">
        <ele>333.0</ele>
        <time>2019-06-09T09:00:20+02:00</time>
      </trkpt>
      <trkpt lat="41.702136" lon="2.03611">
        <ele>333.0</ele>
        <time>2019-06-09T09:00:21+02:00</time>
      </trkpt>
      <trkpt lat="41.70212433999999" lon="2.0360400000000003">
        <ele>333.0</ele>
        <time>2019-06-09T09:00:22+02:00</time>
      </trkpt>
      <trkpt lat="41.702109" lon="2.03597334">
        <ele>333.0</ele>
        <time>2019-06-09T09:00:23+02:00</time>
      </trkpt>
      <trkpt lat="41.702097" lon="2.03590667">
        <ele>333.0</ele>
        <time>2019-06-09T09:00:24+02:00</time>
      </trkpt>
      <trkpt lat="41.70208433999999" lon="2.0358383399999997">
        <ele>332.0</ele>
        <time>2019-06-09T09:00:25+02:00</time>
      </trkpt>
      <trkpt lat="41.70207167" lon="2.03576667">
        <ele>332.0</ele>
        <time>2019-06-09T09:00:26+02:00</time>
      </trkpt>
      <trkpt lat="41.70205899999999" lon="2.0356966699999997">
        <ele>332.0</ele>
        <time>2019-06-09T09:00:27+02:00</time>
      </trkpt>
      <trkpt lat="41.70205133999999" lon="2.0356283399999997">
        <ele>332.0</ele>
        <time>2019-06-09T09:00:28+02:00</time>
      </trkpt>
      <trkpt lat="41.70204433999999" lon="2.03556167">
        <ele>332.0</ele>
        <time>2019-06-09T09:00:29+02:00</time>
      </trkpt>
      <trkpt lat="41.70204234" lon="2.03549334">
        <ele>332.0</ele>
        <time>2019-06-09T09:00:30+02:00</time>
      </trkpt>
      <trkpt lat="41.70208667000001" lon="2.03542667">
        <ele>331.0</ele>
        <time>2019-06-09T09:00:31+02:00</time>
      </trkpt>
      <trkpt lat="41.702108339999995" lon="2.0353616699999995">
        <ele>331.0</ele>
        <time>2019-06-09T09:00:32+02:00</time>
      </trkpt>
      <trkpt lat="41.702135" lon="2.03530167">
        <ele>331.0</ele>
        <time>2019-06-09T09:00:33+02:00</time>
      </trkpt>
      <trkpt lat="41.70216167" lon="2.0352400000000004">
        <ele>331.0</ele>
        <time>2019-06-09T09:00:34+02:00</time>
      </trkpt>
      <trkpt lat="41.702188340000006" lon="2.0351766700000002">
        <ele>331.0</ele>
        <time>2019-06-09T09:00:35+02:00</time>
      </trkpt>
      <trkpt lat="41.702216" lon="2.0351133399999997">
        <ele>331.0</ele>
        <time>2019-06-09T09:00:36+02:00</time>
      </trkpt>
      <trkpt lat="41.702242999999996" lon="2.03505">
        <ele>331.0</ele>
        <time>2019-06-09T09:00:37+02:00</time>
      </trkpt>
      <trkpt lat="41.702268999999994" lon="2.03498667">
        <ele>331.0</ele>
        <time>2019-06-09T09:00:38+02:00</time>
      </trkpt>
      <trkpt lat="41.70229567" lon="2.0349250000000003">
        <ele>331.0</ele>
        <time>2019-06-09T09:00:39+02:00</time>
      </trkpt>
      <trkpt lat="41.70232234" lon="2.0348650000000004">
        <ele>331.0</ele>
        <time>2019-06-09T09:00:40+02:00</time>
      </trkpt>
      <trkpt lat="41.70235133999999" lon="2.0348083399999997">
        <ele>330.0</ele>
        <time>2019-06-09T09:00:41+02:00</time>
      </trkpt>
      <trkpt lat="41.70238134" lon="2.0347533399999995">
        <ele>330.0</ele>
        <time>2019-06-09T09:00:42+02:00</time>
      </trkpt>
      <trkpt lat="41.70241267" lon="2.0346983399999994">
        <ele>330.0</ele>
        <time>2019-06-09T09:00:43+02:00</time>
      </trkpt>
      <trkpt lat="41.70244334" lon="2.0346483399999995">
        <ele>330.0</ele>
        <time>2019-06-09T09:00:44+02:00</time>
      </trkpt>
      <trkpt lat="41.70247633999999" lon="2.034595">
        <ele>330.0</ele>
        <time>2019-06-09T09:00:45+02:00</time>
      </trkpt>
      <trkpt lat="41.70251167" lon="2.0345333399999994">
        <ele>330.0</ele>
        <time>2019-06-09T09:00:46+02:00</time>
      </trkpt>
      <trkpt lat="41.702544" lon="2.03447">
        <ele>330.0</ele>
        <time>2019-06-09T09:00:47+02:00</time>
      </trkpt>
      <trkpt lat="41.70257334" lon="2.0343966699999996">
        <ele>329.0</ele>
        <time>2019-06-09T09:00:48+02:00</time>
      </trkpt>
      <trkpt lat="41.70259467000001" lon="2.034325">
        <ele>329.0</ele>
        <time>2019-06-09T09:00:49+02:00</time>
      </trkpt>
      <trkpt lat="41.70254167000001" lon="2.03425167">
        <ele>329.0</ele>
        <time>2019-06-09T09:00:50+02:00</time>
      </trkpt>
      <trkpt lat="41.70252834" lon="2.0341816699999997">
        <ele>329.0</ele>
        <time>2019-06-09T09:00:51+02:00</time>
      </trkpt>
      <trkpt lat="41.702513339999996" lon="2.0341116699999997">
        <ele>329.0</ele>
        <time>2019-06-09T09:00:52+02:00</time>
      </trkpt>
      <trkpt lat="41.70249834" lon="2.0340433399999998">
        <ele>329.0</ele>
        <time>2019-06-09T09:00:53+02:00</time>
      </trkpt>
      <trkpt lat="41.70248167" lon="2.0339766700000004">
        <ele>329.0</ele>
        <time>2019-06-09T09:00:54+02:00</time>
      </trkpt>
      <trkpt lat="41.702465000000004" lon="2.0339099999999997">
        <ele>329.0</ele>
        <time>2019-06-09T09:00:55+02:00</time>
      </trkpt>
      <trkpt lat="41.70244833999999" lon="2.0338433399999998">
        <ele>328.0</ele>
        <time>2019-06-09T09:00:56+02:00</time>
      </trkpt>
      <trkpt lat="41.702432" lon="2.0337783399999996">
        <ele>328.0</ele>
        <time>2019-06-09T09:00:57+02:00</time>
      </trkpt>
      <trkpt lat="41.70241533999999" lon="2.0337116699999997">
        <ele>328.0</ele>
        <time>2019-06-09T09:00:58+02:00</time>
      </trkpt>
      <trkpt lat="41.7024" lon="2.03364834">
        <ele>328.0</ele>
        <time>2019-06-09T09:00:59+02:00</time>
      </trkpt>
      <trkpt lat="41.70238334" lon="2.0335816700000002">
        <ele>328.0</ele>
        <time>2019-06-09T09:01:00+02:00</time>
      </trkpt>
      <trkpt lat="41.70236767" lon="2.0335183399999996">
        <ele>328.0</ele>
        <time>2019-06-09T09:01:01+02:00</time>
      </trkpt>
      <trkpt lat="41.70235133999999" lon="2.03345667">
        <ele>328.0</ele>
        <time>2019-06-09T09:01:02+02:00</time>
      </trkpt>
      <trkpt lat="41.702335340000005" lon="2.03339334">
        <ele>328.0</ele>
        <time>2019-06-09T09:01:03+02:00</time>
      </trkpt>
      <trkpt lat="41.70232067" lon="2.0333333399999995">
        <ele>327.0</ele>
        <time>2019-06-09T09:01:04+02:00</time>
      </trkpt>
      <trkpt lat="41.70230633999999" lon="2.03327167">
        <ele>327.0</ele>
        <time>2019-06-09T09:01:05+02:00</time>
      </trkpt>
      <trkpt lat="41.702291" lon="2.0332083399999994">
        <ele>327.0</ele>
        <time>2019-06-09T09:01:06+02:00</time>
      </trkpt>
      <trkpt lat="41.70227567" lon="2.033145">
        <ele>327.0</ele>
        <time>2019-06-09T09:01:07+02:00</time>
      </trkpt>
      <trkpt lat="41.702262000000005" lon="2.0330833399999997">
        <ele>327.0</ele>
        <time>2019-06-09T09:01:08+02:00</time>
      </trkpt>
      <trkpt lat="41.702248999999995" lon="2.0330199999999996">
        <ele>326.0</ele>
        <time>2019-06-09T09:01:09+02:00</time>
      </trkpt>
      <trkpt lat="41.702234669999996" lon="2.0329583399999995">
        <ele>326.0</ele>
        <time>2019-06-09T09:01:10+02:00</time>
      </trkpt>
      <trkpt lat="41.702222670000005" lon="2.0328966699999995">
        <ele>326.0</ele>
        <time>2019-06-09T09:01:11+02:00</time>
      </trkpt>
      <trkpt lat="41.702197670000004" lon="2.0327783399999992">
        <ele>326.0</ele>
        <time>2019-06-09T09:01:13+02:00</time>
      </trkpt>
      <trkpt lat="41.70218634" lon="2.032715">
        <ele>325.0</ele>
        <time>2019-06-09T09:01:14+02:00</time>
      </trkpt>
      <trkpt lat="41.70217534" lon="2.0326533399999995">
        <ele>325.0</ele>
        <time>2019-06-09T09:01:15+02:00</time>
      </trkpt>
      <trkpt lat="41.70215967" lon="2.0325333399999996">
        <ele>325.0</ele>
        <time>2019-06-09T09:01:17+02:00</time>
      </trkpt>
      <trkpt lat="41.70222167000001" lon="2.032425">
        <ele>324.0</ele>
        <time>2019-06-09T09:01:19+02:00</time>
      </trkpt>
      <trkpt lat="41.70225667000001" lon="2.03232667">
        <ele>324.0</ele>
        <time>2019-06-09T09:01:21+02:00</time>
      </trkpt>
      <trkpt lat="41.7023" lon="2.03223">
        <ele>324.0</ele>
        <time>2019-06-09T09:01:23+02:00</time>
      </trkpt>
      <trkpt lat="41.70235333999999" lon="2.03214">
        <ele>324.0</ele>
        <time>2019-06-09T09:01:25+02:00</time>
      </trkpt>
      <trkpt lat="41.702408" lon="2.03204834">
        <ele>324.0</ele>
        <time>2019-06-09T09:01:27+02:00</time>
      </trkpt>
      <trkpt lat="41.702438" lon="2.032">
        <ele>324.0</ele>
        <time>2019-06-09T09:01:28+02:00</time>
      </trkpt>
      <trkpt lat="41.702498670000004" lon="2.03191">
        <ele>324.0</ele>
        <time>2019-06-09T09:01:30+02:00</time>
      </trkpt>
      <trkpt lat="41.70253067" lon="2.03187">
        <ele>324.0</ele>
        <time>2019-06-09T09:01:31+02:00</time>
      </trkpt>
      <trkpt lat="41.702562" lon="2.0318366699999997">
        <ele>323.0</ele>
        <time>2019-06-09T09:01:32+02:00</time>
      </trkpt>
      <trkpt lat="41.702593670000006" lon="2.0318083399999995">
        <ele>323.0</ele>
        <time>2019-06-09T09:01:33+02:00</time>
      </trkpt>
      <trkpt lat="41.702695000000006" lon="2.0317516700000002">
        <ele>323.0</ele>
        <time>2019-06-09T09:01:35+02:00</time>
      </trkpt>
      <trkpt lat="41.70277334000001" lon="2.031695">
        <ele>323.0</ele>
        <time>2019-06-09T09:01:37+02:00</time>
      </trkpt>
      <trkpt lat="41.70284334" lon="2.0316273399999996">
        <ele>322.0</ele>
        <time>2019-06-09T09:01:39+02:00</time>
      </trkpt>
      <trkpt lat="41.702875000000006" lon="2.03158867">
        <ele>322.0</ele>
        <time>2019-06-09T09:01:40+02:00</time>
      </trkpt>
      <trkpt lat="41.702929999999995" lon="2.03151">
        <ele>322.0</ele>
        <time>2019-06-09T09:01:42+02:00</time>
      </trkpt>
      <trkpt lat="41.702956670000006" lon="2.03146134">
        <ele>322.0</ele>
        <time>2019-06-09T09:01:43+02:00</time>
      </trkpt>
      <trkpt lat="41.703" lon="2.03134">
        <ele>322.0</ele>
        <time>2019-06-09T09:01:45+02:00</time>
      </trkpt>
      <trkpt lat="41.70303667" lon="2.03123834">
        <ele>321.0</ele>
        <time>2019-06-09T09:01:47+02:00</time>
      </trkpt>
      <trkpt lat="41.70307034" lon="2.0311283399999995">
        <ele>321.0</ele>
        <time>2019-06-09T09:01:49+02:00</time>
      </trkpt>
      <trkpt lat="41.70311334" lon="2.03103834">
        <ele>321.0</ele>
        <time>2019-06-09T09:01:51+02:00</time>
      </trkpt>
      <trkpt lat="41.70316234" lon="2.0309599999999994">
        <ele>320.0</ele>
        <time>2019-06-09T09:01:53+02:00</time>
      </trkpt>
      <trkpt lat="41.70321534" lon="2.030895">
        <ele>320.0</ele>
        <time>2019-06-09T09:01:55+02:00</time>
      </trkpt>
      <trkpt lat="41.703273" lon="2.0308266699999997">
        <ele>319.0</ele>
        <time>2019-06-09T09:01:57+02:00</time>
      </trkpt>
      <trkpt lat="41.703332669999995" lon="2.03075">
        <ele>319.0</ele>
        <time>2019-06-09T09:01:59+02:00</time>
      </trkpt>
      <trkpt lat="41.703391339999996" lon="2.0306699999999998">
        <ele>319.0</ele>
        <time>2019-06-09T09:02:01+02:00</time>
      </trkpt>
      <trkpt lat="41.70345034" lon="2.03059">
        <ele>318.0</ele>
        <time>2019-06-09T09:02:03+02:00</time>
      </trkpt>
      <trkpt lat="41.703504" lon="2.0305150000000003">
        <ele>318.0</ele>
        <time>2019-06-09T09:02:05+02:00</time>
      </trkpt>
      <trkpt lat="41.703557669999995" lon="2.03043834">
        <ele>317.0</ele>
        <time>2019-06-09T09:02:07+02:00</time>
      </trkpt>
      <trkpt lat="41.703626670000006" lon="2.03037667">
        <ele>317.0</ele>
        <time>2019-06-09T09:02:09+02:00</time>
      </trkpt>
      <trkpt lat="41.703691670000005" lon="2.03032667">
        <ele>317.0</ele>
        <time>2019-06-09T09:02:11+02:00</time>
      </trkpt>
      <trkpt lat="41.703759999999996" lon="2.030305">
        <ele>317.0</ele>
        <time>2019-06-09T09:02:13+02:00</time>
      </trkpt>
      <trkpt lat="41.70383334" lon="2.03031334">
        <ele>317.0</ele>
        <time>2019-06-09T09:02:15+02:00</time>
      </trkpt>
      <trkpt lat="41.703898339999995" lon="2.0303383399999997">
        <ele>316.0</ele>
        <time>2019-06-09T09:02:17+02:00</time>
      </trkpt>
      <trkpt lat="41.70396834" lon="2.0303733399999997">
        <ele>316.0</ele>
        <time>2019-06-09T09:02:19+02:00</time>
      </trkpt>
      <trkpt lat="41.70404167" lon="2.03041334">
        <ele>316.0</ele>
        <time>2019-06-09T09:02:21+02:00</time>
      </trkpt>
      <trkpt lat="41.704116670000005" lon="2.03044834">
        <ele>315.0</ele>
        <time>2019-06-09T09:02:23+02:00</time>
      </trkpt>
      <trkpt lat="41.704195" lon="2.03047367">
        <ele>315.0</ele>
        <time>2019-06-09T09:02:25+02:00</time>
      </trkpt>
      <trkpt lat="41.70427167" lon="2.030491">
        <ele>315.0</ele>
        <time>2019-06-09T09:02:27+02:00</time>
      </trkpt>
      <trkpt lat="41.70435334" lon="2.0305003399999997">
        <ele>314.0</ele>
        <time>2019-06-09T09:02:29+02:00</time>
      </trkpt>
      <trkpt lat="41.70443" lon="2.030494">
        <ele>314.0</ele>
        <time>2019-06-09T09:02:31+02:00</time>
      </trkpt>
      <trkpt lat="41.70449834" lon="2.03041667">
        <ele>314.0</ele>
        <time>2019-06-09T09:02:33+02:00</time>
      </trkpt>
      <trkpt lat="41.70454667" lon="2.03033167">
        <ele>313.0</ele>
        <time>2019-06-09T09:02:35+02:00</time>
      </trkpt>
      <trkpt lat="41.704570000000004" lon="2.03022334">
        <ele>313.0</ele>
        <time>2019-06-09T09:02:37+02:00</time>
      </trkpt>
      <trkpt lat="41.704565" lon="2.0301033399999997">
        <ele>313.0</ele>
        <time>2019-06-09T09:02:39+02:00</time>
      </trkpt>
      <trkpt lat="41.70453334" lon="2.02999667">
        <ele>312.0</ele>
        <time>2019-06-09T09:02:41+02:00</time>
      </trkpt>
      <trkpt lat="41.704483339999996" lon="2.0299116699999997">
        <ele>312.0</ele>
        <time>2019-06-09T09:02:43+02:00</time>
      </trkpt>
      <trkpt lat="41.704425" lon="2.0298583399999997">
        <ele>311.0</ele>
        <time>2019-06-09T09:02:45+02:00</time>
      </trkpt>
      <trkpt lat="41.704359999999994" lon="2.0298166699999998">
        <ele>311.0</ele>
        <time>2019-06-09T09:02:47+02:00</time>
      </trkpt>
      <trkpt lat="41.70429" lon="2.029795">
        <ele>311.0</ele>
        <time>2019-06-09T09:02:49+02:00</time>
      </trkpt>
      <trkpt lat="41.70421667000001" lon="2.0297783399999996">
        <ele>311.0</ele>
        <time>2019-06-09T09:02:51+02:00</time>
      </trkpt>
      <trkpt lat="41.70414667" lon="2.02975667">
        <ele>311.0</ele>
        <time>2019-06-09T09:02:53+02:00</time>
      </trkpt>
      <trkpt lat="41.704080000000005" lon="2.0297333399999995">
        <ele>311.0</ele>
        <time>2019-06-09T09:02:55+02:00</time>
      </trkpt>
      <trkpt lat="41.704015" lon="2.0297113399999995">
        <ele>310.0</ele>
        <time>2019-06-09T09:02:57+02:00</time>
      </trkpt>
      <trkpt lat="41.70394834" lon="2.02969667">
        <ele>310.0</ele>
        <time>2019-06-09T09:02:59+02:00</time>
      </trkpt>
      <trkpt lat="41.70388499999999" lon="2.02968534">
        <ele>309.0</ele>
        <time>2019-06-09T09:03:01+02:00</time>
      </trkpt>
      <trkpt lat="41.70382167000001" lon="2.02968467">
        <ele>309.0</ele>
        <time>2019-06-09T09:03:03+02:00</time>
      </trkpt>
      <trkpt lat="41.703756670000004" lon="2.0296876700000004">
        <ele>308.0</ele>
        <time>2019-06-09T09:03:05+02:00</time>
      </trkpt>
      <trkpt lat="41.703691670000005" lon="2.02969534">
        <ele>308.0</ele>
        <time>2019-06-09T09:03:07+02:00</time>
      </trkpt>
      <trkpt lat="41.703628339999995" lon="2.0297073400000003">
        <ele>307.0</ele>
        <time>2019-06-09T09:03:09+02:00</time>
      </trkpt>
      <trkpt lat="41.70356334" lon="2.02972167">
        <ele>307.0</ele>
        <time>2019-06-09T09:03:11+02:00</time>
      </trkpt>
      <trkpt lat="41.703498339999996" lon="2.0297363400000004">
        <ele>306.0</ele>
        <time>2019-06-09T09:03:13+02:00</time>
      </trkpt>
      <trkpt lat="41.70343" lon="2.0297466699999998">
        <ele>306.0</ele>
        <time>2019-06-09T09:03:15+02:00</time>
      </trkpt>
      <trkpt lat="41.70337000000001" lon="2.0297283399999997">
        <ele>305.0</ele>
        <time>2019-06-09T09:03:17+02:00</time>
      </trkpt>
      <trkpt lat="41.70332499999999" lon="2.02965667">
        <ele>305.0</ele>
        <time>2019-06-09T09:03:19+02:00</time>
      </trkpt>
      <trkpt lat="41.703289999999996" lon="2.0295716699999997">
        <ele>304.0</ele>
        <time>2019-06-09T09:03:21+02:00</time>
      </trkpt>
      <trkpt lat="41.703258340000005" lon="2.02947167">
        <ele>304.0</ele>
        <time>2019-06-09T09:03:23+02:00</time>
      </trkpt>
      <trkpt lat="41.70323334" lon="2.0293616699999997">
        <ele>304.0</ele>
        <time>2019-06-09T09:03:25+02:00</time>
      </trkpt>
      <trkpt lat="41.70322667000001" lon="2.0293">
        <ele>304.0</ele>
        <time>2019-06-09T09:03:26+02:00</time>
      </trkpt>
      <trkpt lat="41.70323" lon="2.0292400000000006">
        <ele>303.0</ele>
        <time>2019-06-09T09:03:27+02:00</time>
      </trkpt>
      <trkpt lat="41.70324834" lon="2.0291366699999998">
        <ele>303.0</ele>
        <time>2019-06-09T09:03:29+02:00</time>
      </trkpt>
      <trkpt lat="41.703265" lon="2.0290716699999995">
        <ele>303.0</ele>
        <time>2019-06-09T09:03:30+02:00</time>
      </trkpt>
      <trkpt lat="41.703303340000005" lon="2.0289783399999997">
        <ele>303.0</ele>
        <time>2019-06-09T09:03:32+02:00</time>
      </trkpt>
      <trkpt lat="41.703345" lon="2.028895">
        <ele>302.0</ele>
        <time>2019-06-09T09:03:34+02:00</time>
      </trkpt>
      <trkpt lat="41.703388340000004" lon="2.02881">
        <ele>302.0</ele>
        <time>2019-06-09T09:03:36+02:00</time>
      </trkpt>
      <trkpt lat="41.70342967" lon="2.028725">
        <ele>302.0</ele>
        <time>2019-06-09T09:03:38+02:00</time>
      </trkpt>
      <trkpt lat="41.703469670000004" lon="2.02864334">
        <ele>302.0</ele>
        <time>2019-06-09T09:03:40+02:00</time>
      </trkpt>
      <trkpt lat="41.70350967" lon="2.0285616699999998">
        <ele>302.0</ele>
        <time>2019-06-09T09:03:42+02:00</time>
      </trkpt>
      <trkpt lat="41.70355033999999" lon="2.02847667">
        <ele>301.0</ele>
        <time>2019-06-09T09:03:43+02:00</time>
      </trkpt>
      <trkpt lat="41.70359033999999" lon="2.02839167">
        <ele>301.0</ele>
        <time>2019-06-09T09:03:45+02:00</time>
      </trkpt>
      <trkpt lat="41.70362867" lon="2.02830334">
        <ele>301.0</ele>
        <time>2019-06-09T09:03:47+02:00</time>
      </trkpt>
      <trkpt lat="41.70366167" lon="2.02821834">
        <ele>301.0</ele>
        <time>2019-06-09T09:03:49+02:00</time>
      </trkpt>
      <trkpt lat="41.703689" lon="2.0281333399999997">
        <ele>301.0</ele>
        <time>2019-06-09T09:03:51+02:00</time>
      </trkpt>
      <trkpt lat="41.703680000000006" lon="2.0280416699999995">
        <ele>301.0</ele>
        <time>2019-06-09T09:03:53+02:00</time>
      </trkpt>
      <trkpt lat="41.703680000000006" lon="2.0279450000000003">
        <ele>301.0</ele>
        <time>2019-06-09T09:03:55+02:00</time>
      </trkpt>
      <trkpt lat="41.70367" lon="2.027855">
        <ele>301.0</ele>
        <time>2019-06-09T09:03:57+02:00</time>
      </trkpt>
      <trkpt lat="41.70365667" lon="2.02777">
        <ele>301.0</ele>
        <time>2019-06-09T09:03:59+02:00</time>
      </trkpt>
      <trkpt lat="41.70364500000001" lon="2.0276833399999994">
        <ele>301.0</ele>
        <time>2019-06-09T09:04:01+02:00</time>
      </trkpt>
      <trkpt lat="41.70364200000001" lon="2.02759667">
        <ele>300.0</ele>
        <time>2019-06-09T09:04:03+02:00</time>
      </trkpt>
      <trkpt lat="41.703647000000004" lon="2.02750834">
        <ele>300.0</ele>
        <time>2019-06-09T09:04:05+02:00</time>
      </trkpt>
      <trkpt lat="41.70366134" lon="2.02742667">
        <ele>300.0</ele>
        <time>2019-06-09T09:04:07+02:00</time>
      </trkpt>
      <trkpt lat="41.70370333999999" lon="2.02735167">
        <ele>299.0</ele>
        <time>2019-06-09T09:04:09+02:00</time>
      </trkpt>
      <trkpt lat="41.70374667000001" lon="2.0272933399999995">
        <ele>299.0</ele>
        <time>2019-06-09T09:04:11+02:00</time>
      </trkpt>
      <trkpt lat="41.703801670000004" lon="2.0272533399999997">
        <ele>299.0</ele>
        <time>2019-06-09T09:04:13+02:00</time>
      </trkpt>
      <trkpt lat="41.703860000000006" lon="2.027225">
        <ele>298.0</ele>
        <time>2019-06-09T09:04:15+02:00</time>
      </trkpt>
      <trkpt lat="41.70392" lon="2.0271983399999995">
        <ele>298.0</ele>
        <time>2019-06-09T09:04:17+02:00</time>
      </trkpt>
      <trkpt lat="41.703981670000005" lon="2.02718">
        <ele>298.0</ele>
        <time>2019-06-09T09:04:19+02:00</time>
      </trkpt>
      <trkpt lat="41.704044999999994" lon="2.02716167">
        <ele>297.0</ele>
        <time>2019-06-09T09:04:21+02:00</time>
      </trkpt>
      <trkpt lat="41.704108340000005" lon="2.02714">
        <ele>297.0</ele>
        <time>2019-06-09T09:04:23+02:00</time>
      </trkpt>
      <trkpt lat="41.70416999999999" lon="2.02712134">
        <ele>296.0</ele>
        <time>2019-06-09T09:04:25+02:00</time>
      </trkpt>
      <trkpt lat="41.704235" lon="2.02710467">
        <ele>296.0</ele>
        <time>2019-06-09T09:04:27+02:00</time>
      </trkpt>
      <trkpt lat="41.7043" lon="2.02708967">
        <ele>296.0</ele>
        <time>2019-06-09T09:04:29+02:00</time>
      </trkpt>
      <trkpt lat="41.70436334" lon="2.02707334">
        <ele>296.0</ele>
        <time>2019-06-09T09:04:31+02:00</time>
      </trkpt>
      <trkpt lat="41.70442333999999" lon="2.0270520000000003">
        <ele>296.0</ele>
        <time>2019-06-09T09:04:33+02:00</time>
      </trkpt>
      <trkpt lat="41.704483339999996" lon="2.0270286700000004">
        <ele>296.0</ele>
        <time>2019-06-09T09:04:35+02:00</time>
      </trkpt>
      <trkpt lat="41.70453834" lon="2.02699967">
        <ele>296.0</ele>
        <time>2019-06-09T09:04:37+02:00</time>
      </trkpt>
      <trkpt lat="41.70457667000001" lon="2.0269183399999995">
        <ele>295.0</ele>
        <time>2019-06-09T09:04:39+02:00</time>
      </trkpt>
      <trkpt lat="41.70460167" lon="2.0268416699999996">
        <ele>295.0</ele>
        <time>2019-06-09T09:04:41+02:00</time>
      </trkpt>
      <trkpt lat="41.704604999999994" lon="2.02676">
        <ele>295.0</ele>
        <time>2019-06-09T09:04:43+02:00</time>
      </trkpt>
      <trkpt lat="41.704584999999994" lon="2.0266833399999995">
        <ele>295.0</ele>
        <time>2019-06-09T09:04:45+02:00</time>
      </trkpt>
      <trkpt lat="41.704553340000004" lon="2.02661167">
        <ele>294.0</ele>
        <time>2019-06-09T09:04:47+02:00</time>
      </trkpt>
      <trkpt lat="41.704515" lon="2.02654834">
        <ele>294.0</ele>
        <time>2019-06-09T09:04:49+02:00</time>
      </trkpt>
      <trkpt lat="41.704478339999994" lon="2.026485">
        <ele>294.0</ele>
        <time>2019-06-09T09:04:51+02:00</time>
      </trkpt>
      <trkpt lat="41.70445167" lon="2.02641334">
        <ele>293.0</ele>
        <time>2019-06-09T09:04:53+02:00</time>
      </trkpt>
      <trkpt lat="41.70444167000001" lon="2.02634167">
        <ele>293.0</ele>
        <time>2019-06-09T09:04:55+02:00</time>
      </trkpt>
      <trkpt lat="41.704463340000004" lon="2.026275">
        <ele>293.0</ele>
        <time>2019-06-09T09:04:57+02:00</time>
      </trkpt>
      <trkpt lat="41.70449167" lon="2.02621334">
        <ele>292.0</ele>
        <time>2019-06-09T09:04:59+02:00</time>
      </trkpt>
      <trkpt lat="41.70453167000001" lon="2.0261566699999998">
        <ele>292.0</ele>
        <time>2019-06-09T09:05:01+02:00</time>
      </trkpt>
      <trkpt lat="41.70458000000001" lon="2.0261083399999995">
        <ele>291.0</ele>
        <time>2019-06-09T09:05:03+02:00</time>
      </trkpt>
      <trkpt lat="41.704634999999996" lon="2.0260766699999997">
        <ele>291.0</ele>
        <time>2019-06-09T09:05:05+02:00</time>
      </trkpt>
      <trkpt lat="41.70469167000001" lon="2.0260583399999996">
        <ele>290.0</ele>
        <time>2019-06-09T09:05:07+02:00</time>
      </trkpt>
      <trkpt lat="41.704750000000004" lon="2.026045">
        <ele>290.0</ele>
        <time>2019-06-09T09:05:09+02:00</time>
      </trkpt>
      <trkpt lat="41.704805" lon="2.02602667">
        <ele>289.0</ele>
        <time>2019-06-09T09:05:11+02:00</time>
      </trkpt>
      <trkpt lat="41.70486" lon="2.02600334">
        <ele>289.0</ele>
        <time>2019-06-09T09:05:13+02:00</time>
      </trkpt>
      <trkpt lat="41.70490834" lon="2.02596567">
        <ele>289.0</ele>
        <time>2019-06-09T09:05:15+02:00</time>
      </trkpt>
      <trkpt lat="41.70494667000001" lon="2.02591367">
        <ele>289.0</ele>
        <time>2019-06-09T09:05:17+02:00</time>
      </trkpt>
      <trkpt lat="41.704971670000006" lon="2.02582667">
        <ele>288.0</ele>
        <time>2019-06-09T09:05:19+02:00</time>
      </trkpt>
      <trkpt lat="41.70499334" lon="2.02575">
        <ele>288.0</ele>
        <time>2019-06-09T09:05:21+02:00</time>
      </trkpt>
      <trkpt lat="41.705018339999995" lon="2.02568">
        <ele>288.0</ele>
        <time>2019-06-09T09:05:23+02:00</time>
      </trkpt>
      <trkpt lat="41.70504967" lon="2.02561167">
        <ele>287.0</ele>
        <time>2019-06-09T09:05:25+02:00</time>
      </trkpt>
      <trkpt lat="41.70508266999999" lon="2.0255433399999996">
        <ele>287.0</ele>
        <time>2019-06-09T09:05:27+02:00</time>
      </trkpt>
      <trkpt lat="41.705118670000004" lon="2.02549167">
        <ele>286.0</ele>
        <time>2019-06-09T09:05:29+02:00</time>
      </trkpt>
      <trkpt lat="41.70515867" lon="2.0254299999999996">
        <ele>286.0</ele>
        <time>2019-06-09T09:05:31+02:00</time>
      </trkpt>
      <trkpt lat="41.70519933999999" lon="2.0253716699999997">
        <ele>285.0</ele>
        <time>2019-06-09T09:05:33+02:00</time>
      </trkpt>
      <trkpt lat="41.705259999999996" lon="2.02532667">
        <ele>285.0</ele>
        <time>2019-06-09T09:05:35+02:00</time>
      </trkpt>
      <trkpt lat="41.705316670000016" lon="2.0252916699999997">
        <ele>284.0</ele>
        <time>2019-06-09T09:05:37+02:00</time>
      </trkpt>
      <trkpt lat="41.705375000000004" lon="2.025259">
        <ele>284.0</ele>
        <time>2019-06-09T09:05:39+02:00</time>
      </trkpt>
      <trkpt lat="41.70543167000001" lon="2.025229">
        <ele>283.0</ele>
        <time>2019-06-09T09:05:41+02:00</time>
      </trkpt>
      <trkpt lat="41.705488339999995" lon="2.0251989999999997">
        <ele>283.0</ele>
        <time>2019-06-09T09:05:43+02:00</time>
      </trkpt>
      <trkpt lat="41.705546670000004" lon="2.02516667">
        <ele>282.0</ele>
        <time>2019-06-09T09:05:45+02:00</time>
      </trkpt>
      <trkpt lat="41.705596670000006" lon="2.0251313399999997">
        <ele>281.0</ele>
        <time>2019-06-09T09:05:47+02:00</time>
      </trkpt>
      <trkpt lat="41.70564667000001" lon="2.0250903399999998">
        <ele>280.0</ele>
        <time>2019-06-09T09:05:49+02:00</time>
      </trkpt>
      <trkpt lat="41.70569667000001" lon="2.025042">
        <ele>280.0</ele>
        <time>2019-06-09T09:05:51+02:00</time>
      </trkpt>
      <trkpt lat="41.70574667000001" lon="2.0249843399999996">
        <ele>279.0</ele>
        <time>2019-06-09T09:05:53+02:00</time>
      </trkpt>
      <trkpt lat="41.70578999999999" lon="2.0249230000000003">
        <ele>278.0</ele>
        <time>2019-06-09T09:05:55+02:00</time>
      </trkpt>
      <trkpt lat="41.70583499999999" lon="2.02477334">
        <ele>277.0</ele>
        <time>2019-06-09T09:05:57+02:00</time>
      </trkpt>
      <trkpt lat="41.70588299999999" lon="2.0246916699999997">
        <ele>277.0</ele>
        <time>2019-06-09T09:05:59+02:00</time>
      </trkpt>
      <trkpt lat="41.705926" lon="2.024605">
        <ele>277.0</ele>
        <time>2019-06-09T09:06:01+02:00</time>
      </trkpt>
      <trkpt lat="41.70595767" lon="2.0245166699999997">
        <ele>276.0</ele>
        <time>2019-06-09T09:06:03+02:00</time>
      </trkpt>
      <trkpt lat="41.70595666999999" lon="2.02443167">
        <ele>276.0</ele>
        <time>2019-06-09T09:06:05+02:00</time>
      </trkpt>
      <trkpt lat="41.70594" lon="2.0243650000000004">
        <ele>275.0</ele>
        <time>2019-06-09T09:06:07+02:00</time>
      </trkpt>
      <trkpt lat="41.705905" lon="2.02431334">
        <ele>275.0</ele>
        <time>2019-06-09T09:06:09+02:00</time>
      </trkpt>
      <trkpt lat="41.705865" lon="2.02426834">
        <ele>275.0</ele>
        <time>2019-06-09T09:06:11+02:00</time>
      </trkpt>
      <trkpt lat="41.705821670000006" lon="2.02422667">
        <ele>274.0</ele>
        <time>2019-06-09T09:06:13+02:00</time>
      </trkpt>
      <trkpt lat="41.70577" lon="2.02420167">
        <ele>274.0</ele>
        <time>2019-06-09T09:06:15+02:00</time>
      </trkpt>
      <trkpt lat="41.70571334" lon="2.02418">
        <ele>273.0</ele>
        <time>2019-06-09T09:06:17+02:00</time>
      </trkpt>
      <trkpt lat="41.70565667000001" lon="2.0241516699999997">
        <ele>273.0</ele>
        <time>2019-06-09T09:06:19+02:00</time>
      </trkpt>
      <trkpt lat="41.70560167000001" lon="2.02411834">
        <ele>273.0</ele>
        <time>2019-06-09T09:06:21+02:00</time>
      </trkpt>
      <trkpt lat="41.70555667000001" lon="2.024077">
        <ele>273.0</ele>
        <time>2019-06-09T09:06:23+02:00</time>
      </trkpt>
      <trkpt lat="41.70551167" lon="2.0240326699999995">
        <ele>273.0</ele>
        <time>2019-06-09T09:06:25+02:00</time>
      </trkpt>
      <trkpt lat="41.70547334" lon="2.02398234">
        <ele>272.0</ele>
        <time>2019-06-09T09:06:27+02:00</time>
      </trkpt>
      <trkpt lat="41.705445" lon="2.0239033399999995">
        <ele>272.0</ele>
        <time>2019-06-09T09:06:29+02:00</time>
      </trkpt>
      <trkpt lat="41.70542999999999" lon="2.02383667">
        <ele>271.0</ele>
        <time>2019-06-09T09:06:31+02:00</time>
      </trkpt>
      <trkpt lat="41.705426669999994" lon="2.023765">
        <ele>271.0</ele>
        <time>2019-06-09T09:06:33+02:00</time>
      </trkpt>
      <trkpt lat="41.705439999999996" lon="2.02369667">
        <ele>270.0</ele>
        <time>2019-06-09T09:06:35+02:00</time>
      </trkpt>
      <trkpt lat="41.705470000000005" lon="2.0236333399999995">
        <ele>270.0</ele>
        <time>2019-06-09T09:06:37+02:00</time>
      </trkpt>
      <trkpt lat="41.70551167" lon="2.0235833399999996">
        <ele>270.0</ele>
        <time>2019-06-09T09:06:39+02:00</time>
      </trkpt>
      <trkpt lat="41.70555667000001" lon="2.023545">
        <ele>269.0</ele>
        <time>2019-06-09T09:06:41+02:00</time>
      </trkpt>
      <trkpt lat="41.70560999999999" lon="2.02351667">
        <ele>269.0</ele>
        <time>2019-06-09T09:06:43+02:00</time>
      </trkpt>
      <trkpt lat="41.70566167" lon="2.02349167">
        <ele>268.0</ele>
        <time>2019-06-09T09:06:45+02:00</time>
      </trkpt>
      <trkpt lat="41.705718340000004" lon="2.02346834">
        <ele>268.0</ele>
        <time>2019-06-09T09:06:47+02:00</time>
      </trkpt>
      <trkpt lat="41.705775" lon="2.02345167">
        <ele>268.0</ele>
        <time>2019-06-09T09:06:49+02:00</time>
      </trkpt>
      <trkpt lat="41.70582833999999" lon="2.02345">
        <ele>268.0</ele>
        <time>2019-06-09T09:06:51+02:00</time>
      </trkpt>
      <trkpt lat="41.70588334" lon="2.023455">
        <ele>267.0</ele>
        <time>2019-06-09T09:06:53+02:00</time>
      </trkpt>
      <trkpt lat="41.70593667" lon="2.02346834">
        <ele>266.0</ele>
        <time>2019-06-09T09:06:55+02:00</time>
      </trkpt>
      <trkpt lat="41.705993340000006" lon="2.02348167">
        <ele>266.0</ele>
        <time>2019-06-09T09:06:57+02:00</time>
      </trkpt>
      <trkpt lat="41.706050000000005" lon="2.0234963400000003">
        <ele>265.0</ele>
        <time>2019-06-09T09:06:59+02:00</time>
      </trkpt>
      <trkpt lat="41.70610834" lon="2.02351267">
        <ele>264.0</ele>
        <time>2019-06-09T09:07:01+02:00</time>
      </trkpt>
      <trkpt lat="41.70616334" lon="2.02352967">
        <ele>264.0</ele>
        <time>2019-06-09T09:07:03+02:00</time>
      </trkpt>
      <trkpt lat="41.70621834" lon="2.0235423399999997">
        <ele>263.0</ele>
        <time>2019-06-09T09:07:05+02:00</time>
      </trkpt>
      <trkpt lat="41.706273339999996" lon="2.023545">
        <ele>262.0</ele>
        <time>2019-06-09T09:07:07+02:00</time>
      </trkpt>
      <trkpt lat="41.706325" lon="2.02353767">
        <ele>262.0</ele>
        <time>2019-06-09T09:07:09+02:00</time>
      </trkpt>
      <trkpt lat="41.70636834" lon="2.0234650000000003">
        <ele>261.0</ele>
        <time>2019-06-09T09:07:11+02:00</time>
      </trkpt>
      <trkpt lat="41.70639834" lon="2.023405">
        <ele>260.0</ele>
        <time>2019-06-09T09:07:13+02:00</time>
      </trkpt>
      <trkpt lat="41.70641334" lon="2.02333667">
        <ele>260.0</ele>
        <time>2019-06-09T09:07:15+02:00</time>
      </trkpt>
      <trkpt lat="41.70640667000001" lon="2.023265">
        <ele>259.0</ele>
        <time>2019-06-09T09:07:17+02:00</time>
      </trkpt>
      <trkpt lat="41.70638834" lon="2.0232">
        <ele>258.0</ele>
        <time>2019-06-09T09:07:19+02:00</time>
      </trkpt>
      <trkpt lat="41.706356670000005" lon="2.02313834">
        <ele>258.0</ele>
        <time>2019-06-09T09:07:21+02:00</time>
      </trkpt>
      <trkpt lat="41.70632167000001" lon="2.02308167">
        <ele>257.0</ele>
        <time>2019-06-09T09:07:23+02:00</time>
      </trkpt>
      <trkpt lat="41.70628667" lon="2.023015">
        <ele>257.0</ele>
        <time>2019-06-09T09:07:25+02:00</time>
      </trkpt>
      <trkpt lat="41.706258340000005" lon="2.0229416699999994">
        <ele>256.0</ele>
        <time>2019-06-09T09:07:27+02:00</time>
      </trkpt>
      <trkpt lat="41.70623534" lon="2.0228683399999996">
        <ele>256.0</ele>
        <time>2019-06-09T09:07:29+02:00</time>
      </trkpt>
      <trkpt lat="41.70622067000001" lon="2.022795">
        <ele>255.0</ele>
        <time>2019-06-09T09:07:31+02:00</time>
      </trkpt>
      <trkpt lat="41.70621" lon="2.02272">
        <ele>255.0</ele>
        <time>2019-06-09T09:07:33+02:00</time>
      </trkpt>
      <trkpt lat="41.706205" lon="2.022645">
        <ele>255.0</ele>
        <time>2019-06-09T09:07:35+02:00</time>
      </trkpt>
      <trkpt lat="41.706202000000005" lon="2.02257">
        <ele>255.0</ele>
        <time>2019-06-09T09:07:37+02:00</time>
      </trkpt>
      <trkpt lat="41.706200339999995" lon="2.0224900000000003">
        <ele>255.0</ele>
        <time>2019-06-09T09:07:39+02:00</time>
      </trkpt>
      <trkpt lat="41.706200339999995" lon="2.02241334">
        <ele>255.0</ele>
        <time>2019-06-09T09:07:41+02:00</time>
      </trkpt>
      <trkpt lat="41.70619833999999" lon="2.022335">
        <ele>255.0</ele>
        <time>2019-06-09T09:07:43+02:00</time>
      </trkpt>
      <trkpt lat="41.706194999999994" lon="2.022255">
        <ele>254.0</ele>
        <time>2019-06-09T09:07:45+02:00</time>
      </trkpt>
      <trkpt lat="41.70619334" lon="2.02217834">
        <ele>254.0</ele>
        <time>2019-06-09T09:07:47+02:00</time>
      </trkpt>
      <trkpt lat="41.706192339999994" lon="2.02210167">
        <ele>253.0</ele>
        <time>2019-06-09T09:07:49+02:00</time>
      </trkpt>
      <trkpt lat="41.706191000000004" lon="2.0220333399999992">
        <ele>253.0</ele>
        <time>2019-06-09T09:07:51+02:00</time>
      </trkpt>
      <trkpt lat="41.70619167000001" lon="2.0219566700000002">
        <ele>252.0</ele>
        <time>2019-06-09T09:07:53+02:00</time>
      </trkpt>
      <trkpt lat="41.70619334" lon="2.02188167">
        <ele>252.0</ele>
        <time>2019-06-09T09:07:55+02:00</time>
      </trkpt>
      <trkpt lat="41.70619934" lon="2.0218083399999993">
        <ele>251.0</ele>
        <time>2019-06-09T09:07:57+02:00</time>
      </trkpt>
      <trkpt lat="41.70620433999999" lon="2.0217383399999997">
        <ele>251.0</ele>
        <time>2019-06-09T09:07:58+02:00</time>
      </trkpt>
      <trkpt lat="41.706213340000005" lon="2.02167">
        <ele>251.0</ele>
        <time>2019-06-09T09:08:00+02:00</time>
      </trkpt>
      <trkpt lat="41.70621967000001" lon="2.0215983399999997">
        <ele>250.0</ele>
        <time>2019-06-09T09:08:02+02:00</time>
      </trkpt>
      <trkpt lat="41.70622667000001" lon="2.0215283399999997">
        <ele>250.0</ele>
        <time>2019-06-09T09:08:04+02:00</time>
      </trkpt>
      <trkpt lat="41.70623167" lon="2.02146">
        <ele>250.0</ele>
        <time>2019-06-09T09:08:06+02:00</time>
      </trkpt>
      <trkpt lat="41.70624067000001" lon="2.0213900000000002">
        <ele>249.0</ele>
        <time>2019-06-09T09:08:08+02:00</time>
      </trkpt>
      <trkpt lat="41.70625434" lon="2.0213233399999995">
        <ele>249.0</ele>
        <time>2019-06-09T09:08:10+02:00</time>
      </trkpt>
      <trkpt lat="41.706360000000004" lon="2.0212650000000005">
        <ele>249.0</ele>
        <time>2019-06-09T09:08:12+02:00</time>
      </trkpt>
      <trkpt lat="41.706403339999994" lon="2.0212216699999996">
        <ele>249.0</ele>
        <time>2019-06-09T09:08:14+02:00</time>
      </trkpt>
      <trkpt lat="41.70643" lon="2.0211716699999998">
        <ele>249.0</ele>
        <time>2019-06-09T09:08:16+02:00</time>
      </trkpt>
      <trkpt lat="41.70642333999999" lon="2.0210933399999997">
        <ele>248.0</ele>
        <time>2019-06-09T09:08:20+02:00</time>
      </trkpt>
      <trkpt lat="41.70638334" lon="2.0210433399999994">
        <ele>248.0</ele>
        <time>2019-06-09T09:08:23+02:00</time>
      </trkpt>
      <trkpt lat="41.70632833999999" lon="2.02100167">
        <ele>248.0</ele>
        <time>2019-06-09T09:08:26+02:00</time>
      </trkpt>
      <trkpt lat="41.70627167000001" lon="2.0209616699999997">
        <ele>247.0</ele>
        <time>2019-06-09T09:08:29+02:00</time>
      </trkpt>
      <trkpt lat="41.706224999999996" lon="2.0209433399999996">
        <ele>247.0</ele>
        <time>2019-06-09T09:08:31+02:00</time>
      </trkpt>
      <trkpt lat="41.706176670000005" lon="2.020935">
        <ele>247.0</ele>
        <time>2019-06-09T09:08:33+02:00</time>
      </trkpt>
      <trkpt lat="41.70611" lon="2.02093167">
        <ele>247.0</ele>
        <time>2019-06-09T09:08:36+02:00</time>
      </trkpt>
      <trkpt lat="41.70605334" lon="2.0209200000000003">
        <ele>247.0</ele>
        <time>2019-06-09T09:08:39+02:00</time>
      </trkpt>
      <trkpt lat="41.706001670000006" lon="2.020921">
        <ele>247.0</ele>
        <time>2019-06-09T09:08:42+02:00</time>
      </trkpt>
      <trkpt lat="41.70594167000001" lon="2.020919">
        <ele>247.0</ele>
        <time>2019-06-09T09:08:45+02:00</time>
      </trkpt>
      <trkpt lat="41.70589" lon="2.02091234">
        <ele>247.0</ele>
        <time>2019-06-09T09:08:48+02:00</time>
      </trkpt>
      <trkpt lat="41.705845" lon="2.0208943399999995">
        <ele>247.0</ele>
        <time>2019-06-09T09:08:51+02:00</time>
      </trkpt>
      <trkpt lat="41.70579667" lon="2.02088">
        <ele>239.0</ele>
        <time>2019-06-09T09:10:01+02:00</time>
      </trkpt>
      <trkpt lat="41.70576167" lon="2.02079834">
        <ele>239.0</ele>
        <time>2019-06-09T09:10:04+02:00</time>
      </trkpt>
      <trkpt lat="41.705731670000006" lon="2.02071">
        <ele>239.0</ele>
        <time>2019-06-09T09:10:06+02:00</time>
      </trkpt>
      <trkpt lat="41.70572" lon="2.02059834">
        <ele>239.0</ele>
        <time>2019-06-09T09:10:08+02:00</time>
      </trkpt>
      <trkpt lat="41.70573667" lon="2.0204866699999995">
        <ele>238.0</ele>
        <time>2019-06-09T09:10:10+02:00</time>
      </trkpt>
      <trkpt lat="41.705776670000006" lon="2.02040167">
        <ele>238.0</ele>
        <time>2019-06-09T09:10:12+02:00</time>
      </trkpt>
      <trkpt lat="41.70581833999999" lon="2.0203166699999997">
        <ele>238.0</ele>
        <time>2019-06-09T09:10:14+02:00</time>
      </trkpt>
      <trkpt lat="41.70583800000001" lon="2.020225">
        <ele>238.0</ele>
        <time>2019-06-09T09:10:16+02:00</time>
      </trkpt>
      <trkpt lat="41.705838670000006" lon="2.0201266700000002">
        <ele>238.0</ele>
        <time>2019-06-09T09:10:18+02:00</time>
      </trkpt>
      <trkpt lat="41.70580334" lon="2.0200349999999996">
        <ele>239.0</ele>
        <time>2019-06-09T09:10:20+02:00</time>
      </trkpt>
      <trkpt lat="41.70574834" lon="2.01995667">
        <ele>239.0</ele>
        <time>2019-06-09T09:10:22+02:00</time>
      </trkpt>
      <trkpt lat="41.70567167" lon="2.01990167">
        <ele>239.0</ele>
        <time>2019-06-09T09:10:24+02:00</time>
      </trkpt>
      <trkpt lat="41.70563" lon="2.01987667">
        <ele>239.0</ele>
        <time>2019-06-09T09:10:25+02:00</time>
      </trkpt>
      <trkpt lat="41.70554334" lon="2.0198349999999996">
        <ele>240.0</ele>
        <time>2019-06-09T09:10:27+02:00</time>
      </trkpt>
      <trkpt lat="41.70549834" lon="2.0198183399999996">
        <ele>240.0</ele>
        <time>2019-06-09T09:10:28+02:00</time>
      </trkpt>
      <trkpt lat="41.705411670000004" lon="2.0197933399999997">
        <ele>241.0</ele>
        <time>2019-06-09T09:10:30+02:00</time>
      </trkpt>
      <trkpt lat="41.705326670000005" lon="2.01978">
        <ele>242.0</ele>
        <time>2019-06-09T09:10:32+02:00</time>
      </trkpt>
      <trkpt lat="41.705238339999994" lon="2.01978">
        <ele>242.0</ele>
        <time>2019-06-09T09:10:34+02:00</time>
      </trkpt>
      <trkpt lat="41.705155" lon="2.0197766699999997">
        <ele>243.0</ele>
        <time>2019-06-09T09:10:36+02:00</time>
      </trkpt>
      <trkpt lat="41.705075" lon="2.0197706699999998">
        <ele>244.0</ele>
        <time>2019-06-09T09:10:38+02:00</time>
      </trkpt>
      <trkpt lat="41.70499167" lon="2.0197583399999997">
        <ele>244.0</ele>
        <time>2019-06-09T09:10:40+02:00</time>
      </trkpt>
      <trkpt lat="41.70491167" lon="2.01973634">
        <ele>245.0</ele>
        <time>2019-06-09T09:10:42+02:00</time>
      </trkpt>
      <trkpt lat="41.704831670000004" lon="2.01970367">
        <ele>246.0</ele>
        <time>2019-06-09T09:10:44+02:00</time>
      </trkpt>
      <trkpt lat="41.70475834" lon="2.019667">
        <ele>246.0</ele>
        <time>2019-06-09T09:10:46+02:00</time>
      </trkpt>
      <trkpt lat="41.70469333999999" lon="2.01962934">
        <ele>247.0</ele>
        <time>2019-06-09T09:10:48+02:00</time>
      </trkpt>
      <trkpt lat="41.70462167000001" lon="2.0195933399999997">
        <ele>248.0</ele>
        <time>2019-06-09T09:10:50+02:00</time>
      </trkpt>
      <trkpt lat="41.70454833999999" lon="2.019567">
        <ele>249.0</ele>
        <time>2019-06-09T09:10:52+02:00</time>
      </trkpt>
      <trkpt lat="41.704485000000005" lon="2.0195523399999997">
        <ele>249.0</ele>
        <time>2019-06-09T09:10:54+02:00</time>
      </trkpt>
      <trkpt lat="41.70442833999999" lon="2.01954734">
        <ele>249.0</ele>
        <time>2019-06-09T09:10:56+02:00</time>
      </trkpt>
      <trkpt lat="41.704381670000004" lon="2.0195446699999997">
        <ele>251.0</ele>
        <time>2019-06-09T09:10:58+02:00</time>
      </trkpt>
      <trkpt lat="41.704335" lon="2.0195426700000003">
        <ele>252.0</ele>
        <time>2019-06-09T09:11:00+02:00</time>
      </trkpt>
      <trkpt lat="41.704285" lon="2.0195433399999994">
        <ele>252.0</ele>
        <time>2019-06-09T09:11:02+02:00</time>
      </trkpt>
      <trkpt lat="41.704235" lon="2.01954134">
        <ele>253.0</ele>
        <time>2019-06-09T09:11:04+02:00</time>
      </trkpt>
      <trkpt lat="41.70418334" lon="2.01954">
        <ele>253.0</ele>
        <time>2019-06-09T09:11:06+02:00</time>
      </trkpt>
      <trkpt lat="41.70413667" lon="2.019541">
        <ele>253.0</ele>
        <time>2019-06-09T09:11:08+02:00</time>
      </trkpt>
      <trkpt lat="41.70406833999999" lon="2.01954134">
        <ele>254.0</ele>
        <time>2019-06-09T09:11:11+02:00</time>
      </trkpt>
      <trkpt lat="41.704023340000006" lon="2.019545">
        <ele>254.0</ele>
        <time>2019-06-09T09:11:13+02:00</time>
      </trkpt>
      <trkpt lat="41.70397333999999" lon="2.019549">
        <ele>255.0</ele>
        <time>2019-06-09T09:11:15+02:00</time>
      </trkpt>
      <trkpt lat="41.70392667" lon="2.01954867">
        <ele>255.0</ele>
        <time>2019-06-09T09:11:17+02:00</time>
      </trkpt>
      <trkpt lat="41.703878339999996" lon="2.0195483399999996">
        <ele>256.0</ele>
        <time>2019-06-09T09:11:19+02:00</time>
      </trkpt>
      <trkpt lat="41.70383334" lon="2.0195483399999996">
        <ele>256.0</ele>
        <time>2019-06-09T09:11:21+02:00</time>
      </trkpt>
      <trkpt lat="41.70378667" lon="2.0195426700000003">
        <ele>256.0</ele>
        <time>2019-06-09T09:11:23+02:00</time>
      </trkpt>
      <trkpt lat="41.70373834" lon="2.019536">
        <ele>257.0</ele>
        <time>2019-06-09T09:11:25+02:00</time>
      </trkpt>
      <trkpt lat="41.703691670000005" lon="2.0195256699999997">
        <ele>257.0</ele>
        <time>2019-06-09T09:11:27+02:00</time>
      </trkpt>
      <trkpt lat="41.70364834" lon="2.01951267">
        <ele>257.0</ele>
        <time>2019-06-09T09:11:29+02:00</time>
      </trkpt>
      <trkpt lat="41.70359334" lon="2.0194959999999997">
        <ele>258.0</ele>
        <time>2019-06-09T09:11:32+02:00</time>
      </trkpt>
      <trkpt lat="41.70355334" lon="2.019481">
        <ele>258.0</ele>
        <time>2019-06-09T09:11:34+02:00</time>
      </trkpt>
      <trkpt lat="41.70350834" lon="2.01946134">
        <ele>258.0</ele>
        <time>2019-06-09T09:11:36+02:00</time>
      </trkpt>
      <trkpt lat="41.703456669999994" lon="2.0194400000000003">
        <ele>258.0</ele>
        <time>2019-06-09T09:11:38+02:00</time>
      </trkpt>
      <trkpt lat="41.70340667000001" lon="2.019421">
        <ele>259.0</ele>
        <time>2019-06-09T09:11:40+02:00</time>
      </trkpt>
      <trkpt lat="41.70336166999999" lon="2.0194026700000003">
        <ele>259.0</ele>
        <time>2019-06-09T09:11:42+02:00</time>
      </trkpt>
      <trkpt lat="41.70330167" lon="2.0193773399999997">
        <ele>259.0</ele>
        <time>2019-06-09T09:11:45+02:00</time>
      </trkpt>
      <trkpt lat="41.70324000000001" lon="2.01935467">
        <ele>260.0</ele>
        <time>2019-06-09T09:11:48+02:00</time>
      </trkpt>
      <trkpt lat="41.703181670000006" lon="2.019336">
        <ele>260.0</ele>
        <time>2019-06-09T09:11:51+02:00</time>
      </trkpt>
      <trkpt lat="41.70313" lon="2.0193146700000004">
        <ele>260.0</ele>
        <time>2019-06-09T09:11:54+02:00</time>
      </trkpt>
      <trkpt lat="41.703085" lon="2.0192989999999997">
        <ele>260.0</ele>
        <time>2019-06-09T09:11:57+02:00</time>
      </trkpt>
      <trkpt lat="41.703035" lon="2.01928167">
        <ele>260.0</ele>
        <time>2019-06-09T09:12:00+02:00</time>
      </trkpt>
      <trkpt lat="41.70298833999999" lon="2.01926467">
        <ele>260.0</ele>
        <time>2019-06-09T09:12:03+02:00</time>
      </trkpt>
      <trkpt lat="41.70294" lon="2.01924734">
        <ele>260.0</ele>
        <time>2019-06-09T09:12:06+02:00</time>
      </trkpt>
      <trkpt lat="41.7029" lon="2.0192313399999997">
        <ele>260.0</ele>
        <time>2019-06-09T09:12:09+02:00</time>
      </trkpt>
      <trkpt lat="41.70287834" lon="2.01908167">
        <ele>260.0</ele>
        <time>2019-06-09T09:12:11+02:00</time>
      </trkpt>
      <trkpt lat="41.70290333999999" lon="2.01903">
        <ele>260.0</ele>
        <time>2019-06-09T09:12:14+02:00</time>
      </trkpt>
      <trkpt lat="41.702943340000004" lon="2.01898834">
        <ele>260.0</ele>
        <time>2019-06-09T09:12:16+02:00</time>
      </trkpt>
      <trkpt lat="41.70299833999999" lon="2.01895167">
        <ele>260.0</ele>
        <time>2019-06-09T09:12:18+02:00</time>
      </trkpt>
      <trkpt lat="41.70306667000001" lon="2.01891834">
        <ele>260.0</ele>
        <time>2019-06-09T09:12:20+02:00</time>
      </trkpt>
      <trkpt lat="41.703138339999995" lon="2.01887334">
        <ele>258.0</ele>
        <time>2019-06-09T09:12:22+02:00</time>
      </trkpt>
      <trkpt lat="41.703196670000004" lon="2.018798">
        <ele>258.0</ele>
        <time>2019-06-09T09:12:24+02:00</time>
      </trkpt>
      <trkpt lat="41.70323167" lon="2.0187016699999996">
        <ele>258.0</ele>
        <time>2019-06-09T09:12:26+02:00</time>
      </trkpt>
      <trkpt lat="41.703268339999994" lon="2.0186066699999996">
        <ele>258.0</ele>
        <time>2019-06-09T09:12:28+02:00</time>
      </trkpt>
      <trkpt lat="41.70331634" lon="2.01854334">
        <ele>258.0</ele>
        <time>2019-06-09T09:12:30+02:00</time>
      </trkpt>
      <trkpt lat="41.703376670000004" lon="2.0185216699999993">
        <ele>258.0</ele>
        <time>2019-06-09T09:12:32+02:00</time>
      </trkpt>
      <trkpt lat="41.70345999999999" lon="2.0185233399999998">
        <ele>258.0</ele>
        <time>2019-06-09T09:12:34+02:00</time>
      </trkpt>
      <trkpt lat="41.70355334" lon="2.0185283399999996">
        <ele>258.0</ele>
        <time>2019-06-09T09:12:36+02:00</time>
      </trkpt>
      <trkpt lat="41.70360834" lon="2.0185250000000003">
        <ele>258.0</ele>
        <time>2019-06-09T09:12:37+02:00</time>
      </trkpt>
      <trkpt lat="41.703666670000004" lon="2.01851834">
        <ele>258.0</ele>
        <time>2019-06-09T09:12:38+02:00</time>
      </trkpt>
      <trkpt lat="41.70372999999999" lon="2.0185076699999995">
        <ele>258.0</ele>
        <time>2019-06-09T09:12:39+02:00</time>
      </trkpt>
      <trkpt lat="41.70379333999999" lon="2.018491">
        <ele>258.0</ele>
        <time>2019-06-09T09:12:40+02:00</time>
      </trkpt>
      <trkpt lat="41.70385834" lon="2.01846834">
        <ele>258.0</ele>
        <time>2019-06-09T09:12:41+02:00</time>
      </trkpt>
      <trkpt lat="41.70392167" lon="2.01843767">
        <ele>259.0</ele>
        <time>2019-06-09T09:12:42+02:00</time>
      </trkpt>
      <trkpt lat="41.70397833999999" lon="2.0184010000000003">
        <ele>259.0</ele>
        <time>2019-06-09T09:12:43+02:00</time>
      </trkpt>
      <trkpt lat="41.704025" lon="2.01835734">
        <ele>259.0</ele>
        <time>2019-06-09T09:12:44+02:00</time>
      </trkpt>
      <trkpt lat="41.70405834" lon="2.0183106699999995">
        <ele>259.0</ele>
        <time>2019-06-09T09:12:45+02:00</time>
      </trkpt>
      <trkpt lat="41.70408334" lon="2.0181666700000003">
        <ele>260.0</ele>
        <time>2019-06-09T09:12:46+02:00</time>
      </trkpt>
      <trkpt lat="41.704103339999996" lon="2.018085">
        <ele>260.0</ele>
        <time>2019-06-09T09:12:47+02:00</time>
      </trkpt>
      <trkpt lat="41.70412" lon="2.018005">
        <ele>260.0</ele>
        <time>2019-06-09T09:12:48+02:00</time>
      </trkpt>
      <trkpt lat="41.704121670000006" lon="2.01792334">
        <ele>261.0</ele>
        <time>2019-06-09T09:12:49+02:00</time>
      </trkpt>
      <trkpt lat="41.704115" lon="2.0178400000000005">
        <ele>261.0</ele>
        <time>2019-06-09T09:12:50+02:00</time>
      </trkpt>
      <trkpt lat="41.70410167" lon="2.01776">
        <ele>261.0</ele>
        <time>2019-06-09T09:12:51+02:00</time>
      </trkpt>
      <trkpt lat="41.704094999999995" lon="2.0176799999999995">
        <ele>261.0</ele>
        <time>2019-06-09T09:12:52+02:00</time>
      </trkpt>
      <trkpt lat="41.704094999999995" lon="2.01760167">
        <ele>262.0</ele>
        <time>2019-06-09T09:12:53+02:00</time>
      </trkpt>
      <trkpt lat="41.704108340000005" lon="2.01753167">
        <ele>262.0</ele>
        <time>2019-06-09T09:12:54+02:00</time>
      </trkpt>
      <trkpt lat="41.70413134" lon="2.0174783399999994">
        <ele>262.0</ele>
        <time>2019-06-09T09:12:55+02:00</time>
      </trkpt>
      <trkpt lat="41.70415934" lon="2.01743667">
        <ele>263.0</ele>
        <time>2019-06-09T09:12:56+02:00</time>
      </trkpt>
      <trkpt lat="41.70419134" lon="2.0174033399999995">
        <ele>263.0</ele>
        <time>2019-06-09T09:12:57+02:00</time>
      </trkpt>
      <trkpt lat="41.70424667000001" lon="2.0173700000000006">
        <ele>263.0</ele>
        <time>2019-06-09T09:12:58+02:00</time>
      </trkpt>
      <trkpt lat="41.704298339999994" lon="2.01728167">
        <ele>263.0</ele>
        <time>2019-06-09T09:13:00+02:00</time>
      </trkpt>
      <trkpt lat="41.70430967" lon="2.0171716699999998">
        <ele>263.0</ele>
        <time>2019-06-09T09:13:02+02:00</time>
      </trkpt>
      <trkpt lat="41.70428667" lon="2.01705167">
        <ele>264.0</ele>
        <time>2019-06-09T09:13:04+02:00</time>
      </trkpt>
      <trkpt lat="41.70426667" lon="2.0169866699999996">
        <ele>264.0</ele>
        <time>2019-06-09T09:13:05+02:00</time>
      </trkpt>
      <trkpt lat="41.70424000000001" lon="2.01692667">
        <ele>264.0</ele>
        <time>2019-06-09T09:13:06+02:00</time>
      </trkpt>
      <trkpt lat="41.70421167000001" lon="2.016865">
        <ele>264.0</ele>
        <time>2019-06-09T09:13:07+02:00</time>
      </trkpt>
      <trkpt lat="41.70418667" lon="2.01679834">
        <ele>264.0</ele>
        <time>2019-06-09T09:13:08+02:00</time>
      </trkpt>
      <trkpt lat="41.704168339999995" lon="2.016725">
        <ele>264.0</ele>
        <time>2019-06-09T09:13:09+02:00</time>
      </trkpt>
      <trkpt lat="41.704156999999995" lon="2.0166500000000003">
        <ele>264.0</ele>
        <time>2019-06-09T09:13:10+02:00</time>
      </trkpt>
      <trkpt lat="41.704151339999996" lon="2.01657167">
        <ele>265.0</ele>
        <time>2019-06-09T09:13:11+02:00</time>
      </trkpt>
      <trkpt lat="41.70415034" lon="2.01649">
        <ele>265.0</ele>
        <time>2019-06-09T09:13:12+02:00</time>
      </trkpt>
      <trkpt lat="41.70415034" lon="2.01641167">
        <ele>265.0</ele>
        <time>2019-06-09T09:13:13+02:00</time>
      </trkpt>
      <trkpt lat="41.70415034" lon="2.0163316700000005">
        <ele>265.0</ele>
        <time>2019-06-09T09:13:14+02:00</time>
      </trkpt>
      <trkpt lat="41.70415233999999" lon="2.01625167">
        <ele>266.0</ele>
        <time>2019-06-09T09:13:15+02:00</time>
      </trkpt>
      <trkpt lat="41.70415999999999" lon="2.0161833399999995">
        <ele>266.0</ele>
        <time>2019-06-09T09:13:16+02:00</time>
      </trkpt>
      <trkpt lat="41.70417299999999" lon="2.0161216699999995">
        <ele>266.0</ele>
        <time>2019-06-09T09:13:17+02:00</time>
      </trkpt>
      <trkpt lat="41.70423667" lon="2.01606834">
        <ele>266.0</ele>
        <time>2019-06-09T09:13:18+02:00</time>
      </trkpt>
      <trkpt lat="41.70427167" lon="2.01601834">
        <ele>267.0</ele>
        <time>2019-06-09T09:13:19+02:00</time>
      </trkpt>
      <trkpt lat="41.70430667000001" lon="2.0159650000000005">
        <ele>267.0</ele>
        <time>2019-06-09T09:13:20+02:00</time>
      </trkpt>
      <trkpt lat="41.704348339999996" lon="2.0159083399999993">
        <ele>267.0</ele>
        <time>2019-06-09T09:13:21+02:00</time>
      </trkpt>
      <trkpt lat="41.70440000000001" lon="2.01586167">
        <ele>267.0</ele>
        <time>2019-06-09T09:13:22+02:00</time>
      </trkpt>
      <trkpt lat="41.70445333999999" lon="2.0158300000000002">
        <ele>267.0</ele>
        <time>2019-06-09T09:13:23+02:00</time>
      </trkpt>
      <trkpt lat="41.70451167" lon="2.01582">
        <ele>268.0</ele>
        <time>2019-06-09T09:13:24+02:00</time>
      </trkpt>
      <trkpt lat="41.704565" lon="2.0158283399999997">
        <ele>268.0</ele>
        <time>2019-06-09T09:13:25+02:00</time>
      </trkpt>
      <trkpt lat="41.704620000000006" lon="2.0158449999999997">
        <ele>268.0</ele>
        <time>2019-06-09T09:13:26+02:00</time>
      </trkpt>
      <trkpt lat="41.70467500000001" lon="2.01586834">
        <ele>269.0</ele>
        <time>2019-06-09T09:13:27+02:00</time>
      </trkpt>
      <trkpt lat="41.70472833999999" lon="2.0158899999999997">
        <ele>269.0</ele>
        <time>2019-06-09T09:13:28+02:00</time>
      </trkpt>
      <trkpt lat="41.70477834" lon="2.0159200000000004">
        <ele>269.0</ele>
        <time>2019-06-09T09:13:29+02:00</time>
      </trkpt>
      <trkpt lat="41.704825" lon="2.015955">
        <ele>270.0</ele>
        <time>2019-06-09T09:13:30+02:00</time>
      </trkpt>
      <trkpt lat="41.70487333999999" lon="2.015995">
        <ele>270.0</ele>
        <time>2019-06-09T09:13:31+02:00</time>
      </trkpt>
      <trkpt lat="41.704921670000004" lon="2.01605">
        <ele>271.0</ele>
        <time>2019-06-09T09:13:32+02:00</time>
      </trkpt>
      <trkpt lat="41.70496833999999" lon="2.016115">
        <ele>271.0</ele>
        <time>2019-06-09T09:13:33+02:00</time>
      </trkpt>
      <trkpt lat="41.705016670000006" lon="2.0161849999999997">
        <ele>272.0</ele>
        <time>2019-06-09T09:13:34+02:00</time>
      </trkpt>
      <trkpt lat="41.705061670000006" lon="2.0162583399999994">
        <ele>272.0</ele>
        <time>2019-06-09T09:13:35+02:00</time>
      </trkpt>
      <trkpt lat="41.705103339999994" lon="2.0163366700000003">
        <ele>272.0</ele>
        <time>2019-06-09T09:13:36+02:00</time>
      </trkpt>
      <trkpt lat="41.705145" lon="2.01641667">
        <ele>273.0</ele>
        <time>2019-06-09T09:13:37+02:00</time>
      </trkpt>
      <trkpt lat="41.70518834000001" lon="2.01649334">
        <ele>273.0</ele>
        <time>2019-06-09T09:13:38+02:00</time>
      </trkpt>
      <trkpt lat="41.70523167" lon="2.0165680000000004">
        <ele>274.0</ele>
        <time>2019-06-09T09:13:39+02:00</time>
      </trkpt>
      <trkpt lat="41.705281670000005" lon="2.0166379999999995">
        <ele>274.0</ele>
        <time>2019-06-09T09:13:40+02:00</time>
      </trkpt>
      <trkpt lat="41.705335" lon="2.01669434">
        <ele>275.0</ele>
        <time>2019-06-09T09:13:41+02:00</time>
      </trkpt>
      <trkpt lat="41.705391670000004" lon="2.01673934">
        <ele>275.0</ele>
        <time>2019-06-09T09:13:42+02:00</time>
      </trkpt>
      <trkpt lat="41.705455" lon="2.01677034">
        <ele>275.0</ele>
        <time>2019-06-09T09:13:43+02:00</time>
      </trkpt>
      <trkpt lat="41.70551667000001" lon="2.0167803399999995">
        <ele>275.0</ele>
        <time>2019-06-09T09:13:44+02:00</time>
      </trkpt>
      <trkpt lat="41.70558167" lon="2.0167116700000003">
        <ele>277.0</ele>
        <time>2019-06-09T09:13:45+02:00</time>
      </trkpt>
      <trkpt lat="41.70566167" lon="2.016605">
        <ele>277.0</ele>
        <time>2019-06-09T09:13:46+02:00</time>
      </trkpt>
      <trkpt lat="41.70572833999999" lon="2.0165583399999996">
        <ele>278.0</ele>
        <time>2019-06-09T09:13:47+02:00</time>
      </trkpt>
      <trkpt lat="41.70578999999999" lon="2.01651167">
        <ele>278.0</ele>
        <time>2019-06-09T09:13:48+02:00</time>
      </trkpt>
      <trkpt lat="41.705848339999996" lon="2.01645167">
        <ele>279.0</ele>
        <time>2019-06-09T09:13:49+02:00</time>
      </trkpt>
      <trkpt lat="41.705909999999996" lon="2.01639167">
        <ele>279.0</ele>
        <time>2019-06-09T09:13:50+02:00</time>
      </trkpt>
      <trkpt lat="41.70597334" lon="2.01633">
        <ele>280.0</ele>
        <time>2019-06-09T09:13:51+02:00</time>
      </trkpt>
      <trkpt lat="41.70604" lon="2.01626834">
        <ele>280.0</ele>
        <time>2019-06-09T09:13:52+02:00</time>
      </trkpt>
      <trkpt lat="41.70609834" lon="2.016195">
        <ele>281.0</ele>
        <time>2019-06-09T09:13:53+02:00</time>
      </trkpt>
      <trkpt lat="41.70616" lon="2.0161166699999997">
        <ele>281.0</ele>
        <time>2019-06-09T09:13:54+02:00</time>
      </trkpt>
      <trkpt lat="41.70622" lon="2.0160333399999995">
        <ele>282.0</ele>
        <time>2019-06-09T09:13:55+02:00</time>
      </trkpt>
      <trkpt lat="41.706284999999994" lon="2.01594767">
        <ele>282.0</ele>
        <time>2019-06-09T09:13:56+02:00</time>
      </trkpt>
      <trkpt lat="41.70635" lon="2.015866">
        <ele>283.0</ele>
        <time>2019-06-09T09:13:57+02:00</time>
      </trkpt>
      <trkpt lat="41.706419999999994" lon="2.0157916699999996">
        <ele>283.0</ele>
        <time>2019-06-09T09:13:58+02:00</time>
      </trkpt>
      <trkpt lat="41.706495000000004" lon="2.015731">
        <ele>284.0</ele>
        <time>2019-06-09T09:13:59+02:00</time>
      </trkpt>
      <trkpt lat="41.706576670000004" lon="2.0156873400000004">
        <ele>284.0</ele>
        <time>2019-06-09T09:14:00+02:00</time>
      </trkpt>
      <trkpt lat="41.70666167" lon="2.01572">
        <ele>284.0</ele>
        <time>2019-06-09T09:14:01+02:00</time>
      </trkpt>
      <trkpt lat="41.70675" lon="2.0157049999999996">
        <ele>284.0</ele>
        <time>2019-06-09T09:14:02+02:00</time>
      </trkpt>
      <trkpt lat="41.706838340000004" lon="2.0156870000000007">
        <ele>285.0</ele>
        <time>2019-06-09T09:14:03+02:00</time>
      </trkpt>
      <trkpt lat="41.70693" lon="2.01567">
        <ele>285.0</ele>
        <time>2019-06-09T09:14:04+02:00</time>
      </trkpt>
      <trkpt lat="41.70702333999999" lon="2.0156586699999997">
        <ele>286.0</ele>
        <time>2019-06-09T09:14:05+02:00</time>
      </trkpt>
      <trkpt lat="41.70712" lon="2.01564534">
        <ele>286.0</ele>
        <time>2019-06-09T09:14:06+02:00</time>
      </trkpt>
      <trkpt lat="41.70722167000001" lon="2.015634">
        <ele>288.0</ele>
        <time>2019-06-09T09:14:07+02:00</time>
      </trkpt>
      <trkpt lat="41.707325000000004" lon="2.0156246700000002">
        <ele>288.0</ele>
        <time>2019-06-09T09:14:08+02:00</time>
      </trkpt>
      <trkpt lat="41.70742833999999" lon="2.015619">
        <ele>289.0</ele>
        <time>2019-06-09T09:14:09+02:00</time>
      </trkpt>
      <trkpt lat="41.70752667000001" lon="2.01561767">
        <ele>289.0</ele>
        <time>2019-06-09T09:14:10+02:00</time>
      </trkpt>
      <trkpt lat="41.707618339999996" lon="2.01562667">
        <ele>290.0</ele>
        <time>2019-06-09T09:14:11+02:00</time>
      </trkpt>
      <trkpt lat="41.707708339999996" lon="2.01564567">
        <ele>290.0</ele>
        <time>2019-06-09T09:14:12+02:00</time>
      </trkpt>
      <trkpt lat="41.707800000000006" lon="2.015667">
        <ele>292.0</ele>
        <time>2019-06-09T09:14:13+02:00</time>
      </trkpt>
      <trkpt lat="41.70789834" lon="2.0156843399999995">
        <ele>292.0</ele>
        <time>2019-06-09T09:14:14+02:00</time>
      </trkpt>
      <trkpt lat="41.707995" lon="2.01569967">
        <ele>293.0</ele>
        <time>2019-06-09T09:14:15+02:00</time>
      </trkpt>
      <trkpt lat="41.70809667" lon="2.015714">
        <ele>293.0</ele>
        <time>2019-06-09T09:14:16+02:00</time>
      </trkpt>
      <trkpt lat="41.70819834" lon="2.0157266700000003">
        <ele>294.0</ele>
        <time>2019-06-09T09:14:17+02:00</time>
      </trkpt>
      <trkpt lat="41.708295" lon="2.01574034">
        <ele>294.0</ele>
        <time>2019-06-09T09:14:18+02:00</time>
      </trkpt>
      <trkpt lat="41.708386669999996" lon="2.01574967">
        <ele>295.0</ele>
        <time>2019-06-09T09:14:19+02:00</time>
      </trkpt>
      <trkpt lat="41.70846667000001" lon="2.01574967">
        <ele>295.0</ele>
        <time>2019-06-09T09:14:20+02:00</time>
      </trkpt>
      <trkpt lat="41.708524999999995" lon="2.0157383399999995">
        <ele>297.0</ele>
        <time>2019-06-09T09:14:21+02:00</time>
      </trkpt>
      <trkpt lat="41.70856334" lon="2.01558834">
        <ele>297.0</ele>
        <time>2019-06-09T09:14:22+02:00</time>
      </trkpt>
      <trkpt lat="41.70858500000001" lon="2.0154966699999997">
        <ele>298.0</ele>
        <time>2019-06-09T09:14:23+02:00</time>
      </trkpt>
      <trkpt lat="41.708591670000004" lon="2.0154050000000003">
        <ele>298.0</ele>
        <time>2019-06-09T09:14:24+02:00</time>
      </trkpt>
      <trkpt lat="41.70858167" lon="2.0153133399999996">
        <ele>299.0</ele>
        <time>2019-06-09T09:14:25+02:00</time>
      </trkpt>
      <trkpt lat="41.70855" lon="2.01521667">
        <ele>299.0</ele>
        <time>2019-06-09T09:14:26+02:00</time>
      </trkpt>
      <trkpt lat="41.70850334" lon="2.0151233399999997">
        <ele>300.0</ele>
        <time>2019-06-09T09:14:27+02:00</time>
      </trkpt>
      <trkpt lat="41.70844667" lon="2.01503167">
        <ele>300.0</ele>
        <time>2019-06-09T09:14:28+02:00</time>
      </trkpt>
      <trkpt lat="41.708386669999996" lon="2.01494">
        <ele>301.0</ele>
        <time>2019-06-09T09:14:29+02:00</time>
      </trkpt>
      <trkpt lat="41.708324999999995" lon="2.01485">
        <ele>301.0</ele>
        <time>2019-06-09T09:14:30+02:00</time>
      </trkpt>
      <trkpt lat="41.70825834" lon="2.01477">
        <ele>302.0</ele>
        <time>2019-06-09T09:14:31+02:00</time>
      </trkpt>
      <trkpt lat="41.70819834" lon="2.01469">
        <ele>302.0</ele>
        <time>2019-06-09T09:14:32+02:00</time>
      </trkpt>
      <trkpt lat="41.70814867" lon="2.0146083399999997">
        <ele>302.0</ele>
        <time>2019-06-09T09:14:33+02:00</time>
      </trkpt>
      <trkpt lat="41.70811467" lon="2.01452">
        <ele>303.0</ele>
        <time>2019-06-09T09:14:34+02:00</time>
      </trkpt>
      <trkpt lat="41.708095339999986" lon="2.01442167">
        <ele>303.0</ele>
        <time>2019-06-09T09:14:35+02:00</time>
      </trkpt>
      <trkpt lat="41.70808667" lon="2.01431834">
        <ele>303.0</ele>
        <time>2019-06-09T09:14:36+02:00</time>
      </trkpt>
      <trkpt lat="41.708101670000005" lon="2.014215">
        <ele>304.0</ele>
        <time>2019-06-09T09:14:37+02:00</time>
      </trkpt>
      <trkpt lat="41.708101670000005" lon="2.01410667">
        <ele>304.0</ele>
        <time>2019-06-09T09:14:38+02:00</time>
      </trkpt>
      <trkpt lat="41.708099000000004" lon="2.01399167">
        <ele>304.0</ele>
        <time>2019-06-09T09:14:39+02:00</time>
      </trkpt>
      <trkpt lat="41.70809233999999" lon="2.0138749999999996">
        <ele>305.0</ele>
        <time>2019-06-09T09:14:40+02:00</time>
      </trkpt>
      <trkpt lat="41.70808167" lon="2.0137733399999993">
        <ele>305.0</ele>
        <time>2019-06-09T09:14:41+02:00</time>
      </trkpt>
      <trkpt lat="41.70805834000001" lon="2.0136849999999997">
        <ele>305.0</ele>
        <time>2019-06-09T09:14:42+02:00</time>
      </trkpt>
      <trkpt lat="41.70802467" lon="2.01361834">
        <ele>306.0</ele>
        <time>2019-06-09T09:14:43+02:00</time>
      </trkpt>
      <trkpt lat="41.707919999999994" lon="2.0135650000000003">
        <ele>306.0</ele>
        <time>2019-06-09T09:14:44+02:00</time>
      </trkpt>
      <trkpt lat="41.70785834" lon="2.0135099999999997">
        <ele>306.0</ele>
        <time>2019-06-09T09:14:45+02:00</time>
      </trkpt>
      <trkpt lat="41.70779867" lon="2.01345167">
        <ele>307.0</ele>
        <time>2019-06-09T09:14:46+02:00</time>
      </trkpt>
      <trkpt lat="41.70777233999999" lon="2.013375">
        <ele>307.0</ele>
        <time>2019-06-09T09:14:47+02:00</time>
      </trkpt>
      <trkpt lat="41.70776767" lon="2.013305">
        <ele>307.0</ele>
        <time>2019-06-09T09:14:48+02:00</time>
      </trkpt>
      <trkpt lat="41.70777367000001" lon="2.01321167">
        <ele>307.0</ele>
        <time>2019-06-09T09:14:49+02:00</time>
      </trkpt>
      <trkpt lat="41.707816670000014" lon="2.01312667">
        <ele>308.0</ele>
        <time>2019-06-09T09:14:50+02:00</time>
      </trkpt>
      <trkpt lat="41.70784667000001" lon="2.01304167">
        <ele>308.0</ele>
        <time>2019-06-09T09:14:51+02:00</time>
      </trkpt>
      <trkpt lat="41.70787833999999" lon="2.01296">
        <ele>308.0</ele>
        <time>2019-06-09T09:14:52+02:00</time>
      </trkpt>
      <trkpt lat="41.7079" lon="2.012865">
        <ele>309.0</ele>
        <time>2019-06-09T09:14:53+02:00</time>
      </trkpt>
      <trkpt lat="41.70792666999999" lon="2.0127833399999995">
        <ele>309.0</ele>
        <time>2019-06-09T09:14:54+02:00</time>
      </trkpt>
      <trkpt lat="41.707936339999996" lon="2.012695">
        <ele>309.0</ele>
        <time>2019-06-09T09:14:55+02:00</time>
      </trkpt>
      <trkpt lat="41.707915339999985" lon="2.01258">
        <ele>310.0</ele>
        <time>2019-06-09T09:14:56+02:00</time>
      </trkpt>
      <trkpt lat="41.70788567000001" lon="2.0124716699999996">
        <ele>310.0</ele>
        <time>2019-06-09T09:14:57+02:00</time>
      </trkpt>
      <trkpt lat="41.707855" lon="2.0123583399999996">
        <ele>310.0</ele>
        <time>2019-06-09T09:14:58+02:00</time>
      </trkpt>
      <trkpt lat="41.70782834" lon="2.01224167">
        <ele>311.0</ele>
        <time>2019-06-09T09:14:59+02:00</time>
      </trkpt>
      <trkpt lat="41.70780267" lon="2.0120999999999998">
        <ele>311.0</ele>
        <time>2019-06-09T09:15:00+02:00</time>
      </trkpt>
      <trkpt lat="41.70778767" lon="2.01200167">
        <ele>311.0</ele>
        <time>2019-06-09T09:15:01+02:00</time>
      </trkpt>
      <trkpt lat="41.70777133999999" lon="2.0118883399999996">
        <ele>311.0</ele>
        <time>2019-06-09T09:15:02+02:00</time>
      </trkpt>
      <trkpt lat="41.707759339999996" lon="2.0117766699999997">
        <ele>311.0</ele>
        <time>2019-06-09T09:15:03+02:00</time>
      </trkpt>
      <trkpt lat="41.70775567" lon="2.01166667">
        <ele>311.0</ele>
        <time>2019-06-09T09:15:04+02:00</time>
      </trkpt>
      <trkpt lat="41.707765339999995" lon="2.0115583399999997">
        <ele>311.0</ele>
        <time>2019-06-09T09:15:05+02:00</time>
      </trkpt>
      <trkpt lat="41.707865000000005" lon="2.0114533399999996">
        <ele>312.0</ele>
        <time>2019-06-09T09:15:06+02:00</time>
      </trkpt>
      <trkpt lat="41.70790834" lon="2.011345">
        <ele>312.0</ele>
        <time>2019-06-09T09:15:07+02:00</time>
      </trkpt>
      <trkpt lat="41.70794299999999" lon="2.01123">
        <ele>312.0</ele>
        <time>2019-06-09T09:15:08+02:00</time>
      </trkpt>
      <trkpt lat="41.70797" lon="2.0111083399999994">
        <ele>313.0</ele>
        <time>2019-06-09T09:15:09+02:00</time>
      </trkpt>
      <trkpt lat="41.70799167" lon="2.0109850000000002">
        <ele>313.0</ele>
        <time>2019-06-09T09:15:10+02:00</time>
      </trkpt>
      <trkpt lat="41.708001" lon="2.01085">
        <ele>313.0</ele>
        <time>2019-06-09T09:15:11+02:00</time>
      </trkpt>
      <trkpt lat="41.707984669999995" lon="2.0107">
        <ele>314.0</ele>
        <time>2019-06-09T09:15:12+02:00</time>
      </trkpt>
      <trkpt lat="41.70796133999999" lon="2.0105700000000004">
        <ele>314.0</ele>
        <time>2019-06-09T09:15:13+02:00</time>
      </trkpt>
      <trkpt lat="41.70789834" lon="2.0104433399999997">
        <ele>314.0</ele>
        <time>2019-06-09T09:15:14+02:00</time>
      </trkpt>
      <trkpt lat="41.70786667" lon="2.01032">
        <ele>315.0</ele>
        <time>2019-06-09T09:15:15+02:00</time>
      </trkpt>
      <trkpt lat="41.70782834" lon="2.0102033399999995">
        <ele>315.0</ele>
        <time>2019-06-09T09:15:16+02:00</time>
      </trkpt>
      <trkpt lat="41.70777667" lon="2.0101">
        <ele>315.0</ele>
        <time>2019-06-09T09:15:17+02:00</time>
      </trkpt>
      <trkpt lat="41.70772167000001" lon="2.01000667">
        <ele>316.0</ele>
        <time>2019-06-09T09:15:18+02:00</time>
      </trkpt>
      <trkpt lat="41.70766999999999" lon="2.0099183399999996">
        <ele>316.0</ele>
        <time>2019-06-09T09:15:19+02:00</time>
      </trkpt>
      <trkpt lat="41.70762667000001" lon="2.009835">
        <ele>316.0</ele>
        <time>2019-06-09T09:15:20+02:00</time>
      </trkpt>
      <trkpt lat="41.707598669999996" lon="2.00975167">
        <ele>317.0</ele>
        <time>2019-06-09T09:15:21+02:00</time>
      </trkpt>
      <trkpt lat="41.707590339999996" lon="2.00968167">
        <ele>317.0</ele>
        <time>2019-06-09T09:15:22+02:00</time>
      </trkpt>
      <trkpt lat="41.707600339999985" lon="2.0096216699999996">
        <ele>317.0</ele>
        <time>2019-06-09T09:15:23+02:00</time>
      </trkpt>
      <trkpt lat="41.70767667" lon="2.00958334">
        <ele>318.0</ele>
        <time>2019-06-09T09:15:24+02:00</time>
      </trkpt>
      <trkpt lat="41.707724999999996" lon="2.009545">
        <ele>318.0</ele>
        <time>2019-06-09T09:15:25+02:00</time>
      </trkpt>
      <trkpt lat="41.70778" lon="2.00950667">
        <ele>318.0</ele>
        <time>2019-06-09T09:15:26+02:00</time>
      </trkpt>
      <trkpt lat="41.707834999999996" lon="2.00948">
        <ele>319.0</ele>
        <time>2019-06-09T09:15:27+02:00</time>
      </trkpt>
      <trkpt lat="41.70789333999999" lon="2.0094533399999994">
        <ele>319.0</ele>
        <time>2019-06-09T09:15:28+02:00</time>
      </trkpt>
      <trkpt lat="41.707955000000005" lon="2.00943167">
        <ele>319.0</ele>
        <time>2019-06-09T09:15:29+02:00</time>
      </trkpt>
      <trkpt lat="41.70801834" lon="2.00941167">
        <ele>319.0</ele>
        <time>2019-06-09T09:15:30+02:00</time>
      </trkpt>
      <trkpt lat="41.70807833999999" lon="2.0093900000000002">
        <ele>320.0</ele>
        <time>2019-06-09T09:15:31+02:00</time>
      </trkpt>
      <trkpt lat="41.70813667" lon="2.0093650000000003">
        <ele>320.0</ele>
        <time>2019-06-09T09:15:32+02:00</time>
      </trkpt>
      <trkpt lat="41.708194999999996" lon="2.00933334">
        <ele>320.0</ele>
        <time>2019-06-09T09:15:33+02:00</time>
      </trkpt>
      <trkpt lat="41.70825333999999" lon="2.00929467">
        <ele>321.0</ele>
        <time>2019-06-09T09:15:34+02:00</time>
      </trkpt>
      <trkpt lat="41.70831" lon="2.00924967">
        <ele>321.0</ele>
        <time>2019-06-09T09:15:35+02:00</time>
      </trkpt>
      <trkpt lat="41.708360000000006" lon="2.0091953399999998">
        <ele>321.0</ele>
        <time>2019-06-09T09:15:36+02:00</time>
      </trkpt>
      <trkpt lat="41.708408340000005" lon="2.00913434">
        <ele>322.0</ele>
        <time>2019-06-09T09:15:37+02:00</time>
      </trkpt>
      <trkpt lat="41.708455" lon="2.0090700000000004">
        <ele>322.0</ele>
        <time>2019-06-09T09:15:38+02:00</time>
      </trkpt>
      <trkpt lat="41.708506670000006" lon="2.00900067">
        <ele>322.0</ele>
        <time>2019-06-09T09:15:39+02:00</time>
      </trkpt>
      <trkpt lat="41.708575" lon="2.0089063400000002">
        <ele>323.0</ele>
        <time>2019-06-09T09:15:40+02:00</time>
      </trkpt>
      <trkpt lat="41.70863834" lon="2.00882734">
        <ele>323.0</ele>
        <time>2019-06-09T09:15:41+02:00</time>
      </trkpt>
      <trkpt lat="41.70872167" lon="2.00873834">
        <ele>323.0</ele>
        <time>2019-06-09T09:15:42+02:00</time>
      </trkpt>
      <trkpt lat="41.70877" lon="2.008686">
        <ele>324.0</ele>
        <time>2019-06-09T09:15:43+02:00</time>
      </trkpt>
      <trkpt lat="41.70881834" lon="2.0086253399999996">
        <ele>324.0</ele>
        <time>2019-06-09T09:15:44+02:00</time>
      </trkpt>
      <trkpt lat="41.70885499999999" lon="2.00856567">
        <ele>324.0</ele>
        <time>2019-06-09T09:15:45+02:00</time>
      </trkpt>
      <trkpt lat="41.708873340000004" lon="2.0084366699999996">
        <ele>325.0</ele>
        <time>2019-06-09T09:15:46+02:00</time>
      </trkpt>
      <trkpt lat="41.708866670000006" lon="2.0083349999999998">
        <ele>325.0</ele>
        <time>2019-06-09T09:15:47+02:00</time>
      </trkpt>
      <trkpt lat="41.70884667" lon="2.008225">
        <ele>325.0</ele>
        <time>2019-06-09T09:15:48+02:00</time>
      </trkpt>
      <trkpt lat="41.708823339999995" lon="2.00811167">
        <ele>325.0</ele>
        <time>2019-06-09T09:15:49+02:00</time>
      </trkpt>
      <trkpt lat="41.708805" lon="2.007985">
        <ele>326.0</ele>
        <time>2019-06-09T09:15:50+02:00</time>
      </trkpt>
      <trkpt lat="41.708794999999995" lon="2.0078533399999996">
        <ele>326.0</ele>
        <time>2019-06-09T09:15:51+02:00</time>
      </trkpt>
      <trkpt lat="41.708789339999996" lon="2.0077283399999994">
        <ele>326.0</ele>
        <time>2019-06-09T09:15:52+02:00</time>
      </trkpt>
      <trkpt lat="41.708783" lon="2.00760667">
        <ele>326.0</ele>
        <time>2019-06-09T09:15:53+02:00</time>
      </trkpt>
      <trkpt lat="41.70878134000001" lon="2.0075">
        <ele>327.0</ele>
        <time>2019-06-09T09:15:54+02:00</time>
      </trkpt>
      <trkpt lat="41.708783340000004" lon="2.0074033399999998">
        <ele>327.0</ele>
        <time>2019-06-09T09:15:55+02:00</time>
      </trkpt>
      <trkpt lat="41.708792" lon="2.00732334">
        <ele>327.0</ele>
        <time>2019-06-09T09:15:56+02:00</time>
      </trkpt>
      <trkpt lat="41.708805999999996" lon="2.0072483399999994">
        <ele>327.0</ele>
        <time>2019-06-09T09:15:57+02:00</time>
      </trkpt>
      <trkpt lat="41.70888334" lon="2.0072283399999997">
        <ele>328.0</ele>
        <time>2019-06-09T09:15:58+02:00</time>
      </trkpt>
      <trkpt lat="41.708925" lon="2.0071416699999998">
        <ele>328.0</ele>
        <time>2019-06-09T09:15:59+02:00</time>
      </trkpt>
      <trkpt lat="41.708993" lon="2.00703167">
        <ele>328.0</ele>
        <time>2019-06-09T09:16:00+02:00</time>
      </trkpt>
      <trkpt lat="41.709033" lon="2.0069483399999997">
        <ele>329.0</ele>
        <time>2019-06-09T09:16:01+02:00</time>
      </trkpt>
      <trkpt lat="41.709063" lon="2.0068599999999996">
        <ele>329.0</ele>
        <time>2019-06-09T09:16:02+02:00</time>
      </trkpt>
      <trkpt lat="41.709092670000004" lon="2.0067833399999992">
        <ele>329.0</ele>
        <time>2019-06-09T09:16:03+02:00</time>
      </trkpt>
      <trkpt lat="41.70912134" lon="2.00674334">
        <ele>329.0</ele>
        <time>2019-06-09T09:16:04+02:00</time>
      </trkpt>
      <trkpt lat="41.709148000000006" lon="2.0067233399999997">
        <ele>330.0</ele>
        <time>2019-06-09T09:16:05+02:00</time>
      </trkpt>
      <trkpt lat="41.709250000000004" lon="2.00680334">
        <ele>330.0</ele>
        <time>2019-06-09T09:16:06+02:00</time>
      </trkpt>
      <trkpt lat="41.70930167" lon="2.00684834">
        <ele>330.0</ele>
        <time>2019-06-09T09:16:07+02:00</time>
      </trkpt>
      <trkpt lat="41.70936167" lon="2.0068633399999998">
        <ele>330.0</ele>
        <time>2019-06-09T09:16:08+02:00</time>
      </trkpt>
      <trkpt lat="41.70942167" lon="2.00681667">
        <ele>331.0</ele>
        <time>2019-06-09T09:16:10+02:00</time>
      </trkpt>
      <trkpt lat="41.709456669999994" lon="2.0067209999999998">
        <ele>331.0</ele>
        <time>2019-06-09T09:16:12+02:00</time>
      </trkpt>
      <trkpt lat="41.709446670000005" lon="2.00660334">
        <ele>331.0</ele>
        <time>2019-06-09T09:16:14+02:00</time>
      </trkpt>
      <trkpt lat="41.709426670000006" lon="2.00653">
        <ele>331.0</ele>
        <time>2019-06-09T09:16:15+02:00</time>
      </trkpt>
      <trkpt lat="41.70940334" lon="2.00645667">
        <ele>331.0</ele>
        <time>2019-06-09T09:16:16+02:00</time>
      </trkpt>
      <trkpt lat="41.70938334" lon="2.0063716699999996">
        <ele>332.0</ele>
        <time>2019-06-09T09:16:17+02:00</time>
      </trkpt>
      <trkpt lat="41.709365000000005" lon="2.0062783399999993">
        <ele>332.0</ele>
        <time>2019-06-09T09:16:18+02:00</time>
      </trkpt>
      <trkpt lat="41.709365000000005" lon="2.0061833399999993">
        <ele>332.0</ele>
        <time>2019-06-09T09:16:19+02:00</time>
      </trkpt>
      <trkpt lat="41.709366339999995" lon="2.0060849999999997">
        <ele>333.0</ele>
        <time>2019-06-09T09:16:20+02:00</time>
      </trkpt>
      <trkpt lat="41.70936433999999" lon="2.0059099999999996">
        <ele>333.0</ele>
        <time>2019-06-09T09:16:21+02:00</time>
      </trkpt>
      <trkpt lat="41.709379" lon="2.00582334">
        <ele>333.0</ele>
        <time>2019-06-09T09:16:22+02:00</time>
      </trkpt>
      <trkpt lat="41.709407670000004" lon="2.00572167">
        <ele>334.0</ele>
        <time>2019-06-09T09:16:23+02:00</time>
      </trkpt>
      <trkpt lat="41.70944533999999" lon="2.00566334">
        <ele>334.0</ele>
        <time>2019-06-09T09:16:24+02:00</time>
      </trkpt>
      <trkpt lat="41.70953834" lon="2.005605">
        <ele>334.0</ele>
        <time>2019-06-09T09:16:25+02:00</time>
      </trkpt>
      <trkpt lat="41.709658340000004" lon="2.00556834">
        <ele>335.0</ele>
        <time>2019-06-09T09:16:26+02:00</time>
      </trkpt>
      <trkpt lat="41.70971333999999" lon="2.00566334">
        <ele>335.0</ele>
        <time>2019-06-09T09:16:27+02:00</time>
      </trkpt>
      <trkpt lat="41.70978667000001" lon="2.00568">
        <ele>336.0</ele>
        <time>2019-06-09T09:16:28+02:00</time>
      </trkpt>
      <trkpt lat="41.70984334" lon="2.00566167">
        <ele>336.0</ele>
        <time>2019-06-09T09:16:29+02:00</time>
      </trkpt>
      <trkpt lat="41.70988167" lon="2.00562834">
        <ele>336.0</ele>
        <time>2019-06-09T09:16:30+02:00</time>
      </trkpt>
      <trkpt lat="41.709905" lon="2.00554467">
        <ele>337.0</ele>
        <time>2019-06-09T09:16:32+02:00</time>
      </trkpt>
      <trkpt lat="41.70990167000001" lon="2.0054133399999996">
        <ele>337.0</ele>
        <time>2019-06-09T09:16:34+02:00</time>
      </trkpt>
      <trkpt lat="41.709891670000005" lon="2.0053349999999996">
        <ele>337.0</ele>
        <time>2019-06-09T09:16:36+02:00</time>
      </trkpt>
      <trkpt lat="41.70989667" lon="2.00526167">
        <ele>338.0</ele>
        <time>2019-06-09T09:16:48+02:00</time>
      </trkpt>
      <trkpt lat="41.709948" lon="2.00519167">
        <ele>338.0</ele>
        <time>2019-06-09T09:16:51+02:00</time>
      </trkpt>
      <trkpt lat="41.71000733999999" lon="2.00511667">
        <ele>337.0</ele>
        <time>2019-06-09T09:16:53+02:00</time>
      </trkpt>
      <trkpt lat="41.71003900000001" lon="2.005065">
        <ele>337.0</ele>
        <time>2019-06-09T09:16:54+02:00</time>
      </trkpt>
      <trkpt lat="41.71008067000001" lon="2.004955">
        <ele>337.0</ele>
        <time>2019-06-09T09:16:56+02:00</time>
      </trkpt>
      <trkpt lat="41.710073339999994" lon="2.0048583399999993">
        <ele>337.0</ele>
        <time>2019-06-09T09:16:58+02:00</time>
      </trkpt>
      <trkpt lat="41.71004167000001" lon="2.00481334">
        <ele>337.0</ele>
        <time>2019-06-09T09:17:00+02:00</time>
      </trkpt>
      <trkpt lat="41.70998667" lon="2.0047900000000003">
        <ele>338.0</ele>
        <time>2019-06-09T09:17:02+02:00</time>
      </trkpt>
      <trkpt lat="41.70993" lon="2.0047783399999997">
        <ele>338.0</ele>
        <time>2019-06-09T09:17:04+02:00</time>
      </trkpt>
      <trkpt lat="41.70987" lon="2.0047699999999997">
        <ele>338.0</ele>
        <time>2019-06-09T09:17:06+02:00</time>
      </trkpt>
      <trkpt lat="41.709818340000005" lon="2.0047533399999997">
        <ele>338.0</ele>
        <time>2019-06-09T09:17:08+02:00</time>
      </trkpt>
      <trkpt lat="41.70976834" lon="2.004745">
        <ele>338.0</ele>
        <time>2019-06-09T09:17:10+02:00</time>
      </trkpt>
      <trkpt lat="41.70972" lon="2.0047420000000002">
        <ele>339.0</ele>
        <time>2019-06-09T09:17:12+02:00</time>
      </trkpt>
      <trkpt lat="41.709671670000006" lon="2.004729">
        <ele>339.0</ele>
        <time>2019-06-09T09:17:14+02:00</time>
      </trkpt>
      <trkpt lat="41.70961834" lon="2.0047159999999997">
        <ele>339.0</ele>
        <time>2019-06-09T09:17:16+02:00</time>
      </trkpt>
      <trkpt lat="41.70956834" lon="2.00469667">
        <ele>339.0</ele>
        <time>2019-06-09T09:17:18+02:00</time>
      </trkpt>
      <trkpt lat="41.709514999999996" lon="2.00467234">
        <ele>339.0</ele>
        <time>2019-06-09T09:17:20+02:00</time>
      </trkpt>
      <trkpt lat="41.70946334" lon="2.00464634">
        <ele>339.0</ele>
        <time>2019-06-09T09:17:22+02:00</time>
      </trkpt>
      <trkpt lat="41.709415" lon="2.00461534">
        <ele>339.0</ele>
        <time>2019-06-09T09:17:24+02:00</time>
      </trkpt>
      <trkpt lat="41.70937" lon="2.0045316699999995">
        <ele>339.0</ele>
        <time>2019-06-09T09:17:26+02:00</time>
      </trkpt>
      <trkpt lat="41.70932667" lon="2.0044866699999995">
        <ele>339.0</ele>
        <time>2019-06-09T09:17:28+02:00</time>
      </trkpt>
      <trkpt lat="41.709278340000004" lon="2.0044379999999995">
        <ele>339.0</ele>
        <time>2019-06-09T09:17:30+02:00</time>
      </trkpt>
      <trkpt lat="41.709224999999996" lon="2.0043933399999996">
        <ele>339.0</ele>
        <time>2019-06-09T09:17:32+02:00</time>
      </trkpt>
      <trkpt lat="41.70917667" lon="2.00435267">
        <ele>340.0</ele>
        <time>2019-06-09T09:17:34+02:00</time>
      </trkpt>
      <trkpt lat="41.70913667" lon="2.004315">
        <ele>340.0</ele>
        <time>2019-06-09T09:17:36+02:00</time>
      </trkpt>
      <trkpt lat="41.709093339999995" lon="2.00427967">
        <ele>340.0</ele>
        <time>2019-06-09T09:17:38+02:00</time>
      </trkpt>
      <trkpt lat="41.70903499999999" lon="2.00423434">
        <ele>340.0</ele>
        <time>2019-06-09T09:17:41+02:00</time>
      </trkpt>
      <trkpt lat="41.70898834" lon="2.0042033399999997">
        <ele>340.0</ele>
        <time>2019-06-09T09:17:43+02:00</time>
      </trkpt>
      <trkpt lat="41.708935000000004" lon="2.004175">
        <ele>340.0</ele>
        <time>2019-06-09T09:17:45+02:00</time>
      </trkpt>
      <trkpt lat="41.708886670000005" lon="2.0041506699999996">
        <ele>340.0</ele>
        <time>2019-06-09T09:17:47+02:00</time>
      </trkpt>
      <trkpt lat="41.70883834" lon="2.00412634">
        <ele>341.0</ele>
        <time>2019-06-09T09:17:49+02:00</time>
      </trkpt>
      <trkpt lat="41.708794999999995" lon="2.0041033399999995">
        <ele>341.0</ele>
        <time>2019-06-09T09:17:51+02:00</time>
      </trkpt>
      <trkpt lat="41.70874667000001" lon="2.004072">
        <ele>341.0</ele>
        <time>2019-06-09T09:17:53+02:00</time>
      </trkpt>
      <trkpt lat="41.708704999999995" lon="2.00403834">
        <ele>341.0</ele>
        <time>2019-06-09T09:17:55+02:00</time>
      </trkpt>
      <trkpt lat="41.70867" lon="2.00400634">
        <ele>341.0</ele>
        <time>2019-06-09T09:17:57+02:00</time>
      </trkpt>
      <trkpt lat="41.70863667" lon="2.00391167">
        <ele>341.0</ele>
        <time>2019-06-09T09:18:00+02:00</time>
      </trkpt>
      <trkpt lat="41.70860366999999" lon="2.00387">
        <ele>341.0</ele>
        <time>2019-06-09T09:18:02+02:00</time>
      </trkpt>
      <trkpt lat="41.70856" lon="2.00382667">
        <ele>341.0</ele>
        <time>2019-06-09T09:18:04+02:00</time>
      </trkpt>
      <trkpt lat="41.70850334" lon="2.0037849999999997">
        <ele>341.0</ele>
        <time>2019-06-09T09:18:06+02:00</time>
      </trkpt>
      <trkpt lat="41.708443339999995" lon="2.00375167">
        <ele>341.0</ele>
        <time>2019-06-09T09:18:08+02:00</time>
      </trkpt>
      <trkpt lat="41.708385" lon="2.0037316699999996">
        <ele>341.0</ele>
        <time>2019-06-09T09:18:10+02:00</time>
      </trkpt>
      <trkpt lat="41.708335" lon="2.0037150000000006">
        <ele>341.0</ele>
        <time>2019-06-09T09:18:12+02:00</time>
      </trkpt>
      <trkpt lat="41.708281670000005" lon="2.0037150000000006">
        <ele>340.0</ele>
        <time>2019-06-09T09:18:14+02:00</time>
      </trkpt>
      <trkpt lat="41.70822999999999" lon="2.0037233399999996">
        <ele>340.0</ele>
        <time>2019-06-09T09:18:16+02:00</time>
      </trkpt>
      <trkpt lat="41.708173339999995" lon="2.00373667">
        <ele>340.0</ele>
        <time>2019-06-09T09:18:18+02:00</time>
      </trkpt>
      <trkpt lat="41.70811834" lon="2.00374134">
        <ele>339.0</ele>
        <time>2019-06-09T09:18:20+02:00</time>
      </trkpt>
      <trkpt lat="41.708059999999996" lon="2.00374667">
        <ele>339.0</ele>
        <time>2019-06-09T09:18:22+02:00</time>
      </trkpt>
      <trkpt lat="41.70800333999999" lon="2.00375034">
        <ele>339.0</ele>
        <time>2019-06-09T09:18:24+02:00</time>
      </trkpt>
      <trkpt lat="41.70794667" lon="2.00375367">
        <ele>338.0</ele>
        <time>2019-06-09T09:18:26+02:00</time>
      </trkpt>
      <trkpt lat="41.70789" lon="2.00375367">
        <ele>338.0</ele>
        <time>2019-06-09T09:18:28+02:00</time>
      </trkpt>
      <trkpt lat="41.70783834" lon="2.00375034">
        <ele>338.0</ele>
        <time>2019-06-09T09:18:30+02:00</time>
      </trkpt>
      <trkpt lat="41.707786670000004" lon="2.00374967">
        <ele>337.0</ele>
        <time>2019-06-09T09:18:32+02:00</time>
      </trkpt>
      <trkpt lat="41.70773333999999" lon="2.00375334">
        <ele>337.0</ele>
        <time>2019-06-09T09:18:34+02:00</time>
      </trkpt>
      <trkpt lat="41.70767834" lon="2.003759">
        <ele>336.0</ele>
        <time>2019-06-09T09:18:36+02:00</time>
      </trkpt>
      <trkpt lat="41.70762334" lon="2.00376534">
        <ele>336.0</ele>
        <time>2019-06-09T09:18:38+02:00</time>
      </trkpt>
      <trkpt lat="41.707559999999994" lon="2.00377534">
        <ele>336.0</ele>
        <time>2019-06-09T09:18:40+02:00</time>
      </trkpt>
      <trkpt lat="41.70749667000001" lon="2.00378367">
        <ele>336.0</ele>
        <time>2019-06-09T09:18:42+02:00</time>
      </trkpt>
      <trkpt lat="41.70743667000001" lon="2.003794">
        <ele>335.0</ele>
        <time>2019-06-09T09:18:44+02:00</time>
      </trkpt>
      <trkpt lat="41.70737999999999" lon="2.0038033399999997">
        <ele>335.0</ele>
        <time>2019-06-09T09:18:46+02:00</time>
      </trkpt>
      <trkpt lat="41.70732667" lon="2.0038129999999996">
        <ele>335.0</ele>
        <time>2019-06-09T09:18:48+02:00</time>
      </trkpt>
      <trkpt lat="41.707274999999996" lon="2.00382">
        <ele>335.0</ele>
        <time>2019-06-09T09:18:50+02:00</time>
      </trkpt>
      <trkpt lat="41.707215000000005" lon="2.00382434">
        <ele>335.0</ele>
        <time>2019-06-09T09:18:52+02:00</time>
      </trkpt>
      <trkpt lat="41.70715" lon="2.0038253399999997">
        <ele>335.0</ele>
        <time>2019-06-09T09:18:54+02:00</time>
      </trkpt>
      <trkpt lat="41.707081669999994" lon="2.00382">
        <ele>335.0</ele>
        <time>2019-06-09T09:18:56+02:00</time>
      </trkpt>
      <trkpt lat="41.70700999999999" lon="2.00380667">
        <ele>335.0</ele>
        <time>2019-06-09T09:18:58+02:00</time>
      </trkpt>
      <trkpt lat="41.70694" lon="2.0037876700000004">
        <ele>335.0</ele>
        <time>2019-06-09T09:19:00+02:00</time>
      </trkpt>
      <trkpt lat="41.70686167" lon="2.0037686700000004">
        <ele>335.0</ele>
        <time>2019-06-09T09:19:02+02:00</time>
      </trkpt>
      <trkpt lat="41.706785" lon="2.003757">
        <ele>335.0</ele>
        <time>2019-06-09T09:19:04+02:00</time>
      </trkpt>
      <trkpt lat="41.706716670000006" lon="2.00374467">
        <ele>335.0</ele>
        <time>2019-06-09T09:19:06+02:00</time>
      </trkpt>
      <trkpt lat="41.70665" lon="2.003739">
        <ele>335.0</ele>
        <time>2019-06-09T09:19:08+02:00</time>
      </trkpt>
      <trkpt lat="41.706588339999996" lon="2.0037333399999993">
        <ele>335.0</ele>
        <time>2019-06-09T09:19:10+02:00</time>
      </trkpt>
      <trkpt lat="41.70652667" lon="2.00373134">
        <ele>335.0</ele>
        <time>2019-06-09T09:19:12+02:00</time>
      </trkpt>
      <trkpt lat="41.70646667000001" lon="2.00373367">
        <ele>335.0</ele>
        <time>2019-06-09T09:19:14+02:00</time>
      </trkpt>
      <trkpt lat="41.706408339999996" lon="2.0037333399999993">
        <ele>335.0</ele>
        <time>2019-06-09T09:19:16+02:00</time>
      </trkpt>
      <trkpt lat="41.706358339999994" lon="2.0037363399999997">
        <ele>336.0</ele>
        <time>2019-06-09T09:19:18+02:00</time>
      </trkpt>
      <trkpt lat="41.70630333999999" lon="2.003736">
        <ele>336.0</ele>
        <time>2019-06-09T09:19:20+02:00</time>
      </trkpt>
      <trkpt lat="41.70624334" lon="2.00374">
        <ele>336.0</ele>
        <time>2019-06-09T09:19:22+02:00</time>
      </trkpt>
      <trkpt lat="41.70618" lon="2.0037486700000002">
        <ele>336.0</ele>
        <time>2019-06-09T09:19:24+02:00</time>
      </trkpt>
      <trkpt lat="41.70612" lon="2.003754">
        <ele>336.0</ele>
        <time>2019-06-09T09:19:26+02:00</time>
      </trkpt>
      <trkpt lat="41.706073339999996" lon="2.00375967">
        <ele>336.0</ele>
        <time>2019-06-09T09:19:28+02:00</time>
      </trkpt>
      <trkpt lat="41.706025" lon="2.0037613399999996">
        <ele>336.0</ele>
        <time>2019-06-09T09:19:30+02:00</time>
      </trkpt>
      <trkpt lat="41.70597167000001" lon="2.0037670000000003">
        <ele>336.0</ele>
        <time>2019-06-09T09:19:32+02:00</time>
      </trkpt>
      <trkpt lat="41.70592167000001" lon="2.00377234">
        <ele>336.0</ele>
        <time>2019-06-09T09:19:34+02:00</time>
      </trkpt>
      <trkpt lat="41.705875" lon="2.00377367">
        <ele>336.0</ele>
        <time>2019-06-09T09:19:36+02:00</time>
      </trkpt>
      <trkpt lat="41.70582499999999" lon="2.00377434">
        <ele>337.0</ele>
        <time>2019-06-09T09:19:38+02:00</time>
      </trkpt>
      <trkpt lat="41.705778339999995" lon="2.003775">
        <ele>337.0</ele>
        <time>2019-06-09T09:19:40+02:00</time>
      </trkpt>
      <trkpt lat="41.70573667" lon="2.0037333399999993">
        <ele>337.0</ele>
        <time>2019-06-09T09:19:42+02:00</time>
      </trkpt>
      <trkpt lat="41.70570333999999" lon="2.00367667">
        <ele>337.0</ele>
        <time>2019-06-09T09:19:44+02:00</time>
      </trkpt>
      <trkpt lat="41.70567667" lon="2.0036250000000004">
        <ele>337.0</ele>
        <time>2019-06-09T09:19:46+02:00</time>
      </trkpt>
      <trkpt lat="41.70565834" lon="2.0035700000000003">
        <ele>337.0</ele>
        <time>2019-06-09T09:19:48+02:00</time>
      </trkpt>
      <trkpt lat="41.705645000000004" lon="2.0035033399999995">
        <ele>337.0</ele>
        <time>2019-06-09T09:19:50+02:00</time>
      </trkpt>
      <trkpt lat="41.705633340000006" lon="2.00343167">
        <ele>337.0</ele>
        <time>2019-06-09T09:19:52+02:00</time>
      </trkpt>
      <trkpt lat="41.70562334" lon="2.00335167">
        <ele>337.0</ele>
        <time>2019-06-09T09:19:55+02:00</time>
      </trkpt>
      <trkpt lat="41.70561034000001" lon="2.00329334">
        <ele>337.0</ele>
        <time>2019-06-09T09:19:57+02:00</time>
      </trkpt>
      <trkpt lat="41.70558" lon="2.0032333399999995">
        <ele>337.0</ele>
        <time>2019-06-09T09:20:00+02:00</time>
      </trkpt>
      <trkpt lat="41.70553699999999" lon="2.0031849999999998">
        <ele>338.0</ele>
        <time>2019-06-09T09:20:03+02:00</time>
      </trkpt>
      <trkpt lat="41.705465000000004" lon="2.0031749999999997">
        <ele>338.0</ele>
        <time>2019-06-09T09:20:05+02:00</time>
      </trkpt>
      <trkpt lat="41.705418339999994" lon="2.00318667">
        <ele>338.0</ele>
        <time>2019-06-09T09:20:07+02:00</time>
      </trkpt>
      <trkpt lat="41.70536334" lon="2.0031983399999995">
        <ele>338.0</ele>
        <time>2019-06-09T09:20:10+02:00</time>
      </trkpt>
      <trkpt lat="41.705315" lon="2.00322167">
        <ele>338.0</ele>
        <time>2019-06-09T09:20:13+02:00</time>
      </trkpt>
      <trkpt lat="41.70525834" lon="2.0032433399999996">
        <ele>338.0</ele>
        <time>2019-06-09T09:20:16+02:00</time>
      </trkpt>
      <trkpt lat="41.70520500000001" lon="2.0032583399999995">
        <ele>338.0</ele>
        <time>2019-06-09T09:20:19+02:00</time>
      </trkpt>
      <trkpt lat="41.70515834" lon="2.0032606699999995">
        <ele>338.0</ele>
        <time>2019-06-09T09:20:22+02:00</time>
      </trkpt>
      <trkpt lat="41.705108339999995" lon="2.003275">
        <ele>338.0</ele>
        <time>2019-06-09T09:20:25+02:00</time>
      </trkpt>
      <trkpt lat="41.70505999999999" lon="2.0032829999999997">
        <ele>338.0</ele>
        <time>2019-06-09T09:20:28+02:00</time>
      </trkpt>
      <trkpt lat="41.705015" lon="2.00327334">
        <ele>337.0</ele>
        <time>2019-06-09T09:20:31+02:00</time>
      </trkpt>
      <trkpt lat="41.70496833999999" lon="2.00327467">
        <ele>337.0</ele>
        <time>2019-06-09T09:20:34+02:00</time>
      </trkpt>
      <trkpt lat="41.70491" lon="2.0032693399999997">
        <ele>336.0</ele>
        <time>2019-06-09T09:20:37+02:00</time>
      </trkpt>
      <trkpt lat="41.70485667" lon="2.0032536700000003">
        <ele>335.0</ele>
        <time>2019-06-09T09:20:40+02:00</time>
      </trkpt>
      <trkpt lat="41.70479667000001" lon="2.0032303399999996">
        <ele>335.0</ele>
        <time>2019-06-09T09:20:41+02:00</time>
      </trkpt>
      <trkpt lat="41.70475167000001" lon="2.0032096700000004">
        <ele>335.0</ele>
        <time>2019-06-09T09:20:43+02:00</time>
      </trkpt>
      <trkpt lat="41.70470666999999" lon="2.00318734">
        <ele>335.0</ele>
        <time>2019-06-09T09:20:45+02:00</time>
      </trkpt>
      <trkpt lat="41.70465333999999" lon="2.00316534">
        <ele>335.0</ele>
        <time>2019-06-09T09:20:47+02:00</time>
      </trkpt>
      <trkpt lat="41.704606670000004" lon="2.0031489999999996">
        <ele>335.0</ele>
        <time>2019-06-09T09:20:49+02:00</time>
      </trkpt>
      <trkpt lat="41.704561670000004" lon="2.003165">
        <ele>335.0</ele>
        <time>2019-06-09T09:20:51+02:00</time>
      </trkpt>
      <trkpt lat="41.70450999999999" lon="2.00320667">
        <ele>335.0</ele>
        <time>2019-06-09T09:20:54+02:00</time>
      </trkpt>
      <trkpt lat="41.704463340000004" lon="2.00324667">
        <ele>335.0</ele>
        <time>2019-06-09T09:20:57+02:00</time>
      </trkpt>
      <trkpt lat="41.70441834" lon="2.0032983399999997">
        <ele>335.0</ele>
        <time>2019-06-09T09:21:00+02:00</time>
      </trkpt>
      <trkpt lat="41.70437" lon="2.003343">
        <ele>335.0</ele>
        <time>2019-06-09T09:21:03+02:00</time>
      </trkpt>
      <trkpt lat="41.70431667000001" lon="2.0033790000000002">
        <ele>335.0</ele>
        <time>2019-06-09T09:21:06+02:00</time>
      </trkpt>
      <trkpt lat="41.70426834" lon="2.003399">
        <ele>335.0</ele>
        <time>2019-06-09T09:21:09+02:00</time>
      </trkpt>
      <trkpt lat="41.704208339999994" lon="2.00338834">
        <ele>335.0</ele>
        <time>2019-06-09T09:21:12+02:00</time>
      </trkpt>
      <trkpt lat="41.70414834" lon="2.00340167">
        <ele>335.0</ele>
        <time>2019-06-09T09:21:15+02:00</time>
      </trkpt>
      <trkpt lat="41.70410167" lon="2.003405">
        <ele>335.0</ele>
        <time>2019-06-09T09:21:18+02:00</time>
      </trkpt>
      <trkpt lat="41.70405167" lon="2.0034093399999997">
        <ele>335.0</ele>
        <time>2019-06-09T09:21:21+02:00</time>
      </trkpt>
      <trkpt lat="41.70399999999999" lon="2.0034099999999997">
        <ele>335.0</ele>
        <time>2019-06-09T09:21:24+02:00</time>
      </trkpt>
      <trkpt lat="41.70394834" lon="2.003412">
        <ele>335.0</ele>
        <time>2019-06-09T09:21:27+02:00</time>
      </trkpt>
      <trkpt lat="41.70389333999999" lon="2.0034073400000003">
        <ele>334.0</ele>
        <time>2019-06-09T09:21:30+02:00</time>
      </trkpt>
      <trkpt lat="41.70385" lon="2.0033913399999994">
        <ele>333.0</ele>
        <time>2019-06-09T09:21:33+02:00</time>
      </trkpt>
      <trkpt lat="41.70380999999999" lon="2.00332">
        <ele>333.0</ele>
        <time>2019-06-09T09:21:36+02:00</time>
      </trkpt>
      <trkpt lat="41.70378834" lon="2.00326667">
        <ele>332.0</ele>
        <time>2019-06-09T09:21:39+02:00</time>
      </trkpt>
      <trkpt lat="41.70377167" lon="2.0032033399999998">
        <ele>331.0</ele>
        <time>2019-06-09T09:21:42+02:00</time>
      </trkpt>
      <trkpt lat="41.70374" lon="2.00314334">
        <ele>330.0</ele>
        <time>2019-06-09T09:21:45+02:00</time>
      </trkpt>
      <trkpt lat="41.70371099999999" lon="2.00308167">
        <ele>329.0</ele>
        <time>2019-06-09T09:21:48+02:00</time>
      </trkpt>
      <trkpt lat="41.70367233999999" lon="2.0030316699999995">
        <ele>328.0</ele>
        <time>2019-06-09T09:21:52+02:00</time>
      </trkpt>
      <trkpt lat="41.703615000000006" lon="2.00300167">
        <ele>328.0</ele>
        <time>2019-06-09T09:21:55+02:00</time>
      </trkpt>
      <trkpt lat="41.70355000000001" lon="2.003015">
        <ele>328.0</ele>
        <time>2019-06-09T09:21:59+02:00</time>
      </trkpt>
      <trkpt lat="41.703491670000005" lon="2.00305">
        <ele>328.0</ele>
        <time>2019-06-09T09:22:02+02:00</time>
      </trkpt>
      <trkpt lat="41.70344333999999" lon="2.00311167">
        <ele>328.0</ele>
        <time>2019-06-09T09:22:05+02:00</time>
      </trkpt>
      <trkpt lat="41.70339834" lon="2.0031849999999998">
        <ele>328.0</ele>
        <time>2019-06-09T09:22:08+02:00</time>
      </trkpt>
      <trkpt lat="41.703363339999996" lon="2.0032246700000003">
        <ele>328.0</ele>
        <time>2019-06-09T09:22:10+02:00</time>
      </trkpt>
      <trkpt lat="41.70332833999999" lon="2.00326767">
        <ele>328.0</ele>
        <time>2019-06-09T09:22:12+02:00</time>
      </trkpt>
      <trkpt lat="41.703289999999996" lon="2.0033070000000004">
        <ele>328.0</ele>
        <time>2019-06-09T09:22:14+02:00</time>
      </trkpt>
      <trkpt lat="41.70323500000001" lon="2.00334567">
        <ele>328.0</ele>
        <time>2019-06-09T09:22:17+02:00</time>
      </trkpt>
      <trkpt lat="41.703178339999994" lon="2.00333834">
        <ele>328.0</ele>
        <time>2019-06-09T09:22:20+02:00</time>
      </trkpt>
      <trkpt lat="41.70312667" lon="2.0032983399999997">
        <ele>328.0</ele>
        <time>2019-06-09T09:22:23+02:00</time>
      </trkpt>
      <trkpt lat="41.70309" lon="2.003255">
        <ele>327.0</ele>
        <time>2019-06-09T09:22:25+02:00</time>
      </trkpt>
      <trkpt lat="41.703058340000005" lon="2.0032116699999998">
        <ele>327.0</ele>
        <time>2019-06-09T09:22:27+02:00</time>
      </trkpt>
      <trkpt lat="41.70301334" lon="2.003155">
        <ele>327.0</ele>
        <time>2019-06-09T09:22:30+02:00</time>
      </trkpt>
      <trkpt lat="41.702978339999994" lon="2.00309334">
        <ele>327.0</ele>
        <time>2019-06-09T09:22:33+02:00</time>
      </trkpt>
      <trkpt lat="41.70293667" lon="2.0030333399999996">
        <ele>326.0</ele>
        <time>2019-06-09T09:22:36+02:00</time>
      </trkpt>
      <trkpt lat="41.70289167000001" lon="2.00298">
        <ele>326.0</ele>
        <time>2019-06-09T09:22:39+02:00</time>
      </trkpt>
      <trkpt lat="41.70285167" lon="2.0029283399999995">
        <ele>325.0</ele>
        <time>2019-06-09T09:22:42+02:00</time>
      </trkpt>
      <trkpt lat="41.702815" lon="2.002885">
        <ele>325.0</ele>
        <time>2019-06-09T09:22:45+02:00</time>
      </trkpt>
      <trkpt lat="41.702775" lon="2.00284134">
        <ele>325.0</ele>
        <time>2019-06-09T09:22:48+02:00</time>
      </trkpt>
      <trkpt lat="41.702731670000006" lon="2.0027856699999997">
        <ele>325.0</ele>
        <time>2019-06-09T09:22:52+02:00</time>
      </trkpt>
      <trkpt lat="41.70269167" lon="2.0027483399999997">
        <ele>324.0</ele>
        <time>2019-06-09T09:22:55+02:00</time>
      </trkpt>
      <trkpt lat="41.702645000000004" lon="2.00271367">
        <ele>324.0</ele>
        <time>2019-06-09T09:22:59+02:00</time>
      </trkpt>
      <trkpt lat="41.702585" lon="2.0027133399999997">
        <ele>324.0</ele>
        <time>2019-06-09T09:23:03+02:00</time>
      </trkpt>
      <trkpt lat="41.702531670000006" lon="2.002725">
        <ele>323.0</ele>
        <time>2019-06-09T09:23:06+02:00</time>
      </trkpt>
      <trkpt lat="41.70247667" lon="2.002735">
        <ele>323.0</ele>
        <time>2019-06-09T09:23:10+02:00</time>
      </trkpt>
      <trkpt lat="41.702423339999996" lon="2.00275">
        <ele>322.0</ele>
        <time>2019-06-09T09:23:14+02:00</time>
      </trkpt>
      <trkpt lat="41.702378339999996" lon="2.002765">
        <ele>321.0</ele>
        <time>2019-06-09T09:23:18+02:00</time>
      </trkpt>
      <trkpt lat="41.702325" lon="2.00278">
        <ele>320.0</ele>
        <time>2019-06-09T09:23:22+02:00</time>
      </trkpt>
      <trkpt lat="41.70227000000001" lon="2.002796">
        <ele>319.0</ele>
        <time>2019-06-09T09:23:26+02:00</time>
      </trkpt>
      <trkpt lat="41.702216670000006" lon="2.00278">
        <ele>319.0</ele>
        <time>2019-06-09T09:23:30+02:00</time>
      </trkpt>
      <trkpt lat="41.702169999999995" lon="2.0027933399999998">
        <ele>318.0</ele>
        <time>2019-06-09T09:23:34+02:00</time>
      </trkpt>
      <trkpt lat="41.70211667" lon="2.0028200000000003">
        <ele>317.0</ele>
        <time>2019-06-09T09:23:39+02:00</time>
      </trkpt>
      <trkpt lat="41.70207167" lon="2.0028513400000003">
        <ele>316.0</ele>
        <time>2019-06-09T09:23:43+02:00</time>
      </trkpt>
      <trkpt lat="41.70203667" lon="2.00289">
        <ele>315.0</ele>
        <time>2019-06-09T09:23:47+02:00</time>
      </trkpt>
      <trkpt lat="41.70199834" lon="2.0029483399999997">
        <ele>313.0</ele>
        <time>2019-06-09T09:23:52+02:00</time>
      </trkpt>
      <trkpt lat="41.70195834" lon="2.00300667">
        <ele>313.0</ele>
        <time>2019-06-09T09:23:56+02:00</time>
      </trkpt>
      <trkpt lat="41.70191833999999" lon="2.00303834">
        <ele>312.0</ele>
        <time>2019-06-09T09:23:59+02:00</time>
      </trkpt>
      <trkpt lat="41.70186834" lon="2.0030366699999997">
        <ele>311.0</ele>
        <time>2019-06-09T09:24:03+02:00</time>
      </trkpt>
      <trkpt lat="41.701815" lon="2.0030266699999997">
        <ele>309.0</ele>
        <time>2019-06-09T09:24:07+02:00</time>
      </trkpt>
      <trkpt lat="41.70176334" lon="2.0029950000000003">
        <ele>307.0</ele>
        <time>2019-06-09T09:24:11+02:00</time>
      </trkpt>
      <trkpt lat="41.701713340000005" lon="2.00295667">
        <ele>306.0</ele>
        <time>2019-06-09T09:24:15+02:00</time>
      </trkpt>
      <trkpt lat="41.70166834" lon="2.00290667">
        <ele>304.0</ele>
        <time>2019-06-09T09:24:19+02:00</time>
      </trkpt>
      <trkpt lat="41.70162834" lon="2.0028533399999997">
        <ele>303.0</ele>
        <time>2019-06-09T09:24:23+02:00</time>
      </trkpt>
      <trkpt lat="41.701586670000005" lon="2.00280367">
        <ele>302.0</ele>
        <time>2019-06-09T09:24:27+02:00</time>
      </trkpt>
      <trkpt lat="41.70154334" lon="2.00276034">
        <ele>301.0</ele>
        <time>2019-06-09T09:24:31+02:00</time>
      </trkpt>
      <trkpt lat="41.70149334" lon="2.002719">
        <ele>299.0</ele>
        <time>2019-06-09T09:24:35+02:00</time>
      </trkpt>
      <trkpt lat="41.70144834" lon="2.0026906700000002">
        <ele>298.0</ele>
        <time>2019-06-09T09:24:38+02:00</time>
      </trkpt>
      <trkpt lat="41.70140167000001" lon="2.00267267">
        <ele>298.0</ele>
        <time>2019-06-09T09:24:41+02:00</time>
      </trkpt>
      <trkpt lat="41.701350000000005" lon="2.0026626700000003">
        <ele>298.0</ele>
        <time>2019-06-09T09:24:44+02:00</time>
      </trkpt>
      <trkpt lat="41.70129333999999" lon="2.0027033399999996">
        <ele>297.0</ele>
        <time>2019-06-09T09:24:47+02:00</time>
      </trkpt>
      <trkpt lat="41.70124834" lon="2.00272467">
        <ele>297.0</ele>
        <time>2019-06-09T09:24:50+02:00</time>
      </trkpt>
      <trkpt lat="41.701165" lon="2.00276834">
        <ele>297.0</ele>
        <time>2019-06-09T09:24:53+02:00</time>
      </trkpt>
      <trkpt lat="41.701121670000006" lon="2.00280334">
        <ele>297.0</ele>
        <time>2019-06-09T09:24:57+02:00</time>
      </trkpt>
      <trkpt lat="41.70108334" lon="2.0028379999999997">
        <ele>297.0</ele>
        <time>2019-06-09T09:25:00+02:00</time>
      </trkpt>
      <trkpt lat="41.70104167000001" lon="2.0028650000000003">
        <ele>297.0</ele>
        <time>2019-06-09T09:25:03+02:00</time>
      </trkpt>
      <trkpt lat="41.701001670000004" lon="2.00289234">
        <ele>297.0</ele>
        <time>2019-06-09T09:25:07+02:00</time>
      </trkpt>
      <trkpt lat="41.70096334" lon="2.0029220000000003">
        <ele>297.0</ele>
        <time>2019-06-09T09:25:10+02:00</time>
      </trkpt>
      <trkpt lat="41.70091834" lon="2.0029483399999997">
        <ele>297.0</ele>
        <time>2019-06-09T09:25:13+02:00</time>
      </trkpt>
      <trkpt lat="41.70086834" lon="2.0029810000000006">
        <ele>297.0</ele>
        <time>2019-06-09T09:25:17+02:00</time>
      </trkpt>
      <trkpt lat="41.70082167" lon="2.0030120000000005">
        <ele>297.0</ele>
        <time>2019-06-09T09:25:20+02:00</time>
      </trkpt>
      <trkpt lat="41.70077667" lon="2.003047">
        <ele>297.0</ele>
        <time>2019-06-09T09:25:25+02:00</time>
      </trkpt>
      <trkpt lat="41.70073834" lon="2.003095">
        <ele>297.0</ele>
        <time>2019-06-09T09:25:29+02:00</time>
      </trkpt>
      <trkpt lat="41.700691670000005" lon="2.0031349999999994">
        <ele>297.0</ele>
        <time>2019-06-09T09:25:34+02:00</time>
      </trkpt>
      <trkpt lat="41.700645" lon="2.00312834">
        <ele>297.0</ele>
        <time>2019-06-09T09:25:38+02:00</time>
      </trkpt>
      <trkpt lat="41.700626670000005" lon="2.00307">
        <ele>297.0</ele>
        <time>2019-06-09T09:25:41+02:00</time>
      </trkpt>
      <trkpt lat="41.70064167" lon="2.0029933399999997">
        <ele>297.0</ele>
        <time>2019-06-09T09:25:45+02:00</time>
      </trkpt>
      <trkpt lat="41.70066167" lon="2.00293">
        <ele>297.0</ele>
        <time>2019-06-09T09:25:49+02:00</time>
      </trkpt>
      <trkpt lat="41.700651670000006" lon="2.00285667">
        <ele>296.0</ele>
        <time>2019-06-09T09:25:53+02:00</time>
      </trkpt>
      <trkpt lat="41.700631" lon="2.00280667">
        <ele>296.0</ele>
        <time>2019-06-09T09:25:56+02:00</time>
      </trkpt>
      <trkpt lat="41.70060767" lon="2.002745">
        <ele>296.0</ele>
        <time>2019-06-09T09:25:59+02:00</time>
      </trkpt>
      <trkpt lat="41.700587670000004" lon="2.0026900000000003">
        <ele>295.0</ele>
        <time>2019-06-09T09:26:02+02:00</time>
      </trkpt>
      <trkpt lat="41.70053" lon="2.00265">
        <ele>295.0</ele>
        <time>2019-06-09T09:26:05+02:00</time>
      </trkpt>
      <trkpt lat="41.70047667000001" lon="2.0026400000000004">
        <ele>295.0</ele>
        <time>2019-06-09T09:26:07+02:00</time>
      </trkpt>
      <trkpt lat="41.700403339999994" lon="2.0026349999999997">
        <ele>295.0</ele>
        <time>2019-06-09T09:26:09+02:00</time>
      </trkpt>
      <trkpt lat="41.70033" lon="2.0025716699999996">
        <ele>296.0</ele>
        <time>2019-06-09T09:26:11+02:00</time>
      </trkpt>
      <trkpt lat="41.70028167" lon="2.0025349999999995">
        <ele>296.0</ele>
        <time>2019-06-09T09:26:12+02:00</time>
      </trkpt>
      <trkpt lat="41.700236669999995" lon="2.00249367">
        <ele>296.0</ele>
        <time>2019-06-09T09:26:13+02:00</time>
      </trkpt>
      <trkpt lat="41.70019167" lon="2.00244667">
        <ele>296.0</ele>
        <time>2019-06-09T09:26:14+02:00</time>
      </trkpt>
      <trkpt lat="41.70014167000001" lon="2.00239367">
        <ele>297.0</ele>
        <time>2019-06-09T09:26:15+02:00</time>
      </trkpt>
      <trkpt lat="41.700083340000006" lon="2.0023310000000003">
        <ele>297.0</ele>
        <time>2019-06-09T09:26:16+02:00</time>
      </trkpt>
      <trkpt lat="41.70003167000001" lon="2.00227">
        <ele>298.0</ele>
        <time>2019-06-09T09:26:17+02:00</time>
      </trkpt>
      <trkpt lat="41.69992334" lon="2.002153">
        <ele>298.0</ele>
        <time>2019-06-09T09:26:18+02:00</time>
      </trkpt>
      <trkpt lat="41.699875000000006" lon="2.002078">
        <ele>299.0</ele>
        <time>2019-06-09T09:26:19+02:00</time>
      </trkpt>
      <trkpt lat="41.69982167" lon="2.00199034">
        <ele>299.0</ele>
        <time>2019-06-09T09:26:20+02:00</time>
      </trkpt>
      <trkpt lat="41.69977000000001" lon="2.0019053399999995">
        <ele>300.0</ele>
        <time>2019-06-09T09:26:21+02:00</time>
      </trkpt>
      <trkpt lat="41.69972" lon="2.00183434">
        <ele>300.0</ele>
        <time>2019-06-09T09:26:22+02:00</time>
      </trkpt>
      <trkpt lat="41.699655" lon="2.00176334">
        <ele>301.0</ele>
        <time>2019-06-09T09:26:23+02:00</time>
      </trkpt>
      <trkpt lat="41.699598339999994" lon="2.00172167">
        <ele>301.0</ele>
        <time>2019-06-09T09:26:24+02:00</time>
      </trkpt>
      <trkpt lat="41.69952334" lon="2.00184667">
        <ele>303.0</ele>
        <time>2019-06-09T09:26:25+02:00</time>
      </trkpt>
      <trkpt lat="41.69946334" lon="2.001875">
        <ele>303.0</ele>
        <time>2019-06-09T09:26:26+02:00</time>
      </trkpt>
      <trkpt lat="41.699415" lon="2.0019466699999997">
        <ele>304.0</ele>
        <time>2019-06-09T09:26:27+02:00</time>
      </trkpt>
      <trkpt lat="41.69936667" lon="2.0020033399999995">
        <ele>304.0</ele>
        <time>2019-06-09T09:26:28+02:00</time>
      </trkpt>
      <trkpt lat="41.699318340000005" lon="2.00205667">
        <ele>305.0</ele>
        <time>2019-06-09T09:26:29+02:00</time>
      </trkpt>
      <trkpt lat="41.699286670000006" lon="2.00211967">
        <ele>305.0</ele>
        <time>2019-06-09T09:26:30+02:00</time>
      </trkpt>
      <trkpt lat="41.69923667" lon="2.002149">
        <ele>306.0</ele>
        <time>2019-06-09T09:26:31+02:00</time>
      </trkpt>
      <trkpt lat="41.699183340000005" lon="2.00215467">
        <ele>306.0</ele>
        <time>2019-06-09T09:26:32+02:00</time>
      </trkpt>
      <trkpt lat="41.699133339999996" lon="2.0021556699999996">
        <ele>306.0</ele>
        <time>2019-06-09T09:26:33+02:00</time>
      </trkpt>
      <trkpt lat="41.69905167" lon="2.0021416699999994">
        <ele>307.0</ele>
        <time>2019-06-09T09:26:35+02:00</time>
      </trkpt>
      <trkpt lat="41.698973339999995" lon="2.00207667">
        <ele>308.0</ele>
        <time>2019-06-09T09:26:37+02:00</time>
      </trkpt>
      <trkpt lat="41.698930000000004" lon="2.00205667">
        <ele>308.0</ele>
        <time>2019-06-09T09:26:38+02:00</time>
      </trkpt>
      <trkpt lat="41.698881670000006" lon="2.00203667">
        <ele>308.0</ele>
        <time>2019-06-09T09:26:39+02:00</time>
      </trkpt>
      <trkpt lat="41.698834999999995" lon="2.0020113399999997">
        <ele>309.0</ele>
        <time>2019-06-09T09:26:40+02:00</time>
      </trkpt>
      <trkpt lat="41.698785" lon="2.0019870000000006">
        <ele>309.0</ele>
        <time>2019-06-09T09:26:41+02:00</time>
      </trkpt>
      <trkpt lat="41.698733340000004" lon="2.00196167">
        <ele>309.0</ele>
        <time>2019-06-09T09:26:42+02:00</time>
      </trkpt>
      <trkpt lat="41.69868667000001" lon="2.0019326699999995">
        <ele>310.0</ele>
        <time>2019-06-09T09:26:43+02:00</time>
      </trkpt>
      <trkpt lat="41.698643340000004" lon="2.00190067">
        <ele>310.0</ele>
        <time>2019-06-09T09:26:44+02:00</time>
      </trkpt>
      <trkpt lat="41.69860834" lon="2.00186934">
        <ele>310.0</ele>
        <time>2019-06-09T09:26:45+02:00</time>
      </trkpt>
      <trkpt lat="41.69854334" lon="2.0017783399999995">
        <ele>311.0</ele>
        <time>2019-06-09T09:26:47+02:00</time>
      </trkpt>
      <trkpt lat="41.698476670000005" lon="2.00171834">
        <ele>311.0</ele>
        <time>2019-06-09T09:26:49+02:00</time>
      </trkpt>
      <trkpt lat="41.69840167" lon="2.001693">
        <ele>312.0</ele>
        <time>2019-06-09T09:26:51+02:00</time>
      </trkpt>
      <trkpt lat="41.698316670000004" lon="2.0017283399999997">
        <ele>312.0</ele>
        <time>2019-06-09T09:26:53+02:00</time>
      </trkpt>
      <trkpt lat="41.698271670000004" lon="2.00176">
        <ele>313.0</ele>
        <time>2019-06-09T09:26:54+02:00</time>
      </trkpt>
      <trkpt lat="41.69822333999999" lon="2.00179334">
        <ele>313.0</ele>
        <time>2019-06-09T09:26:55+02:00</time>
      </trkpt>
      <trkpt lat="41.698168339999995" lon="2.00182167">
        <ele>313.0</ele>
        <time>2019-06-09T09:26:56+02:00</time>
      </trkpt>
      <trkpt lat="41.69811" lon="2.0018363399999997">
        <ele>313.0</ele>
        <time>2019-06-09T09:26:57+02:00</time>
      </trkpt>
      <trkpt lat="41.69805667000001" lon="2.001832">
        <ele>313.0</ele>
        <time>2019-06-09T09:26:58+02:00</time>
      </trkpt>
      <trkpt lat="41.698004999999995" lon="2.0018079999999996">
        <ele>313.0</ele>
        <time>2019-06-09T09:26:59+02:00</time>
      </trkpt>
      <trkpt lat="41.69796334000001" lon="2.0017693399999996">
        <ele>314.0</ele>
        <time>2019-06-09T09:27:00+02:00</time>
      </trkpt>
      <trkpt lat="41.69792334" lon="2.0016766699999997">
        <ele>314.0</ele>
        <time>2019-06-09T09:27:01+02:00</time>
      </trkpt>
      <trkpt lat="41.697886669999995" lon="2.00161167">
        <ele>314.0</ele>
        <time>2019-06-09T09:27:02+02:00</time>
      </trkpt>
      <trkpt lat="41.69785" lon="2.00155">
        <ele>314.0</ele>
        <time>2019-06-09T09:27:03+02:00</time>
      </trkpt>
      <trkpt lat="41.697801670000004" lon="2.00148667">
        <ele>314.0</ele>
        <time>2019-06-09T09:27:04+02:00</time>
      </trkpt>
      <trkpt lat="41.69774834" lon="2.00142167">
        <ele>315.0</ele>
        <time>2019-06-09T09:27:05+02:00</time>
      </trkpt>
      <trkpt lat="41.697695" lon="2.0013579999999997">
        <ele>315.0</ele>
        <time>2019-06-09T09:27:06+02:00</time>
      </trkpt>
      <trkpt lat="41.69760333999999" lon="2.00126334">
        <ele>315.0</ele>
        <time>2019-06-09T09:27:07+02:00</time>
      </trkpt>
      <trkpt lat="41.69752834" lon="2.0011933399999995">
        <ele>315.0</ele>
        <time>2019-06-09T09:27:08+02:00</time>
      </trkpt>
      <trkpt lat="41.69748" lon="2.00115234">
        <ele>315.0</ele>
        <time>2019-06-09T09:27:09+02:00</time>
      </trkpt>
      <trkpt lat="41.697430000000004" lon="2.00111634">
        <ele>315.0</ele>
        <time>2019-06-09T09:27:10+02:00</time>
      </trkpt>
      <trkpt lat="41.697379999999995" lon="2.00110067">
        <ele>316.0</ele>
        <time>2019-06-09T09:27:11+02:00</time>
      </trkpt>
      <trkpt lat="41.697336670000006" lon="2.00110034">
        <ele>316.0</ele>
        <time>2019-06-09T09:27:12+02:00</time>
      </trkpt>
      <trkpt lat="41.697300000000006" lon="2.0012233399999997">
        <ele>317.0</ele>
        <time>2019-06-09T09:27:14+02:00</time>
      </trkpt>
      <trkpt lat="41.697275000000005" lon="2.001295">
        <ele>318.0</ele>
        <time>2019-06-09T09:27:16+02:00</time>
      </trkpt>
      <trkpt lat="41.69723167" lon="2.00139334">
        <ele>318.0</ele>
        <time>2019-06-09T09:27:18+02:00</time>
      </trkpt>
      <trkpt lat="41.697201670000005" lon="2.0014416699999997">
        <ele>319.0</ele>
        <time>2019-06-09T09:27:19+02:00</time>
      </trkpt>
      <trkpt lat="41.69713334" lon="2.0015229999999997">
        <ele>319.0</ele>
        <time>2019-06-09T09:27:21+02:00</time>
      </trkpt>
      <trkpt lat="41.69709667000001" lon="2.00156034">
        <ele>320.0</ele>
        <time>2019-06-09T09:27:22+02:00</time>
      </trkpt>
      <trkpt lat="41.69705834" lon="2.001595">
        <ele>320.0</ele>
        <time>2019-06-09T09:27:23+02:00</time>
      </trkpt>
      <trkpt lat="41.69701833999999" lon="2.00162834">
        <ele>320.0</ele>
        <time>2019-06-09T09:27:24+02:00</time>
      </trkpt>
      <trkpt lat="41.69694834" lon="2.00168767">
        <ele>321.0</ele>
        <time>2019-06-09T09:27:26+02:00</time>
      </trkpt>
      <trkpt lat="41.69689" lon="2.0017406699999998">
        <ele>322.0</ele>
        <time>2019-06-09T09:27:28+02:00</time>
      </trkpt>
      <trkpt lat="41.696835" lon="2.00179234">
        <ele>322.0</ele>
        <time>2019-06-09T09:27:30+02:00</time>
      </trkpt>
      <trkpt lat="41.696774999999995" lon="2.00183134">
        <ele>323.0</ele>
        <time>2019-06-09T09:27:32+02:00</time>
      </trkpt>
      <trkpt lat="41.69672167" lon="2.00182">
        <ele>323.0</ele>
        <time>2019-06-09T09:27:34+02:00</time>
      </trkpt>
      <trkpt lat="41.69667167000001" lon="2.00183167">
        <ele>324.0</ele>
        <time>2019-06-09T09:27:36+02:00</time>
      </trkpt>
      <trkpt lat="41.69662167" lon="2.00184967">
        <ele>324.0</ele>
        <time>2019-06-09T09:27:38+02:00</time>
      </trkpt>
      <trkpt lat="41.69657" lon="2.001899">
        <ele>324.0</ele>
        <time>2019-06-09T09:27:41+02:00</time>
      </trkpt>
      <trkpt lat="41.69654167" lon="2.00196167">
        <ele>324.0</ele>
        <time>2019-06-09T09:27:43+02:00</time>
      </trkpt>
      <trkpt lat="41.696515" lon="2.0020266700000002">
        <ele>325.0</ele>
        <time>2019-06-09T09:27:45+02:00</time>
      </trkpt>
      <trkpt lat="41.69649167000001" lon="2.0020783399999997">
        <ele>325.0</ele>
        <time>2019-06-09T09:27:47+02:00</time>
      </trkpt>
      <trkpt lat="41.696475" lon="2.0021533399999996">
        <ele>326.0</ele>
        <time>2019-06-09T09:27:50+02:00</time>
      </trkpt>
      <trkpt lat="41.69645834" lon="2.0022150000000005">
        <ele>326.0</ele>
        <time>2019-06-09T09:27:53+02:00</time>
      </trkpt>
      <trkpt lat="41.69642133999999" lon="2.0022849999999996">
        <ele>326.0</ele>
        <time>2019-06-09T09:27:56+02:00</time>
      </trkpt>
      <trkpt lat="41.696386000000004" lon="2.002345">
        <ele>326.0</ele>
        <time>2019-06-09T09:27:59+02:00</time>
      </trkpt>
      <trkpt lat="41.696346340000005" lon="2.00239334">
        <ele>325.0</ele>
        <time>2019-06-09T09:28:02+02:00</time>
      </trkpt>
      <trkpt lat="41.696309339999985" lon="2.00244667">
        <ele>325.0</ele>
        <time>2019-06-09T09:28:05+02:00</time>
      </trkpt>
      <trkpt lat="41.696270670000004" lon="2.00249834">
        <ele>324.0</ele>
        <time>2019-06-09T09:28:08+02:00</time>
      </trkpt>
      <trkpt lat="41.696237999999994" lon="2.00254334">
        <ele>323.0</ele>
        <time>2019-06-09T09:28:10+02:00</time>
      </trkpt>
      <trkpt lat="41.69619433999999" lon="2.0026083399999997">
        <ele>323.0</ele>
        <time>2019-06-09T09:28:13+02:00</time>
      </trkpt>
      <trkpt lat="41.69615433999999" lon="2.0026783399999997">
        <ele>323.0</ele>
        <time>2019-06-09T09:28:16+02:00</time>
      </trkpt>
      <trkpt lat="41.696151670000006" lon="2.00275334">
        <ele>323.0</ele>
        <time>2019-06-09T09:28:19+02:00</time>
      </trkpt>
      <trkpt lat="41.69613167000001" lon="2.00282334">
        <ele>322.0</ele>
        <time>2019-06-09T09:28:22+02:00</time>
      </trkpt>
      <trkpt lat="41.696121340000005" lon="2.0029033399999996">
        <ele>321.0</ele>
        <time>2019-06-09T09:28:25+02:00</time>
      </trkpt>
      <trkpt lat="41.69611034" lon="2.0029816699999996">
        <ele>320.0</ele>
        <time>2019-06-09T09:28:28+02:00</time>
      </trkpt>
      <trkpt lat="41.696097339999994" lon="2.0030416699999996">
        <ele>319.0</ele>
        <time>2019-06-09T09:28:30+02:00</time>
      </trkpt>
      <trkpt lat="41.696073" lon="2.0030900000000003">
        <ele>319.0</ele>
        <time>2019-06-09T09:28:32+02:00</time>
      </trkpt>
      <trkpt lat="41.69599167" lon="2.00312">
        <ele>318.0</ele>
        <time>2019-06-09T09:28:34+02:00</time>
      </trkpt>
      <trkpt lat="41.695915" lon="2.00314">
        <ele>318.0</ele>
        <time>2019-06-09T09:28:36+02:00</time>
      </trkpt>
      <trkpt lat="41.69583167" lon="2.0031533399999994">
        <ele>318.0</ele>
        <time>2019-06-09T09:28:38+02:00</time>
      </trkpt>
      <trkpt lat="41.695753339999996" lon="2.00319134">
        <ele>318.0</ele>
        <time>2019-06-09T09:28:40+02:00</time>
      </trkpt>
      <trkpt lat="41.69568334" lon="2.00323">
        <ele>318.0</ele>
        <time>2019-06-09T09:28:42+02:00</time>
      </trkpt>
      <trkpt lat="41.69561167" lon="2.0032783399999996">
        <ele>318.0</ele>
        <time>2019-06-09T09:28:44+02:00</time>
      </trkpt>
      <trkpt lat="41.69553667" lon="2.00332067">
        <ele>318.0</ele>
        <time>2019-06-09T09:28:46+02:00</time>
      </trkpt>
      <trkpt lat="41.695455" lon="2.0033443399999995">
        <ele>318.0</ele>
        <time>2019-06-09T09:28:48+02:00</time>
      </trkpt>
      <trkpt lat="41.69537167" lon="2.0033066699999997">
        <ele>318.0</ele>
        <time>2019-06-09T09:28:50+02:00</time>
      </trkpt>
      <trkpt lat="41.695323339999995" lon="2.0032966699999997">
        <ele>318.0</ele>
        <time>2019-06-09T09:28:51+02:00</time>
      </trkpt>
      <trkpt lat="41.695275" lon="2.00329334">
        <ele>318.0</ele>
        <time>2019-06-09T09:28:52+02:00</time>
      </trkpt>
      <trkpt lat="41.69522" lon="2.0032943399999996">
        <ele>318.0</ele>
        <time>2019-06-09T09:28:53+02:00</time>
      </trkpt>
      <trkpt lat="41.695164999999996" lon="2.0033">
        <ele>319.0</ele>
        <time>2019-06-09T09:28:54+02:00</time>
      </trkpt>
      <trkpt lat="41.695105" lon="2.00331567">
        <ele>319.0</ele>
        <time>2019-06-09T09:28:55+02:00</time>
      </trkpt>
      <trkpt lat="41.695046669999996" lon="2.003336">
        <ele>319.0</ele>
        <time>2019-06-09T09:28:56+02:00</time>
      </trkpt>
      <trkpt lat="41.694988339999995" lon="2.00335934">
        <ele>319.0</ele>
        <time>2019-06-09T09:28:57+02:00</time>
      </trkpt>
      <trkpt lat="41.69493000000001" lon="2.003383">
        <ele>320.0</ele>
        <time>2019-06-09T09:28:58+02:00</time>
      </trkpt>
      <trkpt lat="41.694873339999994" lon="2.0034046699999997">
        <ele>320.0</ele>
        <time>2019-06-09T09:28:59+02:00</time>
      </trkpt>
      <trkpt lat="41.69481667000001" lon="2.0034256699999995">
        <ele>320.0</ele>
        <time>2019-06-09T09:29:00+02:00</time>
      </trkpt>
      <trkpt lat="41.69476833999999" lon="2.00344267">
        <ele>321.0</ele>
        <time>2019-06-09T09:29:01+02:00</time>
      </trkpt>
      <trkpt lat="41.69472334" lon="2.003457">
        <ele>321.0</ele>
        <time>2019-06-09T09:29:02+02:00</time>
      </trkpt>
      <trkpt lat="41.69466334" lon="2.00347034">
        <ele>322.0</ele>
        <time>2019-06-09T09:29:04+02:00</time>
      </trkpt>
      <trkpt lat="41.69462334" lon="2.0034166699999996">
        <ele>323.0</ele>
        <time>2019-06-09T09:29:06+02:00</time>
      </trkpt>
      <trkpt lat="41.69461834" lon="2.003335">
        <ele>324.0</ele>
        <time>2019-06-09T09:29:08+02:00</time>
      </trkpt>
      <trkpt lat="41.69464834" lon="2.003265">
        <ele>325.0</ele>
        <time>2019-06-09T09:29:09+02:00</time>
      </trkpt>
      <trkpt lat="41.69469" lon="2.00320667">
        <ele>325.0</ele>
        <time>2019-06-09T09:29:11+02:00</time>
      </trkpt>
      <trkpt lat="41.694738339999994" lon="2.003145">
        <ele>325.0</ele>
        <time>2019-06-09T09:29:13+02:00</time>
      </trkpt>
      <trkpt lat="41.69477833999999" lon="2.0031016700000004">
        <ele>326.0</ele>
        <time>2019-06-09T09:29:14+02:00</time>
      </trkpt>
      <trkpt lat="41.69484334" lon="2.0030183399999997">
        <ele>326.0</ele>
        <time>2019-06-09T09:29:16+02:00</time>
      </trkpt>
      <trkpt lat="41.69492" lon="2.0029316699999997">
        <ele>327.0</ele>
        <time>2019-06-09T09:29:18+02:00</time>
      </trkpt>
      <trkpt lat="41.69496334" lon="2.002885">
        <ele>327.0</ele>
        <time>2019-06-09T09:29:19+02:00</time>
      </trkpt>
      <trkpt lat="41.695013" lon="2.00284">
        <ele>327.0</ele>
        <time>2019-06-09T09:29:20+02:00</time>
      </trkpt>
      <trkpt lat="41.69507" lon="2.0027999999999997">
        <ele>328.0</ele>
        <time>2019-06-09T09:29:21+02:00</time>
      </trkpt>
      <trkpt lat="41.69513667" lon="2.0027483399999997">
        <ele>328.0</ele>
        <time>2019-06-09T09:29:22+02:00</time>
      </trkpt>
      <trkpt lat="41.69518" lon="2.002711">
        <ele>328.0</ele>
        <time>2019-06-09T09:29:23+02:00</time>
      </trkpt>
      <trkpt lat="41.695225" lon="2.0026626700000003">
        <ele>328.0</ele>
        <time>2019-06-09T09:29:24+02:00</time>
      </trkpt>
      <trkpt lat="41.695275" lon="2.0026066699999996">
        <ele>329.0</ele>
        <time>2019-06-09T09:29:25+02:00</time>
      </trkpt>
      <trkpt lat="41.695315" lon="2.0025496699999996">
        <ele>329.0</ele>
        <time>2019-06-09T09:29:26+02:00</time>
      </trkpt>
      <trkpt lat="41.69535667" lon="2.0024856699999996">
        <ele>329.0</ele>
        <time>2019-06-09T09:29:27+02:00</time>
      </trkpt>
      <trkpt lat="41.695398340000004" lon="2.0024183399999997">
        <ele>330.0</ele>
        <time>2019-06-09T09:29:28+02:00</time>
      </trkpt>
      <trkpt lat="41.695443340000004" lon="2.0023489999999997">
        <ele>330.0</ele>
        <time>2019-06-09T09:29:29+02:00</time>
      </trkpt>
      <trkpt lat="41.695501670000006" lon="2.00226334">
        <ele>332.0</ele>
        <time>2019-06-09T09:29:30+02:00</time>
      </trkpt>
      <trkpt lat="41.69555167" lon="2.00217667">
        <ele>332.0</ele>
        <time>2019-06-09T09:29:31+02:00</time>
      </trkpt>
      <trkpt lat="41.695595000000004" lon="2.00212">
        <ele>333.0</ele>
        <time>2019-06-09T09:29:32+02:00</time>
      </trkpt>
      <trkpt lat="41.69564433999999" lon="2.00204">
        <ele>333.0</ele>
        <time>2019-06-09T09:29:33+02:00</time>
      </trkpt>
      <trkpt lat="41.695695670000006" lon="2.0019583399999994">
        <ele>333.0</ele>
        <time>2019-06-09T09:29:34+02:00</time>
      </trkpt>
      <trkpt lat="41.69575734" lon="2.00185667">
        <ele>334.0</ele>
        <time>2019-06-09T09:29:35+02:00</time>
      </trkpt>
      <trkpt lat="41.69579967" lon="2.0017816699999997">
        <ele>334.0</ele>
        <time>2019-06-09T09:29:36+02:00</time>
      </trkpt>
      <trkpt lat="41.69585267000001" lon="2.0016883400000003">
        <ele>335.0</ele>
        <time>2019-06-09T09:29:37+02:00</time>
      </trkpt>
      <trkpt lat="41.695917339999994" lon="2.0015783399999996">
        <ele>335.0</ele>
        <time>2019-06-09T09:29:38+02:00</time>
      </trkpt>
      <trkpt lat="41.69596867" lon="2.0014849999999997">
        <ele>335.0</ele>
        <time>2019-06-09T09:29:39+02:00</time>
      </trkpt>
      <trkpt lat="41.69600799999999" lon="2.00141167">
        <ele>336.0</ele>
        <time>2019-06-09T09:29:40+02:00</time>
      </trkpt>
      <trkpt lat="41.69606234" lon="2.00130167">
        <ele>336.0</ele>
        <time>2019-06-09T09:29:41+02:00</time>
      </trkpt>
      <trkpt lat="41.69609267" lon="2.0012333399999997">
        <ele>336.0</ele>
        <time>2019-06-09T09:29:42+02:00</time>
      </trkpt>
      <trkpt lat="41.69612434" lon="2.0011516699999996">
        <ele>337.0</ele>
        <time>2019-06-09T09:29:43+02:00</time>
      </trkpt>
      <trkpt lat="41.69615266999999" lon="2.0010700000000003">
        <ele>337.0</ele>
        <time>2019-06-09T09:29:44+02:00</time>
      </trkpt>
      <trkpt lat="41.696166000000005" lon="2.0010066699999998">
        <ele>337.0</ele>
        <time>2019-06-09T09:29:45+02:00</time>
      </trkpt>
      <trkpt lat="41.69604" lon="2.0009333399999996">
        <ele>338.0</ele>
        <time>2019-06-09T09:29:47+02:00</time>
      </trkpt>
      <trkpt lat="41.69596334" lon="2.00090667">
        <ele>338.0</ele>
        <time>2019-06-09T09:29:49+02:00</time>
      </trkpt>
      <trkpt lat="41.69587167000001" lon="2.00088167">
        <ele>339.0</ele>
        <time>2019-06-09T09:29:51+02:00</time>
      </trkpt>
      <trkpt lat="41.69582334" lon="2.0008666699999997">
        <ele>339.0</ele>
        <time>2019-06-09T09:29:52+02:00</time>
      </trkpt>
      <trkpt lat="41.695771670000006" lon="2.0008483399999997">
        <ele>340.0</ele>
        <time>2019-06-09T09:29:53+02:00</time>
      </trkpt>
      <trkpt lat="41.695713340000005" lon="2.000825">
        <ele>340.0</ele>
        <time>2019-06-09T09:29:54+02:00</time>
      </trkpt>
      <trkpt lat="41.695638339999995" lon="2.0007966699999997">
        <ele>341.0</ele>
        <time>2019-06-09T09:29:56+02:00</time>
      </trkpt>
      <trkpt lat="41.695565" lon="2.0007766699999996">
        <ele>341.0</ele>
        <time>2019-06-09T09:29:58+02:00</time>
      </trkpt>
      <trkpt lat="41.69549167" lon="2.0007539999999997">
        <ele>342.0</ele>
        <time>2019-06-09T09:30:00+02:00</time>
      </trkpt>
      <trkpt lat="41.69542167000001" lon="2.000731">
        <ele>342.0</ele>
        <time>2019-06-09T09:30:02+02:00</time>
      </trkpt>
      <trkpt lat="41.69536" lon="2.00071267">
        <ele>343.0</ele>
        <time>2019-06-09T09:30:04+02:00</time>
      </trkpt>
      <trkpt lat="41.69530167" lon="2.00069467">
        <ele>343.0</ele>
        <time>2019-06-09T09:30:06+02:00</time>
      </trkpt>
      <trkpt lat="41.69524667" lon="2.0006833399999997">
        <ele>343.0</ele>
        <time>2019-06-09T09:30:08+02:00</time>
      </trkpt>
      <trkpt lat="41.69519167" lon="2.0006773399999997">
        <ele>343.0</ele>
        <time>2019-06-09T09:30:10+02:00</time>
      </trkpt>
      <trkpt lat="41.69513167" lon="2.0006743399999998">
        <ele>343.0</ele>
        <time>2019-06-09T09:30:12+02:00</time>
      </trkpt>
      <trkpt lat="41.695051670000005" lon="2.00067534">
        <ele>343.0</ele>
        <time>2019-06-09T09:30:14+02:00</time>
      </trkpt>
      <trkpt lat="41.69497" lon="2.00067934">
        <ele>343.0</ele>
        <time>2019-06-09T09:30:16+02:00</time>
      </trkpt>
      <trkpt lat="41.69488499999999" lon="2.0006826699999998">
        <ele>343.0</ele>
        <time>2019-06-09T09:30:18+02:00</time>
      </trkpt>
      <trkpt lat="41.694806670000006" lon="2.000685">
        <ele>343.0</ele>
        <time>2019-06-09T09:30:20+02:00</time>
      </trkpt>
      <trkpt lat="41.69474" lon="2.00068434">
        <ele>343.0</ele>
        <time>2019-06-09T09:30:22+02:00</time>
      </trkpt>
      <trkpt lat="41.694673339999994" lon="2.00068367">
        <ele>343.0</ele>
        <time>2019-06-09T09:30:24+02:00</time>
      </trkpt>
      <trkpt lat="41.69461166999999" lon="2.000685">
        <ele>343.0</ele>
        <time>2019-06-09T09:30:26+02:00</time>
      </trkpt>
      <trkpt lat="41.694555" lon="2.00069034">
        <ele>343.0</ele>
        <time>2019-06-09T09:30:28+02:00</time>
      </trkpt>
      <trkpt lat="41.694491670000005" lon="2.00069667">
        <ele>343.0</ele>
        <time>2019-06-09T09:30:30+02:00</time>
      </trkpt>
      <trkpt lat="41.694421670000004" lon="2.00070634">
        <ele>343.0</ele>
        <time>2019-06-09T09:30:32+02:00</time>
      </trkpt>
      <trkpt lat="41.694358339999994" lon="2.00070867">
        <ele>343.0</ele>
        <time>2019-06-09T09:30:34+02:00</time>
      </trkpt>
      <trkpt lat="41.694313339999994" lon="2.00069">
        <ele>343.0</ele>
        <time>2019-06-09T09:30:36+02:00</time>
      </trkpt>
      <trkpt lat="41.694264999999994" lon="2.0006549999999996">
        <ele>342.0</ele>
        <time>2019-06-09T09:30:38+02:00</time>
      </trkpt>
      <trkpt lat="41.694210000000005" lon="2.0006283399999996">
        <ele>342.0</ele>
        <time>2019-06-09T09:30:40+02:00</time>
      </trkpt>
      <trkpt lat="41.69415167000001" lon="2.00059867">
        <ele>342.0</ele>
        <time>2019-06-09T09:30:42+02:00</time>
      </trkpt>
      <trkpt lat="41.694069999999996" lon="2.000552">
        <ele>341.0</ele>
        <time>2019-06-09T09:30:44+02:00</time>
      </trkpt>
      <trkpt lat="41.693979999999996" lon="2.0005083399999997">
        <ele>341.0</ele>
        <time>2019-06-09T09:30:46+02:00</time>
      </trkpt>
      <trkpt lat="41.69392834" lon="2.00048667">
        <ele>341.0</ele>
        <time>2019-06-09T09:30:47+02:00</time>
      </trkpt>
      <trkpt lat="41.693873339999996" lon="2.000466">
        <ele>341.0</ele>
        <time>2019-06-09T09:30:48+02:00</time>
      </trkpt>
      <trkpt lat="41.693816670000004" lon="2.0004479999999996">
        <ele>341.0</ele>
        <time>2019-06-09T09:30:49+02:00</time>
      </trkpt>
      <trkpt lat="41.693765" lon="2.000433">
        <ele>341.0</ele>
        <time>2019-06-09T09:30:50+02:00</time>
      </trkpt>
      <trkpt lat="41.693715000000005" lon="2.0004183399999995">
        <ele>341.0</ele>
        <time>2019-06-09T09:30:51+02:00</time>
      </trkpt>
      <trkpt lat="41.693670000000004" lon="2.0004093399999996">
        <ele>341.0</ele>
        <time>2019-06-09T09:30:52+02:00</time>
      </trkpt>
      <trkpt lat="41.69359167" lon="2.000392">
        <ele>341.0</ele>
        <time>2019-06-09T09:30:54+02:00</time>
      </trkpt>
      <trkpt lat="41.69352667000001" lon="2.00038434">
        <ele>341.0</ele>
        <time>2019-06-09T09:30:56+02:00</time>
      </trkpt>
      <trkpt lat="41.693465" lon="2.00037967">
        <ele>341.0</ele>
        <time>2019-06-09T09:30:58+02:00</time>
      </trkpt>
      <trkpt lat="41.69340167" lon="2.00037934">
        <ele>341.0</ele>
        <time>2019-06-09T09:31:00+02:00</time>
      </trkpt>
      <trkpt lat="41.693345" lon="2.00038334">
        <ele>341.0</ele>
        <time>2019-06-09T09:31:02+02:00</time>
      </trkpt>
      <trkpt lat="41.693295" lon="2.00038767">
        <ele>341.0</ele>
        <time>2019-06-09T09:31:04+02:00</time>
      </trkpt>
      <trkpt lat="41.69323834" lon="2.0003913399999993">
        <ele>340.0</ele>
        <time>2019-06-09T09:31:06+02:00</time>
      </trkpt>
      <trkpt lat="41.69318499999999" lon="2.00038734">
        <ele>340.0</ele>
        <time>2019-06-09T09:31:08+02:00</time>
      </trkpt>
      <trkpt lat="41.693124999999995" lon="2.0003733399999994">
        <ele>339.0</ele>
        <time>2019-06-09T09:31:10+02:00</time>
      </trkpt>
      <trkpt lat="41.69308834" lon="2.00031167">
        <ele>339.0</ele>
        <time>2019-06-09T09:31:12+02:00</time>
      </trkpt>
      <trkpt lat="41.69305000000001" lon="2.000255">
        <ele>339.0</ele>
        <time>2019-06-09T09:31:14+02:00</time>
      </trkpt>
      <trkpt lat="41.69301167" lon="2.00020867">
        <ele>339.0</ele>
        <time>2019-06-09T09:31:16+02:00</time>
      </trkpt>
      <trkpt lat="41.692965" lon="2.00017467">
        <ele>338.0</ele>
        <time>2019-06-09T09:31:18+02:00</time>
      </trkpt>
      <trkpt lat="41.69291334" lon="2.0001493399999997">
        <ele>338.0</ele>
        <time>2019-06-09T09:31:20+02:00</time>
      </trkpt>
      <trkpt lat="41.69286167" lon="2.0001290000000003">
        <ele>338.0</ele>
        <time>2019-06-09T09:31:22+02:00</time>
      </trkpt>
      <trkpt lat="41.69280667000001" lon="2.00011167">
        <ele>337.0</ele>
        <time>2019-06-09T09:31:24+02:00</time>
      </trkpt>
      <trkpt lat="41.69275" lon="2.00009634">
        <ele>337.0</ele>
        <time>2019-06-09T09:31:26+02:00</time>
      </trkpt>
      <trkpt lat="41.69268667" lon="2.00008534">
        <ele>336.0</ele>
        <time>2019-06-09T09:31:28+02:00</time>
      </trkpt>
      <trkpt lat="41.69263499999999" lon="2.00008167">
        <ele>335.0</ele>
        <time>2019-06-09T09:31:30+02:00</time>
      </trkpt>
      <trkpt lat="41.69258334" lon="2.00007934">
        <ele>335.0</ele>
        <time>2019-06-09T09:31:32+02:00</time>
      </trkpt>
      <trkpt lat="41.69253" lon="2.0000786699999997">
        <ele>334.0</ele>
        <time>2019-06-09T09:31:34+02:00</time>
      </trkpt>
      <trkpt lat="41.69248166999999" lon="2.000081">
        <ele>334.0</ele>
        <time>2019-06-09T09:31:36+02:00</time>
      </trkpt>
      <trkpt lat="41.69243" lon="2.00008234">
        <ele>333.0</ele>
        <time>2019-06-09T09:31:38+02:00</time>
      </trkpt>
      <trkpt lat="41.692375000000006" lon="2.0000833399999998">
        <ele>332.0</ele>
        <time>2019-06-09T09:31:40+02:00</time>
      </trkpt>
      <trkpt lat="41.69231667000001" lon="2.0000863399999997">
        <ele>332.0</ele>
        <time>2019-06-09T09:31:42+02:00</time>
      </trkpt>
      <trkpt lat="41.692254999999996" lon="2.00009067">
        <ele>332.0</ele>
        <time>2019-06-09T09:31:44+02:00</time>
      </trkpt>
      <trkpt lat="41.69219" lon="2.00009734">
        <ele>331.0</ele>
        <time>2019-06-09T09:31:46+02:00</time>
      </trkpt>
      <trkpt lat="41.69212667000001" lon="2.00010667">
        <ele>331.0</ele>
        <time>2019-06-09T09:31:48+02:00</time>
      </trkpt>
      <trkpt lat="41.692071670000004" lon="2.000119">
        <ele>331.0</ele>
        <time>2019-06-09T09:31:50+02:00</time>
      </trkpt>
      <trkpt lat="41.69202833999999" lon="2.00013667">
        <ele>331.0</ele>
        <time>2019-06-09T09:31:52+02:00</time>
      </trkpt>
      <trkpt lat="41.691985" lon="2.0001543399999995">
        <ele>331.0</ele>
        <time>2019-06-09T09:31:54+02:00</time>
      </trkpt>
      <trkpt lat="41.69193833999999" lon="2.00017334">
        <ele>331.0</ele>
        <time>2019-06-09T09:31:56+02:00</time>
      </trkpt>
      <trkpt lat="41.69189" lon="2.0001939999999996">
        <ele>330.0</ele>
        <time>2019-06-09T09:31:58+02:00</time>
      </trkpt>
      <trkpt lat="41.69184" lon="2.0002156700000002">
        <ele>330.0</ele>
        <time>2019-06-09T09:32:00+02:00</time>
      </trkpt>
      <trkpt lat="41.69178334" lon="2.00030167">
        <ele>329.0</ele>
        <time>2019-06-09T09:32:02+02:00</time>
      </trkpt>
      <trkpt lat="41.691725" lon="2.0002916699999997">
        <ele>329.0</ele>
        <time>2019-06-09T09:32:04+02:00</time>
      </trkpt>
      <trkpt lat="41.69166167" lon="2.0002916699999997">
        <ele>329.0</ele>
        <time>2019-06-09T09:32:06+02:00</time>
      </trkpt>
      <trkpt lat="41.69160667" lon="2.000305">
        <ele>328.0</ele>
        <time>2019-06-09T09:32:08+02:00</time>
      </trkpt>
      <trkpt lat="41.691555" lon="2.00033167">
        <ele>328.0</ele>
        <time>2019-06-09T09:32:10+02:00</time>
      </trkpt>
      <trkpt lat="41.69151334" lon="2.0003849999999996">
        <ele>328.0</ele>
        <time>2019-06-09T09:32:12+02:00</time>
      </trkpt>
      <trkpt lat="41.69147167000001" lon="2.00042667">
        <ele>327.0</ele>
        <time>2019-06-09T09:32:14+02:00</time>
      </trkpt>
      <trkpt lat="41.69141499999999" lon="2.00046134">
        <ele>326.0</ele>
        <time>2019-06-09T09:32:16+02:00</time>
      </trkpt>
      <trkpt lat="41.69135" lon="2.0005040000000003">
        <ele>326.0</ele>
        <time>2019-06-09T09:32:18+02:00</time>
      </trkpt>
      <trkpt lat="41.69127834" lon="2.00054467">
        <ele>325.0</ele>
        <time>2019-06-09T09:32:20+02:00</time>
      </trkpt>
      <trkpt lat="41.69121167" lon="2.0005776699999998">
        <ele>325.0</ele>
        <time>2019-06-09T09:32:22+02:00</time>
      </trkpt>
      <trkpt lat="41.69115167000001" lon="2.00061234">
        <ele>325.0</ele>
        <time>2019-06-09T09:32:24+02:00</time>
      </trkpt>
      <trkpt lat="41.691086670000004" lon="2.0006506699999997">
        <ele>324.0</ele>
        <time>2019-06-09T09:32:26+02:00</time>
      </trkpt>
      <trkpt lat="41.69103" lon="2.000692">
        <ele>324.0</ele>
        <time>2019-06-09T09:32:28+02:00</time>
      </trkpt>
      <trkpt lat="41.69097167000001" lon="2.0007366699999998">
        <ele>324.0</ele>
        <time>2019-06-09T09:32:30+02:00</time>
      </trkpt>
      <trkpt lat="41.690918339999996" lon="2.0007779999999995">
        <ele>324.0</ele>
        <time>2019-06-09T09:32:32+02:00</time>
      </trkpt>
      <trkpt lat="41.69085667" lon="2.0008229999999996">
        <ele>324.0</ele>
        <time>2019-06-09T09:32:34+02:00</time>
      </trkpt>
      <trkpt lat="41.69078499999999" lon="2.000872">
        <ele>323.0</ele>
        <time>2019-06-09T09:32:36+02:00</time>
      </trkpt>
      <trkpt lat="41.6907" lon="2.00092267">
        <ele>323.0</ele>
        <time>2019-06-09T09:32:38+02:00</time>
      </trkpt>
      <trkpt lat="41.69065667000001" lon="2.00094467">
        <ele>323.0</ele>
        <time>2019-06-09T09:32:39+02:00</time>
      </trkpt>
      <trkpt lat="41.69061334" lon="2.00097">
        <ele>322.0</ele>
        <time>2019-06-09T09:32:40+02:00</time>
      </trkpt>
      <trkpt lat="41.69053" lon="2.00101767">
        <ele>322.0</ele>
        <time>2019-06-09T09:32:42+02:00</time>
      </trkpt>
      <trkpt lat="41.69047334" lon="2.001032">
        <ele>322.0</ele>
        <time>2019-06-09T09:32:44+02:00</time>
      </trkpt>
      <trkpt lat="41.690461670000005" lon="2.0008716699999995">
        <ele>322.0</ele>
        <time>2019-06-09T09:32:46+02:00</time>
      </trkpt>
      <trkpt lat="41.69049334" lon="2.00080834">
        <ele>322.0</ele>
        <time>2019-06-09T09:32:48+02:00</time>
      </trkpt>
      <trkpt lat="41.69053834" lon="2.0007566700000003">
        <ele>322.0</ele>
        <time>2019-06-09T09:32:50+02:00</time>
      </trkpt>
      <trkpt lat="41.69058667" lon="2.0007083399999996">
        <ele>321.0</ele>
        <time>2019-06-09T09:32:52+02:00</time>
      </trkpt>
      <trkpt lat="41.69063667" lon="2.00066667">
        <ele>321.0</ele>
        <time>2019-06-09T09:32:54+02:00</time>
      </trkpt>
      <trkpt lat="41.69069167000001" lon="2.0006150000000003">
        <ele>321.0</ele>
        <time>2019-06-09T09:32:56+02:00</time>
      </trkpt>
      <trkpt lat="41.69074500000001" lon="2.0005599999999997">
        <ele>321.0</ele>
        <time>2019-06-09T09:32:58+02:00</time>
      </trkpt>
      <trkpt lat="41.69079334" lon="2.0005016700000002">
        <ele>321.0</ele>
        <time>2019-06-09T09:33:00+02:00</time>
      </trkpt>
      <trkpt lat="41.690835" lon="2.00044467">
        <ele>321.0</ele>
        <time>2019-06-09T09:33:02+02:00</time>
      </trkpt>
      <trkpt lat="41.69087499999999" lon="2.00038867">
        <ele>321.0</ele>
        <time>2019-06-09T09:33:04+02:00</time>
      </trkpt>
      <trkpt lat="41.690911670000006" lon="2.0003356699999997">
        <ele>321.0</ele>
        <time>2019-06-09T09:33:06+02:00</time>
      </trkpt>
      <trkpt lat="41.69094334" lon="2.0002783399999995">
        <ele>320.0</ele>
        <time>2019-06-09T09:33:08+02:00</time>
      </trkpt>
      <trkpt lat="41.690978339999994" lon="2.0002249999999995">
        <ele>320.0</ele>
        <time>2019-06-09T09:33:10+02:00</time>
      </trkpt>
      <trkpt lat="41.69100934" lon="2.0001683399999997">
        <ele>319.0</ele>
        <time>2019-06-09T09:33:12+02:00</time>
      </trkpt>
      <trkpt lat="41.691041000000006" lon="2.0000999999999998">
        <ele>319.0</ele>
        <time>2019-06-09T09:33:14+02:00</time>
      </trkpt>
      <trkpt lat="41.69107133999999" lon="2.0000299999999998">
        <ele>318.0</ele>
        <time>2019-06-09T09:33:16+02:00</time>
      </trkpt>
      <trkpt lat="41.69110167000001" lon="1.99996834">
        <ele>318.0</ele>
        <time>2019-06-09T09:33:18+02:00</time>
      </trkpt>
      <trkpt lat="41.691137" lon="1.999905">
        <ele>318.0</ele>
        <time>2019-06-09T09:33:20+02:00</time>
      </trkpt>
      <trkpt lat="41.69121700000001" lon="1.99978667">
        <ele>317.0</ele>
        <time>2019-06-09T09:33:22+02:00</time>
      </trkpt>
      <trkpt lat="41.69126267" lon="1.9997300000000002">
        <ele>316.0</ele>
        <time>2019-06-09T09:33:24+02:00</time>
      </trkpt>
      <trkpt lat="41.69134834" lon="1.9996633400000001">
        <ele>316.0</ele>
        <time>2019-06-09T09:33:26+02:00</time>
      </trkpt>
      <trkpt lat="41.691408339999995" lon="1.9995966699999996">
        <ele>316.0</ele>
        <time>2019-06-09T09:33:28+02:00</time>
      </trkpt>
      <trkpt lat="41.69146334" lon="1.9995253399999995">
        <ele>315.0</ele>
        <time>2019-06-09T09:33:30+02:00</time>
      </trkpt>
      <trkpt lat="41.69152834" lon="1.999454">
        <ele>315.0</ele>
        <time>2019-06-09T09:33:32+02:00</time>
      </trkpt>
      <trkpt lat="41.69158334" lon="1.9993950000000003">
        <ele>315.0</ele>
        <time>2019-06-09T09:33:34+02:00</time>
      </trkpt>
      <trkpt lat="41.691636669999994" lon="1.999332">
        <ele>315.0</ele>
        <time>2019-06-09T09:33:36+02:00</time>
      </trkpt>
      <trkpt lat="41.691698339999995" lon="1.99927034">
        <ele>315.0</ele>
        <time>2019-06-09T09:33:38+02:00</time>
      </trkpt>
      <trkpt lat="41.69175334" lon="1.9992249999999998">
        <ele>314.0</ele>
        <time>2019-06-09T09:33:40+02:00</time>
      </trkpt>
      <trkpt lat="41.691806670000005" lon="1.999185">
        <ele>314.0</ele>
        <time>2019-06-09T09:33:42+02:00</time>
      </trkpt>
      <trkpt lat="41.691861669999994" lon="1.9991466699999996">
        <ele>314.0</ele>
        <time>2019-06-09T09:33:44+02:00</time>
      </trkpt>
      <trkpt lat="41.69191667000001" lon="1.9991079999999997">
        <ele>314.0</ele>
        <time>2019-06-09T09:33:46+02:00</time>
      </trkpt>
      <trkpt lat="41.69196334" lon="1.9990733399999996">
        <ele>314.0</ele>
        <time>2019-06-09T09:33:48+02:00</time>
      </trkpt>
      <trkpt lat="41.692009999999996" lon="1.999031">
        <ele>314.0</ele>
        <time>2019-06-09T09:33:50+02:00</time>
      </trkpt>
      <trkpt lat="41.69206834" lon="1.9989783399999996">
        <ele>313.0</ele>
        <time>2019-06-09T09:33:52+02:00</time>
      </trkpt>
      <trkpt lat="41.69212667000001" lon="1.99892934">
        <ele>313.0</ele>
        <time>2019-06-09T09:33:54+02:00</time>
      </trkpt>
      <trkpt lat="41.69218834" lon="1.9988810000000001">
        <ele>313.0</ele>
        <time>2019-06-09T09:33:56+02:00</time>
      </trkpt>
      <trkpt lat="41.69226334" lon="1.99892">
        <ele>313.0</ele>
        <time>2019-06-09T09:33:58+02:00</time>
      </trkpt>
      <trkpt lat="41.692323339999994" lon="1.9989516699999998">
        <ele>313.0</ele>
        <time>2019-06-09T09:34:00+02:00</time>
      </trkpt>
      <trkpt lat="41.69239334" lon="1.9989833399999994">
        <ele>313.0</ele>
        <time>2019-06-09T09:34:02+02:00</time>
      </trkpt>
      <trkpt lat="41.692465000000006" lon="1.99900667">
        <ele>313.0</ele>
        <time>2019-06-09T09:34:04+02:00</time>
      </trkpt>
      <trkpt lat="41.69254333999999" lon="1.9990270000000003">
        <ele>313.0</ele>
        <time>2019-06-09T09:34:06+02:00</time>
      </trkpt>
      <trkpt lat="41.692620000000005" lon="1.9990353399999996">
        <ele>313.0</ele>
        <time>2019-06-09T09:34:08+02:00</time>
      </trkpt>
      <trkpt lat="41.692690000000006" lon="1.99902467">
        <ele>313.0</ele>
        <time>2019-06-09T09:34:10+02:00</time>
      </trkpt>
      <trkpt lat="41.692746670000005" lon="1.9989516699999998">
        <ele>313.0</ele>
        <time>2019-06-09T09:34:12+02:00</time>
      </trkpt>
      <trkpt lat="41.69279" lon="1.9988799999999998">
        <ele>313.0</ele>
        <time>2019-06-09T09:34:14+02:00</time>
      </trkpt>
      <trkpt lat="41.692845" lon="1.99880167">
        <ele>313.0</ele>
        <time>2019-06-09T09:34:16+02:00</time>
      </trkpt>
      <trkpt lat="41.69291334" lon="1.9987396700000002">
        <ele>313.0</ele>
        <time>2019-06-09T09:34:18+02:00</time>
      </trkpt>
      <trkpt lat="41.69298334" lon="1.9986989999999998">
        <ele>313.0</ele>
        <time>2019-06-09T09:34:20+02:00</time>
      </trkpt>
      <trkpt lat="41.693055" lon="1.9987099999999998">
        <ele>313.0</ele>
        <time>2019-06-09T09:34:22+02:00</time>
      </trkpt>
      <trkpt lat="41.69311667" lon="1.9987433399999996">
        <ele>313.0</ele>
        <time>2019-06-09T09:34:24+02:00</time>
      </trkpt>
      <trkpt lat="41.69316667000001" lon="1.9987716699999996">
        <ele>313.0</ele>
        <time>2019-06-09T09:34:26+02:00</time>
      </trkpt>
      <trkpt lat="41.69321167" lon="1.99881">
        <ele>313.0</ele>
        <time>2019-06-09T09:34:28+02:00</time>
      </trkpt>
      <trkpt lat="41.69325333999999" lon="1.9988583399999995">
        <ele>313.0</ele>
        <time>2019-06-09T09:34:30+02:00</time>
      </trkpt>
      <trkpt lat="41.693295" lon="1.99890167">
        <ele>313.0</ele>
        <time>2019-06-09T09:34:32+02:00</time>
      </trkpt>
      <trkpt lat="41.693333339999995" lon="1.99894167">
        <ele>313.0</ele>
        <time>2019-06-09T09:34:34+02:00</time>
      </trkpt>
      <trkpt lat="41.693376670000006" lon="1.9989636699999997">
        <ele>313.0</ele>
        <time>2019-06-09T09:34:36+02:00</time>
      </trkpt>
      <trkpt lat="41.693439999999995" lon="1.9989583399999997">
        <ele>313.0</ele>
        <time>2019-06-09T09:34:39+02:00</time>
      </trkpt>
      <trkpt lat="41.69349834" lon="1.9989366699999997">
        <ele>312.0</ele>
        <time>2019-06-09T09:34:42+02:00</time>
      </trkpt>
      <trkpt lat="41.69354334" lon="1.9988916699999997">
        <ele>312.0</ele>
        <time>2019-06-09T09:34:45+02:00</time>
      </trkpt>
      <trkpt lat="41.69357333999999" lon="1.9988333399999996">
        <ele>311.0</ele>
        <time>2019-06-09T09:34:48+02:00</time>
      </trkpt>
      <trkpt lat="41.693588340000005" lon="1.99877">
        <ele>311.0</ele>
        <time>2019-06-09T09:34:51+02:00</time>
      </trkpt>
      <trkpt lat="41.69361834" lon="1.9987099999999998">
        <ele>310.0</ele>
        <time>2019-06-09T09:34:54+02:00</time>
      </trkpt>
      <trkpt lat="41.693652" lon="1.9986516699999999">
        <ele>309.0</ele>
        <time>2019-06-09T09:34:57+02:00</time>
      </trkpt>
      <trkpt lat="41.693684" lon="1.9986116699999996">
        <ele>309.0</ele>
        <time>2019-06-09T09:34:59+02:00</time>
      </trkpt>
      <trkpt lat="41.693740000000005" lon="1.9985916699999997">
        <ele>308.0</ele>
        <time>2019-06-09T09:35:02+02:00</time>
      </trkpt>
      <trkpt lat="41.69379667" lon="1.99859334">
        <ele>308.0</ele>
        <time>2019-06-09T09:35:05+02:00</time>
      </trkpt>
      <trkpt lat="41.69384334" lon="1.9985999999999997">
        <ele>307.0</ele>
        <time>2019-06-09T09:35:08+02:00</time>
      </trkpt>
      <trkpt lat="41.693891670000006" lon="1.998625">
        <ele>307.0</ele>
        <time>2019-06-09T09:35:11+02:00</time>
      </trkpt>
      <trkpt lat="41.693951670000004" lon="1.9986296699999997">
        <ele>306.0</ele>
        <time>2019-06-09T09:35:15+02:00</time>
      </trkpt>
      <trkpt lat="41.693999999999996" lon="1.99861367">
        <ele>305.0</ele>
        <time>2019-06-09T09:35:18+02:00</time>
      </trkpt>
      <trkpt lat="41.694035" lon="1.99854334">
        <ele>304.0</ele>
        <time>2019-06-09T09:35:22+02:00</time>
      </trkpt>
      <trkpt lat="41.694053339999996" lon="1.9984833399999995">
        <ele>303.0</ele>
        <time>2019-06-09T09:35:25+02:00</time>
      </trkpt>
      <trkpt lat="41.694068339999994" lon="1.9984216699999997">
        <ele>302.0</ele>
        <time>2019-06-09T09:35:28+02:00</time>
      </trkpt>
      <trkpt lat="41.694084999999994" lon="1.9983566700000002">
        <ele>301.0</ele>
        <time>2019-06-09T09:35:31+02:00</time>
      </trkpt>
      <trkpt lat="41.694108670000006" lon="1.99828667">
        <ele>301.0</ele>
        <time>2019-06-09T09:35:34+02:00</time>
      </trkpt>
      <trkpt lat="41.694129999999994" lon="1.9982166700000001">
        <ele>301.0</ele>
        <time>2019-06-09T09:35:37+02:00</time>
      </trkpt>
      <trkpt lat="41.694149669999995" lon="1.99815167">
        <ele>300.0</ele>
        <time>2019-06-09T09:35:40+02:00</time>
      </trkpt>
      <trkpt lat="41.69417133999999" lon="1.99807334">
        <ele>300.0</ele>
        <time>2019-06-09T09:35:44+02:00</time>
      </trkpt>
      <trkpt lat="41.694188000000004" lon="1.99800667">
        <ele>299.0</ele>
        <time>2019-06-09T09:35:47+02:00</time>
      </trkpt>
      <trkpt lat="41.69419967" lon="1.9979416699999994">
        <ele>299.0</ele>
        <time>2019-06-09T09:35:50+02:00</time>
      </trkpt>
      <trkpt lat="41.694213340000005" lon="1.9978799999999999">
        <ele>298.0</ele>
        <time>2019-06-09T09:35:53+02:00</time>
      </trkpt>
      <trkpt lat="41.694232" lon="1.9978083399999995">
        <ele>297.0</ele>
        <time>2019-06-09T09:35:56+02:00</time>
      </trkpt>
      <trkpt lat="41.694251339999994" lon="1.9977533399999998">
        <ele>297.0</ele>
        <time>2019-06-09T09:35:59+02:00</time>
      </trkpt>
      <trkpt lat="41.69432" lon="1.9977183399999998">
        <ele>297.0</ele>
        <time>2019-06-09T09:36:03+02:00</time>
      </trkpt>
      <trkpt lat="41.69435667" lon="1.9976683399999995">
        <ele>296.0</ele>
        <time>2019-06-09T09:36:07+02:00</time>
      </trkpt>
      <trkpt lat="41.69432" lon="1.99763167">
        <ele>295.0</ele>
        <time>2019-06-09T09:36:14+02:00</time>
      </trkpt>
      <trkpt lat="41.69427667000001" lon="1.9976500000000001">
        <ele>295.0</ele>
        <time>2019-06-09T09:36:16+02:00</time>
      </trkpt>
      <trkpt lat="41.694236669999995" lon="1.9976833399999996">
        <ele>294.0</ele>
        <time>2019-06-09T09:36:18+02:00</time>
      </trkpt>
      <trkpt lat="41.69419167000001" lon="1.99769567">
        <ele>294.0</ele>
        <time>2019-06-09T09:36:20+02:00</time>
      </trkpt>
      <trkpt lat="41.69418667" lon="1.9976233399999994">
        <ele>294.0</ele>
        <time>2019-06-09T09:36:25+02:00</time>
      </trkpt>
      <trkpt lat="41.694221670000005" lon="1.99756334">
        <ele>294.0</ele>
        <time>2019-06-09T09:36:29+02:00</time>
      </trkpt>
      <trkpt lat="41.69426334" lon="1.9975133399999998">
        <ele>294.0</ele>
        <time>2019-06-09T09:36:33+02:00</time>
      </trkpt>
      <trkpt lat="41.694311670000005" lon="1.9974666699999997">
        <ele>294.0</ele>
        <time>2019-06-09T09:36:37+02:00</time>
      </trkpt>
      <trkpt lat="41.69436334" lon="1.99742067">
        <ele>294.0</ele>
        <time>2019-06-09T09:36:41+02:00</time>
      </trkpt>
      <trkpt lat="41.69440000000001" lon="1.9973756699999998">
        <ele>293.0</ele>
        <time>2019-06-09T09:36:45+02:00</time>
      </trkpt>
      <trkpt lat="41.69443667" lon="1.99732667">
        <ele>292.0</ele>
        <time>2019-06-09T09:36:49+02:00</time>
      </trkpt>
      <trkpt lat="41.69447667000001" lon="1.9972739999999998">
        <ele>292.0</ele>
        <time>2019-06-09T09:36:53+02:00</time>
      </trkpt>
      <trkpt lat="41.69450334" lon="1.9972083399999996">
        <ele>291.0</ele>
        <time>2019-06-09T09:36:57+02:00</time>
      </trkpt>
      <trkpt lat="41.694538" lon="1.9971533399999994">
        <ele>291.0</ele>
        <time>2019-06-09T09:37:01+02:00</time>
      </trkpt>
      <trkpt lat="41.694583339999994" lon="1.9970999999999997">
        <ele>290.0</ele>
        <time>2019-06-09T09:37:06+02:00</time>
      </trkpt>
      <trkpt lat="41.69463334" lon="1.99706334">
        <ele>289.0</ele>
        <time>2019-06-09T09:37:10+02:00</time>
      </trkpt>
      <trkpt lat="41.69467834" lon="1.9970313400000002">
        <ele>288.0</ele>
        <time>2019-06-09T09:37:13+02:00</time>
      </trkpt>
      <trkpt lat="41.69472167000001" lon="1.996997">
        <ele>288.0</ele>
        <time>2019-06-09T09:37:16+02:00</time>
      </trkpt>
      <trkpt lat="41.69477334" lon="1.99697867">
        <ele>288.0</ele>
        <time>2019-06-09T09:37:19+02:00</time>
      </trkpt>
      <trkpt lat="41.69481834" lon="1.9969900000000003">
        <ele>288.0</ele>
        <time>2019-06-09T09:37:21+02:00</time>
      </trkpt>
      <trkpt lat="41.694875" lon="1.9969999999999999">
        <ele>288.0</ele>
        <time>2019-06-09T09:37:23+02:00</time>
      </trkpt>
      <trkpt lat="41.69493167" lon="1.99701667">
        <ele>288.0</ele>
        <time>2019-06-09T09:37:25+02:00</time>
      </trkpt>
      <trkpt lat="41.69499334" lon="1.9970333399999993">
        <ele>288.0</ele>
        <time>2019-06-09T09:37:27+02:00</time>
      </trkpt>
      <trkpt lat="41.695046669999996" lon="1.9970506699999997">
        <ele>288.0</ele>
        <time>2019-06-09T09:37:29+02:00</time>
      </trkpt>
      <trkpt lat="41.69510667000001" lon="1.9970599999999998">
        <ele>288.0</ele>
        <time>2019-06-09T09:37:31+02:00</time>
      </trkpt>
      <trkpt lat="41.69517167" lon="1.997071">
        <ele>288.0</ele>
        <time>2019-06-09T09:37:33+02:00</time>
      </trkpt>
      <trkpt lat="41.695233339999994" lon="1.9970763400000002">
        <ele>288.0</ele>
        <time>2019-06-09T09:37:35+02:00</time>
      </trkpt>
      <trkpt lat="41.695296670000005" lon="1.9970769999999998">
        <ele>289.0</ele>
        <time>2019-06-09T09:37:37+02:00</time>
      </trkpt>
      <trkpt lat="41.695348339999995" lon="1.99706667">
        <ele>289.0</ele>
        <time>2019-06-09T09:37:38+02:00</time>
      </trkpt>
      <trkpt lat="41.69540167000001" lon="1.9970049999999997">
        <ele>289.0</ele>
        <time>2019-06-09T09:37:40+02:00</time>
      </trkpt>
      <trkpt lat="41.69545167" lon="1.9969483399999994">
        <ele>290.0</ele>
        <time>2019-06-09T09:37:42+02:00</time>
      </trkpt>
      <trkpt lat="41.69549167" lon="1.996875">
        <ele>290.0</ele>
        <time>2019-06-09T09:37:44+02:00</time>
      </trkpt>
      <trkpt lat="41.69552167" lon="1.9967866699999999">
        <ele>290.0</ele>
        <time>2019-06-09T09:37:46+02:00</time>
      </trkpt>
      <trkpt lat="41.69555334" lon="1.9966866699999997">
        <ele>291.0</ele>
        <time>2019-06-09T09:37:48+02:00</time>
      </trkpt>
      <trkpt lat="41.69558667" lon="1.99659334">
        <ele>291.0</ele>
        <time>2019-06-09T09:37:50+02:00</time>
      </trkpt>
      <trkpt lat="41.695618339999996" lon="1.9964966699999998">
        <ele>291.0</ele>
        <time>2019-06-09T09:37:52+02:00</time>
      </trkpt>
      <trkpt lat="41.69565267" lon="1.9964183399999995">
        <ele>292.0</ele>
        <time>2019-06-09T09:37:54+02:00</time>
      </trkpt>
      <trkpt lat="41.695689670000014" lon="1.99635167">
        <ele>292.0</ele>
        <time>2019-06-09T09:37:56+02:00</time>
      </trkpt>
      <trkpt lat="41.69573200000001" lon="1.9962849999999996">
        <ele>292.0</ele>
        <time>2019-06-09T09:37:58+02:00</time>
      </trkpt>
      <trkpt lat="41.69578634" lon="1.9962166699999997">
        <ele>292.0</ele>
        <time>2019-06-09T09:38:00+02:00</time>
      </trkpt>
      <trkpt lat="41.695858339999994" lon="1.9961783399999995">
        <ele>292.0</ele>
        <time>2019-06-09T09:38:01+02:00</time>
      </trkpt>
      <trkpt lat="41.695903339999994" lon="1.9961329999999997">
        <ele>292.0</ele>
        <time>2019-06-09T09:38:02+02:00</time>
      </trkpt>
      <trkpt lat="41.695953339999996" lon="1.9960846700000001">
        <ele>292.0</ele>
        <time>2019-06-09T09:38:03+02:00</time>
      </trkpt>
      <trkpt lat="41.69600667000001" lon="1.9960340000000003">
        <ele>292.0</ele>
        <time>2019-06-09T09:38:04+02:00</time>
      </trkpt>
      <trkpt lat="41.69606667000001" lon="1.9959820000000001">
        <ele>292.0</ele>
        <time>2019-06-09T09:38:05+02:00</time>
      </trkpt>
      <trkpt lat="41.696163340000005" lon="1.995899">
        <ele>293.0</ele>
        <time>2019-06-09T09:38:06+02:00</time>
      </trkpt>
      <trkpt lat="41.69620167" lon="1.99586567">
        <ele>293.0</ele>
        <time>2019-06-09T09:38:07+02:00</time>
      </trkpt>
      <trkpt lat="41.696279999999994" lon="1.9958040000000001">
        <ele>293.0</ele>
        <time>2019-06-09T09:38:08+02:00</time>
      </trkpt>
      <trkpt lat="41.696324999999995" lon="1.9957660000000002">
        <ele>293.0</ele>
        <time>2019-06-09T09:38:09+02:00</time>
      </trkpt>
      <trkpt lat="41.69639" lon="1.995707">
        <ele>294.0</ele>
        <time>2019-06-09T09:38:10+02:00</time>
      </trkpt>
      <trkpt lat="41.696445000000004" lon="1.9956560000000003">
        <ele>294.0</ele>
        <time>2019-06-09T09:38:11+02:00</time>
      </trkpt>
      <trkpt lat="41.69652" lon="1.9956006699999995">
        <ele>294.0</ele>
        <time>2019-06-09T09:38:12+02:00</time>
      </trkpt>
      <trkpt lat="41.69658499999999" lon="1.9955593399999998">
        <ele>294.0</ele>
        <time>2019-06-09T09:38:13+02:00</time>
      </trkpt>
      <trkpt lat="41.69663167" lon="1.9955293399999998">
        <ele>295.0</ele>
        <time>2019-06-09T09:38:14+02:00</time>
      </trkpt>
      <trkpt lat="41.69667167000001" lon="1.995499">
        <ele>295.0</ele>
        <time>2019-06-09T09:38:15+02:00</time>
      </trkpt>
      <trkpt lat="41.6967" lon="1.9954693399999996">
        <ele>295.0</ele>
        <time>2019-06-09T09:38:16+02:00</time>
      </trkpt>
      <trkpt lat="41.69672167" lon="1.99543967">
        <ele>295.0</ele>
        <time>2019-06-09T09:38:17+02:00</time>
      </trkpt>
      <trkpt lat="41.696729999999995" lon="1.99531167">
        <ele>296.0</ele>
        <time>2019-06-09T09:38:18+02:00</time>
      </trkpt>
      <trkpt lat="41.69672833999999" lon="1.99523667">
        <ele>296.0</ele>
        <time>2019-06-09T09:38:19+02:00</time>
      </trkpt>
      <trkpt lat="41.696715000000005" lon="1.9951666699999997">
        <ele>296.0</ele>
        <time>2019-06-09T09:38:20+02:00</time>
      </trkpt>
      <trkpt lat="41.6967" lon="1.99509667">
        <ele>296.0</ele>
        <time>2019-06-09T09:38:21+02:00</time>
      </trkpt>
      <trkpt lat="41.69667" lon="1.9950333399999995">
        <ele>297.0</ele>
        <time>2019-06-09T09:38:22+02:00</time>
      </trkpt>
      <trkpt lat="41.69662999999999" lon="1.9949733399999996">
        <ele>297.0</ele>
        <time>2019-06-09T09:38:23+02:00</time>
      </trkpt>
      <trkpt lat="41.69659167000001" lon="1.99491834">
        <ele>297.0</ele>
        <time>2019-06-09T09:38:24+02:00</time>
      </trkpt>
      <trkpt lat="41.69655000000001" lon="1.9948583399999997">
        <ele>297.0</ele>
        <time>2019-06-09T09:38:25+02:00</time>
      </trkpt>
      <trkpt lat="41.69651167" lon="1.9947916700000001">
        <ele>297.0</ele>
        <time>2019-06-09T09:38:26+02:00</time>
      </trkpt>
      <trkpt lat="41.69647334" lon="1.994715">
        <ele>297.0</ele>
        <time>2019-06-09T09:38:27+02:00</time>
      </trkpt>
      <trkpt lat="41.696439" lon="1.9946333399999996">
        <ele>297.0</ele>
        <time>2019-06-09T09:38:28+02:00</time>
      </trkpt>
      <trkpt lat="41.696409" lon="1.9945533399999995">
        <ele>298.0</ele>
        <time>2019-06-09T09:38:29+02:00</time>
      </trkpt>
      <trkpt lat="41.696377999999996" lon="1.994475">
        <ele>298.0</ele>
        <time>2019-06-09T09:38:30+02:00</time>
      </trkpt>
      <trkpt lat="41.696346000000005" lon="1.9944">
        <ele>298.0</ele>
        <time>2019-06-09T09:38:31+02:00</time>
      </trkpt>
      <trkpt lat="41.696318000000005" lon="1.9943333399999996">
        <ele>299.0</ele>
        <time>2019-06-09T09:38:32+02:00</time>
      </trkpt>
      <trkpt lat="41.696295670000005" lon="1.9942783399999997">
        <ele>299.0</ele>
        <time>2019-06-09T09:38:33+02:00</time>
      </trkpt>
      <trkpt lat="41.69626967000001" lon="1.9942199999999999">
        <ele>299.0</ele>
        <time>2019-06-09T09:38:35+02:00</time>
      </trkpt>
      <trkpt lat="41.696205" lon="1.9941983399999998">
        <ele>300.0</ele>
        <time>2019-06-09T09:38:38+02:00</time>
      </trkpt>
      <trkpt lat="41.69616" lon="1.9942266699999998">
        <ele>300.0</ele>
        <time>2019-06-09T09:38:40+02:00</time>
      </trkpt>
      <trkpt lat="41.696115000000006" lon="1.9942616699999998">
        <ele>300.0</ele>
        <time>2019-06-09T09:38:42+02:00</time>
      </trkpt>
      <trkpt lat="41.696083339999994" lon="1.9943216700000002">
        <ele>300.0</ele>
        <time>2019-06-09T09:38:44+02:00</time>
      </trkpt>
      <trkpt lat="41.69605334" lon="1.9943983399999996">
        <ele>300.0</ele>
        <time>2019-06-09T09:38:46+02:00</time>
      </trkpt>
      <trkpt lat="41.696015" lon="1.9944683399999998">
        <ele>300.0</ele>
        <time>2019-06-09T09:38:48+02:00</time>
      </trkpt>
      <trkpt lat="41.69596834" lon="1.9945383399999996">
        <ele>300.0</ele>
        <time>2019-06-09T09:38:50+02:00</time>
      </trkpt>
      <trkpt lat="41.69589167" lon="1.9946033399999998">
        <ele>300.0</ele>
        <time>2019-06-09T09:38:52+02:00</time>
      </trkpt>
      <trkpt lat="41.69584667000001" lon="1.9946176700000002">
        <ele>300.0</ele>
        <time>2019-06-09T09:38:53+02:00</time>
      </trkpt>
      <trkpt lat="41.695768339999994" lon="1.9945700000000002">
        <ele>300.0</ele>
        <time>2019-06-09T09:38:55+02:00</time>
      </trkpt>
      <trkpt lat="41.695705" lon="1.9945433399999994">
        <ele>300.0</ele>
        <time>2019-06-09T09:38:57+02:00</time>
      </trkpt>
      <trkpt lat="41.69566667000001" lon="1.9945863400000001">
        <ele>300.0</ele>
        <time>2019-06-09T09:39:00+02:00</time>
      </trkpt>
      <trkpt lat="41.69569334" lon="1.99464834">
        <ele>300.0</ele>
        <time>2019-06-09T09:39:02+02:00</time>
      </trkpt>
      <trkpt lat="41.69575" lon="1.99471834">
        <ele>300.0</ele>
        <time>2019-06-09T09:39:04+02:00</time>
      </trkpt>
      <trkpt lat="41.695798339999996" lon="1.99475667">
        <ele>300.0</ele>
        <time>2019-06-09T09:39:05+02:00</time>
      </trkpt>
      <trkpt lat="41.695854999999995" lon="1.99478834">
        <ele>300.0</ele>
        <time>2019-06-09T09:39:06+02:00</time>
      </trkpt>
      <trkpt lat="41.69591167" lon="1.9948133399999999">
        <ele>300.0</ele>
        <time>2019-06-09T09:39:07+02:00</time>
      </trkpt>
      <trkpt lat="41.69597667" lon="1.99483167">
        <ele>300.0</ele>
        <time>2019-06-09T09:39:08+02:00</time>
      </trkpt>
      <trkpt lat="41.69604499999999" lon="1.9948533399999995">
        <ele>300.0</ele>
        <time>2019-06-09T09:39:09+02:00</time>
      </trkpt>
      <trkpt lat="41.69611" lon="1.99488834">
        <ele>300.0</ele>
        <time>2019-06-09T09:39:10+02:00</time>
      </trkpt>
      <trkpt lat="41.696166670000004" lon="1.994943">
        <ele>300.0</ele>
        <time>2019-06-09T09:39:11+02:00</time>
      </trkpt>
      <trkpt lat="41.69621" lon="1.9950023399999999">
        <ele>300.0</ele>
        <time>2019-06-09T09:39:12+02:00</time>
      </trkpt>
      <trkpt lat="41.69625" lon="1.99506467">
        <ele>300.0</ele>
        <time>2019-06-09T09:39:13+02:00</time>
      </trkpt>
      <trkpt lat="41.69628334" lon="1.9951263399999999">
        <ele>300.0</ele>
        <time>2019-06-09T09:39:14+02:00</time>
      </trkpt>
      <trkpt lat="41.69629833999999" lon="1.99520834">
        <ele>300.0</ele>
        <time>2019-06-09T09:39:15+02:00</time>
      </trkpt>
      <trkpt lat="41.69629167000001" lon="1.9952750000000001">
        <ele>300.0</ele>
        <time>2019-06-09T09:39:16+02:00</time>
      </trkpt>
      <trkpt lat="41.69627167" lon="1.9953366699999997">
        <ele>300.0</ele>
        <time>2019-06-09T09:39:17+02:00</time>
      </trkpt>
      <trkpt lat="41.69623334" lon="1.9953866699999998">
        <ele>300.0</ele>
        <time>2019-06-09T09:39:18+02:00</time>
      </trkpt>
      <trkpt lat="41.69618667000001" lon="1.99542">
        <ele>300.0</ele>
        <time>2019-06-09T09:39:19+02:00</time>
      </trkpt>
      <trkpt lat="41.69613667" lon="1.9954399999999999">
        <ele>300.0</ele>
        <time>2019-06-09T09:39:20+02:00</time>
      </trkpt>
      <trkpt lat="41.696076670000004" lon="1.9954483399999998">
        <ele>300.0</ele>
        <time>2019-06-09T09:39:21+02:00</time>
      </trkpt>
      <trkpt lat="41.696009999999994" lon="1.99545167">
        <ele>300.0</ele>
        <time>2019-06-09T09:39:22+02:00</time>
      </trkpt>
      <trkpt lat="41.69594167000001" lon="1.9954950000000005">
        <ele>300.0</ele>
        <time>2019-06-09T09:39:23+02:00</time>
      </trkpt>
      <trkpt lat="41.695825" lon="1.9954866699999996">
        <ele>300.0</ele>
        <time>2019-06-09T09:39:24+02:00</time>
      </trkpt>
      <trkpt lat="41.69573334" lon="1.9954833399999994">
        <ele>301.0</ele>
        <time>2019-06-09T09:39:25+02:00</time>
      </trkpt>
      <trkpt lat="41.69565000000001" lon="1.99548834">
        <ele>301.0</ele>
        <time>2019-06-09T09:39:26+02:00</time>
      </trkpt>
      <trkpt lat="41.69558167" lon="1.9954833399999994">
        <ele>301.0</ele>
        <time>2019-06-09T09:39:27+02:00</time>
      </trkpt>
      <trkpt lat="41.69552334" lon="1.9954583399999997">
        <ele>301.0</ele>
        <time>2019-06-09T09:39:28+02:00</time>
      </trkpt>
      <trkpt lat="41.69548833999999" lon="1.9954166699999998">
        <ele>302.0</ele>
        <time>2019-06-09T09:39:29+02:00</time>
      </trkpt>
      <trkpt lat="41.69549000000001" lon="1.9953200000000002">
        <ele>302.0</ele>
        <time>2019-06-09T09:39:30+02:00</time>
      </trkpt>
      <trkpt lat="41.69543667" lon="1.9952566699999998">
        <ele>302.0</ele>
        <time>2019-06-09T09:39:31+02:00</time>
      </trkpt>
      <trkpt lat="41.695393339999995" lon="1.9952099999999997">
        <ele>302.0</ele>
        <time>2019-06-09T09:39:32+02:00</time>
      </trkpt>
      <trkpt lat="41.69530167" lon="1.9951699999999999">
        <ele>303.0</ele>
        <time>2019-06-09T09:39:34+02:00</time>
      </trkpt>
      <trkpt lat="41.69525667" lon="1.9951616699999999">
        <ele>303.0</ele>
        <time>2019-06-09T09:39:35+02:00</time>
      </trkpt>
      <trkpt lat="41.69518334000001" lon="1.9951916699999999">
        <ele>303.0</ele>
        <time>2019-06-09T09:39:37+02:00</time>
      </trkpt>
      <trkpt lat="41.69513667" lon="1.9952233399999997">
        <ele>303.0</ele>
        <time>2019-06-09T09:39:38+02:00</time>
      </trkpt>
      <trkpt lat="41.69507" lon="1.99531">
        <ele>303.0</ele>
        <time>2019-06-09T09:39:40+02:00</time>
      </trkpt>
      <trkpt lat="41.69505834" lon="1.9953683399999995">
        <ele>303.0</ele>
        <time>2019-06-09T09:39:41+02:00</time>
      </trkpt>
      <trkpt lat="41.695046669999996" lon="1.9954583399999997">
        <ele>303.0</ele>
        <time>2019-06-09T09:39:43+02:00</time>
      </trkpt>
      <trkpt lat="41.695029999999996" lon="1.9955283399999995">
        <ele>303.0</ele>
        <time>2019-06-09T09:39:45+02:00</time>
      </trkpt>
      <trkpt lat="41.69499834" lon="1.995575">
        <ele>303.0</ele>
        <time>2019-06-09T09:39:48+02:00</time>
      </trkpt>
      <trkpt lat="41.69495833999999" lon="1.99561667">
        <ele>303.0</ele>
        <time>2019-06-09T09:39:59+02:00</time>
      </trkpt>
      <trkpt lat="41.69490334" lon="1.995673">
        <ele>302.0</ele>
        <time>2019-06-09T09:40:02+02:00</time>
      </trkpt>
      <trkpt lat="41.69484834" lon="1.9957133399999996">
        <ele>302.0</ele>
        <time>2019-06-09T09:40:04+02:00</time>
      </trkpt>
      <trkpt lat="41.69478334" lon="1.9957313399999996">
        <ele>302.0</ele>
        <time>2019-06-09T09:40:06+02:00</time>
      </trkpt>
      <trkpt lat="41.69472667" lon="1.9957049999999998">
        <ele>302.0</ele>
        <time>2019-06-09T09:40:08+02:00</time>
      </trkpt>
      <trkpt lat="41.694669999999995" lon="1.99570167">
        <ele>302.0</ele>
        <time>2019-06-09T09:40:10+02:00</time>
      </trkpt>
      <trkpt lat="41.69461334" lon="1.9956983399999995">
        <ele>302.0</ele>
        <time>2019-06-09T09:40:12+02:00</time>
      </trkpt>
      <trkpt lat="41.69456667000001" lon="1.9956963399999998">
        <ele>302.0</ele>
        <time>2019-06-09T09:40:14+02:00</time>
      </trkpt>
      <trkpt lat="41.69452" lon="1.9956970000000003">
        <ele>301.0</ele>
        <time>2019-06-09T09:40:16+02:00</time>
      </trkpt>
      <trkpt lat="41.694473339999995" lon="1.9957">
        <ele>301.0</ele>
        <time>2019-06-09T09:40:18+02:00</time>
      </trkpt>
      <trkpt lat="41.69440834" lon="1.9957090000000002">
        <ele>301.0</ele>
        <time>2019-06-09T09:40:21+02:00</time>
      </trkpt>
      <trkpt lat="41.694341670000014" lon="1.9957189999999998">
        <ele>300.0</ele>
        <time>2019-06-09T09:40:24+02:00</time>
      </trkpt>
      <trkpt lat="41.694281669999995" lon="1.9957283399999999">
        <ele>300.0</ele>
        <time>2019-06-09T09:40:27+02:00</time>
      </trkpt>
      <trkpt lat="41.694221670000005" lon="1.9957453399999998">
        <ele>299.0</ele>
        <time>2019-06-09T09:40:30+02:00</time>
      </trkpt>
      <trkpt lat="41.69416" lon="1.995759">
        <ele>299.0</ele>
        <time>2019-06-09T09:40:33+02:00</time>
      </trkpt>
      <trkpt lat="41.69411" lon="1.99577067">
        <ele>298.0</ele>
        <time>2019-06-09T09:40:36+02:00</time>
      </trkpt>
      <trkpt lat="41.69405167" lon="1.9957870000000004">
        <ele>298.0</ele>
        <time>2019-06-09T09:40:39+02:00</time>
      </trkpt>
      <trkpt lat="41.69399500000001" lon="1.9958116699999997">
        <ele>298.0</ele>
        <time>2019-06-09T09:40:42+02:00</time>
      </trkpt>
      <trkpt lat="41.693951670000004" lon="1.9958363399999999">
        <ele>297.0</ele>
        <time>2019-06-09T09:40:44+02:00</time>
      </trkpt>
      <trkpt lat="41.69390167" lon="1.995863">
        <ele>297.0</ele>
        <time>2019-06-09T09:40:46+02:00</time>
      </trkpt>
      <trkpt lat="41.693850000000005" lon="1.9958856699999994">
        <ele>297.0</ele>
        <time>2019-06-09T09:40:48+02:00</time>
      </trkpt>
      <trkpt lat="41.693801670000006" lon="1.9959099999999999">
        <ele>297.0</ele>
        <time>2019-06-09T09:40:50+02:00</time>
      </trkpt>
      <trkpt lat="41.693753339999994" lon="1.9958933399999998">
        <ele>297.0</ele>
        <time>2019-06-09T09:40:52+02:00</time>
      </trkpt>
      <trkpt lat="41.69370667" lon="1.9958666699999998">
        <ele>297.0</ele>
        <time>2019-06-09T09:40:54+02:00</time>
      </trkpt>
      <trkpt lat="41.693664999999996" lon="1.9958416699999997">
        <ele>297.0</ele>
        <time>2019-06-09T09:40:56+02:00</time>
      </trkpt>
      <trkpt lat="41.693619999999996" lon="1.9958133400000002">
        <ele>297.0</ele>
        <time>2019-06-09T09:40:58+02:00</time>
      </trkpt>
      <trkpt lat="41.693580000000004" lon="1.99578167">
        <ele>296.0</ele>
        <time>2019-06-09T09:41:00+02:00</time>
      </trkpt>
      <trkpt lat="41.693538339999996" lon="1.9957493399999997">
        <ele>296.0</ele>
        <time>2019-06-09T09:41:02+02:00</time>
      </trkpt>
      <trkpt lat="41.69349167" lon="1.9957189999999998">
        <ele>295.0</ele>
        <time>2019-06-09T09:41:04+02:00</time>
      </trkpt>
      <trkpt lat="41.69345167" lon="1.99569034">
        <ele>295.0</ele>
        <time>2019-06-09T09:41:06+02:00</time>
      </trkpt>
      <trkpt lat="41.69340999999999" lon="1.9956610000000001">
        <ele>294.0</ele>
        <time>2019-06-09T09:41:08+02:00</time>
      </trkpt>
      <trkpt lat="41.69336833999999" lon="1.9956286699999999">
        <ele>294.0</ele>
        <time>2019-06-09T09:41:10+02:00</time>
      </trkpt>
      <trkpt lat="41.69333167" lon="1.9955903400000001">
        <ele>294.0</ele>
        <time>2019-06-09T09:41:12+02:00</time>
      </trkpt>
      <trkpt lat="41.69328334" lon="1.9954699999999999">
        <ele>294.0</ele>
        <time>2019-06-09T09:41:14+02:00</time>
      </trkpt>
      <trkpt lat="41.69325" lon="1.9954100000000001">
        <ele>294.0</ele>
        <time>2019-06-09T09:41:15+02:00</time>
      </trkpt>
      <trkpt lat="41.69321667000001" lon="1.99533834">
        <ele>294.0</ele>
        <time>2019-06-09T09:41:16+02:00</time>
      </trkpt>
      <trkpt lat="41.69318167" lon="1.9952683399999998">
        <ele>294.0</ele>
        <time>2019-06-09T09:41:17+02:00</time>
      </trkpt>
      <trkpt lat="41.693143" lon="1.9952">
        <ele>294.0</ele>
        <time>2019-06-09T09:41:18+02:00</time>
      </trkpt>
      <trkpt lat="41.693104340000005" lon="1.99514">
        <ele>294.0</ele>
        <time>2019-06-09T09:41:19+02:00</time>
      </trkpt>
      <trkpt lat="41.693067" lon="1.99508167">
        <ele>295.0</ele>
        <time>2019-06-09T09:41:20+02:00</time>
      </trkpt>
      <trkpt lat="41.69302466999999" lon="1.9950200000000002">
        <ele>295.0</ele>
        <time>2019-06-09T09:41:21+02:00</time>
      </trkpt>
      <trkpt lat="41.69298234" lon="1.9949549999999998">
        <ele>295.0</ele>
        <time>2019-06-09T09:41:22+02:00</time>
      </trkpt>
      <trkpt lat="41.692938999999996" lon="1.994885">
        <ele>295.0</ele>
        <time>2019-06-09T09:41:23+02:00</time>
      </trkpt>
      <trkpt lat="41.69289834" lon="1.9948083399999994">
        <ele>296.0</ele>
        <time>2019-06-09T09:41:24+02:00</time>
      </trkpt>
      <trkpt lat="41.69286667" lon="1.9947333399999998">
        <ele>296.0</ele>
        <time>2019-06-09T09:41:25+02:00</time>
      </trkpt>
      <trkpt lat="41.692846339999996" lon="1.99466334">
        <ele>296.0</ele>
        <time>2019-06-09T09:41:26+02:00</time>
      </trkpt>
      <trkpt lat="41.69291334" lon="1.9945666699999998">
        <ele>296.0</ele>
        <time>2019-06-09T09:41:28+02:00</time>
      </trkpt>
      <trkpt lat="41.692986669999996" lon="1.9945216699999997">
        <ele>296.0</ele>
        <time>2019-06-09T09:41:30+02:00</time>
      </trkpt>
      <trkpt lat="41.693079999999995" lon="1.9945083399999994">
        <ele>297.0</ele>
        <time>2019-06-09T09:41:32+02:00</time>
      </trkpt>
      <trkpt lat="41.693130000000004" lon="1.9945150000000003">
        <ele>297.0</ele>
        <time>2019-06-09T09:41:33+02:00</time>
      </trkpt>
      <trkpt lat="41.69318" lon="1.99453">
        <ele>297.0</ele>
        <time>2019-06-09T09:41:34+02:00</time>
      </trkpt>
      <trkpt lat="41.693225" lon="1.9945633399999998">
        <ele>298.0</ele>
        <time>2019-06-09T09:41:35+02:00</time>
      </trkpt>
      <trkpt lat="41.693268339999996" lon="1.9946099999999998">
        <ele>298.0</ele>
        <time>2019-06-09T09:41:36+02:00</time>
      </trkpt>
      <trkpt lat="41.69331334" lon="1.9946599999999997">
        <ele>298.0</ele>
        <time>2019-06-09T09:41:37+02:00</time>
      </trkpt>
      <trkpt lat="41.69336334" lon="1.99471">
        <ele>299.0</ele>
        <time>2019-06-09T09:41:38+02:00</time>
      </trkpt>
      <trkpt lat="41.693416670000005" lon="1.99476334">
        <ele>299.0</ele>
        <time>2019-06-09T09:41:39+02:00</time>
      </trkpt>
      <trkpt lat="41.69345833999999" lon="1.99482334">
        <ele>300.0</ele>
        <time>2019-06-09T09:41:40+02:00</time>
      </trkpt>
      <trkpt lat="41.693509999999996" lon="1.9948733399999998">
        <ele>300.0</ele>
        <time>2019-06-09T09:41:41+02:00</time>
      </trkpt>
      <trkpt lat="41.693565" lon="1.9949150000000002">
        <ele>300.0</ele>
        <time>2019-06-09T09:41:42+02:00</time>
      </trkpt>
      <trkpt lat="41.69361500000001" lon="1.9949560000000002">
        <ele>301.0</ele>
        <time>2019-06-09T09:41:43+02:00</time>
      </trkpt>
      <trkpt lat="41.693668339999995" lon="1.99499467">
        <ele>301.0</ele>
        <time>2019-06-09T09:41:44+02:00</time>
      </trkpt>
      <trkpt lat="41.69371834" lon="1.9950260000000004">
        <ele>302.0</ele>
        <time>2019-06-09T09:41:45+02:00</time>
      </trkpt>
      <trkpt lat="41.69376334" lon="1.99504667">
        <ele>302.0</ele>
        <time>2019-06-09T09:41:46+02:00</time>
      </trkpt>
      <trkpt lat="41.69381" lon="1.995055">
        <ele>303.0</ele>
        <time>2019-06-09T09:41:47+02:00</time>
      </trkpt>
      <trkpt lat="41.693855" lon="1.995052">
        <ele>303.0</ele>
        <time>2019-06-09T09:41:48+02:00</time>
      </trkpt>
      <trkpt lat="41.69390167" lon="1.99499334">
        <ele>304.0</ele>
        <time>2019-06-09T09:41:49+02:00</time>
      </trkpt>
      <trkpt lat="41.69395834" lon="1.9949766700000002">
        <ele>304.0</ele>
        <time>2019-06-09T09:41:50+02:00</time>
      </trkpt>
      <trkpt lat="41.69401833999999" lon="1.99496334">
        <ele>304.0</ele>
        <time>2019-06-09T09:41:51+02:00</time>
      </trkpt>
      <trkpt lat="41.69411834" lon="1.994935">
        <ele>305.0</ele>
        <time>2019-06-09T09:41:52+02:00</time>
      </trkpt>
      <trkpt lat="41.69416167000001" lon="1.9949123400000002">
        <ele>305.0</ele>
        <time>2019-06-09T09:41:53+02:00</time>
      </trkpt>
      <trkpt lat="41.694205" lon="1.9948033399999996">
        <ele>306.0</ele>
        <time>2019-06-09T09:41:55+02:00</time>
      </trkpt>
      <trkpt lat="41.694210000000005" lon="1.9946816699999999">
        <ele>307.0</ele>
        <time>2019-06-09T09:41:57+02:00</time>
      </trkpt>
      <trkpt lat="41.694210000000005" lon="1.9946133400000001">
        <ele>307.0</ele>
        <time>2019-06-09T09:41:58+02:00</time>
      </trkpt>
      <trkpt lat="41.69421834" lon="1.9945433399999994">
        <ele>307.0</ele>
        <time>2019-06-09T09:41:59+02:00</time>
      </trkpt>
      <trkpt lat="41.694221670000005" lon="1.9944700000000002">
        <ele>307.0</ele>
        <time>2019-06-09T09:42:00+02:00</time>
      </trkpt>
      <trkpt lat="41.69420167" lon="1.99437167">
        <ele>308.0</ele>
        <time>2019-06-09T09:42:02+02:00</time>
      </trkpt>
      <trkpt lat="41.69413667" lon="1.9942833399999995">
        <ele>309.0</ele>
        <time>2019-06-09T09:42:04+02:00</time>
      </trkpt>
      <trkpt lat="41.69410333999999" lon="1.99423834">
        <ele>309.0</ele>
        <time>2019-06-09T09:42:05+02:00</time>
      </trkpt>
      <trkpt lat="41.69406167" lon="1.99420167">
        <ele>309.0</ele>
        <time>2019-06-09T09:42:06+02:00</time>
      </trkpt>
      <trkpt lat="41.694015" lon="1.9941749999999998">
        <ele>309.0</ele>
        <time>2019-06-09T09:42:07+02:00</time>
      </trkpt>
      <trkpt lat="41.69397" lon="1.99416167">
        <ele>310.0</ele>
        <time>2019-06-09T09:42:08+02:00</time>
      </trkpt>
      <trkpt lat="41.693904999999994" lon="1.9941433400000002">
        <ele>311.0</ele>
        <time>2019-06-09T09:42:10+02:00</time>
      </trkpt>
      <trkpt lat="41.69385334" lon="1.9940936699999998">
        <ele>312.0</ele>
        <time>2019-06-09T09:42:13+02:00</time>
      </trkpt>
      <trkpt lat="41.69381833999999" lon="1.99405134">
        <ele>312.0</ele>
        <time>2019-06-09T09:42:15+02:00</time>
      </trkpt>
      <trkpt lat="41.693788340000005" lon="1.9939916699999998">
        <ele>312.0</ele>
        <time>2019-06-09T09:42:17+02:00</time>
      </trkpt>
      <trkpt lat="41.69377333999999" lon="1.993915">
        <ele>313.0</ele>
        <time>2019-06-09T09:42:20+02:00</time>
      </trkpt>
      <trkpt lat="41.693745" lon="1.99383834">
        <ele>313.0</ele>
        <time>2019-06-09T09:42:23+02:00</time>
      </trkpt>
      <trkpt lat="41.693740000000005" lon="1.993775">
        <ele>313.0</ele>
        <time>2019-06-09T09:42:26+02:00</time>
      </trkpt>
      <trkpt lat="41.693731" lon="1.9937049999999998">
        <ele>312.0</ele>
        <time>2019-06-09T09:42:29+02:00</time>
      </trkpt>
      <trkpt lat="41.69373033999999" lon="1.9936316699999999">
        <ele>312.0</ele>
        <time>2019-06-09T09:42:32+02:00</time>
      </trkpt>
      <trkpt lat="41.693756670000006" lon="1.9935650000000003">
        <ele>311.0</ele>
        <time>2019-06-09T09:42:35+02:00</time>
      </trkpt>
      <trkpt lat="41.69378" lon="1.9934900000000002">
        <ele>311.0</ele>
        <time>2019-06-09T09:42:38+02:00</time>
      </trkpt>
      <trkpt lat="41.69381334" lon="1.99343167">
        <ele>310.0</ele>
        <time>2019-06-09T09:42:40+02:00</time>
      </trkpt>
      <trkpt lat="41.69383667" lon="1.99336834">
        <ele>310.0</ele>
        <time>2019-06-09T09:42:42+02:00</time>
      </trkpt>
      <trkpt lat="41.69386834" lon="1.9933033399999995">
        <ele>310.0</ele>
        <time>2019-06-09T09:42:44+02:00</time>
      </trkpt>
      <trkpt lat="41.693903" lon="1.9932233399999997">
        <ele>309.0</ele>
        <time>2019-06-09T09:42:46+02:00</time>
      </trkpt>
      <trkpt lat="41.69394033999999" lon="1.99313">
        <ele>309.0</ele>
        <time>2019-06-09T09:42:48+02:00</time>
      </trkpt>
      <trkpt lat="41.69396967000001" lon="1.9930416699999998">
        <ele>309.0</ele>
        <time>2019-06-09T09:42:50+02:00</time>
      </trkpt>
      <trkpt lat="41.693996" lon="1.9929816699999996">
        <ele>309.0</ele>
        <time>2019-06-09T09:42:52+02:00</time>
      </trkpt>
      <trkpt lat="41.69401934" lon="1.9929233399999997">
        <ele>309.0</ele>
        <time>2019-06-09T09:42:54+02:00</time>
      </trkpt>
      <trkpt lat="41.694047669999996" lon="1.9928416699999996">
        <ele>309.0</ele>
        <time>2019-06-09T09:42:57+02:00</time>
      </trkpt>
      <trkpt lat="41.69407367" lon="1.9927799999999998">
        <ele>308.0</ele>
        <time>2019-06-09T09:42:59+02:00</time>
      </trkpt>
      <trkpt lat="41.694097670000005" lon="1.9927333399999996">
        <ele>308.0</ele>
        <time>2019-06-09T09:43:01+02:00</time>
      </trkpt>
      <trkpt lat="41.694132" lon="1.9926683399999994">
        <ele>308.0</ele>
        <time>2019-06-09T09:43:03+02:00</time>
      </trkpt>
      <trkpt lat="41.694167670000006" lon="1.99260667">
        <ele>307.0</ele>
        <time>2019-06-09T09:43:05+02:00</time>
      </trkpt>
      <trkpt lat="41.6942" lon="1.9925683399999996">
        <ele>307.0</ele>
        <time>2019-06-09T09:43:07+02:00</time>
      </trkpt>
      <trkpt lat="41.694308340000006" lon="1.9925549999999999">
        <ele>307.0</ele>
        <time>2019-06-09T09:43:09+02:00</time>
      </trkpt>
      <trkpt lat="41.69437833999999" lon="1.9925633399999998">
        <ele>307.0</ele>
        <time>2019-06-09T09:43:11+02:00</time>
      </trkpt>
      <trkpt lat="41.694448339999994" lon="1.99257667">
        <ele>306.0</ele>
        <time>2019-06-09T09:43:13+02:00</time>
      </trkpt>
      <trkpt lat="41.69452167000001" lon="1.992605">
        <ele>306.0</ele>
        <time>2019-06-09T09:43:15+02:00</time>
      </trkpt>
      <trkpt lat="41.69458167" lon="1.9926033399999998">
        <ele>306.0</ele>
        <time>2019-06-09T09:43:17+02:00</time>
      </trkpt>
      <trkpt lat="41.69465" lon="1.992607">
        <ele>306.0</ele>
        <time>2019-06-09T09:43:19+02:00</time>
      </trkpt>
      <trkpt lat="41.69471" lon="1.992588">
        <ele>306.0</ele>
        <time>2019-06-09T09:43:22+02:00</time>
      </trkpt>
      <trkpt lat="41.69474834" lon="1.9925450000000002">
        <ele>306.0</ele>
        <time>2019-06-09T09:43:24+02:00</time>
      </trkpt>
      <trkpt lat="41.6948" lon="1.99248667">
        <ele>306.0</ele>
        <time>2019-06-09T09:43:27+02:00</time>
      </trkpt>
      <trkpt lat="41.694840000000006" lon="1.99242667">
        <ele>306.0</ele>
        <time>2019-06-09T09:43:30+02:00</time>
      </trkpt>
      <trkpt lat="41.69486500000001" lon="1.9923616699999998">
        <ele>306.0</ele>
        <time>2019-06-09T09:43:32+02:00</time>
      </trkpt>
      <trkpt lat="41.69487167000001" lon="1.9922633400000003">
        <ele>306.0</ele>
        <time>2019-06-09T09:43:34+02:00</time>
      </trkpt>
      <trkpt lat="41.69488334" lon="1.9921900000000001">
        <ele>306.0</ele>
        <time>2019-06-09T09:43:36+02:00</time>
      </trkpt>
      <trkpt lat="41.6949" lon="1.99211334">
        <ele>305.0</ele>
        <time>2019-06-09T09:43:38+02:00</time>
      </trkpt>
      <trkpt lat="41.694923" lon="1.9920433399999997">
        <ele>305.0</ele>
        <time>2019-06-09T09:43:40+02:00</time>
      </trkpt>
      <trkpt lat="41.694943339999995" lon="1.9919900000000001">
        <ele>305.0</ele>
        <time>2019-06-09T09:43:42+02:00</time>
      </trkpt>
      <trkpt lat="41.694977" lon="1.9919249999999997">
        <ele>305.0</ele>
        <time>2019-06-09T09:43:45+02:00</time>
      </trkpt>
      <trkpt lat="41.69504" lon="1.9919033399999997">
        <ele>305.0</ele>
        <time>2019-06-09T09:43:48+02:00</time>
      </trkpt>
      <trkpt lat="41.69508834" lon="1.9918816700000002">
        <ele>305.0</ele>
        <time>2019-06-09T09:43:51+02:00</time>
      </trkpt>
      <trkpt lat="41.695145000000004" lon="1.9918599999999997">
        <ele>304.0</ele>
        <time>2019-06-09T09:43:54+02:00</time>
      </trkpt>
      <trkpt lat="41.69519834" lon="1.99183867">
        <ele>304.0</ele>
        <time>2019-06-09T09:43:57+02:00</time>
      </trkpt>
      <trkpt lat="41.69524667" lon="1.9918400000000003">
        <ele>303.0</ele>
        <time>2019-06-09T09:44:01+02:00</time>
      </trkpt>
      <trkpt lat="41.69528667000001" lon="1.9917950000000002">
        <ele>302.0</ele>
        <time>2019-06-09T09:44:05+02:00</time>
      </trkpt>
      <trkpt lat="41.695276670000005" lon="1.9917316699999996">
        <ele>301.0</ele>
        <time>2019-06-09T09:44:08+02:00</time>
      </trkpt>
      <trkpt lat="41.69524500000001" lon="1.9916583399999996">
        <ele>301.0</ele>
        <time>2019-06-09T09:44:11+02:00</time>
      </trkpt>
      <trkpt lat="41.695233339999994" lon="1.9915966699999994">
        <ele>301.0</ele>
        <time>2019-06-09T09:44:13+02:00</time>
      </trkpt>
      <trkpt lat="41.69522167000001" lon="1.99151167">
        <ele>301.0</ele>
        <time>2019-06-09T09:44:16+02:00</time>
      </trkpt>
      <trkpt lat="41.69520867" lon="1.9914299999999998">
        <ele>300.0</ele>
        <time>2019-06-09T09:44:19+02:00</time>
      </trkpt>
      <trkpt lat="41.695193" lon="1.9913616699999999">
        <ele>300.0</ele>
        <time>2019-06-09T09:44:21+02:00</time>
      </trkpt>
      <trkpt lat="41.69518" lon="1.991285">
        <ele>300.0</ele>
        <time>2019-06-09T09:44:23+02:00</time>
      </trkpt>
      <trkpt lat="41.69516433999999" lon="1.9912033399999995">
        <ele>300.0</ele>
        <time>2019-06-09T09:44:25+02:00</time>
      </trkpt>
      <trkpt lat="41.695151339999995" lon="1.9911183399999999">
        <ele>299.0</ele>
        <time>2019-06-09T09:44:27+02:00</time>
      </trkpt>
      <trkpt lat="41.695147000000006" lon="1.9910283399999997">
        <ele>299.0</ele>
        <time>2019-06-09T09:44:29+02:00</time>
      </trkpt>
      <trkpt lat="41.69519167" lon="1.9909483399999997">
        <ele>299.0</ele>
        <time>2019-06-09T09:44:31+02:00</time>
      </trkpt>
      <trkpt lat="41.69524" lon="1.99087667">
        <ele>299.0</ele>
        <time>2019-06-09T09:44:33+02:00</time>
      </trkpt>
      <trkpt lat="41.695308340000004" lon="1.99081167">
        <ele>299.0</ele>
        <time>2019-06-09T09:44:35+02:00</time>
      </trkpt>
      <trkpt lat="41.695348339999995" lon="1.9907549999999996">
        <ele>299.0</ele>
        <time>2019-06-09T09:44:37+02:00</time>
      </trkpt>
      <trkpt lat="41.695367999999995" lon="1.9906866699999999">
        <ele>298.0</ele>
        <time>2019-06-09T09:44:39+02:00</time>
      </trkpt>
      <trkpt lat="41.69536167" lon="1.99061334">
        <ele>298.0</ele>
        <time>2019-06-09T09:44:42+02:00</time>
      </trkpt>
      <trkpt lat="41.695341670000005" lon="1.9905450000000002">
        <ele>298.0</ele>
        <time>2019-06-09T09:44:45+02:00</time>
      </trkpt>
      <trkpt lat="41.69531167" lon="1.9904716699999998">
        <ele>297.0</ele>
        <time>2019-06-09T09:44:48+02:00</time>
      </trkpt>
      <trkpt lat="41.695295" lon="1.9903916699999997">
        <ele>296.0</ele>
        <time>2019-06-09T09:44:51+02:00</time>
      </trkpt>
      <trkpt lat="41.69529767" lon="1.9903233399999998">
        <ele>296.0</ele>
        <time>2019-06-09T09:44:54+02:00</time>
      </trkpt>
      <trkpt lat="41.69533667" lon="1.9902733399999994">
        <ele>295.0</ele>
        <time>2019-06-09T09:44:57+02:00</time>
      </trkpt>
      <trkpt lat="41.69538667" lon="1.9902233399999996">
        <ele>269.0</ele>
        <time>2019-06-09T09:46:13+02:00</time>
      </trkpt>
      <trkpt lat="41.69542" lon="1.9901716699999998">
        <ele>268.0</ele>
        <time>2019-06-09T09:46:15+02:00</time>
      </trkpt>
      <trkpt lat="41.69546667000001" lon="1.9900950000000002">
        <ele>267.0</ele>
        <time>2019-06-09T09:46:17+02:00</time>
      </trkpt>
      <trkpt lat="41.69551467" lon="1.99000667">
        <ele>267.0</ele>
        <time>2019-06-09T09:46:19+02:00</time>
      </trkpt>
      <trkpt lat="41.69554234" lon="1.9899233399999996">
        <ele>267.0</ele>
        <time>2019-06-09T09:46:21+02:00</time>
      </trkpt>
      <trkpt lat="41.695535" lon="1.9898333399999995">
        <ele>267.0</ele>
        <time>2019-06-09T09:46:23+02:00</time>
      </trkpt>
      <trkpt lat="41.695508339999996" lon="1.98974667">
        <ele>267.0</ele>
        <time>2019-06-09T09:46:25+02:00</time>
      </trkpt>
      <trkpt lat="41.695475" lon="1.9896666699999996">
        <ele>267.0</ele>
        <time>2019-06-09T09:46:27+02:00</time>
      </trkpt>
      <trkpt lat="41.69544834" lon="1.989595">
        <ele>267.0</ele>
        <time>2019-06-09T09:46:29+02:00</time>
      </trkpt>
      <trkpt lat="41.695434999999996" lon="1.98951834">
        <ele>267.0</ele>
        <time>2019-06-09T09:46:31+02:00</time>
      </trkpt>
      <trkpt lat="41.695432999999994" lon="1.98942834">
        <ele>267.0</ele>
        <time>2019-06-09T09:46:33+02:00</time>
      </trkpt>
      <trkpt lat="41.695436" lon="1.9893250000000002">
        <ele>267.0</ele>
        <time>2019-06-09T09:46:35+02:00</time>
      </trkpt>
      <trkpt lat="41.69545" lon="1.98922">
        <ele>267.0</ele>
        <time>2019-06-09T09:46:37+02:00</time>
      </trkpt>
      <trkpt lat="41.69546433999999" lon="1.9891633399999997">
        <ele>267.0</ele>
        <time>2019-06-09T09:46:38+02:00</time>
      </trkpt>
      <trkpt lat="41.695503339999995" lon="1.9891033399999998">
        <ele>267.0</ele>
        <time>2019-06-09T09:46:39+02:00</time>
      </trkpt>
      <trkpt lat="41.695533340000004" lon="1.9890383399999998">
        <ele>267.0</ele>
        <time>2019-06-09T09:46:40+02:00</time>
      </trkpt>
      <trkpt lat="41.695565" lon="1.98896834">
        <ele>267.0</ele>
        <time>2019-06-09T09:46:41+02:00</time>
      </trkpt>
      <trkpt lat="41.69560334" lon="1.98889334">
        <ele>267.0</ele>
        <time>2019-06-09T09:46:42+02:00</time>
      </trkpt>
      <trkpt lat="41.69564834" lon="1.98882">
        <ele>267.0</ele>
        <time>2019-06-09T09:46:43+02:00</time>
      </trkpt>
      <trkpt lat="41.69570167" lon="1.9887549999999998">
        <ele>267.0</ele>
        <time>2019-06-09T09:46:44+02:00</time>
      </trkpt>
      <trkpt lat="41.695753339999996" lon="1.98868834">
        <ele>267.0</ele>
        <time>2019-06-09T09:46:45+02:00</time>
      </trkpt>
      <trkpt lat="41.69580133999999" lon="1.988625">
        <ele>268.0</ele>
        <time>2019-06-09T09:46:46+02:00</time>
      </trkpt>
      <trkpt lat="41.69585" lon="1.9885616699999997">
        <ele>268.0</ele>
        <time>2019-06-09T09:46:47+02:00</time>
      </trkpt>
      <trkpt lat="41.69589933999999" lon="1.9885033399999998">
        <ele>268.0</ele>
        <time>2019-06-09T09:46:48+02:00</time>
      </trkpt>
      <trkpt lat="41.69594967" lon="1.9884483399999997">
        <ele>269.0</ele>
        <time>2019-06-09T09:46:49+02:00</time>
      </trkpt>
      <trkpt lat="41.69600267" lon="1.9883933399999996">
        <ele>269.0</ele>
        <time>2019-06-09T09:46:50+02:00</time>
      </trkpt>
      <trkpt lat="41.696057339999996" lon="1.9883383399999996">
        <ele>269.0</ele>
        <time>2019-06-09T09:46:51+02:00</time>
      </trkpt>
      <trkpt lat="41.69614167000001" lon="1.98829">
        <ele>270.0</ele>
        <time>2019-06-09T09:46:52+02:00</time>
      </trkpt>
      <trkpt lat="41.69621" lon="1.98819667">
        <ele>270.0</ele>
        <time>2019-06-09T09:46:53+02:00</time>
      </trkpt>
      <trkpt lat="41.696270000000005" lon="1.9881199999999999">
        <ele>270.0</ele>
        <time>2019-06-09T09:46:54+02:00</time>
      </trkpt>
      <trkpt lat="41.69633167" lon="1.98803634">
        <ele>271.0</ele>
        <time>2019-06-09T09:46:55+02:00</time>
      </trkpt>
      <trkpt lat="41.69638833999999" lon="1.9879479999999998">
        <ele>271.0</ele>
        <time>2019-06-09T09:46:56+02:00</time>
      </trkpt>
      <trkpt lat="41.696456669999996" lon="1.9878579999999997">
        <ele>272.0</ele>
        <time>2019-06-09T09:46:57+02:00</time>
      </trkpt>
      <trkpt lat="41.69651667" lon="1.9877776699999998">
        <ele>272.0</ele>
        <time>2019-06-09T09:46:58+02:00</time>
      </trkpt>
      <trkpt lat="41.69656334" lon="1.9876749999999999">
        <ele>273.0</ele>
        <time>2019-06-09T09:46:59+02:00</time>
      </trkpt>
      <trkpt lat="41.696608" lon="1.9875816700000002">
        <ele>273.0</ele>
        <time>2019-06-09T09:47:00+02:00</time>
      </trkpt>
      <trkpt lat="41.69665934" lon="1.9875083399999998">
        <ele>274.0</ele>
        <time>2019-06-09T09:47:01+02:00</time>
      </trkpt>
      <trkpt lat="41.696715999999995" lon="1.987435">
        <ele>274.0</ele>
        <time>2019-06-09T09:47:02+02:00</time>
      </trkpt>
      <trkpt lat="41.69679333999999" lon="1.9873766700000002">
        <ele>275.0</ele>
        <time>2019-06-09T09:47:03+02:00</time>
      </trkpt>
      <trkpt lat="41.69686834" lon="1.9873179999999997">
        <ele>275.0</ele>
        <time>2019-06-09T09:47:04+02:00</time>
      </trkpt>
      <trkpt lat="41.696938339999996" lon="1.9872660000000004">
        <ele>276.0</ele>
        <time>2019-06-09T09:47:05+02:00</time>
      </trkpt>
      <trkpt lat="41.697001670000006" lon="1.9872319999999999">
        <ele>276.0</ele>
        <time>2019-06-09T09:47:06+02:00</time>
      </trkpt>
      <trkpt lat="41.697066670000005" lon="1.9872433399999998">
        <ele>277.0</ele>
        <time>2019-06-09T09:47:07+02:00</time>
      </trkpt>
      <trkpt lat="41.69713" lon="1.9872633400000002">
        <ele>277.0</ele>
        <time>2019-06-09T09:47:08+02:00</time>
      </trkpt>
      <trkpt lat="41.69719334" lon="1.9873333399999997">
        <ele>278.0</ele>
        <time>2019-06-09T09:47:09+02:00</time>
      </trkpt>
      <trkpt lat="41.697253339999996" lon="1.9874133399999998">
        <ele>278.0</ele>
        <time>2019-06-09T09:47:10+02:00</time>
      </trkpt>
      <trkpt lat="41.697295" lon="1.9874966699999999">
        <ele>279.0</ele>
        <time>2019-06-09T09:47:11+02:00</time>
      </trkpt>
      <trkpt lat="41.697363339999995" lon="1.9875700000000003">
        <ele>279.0</ele>
        <time>2019-06-09T09:47:12+02:00</time>
      </trkpt>
      <trkpt lat="41.697388339999996" lon="1.98768667">
        <ele>280.0</ele>
        <time>2019-06-09T09:47:13+02:00</time>
      </trkpt>
      <trkpt lat="41.69746833999999" lon="1.98770467">
        <ele>281.0</ele>
        <time>2019-06-09T09:47:15+02:00</time>
      </trkpt>
      <trkpt lat="41.697545000000005" lon="1.9876966699999996">
        <ele>281.0</ele>
        <time>2019-06-09T09:47:16+02:00</time>
      </trkpt>
      <trkpt lat="41.69767834" lon="1.9876656699999997">
        <ele>282.0</ele>
        <time>2019-06-09T09:47:17+02:00</time>
      </trkpt>
      <trkpt lat="41.697756670000004" lon="1.98765067">
        <ele>282.0</ele>
        <time>2019-06-09T09:47:18+02:00</time>
      </trkpt>
      <trkpt lat="41.69784334" lon="1.9876569999999998">
        <ele>283.0</ele>
        <time>2019-06-09T09:47:19+02:00</time>
      </trkpt>
      <trkpt lat="41.697919999999996" lon="1.9876686700000001">
        <ele>283.0</ele>
        <time>2019-06-09T09:47:20+02:00</time>
      </trkpt>
      <trkpt lat="41.69799667000001" lon="1.98768834">
        <ele>283.0</ele>
        <time>2019-06-09T09:47:21+02:00</time>
      </trkpt>
      <trkpt lat="41.698069999999994" lon="1.9877193399999995">
        <ele>284.0</ele>
        <time>2019-06-09T09:47:22+02:00</time>
      </trkpt>
      <trkpt lat="41.698141670000005" lon="1.9877540000000002">
        <ele>284.0</ele>
        <time>2019-06-09T09:47:23+02:00</time>
      </trkpt>
      <trkpt lat="41.698218340000004" lon="1.98779067">
        <ele>284.0</ele>
        <time>2019-06-09T09:47:24+02:00</time>
      </trkpt>
      <trkpt lat="41.69829167000001" lon="1.9878209999999998">
        <ele>285.0</ele>
        <time>2019-06-09T09:47:25+02:00</time>
      </trkpt>
      <trkpt lat="41.69835833999999" lon="1.9878423399999998">
        <ele>285.0</ele>
        <time>2019-06-09T09:47:26+02:00</time>
      </trkpt>
      <trkpt lat="41.69842167" lon="1.9878579999999997">
        <ele>285.0</ele>
        <time>2019-06-09T09:47:27+02:00</time>
      </trkpt>
      <trkpt lat="41.69848667" lon="1.9878700000000002">
        <ele>286.0</ele>
        <time>2019-06-09T09:47:28+02:00</time>
      </trkpt>
      <trkpt lat="41.69854334" lon="1.9878820000000001">
        <ele>286.0</ele>
        <time>2019-06-09T09:47:29+02:00</time>
      </trkpt>
      <trkpt lat="41.698593339999995" lon="1.9878806699999998">
        <ele>286.0</ele>
        <time>2019-06-09T09:47:30+02:00</time>
      </trkpt>
      <trkpt lat="41.69861667" lon="1.9878683399999997">
        <ele>287.0</ele>
        <time>2019-06-09T09:47:31+02:00</time>
      </trkpt>
      <trkpt lat="41.69860834" lon="1.987695">
        <ele>287.0</ele>
        <time>2019-06-09T09:47:33+02:00</time>
      </trkpt>
      <trkpt lat="41.69858167" lon="1.9876183399999996">
        <ele>288.0</ele>
        <time>2019-06-09T09:47:35+02:00</time>
      </trkpt>
      <trkpt lat="41.698546670000006" lon="1.9875349999999998">
        <ele>289.0</ele>
        <time>2019-06-09T09:47:37+02:00</time>
      </trkpt>
      <trkpt lat="41.69851833999999" lon="1.9874633400000001">
        <ele>289.0</ele>
        <time>2019-06-09T09:47:39+02:00</time>
      </trkpt>
      <trkpt lat="41.698478339999994" lon="1.9874083399999996">
        <ele>289.0</ele>
        <time>2019-06-09T09:47:41+02:00</time>
      </trkpt>
      <trkpt lat="41.69843667" lon="1.9873550000000002">
        <ele>289.0</ele>
        <time>2019-06-09T09:47:43+02:00</time>
      </trkpt>
      <trkpt lat="41.69839" lon="1.9872999999999998">
        <ele>289.0</ele>
        <time>2019-06-09T09:47:45+02:00</time>
      </trkpt>
      <trkpt lat="41.698341670000005" lon="1.9872466699999998">
        <ele>289.0</ele>
        <time>2019-06-09T09:47:47+02:00</time>
      </trkpt>
      <trkpt lat="41.698294999999995" lon="1.98719">
        <ele>289.0</ele>
        <time>2019-06-09T09:47:49+02:00</time>
      </trkpt>
      <trkpt lat="41.69825267" lon="1.9871216699999998">
        <ele>289.0</ele>
        <time>2019-06-09T09:47:51+02:00</time>
      </trkpt>
      <trkpt lat="41.69821767" lon="1.9870483399999999">
        <ele>289.0</ele>
        <time>2019-06-09T09:47:53+02:00</time>
      </trkpt>
      <trkpt lat="41.69818099999999" lon="1.9869599999999998">
        <ele>289.0</ele>
        <time>2019-06-09T09:47:55+02:00</time>
      </trkpt>
      <trkpt lat="41.698147000000006" lon="1.98686667">
        <ele>289.0</ele>
        <time>2019-06-09T09:47:57+02:00</time>
      </trkpt>
      <trkpt lat="41.698116" lon="1.9867683399999998">
        <ele>289.0</ele>
        <time>2019-06-09T09:47:59+02:00</time>
      </trkpt>
      <trkpt lat="41.698088670000004" lon="1.9866683399999996">
        <ele>289.0</ele>
        <time>2019-06-09T09:48:01+02:00</time>
      </trkpt>
      <trkpt lat="41.698071" lon="1.9865733399999996">
        <ele>289.0</ele>
        <time>2019-06-09T09:48:03+02:00</time>
      </trkpt>
      <trkpt lat="41.698055999999994" lon="1.9864733399999999">
        <ele>289.0</ele>
        <time>2019-06-09T09:48:05+02:00</time>
      </trkpt>
      <trkpt lat="41.698047339999995" lon="1.98636667">
        <ele>289.0</ele>
        <time>2019-06-09T09:48:07+02:00</time>
      </trkpt>
      <trkpt lat="41.69812334" lon="1.9862683399999999">
        <ele>288.0</ele>
        <time>2019-06-09T09:48:09+02:00</time>
      </trkpt>
      <trkpt lat="41.69817334" lon="1.98618167">
        <ele>288.0</ele>
        <time>2019-06-09T09:48:11+02:00</time>
      </trkpt>
      <trkpt lat="41.69820834" lon="1.98614334">
        <ele>288.0</ele>
        <time>2019-06-09T09:48:12+02:00</time>
      </trkpt>
      <trkpt lat="41.698249999999994" lon="1.9861033399999997">
        <ele>288.0</ele>
        <time>2019-06-09T09:48:13+02:00</time>
      </trkpt>
      <trkpt lat="41.69828334" lon="1.98605667">
        <ele>288.0</ele>
        <time>2019-06-09T09:48:14+02:00</time>
      </trkpt>
      <trkpt lat="41.698319670000004" lon="1.9859533399999996">
        <ele>288.0</ele>
        <time>2019-06-09T09:48:16+02:00</time>
      </trkpt>
      <trkpt lat="41.69832734" lon="1.9858349999999998">
        <ele>288.0</ele>
        <time>2019-06-09T09:48:18+02:00</time>
      </trkpt>
      <trkpt lat="41.698315" lon="1.9857716699999997">
        <ele>288.0</ele>
        <time>2019-06-09T09:48:19+02:00</time>
      </trkpt>
      <trkpt lat="41.69830334" lon="1.9857066700000001">
        <ele>288.0</ele>
        <time>2019-06-09T09:48:20+02:00</time>
      </trkpt>
      <trkpt lat="41.69828834" lon="1.9856466699999995">
        <ele>288.0</ele>
        <time>2019-06-09T09:48:21+02:00</time>
      </trkpt>
      <trkpt lat="41.69827" lon="1.98558834">
        <ele>288.0</ele>
        <time>2019-06-09T09:48:22+02:00</time>
      </trkpt>
      <trkpt lat="41.698249999999994" lon="1.9855266699999998">
        <ele>288.0</ele>
        <time>2019-06-09T09:48:23+02:00</time>
      </trkpt>
      <trkpt lat="41.698229999999995" lon="1.9854583399999997">
        <ele>288.0</ele>
        <time>2019-06-09T09:48:24+02:00</time>
      </trkpt>
      <trkpt lat="41.698204999999994" lon="1.98538834">
        <ele>288.0</ele>
        <time>2019-06-09T09:48:25+02:00</time>
      </trkpt>
      <trkpt lat="41.698181670000004" lon="1.9853200000000002">
        <ele>288.0</ele>
        <time>2019-06-09T09:48:26+02:00</time>
      </trkpt>
      <trkpt lat="41.69815834" lon="1.98525">
        <ele>288.0</ele>
        <time>2019-06-09T09:48:27+02:00</time>
      </trkpt>
      <trkpt lat="41.69813567" lon="1.985185">
        <ele>288.0</ele>
        <time>2019-06-09T09:48:28+02:00</time>
      </trkpt>
      <trkpt lat="41.698111" lon="1.9851216699999998">
        <ele>288.0</ele>
        <time>2019-06-09T09:48:29+02:00</time>
      </trkpt>
      <trkpt lat="41.698083" lon="1.9850583399999997">
        <ele>288.0</ele>
        <time>2019-06-09T09:48:30+02:00</time>
      </trkpt>
      <trkpt lat="41.69805233999999" lon="1.9849983399999995">
        <ele>288.0</ele>
        <time>2019-06-09T09:48:31+02:00</time>
      </trkpt>
      <trkpt lat="41.69801799999999" lon="1.98493834">
        <ele>288.0</ele>
        <time>2019-06-09T09:48:32+02:00</time>
      </trkpt>
      <trkpt lat="41.69798267" lon="1.9848833399999997">
        <ele>288.0</ele>
        <time>2019-06-09T09:48:33+02:00</time>
      </trkpt>
      <trkpt lat="41.69794634" lon="1.984825">
        <ele>288.0</ele>
        <time>2019-06-09T09:48:34+02:00</time>
      </trkpt>
      <trkpt lat="41.69790667" lon="1.9847616699999997">
        <ele>288.0</ele>
        <time>2019-06-09T09:48:35+02:00</time>
      </trkpt>
      <trkpt lat="41.697868670000005" lon="1.98468834">
        <ele>288.0</ele>
        <time>2019-06-09T09:48:36+02:00</time>
      </trkpt>
      <trkpt lat="41.697833" lon="1.98461">
        <ele>288.0</ele>
        <time>2019-06-09T09:48:37+02:00</time>
      </trkpt>
      <trkpt lat="41.697804" lon="1.9845300000000001">
        <ele>288.0</ele>
        <time>2019-06-09T09:48:38+02:00</time>
      </trkpt>
      <trkpt lat="41.69777700000001" lon="1.9844433399999997">
        <ele>288.0</ele>
        <time>2019-06-09T09:48:39+02:00</time>
      </trkpt>
      <trkpt lat="41.69775533999999" lon="1.9843583399999993">
        <ele>288.0</ele>
        <time>2019-06-09T09:48:40+02:00</time>
      </trkpt>
      <trkpt lat="41.697745999999995" lon="1.9842833399999997">
        <ele>288.0</ele>
        <time>2019-06-09T09:48:41+02:00</time>
      </trkpt>
      <trkpt lat="41.69783667" lon="1.98421667">
        <ele>288.0</ele>
        <time>2019-06-09T09:48:42+02:00</time>
      </trkpt>
      <trkpt lat="41.69786834" lon="1.9841633399999998">
        <ele>288.0</ele>
        <time>2019-06-09T09:48:43+02:00</time>
      </trkpt>
      <trkpt lat="41.69791167" lon="1.9841216699999997">
        <ele>288.0</ele>
        <time>2019-06-09T09:48:44+02:00</time>
      </trkpt>
      <trkpt lat="41.69796667000001" lon="1.9840833399999998">
        <ele>288.0</ele>
        <time>2019-06-09T09:48:45+02:00</time>
      </trkpt>
      <trkpt lat="41.698015" lon="1.9840700000000002">
        <ele>288.0</ele>
        <time>2019-06-09T09:48:46+02:00</time>
      </trkpt>
      <trkpt lat="41.69806834" lon="1.9840533399999998">
        <ele>288.0</ele>
        <time>2019-06-09T09:48:47+02:00</time>
      </trkpt>
      <trkpt lat="41.69812667" lon="1.9840366699999996">
        <ele>288.0</ele>
        <time>2019-06-09T09:48:48+02:00</time>
      </trkpt>
      <trkpt lat="41.698188339999994" lon="1.9840166699999997">
        <ele>288.0</ele>
        <time>2019-06-09T09:48:49+02:00</time>
      </trkpt>
      <trkpt lat="41.698251670000005" lon="1.98400167">
        <ele>288.0</ele>
        <time>2019-06-09T09:48:50+02:00</time>
      </trkpt>
      <trkpt lat="41.698315" lon="1.9839849999999999">
        <ele>288.0</ele>
        <time>2019-06-09T09:48:51+02:00</time>
      </trkpt>
      <trkpt lat="41.698375" lon="1.9839683399999999">
        <ele>288.0</ele>
        <time>2019-06-09T09:48:52+02:00</time>
      </trkpt>
      <trkpt lat="41.698435" lon="1.98394834">
        <ele>288.0</ele>
        <time>2019-06-09T09:48:53+02:00</time>
      </trkpt>
      <trkpt lat="41.698493340000006" lon="1.9839310000000001">
        <ele>288.0</ele>
        <time>2019-06-09T09:48:54+02:00</time>
      </trkpt>
      <trkpt lat="41.698544999999996" lon="1.983914">
        <ele>288.0</ele>
        <time>2019-06-09T09:48:55+02:00</time>
      </trkpt>
      <trkpt lat="41.698585" lon="1.9838916699999998">
        <ele>288.0</ele>
        <time>2019-06-09T09:48:56+02:00</time>
      </trkpt>
      <trkpt lat="41.698611670000005" lon="1.98385067">
        <ele>288.0</ele>
        <time>2019-06-09T09:48:58+02:00</time>
      </trkpt>
      <trkpt lat="41.698585" lon="1.9837216699999995">
        <ele>288.0</ele>
        <time>2019-06-09T09:49:00+02:00</time>
      </trkpt>
      <trkpt lat="41.69853167" lon="1.9836266700000003">
        <ele>289.0</ele>
        <time>2019-06-09T09:49:02+02:00</time>
      </trkpt>
      <trkpt lat="41.69847334" lon="1.98355">
        <ele>289.0</ele>
        <time>2019-06-09T09:49:04+02:00</time>
      </trkpt>
      <trkpt lat="41.698458339999995" lon="1.98347">
        <ele>289.0</ele>
        <time>2019-06-09T09:49:06+02:00</time>
      </trkpt>
      <trkpt lat="41.69848834" lon="1.98341">
        <ele>289.0</ele>
        <time>2019-06-09T09:49:08+02:00</time>
      </trkpt>
      <trkpt lat="41.698544999999996" lon="1.9833916699999996">
        <ele>289.0</ele>
        <time>2019-06-09T09:49:10+02:00</time>
      </trkpt>
      <trkpt lat="41.698609999999995" lon="1.9834066700000001">
        <ele>289.0</ele>
        <time>2019-06-09T09:49:12+02:00</time>
      </trkpt>
      <trkpt lat="41.698675" lon="1.9834633399999997">
        <ele>289.0</ele>
        <time>2019-06-09T09:49:14+02:00</time>
      </trkpt>
      <trkpt lat="41.69874167" lon="1.98352834">
        <ele>289.0</ele>
        <time>2019-06-09T09:49:16+02:00</time>
      </trkpt>
      <trkpt lat="41.698815" lon="1.9835616699999996">
        <ele>289.0</ele>
        <time>2019-06-09T09:49:18+02:00</time>
      </trkpt>
      <trkpt lat="41.698901670000005" lon="1.9835549999999997">
        <ele>289.0</ele>
        <time>2019-06-09T09:49:20+02:00</time>
      </trkpt>
      <trkpt lat="41.698949999999996" lon="1.9835443399999995">
        <ele>289.0</ele>
        <time>2019-06-09T09:49:21+02:00</time>
      </trkpt>
      <trkpt lat="41.698998339999996" lon="1.9835279999999997">
        <ele>289.0</ele>
        <time>2019-06-09T09:49:22+02:00</time>
      </trkpt>
      <trkpt lat="41.69907" lon="1.98345667">
        <ele>290.0</ele>
        <time>2019-06-09T09:49:24+02:00</time>
      </trkpt>
      <trkpt lat="41.69911667" lon="1.9833666699999999">
        <ele>290.0</ele>
        <time>2019-06-09T09:49:26+02:00</time>
      </trkpt>
      <trkpt lat="41.699121670000004" lon="1.9832533399999996">
        <ele>290.0</ele>
        <time>2019-06-09T09:49:28+02:00</time>
      </trkpt>
      <trkpt lat="41.69909667" lon="1.9831499999999997">
        <ele>291.0</ele>
        <time>2019-06-09T09:49:30+02:00</time>
      </trkpt>
      <trkpt lat="41.699076670000004" lon="1.9830900000000002">
        <ele>291.0</ele>
        <time>2019-06-09T09:49:32+02:00</time>
      </trkpt>
      <trkpt lat="41.699043339999996" lon="1.983025">
        <ele>291.0</ele>
        <time>2019-06-09T09:49:34+02:00</time>
      </trkpt>
      <trkpt lat="41.69900667" lon="1.98292">
        <ele>291.0</ele>
        <time>2019-06-09T09:49:36+02:00</time>
      </trkpt>
      <trkpt lat="41.69899334" lon="1.982845">
        <ele>291.0</ele>
        <time>2019-06-09T09:49:37+02:00</time>
      </trkpt>
      <trkpt lat="41.69898267" lon="1.9827683399999998">
        <ele>292.0</ele>
        <time>2019-06-09T09:49:38+02:00</time>
      </trkpt>
      <trkpt lat="41.69897233999999" lon="1.9826816700000003">
        <ele>292.0</ele>
        <time>2019-06-09T09:49:39+02:00</time>
      </trkpt>
      <trkpt lat="41.698965339999994" lon="1.98258834">
        <ele>292.0</ele>
        <time>2019-06-09T09:49:40+02:00</time>
      </trkpt>
      <trkpt lat="41.698968" lon="1.9824950000000001">
        <ele>292.0</ele>
        <time>2019-06-09T09:49:41+02:00</time>
      </trkpt>
      <trkpt lat="41.69897834" lon="1.9824066699999996">
        <ele>292.0</ele>
        <time>2019-06-09T09:49:42+02:00</time>
      </trkpt>
      <trkpt lat="41.698995000000004" lon="1.9823266699999997">
        <ele>292.0</ele>
        <time>2019-06-09T09:49:43+02:00</time>
      </trkpt>
      <trkpt lat="41.69905834" lon="1.9822516700000001">
        <ele>292.0</ele>
        <time>2019-06-09T09:49:44+02:00</time>
      </trkpt>
      <trkpt lat="41.69909834" lon="1.98218">
        <ele>292.0</ele>
        <time>2019-06-09T09:49:45+02:00</time>
      </trkpt>
      <trkpt lat="41.69914167" lon="1.9821066699999998">
        <ele>292.0</ele>
        <time>2019-06-09T09:49:46+02:00</time>
      </trkpt>
      <trkpt lat="41.699185" lon="1.98203">
        <ele>292.0</ele>
        <time>2019-06-09T09:49:47+02:00</time>
      </trkpt>
      <trkpt lat="41.699259999999995" lon="1.9819433399999997">
        <ele>292.0</ele>
        <time>2019-06-09T09:49:48+02:00</time>
      </trkpt>
      <trkpt lat="41.69931167000001" lon="1.98185167">
        <ele>292.0</ele>
        <time>2019-06-09T09:49:49+02:00</time>
      </trkpt>
      <trkpt lat="41.69936500000001" lon="1.9817666699999996">
        <ele>292.0</ele>
        <time>2019-06-09T09:49:50+02:00</time>
      </trkpt>
      <trkpt lat="41.699418339999994" lon="1.9816916699999996">
        <ele>292.0</ele>
        <time>2019-06-09T09:49:51+02:00</time>
      </trkpt>
      <trkpt lat="41.69947167" lon="1.9816500000000001">
        <ele>292.0</ele>
        <time>2019-06-09T09:49:52+02:00</time>
      </trkpt>
      <trkpt lat="41.69955" lon="1.9816416699999997">
        <ele>292.0</ele>
        <time>2019-06-09T09:49:54+02:00</time>
      </trkpt>
      <trkpt lat="41.699576670000006" lon="1.9817050000000003">
        <ele>292.0</ele>
        <time>2019-06-09T09:49:55+02:00</time>
      </trkpt>
      <trkpt lat="41.69957000000001" lon="1.98163834">
        <ele>292.0</ele>
        <time>2019-06-09T09:49:57+02:00</time>
      </trkpt>
      <trkpt lat="41.69957833999999" lon="1.9815683399999997">
        <ele>292.0</ele>
        <time>2019-06-09T09:49:59+02:00</time>
      </trkpt>
      <trkpt lat="41.69954" lon="1.9814983399999995">
        <ele>292.0</ele>
        <time>2019-06-09T09:50:01+02:00</time>
      </trkpt>
      <trkpt lat="41.69950834" lon="1.9814066699999997">
        <ele>292.0</ele>
        <time>2019-06-09T09:50:03+02:00</time>
      </trkpt>
      <trkpt lat="41.69947834" lon="1.9813183399999996">
        <ele>292.0</ele>
        <time>2019-06-09T09:50:05+02:00</time>
      </trkpt>
      <trkpt lat="41.69946" lon="1.98125">
        <ele>292.0</ele>
        <time>2019-06-09T09:50:07+02:00</time>
      </trkpt>
      <trkpt lat="41.699454339999996" lon="1.9811833399999994">
        <ele>292.0</ele>
        <time>2019-06-09T09:50:09+02:00</time>
      </trkpt>
      <trkpt lat="41.699459669999996" lon="1.9811150000000004">
        <ele>292.0</ele>
        <time>2019-06-09T09:50:11+02:00</time>
      </trkpt>
      <trkpt lat="41.69947067" lon="1.98103667">
        <ele>292.0</ele>
        <time>2019-06-09T09:50:13+02:00</time>
      </trkpt>
      <trkpt lat="41.69948567" lon="1.98095167">
        <ele>291.0</ele>
        <time>2019-06-09T09:50:15+02:00</time>
      </trkpt>
      <trkpt lat="41.69950367" lon="1.9808733399999998">
        <ele>291.0</ele>
        <time>2019-06-09T09:50:17+02:00</time>
      </trkpt>
      <trkpt lat="41.69953667" lon="1.9808033399999996">
        <ele>247.0</ele>
        <time>2019-06-09T09:52:38+02:00</time>
      </trkpt>
      <trkpt lat="41.699531670000006" lon="1.9807383399999998">
        <ele>246.0</ele>
        <time>2019-06-09T09:52:42+02:00</time>
      </trkpt>
      <trkpt lat="41.699513339999996" lon="1.9806650000000001">
        <ele>245.0</ele>
        <time>2019-06-09T09:52:45+02:00</time>
      </trkpt>
      <trkpt lat="41.6995" lon="1.980605">
        <ele>245.0</ele>
        <time>2019-06-09T09:52:47+02:00</time>
      </trkpt>
      <trkpt lat="41.69947467" lon="1.9805266699999997">
        <ele>245.0</ele>
        <time>2019-06-09T09:52:50+02:00</time>
      </trkpt>
      <trkpt lat="41.69945267" lon="1.9804766699999998">
        <ele>245.0</ele>
        <time>2019-06-09T09:52:52+02:00</time>
      </trkpt>
      <trkpt lat="41.69942633999999" lon="1.9804183399999995">
        <ele>245.0</ele>
        <time>2019-06-09T09:52:54+02:00</time>
      </trkpt>
      <trkpt lat="41.69940034" lon="1.98036167">
        <ele>245.0</ele>
        <time>2019-06-09T09:52:56+02:00</time>
      </trkpt>
      <trkpt lat="41.69937367000001" lon="1.98030834">
        <ele>245.0</ele>
        <time>2019-06-09T09:52:58+02:00</time>
      </trkpt>
      <trkpt lat="41.699347339999996" lon="1.98025667">
        <ele>245.0</ele>
        <time>2019-06-09T09:53:00+02:00</time>
      </trkpt>
      <trkpt lat="41.69931367" lon="1.98017667">
        <ele>245.0</ele>
        <time>2019-06-09T09:53:03+02:00</time>
      </trkpt>
      <trkpt lat="41.69928366999999" lon="1.9801033399999999">
        <ele>245.0</ele>
        <time>2019-06-09T09:53:06+02:00</time>
      </trkpt>
      <trkpt lat="41.699262" lon="1.9800483399999997">
        <ele>245.0</ele>
        <time>2019-06-09T09:53:08+02:00</time>
      </trkpt>
      <trkpt lat="41.699240339999996" lon="1.9799933399999996">
        <ele>245.0</ele>
        <time>2019-06-09T09:53:10+02:00</time>
      </trkpt>
      <trkpt lat="41.69921734" lon="1.97993834">
        <ele>245.0</ele>
        <time>2019-06-09T09:53:12+02:00</time>
      </trkpt>
      <trkpt lat="41.69918867" lon="1.9798733399999997">
        <ele>245.0</ele>
        <time>2019-06-09T09:53:14+02:00</time>
      </trkpt>
      <trkpt lat="41.69916500000001" lon="1.97981834">
        <ele>245.0</ele>
        <time>2019-06-09T09:53:16+02:00</time>
      </trkpt>
      <trkpt lat="41.69913967000001" lon="1.9797583399999996">
        <ele>245.0</ele>
        <time>2019-06-09T09:53:18+02:00</time>
      </trkpt>
      <trkpt lat="41.69911367000001" lon="1.9796966699999998">
        <ele>245.0</ele>
        <time>2019-06-09T09:53:20+02:00</time>
      </trkpt>
      <trkpt lat="41.69908433999999" lon="1.97962834">
        <ele>245.0</ele>
        <time>2019-06-09T09:53:23+02:00</time>
      </trkpt>
      <trkpt lat="41.69905967000001" lon="1.9795766699999997">
        <ele>245.0</ele>
        <time>2019-06-09T09:53:25+02:00</time>
      </trkpt>
      <trkpt lat="41.69903000000001" lon="1.97950667">
        <ele>245.0</ele>
        <time>2019-06-09T09:53:28+02:00</time>
      </trkpt>
      <trkpt lat="41.69899767" lon="1.9794233399999999">
        <ele>246.0</ele>
        <time>2019-06-09T09:53:31+02:00</time>
      </trkpt>
      <trkpt lat="41.698975669999996" lon="1.9793633399999997">
        <ele>246.0</ele>
        <time>2019-06-09T09:53:33+02:00</time>
      </trkpt>
      <trkpt lat="41.69894867" lon="1.9792900000000002">
        <ele>247.0</ele>
        <time>2019-06-09T09:53:35+02:00</time>
      </trkpt>
      <trkpt lat="41.698927999999995" lon="1.9792216699999998">
        <ele>247.0</ele>
        <time>2019-06-09T09:53:37+02:00</time>
      </trkpt>
      <trkpt lat="41.69890367" lon="1.9791516699999998">
        <ele>247.0</ele>
        <time>2019-06-09T09:53:39+02:00</time>
      </trkpt>
      <trkpt lat="41.698884" lon="1.9790833399999996">
        <ele>248.0</ele>
        <time>2019-06-09T09:53:41+02:00</time>
      </trkpt>
      <trkpt lat="41.69886367000001" lon="1.9790083399999996">
        <ele>248.0</ele>
        <time>2019-06-09T09:53:43+02:00</time>
      </trkpt>
      <trkpt lat="41.698841670000014" lon="1.9789266700000003">
        <ele>249.0</ele>
        <time>2019-06-09T09:53:45+02:00</time>
      </trkpt>
      <trkpt lat="41.698821339999995" lon="1.9788466699999998">
        <ele>249.0</ele>
        <time>2019-06-09T09:53:47+02:00</time>
      </trkpt>
      <trkpt lat="41.69880500000001" lon="1.9787633399999998">
        <ele>250.0</ele>
        <time>2019-06-09T09:53:49+02:00</time>
      </trkpt>
      <trkpt lat="41.69878934" lon="1.9786750000000002">
        <ele>251.0</ele>
        <time>2019-06-09T09:53:51+02:00</time>
      </trkpt>
      <trkpt lat="41.69877734" lon="1.9785916699999997">
        <ele>251.0</ele>
        <time>2019-06-09T09:53:53+02:00</time>
      </trkpt>
      <trkpt lat="41.69877399999999" lon="1.9785150000000002">
        <ele>252.0</ele>
        <time>2019-06-09T09:53:55+02:00</time>
      </trkpt>
      <trkpt lat="41.69877133999999" lon="1.9784483399999995">
        <ele>253.0</ele>
        <time>2019-06-09T09:53:57+02:00</time>
      </trkpt>
      <trkpt lat="41.698938340000005" lon="1.9783866699999997">
        <ele>253.0</ele>
        <time>2019-06-09T09:53:59+02:00</time>
      </trkpt>
      <trkpt lat="41.698958340000004" lon="1.9783233399999998">
        <ele>253.0</ele>
        <time>2019-06-09T09:54:01+02:00</time>
      </trkpt>
      <trkpt lat="41.698980670000005" lon="1.9782633400000003">
        <ele>254.0</ele>
        <time>2019-06-09T09:54:03+02:00</time>
      </trkpt>
      <trkpt lat="41.69900467000001" lon="1.9782033399999996">
        <ele>254.0</ele>
        <time>2019-06-09T09:54:05+02:00</time>
      </trkpt>
      <trkpt lat="41.699031670000004" lon="1.9781533399999993">
        <ele>254.0</ele>
        <time>2019-06-09T09:54:07+02:00</time>
      </trkpt>
      <trkpt lat="41.699061" lon="1.9781033399999994">
        <ele>255.0</ele>
        <time>2019-06-09T09:54:09+02:00</time>
      </trkpt>
      <trkpt lat="41.69909267" lon="1.97805167">
        <ele>255.0</ele>
        <time>2019-06-09T09:54:11+02:00</time>
      </trkpt>
      <trkpt lat="41.699126670000005" lon="1.97800167">
        <ele>255.0</ele>
        <time>2019-06-09T09:54:13+02:00</time>
      </trkpt>
      <trkpt lat="41.69918" lon="1.977965">
        <ele>256.0</ele>
        <time>2019-06-09T09:54:15+02:00</time>
      </trkpt>
      <trkpt lat="41.69922167000001" lon="1.97792">
        <ele>256.0</ele>
        <time>2019-06-09T09:54:17+02:00</time>
      </trkpt>
      <trkpt lat="41.699270000000006" lon="1.9778833399999995">
        <ele>257.0</ele>
        <time>2019-06-09T09:54:19+02:00</time>
      </trkpt>
      <trkpt lat="41.699313339999996" lon="1.9778473399999998">
        <ele>258.0</ele>
        <time>2019-06-09T09:54:21+02:00</time>
      </trkpt>
      <trkpt lat="41.69935667" lon="1.9778143399999997">
        <ele>258.0</ele>
        <time>2019-06-09T09:54:23+02:00</time>
      </trkpt>
      <trkpt lat="41.69940667000001" lon="1.9777689999999999">
        <ele>259.0</ele>
        <time>2019-06-09T09:54:26+02:00</time>
      </trkpt>
      <trkpt lat="41.69943833999999" lon="1.9777283399999994">
        <ele>260.0</ele>
        <time>2019-06-09T09:54:29+02:00</time>
      </trkpt>
      <trkpt lat="41.699481670000004" lon="1.9776870000000002">
        <ele>260.0</ele>
        <time>2019-06-09T09:54:33+02:00</time>
      </trkpt>
      <trkpt lat="41.69953334" lon="1.9776699999999998">
        <ele>261.0</ele>
        <time>2019-06-09T09:54:37+02:00</time>
      </trkpt>
      <trkpt lat="41.699571670000005" lon="1.97762">
        <ele>261.0</ele>
        <time>2019-06-09T09:54:40+02:00</time>
      </trkpt>
      <trkpt lat="41.69960499999999" lon="1.9775616699999996">
        <ele>262.0</ele>
        <time>2019-06-09T09:54:43+02:00</time>
      </trkpt>
      <trkpt lat="41.699631669999995" lon="1.9774866699999998">
        <ele>262.0</ele>
        <time>2019-06-09T09:54:46+02:00</time>
      </trkpt>
      <trkpt lat="41.69963834" lon="1.97741167">
        <ele>262.0</ele>
        <time>2019-06-09T09:54:49+02:00</time>
      </trkpt>
      <trkpt lat="41.699645" lon="1.9773433399999998">
        <ele>263.0</ele>
        <time>2019-06-09T09:54:51+02:00</time>
      </trkpt>
      <trkpt lat="41.699653" lon="1.977255">
        <ele>264.0</ele>
        <time>2019-06-09T09:54:54+02:00</time>
      </trkpt>
      <trkpt lat="41.699657339999995" lon="1.9771716699999995">
        <ele>265.0</ele>
        <time>2019-06-09T09:54:57+02:00</time>
      </trkpt>
      <trkpt lat="41.699661670000005" lon="1.9771083399999996">
        <ele>265.0</ele>
        <time>2019-06-09T09:55:00+02:00</time>
      </trkpt>
      <trkpt lat="41.69966834" lon="1.9770483399999996">
        <ele>266.0</ele>
        <time>2019-06-09T09:55:03+02:00</time>
      </trkpt>
      <trkpt lat="41.699655" lon="1.97698167">
        <ele>266.0</ele>
        <time>2019-06-09T09:55:07+02:00</time>
      </trkpt>
      <trkpt lat="41.699655" lon="1.9769200000000002">
        <ele>266.0</ele>
        <time>2019-06-09T09:55:11+02:00</time>
      </trkpt>
      <trkpt lat="41.699655" lon="1.9768516699999998">
        <ele>266.0</ele>
        <time>2019-06-09T09:55:16+02:00</time>
      </trkpt>
      <trkpt lat="41.69964167" lon="1.9767916699999997">
        <ele>266.0</ele>
        <time>2019-06-09T09:55:20+02:00</time>
      </trkpt>
      <trkpt lat="41.699618339999994" lon="1.9767350000000001">
        <ele>266.0</ele>
        <time>2019-06-09T09:55:24+02:00</time>
      </trkpt>
      <trkpt lat="41.699595" lon="1.9766749999999997">
        <ele>266.0</ele>
        <time>2019-06-09T09:55:28+02:00</time>
      </trkpt>
      <trkpt lat="41.69955867" lon="1.9766083399999996">
        <ele>266.0</ele>
        <time>2019-06-09T09:55:31+02:00</time>
      </trkpt>
      <trkpt lat="41.69952133999999" lon="1.9765466699999998">
        <ele>266.0</ele>
        <time>2019-06-09T09:55:34+02:00</time>
      </trkpt>
      <trkpt lat="41.699487" lon="1.97648167">
        <ele>266.0</ele>
        <time>2019-06-09T09:55:37+02:00</time>
      </trkpt>
      <trkpt lat="41.699459" lon="1.976415">
        <ele>266.0</ele>
        <time>2019-06-09T09:55:40+02:00</time>
      </trkpt>
      <trkpt lat="41.69945" lon="1.9763383399999999">
        <ele>266.0</ele>
        <time>2019-06-09T09:55:44+02:00</time>
      </trkpt>
      <trkpt lat="41.69939834" lon="1.9762333399999996">
        <ele>266.0</ele>
        <time>2019-06-09T09:55:50+02:00</time>
      </trkpt>
      <trkpt lat="41.69937167000001" lon="1.9761616699999998">
        <ele>266.0</ele>
        <time>2019-06-09T09:55:54+02:00</time>
      </trkpt>
      <trkpt lat="41.699341000000004" lon="1.97612167">
        <ele>266.0</ele>
        <time>2019-06-09T09:55:59+02:00</time>
      </trkpt>
      <trkpt lat="41.699305" lon="1.97607334">
        <ele>263.0</ele>
        <time>2019-06-09T09:56:14+02:00</time>
      </trkpt>
      <trkpt lat="41.69934167000001" lon="1.9761166699999997">
        <ele>244.0</ele>
        <time>2019-06-09T09:57:15+02:00</time>
      </trkpt>
      <trkpt lat="41.69934500000001" lon="1.97618667">
        <ele>244.0</ele>
        <time>2019-06-09T09:57:18+02:00</time>
      </trkpt>
      <trkpt lat="41.69953334" lon="1.97622">
        <ele>244.0</ele>
        <time>2019-06-09T09:57:30+02:00</time>
      </trkpt>
      <trkpt lat="41.699515000000005" lon="1.9761566699999995">
        <ele>242.0</ele>
        <time>2019-06-09T09:57:41+02:00</time>
      </trkpt>
      <trkpt lat="41.699555" lon="1.9761283399999996">
        <ele>240.0</ele>
        <time>2019-06-09T09:57:46+02:00</time>
      </trkpt>
      <trkpt lat="41.699598339999994" lon="1.9761016699999998">
        <ele>240.0</ele>
        <time>2019-06-09T09:57:53+02:00</time>
      </trkpt>
      <trkpt lat="41.699643339999994" lon="1.9760950000000002">
        <ele>240.0</ele>
        <time>2019-06-09T09:58:00+02:00</time>
      </trkpt>
      <trkpt lat="41.699715000000005" lon="1.9761116699999994">
        <ele>236.0</ele>
        <time>2019-06-09T09:59:06+02:00</time>
      </trkpt>
      <trkpt lat="41.69978167000001" lon="1.9761329999999997">
        <ele>235.0</ele>
        <time>2019-06-09T09:59:09+02:00</time>
      </trkpt>
      <trkpt lat="41.69983167" lon="1.976143">
        <ele>234.0</ele>
        <time>2019-06-09T09:59:11+02:00</time>
      </trkpt>
      <trkpt lat="41.69988167" lon="1.9761466699999997">
        <ele>234.0</ele>
        <time>2019-06-09T09:59:13+02:00</time>
      </trkpt>
      <trkpt lat="41.69995333999999" lon="1.9761406700000002">
        <ele>235.0</ele>
        <time>2019-06-09T09:59:15+02:00</time>
      </trkpt>
      <trkpt lat="41.700035" lon="1.9761290000000002">
        <ele>235.0</ele>
        <time>2019-06-09T09:59:17+02:00</time>
      </trkpt>
      <trkpt lat="41.700113339999994" lon="1.9761209999999998">
        <ele>235.0</ele>
        <time>2019-06-09T09:59:19+02:00</time>
      </trkpt>
      <trkpt lat="41.70018" lon="1.9761163399999997">
        <ele>236.0</ele>
        <time>2019-06-09T09:59:21+02:00</time>
      </trkpt>
      <trkpt lat="41.700225" lon="1.976109">
        <ele>236.0</ele>
        <time>2019-06-09T09:59:24+02:00</time>
      </trkpt>
      <trkpt lat="41.70027334" lon="1.9761140000000001">
        <ele>237.0</ele>
        <time>2019-06-09T09:59:27+02:00</time>
      </trkpt>
      <trkpt lat="41.70031334" lon="1.9761650000000004">
        <ele>237.0</ele>
        <time>2019-06-09T09:59:29+02:00</time>
      </trkpt>
      <trkpt lat="41.70035834" lon="1.97621667">
        <ele>238.0</ele>
        <time>2019-06-09T09:59:31+02:00</time>
      </trkpt>
      <trkpt lat="41.700405" lon="1.9762783399999997">
        <ele>238.0</ele>
        <time>2019-06-09T09:59:33+02:00</time>
      </trkpt>
      <trkpt lat="41.70043667" lon="1.9763216699999997">
        <ele>238.0</ele>
        <time>2019-06-09T09:59:38+02:00</time>
      </trkpt>
      <trkpt lat="41.70049334" lon="1.9763616699999997">
        <ele>225.0</ele>
        <time>2019-06-09T10:00:13+02:00</time>
      </trkpt>
      <trkpt lat="41.70053834" lon="1.9764000000000004">
        <ele>225.0</ele>
        <time>2019-06-09T10:00:15+02:00</time>
      </trkpt>
      <trkpt lat="41.70058834" lon="1.9764389999999998">
        <ele>224.0</ele>
        <time>2019-06-09T10:00:17+02:00</time>
      </trkpt>
      <trkpt lat="41.70064000000001" lon="1.9764753399999997">
        <ele>224.0</ele>
        <time>2019-06-09T10:00:19+02:00</time>
      </trkpt>
      <trkpt lat="41.700694999999996" lon="1.9765113399999996">
        <ele>223.0</ele>
        <time>2019-06-09T10:00:21+02:00</time>
      </trkpt>
      <trkpt lat="41.700745000000005" lon="1.9765380000000001">
        <ele>223.0</ele>
        <time>2019-06-09T10:00:23+02:00</time>
      </trkpt>
      <trkpt lat="41.70080334000001" lon="1.97650334">
        <ele>223.0</ele>
        <time>2019-06-09T10:00:26+02:00</time>
      </trkpt>
      <trkpt lat="41.700835" lon="1.97643834">
        <ele>223.0</ele>
        <time>2019-06-09T10:00:29+02:00</time>
      </trkpt>
      <trkpt lat="41.70084167000001" lon="1.9763550000000003">
        <ele>223.0</ele>
        <time>2019-06-09T10:00:31+02:00</time>
      </trkpt>
      <trkpt lat="41.70084000000001" lon="1.9762566700000002">
        <ele>223.0</ele>
        <time>2019-06-09T10:00:33+02:00</time>
      </trkpt>
      <trkpt lat="41.70083667000001" lon="1.97613667">
        <ele>223.0</ele>
        <time>2019-06-09T10:00:35+02:00</time>
      </trkpt>
      <trkpt lat="41.700833339999996" lon="1.9760716699999996">
        <ele>224.0</ele>
        <time>2019-06-09T10:00:36+02:00</time>
      </trkpt>
      <trkpt lat="41.700835" lon="1.97600167">
        <ele>224.0</ele>
        <time>2019-06-09T10:00:37+02:00</time>
      </trkpt>
      <trkpt lat="41.700836339999995" lon="1.9759283399999998">
        <ele>224.0</ele>
        <time>2019-06-09T10:00:38+02:00</time>
      </trkpt>
      <trkpt lat="41.700839339999995" lon="1.9758516700000002">
        <ele>225.0</ele>
        <time>2019-06-09T10:00:39+02:00</time>
      </trkpt>
      <trkpt lat="41.700846" lon="1.9757783399999997">
        <ele>225.0</ele>
        <time>2019-06-09T10:00:40+02:00</time>
      </trkpt>
      <trkpt lat="41.700860670000004" lon="1.975705">
        <ele>226.0</ele>
        <time>2019-06-09T10:00:41+02:00</time>
      </trkpt>
      <trkpt lat="41.70088067" lon="1.9756383399999997">
        <ele>226.0</ele>
        <time>2019-06-09T10:00:42+02:00</time>
      </trkpt>
      <trkpt lat="41.700902000000006" lon="1.9755833399999996">
        <ele>227.0</ele>
        <time>2019-06-09T10:00:43+02:00</time>
      </trkpt>
      <trkpt lat="41.700927" lon="1.9755299999999998">
        <ele>227.0</ele>
        <time>2019-06-09T10:00:44+02:00</time>
      </trkpt>
      <trkpt lat="41.70099167" lon="1.97548167">
        <ele>228.0</ele>
        <time>2019-06-09T10:00:45+02:00</time>
      </trkpt>
      <trkpt lat="41.70103667" lon="1.9754333399999997">
        <ele>228.0</ele>
        <time>2019-06-09T10:00:46+02:00</time>
      </trkpt>
      <trkpt lat="41.701088340000005" lon="1.9753900000000002">
        <ele>229.0</ele>
        <time>2019-06-09T10:00:47+02:00</time>
      </trkpt>
      <trkpt lat="41.701141670000005" lon="1.9753533399999998">
        <ele>229.0</ele>
        <time>2019-06-09T10:00:48+02:00</time>
      </trkpt>
      <trkpt lat="41.701193339999996" lon="1.97532167">
        <ele>230.0</ele>
        <time>2019-06-09T10:00:49+02:00</time>
      </trkpt>
      <trkpt lat="41.70124834" lon="1.9752983399999997">
        <ele>230.0</ele>
        <time>2019-06-09T10:00:50+02:00</time>
      </trkpt>
      <trkpt lat="41.701305000000005" lon="1.9752733399999998">
        <ele>231.0</ele>
        <time>2019-06-09T10:00:51+02:00</time>
      </trkpt>
      <trkpt lat="41.70136000000001" lon="1.9752450000000004">
        <ele>231.0</ele>
        <time>2019-06-09T10:00:52+02:00</time>
      </trkpt>
      <trkpt lat="41.70140334" lon="1.97521">
        <ele>232.0</ele>
        <time>2019-06-09T10:00:53+02:00</time>
      </trkpt>
      <trkpt lat="41.70143334000001" lon="1.97516967">
        <ele>232.0</ele>
        <time>2019-06-09T10:00:54+02:00</time>
      </trkpt>
      <trkpt lat="41.70143167" lon="1.9750966699999999">
        <ele>233.0</ele>
        <time>2019-06-09T10:00:56+02:00</time>
      </trkpt>
      <trkpt lat="41.70138" lon="1.9750883399999999">
        <ele>234.0</ele>
        <time>2019-06-09T10:00:58+02:00</time>
      </trkpt>
      <trkpt lat="41.701325" lon="1.9750849999999995">
        <ele>235.0</ele>
        <time>2019-06-09T10:01:00+02:00</time>
      </trkpt>
      <trkpt lat="41.70124667000001" lon="1.9750896700000002">
        <ele>236.0</ele>
        <time>2019-06-09T10:01:02+02:00</time>
      </trkpt>
      <trkpt lat="41.7012" lon="1.9750943399999996">
        <ele>237.0</ele>
        <time>2019-06-09T10:01:03+02:00</time>
      </trkpt>
      <trkpt lat="41.70111333999999" lon="1.975101">
        <ele>237.0</ele>
        <time>2019-06-09T10:01:04+02:00</time>
      </trkpt>
      <trkpt lat="41.70104" lon="1.97509734">
        <ele>238.0</ele>
        <time>2019-06-09T10:01:05+02:00</time>
      </trkpt>
      <trkpt lat="41.70098334000001" lon="1.9750886699999999">
        <ele>238.0</ele>
        <time>2019-06-09T10:01:06+02:00</time>
      </trkpt>
      <trkpt lat="41.700935" lon="1.9750786699999998">
        <ele>239.0</ele>
        <time>2019-06-09T10:01:07+02:00</time>
      </trkpt>
      <trkpt lat="41.70085" lon="1.9750693399999997">
        <ele>240.0</ele>
        <time>2019-06-09T10:01:09+02:00</time>
      </trkpt>
      <trkpt lat="41.700763339999995" lon="1.9750720000000002">
        <ele>241.0</ele>
        <time>2019-06-09T10:01:11+02:00</time>
      </trkpt>
      <trkpt lat="41.7007" lon="1.9751216699999996">
        <ele>242.0</ele>
        <time>2019-06-09T10:01:13+02:00</time>
      </trkpt>
      <trkpt lat="41.700651670000006" lon="1.9751566699999998">
        <ele>243.0</ele>
        <time>2019-06-09T10:01:15+02:00</time>
      </trkpt>
      <trkpt lat="41.70059334" lon="1.97517467">
        <ele>244.0</ele>
        <time>2019-06-09T10:01:17+02:00</time>
      </trkpt>
      <trkpt lat="41.70053167" lon="1.9751916699999998">
        <ele>244.0</ele>
        <time>2019-06-09T10:01:19+02:00</time>
      </trkpt>
      <trkpt lat="41.700450000000004" lon="1.97521134">
        <ele>245.0</ele>
        <time>2019-06-09T10:01:21+02:00</time>
      </trkpt>
      <trkpt lat="41.70037334" lon="1.9752239999999996">
        <ele>245.0</ele>
        <time>2019-06-09T10:01:23+02:00</time>
      </trkpt>
      <trkpt lat="41.70032667" lon="1.9752296699999998">
        <ele>246.0</ele>
        <time>2019-06-09T10:01:24+02:00</time>
      </trkpt>
      <trkpt lat="41.70027834" lon="1.9752343399999996">
        <ele>246.0</ele>
        <time>2019-06-09T10:01:25+02:00</time>
      </trkpt>
      <trkpt lat="41.70023334" lon="1.9752393399999995">
        <ele>246.0</ele>
        <time>2019-06-09T10:01:26+02:00</time>
      </trkpt>
      <trkpt lat="41.700188340000004" lon="1.9752433399999998">
        <ele>247.0</ele>
        <time>2019-06-09T10:01:27+02:00</time>
      </trkpt>
      <trkpt lat="41.70014167000001" lon="1.9752496700000002">
        <ele>247.0</ele>
        <time>2019-06-09T10:01:28+02:00</time>
      </trkpt>
      <trkpt lat="41.70005334" lon="1.97526367">
        <ele>247.0</ele>
        <time>2019-06-09T10:01:30+02:00</time>
      </trkpt>
      <trkpt lat="41.700008340000004" lon="1.97526967">
        <ele>248.0</ele>
        <time>2019-06-09T10:01:31+02:00</time>
      </trkpt>
      <trkpt lat="41.699925" lon="1.9752823400000004">
        <ele>249.0</ele>
        <time>2019-06-09T10:01:33+02:00</time>
      </trkpt>
      <trkpt lat="41.699858340000006" lon="1.9752950000000002">
        <ele>250.0</ele>
        <time>2019-06-09T10:01:35+02:00</time>
      </trkpt>
      <trkpt lat="41.69979167" lon="1.9753056699999996">
        <ele>251.0</ele>
        <time>2019-06-09T10:01:37+02:00</time>
      </trkpt>
      <trkpt lat="41.699740000000006" lon="1.9753170000000004">
        <ele>252.0</ele>
        <time>2019-06-09T10:01:39+02:00</time>
      </trkpt>
      <trkpt lat="41.699678340000006" lon="1.9753343399999999">
        <ele>253.0</ele>
        <time>2019-06-09T10:01:42+02:00</time>
      </trkpt>
      <trkpt lat="41.69962667000001" lon="1.9753466699999997">
        <ele>254.0</ele>
        <time>2019-06-09T10:01:44+02:00</time>
      </trkpt>
      <trkpt lat="41.69957333999999" lon="1.9753670000000003">
        <ele>256.0</ele>
        <time>2019-06-09T10:01:48+02:00</time>
      </trkpt>
      <trkpt lat="41.699546670000004" lon="1.97546">
        <ele>256.0</ele>
        <time>2019-06-09T10:01:50+02:00</time>
      </trkpt>
      <trkpt lat="41.699498340000005" lon="1.97545167">
        <ele>257.0</ele>
        <time>2019-06-09T10:01:53+02:00</time>
      </trkpt>
      <trkpt lat="41.699441670000006" lon="1.97549967">
        <ele>258.0</ele>
        <time>2019-06-09T10:01:56+02:00</time>
      </trkpt>
      <trkpt lat="41.69938834" lon="1.9755336700000001">
        <ele>259.0</ele>
        <time>2019-06-09T10:01:59+02:00</time>
      </trkpt>
      <trkpt lat="41.699346670000004" lon="1.975558">
        <ele>259.0</ele>
        <time>2019-06-09T10:02:01+02:00</time>
      </trkpt>
      <trkpt lat="41.69929334" lon="1.9755916699999996">
        <ele>260.0</ele>
        <time>2019-06-09T10:02:04+02:00</time>
      </trkpt>
      <trkpt lat="41.69925167" lon="1.9756250000000002">
        <ele>260.0</ele>
        <time>2019-06-09T10:02:07+02:00</time>
      </trkpt>
      <trkpt lat="41.69920667" lon="1.9756633399999999">
        <ele>260.0</ele>
        <time>2019-06-09T10:02:11+02:00</time>
      </trkpt>
      <trkpt lat="41.699151670000006" lon="1.9756986700000003">
        <ele>260.0</ele>
        <time>2019-06-09T10:02:15+02:00</time>
      </trkpt>
      <trkpt lat="41.699121670000004" lon="1.97572634">
        <ele>261.0</ele>
        <time>2019-06-09T10:02:19+02:00</time>
      </trkpt>
      <trkpt lat="41.69916833999999" lon="1.97569634">
        <ele>261.0</ele>
        <time>2019-06-09T10:02:23+02:00</time>
      </trkpt>
      <trkpt lat="41.699225" lon="1.97565867">
        <ele>261.0</ele>
        <time>2019-06-09T10:02:26+02:00</time>
      </trkpt>
      <trkpt lat="41.699271669999995" lon="1.9756933399999999">
        <ele>261.0</ele>
        <time>2019-06-09T10:02:30+02:00</time>
      </trkpt>
      <trkpt lat="41.69924334" lon="1.9756366699999997">
        <ele>256.0</ele>
        <time>2019-06-09T10:03:02+02:00</time>
      </trkpt>
      <trkpt lat="41.69936834" lon="1.9769633399999997">
        <ele>21.0</ele>
        <time>2019-06-09T10:59:07+02:00</time>
      </trkpt>
      <trkpt lat="41.69938167" lon="1.9769866699999998">
        <ele>22.0</ele>
        <time>2019-06-09T10:59:08+02:00</time>
      </trkpt>
      <trkpt lat="41.69942967" lon="1.9770333399999995">
        <ele>22.0</ele>
        <time>2019-06-09T10:59:11+02:00</time>
      </trkpt>
      <trkpt lat="41.69947334" lon="1.9770999999999996">
        <ele>23.0</ele>
        <time>2019-06-09T10:59:15+02:00</time>
      </trkpt>
      <trkpt lat="41.699478" lon="1.97716334">
        <ele>25.0</ele>
        <time>2019-06-09T10:59:17+02:00</time>
      </trkpt>
      <trkpt lat="41.69948667" lon="1.97723">
        <ele>26.0</ele>
        <time>2019-06-09T10:59:19+02:00</time>
      </trkpt>
      <trkpt lat="41.699491339999994" lon="1.97729">
        <ele>27.0</ele>
        <time>2019-06-09T10:59:21+02:00</time>
      </trkpt>
      <trkpt lat="41.69948933999999" lon="1.9773533399999998">
        <ele>28.0</ele>
        <time>2019-06-09T10:59:23+02:00</time>
      </trkpt>
      <trkpt lat="41.699485" lon="1.97742">
        <ele>29.0</ele>
        <time>2019-06-09T10:59:25+02:00</time>
      </trkpt>
      <trkpt lat="41.699479999999994" lon="1.9774999999999998">
        <ele>31.0</ele>
        <time>2019-06-09T10:59:27+02:00</time>
      </trkpt>
      <trkpt lat="41.69947233999999" lon="1.9775666699999994">
        <ele>32.0</ele>
        <time>2019-06-09T10:59:29+02:00</time>
      </trkpt>
      <trkpt lat="41.69946733999999" lon="1.97764167">
        <ele>33.0</ele>
        <time>2019-06-09T10:59:31+02:00</time>
      </trkpt>
      <trkpt lat="41.699467000000006" lon="1.97771667">
        <ele>34.0</ele>
        <time>2019-06-09T10:59:33+02:00</time>
      </trkpt>
      <trkpt lat="41.699472" lon="1.97778834">
        <ele>36.0</ele>
        <time>2019-06-09T10:59:35+02:00</time>
      </trkpt>
      <trkpt lat="41.69947467" lon="1.9778616699999998">
        <ele>37.0</ele>
        <time>2019-06-09T10:59:37+02:00</time>
      </trkpt>
      <trkpt lat="41.699473669999996" lon="1.97793">
        <ele>39.0</ele>
        <time>2019-06-09T10:59:39+02:00</time>
      </trkpt>
      <trkpt lat="41.69944334" lon="1.97798834">
        <ele>40.0</ele>
        <time>2019-06-09T10:59:41+02:00</time>
      </trkpt>
      <trkpt lat="41.69939834" lon="1.9780316699999996">
        <ele>42.0</ele>
        <time>2019-06-09T10:59:43+02:00</time>
      </trkpt>
      <trkpt lat="41.69934167000001" lon="1.978075">
        <ele>43.0</ele>
        <time>2019-06-09T10:59:45+02:00</time>
      </trkpt>
      <trkpt lat="41.69928167" lon="1.97811667">
        <ele>44.0</ele>
        <time>2019-06-09T10:59:47+02:00</time>
      </trkpt>
      <trkpt lat="41.699216670000006" lon="1.9781533399999993">
        <ele>46.0</ele>
        <time>2019-06-09T10:59:49+02:00</time>
      </trkpt>
      <trkpt lat="41.699158340000004" lon="1.97820667">
        <ele>48.0</ele>
        <time>2019-06-09T10:59:51+02:00</time>
      </trkpt>
      <trkpt lat="41.69910333999999" lon="1.978266">
        <ele>50.0</ele>
        <time>2019-06-09T10:59:53+02:00</time>
      </trkpt>
      <trkpt lat="41.69905167" lon="1.9783283399999996">
        <ele>52.0</ele>
        <time>2019-06-09T10:59:55+02:00</time>
      </trkpt>
      <trkpt lat="41.69901" lon="1.9783899999999999">
        <ele>54.0</ele>
        <time>2019-06-09T10:59:57+02:00</time>
      </trkpt>
      <trkpt lat="41.69896834" lon="1.9784849999999998">
        <ele>55.0</ele>
        <time>2019-06-09T10:59:59+02:00</time>
      </trkpt>
      <trkpt lat="41.69892867" lon="1.97858167">
        <ele>56.0</ele>
        <time>2019-06-09T11:00:01+02:00</time>
      </trkpt>
      <trkpt lat="41.698896000000005" lon="1.9786966700000002">
        <ele>58.0</ele>
        <time>2019-06-09T11:00:03+02:00</time>
      </trkpt>
      <trkpt lat="41.698884" lon="1.9787633399999998">
        <ele>58.0</ele>
        <time>2019-06-09T11:00:04+02:00</time>
      </trkpt>
      <trkpt lat="41.69889167" lon="1.9788333399999996">
        <ele>59.0</ele>
        <time>2019-06-09T11:00:05+02:00</time>
      </trkpt>
      <trkpt lat="41.69889667" lon="1.97890667">
        <ele>60.0</ele>
        <time>2019-06-09T11:00:06+02:00</time>
      </trkpt>
      <trkpt lat="41.69890334" lon="1.97898">
        <ele>61.0</ele>
        <time>2019-06-09T11:00:07+02:00</time>
      </trkpt>
      <trkpt lat="41.698913340000004" lon="1.9790483399999999">
        <ele>62.0</ele>
        <time>2019-06-09T11:00:08+02:00</time>
      </trkpt>
      <trkpt lat="41.69892167" lon="1.97911334">
        <ele>63.0</ele>
        <time>2019-06-09T11:00:09+02:00</time>
      </trkpt>
      <trkpt lat="41.69893334" lon="1.9791750000000001">
        <ele>63.0</ele>
        <time>2019-06-09T11:00:10+02:00</time>
      </trkpt>
      <trkpt lat="41.698955000000005" lon="1.9792849999999997">
        <ele>64.0</ele>
        <time>2019-06-09T11:00:12+02:00</time>
      </trkpt>
      <trkpt lat="41.69897834" lon="1.9793883399999999">
        <ele>66.0</ele>
        <time>2019-06-09T11:00:14+02:00</time>
      </trkpt>
      <trkpt lat="41.699001339999995" lon="1.9794866699999996">
        <ele>67.0</ele>
        <time>2019-06-09T11:00:16+02:00</time>
      </trkpt>
      <trkpt lat="41.69901567000001" lon="1.97954667">
        <ele>68.0</ele>
        <time>2019-06-09T11:00:17+02:00</time>
      </trkpt>
      <trkpt lat="41.699040000000004" lon="1.9796166699999997">
        <ele>70.0</ele>
        <time>2019-06-09T11:00:19+02:00</time>
      </trkpt>
      <trkpt lat="41.699064" lon="1.97968667">
        <ele>71.0</ele>
        <time>2019-06-09T11:00:21+02:00</time>
      </trkpt>
      <trkpt lat="41.69909033999999" lon="1.9797549999999997">
        <ele>72.0</ele>
        <time>2019-06-09T11:00:23+02:00</time>
      </trkpt>
      <trkpt lat="41.69911567000001" lon="1.9798116699999997">
        <ele>73.0</ele>
        <time>2019-06-09T11:00:25+02:00</time>
      </trkpt>
      <trkpt lat="41.699142339999995" lon="1.9798650000000002">
        <ele>74.0</ele>
        <time>2019-06-09T11:00:27+02:00</time>
      </trkpt>
      <trkpt lat="41.699168" lon="1.9799183399999998">
        <ele>74.0</ele>
        <time>2019-06-09T11:00:29+02:00</time>
      </trkpt>
      <trkpt lat="41.699196" lon="1.979975">
        <ele>75.0</ele>
        <time>2019-06-09T11:00:31+02:00</time>
      </trkpt>
      <trkpt lat="41.699223" lon="1.9800266700000002">
        <ele>76.0</ele>
        <time>2019-06-09T11:00:33+02:00</time>
      </trkpt>
      <trkpt lat="41.699250670000005" lon="1.9800799999999998">
        <ele>77.0</ele>
        <time>2019-06-09T11:00:35+02:00</time>
      </trkpt>
      <trkpt lat="41.69928366999999" lon="1.9801449999999998">
        <ele>78.0</ele>
        <time>2019-06-09T11:00:38+02:00</time>
      </trkpt>
      <trkpt lat="41.69931533999999" lon="1.9802033399999996">
        <ele>78.0</ele>
        <time>2019-06-09T11:00:41+02:00</time>
      </trkpt>
      <trkpt lat="41.69935100000001" lon="1.9802733399999997">
        <ele>79.0</ele>
        <time>2019-06-09T11:00:44+02:00</time>
      </trkpt>
      <trkpt lat="41.699380000000005" lon="1.9803266700000002">
        <ele>79.0</ele>
        <time>2019-06-09T11:00:46+02:00</time>
      </trkpt>
      <trkpt lat="41.69941" lon="1.9803816699999999">
        <ele>79.0</ele>
        <time>2019-06-09T11:00:48+02:00</time>
      </trkpt>
      <trkpt lat="41.699437669999995" lon="1.980435">
        <ele>79.0</ele>
        <time>2019-06-09T11:00:50+02:00</time>
      </trkpt>
      <trkpt lat="41.69946834" lon="1.9804950000000001">
        <ele>80.0</ele>
        <time>2019-06-09T11:00:52+02:00</time>
      </trkpt>
      <trkpt lat="41.699497" lon="1.9805500000000003">
        <ele>80.0</ele>
        <time>2019-06-09T11:00:54+02:00</time>
      </trkpt>
      <trkpt lat="41.69952567" lon="1.980605">
        <ele>81.0</ele>
        <time>2019-06-09T11:00:56+02:00</time>
      </trkpt>
      <trkpt lat="41.69955334" lon="1.98066167">
        <ele>81.0</ele>
        <time>2019-06-09T11:00:58+02:00</time>
      </trkpt>
      <trkpt lat="41.69958233999999" lon="1.9807233399999997">
        <ele>81.0</ele>
        <time>2019-06-09T11:01:00+02:00</time>
      </trkpt>
      <trkpt lat="41.699608669999996" lon="1.9807866699999999">
        <ele>82.0</ele>
        <time>2019-06-09T11:01:02+02:00</time>
      </trkpt>
      <trkpt lat="41.69958667000001" lon="1.9808499999999998">
        <ele>82.0</ele>
        <time>2019-06-09T11:01:04+02:00</time>
      </trkpt>
      <trkpt lat="41.699576670000006" lon="1.98092">
        <ele>83.0</ele>
        <time>2019-06-09T11:01:06+02:00</time>
      </trkpt>
      <trkpt lat="41.69956167" lon="1.9809816699999998">
        <ele>83.0</ele>
        <time>2019-06-09T11:01:08+02:00</time>
      </trkpt>
      <trkpt lat="41.69954167000001" lon="1.9810566699999999">
        <ele>84.0</ele>
        <time>2019-06-09T11:01:10+02:00</time>
      </trkpt>
      <trkpt lat="41.69952367" lon="1.9811200000000002">
        <ele>84.0</ele>
        <time>2019-06-09T11:01:12+02:00</time>
      </trkpt>
      <trkpt lat="41.699504" lon="1.981185">
        <ele>85.0</ele>
        <time>2019-06-09T11:01:14+02:00</time>
      </trkpt>
      <trkpt lat="41.699488" lon="1.9812683399999997">
        <ele>85.0</ele>
        <time>2019-06-09T11:01:17+02:00</time>
      </trkpt>
      <trkpt lat="41.69950834" lon="1.9813333399999997">
        <ele>86.0</ele>
        <time>2019-06-09T11:01:21+02:00</time>
      </trkpt>
      <trkpt lat="41.699545" lon="1.9813733399999998">
        <ele>87.0</ele>
        <time>2019-06-09T11:01:30+02:00</time>
      </trkpt>
      <trkpt lat="41.699535" lon="1.9814399999999999">
        <ele>55.0</ele>
        <time>2019-06-09T11:02:43+02:00</time>
      </trkpt>
      <trkpt lat="41.69955" lon="1.9815">
        <ele>55.0</ele>
        <time>2019-06-09T11:02:47+02:00</time>
      </trkpt>
      <trkpt lat="41.699571670000005" lon="1.9815566699999998">
        <ele>55.0</ele>
        <time>2019-06-09T11:02:51+02:00</time>
      </trkpt>
      <trkpt lat="41.69959000000001" lon="1.9816183399999996">
        <ele>54.0</ele>
        <time>2019-06-09T11:02:55+02:00</time>
      </trkpt>
      <trkpt lat="41.69957333999999" lon="1.9816833399999996">
        <ele>54.0</ele>
        <time>2019-06-09T11:02:59+02:00</time>
      </trkpt>
      <trkpt lat="41.69953334" lon="1.98172">
        <ele>54.0</ele>
        <time>2019-06-09T11:03:02+02:00</time>
      </trkpt>
      <trkpt lat="41.69947834" lon="1.981745">
        <ele>55.0</ele>
        <time>2019-06-09T11:03:05+02:00</time>
      </trkpt>
      <trkpt lat="41.69942834" lon="1.981775">
        <ele>55.0</ele>
        <time>2019-06-09T11:03:08+02:00</time>
      </trkpt>
      <trkpt lat="41.69938499999999" lon="1.98180967">
        <ele>56.0</ele>
        <time>2019-06-09T11:03:11+02:00</time>
      </trkpt>
      <trkpt lat="41.69934833999999" lon="1.9818526699999999">
        <ele>57.0</ele>
        <time>2019-06-09T11:03:14+02:00</time>
      </trkpt>
      <trkpt lat="41.69931167000001" lon="1.9819033399999995">
        <ele>58.0</ele>
        <time>2019-06-09T11:03:17+02:00</time>
      </trkpt>
      <trkpt lat="41.69927834" lon="1.9819483399999995">
        <ele>59.0</ele>
        <time>2019-06-09T11:03:20+02:00</time>
      </trkpt>
      <trkpt lat="41.699245000000005" lon="1.9820016700000003">
        <ele>61.0</ele>
        <time>2019-06-09T11:03:23+02:00</time>
      </trkpt>
      <trkpt lat="41.69921634000001" lon="1.9820499999999999">
        <ele>62.0</ele>
        <time>2019-06-09T11:03:26+02:00</time>
      </trkpt>
      <trkpt lat="41.699187339999995" lon="1.9821099999999998">
        <ele>63.0</ele>
        <time>2019-06-09T11:03:30+02:00</time>
      </trkpt>
      <trkpt lat="41.699152999999995" lon="1.98217">
        <ele>65.0</ele>
        <time>2019-06-09T11:03:34+02:00</time>
      </trkpt>
      <trkpt lat="41.699118340000005" lon="1.98222667">
        <ele>65.0</ele>
        <time>2019-06-09T11:03:38+02:00</time>
      </trkpt>
      <trkpt lat="41.699082669999996" lon="1.9822833399999997">
        <ele>65.0</ele>
        <time>2019-06-09T11:03:42+02:00</time>
      </trkpt>
      <trkpt lat="41.69904700000001" lon="1.98233667">
        <ele>66.0</ele>
        <time>2019-06-09T11:03:46+02:00</time>
      </trkpt>
      <trkpt lat="41.69900867" lon="1.9824016699999998">
        <ele>66.0</ele>
        <time>2019-06-09T11:03:50+02:00</time>
      </trkpt>
      <trkpt lat="41.698972999999995" lon="1.98247667">
        <ele>66.0</ele>
        <time>2019-06-09T11:03:54+02:00</time>
      </trkpt>
      <trkpt lat="41.69894633999999" lon="1.982545">
        <ele>66.0</ele>
        <time>2019-06-09T11:03:57+02:00</time>
      </trkpt>
      <trkpt lat="41.69892733999999" lon="1.9826050000000002">
        <ele>66.0</ele>
        <time>2019-06-09T11:04:00+02:00</time>
      </trkpt>
      <trkpt lat="41.69896" lon="1.9826683399999996">
        <ele>66.0</ele>
        <time>2019-06-09T11:04:03+02:00</time>
      </trkpt>
      <trkpt lat="41.698973339999995" lon="1.9827383399999998">
        <ele>66.0</ele>
        <time>2019-06-09T11:04:06+02:00</time>
      </trkpt>
      <trkpt lat="41.69898667" lon="1.98280667">
        <ele>67.0</ele>
        <time>2019-06-09T11:04:09+02:00</time>
      </trkpt>
      <trkpt lat="41.698997" lon="1.98287667">
        <ele>68.0</ele>
        <time>2019-06-09T11:04:12+02:00</time>
      </trkpt>
      <trkpt lat="41.69901567000001" lon="1.9829516699999998">
        <ele>69.0</ele>
        <time>2019-06-09T11:04:16+02:00</time>
      </trkpt>
      <trkpt lat="41.69902433999999" lon="1.98301334">
        <ele>70.0</ele>
        <time>2019-06-09T11:04:19+02:00</time>
      </trkpt>
      <trkpt lat="41.69905334" lon="1.9830599999999996">
        <ele>72.0</ele>
        <time>2019-06-09T11:04:23+02:00</time>
      </trkpt>
      <trkpt lat="41.69908" lon="1.98311">
        <ele>73.0</ele>
        <time>2019-06-09T11:04:26+02:00</time>
      </trkpt>
      <trkpt lat="41.699109" lon="1.98317667">
        <ele>73.0</ele>
        <time>2019-06-09T11:04:29+02:00</time>
      </trkpt>
      <trkpt lat="41.699135" lon="1.9832549999999998">
        <ele>73.0</ele>
        <time>2019-06-09T11:04:32+02:00</time>
      </trkpt>
      <trkpt lat="41.699149" lon="1.98331334">
        <ele>75.0</ele>
        <time>2019-06-09T11:04:34+02:00</time>
      </trkpt>
      <trkpt lat="41.69916167" lon="1.9833966699999999">
        <ele>76.0</ele>
        <time>2019-06-09T11:04:37+02:00</time>
      </trkpt>
      <trkpt lat="41.69912333999999" lon="1.9834616699999998">
        <ele>76.0</ele>
        <time>2019-06-09T11:04:40+02:00</time>
      </trkpt>
      <trkpt lat="41.69909834" lon="1.9835216699999996">
        <ele>77.0</ele>
        <time>2019-06-09T11:04:43+02:00</time>
      </trkpt>
      <trkpt lat="41.699055" lon="1.9835700000000003">
        <ele>78.0</ele>
        <time>2019-06-09T11:04:47+02:00</time>
      </trkpt>
      <trkpt lat="41.69901334" lon="1.983595">
        <ele>80.0</ele>
        <time>2019-06-09T11:04:50+02:00</time>
      </trkpt>
      <trkpt lat="41.698958340000004" lon="1.9836266700000003">
        <ele>80.0</ele>
        <time>2019-06-09T11:04:54+02:00</time>
      </trkpt>
      <trkpt lat="41.6989" lon="1.9836416699999997">
        <ele>81.0</ele>
        <time>2019-06-09T11:04:58+02:00</time>
      </trkpt>
      <trkpt lat="41.69884834" lon="1.98365634">
        <ele>82.0</ele>
        <time>2019-06-09T11:05:02+02:00</time>
      </trkpt>
      <trkpt lat="41.69880334" lon="1.98366567">
        <ele>82.0</ele>
        <time>2019-06-09T11:05:05+02:00</time>
      </trkpt>
      <trkpt lat="41.69875667" lon="1.9836603399999997">
        <ele>82.0</ele>
        <time>2019-06-09T11:05:08+02:00</time>
      </trkpt>
      <trkpt lat="41.69871167" lon="1.9836283399999997">
        <ele>83.0</ele>
        <time>2019-06-09T11:05:11+02:00</time>
      </trkpt>
      <trkpt lat="41.69868" lon="1.9835850000000002">
        <ele>83.0</ele>
        <time>2019-06-09T11:05:14+02:00</time>
      </trkpt>
      <trkpt lat="41.69864" lon="1.98353167">
        <ele>83.0</ele>
        <time>2019-06-09T11:05:18+02:00</time>
      </trkpt>
      <trkpt lat="41.69859" lon="1.98349167">
        <ele>83.0</ele>
        <time>2019-06-09T11:05:22+02:00</time>
      </trkpt>
      <trkpt lat="41.69853833999999" lon="1.9834733399999998">
        <ele>84.0</ele>
        <time>2019-06-09T11:05:26+02:00</time>
      </trkpt>
      <trkpt lat="41.69849000000001" lon="1.9834833399999998">
        <ele>84.0</ele>
        <time>2019-06-09T11:05:30+02:00</time>
      </trkpt>
      <trkpt lat="41.69844500000001" lon="1.9835216699999996">
        <ele>83.0</ele>
        <time>2019-06-09T11:05:35+02:00</time>
      </trkpt>
      <trkpt lat="41.69844" lon="1.9835833399999996">
        <ele>82.0</ele>
        <time>2019-06-09T11:05:39+02:00</time>
      </trkpt>
      <trkpt lat="41.69847334" lon="1.9836283399999997">
        <ele>82.0</ele>
        <time>2019-06-09T11:05:43+02:00</time>
      </trkpt>
      <trkpt lat="41.69851" lon="1.9836650000000002">
        <ele>81.0</ele>
        <time>2019-06-09T11:05:47+02:00</time>
      </trkpt>
      <trkpt lat="41.698544670000004" lon="1.9837216699999995">
        <ele>81.0</ele>
        <time>2019-06-09T11:05:51+02:00</time>
      </trkpt>
      <trkpt lat="41.69858167" lon="1.9837633399999999">
        <ele>81.0</ele>
        <time>2019-06-09T11:05:55+02:00</time>
      </trkpt>
      <trkpt lat="41.698615000000004" lon="1.9838116699999997">
        <ele>80.0</ele>
        <time>2019-06-09T11:05:59+02:00</time>
      </trkpt>
      <trkpt lat="41.698640340000004" lon="1.9838633399999999">
        <ele>79.0</ele>
        <time>2019-06-09T11:06:03+02:00</time>
      </trkpt>
      <trkpt lat="41.69862667" lon="1.983925">
        <ele>78.0</ele>
        <time>2019-06-09T11:06:07+02:00</time>
      </trkpt>
      <trkpt lat="41.698598340000004" lon="1.98398">
        <ele>77.0</ele>
        <time>2019-06-09T11:06:11+02:00</time>
      </trkpt>
      <trkpt lat="41.69855166999999" lon="1.98401">
        <ele>76.0</ele>
        <time>2019-06-09T11:06:15+02:00</time>
      </trkpt>
      <trkpt lat="41.698496670000004" lon="1.9840283399999996">
        <ele>75.0</ele>
        <time>2019-06-09T11:06:19+02:00</time>
      </trkpt>
      <trkpt lat="41.698449999999994" lon="1.9840349999999998">
        <ele>75.0</ele>
        <time>2019-06-09T11:06:22+02:00</time>
      </trkpt>
      <trkpt lat="41.69840167" lon="1.9840516700000002">
        <ele>75.0</ele>
        <time>2019-06-09T11:06:24+02:00</time>
      </trkpt>
      <trkpt lat="41.69835" lon="1.9840683399999997">
        <ele>75.0</ele>
        <time>2019-06-09T11:06:28+02:00</time>
      </trkpt>
      <trkpt lat="41.698305" lon="1.9840816699999997">
        <ele>74.0</ele>
        <time>2019-06-09T11:06:31+02:00</time>
      </trkpt>
      <trkpt lat="41.69825999999999" lon="1.9840960000000003">
        <ele>74.0</ele>
        <time>2019-06-09T11:06:34+02:00</time>
      </trkpt>
      <trkpt lat="41.69821" lon="1.9841116699999997">
        <ele>74.0</ele>
        <time>2019-06-09T11:06:38+02:00</time>
      </trkpt>
      <trkpt lat="41.69816667000001" lon="1.9841266699999998">
        <ele>74.0</ele>
        <time>2019-06-09T11:06:41+02:00</time>
      </trkpt>
      <trkpt lat="41.69812167000001" lon="1.98414">
        <ele>74.0</ele>
        <time>2019-06-09T11:06:44+02:00</time>
      </trkpt>
      <trkpt lat="41.69808" lon="1.9841569999999997">
        <ele>74.0</ele>
        <time>2019-06-09T11:06:47+02:00</time>
      </trkpt>
      <trkpt lat="41.69801334" lon="1.98417934">
        <ele>74.0</ele>
        <time>2019-06-09T11:06:51+02:00</time>
      </trkpt>
      <trkpt lat="41.697965" lon="1.9841943399999997">
        <ele>74.0</ele>
        <time>2019-06-09T11:06:54+02:00</time>
      </trkpt>
      <trkpt lat="41.697919999999996" lon="1.98420667">
        <ele>74.0</ele>
        <time>2019-06-09T11:06:57+02:00</time>
      </trkpt>
      <trkpt lat="41.69787" lon="1.9842226699999999">
        <ele>74.0</ele>
        <time>2019-06-09T11:07:01+02:00</time>
      </trkpt>
      <trkpt lat="41.697824999999995" lon="1.9842783399999995">
        <ele>74.0</ele>
        <time>2019-06-09T11:07:05+02:00</time>
      </trkpt>
      <trkpt lat="41.69779667000001" lon="1.98433167">
        <ele>74.0</ele>
        <time>2019-06-09T11:07:08+02:00</time>
      </trkpt>
      <trkpt lat="41.69779334" lon="1.9844033399999994">
        <ele>74.0</ele>
        <time>2019-06-09T11:07:12+02:00</time>
      </trkpt>
      <trkpt lat="41.69779833999999" lon="1.9844733399999999">
        <ele>74.0</ele>
        <time>2019-06-09T11:07:15+02:00</time>
      </trkpt>
      <trkpt lat="41.69781" lon="1.9845400000000002">
        <ele>74.0</ele>
        <time>2019-06-09T11:07:18+02:00</time>
      </trkpt>
      <trkpt lat="41.69782133999999" lon="1.9846150000000002">
        <ele>74.0</ele>
        <time>2019-06-09T11:07:21+02:00</time>
      </trkpt>
      <trkpt lat="41.69783166999999" lon="1.9846816699999998">
        <ele>74.0</ele>
        <time>2019-06-09T11:07:24+02:00</time>
      </trkpt>
      <trkpt lat="41.697871670000005" lon="1.9847616699999997">
        <ele>66.0</ele>
        <time>2019-06-09T11:08:09+02:00</time>
      </trkpt>
      <trkpt lat="41.69789667" lon="1.9848200000000003">
        <ele>66.0</ele>
        <time>2019-06-09T11:08:12+02:00</time>
      </trkpt>
      <trkpt lat="41.69793167000001" lon="1.9848750000000002">
        <ele>65.0</ele>
        <time>2019-06-09T11:08:15+02:00</time>
      </trkpt>
      <trkpt lat="41.69797167" lon="1.98494">
        <ele>65.0</ele>
        <time>2019-06-09T11:08:18+02:00</time>
      </trkpt>
      <trkpt lat="41.69801334" lon="1.98498834">
        <ele>65.0</ele>
        <time>2019-06-09T11:08:21+02:00</time>
      </trkpt>
      <trkpt lat="41.69805767" lon="1.9850383399999998">
        <ele>65.0</ele>
        <time>2019-06-09T11:08:24+02:00</time>
      </trkpt>
      <trkpt lat="41.698104" lon="1.985095">
        <ele>65.0</ele>
        <time>2019-06-09T11:08:27+02:00</time>
      </trkpt>
      <trkpt lat="41.69814834" lon="1.985155">
        <ele>65.0</ele>
        <time>2019-06-09T11:08:30+02:00</time>
      </trkpt>
      <trkpt lat="41.698188" lon="1.98522">
        <ele>65.0</ele>
        <time>2019-06-09T11:08:33+02:00</time>
      </trkpt>
      <trkpt lat="41.69821467" lon="1.9852750000000001">
        <ele>66.0</ele>
        <time>2019-06-09T11:08:35+02:00</time>
      </trkpt>
      <trkpt lat="41.69824667000001" lon="1.98535167">
        <ele>66.0</ele>
        <time>2019-06-09T11:08:38+02:00</time>
      </trkpt>
      <trkpt lat="41.69826933999999" lon="1.98542667">
        <ele>67.0</ele>
        <time>2019-06-09T11:08:41+02:00</time>
      </trkpt>
      <trkpt lat="41.69828867" lon="1.9855">
        <ele>67.0</ele>
        <time>2019-06-09T11:08:44+02:00</time>
      </trkpt>
      <trkpt lat="41.698302" lon="1.98556334">
        <ele>67.0</ele>
        <time>2019-06-09T11:08:47+02:00</time>
      </trkpt>
      <trkpt lat="41.698316000000005" lon="1.9856183399999998">
        <ele>67.0</ele>
        <time>2019-06-09T11:08:50+02:00</time>
      </trkpt>
      <trkpt lat="41.69833533999999" lon="1.9856900000000004">
        <ele>67.0</ele>
        <time>2019-06-09T11:08:54+02:00</time>
      </trkpt>
      <trkpt lat="41.69835234" lon="1.9857483399999996">
        <ele>68.0</ele>
        <time>2019-06-09T11:08:57+02:00</time>
      </trkpt>
      <trkpt lat="41.69836733999999" lon="1.98580667">
        <ele>69.0</ele>
        <time>2019-06-09T11:09:00+02:00</time>
      </trkpt>
      <trkpt lat="41.698384669999996" lon="1.9858700000000002">
        <ele>69.0</ele>
        <time>2019-06-09T11:09:03+02:00</time>
      </trkpt>
      <trkpt lat="41.698404339999996" lon="1.9859433399999997">
        <ele>69.0</ele>
        <time>2019-06-09T11:09:07+02:00</time>
      </trkpt>
      <trkpt lat="41.69841767" lon="1.98601167">
        <ele>69.0</ele>
        <time>2019-06-09T11:09:10+02:00</time>
      </trkpt>
      <trkpt lat="41.698427" lon="1.9860816700000001">
        <ele>70.0</ele>
        <time>2019-06-09T11:09:13+02:00</time>
      </trkpt>
      <trkpt lat="41.698335" lon="1.98614334">
        <ele>70.0</ele>
        <time>2019-06-09T11:09:16+02:00</time>
      </trkpt>
      <trkpt lat="41.69829167000001" lon="1.9861933399999998">
        <ele>70.0</ele>
        <time>2019-06-09T11:09:19+02:00</time>
      </trkpt>
      <trkpt lat="41.69824834" lon="1.9862299999999997">
        <ele>70.0</ele>
        <time>2019-06-09T11:09:22+02:00</time>
      </trkpt>
      <trkpt lat="41.6982" lon="1.98627667">
        <ele>71.0</ele>
        <time>2019-06-09T11:09:26+02:00</time>
      </trkpt>
      <trkpt lat="41.698161670000005" lon="1.98632667">
        <ele>71.0</ele>
        <time>2019-06-09T11:09:29+02:00</time>
      </trkpt>
      <trkpt lat="41.69812967" lon="1.986375">
        <ele>71.0</ele>
        <time>2019-06-09T11:09:32+02:00</time>
      </trkpt>
      <trkpt lat="41.698108669999996" lon="1.9864366699999998">
        <ele>71.0</ele>
        <time>2019-06-09T11:09:35+02:00</time>
      </trkpt>
      <trkpt lat="41.69810834" lon="1.9864983399999996">
        <ele>71.0</ele>
        <time>2019-06-09T11:09:38+02:00</time>
      </trkpt>
      <trkpt lat="41.698111669999996" lon="1.9865749999999998">
        <ele>72.0</ele>
        <time>2019-06-09T11:09:41+02:00</time>
      </trkpt>
      <trkpt lat="41.69812667" lon="1.98665667">
        <ele>72.0</ele>
        <time>2019-06-09T11:09:44+02:00</time>
      </trkpt>
      <trkpt lat="41.698135339999986" lon="1.9867166699999999">
        <ele>73.0</ele>
        <time>2019-06-09T11:09:46+02:00</time>
      </trkpt>
      <trkpt lat="41.698144" lon="1.98678">
        <ele>73.0</ele>
        <time>2019-06-09T11:09:48+02:00</time>
      </trkpt>
      <trkpt lat="41.69815734" lon="1.98683667">
        <ele>73.0</ele>
        <time>2019-06-09T11:09:50+02:00</time>
      </trkpt>
      <trkpt lat="41.69817534" lon="1.986895">
        <ele>74.0</ele>
        <time>2019-06-09T11:09:52+02:00</time>
      </trkpt>
      <trkpt lat="41.69819534" lon="1.9869533399999995">
        <ele>74.0</ele>
        <time>2019-06-09T11:09:54+02:00</time>
      </trkpt>
      <trkpt lat="41.69821733999999" lon="1.9870083399999996">
        <ele>76.0</ele>
        <time>2019-06-09T11:09:56+02:00</time>
      </trkpt>
      <trkpt lat="41.69823933999999" lon="1.98706">
        <ele>77.0</ele>
        <time>2019-06-09T11:09:58+02:00</time>
      </trkpt>
      <trkpt lat="41.69827034" lon="1.9871349999999999">
        <ele>78.0</ele>
        <time>2019-06-09T11:10:01+02:00</time>
      </trkpt>
      <trkpt lat="41.698297999999994" lon="1.98719">
        <ele>79.0</ele>
        <time>2019-06-09T11:10:03+02:00</time>
      </trkpt>
      <trkpt lat="41.69832967000001" lon="1.9872466699999998">
        <ele>79.0</ele>
        <time>2019-06-09T11:10:05+02:00</time>
      </trkpt>
      <trkpt lat="41.698364000000005" lon="1.9873033399999998">
        <ele>80.0</ele>
        <time>2019-06-09T11:10:07+02:00</time>
      </trkpt>
      <trkpt lat="41.698401" lon="1.9873550000000002">
        <ele>81.0</ele>
        <time>2019-06-09T11:10:09+02:00</time>
      </trkpt>
      <trkpt lat="41.698448" lon="1.9874233399999999">
        <ele>82.0</ele>
        <time>2019-06-09T11:10:11+02:00</time>
      </trkpt>
      <trkpt lat="41.698502" lon="1.98750334">
        <ele>83.0</ele>
        <time>2019-06-09T11:10:13+02:00</time>
      </trkpt>
      <trkpt lat="41.698562" lon="1.9876049999999998">
        <ele>84.0</ele>
        <time>2019-06-09T11:10:15+02:00</time>
      </trkpt>
      <trkpt lat="41.698597" lon="1.9876633399999997">
        <ele>84.0</ele>
        <time>2019-06-09T11:10:16+02:00</time>
      </trkpt>
      <trkpt lat="41.698627339999994" lon="1.9877233399999998">
        <ele>86.0</ele>
        <time>2019-06-09T11:10:17+02:00</time>
      </trkpt>
      <trkpt lat="41.698672" lon="1.9878383399999997">
        <ele>87.0</ele>
        <time>2019-06-09T11:10:19+02:00</time>
      </trkpt>
      <trkpt lat="41.69855834" lon="1.98788834">
        <ele>88.0</ele>
        <time>2019-06-09T11:10:21+02:00</time>
      </trkpt>
      <trkpt lat="41.698501670000006" lon="1.9878983399999999">
        <ele>89.0</ele>
        <time>2019-06-09T11:10:23+02:00</time>
      </trkpt>
      <trkpt lat="41.698451670000004" lon="1.987905">
        <ele>91.0</ele>
        <time>2019-06-09T11:10:25+02:00</time>
      </trkpt>
      <trkpt lat="41.698398340000004" lon="1.98791">
        <ele>93.0</ele>
        <time>2019-06-09T11:10:28+02:00</time>
      </trkpt>
      <trkpt lat="41.69833667000001" lon="1.9879133399999998">
        <ele>95.0</ele>
        <time>2019-06-09T11:10:32+02:00</time>
      </trkpt>
      <trkpt lat="41.69829167000001" lon="1.9879133399999998">
        <ele>96.0</ele>
        <time>2019-06-09T11:10:34+02:00</time>
      </trkpt>
      <trkpt lat="41.69824334" lon="1.9879103399999998">
        <ele>97.0</ele>
        <time>2019-06-09T11:10:36+02:00</time>
      </trkpt>
      <trkpt lat="41.69818" lon="1.9878956699999997">
        <ele>99.0</ele>
        <time>2019-06-09T11:10:37+02:00</time>
      </trkpt>
      <trkpt lat="41.698136670000004" lon="1.9878803399999998">
        <ele>100.0</ele>
        <time>2019-06-09T11:10:39+02:00</time>
      </trkpt>
      <trkpt lat="41.698088340000005" lon="1.987861">
        <ele>101.0</ele>
        <time>2019-06-09T11:10:41+02:00</time>
      </trkpt>
      <trkpt lat="41.69803" lon="1.987829">
        <ele>102.0</ele>
        <time>2019-06-09T11:10:44+02:00</time>
      </trkpt>
      <trkpt lat="41.69798667" lon="1.9878019999999998">
        <ele>103.0</ele>
        <time>2019-06-09T11:10:46+02:00</time>
      </trkpt>
      <trkpt lat="41.69793334" lon="1.98776967">
        <ele>104.0</ele>
        <time>2019-06-09T11:10:49+02:00</time>
      </trkpt>
      <trkpt lat="41.69787667000001" lon="1.987735">
        <ele>105.0</ele>
        <time>2019-06-09T11:10:52+02:00</time>
      </trkpt>
      <trkpt lat="41.69781667000001" lon="1.9877036700000001">
        <ele>106.0</ele>
        <time>2019-06-09T11:10:55+02:00</time>
      </trkpt>
      <trkpt lat="41.69777167" lon="1.98768434">
        <ele>107.0</ele>
        <time>2019-06-09T11:10:57+02:00</time>
      </trkpt>
      <trkpt lat="41.697705000000006" lon="1.9876656699999997">
        <ele>108.0</ele>
        <time>2019-06-09T11:11:00+02:00</time>
      </trkpt>
      <trkpt lat="41.69763833999999" lon="1.9876556699999999">
        <ele>108.0</ele>
        <time>2019-06-09T11:11:03+02:00</time>
      </trkpt>
      <trkpt lat="41.697590000000005" lon="1.9876550000000002">
        <ele>109.0</ele>
        <time>2019-06-09T11:11:05+02:00</time>
      </trkpt>
      <trkpt lat="41.69752834" lon="1.98765267">
        <ele>110.0</ele>
        <time>2019-06-09T11:11:08+02:00</time>
      </trkpt>
      <trkpt lat="41.69746833999999" lon="1.9876476699999999">
        <ele>111.0</ele>
        <time>2019-06-09T11:11:11+02:00</time>
      </trkpt>
      <trkpt lat="41.697421670000004" lon="1.98764334">
        <ele>111.0</ele>
        <time>2019-06-09T11:11:13+02:00</time>
      </trkpt>
      <trkpt lat="41.697363339999995" lon="1.9876263399999998">
        <ele>113.0</ele>
        <time>2019-06-09T11:11:16+02:00</time>
      </trkpt>
      <trkpt lat="41.69732834" lon="1.98758">
        <ele>114.0</ele>
        <time>2019-06-09T11:11:18+02:00</time>
      </trkpt>
      <trkpt lat="41.697291670000006" lon="1.9875316699999999">
        <ele>114.0</ele>
        <time>2019-06-09T11:11:20+02:00</time>
      </trkpt>
      <trkpt lat="41.697255" lon="1.987482">
        <ele>115.0</ele>
        <time>2019-06-09T11:11:22+02:00</time>
      </trkpt>
      <trkpt lat="41.69721667" lon="1.9874303399999995">
        <ele>116.0</ele>
        <time>2019-06-09T11:11:24+02:00</time>
      </trkpt>
      <trkpt lat="41.69716667000001" lon="1.98736967">
        <ele>117.0</ele>
        <time>2019-06-09T11:11:27+02:00</time>
      </trkpt>
      <trkpt lat="41.69711667" lon="1.9873280000000002">
        <ele>118.0</ele>
        <time>2019-06-09T11:11:30+02:00</time>
      </trkpt>
      <trkpt lat="41.697055" lon="1.9873333399999997">
        <ele>119.0</ele>
        <time>2019-06-09T11:11:33+02:00</time>
      </trkpt>
      <trkpt lat="41.69700667" lon="1.98733167">
        <ele>120.0</ele>
        <time>2019-06-09T11:11:35+02:00</time>
      </trkpt>
      <trkpt lat="41.69694334" lon="1.9873533399999996">
        <ele>120.0</ele>
        <time>2019-06-09T11:11:38+02:00</time>
      </trkpt>
      <trkpt lat="41.69688" lon="1.9873916699999998">
        <ele>121.0</ele>
        <time>2019-06-09T11:11:41+02:00</time>
      </trkpt>
      <trkpt lat="41.69684" lon="1.9874283399999997">
        <ele>122.0</ele>
        <time>2019-06-09T11:11:43+02:00</time>
      </trkpt>
      <trkpt lat="41.696795" lon="1.9874663399999997">
        <ele>122.0</ele>
        <time>2019-06-09T11:11:45+02:00</time>
      </trkpt>
      <trkpt lat="41.69674000000001" lon="1.98751467">
        <ele>123.0</ele>
        <time>2019-06-09T11:11:48+02:00</time>
      </trkpt>
      <trkpt lat="41.69669334" lon="1.987557">
        <ele>124.0</ele>
        <time>2019-06-09T11:11:51+02:00</time>
      </trkpt>
      <trkpt lat="41.69664834" lon="1.9876076699999998">
        <ele>125.0</ele>
        <time>2019-06-09T11:11:54+02:00</time>
      </trkpt>
      <trkpt lat="41.69660667" lon="1.987659">
        <ele>126.0</ele>
        <time>2019-06-09T11:11:57+02:00</time>
      </trkpt>
      <trkpt lat="41.696574999999996" lon="1.987735">
        <ele>126.0</ele>
        <time>2019-06-09T11:12:00+02:00</time>
      </trkpt>
      <trkpt lat="41.696555000000004" lon="1.98781167">
        <ele>127.0</ele>
        <time>2019-06-09T11:12:04+02:00</time>
      </trkpt>
      <trkpt lat="41.69652167" lon="1.9878783399999995">
        <ele>127.0</ele>
        <time>2019-06-09T11:12:07+02:00</time>
      </trkpt>
      <trkpt lat="41.696490340000004" lon="1.9879366699999999">
        <ele>127.0</ele>
        <time>2019-06-09T11:12:10+02:00</time>
      </trkpt>
      <trkpt lat="41.696464670000005" lon="1.9879866699999997">
        <ele>127.0</ele>
        <time>2019-06-09T11:12:13+02:00</time>
      </trkpt>
      <trkpt lat="41.69643033999999" lon="1.9880400000000003">
        <ele>128.0</ele>
        <time>2019-06-09T11:12:16+02:00</time>
      </trkpt>
      <trkpt lat="41.69639633999999" lon="1.9880849999999999">
        <ele>128.0</ele>
        <time>2019-06-09T11:12:19+02:00</time>
      </trkpt>
      <trkpt lat="41.69635167" lon="1.9881333399999996">
        <ele>128.0</ele>
        <time>2019-06-09T11:12:22+02:00</time>
      </trkpt>
      <trkpt lat="41.696315000000006" lon="1.98817334">
        <ele>128.0</ele>
        <time>2019-06-09T11:12:25+02:00</time>
      </trkpt>
      <trkpt lat="41.696275" lon="1.9882246700000004">
        <ele>128.0</ele>
        <time>2019-06-09T11:12:28+02:00</time>
      </trkpt>
      <trkpt lat="41.69622834" lon="1.9882736700000003">
        <ele>128.0</ele>
        <time>2019-06-09T11:12:31+02:00</time>
      </trkpt>
      <trkpt lat="41.69619000000001" lon="1.9883193399999997">
        <ele>128.0</ele>
        <time>2019-06-09T11:12:34+02:00</time>
      </trkpt>
      <trkpt lat="41.69615" lon="1.98836334">
        <ele>128.0</ele>
        <time>2019-06-09T11:12:37+02:00</time>
      </trkpt>
      <trkpt lat="41.69610834" lon="1.9884056699999995">
        <ele>128.0</ele>
        <time>2019-06-09T11:12:40+02:00</time>
      </trkpt>
      <trkpt lat="41.696065" lon="1.98845167">
        <ele>128.0</ele>
        <time>2019-06-09T11:12:43+02:00</time>
      </trkpt>
      <trkpt lat="41.696023339999996" lon="1.98849267">
        <ele>128.0</ele>
        <time>2019-06-09T11:12:46+02:00</time>
      </trkpt>
      <trkpt lat="41.695985" lon="1.9885300000000001">
        <ele>128.0</ele>
        <time>2019-06-09T11:12:49+02:00</time>
      </trkpt>
      <trkpt lat="41.695948339999994" lon="1.988569">
        <ele>128.0</ele>
        <time>2019-06-09T11:12:52+02:00</time>
      </trkpt>
      <trkpt lat="41.695903339999994" lon="1.9886153399999997">
        <ele>128.0</ele>
        <time>2019-06-09T11:12:55+02:00</time>
      </trkpt>
      <trkpt lat="41.695863339999995" lon="1.9886576699999998">
        <ele>128.0</ele>
        <time>2019-06-09T11:12:58+02:00</time>
      </trkpt>
      <trkpt lat="41.695820000000005" lon="1.9887066699999998">
        <ele>128.0</ele>
        <time>2019-06-09T11:13:01+02:00</time>
      </trkpt>
      <trkpt lat="41.69576667" lon="1.9887679999999999">
        <ele>128.0</ele>
        <time>2019-06-09T11:13:04+02:00</time>
      </trkpt>
      <trkpt lat="41.695725" lon="1.98881634">
        <ele>128.0</ele>
        <time>2019-06-09T11:13:06+02:00</time>
      </trkpt>
      <trkpt lat="41.69568499999999" lon="1.9888620000000004">
        <ele>128.0</ele>
        <time>2019-06-09T11:13:08+02:00</time>
      </trkpt>
      <trkpt lat="41.69564834" lon="1.9889040000000002">
        <ele>128.0</ele>
        <time>2019-06-09T11:13:10+02:00</time>
      </trkpt>
      <trkpt lat="41.69560167000001" lon="1.9889800000000002">
        <ele>128.0</ele>
        <time>2019-06-09T11:13:13+02:00</time>
      </trkpt>
      <trkpt lat="41.69556300000001" lon="1.9890416699999995">
        <ele>128.0</ele>
        <time>2019-06-09T11:13:16+02:00</time>
      </trkpt>
      <trkpt lat="41.69553" lon="1.98910667">
        <ele>127.0</ele>
        <time>2019-06-09T11:13:19+02:00</time>
      </trkpt>
      <trkpt lat="41.69549733999999" lon="1.98917">
        <ele>126.0</ele>
        <time>2019-06-09T11:13:22+02:00</time>
      </trkpt>
      <trkpt lat="41.69546934" lon="1.9892283399999997">
        <ele>126.0</ele>
        <time>2019-06-09T11:13:25+02:00</time>
      </trkpt>
      <trkpt lat="41.69544267" lon="1.9892966699999994">
        <ele>125.0</ele>
        <time>2019-06-09T11:13:28+02:00</time>
      </trkpt>
      <trkpt lat="41.69542334" lon="1.98937167">
        <ele>124.0</ele>
        <time>2019-06-09T11:13:31+02:00</time>
      </trkpt>
      <trkpt lat="41.695434999999996" lon="1.9894566700000003">
        <ele>123.0</ele>
        <time>2019-06-09T11:13:34+02:00</time>
      </trkpt>
      <trkpt lat="41.695431670000005" lon="1.9895400000000003">
        <ele>122.0</ele>
        <time>2019-06-09T11:13:37+02:00</time>
      </trkpt>
      <trkpt lat="41.69543933999999" lon="1.9896216699999996">
        <ele>121.0</ele>
        <time>2019-06-09T11:13:40+02:00</time>
      </trkpt>
      <trkpt lat="41.69545" lon="1.98968167">
        <ele>121.0</ele>
        <time>2019-06-09T11:13:42+02:00</time>
      </trkpt>
      <trkpt lat="41.69548167" lon="1.9897483399999996">
        <ele>120.0</ele>
        <time>2019-06-09T11:13:44+02:00</time>
      </trkpt>
      <trkpt lat="41.695511669999995" lon="1.9898049999999998">
        <ele>120.0</ele>
        <time>2019-06-09T11:13:46+02:00</time>
      </trkpt>
      <trkpt lat="41.69554" lon="1.9898583399999996">
        <ele>120.0</ele>
        <time>2019-06-09T11:13:48+02:00</time>
      </trkpt>
      <trkpt lat="41.695558670000004" lon="1.9899150000000003">
        <ele>120.0</ele>
        <time>2019-06-09T11:13:50+02:00</time>
      </trkpt>
      <trkpt lat="41.69556434" lon="1.98999667">
        <ele>120.0</ele>
        <time>2019-06-09T11:13:53+02:00</time>
      </trkpt>
      <trkpt lat="41.695535" lon="1.9900716699999996">
        <ele>119.0</ele>
        <time>2019-06-09T11:13:56+02:00</time>
      </trkpt>
      <trkpt lat="41.6955" lon="1.9901466699999997">
        <ele>118.0</ele>
        <time>2019-06-09T11:13:59+02:00</time>
      </trkpt>
      <trkpt lat="41.69546167" lon="1.9902016699999998">
        <ele>118.0</ele>
        <time>2019-06-09T11:14:02+02:00</time>
      </trkpt>
      <trkpt lat="41.69542167000001" lon="1.99026167">
        <ele>117.0</ele>
        <time>2019-06-09T11:14:05+02:00</time>
      </trkpt>
      <trkpt lat="41.69537167" lon="1.9903100000000002">
        <ele>117.0</ele>
        <time>2019-06-09T11:14:08+02:00</time>
      </trkpt>
      <trkpt lat="41.69532" lon="1.9903600000000001">
        <ele>116.0</ele>
        <time>2019-06-09T11:14:11+02:00</time>
      </trkpt>
      <trkpt lat="41.69528334" lon="1.9904166699999997">
        <ele>115.0</ele>
        <time>2019-06-09T11:14:14+02:00</time>
      </trkpt>
      <trkpt lat="41.69527167" lon="1.990475">
        <ele>104.0</ele>
        <time>2019-06-09T11:14:29+02:00</time>
      </trkpt>
      <trkpt lat="41.69527" lon="1.9905466699999999">
        <ele>99.0</ele>
        <time>2019-06-09T11:14:43+02:00</time>
      </trkpt>
      <trkpt lat="41.69530000000001" lon="1.990605">
        <ele>98.0</ele>
        <time>2019-06-09T11:14:46+02:00</time>
      </trkpt>
      <trkpt lat="41.69532" lon="1.9906616700000002">
        <ele>97.0</ele>
        <time>2019-06-09T11:14:48+02:00</time>
      </trkpt>
      <trkpt lat="41.695341670000005" lon="1.99079">
        <ele>96.0</ele>
        <time>2019-06-09T11:14:50+02:00</time>
      </trkpt>
      <trkpt lat="41.69532" lon="1.9908499999999996">
        <ele>94.0</ele>
        <time>2019-06-09T11:14:52+02:00</time>
      </trkpt>
      <trkpt lat="41.69527334000001" lon="1.9908899999999998">
        <ele>94.0</ele>
        <time>2019-06-09T11:14:55+02:00</time>
      </trkpt>
      <trkpt lat="41.69522167000001" lon="1.99093667">
        <ele>92.0</ele>
        <time>2019-06-09T11:14:58+02:00</time>
      </trkpt>
      <trkpt lat="41.695173" lon="1.99098834">
        <ele>91.0</ele>
        <time>2019-06-09T11:15:01+02:00</time>
      </trkpt>
      <trkpt lat="41.69513267000001" lon="1.9910483399999996">
        <ele>90.0</ele>
        <time>2019-06-09T11:15:04+02:00</time>
      </trkpt>
      <trkpt lat="41.69510700000001" lon="1.9911333399999998">
        <ele>89.0</ele>
        <time>2019-06-09T11:15:07+02:00</time>
      </trkpt>
      <trkpt lat="41.695123339999995" lon="1.9912183399999996">
        <ele>88.0</ele>
        <time>2019-06-09T11:15:10+02:00</time>
      </trkpt>
      <trkpt lat="41.695141670000005" lon="1.9912833399999994">
        <ele>87.0</ele>
        <time>2019-06-09T11:15:12+02:00</time>
      </trkpt>
      <trkpt lat="41.69516" lon="1.99135">
        <ele>86.0</ele>
        <time>2019-06-09T11:15:14+02:00</time>
      </trkpt>
      <trkpt lat="41.69517667" lon="1.9914383399999998">
        <ele>85.0</ele>
        <time>2019-06-09T11:15:17+02:00</time>
      </trkpt>
      <trkpt lat="41.695193339999996" lon="1.9915233399999999">
        <ele>85.0</ele>
        <time>2019-06-09T11:15:20+02:00</time>
      </trkpt>
      <trkpt lat="41.69521367" lon="1.99159834">
        <ele>84.0</ele>
        <time>2019-06-09T11:15:23+02:00</time>
      </trkpt>
      <trkpt lat="41.695226999999996" lon="1.99167167">
        <ele>83.0</ele>
        <time>2019-06-09T11:15:26+02:00</time>
      </trkpt>
      <trkpt lat="41.695247339999995" lon="1.99175167">
        <ele>83.0</ele>
        <time>2019-06-09T11:15:29+02:00</time>
      </trkpt>
      <trkpt lat="41.695280000000004" lon="1.9918">
        <ele>83.0</ele>
        <time>2019-06-09T11:15:31+02:00</time>
      </trkpt>
      <trkpt lat="41.69528334" lon="1.99187">
        <ele>82.0</ele>
        <time>2019-06-09T11:15:33+02:00</time>
      </trkpt>
      <trkpt lat="41.69524834" lon="1.99193167">
        <ele>82.0</ele>
        <time>2019-06-09T11:15:36+02:00</time>
      </trkpt>
      <trkpt lat="41.695195" lon="1.9919266700000002">
        <ele>82.0</ele>
        <time>2019-06-09T11:15:39+02:00</time>
      </trkpt>
      <trkpt lat="41.69513334" lon="1.9919533399999996">
        <ele>82.0</ele>
        <time>2019-06-09T11:15:42+02:00</time>
      </trkpt>
      <trkpt lat="41.69507" lon="1.9919633399999999">
        <ele>82.0</ele>
        <time>2019-06-09T11:15:44+02:00</time>
      </trkpt>
      <trkpt lat="41.69501167" lon="1.9919766700000001">
        <ele>82.0</ele>
        <time>2019-06-09T11:15:46+02:00</time>
      </trkpt>
      <trkpt lat="41.69495833999999" lon="1.9920216699999997">
        <ele>82.0</ele>
        <time>2019-06-09T11:15:48+02:00</time>
      </trkpt>
      <trkpt lat="41.69492834" lon="1.9920700000000005">
        <ele>83.0</ele>
        <time>2019-06-09T11:15:50+02:00</time>
      </trkpt>
      <trkpt lat="41.69490167000001" lon="1.9921250000000001">
        <ele>83.0</ele>
        <time>2019-06-09T11:15:52+02:00</time>
      </trkpt>
      <trkpt lat="41.694878339999995" lon="1.9921950000000002">
        <ele>84.0</ele>
        <time>2019-06-09T11:15:54+02:00</time>
      </trkpt>
      <trkpt lat="41.69485834" lon="1.99227334">
        <ele>84.0</ele>
        <time>2019-06-09T11:15:56+02:00</time>
      </trkpt>
      <trkpt lat="41.69483667000001" lon="1.9923600000000001">
        <ele>84.0</ele>
        <time>2019-06-09T11:15:58+02:00</time>
      </trkpt>
      <trkpt lat="41.69481967" lon="1.9924316699999998">
        <ele>84.0</ele>
        <time>2019-06-09T11:16:00+02:00</time>
      </trkpt>
      <trkpt lat="41.69480167" lon="1.9924916700000002">
        <ele>84.0</ele>
        <time>2019-06-09T11:16:02+02:00</time>
      </trkpt>
      <trkpt lat="41.694772670000006" lon="1.9925466699999999">
        <ele>85.0</ele>
        <time>2019-06-09T11:16:04+02:00</time>
      </trkpt>
      <trkpt lat="41.69472167000001" lon="1.9926">
        <ele>86.0</ele>
        <time>2019-06-09T11:16:06+02:00</time>
      </trkpt>
      <trkpt lat="41.69467834" lon="1.9926333399999998">
        <ele>90.0</ele>
        <time>2019-06-09T11:16:18+02:00</time>
      </trkpt>
      <trkpt lat="41.69463667" lon="1.9926666699999998">
        <ele>85.0</ele>
        <time>2019-06-09T11:16:28+02:00</time>
      </trkpt>
      <trkpt lat="41.694583339999994" lon="1.9926683399999994">
        <ele>84.0</ele>
        <time>2019-06-09T11:16:31+02:00</time>
      </trkpt>
      <trkpt lat="41.69452834" lon="1.9926696700000002">
        <ele>83.0</ele>
        <time>2019-06-09T11:16:34+02:00</time>
      </trkpt>
      <trkpt lat="41.69447167" lon="1.992661">
        <ele>82.0</ele>
        <time>2019-06-09T11:16:37+02:00</time>
      </trkpt>
      <trkpt lat="41.69441334" lon="1.9926463399999998">
        <ele>81.0</ele>
        <time>2019-06-09T11:16:40+02:00</time>
      </trkpt>
      <trkpt lat="41.69436834" lon="1.9926359999999999">
        <ele>80.0</ele>
        <time>2019-06-09T11:16:42+02:00</time>
      </trkpt>
      <trkpt lat="41.69432334" lon="1.9926249999999999">
        <ele>80.0</ele>
        <time>2019-06-09T11:16:44+02:00</time>
      </trkpt>
      <trkpt lat="41.69426" lon="1.9926176700000002">
        <ele>80.0</ele>
        <time>2019-06-09T11:16:47+02:00</time>
      </trkpt>
      <trkpt lat="41.694213340000005" lon="1.9926209999999998">
        <ele>79.0</ele>
        <time>2019-06-09T11:16:49+02:00</time>
      </trkpt>
      <trkpt lat="41.69415167000001" lon="1.9926799999999996">
        <ele>78.0</ele>
        <time>2019-06-09T11:16:52+02:00</time>
      </trkpt>
      <trkpt lat="41.694120000000005" lon="1.9927433399999999">
        <ele>77.0</ele>
        <time>2019-06-09T11:16:55+02:00</time>
      </trkpt>
      <trkpt lat="41.694073339999996" lon="1.9928083399999998">
        <ele>75.0</ele>
        <time>2019-06-09T11:16:58+02:00</time>
      </trkpt>
      <trkpt lat="41.694035" lon="1.99285634">
        <ele>75.0</ele>
        <time>2019-06-09T11:17:00+02:00</time>
      </trkpt>
      <trkpt lat="41.69400334" lon="1.9929000000000001">
        <ele>75.0</ele>
        <time>2019-06-09T11:17:02+02:00</time>
      </trkpt>
      <trkpt lat="41.69399500000001" lon="1.9929700000000001">
        <ele>74.0</ele>
        <time>2019-06-09T11:17:05+02:00</time>
      </trkpt>
      <trkpt lat="41.69397333999999" lon="1.99303834">
        <ele>74.0</ele>
        <time>2019-06-09T11:17:09+02:00</time>
      </trkpt>
      <trkpt lat="41.69394834" lon="1.9930966699999995">
        <ele>74.0</ele>
        <time>2019-06-09T11:17:11+02:00</time>
      </trkpt>
      <trkpt lat="41.693923999999996" lon="1.9931699999999999">
        <ele>73.0</ele>
        <time>2019-06-09T11:17:14+02:00</time>
      </trkpt>
      <trkpt lat="41.69390433999999" lon="1.99323">
        <ele>73.0</ele>
        <time>2019-06-09T11:17:16+02:00</time>
      </trkpt>
      <trkpt lat="41.69388" lon="1.9932933399999997">
        <ele>72.0</ele>
        <time>2019-06-09T11:17:19+02:00</time>
      </trkpt>
      <trkpt lat="41.693855" lon="1.99335">
        <ele>72.0</ele>
        <time>2019-06-09T11:17:22+02:00</time>
      </trkpt>
      <trkpt lat="41.69383" lon="1.9934216699999996">
        <ele>71.0</ele>
        <time>2019-06-09T11:17:26+02:00</time>
      </trkpt>
      <trkpt lat="41.69380367" lon="1.9934783399999998">
        <ele>71.0</ele>
        <time>2019-06-09T11:17:29+02:00</time>
      </trkpt>
      <trkpt lat="41.693777" lon="1.9935333399999997">
        <ele>71.0</ele>
        <time>2019-06-09T11:17:31+02:00</time>
      </trkpt>
      <trkpt lat="41.69375134" lon="1.99359">
        <ele>71.0</ele>
        <time>2019-06-09T11:17:33+02:00</time>
      </trkpt>
      <trkpt lat="41.693725670000006" lon="1.9936599999999998">
        <ele>71.0</ele>
        <time>2019-06-09T11:17:35+02:00</time>
      </trkpt>
      <trkpt lat="41.69373667" lon="1.9937233399999996">
        <ele>71.0</ele>
        <time>2019-06-09T11:17:37+02:00</time>
      </trkpt>
      <trkpt lat="41.69376167" lon="1.9937999999999998">
        <ele>70.0</ele>
        <time>2019-06-09T11:17:40+02:00</time>
      </trkpt>
      <trkpt lat="41.693786669999994" lon="1.9938833399999996">
        <ele>69.0</ele>
        <time>2019-06-09T11:17:43+02:00</time>
      </trkpt>
      <trkpt lat="41.69381" lon="1.9939466699999997">
        <ele>69.0</ele>
        <time>2019-06-09T11:17:45+02:00</time>
      </trkpt>
      <trkpt lat="41.693831669999994" lon="1.9940149999999999">
        <ele>68.0</ele>
        <time>2019-06-09T11:17:48+02:00</time>
      </trkpt>
      <trkpt lat="41.69385867" lon="1.9940583399999998">
        <ele>68.0</ele>
        <time>2019-06-09T11:17:51+02:00</time>
      </trkpt>
      <trkpt lat="41.69390167" lon="1.9940966699999998">
        <ele>68.0</ele>
        <time>2019-06-09T11:17:54+02:00</time>
      </trkpt>
      <trkpt lat="41.69393167" lon="1.9941416699999999">
        <ele>71.0</ele>
        <time>2019-06-09T11:18:07+02:00</time>
      </trkpt>
      <trkpt lat="41.693986669999994" lon="1.9941316699999998">
        <ele>71.0</ele>
        <time>2019-06-09T11:18:34+02:00</time>
      </trkpt>
      <trkpt lat="41.69403667" lon="1.9941416699999999">
        <ele>71.0</ele>
        <time>2019-06-09T11:18:37+02:00</time>
      </trkpt>
      <trkpt lat="41.69407667" lon="1.9941733399999997">
        <ele>71.0</ele>
        <time>2019-06-09T11:18:40+02:00</time>
      </trkpt>
      <trkpt lat="41.694125" lon="1.9942166699999997">
        <ele>71.0</ele>
        <time>2019-06-09T11:18:44+02:00</time>
      </trkpt>
      <trkpt lat="41.69417167" lon="1.9942616699999998">
        <ele>71.0</ele>
        <time>2019-06-09T11:18:47+02:00</time>
      </trkpt>
      <trkpt lat="41.69420667000001" lon="1.99430867">
        <ele>73.0</ele>
        <time>2019-06-09T11:18:50+02:00</time>
      </trkpt>
      <trkpt lat="41.694248339999994" lon="1.9943506699999998">
        <ele>74.0</ele>
        <time>2019-06-09T11:18:53+02:00</time>
      </trkpt>
      <trkpt lat="41.694275" lon="1.9943963400000002">
        <ele>75.0</ele>
        <time>2019-06-09T11:18:56+02:00</time>
      </trkpt>
      <trkpt lat="41.69427334" lon="1.99448667">
        <ele>75.0</ele>
        <time>2019-06-09T11:18:59+02:00</time>
      </trkpt>
      <trkpt lat="41.694266670000005" lon="1.9945650000000001">
        <ele>75.0</ele>
        <time>2019-06-09T11:19:02+02:00</time>
      </trkpt>
      <trkpt lat="41.69425499999999" lon="1.9946433399999997">
        <ele>75.0</ele>
        <time>2019-06-09T11:19:05+02:00</time>
      </trkpt>
      <trkpt lat="41.69425167000001" lon="1.9947216699999994">
        <ele>75.0</ele>
        <time>2019-06-09T11:19:07+02:00</time>
      </trkpt>
      <trkpt lat="41.694247000000004" lon="1.9948000000000001">
        <ele>74.0</ele>
        <time>2019-06-09T11:19:10+02:00</time>
      </trkpt>
      <trkpt lat="41.694224999999996" lon="1.9948833399999994">
        <ele>74.0</ele>
        <time>2019-06-09T11:19:13+02:00</time>
      </trkpt>
      <trkpt lat="41.69417167" lon="1.994935">
        <ele>74.0</ele>
        <time>2019-06-09T11:19:16+02:00</time>
      </trkpt>
      <trkpt lat="41.694129999999994" lon="1.99496167">
        <ele>74.0</ele>
        <time>2019-06-09T11:19:19+02:00</time>
      </trkpt>
      <trkpt lat="41.69407499999999" lon="1.9949783399999994">
        <ele>74.0</ele>
        <time>2019-06-09T11:19:23+02:00</time>
      </trkpt>
      <trkpt lat="41.69401833999999" lon="1.9949900000000003">
        <ele>74.0</ele>
        <time>2019-06-09T11:19:27+02:00</time>
      </trkpt>
      <trkpt lat="41.693965000000006" lon="1.9949999999999999">
        <ele>74.0</ele>
        <time>2019-06-09T11:19:32+02:00</time>
      </trkpt>
      <trkpt lat="41.693918339999996" lon="1.9950216699999994">
        <ele>74.0</ele>
        <time>2019-06-09T11:19:36+02:00</time>
      </trkpt>
      <trkpt lat="41.693866670000006" lon="1.9950396700000002">
        <ele>74.0</ele>
        <time>2019-06-09T11:19:40+02:00</time>
      </trkpt>
      <trkpt lat="41.69381833999999" lon="1.9950683399999996">
        <ele>74.0</ele>
        <time>2019-06-09T11:19:44+02:00</time>
      </trkpt>
      <trkpt lat="41.69377333999999" lon="1.9950696700000001">
        <ele>74.0</ele>
        <time>2019-06-09T11:19:47+02:00</time>
      </trkpt>
      <trkpt lat="41.693726670000004" lon="1.9950416699999998">
        <ele>74.0</ele>
        <time>2019-06-09T11:19:51+02:00</time>
      </trkpt>
      <trkpt lat="41.69367834" lon="1.99500667">
        <ele>74.0</ele>
        <time>2019-06-09T11:19:56+02:00</time>
      </trkpt>
      <trkpt lat="41.69363334" lon="1.9949883399999997">
        <ele>74.0</ele>
        <time>2019-06-09T11:20:01+02:00</time>
      </trkpt>
      <trkpt lat="41.693595" lon="1.9949333399999993">
        <ele>75.0</ele>
        <time>2019-06-09T11:20:06+02:00</time>
      </trkpt>
      <trkpt lat="41.69355167" lon="1.9948900000000003">
        <ele>75.0</ele>
        <time>2019-06-09T11:20:11+02:00</time>
      </trkpt>
      <trkpt lat="41.693506670000005" lon="1.99485034">
        <ele>76.0</ele>
        <time>2019-06-09T11:20:16+02:00</time>
      </trkpt>
      <trkpt lat="41.69346667000001" lon="1.9948026699999997">
        <ele>77.0</ele>
        <time>2019-06-09T11:20:21+02:00</time>
      </trkpt>
      <trkpt lat="41.693428340000004" lon="1.9947533399999997">
        <ele>78.0</ele>
        <time>2019-06-09T11:20:26+02:00</time>
      </trkpt>
      <trkpt lat="41.693385" lon="1.994715">
        <ele>78.0</ele>
        <time>2019-06-09T11:20:30+02:00</time>
      </trkpt>
      <trkpt lat="41.693351670000006" lon="1.9946733399999999">
        <ele>78.0</ele>
        <time>2019-06-09T11:20:34+02:00</time>
      </trkpt>
      <trkpt lat="41.69331167" lon="1.9946333399999996">
        <ele>79.0</ele>
        <time>2019-06-09T11:20:39+02:00</time>
      </trkpt>
      <trkpt lat="41.69327167" lon="1.9945946700000001">
        <ele>79.0</ele>
        <time>2019-06-09T11:20:45+02:00</time>
      </trkpt>
      <trkpt lat="41.693235" lon="1.9945596700000003">
        <ele>80.0</ele>
        <time>2019-06-09T11:20:50+02:00</time>
      </trkpt>
      <trkpt lat="41.69318167" lon="1.9945583399999998">
        <ele>81.0</ele>
        <time>2019-06-09T11:20:55+02:00</time>
      </trkpt>
      <trkpt lat="41.693135" lon="1.9945416699999998">
        <ele>82.0</ele>
        <time>2019-06-09T11:20:59+02:00</time>
      </trkpt>
      <trkpt lat="41.693079999999995" lon="1.9945333399999996">
        <ele>83.0</ele>
        <time>2019-06-09T11:21:04+02:00</time>
      </trkpt>
      <trkpt lat="41.69303" lon="1.9945346700000002">
        <ele>83.0</ele>
        <time>2019-06-09T11:21:09+02:00</time>
      </trkpt>
      <trkpt lat="41.69298833999999" lon="1.9945666699999998">
        <ele>83.0</ele>
        <time>2019-06-09T11:21:13+02:00</time>
      </trkpt>
      <trkpt lat="41.69294" lon="1.99457467">
        <ele>83.0</ele>
        <time>2019-06-09T11:21:17+02:00</time>
      </trkpt>
      <trkpt lat="41.692896669999996" lon="1.9946083399999996">
        <ele>82.0</ele>
        <time>2019-06-09T11:21:22+02:00</time>
      </trkpt>
      <trkpt lat="41.692883339999995" lon="1.99467">
        <ele>80.0</ele>
        <time>2019-06-09T11:21:27+02:00</time>
      </trkpt>
      <trkpt lat="41.692879999999995" lon="1.994735">
        <ele>78.0</ele>
        <time>2019-06-09T11:21:32+02:00</time>
      </trkpt>
      <trkpt lat="41.69289834" lon="1.9947949999999999">
        <ele>77.0</ele>
        <time>2019-06-09T11:21:36+02:00</time>
      </trkpt>
      <trkpt lat="41.692921670000004" lon="1.9948583399999997">
        <ele>75.0</ele>
        <time>2019-06-09T11:21:41+02:00</time>
      </trkpt>
      <trkpt lat="41.69294" lon="1.9949150000000002">
        <ele>44.0</ele>
        <time>2019-06-09T11:24:03+02:00</time>
      </trkpt>
      <trkpt lat="41.692975" lon="1.9949733399999996">
        <ele>43.0</ele>
        <time>2019-06-09T11:24:07+02:00</time>
      </trkpt>
      <trkpt lat="41.693017999999995" lon="1.9950299999999999">
        <ele>42.0</ele>
        <time>2019-06-09T11:24:11+02:00</time>
      </trkpt>
      <trkpt lat="41.69305899999999" lon="1.99508167">
        <ele>41.0</ele>
        <time>2019-06-09T11:24:15+02:00</time>
      </trkpt>
      <trkpt lat="41.693101670000004" lon="1.99512667">
        <ele>40.0</ele>
        <time>2019-06-09T11:24:19+02:00</time>
      </trkpt>
      <trkpt lat="41.69313167" lon="1.9951749999999997">
        <ele>39.0</ele>
        <time>2019-06-09T11:24:22+02:00</time>
      </trkpt>
      <trkpt lat="41.69316667000001" lon="1.9952333399999993">
        <ele>38.0</ele>
        <time>2019-06-09T11:24:25+02:00</time>
      </trkpt>
      <trkpt lat="41.69319367" lon="1.9952849999999998">
        <ele>36.0</ele>
        <time>2019-06-09T11:24:28+02:00</time>
      </trkpt>
      <trkpt lat="41.69322834" lon="1.99534834">
        <ele>35.0</ele>
        <time>2019-06-09T11:24:32+02:00</time>
      </trkpt>
      <trkpt lat="41.693259999999995" lon="1.99541167">
        <ele>34.0</ele>
        <time>2019-06-09T11:24:36+02:00</time>
      </trkpt>
      <trkpt lat="41.693286" lon="1.9954699999999999">
        <ele>34.0</ele>
        <time>2019-06-09T11:24:40+02:00</time>
      </trkpt>
      <trkpt lat="41.69330334" lon="1.99553">
        <ele>34.0</ele>
        <time>2019-06-09T11:24:44+02:00</time>
      </trkpt>
      <trkpt lat="41.693335" lon="1.99558">
        <ele>34.0</ele>
        <time>2019-06-09T11:24:48+02:00</time>
      </trkpt>
      <trkpt lat="41.693374999999996" lon="1.99562667">
        <ele>34.0</ele>
        <time>2019-06-09T11:24:52+02:00</time>
      </trkpt>
      <trkpt lat="41.693419999999996" lon="1.99565667">
        <ele>34.0</ele>
        <time>2019-06-09T11:24:55+02:00</time>
      </trkpt>
      <trkpt lat="41.693465" lon="1.9956933399999996">
        <ele>34.0</ele>
        <time>2019-06-09T11:24:58+02:00</time>
      </trkpt>
      <trkpt lat="41.69352334" lon="1.9957370000000005">
        <ele>35.0</ele>
        <time>2019-06-09T11:25:01+02:00</time>
      </trkpt>
      <trkpt lat="41.693583339999996" lon="1.99577967">
        <ele>36.0</ele>
        <time>2019-06-09T11:25:04+02:00</time>
      </trkpt>
      <trkpt lat="41.69363334" lon="1.9958143399999997">
        <ele>37.0</ele>
        <time>2019-06-09T11:25:06+02:00</time>
      </trkpt>
      <trkpt lat="41.693684999999995" lon="1.995843">
        <ele>38.0</ele>
        <time>2019-06-09T11:25:08+02:00</time>
      </trkpt>
      <trkpt lat="41.693756670000006" lon="1.99588">
        <ele>40.0</ele>
        <time>2019-06-09T11:25:10+02:00</time>
      </trkpt>
      <trkpt lat="41.69383834" lon="1.9959126700000003">
        <ele>41.0</ele>
        <time>2019-06-09T11:25:12+02:00</time>
      </trkpt>
      <trkpt lat="41.69388334" lon="1.9959200000000004">
        <ele>41.0</ele>
        <time>2019-06-09T11:25:13+02:00</time>
      </trkpt>
      <trkpt lat="41.693963339999996" lon="1.9958499999999997">
        <ele>43.0</ele>
        <time>2019-06-09T11:25:15+02:00</time>
      </trkpt>
      <trkpt lat="41.69403834" lon="1.9957883399999996">
        <ele>45.0</ele>
        <time>2019-06-09T11:25:17+02:00</time>
      </trkpt>
      <trkpt lat="41.694115" lon="1.9957533399999996">
        <ele>47.0</ele>
        <time>2019-06-09T11:25:19+02:00</time>
      </trkpt>
      <trkpt lat="41.694196670000004" lon="1.9957366699999999">
        <ele>48.0</ele>
        <time>2019-06-09T11:25:21+02:00</time>
      </trkpt>
      <trkpt lat="41.69424334" lon="1.9957266699999998">
        <ele>49.0</ele>
        <time>2019-06-09T11:25:22+02:00</time>
      </trkpt>
      <trkpt lat="41.694295" lon="1.9957186699999998">
        <ele>50.0</ele>
        <time>2019-06-09T11:25:23+02:00</time>
      </trkpt>
      <trkpt lat="41.69435" lon="1.99571234">
        <ele>51.0</ele>
        <time>2019-06-09T11:25:24+02:00</time>
      </trkpt>
      <trkpt lat="41.69441" lon="1.995704">
        <ele>52.0</ele>
        <time>2019-06-09T11:25:25+02:00</time>
      </trkpt>
      <trkpt lat="41.69447167" lon="1.995696">
        <ele>53.0</ele>
        <time>2019-06-09T11:25:26+02:00</time>
      </trkpt>
      <trkpt lat="41.69453667" lon="1.99568734">
        <ele>54.0</ele>
        <time>2019-06-09T11:25:27+02:00</time>
      </trkpt>
      <trkpt lat="41.694601670000004" lon="1.99567934">
        <ele>55.0</ele>
        <time>2019-06-09T11:25:28+02:00</time>
      </trkpt>
      <trkpt lat="41.69466834" lon="1.99567467">
        <ele>56.0</ele>
        <time>2019-06-09T11:25:29+02:00</time>
      </trkpt>
      <trkpt lat="41.694733340000006" lon="1.9956779999999998">
        <ele>57.0</ele>
        <time>2019-06-09T11:25:30+02:00</time>
      </trkpt>
      <trkpt lat="41.69479667" lon="1.9956806699999998">
        <ele>58.0</ele>
        <time>2019-06-09T11:25:31+02:00</time>
      </trkpt>
      <trkpt lat="41.694851670000006" lon="1.99568367">
        <ele>59.0</ele>
        <time>2019-06-09T11:25:32+02:00</time>
      </trkpt>
      <trkpt lat="41.6949" lon="1.9956806699999998">
        <ele>60.0</ele>
        <time>2019-06-09T11:25:33+02:00</time>
      </trkpt>
      <trkpt lat="41.69494000000001" lon="1.9956713400000001">
        <ele>62.0</ele>
        <time>2019-06-09T11:25:34+02:00</time>
      </trkpt>
      <trkpt lat="41.69497667" lon="1.995657">
        <ele>63.0</ele>
        <time>2019-06-09T11:25:35+02:00</time>
      </trkpt>
      <trkpt lat="41.69503834" lon="1.9955500000000002">
        <ele>66.0</ele>
        <time>2019-06-09T11:25:37+02:00</time>
      </trkpt>
      <trkpt lat="41.69507" lon="1.9954900000000002">
        <ele>68.0</ele>
        <time>2019-06-09T11:25:39+02:00</time>
      </trkpt>
      <trkpt lat="41.695085" lon="1.9954033399999997">
        <ele>71.0</ele>
        <time>2019-06-09T11:25:41+02:00</time>
      </trkpt>
      <trkpt lat="41.69510834" lon="1.9953216699999998">
        <ele>73.0</ele>
        <time>2019-06-09T11:25:43+02:00</time>
      </trkpt>
      <trkpt lat="41.695142999999995" lon="1.99527">
        <ele>74.0</ele>
        <time>2019-06-09T11:25:45+02:00</time>
      </trkpt>
      <trkpt lat="41.69517766999999" lon="1.99523667">
        <ele>75.0</ele>
        <time>2019-06-09T11:25:47+02:00</time>
      </trkpt>
      <trkpt lat="41.695225" lon="1.9952">
        <ele>76.0</ele>
        <time>2019-06-09T11:25:50+02:00</time>
      </trkpt>
      <trkpt lat="41.695280000000004" lon="1.9951833399999994">
        <ele>77.0</ele>
        <time>2019-06-09T11:25:53+02:00</time>
      </trkpt>
      <trkpt lat="41.695341670000005" lon="1.9951833399999994">
        <ele>77.0</ele>
        <time>2019-06-09T11:25:56+02:00</time>
      </trkpt>
      <trkpt lat="41.695395000000005" lon="1.995225">
        <ele>77.0</ele>
        <time>2019-06-09T11:25:59+02:00</time>
      </trkpt>
      <trkpt lat="41.695434999999996" lon="1.9952683399999998">
        <ele>77.0</ele>
        <time>2019-06-09T11:26:02+02:00</time>
      </trkpt>
      <trkpt lat="41.695475" lon="1.9953183399999996">
        <ele>77.0</ele>
        <time>2019-06-09T11:26:05+02:00</time>
      </trkpt>
      <trkpt lat="41.69551499999999" lon="1.9953683399999995">
        <ele>77.0</ele>
        <time>2019-06-09T11:26:08+02:00</time>
      </trkpt>
      <trkpt lat="41.695555" lon="1.9954153400000003">
        <ele>77.0</ele>
        <time>2019-06-09T11:26:11+02:00</time>
      </trkpt>
      <trkpt lat="41.695595000000004" lon="1.9954550000000002">
        <ele>77.0</ele>
        <time>2019-06-09T11:26:14+02:00</time>
      </trkpt>
      <trkpt lat="41.69564834" lon="1.9954900000000002">
        <ele>76.0</ele>
        <time>2019-06-09T11:26:18+02:00</time>
      </trkpt>
      <trkpt lat="41.695705" lon="1.9954749999999997">
        <ele>76.0</ele>
        <time>2019-06-09T11:26:22+02:00</time>
      </trkpt>
      <trkpt lat="41.69575" lon="1.995465">
        <ele>76.0</ele>
        <time>2019-06-09T11:26:25+02:00</time>
      </trkpt>
      <trkpt lat="41.69580167" lon="1.9954550000000002">
        <ele>75.0</ele>
        <time>2019-06-09T11:26:28+02:00</time>
      </trkpt>
      <trkpt lat="41.69585667" lon="1.9954476700000001">
        <ele>74.0</ele>
        <time>2019-06-09T11:26:32+02:00</time>
      </trkpt>
      <trkpt lat="41.695903339999994" lon="1.9954403399999996">
        <ele>73.0</ele>
        <time>2019-06-09T11:26:35+02:00</time>
      </trkpt>
      <trkpt lat="41.695953339999996" lon="1.9954320000000003">
        <ele>73.0</ele>
        <time>2019-06-09T11:26:38+02:00</time>
      </trkpt>
      <trkpt lat="41.69600334" lon="1.9954273399999998">
        <ele>72.0</ele>
        <time>2019-06-09T11:26:42+02:00</time>
      </trkpt>
      <trkpt lat="41.69605" lon="1.9954239999999999">
        <ele>71.0</ele>
        <time>2019-06-09T11:26:45+02:00</time>
      </trkpt>
      <trkpt lat="41.69609667000001" lon="1.99542">
        <ele>70.0</ele>
        <time>2019-06-09T11:26:49+02:00</time>
      </trkpt>
      <trkpt lat="41.69615" lon="1.9954159999999999">
        <ele>68.0</ele>
        <time>2019-06-09T11:26:53+02:00</time>
      </trkpt>
      <trkpt lat="41.6962" lon="1.9954050000000003">
        <ele>67.0</ele>
        <time>2019-06-09T11:26:57+02:00</time>
      </trkpt>
      <trkpt lat="41.696255" lon="1.9953650000000003">
        <ele>66.0</ele>
        <time>2019-06-09T11:27:01+02:00</time>
      </trkpt>
      <trkpt lat="41.69628667" lon="1.99531167">
        <ele>66.0</ele>
        <time>2019-06-09T11:27:04+02:00</time>
      </trkpt>
      <trkpt lat="41.696305" lon="1.9952466699999996">
        <ele>65.0</ele>
        <time>2019-06-09T11:27:08+02:00</time>
      </trkpt>
      <trkpt lat="41.69629167000001" lon="1.9951749999999997">
        <ele>65.0</ele>
        <time>2019-06-09T11:27:12+02:00</time>
      </trkpt>
      <trkpt lat="41.696268339999996" lon="1.9951133399999996">
        <ele>64.0</ele>
        <time>2019-06-09T11:27:15+02:00</time>
      </trkpt>
      <trkpt lat="41.696234999999994" lon="1.9950499999999998">
        <ele>64.0</ele>
        <time>2019-06-09T11:27:18+02:00</time>
      </trkpt>
      <trkpt lat="41.69620167" lon="1.9949883399999997">
        <ele>64.0</ele>
        <time>2019-06-09T11:27:21+02:00</time>
      </trkpt>
      <trkpt lat="41.696165" lon="1.9949383399999998">
        <ele>64.0</ele>
        <time>2019-06-09T11:27:24+02:00</time>
      </trkpt>
      <trkpt lat="41.69611667" lon="1.9949033399999998">
        <ele>64.0</ele>
        <time>2019-06-09T11:27:27+02:00</time>
      </trkpt>
      <trkpt lat="41.696056670000004" lon="1.9948900000000003">
        <ele>65.0</ele>
        <time>2019-06-09T11:27:30+02:00</time>
      </trkpt>
      <trkpt lat="41.695995" lon="1.9948799999999998">
        <ele>65.0</ele>
        <time>2019-06-09T11:27:31+02:00</time>
      </trkpt>
      <trkpt lat="41.695935" lon="1.9948716699999998">
        <ele>65.0</ele>
        <time>2019-06-09T11:27:34+02:00</time>
      </trkpt>
      <trkpt lat="41.695888339999996" lon="1.994857">
        <ele>65.0</ele>
        <time>2019-06-09T11:27:36+02:00</time>
      </trkpt>
      <trkpt lat="41.695825" lon="1.99483967">
        <ele>66.0</ele>
        <time>2019-06-09T11:27:39+02:00</time>
      </trkpt>
      <trkpt lat="41.69577834" lon="1.9948206699999997">
        <ele>66.0</ele>
        <time>2019-06-09T11:27:41+02:00</time>
      </trkpt>
      <trkpt lat="41.695726670000006" lon="1.9947866699999999">
        <ele>66.0</ele>
        <time>2019-06-09T11:27:44+02:00</time>
      </trkpt>
      <trkpt lat="41.695681670000006" lon="1.9947483399999997">
        <ele>66.0</ele>
        <time>2019-06-09T11:27:47+02:00</time>
      </trkpt>
      <trkpt lat="41.69565000000001" lon="1.9947126700000002">
        <ele>66.0</ele>
        <time>2019-06-09T11:27:50+02:00</time>
      </trkpt>
      <trkpt lat="41.695623340000004" lon="1.99462">
        <ele>66.0</ele>
        <time>2019-06-09T11:27:53+02:00</time>
      </trkpt>
      <trkpt lat="41.695634999999996" lon="1.99456167">
        <ele>66.0</ele>
        <time>2019-06-09T11:27:56+02:00</time>
      </trkpt>
      <trkpt lat="41.69568" lon="1.9945499999999998">
        <ele>66.0</ele>
        <time>2019-06-09T11:27:59+02:00</time>
      </trkpt>
      <trkpt lat="41.69573334" lon="1.9945783399999997">
        <ele>66.0</ele>
        <time>2019-06-09T11:28:02+02:00</time>
      </trkpt>
      <trkpt lat="41.69578167000001" lon="1.9946133400000001">
        <ele>66.0</ele>
        <time>2019-06-09T11:28:05+02:00</time>
      </trkpt>
      <trkpt lat="41.695843339999996" lon="1.9946283399999998">
        <ele>66.0</ele>
        <time>2019-06-09T11:28:08+02:00</time>
      </trkpt>
      <trkpt lat="41.695888339999996" lon="1.9946063399999996">
        <ele>68.0</ele>
        <time>2019-06-09T11:28:11+02:00</time>
      </trkpt>
      <trkpt lat="41.69592834" lon="1.9945733399999999">
        <ele>69.0</ele>
        <time>2019-06-09T11:28:14+02:00</time>
      </trkpt>
      <trkpt lat="41.69597" lon="1.9945066700000003">
        <ele>70.0</ele>
        <time>2019-06-09T11:28:18+02:00</time>
      </trkpt>
      <trkpt lat="41.69600167" lon="1.9944549999999999">
        <ele>71.0</ele>
        <time>2019-06-09T11:28:20+02:00</time>
      </trkpt>
      <trkpt lat="41.69604667" lon="1.9943916699999995">
        <ele>72.0</ele>
        <time>2019-06-09T11:28:23+02:00</time>
      </trkpt>
      <trkpt lat="41.696093000000005" lon="1.9943233399999998">
        <ele>73.0</ele>
        <time>2019-06-09T11:28:26+02:00</time>
      </trkpt>
      <trkpt lat="41.69614" lon="1.99428667">
        <ele>74.0</ele>
        <time>2019-06-09T11:28:28+02:00</time>
      </trkpt>
      <trkpt lat="41.696205" lon="1.9942783399999997">
        <ele>75.0</ele>
        <time>2019-06-09T11:28:31+02:00</time>
      </trkpt>
      <trkpt lat="41.69625" lon="1.9942833399999995">
        <ele>76.0</ele>
        <time>2019-06-09T11:28:33+02:00</time>
      </trkpt>
      <trkpt lat="41.69629334" lon="1.9943400000000004">
        <ele>76.0</ele>
        <time>2019-06-09T11:28:36+02:00</time>
      </trkpt>
      <trkpt lat="41.69632334" lon="1.9944166700000001">
        <ele>77.0</ele>
        <time>2019-06-09T11:28:39+02:00</time>
      </trkpt>
      <trkpt lat="41.696358339999996" lon="1.99449167">
        <ele>78.0</ele>
        <time>2019-06-09T11:28:42+02:00</time>
      </trkpt>
      <trkpt lat="41.69639" lon="1.9945633399999998">
        <ele>79.0</ele>
        <time>2019-06-09T11:28:45+02:00</time>
      </trkpt>
      <trkpt lat="41.69641334" lon="1.99462">
        <ele>79.0</ele>
        <time>2019-06-09T11:28:47+02:00</time>
      </trkpt>
      <trkpt lat="41.696435" lon="1.9946783399999997">
        <ele>79.0</ele>
        <time>2019-06-09T11:28:49+02:00</time>
      </trkpt>
      <trkpt lat="41.69646300000001" lon="1.994755">
        <ele>79.0</ele>
        <time>2019-06-09T11:28:52+02:00</time>
      </trkpt>
      <trkpt lat="41.696485" lon="1.9948150000000002">
        <ele>79.0</ele>
        <time>2019-06-09T11:28:54+02:00</time>
      </trkpt>
      <trkpt lat="41.696515" lon="1.9948816700000003">
        <ele>80.0</ele>
        <time>2019-06-09T11:28:57+02:00</time>
      </trkpt>
      <trkpt lat="41.696541339999996" lon="1.9949316700000002">
        <ele>80.0</ele>
        <time>2019-06-09T11:28:59+02:00</time>
      </trkpt>
      <trkpt lat="41.696580000000004" lon="1.9949916699999999">
        <ele>81.0</ele>
        <time>2019-06-09T11:29:02+02:00</time>
      </trkpt>
      <trkpt lat="41.69661933999999" lon="1.9950566699999999">
        <ele>82.0</ele>
        <time>2019-06-09T11:29:05+02:00</time>
      </trkpt>
      <trkpt lat="41.69665167000001" lon="1.9951066699999997">
        <ele>82.0</ele>
        <time>2019-06-09T11:29:07+02:00</time>
      </trkpt>
      <trkpt lat="41.696689670000005" lon="1.99517167">
        <ele>83.0</ele>
        <time>2019-06-09T11:29:09+02:00</time>
      </trkpt>
      <trkpt lat="41.696722" lon="1.9952383399999998">
        <ele>83.0</ele>
        <time>2019-06-09T11:29:11+02:00</time>
      </trkpt>
      <trkpt lat="41.69672833999999" lon="1.9953066700000002">
        <ele>83.0</ele>
        <time>2019-06-09T11:29:13+02:00</time>
      </trkpt>
      <trkpt lat="41.69673334" lon="1.9953716699999997">
        <ele>84.0</ele>
        <time>2019-06-09T11:29:15+02:00</time>
      </trkpt>
      <trkpt lat="41.69673467" lon="1.9954349999999998">
        <ele>84.0</ele>
        <time>2019-06-09T11:29:17+02:00</time>
      </trkpt>
      <trkpt lat="41.69672833999999" lon="1.9955116699999997">
        <ele>84.0</ele>
        <time>2019-06-09T11:29:19+02:00</time>
      </trkpt>
      <trkpt lat="41.696715000000005" lon="1.9955766699999997">
        <ele>85.0</ele>
        <time>2019-06-09T11:29:21+02:00</time>
      </trkpt>
      <trkpt lat="41.69668167000001" lon="1.9956400000000003">
        <ele>85.0</ele>
        <time>2019-06-09T11:29:23+02:00</time>
      </trkpt>
      <trkpt lat="41.696635" lon="1.9956916699999998">
        <ele>85.0</ele>
        <time>2019-06-09T11:29:25+02:00</time>
      </trkpt>
      <trkpt lat="41.69658166999999" lon="1.9957283399999999">
        <ele>86.0</ele>
        <time>2019-06-09T11:29:27+02:00</time>
      </trkpt>
      <trkpt lat="41.69653" lon="1.9957516700000002">
        <ele>86.0</ele>
        <time>2019-06-09T11:29:29+02:00</time>
      </trkpt>
      <trkpt lat="41.696475" lon="1.99578167">
        <ele>86.0</ele>
        <time>2019-06-09T11:29:31+02:00</time>
      </trkpt>
      <trkpt lat="41.69642667" lon="1.9958063399999997">
        <ele>86.0</ele>
        <time>2019-06-09T11:29:33+02:00</time>
      </trkpt>
      <trkpt lat="41.69638" lon="1.9958379999999998">
        <ele>87.0</ele>
        <time>2019-06-09T11:29:35+02:00</time>
      </trkpt>
      <trkpt lat="41.69633334" lon="1.99587">
        <ele>88.0</ele>
        <time>2019-06-09T11:29:37+02:00</time>
      </trkpt>
      <trkpt lat="41.69628667" lon="1.9959029999999998">
        <ele>88.0</ele>
        <time>2019-06-09T11:29:39+02:00</time>
      </trkpt>
      <trkpt lat="41.69624167" lon="1.99593367">
        <ele>89.0</ele>
        <time>2019-06-09T11:29:41+02:00</time>
      </trkpt>
      <trkpt lat="41.696196670000006" lon="1.99596467">
        <ele>90.0</ele>
        <time>2019-06-09T11:29:43+02:00</time>
      </trkpt>
      <trkpt lat="41.69614500000001" lon="1.9960010000000004">
        <ele>91.0</ele>
        <time>2019-06-09T11:29:45+02:00</time>
      </trkpt>
      <trkpt lat="41.69609834" lon="1.996033">
        <ele>92.0</ele>
        <time>2019-06-09T11:29:47+02:00</time>
      </trkpt>
      <trkpt lat="41.69605" lon="1.99606967">
        <ele>95.0</ele>
        <time>2019-06-09T11:29:50+02:00</time>
      </trkpt>
      <trkpt lat="41.695995" lon="1.9961083399999997">
        <ele>96.0</ele>
        <time>2019-06-09T11:29:53+02:00</time>
      </trkpt>
      <trkpt lat="41.69596" lon="1.99613834">
        <ele>97.0</ele>
        <time>2019-06-09T11:29:55+02:00</time>
      </trkpt>
      <trkpt lat="41.695921670000004" lon="1.9961703399999997">
        <ele>99.0</ele>
        <time>2019-06-09T11:29:57+02:00</time>
      </trkpt>
      <trkpt lat="41.69586667" lon="1.9962153399999998">
        <ele>101.0</ele>
        <time>2019-06-09T11:30:00+02:00</time>
      </trkpt>
      <trkpt lat="41.69581167" lon="1.996261">
        <ele>102.0</ele>
        <time>2019-06-09T11:30:03+02:00</time>
      </trkpt>
      <trkpt lat="41.69575999999999" lon="1.9963073400000002">
        <ele>103.0</ele>
        <time>2019-06-09T11:30:06+02:00</time>
      </trkpt>
      <trkpt lat="41.695713340000005" lon="1.996355">
        <ele>104.0</ele>
        <time>2019-06-09T11:30:09+02:00</time>
      </trkpt>
      <trkpt lat="41.69567667" lon="1.99639867">
        <ele>104.0</ele>
        <time>2019-06-09T11:30:11+02:00</time>
      </trkpt>
      <trkpt lat="41.69564667000001" lon="1.99653">
        <ele>105.0</ele>
        <time>2019-06-09T11:30:13+02:00</time>
      </trkpt>
      <trkpt lat="41.69561133999999" lon="1.9966249999999999">
        <ele>105.0</ele>
        <time>2019-06-09T11:30:15+02:00</time>
      </trkpt>
      <trkpt lat="41.695592669999996" lon="1.9966816699999999">
        <ele>105.0</ele>
        <time>2019-06-09T11:30:16+02:00</time>
      </trkpt>
      <trkpt lat="41.69556600000001" lon="1.9967766699999998">
        <ele>106.0</ele>
        <time>2019-06-09T11:30:18+02:00</time>
      </trkpt>
      <trkpt lat="41.69553567" lon="1.9968633399999998">
        <ele>106.0</ele>
        <time>2019-06-09T11:30:20+02:00</time>
      </trkpt>
      <trkpt lat="41.69550367" lon="1.9969383399999998">
        <ele>106.0</ele>
        <time>2019-06-09T11:30:22+02:00</time>
      </trkpt>
      <trkpt lat="41.69547267" lon="1.9969966699999997">
        <ele>107.0</ele>
        <time>2019-06-09T11:30:24+02:00</time>
      </trkpt>
      <trkpt lat="41.695437670000004" lon="1.9970466699999996">
        <ele>107.0</ele>
        <time>2019-06-09T11:30:26+02:00</time>
      </trkpt>
      <trkpt lat="41.695355" lon="1.9970783399999994">
        <ele>108.0</ele>
        <time>2019-06-09T11:30:28+02:00</time>
      </trkpt>
      <trkpt lat="41.69528667000001" lon="1.99709667">
        <ele>109.0</ele>
        <time>2019-06-09T11:30:30+02:00</time>
      </trkpt>
      <trkpt lat="41.695209999999996" lon="1.99709667">
        <ele>109.0</ele>
        <time>2019-06-09T11:30:32+02:00</time>
      </trkpt>
      <trkpt lat="41.69513667" lon="1.99709">
        <ele>110.0</ele>
        <time>2019-06-09T11:30:34+02:00</time>
      </trkpt>
      <trkpt lat="41.69506167000001" lon="1.9970849999999998">
        <ele>111.0</ele>
        <time>2019-06-09T11:30:36+02:00</time>
      </trkpt>
      <trkpt lat="41.694988339999995" lon="1.9970750000000002">
        <ele>112.0</ele>
        <time>2019-06-09T11:30:38+02:00</time>
      </trkpt>
      <trkpt lat="41.694905" lon="1.9970576699999998">
        <ele>114.0</ele>
        <time>2019-06-09T11:30:40+02:00</time>
      </trkpt>
      <trkpt lat="41.69483667000001" lon="1.9970453400000001">
        <ele>115.0</ele>
        <time>2019-06-09T11:30:42+02:00</time>
      </trkpt>
      <trkpt lat="41.694759999999995" lon="1.9970406699999999">
        <ele>116.0</ele>
        <time>2019-06-09T11:30:44+02:00</time>
      </trkpt>
      <trkpt lat="41.6947" lon="1.9970453400000001">
        <ele>117.0</ele>
        <time>2019-06-09T11:30:46+02:00</time>
      </trkpt>
      <trkpt lat="41.694626670000005" lon="1.9970629999999996">
        <ele>117.0</ele>
        <time>2019-06-09T11:30:48+02:00</time>
      </trkpt>
      <trkpt lat="41.694565" lon="1.99714">
        <ele>118.0</ele>
        <time>2019-06-09T11:30:50+02:00</time>
      </trkpt>
      <trkpt lat="41.694525000000006" lon="1.99717667">
        <ele>118.0</ele>
        <time>2019-06-09T11:30:51+02:00</time>
      </trkpt>
      <trkpt lat="41.694485" lon="1.9972216699999996">
        <ele>118.0</ele>
        <time>2019-06-09T11:30:52+02:00</time>
      </trkpt>
      <trkpt lat="41.694444999999995" lon="1.9972683400000002">
        <ele>119.0</ele>
        <time>2019-06-09T11:30:53+02:00</time>
      </trkpt>
      <trkpt lat="41.694403339999994" lon="1.99731834">
        <ele>119.0</ele>
        <time>2019-06-09T11:30:54+02:00</time>
      </trkpt>
      <trkpt lat="41.69436334" lon="1.99736834">
        <ele>119.0</ele>
        <time>2019-06-09T11:30:55+02:00</time>
      </trkpt>
      <trkpt lat="41.694311670000005" lon="1.9974243399999998">
        <ele>120.0</ele>
        <time>2019-06-09T11:30:56+02:00</time>
      </trkpt>
      <trkpt lat="41.69423833999999" lon="1.9975090000000002">
        <ele>120.0</ele>
        <time>2019-06-09T11:30:58+02:00</time>
      </trkpt>
      <trkpt lat="41.69419833999999" lon="1.997556">
        <ele>121.0</ele>
        <time>2019-06-09T11:30:59+02:00</time>
      </trkpt>
      <trkpt lat="41.69416834" lon="1.9975999999999998">
        <ele>121.0</ele>
        <time>2019-06-09T11:31:02+02:00</time>
      </trkpt>
      <trkpt lat="41.69415167000001" lon="1.99767">
        <ele>117.0</ele>
        <time>2019-06-09T11:31:16+02:00</time>
      </trkpt>
      <trkpt lat="41.69419" lon="1.9977183399999998">
        <ele>112.0</ele>
        <time>2019-06-09T11:31:23+02:00</time>
      </trkpt>
      <trkpt lat="41.694253339999996" lon="1.99770167">
        <ele>110.0</ele>
        <time>2019-06-09T11:31:26+02:00</time>
      </trkpt>
      <trkpt lat="41.694308340000006" lon="1.9976683399999995">
        <ele>110.0</ele>
        <time>2019-06-09T11:31:28+02:00</time>
      </trkpt>
      <trkpt lat="41.694375" lon="1.99765667">
        <ele>109.0</ele>
        <time>2019-06-09T11:31:30+02:00</time>
      </trkpt>
      <trkpt lat="41.694373340000006" lon="1.9977400000000003">
        <ele>109.0</ele>
        <time>2019-06-09T11:31:33+02:00</time>
      </trkpt>
      <trkpt lat="41.69432167000001" lon="1.9977779999999998">
        <ele>109.0</ele>
        <time>2019-06-09T11:31:35+02:00</time>
      </trkpt>
      <trkpt lat="41.69427334" lon="1.99783367">
        <ele>109.0</ele>
        <time>2019-06-09T11:31:37+02:00</time>
      </trkpt>
      <trkpt lat="41.694235" lon="1.997919">
        <ele>109.0</ele>
        <time>2019-06-09T11:31:39+02:00</time>
      </trkpt>
      <trkpt lat="41.694226670000006" lon="1.99800667">
        <ele>109.0</ele>
        <time>2019-06-09T11:31:40+02:00</time>
      </trkpt>
      <trkpt lat="41.694213340000005" lon="1.9980716699999999">
        <ele>109.0</ele>
        <time>2019-06-09T11:31:41+02:00</time>
      </trkpt>
      <trkpt lat="41.694193340000005" lon="1.99813834">
        <ele>109.0</ele>
        <time>2019-06-09T11:31:42+02:00</time>
      </trkpt>
      <trkpt lat="41.69416834" lon="1.99820667">
        <ele>109.0</ele>
        <time>2019-06-09T11:31:43+02:00</time>
      </trkpt>
      <trkpt lat="41.694143999999994" lon="1.9982833399999997">
        <ele>111.0</ele>
        <time>2019-06-09T11:31:44+02:00</time>
      </trkpt>
      <trkpt lat="41.694101" lon="1.9984333399999996">
        <ele>111.0</ele>
        <time>2019-06-09T11:31:45+02:00</time>
      </trkpt>
      <trkpt lat="41.694080670000005" lon="1.9985049999999998">
        <ele>111.0</ele>
        <time>2019-06-09T11:31:46+02:00</time>
      </trkpt>
      <trkpt lat="41.694059339999995" lon="1.9985683399999998">
        <ele>111.0</ele>
        <time>2019-06-09T11:31:47+02:00</time>
      </trkpt>
      <trkpt lat="41.69403667" lon="1.9986216699999997">
        <ele>112.0</ele>
        <time>2019-06-09T11:31:48+02:00</time>
      </trkpt>
      <trkpt lat="41.69399867" lon="1.9986666699999998">
        <ele>112.0</ele>
        <time>2019-06-09T11:31:50+02:00</time>
      </trkpt>
      <trkpt lat="41.69389667" lon="1.9986733399999999">
        <ele>114.0</ele>
        <time>2019-06-09T11:31:51+02:00</time>
      </trkpt>
      <trkpt lat="41.693805000000005" lon="1.99866167">
        <ele>114.0</ele>
        <time>2019-06-09T11:31:53+02:00</time>
      </trkpt>
      <trkpt lat="41.693753339999994" lon="1.9986700000000002">
        <ele>114.0</ele>
        <time>2019-06-09T11:31:54+02:00</time>
      </trkpt>
      <trkpt lat="41.69370167" lon="1.9986899999999999">
        <ele>114.0</ele>
        <time>2019-06-09T11:31:55+02:00</time>
      </trkpt>
      <trkpt lat="41.69365834" lon="1.9987239999999997">
        <ele>115.0</ele>
        <time>2019-06-09T11:31:56+02:00</time>
      </trkpt>
      <trkpt lat="41.69361834" lon="1.9987689999999998">
        <ele>115.0</ele>
        <time>2019-06-09T11:31:57+02:00</time>
      </trkpt>
      <trkpt lat="41.69359000000001" lon="1.9988170000000003">
        <ele>115.0</ele>
        <time>2019-06-09T11:31:58+02:00</time>
      </trkpt>
      <trkpt lat="41.693565" lon="1.9988686699999998">
        <ele>115.0</ele>
        <time>2019-06-09T11:31:59+02:00</time>
      </trkpt>
      <trkpt lat="41.69353499999999" lon="1.9989633399999995">
        <ele>116.0</ele>
        <time>2019-06-09T11:32:00+02:00</time>
      </trkpt>
      <trkpt lat="41.69349667" lon="1.9990113399999998">
        <ele>116.0</ele>
        <time>2019-06-09T11:32:01+02:00</time>
      </trkpt>
      <trkpt lat="41.693448339999996" lon="1.9990426700000001">
        <ele>116.0</ele>
        <time>2019-06-09T11:32:02+02:00</time>
      </trkpt>
      <trkpt lat="41.693394999999995" lon="1.9990533399999997">
        <ele>116.0</ele>
        <time>2019-06-09T11:32:03+02:00</time>
      </trkpt>
      <trkpt lat="41.69334334" lon="1.9990489999999999">
        <ele>117.0</ele>
        <time>2019-06-09T11:32:04+02:00</time>
      </trkpt>
      <trkpt lat="41.693293340000004" lon="1.9990033399999998">
        <ele>117.0</ele>
        <time>2019-06-09T11:32:05+02:00</time>
      </trkpt>
      <trkpt lat="41.693243339999995" lon="1.998965">
        <ele>117.0</ele>
        <time>2019-06-09T11:32:06+02:00</time>
      </trkpt>
      <trkpt lat="41.69318499999999" lon="1.9989249999999998">
        <ele>119.0</ele>
        <time>2019-06-09T11:32:07+02:00</time>
      </trkpt>
      <trkpt lat="41.693145" lon="1.99889667">
        <ele>119.0</ele>
        <time>2019-06-09T11:32:08+02:00</time>
      </trkpt>
      <trkpt lat="41.69309500000001" lon="1.9988616699999997">
        <ele>119.0</ele>
        <time>2019-06-09T11:32:09+02:00</time>
      </trkpt>
      <trkpt lat="41.693045" lon="1.9988349999999997">
        <ele>119.0</ele>
        <time>2019-06-09T11:32:10+02:00</time>
      </trkpt>
      <trkpt lat="41.692995" lon="1.9988266700000001">
        <ele>121.0</ele>
        <time>2019-06-09T11:32:11+02:00</time>
      </trkpt>
      <trkpt lat="41.69294167000001" lon="1.99882967">
        <ele>121.0</ele>
        <time>2019-06-09T11:32:12+02:00</time>
      </trkpt>
      <trkpt lat="41.69288666999999" lon="1.99884234">
        <ele>122.0</ele>
        <time>2019-06-09T11:32:13+02:00</time>
      </trkpt>
      <trkpt lat="41.69282" lon="1.9989166699999998">
        <ele>123.0</ele>
        <time>2019-06-09T11:32:15+02:00</time>
      </trkpt>
      <trkpt lat="41.69278499999999" lon="1.998965">
        <ele>123.0</ele>
        <time>2019-06-09T11:32:16+02:00</time>
      </trkpt>
      <trkpt lat="41.69271834" lon="1.9990433399999996">
        <ele>124.0</ele>
        <time>2019-06-09T11:32:18+02:00</time>
      </trkpt>
      <trkpt lat="41.692638339999995" lon="1.99909334">
        <ele>125.0</ele>
        <time>2019-06-09T11:32:20+02:00</time>
      </trkpt>
      <trkpt lat="41.69259167000001" lon="1.9991029999999999">
        <ele>125.0</ele>
        <time>2019-06-09T11:32:21+02:00</time>
      </trkpt>
      <trkpt lat="41.692545" lon="1.99910467">
        <ele>125.0</ele>
        <time>2019-06-09T11:32:22+02:00</time>
      </trkpt>
      <trkpt lat="41.69249667000001" lon="1.999102">
        <ele>125.0</ele>
        <time>2019-06-09T11:32:23+02:00</time>
      </trkpt>
      <trkpt lat="41.692406670000004" lon="1.9990733399999996">
        <ele>126.0</ele>
        <time>2019-06-09T11:32:25+02:00</time>
      </trkpt>
      <trkpt lat="41.692361670000004" lon="1.9990616699999997">
        <ele>126.0</ele>
        <time>2019-06-09T11:32:26+02:00</time>
      </trkpt>
      <trkpt lat="41.69228499999999" lon="1.9990299999999999">
        <ele>127.0</ele>
        <time>2019-06-09T11:32:28+02:00</time>
      </trkpt>
      <trkpt lat="41.692205" lon="1.999005">
        <ele>128.0</ele>
        <time>2019-06-09T11:32:30+02:00</time>
      </trkpt>
      <trkpt lat="41.69212" lon="1.9990096700000002">
        <ele>129.0</ele>
        <time>2019-06-09T11:32:32+02:00</time>
      </trkpt>
      <trkpt lat="41.69205" lon="1.9990343399999997">
        <ele>130.0</ele>
        <time>2019-06-09T11:32:34+02:00</time>
      </trkpt>
      <trkpt lat="41.69198333999999" lon="1.999125">
        <ele>131.0</ele>
        <time>2019-06-09T11:32:36+02:00</time>
      </trkpt>
      <trkpt lat="41.691919999999996" lon="1.9991950000000003">
        <ele>131.0</ele>
        <time>2019-06-09T11:32:38+02:00</time>
      </trkpt>
      <trkpt lat="41.691878339999995" lon="1.9992329999999998">
        <ele>131.0</ele>
        <time>2019-06-09T11:32:39+02:00</time>
      </trkpt>
      <trkpt lat="41.691835000000005" lon="1.9992676699999996">
        <ele>132.0</ele>
        <time>2019-06-09T11:32:40+02:00</time>
      </trkpt>
      <trkpt lat="41.691784999999996" lon="1.9993033399999995">
        <ele>132.0</ele>
        <time>2019-06-09T11:32:41+02:00</time>
      </trkpt>
      <trkpt lat="41.69173167" lon="1.9993386699999998">
        <ele>132.0</ele>
        <time>2019-06-09T11:32:42+02:00</time>
      </trkpt>
      <trkpt lat="41.69167667" lon="1.9993756699999998">
        <ele>132.0</ele>
        <time>2019-06-09T11:32:43+02:00</time>
      </trkpt>
      <trkpt lat="41.69162167" lon="1.9994136699999998">
        <ele>132.0</ele>
        <time>2019-06-09T11:32:44+02:00</time>
      </trkpt>
      <trkpt lat="41.69157" lon="1.9994533399999994">
        <ele>133.0</ele>
        <time>2019-06-09T11:32:45+02:00</time>
      </trkpt>
      <trkpt lat="41.69151667" lon="1.99949534">
        <ele>133.0</ele>
        <time>2019-06-09T11:32:46+02:00</time>
      </trkpt>
      <trkpt lat="41.69145999999999" lon="1.99954467">
        <ele>133.0</ele>
        <time>2019-06-09T11:32:47+02:00</time>
      </trkpt>
      <trkpt lat="41.69142167" lon="1.9995809999999998">
        <ele>134.0</ele>
        <time>2019-06-09T11:32:48+02:00</time>
      </trkpt>
      <trkpt lat="41.69137334" lon="1.99962734">
        <ele>134.0</ele>
        <time>2019-06-09T11:32:49+02:00</time>
      </trkpt>
      <trkpt lat="41.69132833999999" lon="1.9996716699999997">
        <ele>134.0</ele>
        <time>2019-06-09T11:32:50+02:00</time>
      </trkpt>
      <trkpt lat="41.69128834" lon="1.99971334">
        <ele>135.0</ele>
        <time>2019-06-09T11:32:51+02:00</time>
      </trkpt>
      <trkpt lat="41.69124667000001" lon="1.999756">
        <ele>135.0</ele>
        <time>2019-06-09T11:32:52+02:00</time>
      </trkpt>
      <trkpt lat="41.69120833999999" lon="1.99979634">
        <ele>135.0</ele>
        <time>2019-06-09T11:32:53+02:00</time>
      </trkpt>
      <trkpt lat="41.69117167" lon="1.9998366699999999">
        <ele>136.0</ele>
        <time>2019-06-09T11:32:54+02:00</time>
      </trkpt>
      <trkpt lat="41.69110167000001" lon="1.9999096700000003">
        <ele>136.0</ele>
        <time>2019-06-09T11:32:56+02:00</time>
      </trkpt>
      <trkpt lat="41.69105166999999" lon="1.999971">
        <ele>137.0</ele>
        <time>2019-06-09T11:32:58+02:00</time>
      </trkpt>
      <trkpt lat="41.69100667000001" lon="2.0001299999999995">
        <ele>137.0</ele>
        <time>2019-06-09T11:33:00+02:00</time>
      </trkpt>
      <trkpt lat="41.690988" lon="2.0001849999999997">
        <ele>137.0</ele>
        <time>2019-06-09T11:33:01+02:00</time>
      </trkpt>
      <trkpt lat="41.69096734" lon="2.00023834">
        <ele>137.0</ele>
        <time>2019-06-09T11:33:02+02:00</time>
      </trkpt>
      <trkpt lat="41.69094434" lon="2.00029334">
        <ele>137.0</ele>
        <time>2019-06-09T11:33:03+02:00</time>
      </trkpt>
      <trkpt lat="41.69088667" lon="2.0004083399999995">
        <ele>137.0</ele>
        <time>2019-06-09T11:33:05+02:00</time>
      </trkpt>
      <trkpt lat="41.69085199999999" lon="2.0004633399999996">
        <ele>137.0</ele>
        <time>2019-06-09T11:33:06+02:00</time>
      </trkpt>
      <trkpt lat="41.690816340000005" lon="2.000515">
        <ele>137.0</ele>
        <time>2019-06-09T11:33:07+02:00</time>
      </trkpt>
      <trkpt lat="41.69077599999999" lon="2.00057">
        <ele>137.0</ele>
        <time>2019-06-09T11:33:08+02:00</time>
      </trkpt>
      <trkpt lat="41.69073467" lon="2.00062167">
        <ele>137.0</ele>
        <time>2019-06-09T11:33:09+02:00</time>
      </trkpt>
      <trkpt lat="41.6907" lon="2.00066">
        <ele>137.0</ele>
        <time>2019-06-09T11:33:10+02:00</time>
      </trkpt>
      <trkpt lat="41.69061334" lon="2.0007183399999997">
        <ele>137.0</ele>
        <time>2019-06-09T11:33:11+02:00</time>
      </trkpt>
      <trkpt lat="41.69056334" lon="2.000763">
        <ele>138.0</ele>
        <time>2019-06-09T11:33:12+02:00</time>
      </trkpt>
      <trkpt lat="41.69051667000001" lon="2.00080467">
        <ele>138.0</ele>
        <time>2019-06-09T11:33:13+02:00</time>
      </trkpt>
      <trkpt lat="41.69047833999999" lon="2.00084467">
        <ele>138.0</ele>
        <time>2019-06-09T11:33:14+02:00</time>
      </trkpt>
      <trkpt lat="41.69045167" lon="2.00089934">
        <ele>138.0</ele>
        <time>2019-06-09T11:33:16+02:00</time>
      </trkpt>
      <trkpt lat="41.69047167000001" lon="2.00098834">
        <ele>139.0</ele>
        <time>2019-06-09T11:33:18+02:00</time>
      </trkpt>
      <trkpt lat="41.690535" lon="2.00099667">
        <ele>139.0</ele>
        <time>2019-06-09T11:33:21+02:00</time>
      </trkpt>
      <trkpt lat="41.69058" lon="2.0009633399999998">
        <ele>139.0</ele>
        <time>2019-06-09T11:33:23+02:00</time>
      </trkpt>
      <trkpt lat="41.690645" lon="2.00092334">
        <ele>139.0</ele>
        <time>2019-06-09T11:33:26+02:00</time>
      </trkpt>
      <trkpt lat="41.69071167" lon="2.00090667">
        <ele>139.0</ele>
        <time>2019-06-09T11:33:29+02:00</time>
      </trkpt>
      <trkpt lat="41.69075834" lon="2.0008916699999997">
        <ele>139.0</ele>
        <time>2019-06-09T11:33:31+02:00</time>
      </trkpt>
      <trkpt lat="41.690805" lon="2.00087934">
        <ele>139.0</ele>
        <time>2019-06-09T11:33:33+02:00</time>
      </trkpt>
      <trkpt lat="41.690868339999994" lon="2.0008516700000003">
        <ele>139.0</ele>
        <time>2019-06-09T11:33:36+02:00</time>
      </trkpt>
      <trkpt lat="41.690906670000004" lon="2.000825">
        <ele>139.0</ele>
        <time>2019-06-09T11:33:38+02:00</time>
      </trkpt>
      <trkpt lat="41.69094667" lon="2.00077167">
        <ele>138.0</ele>
        <time>2019-06-09T11:33:40+02:00</time>
      </trkpt>
      <trkpt lat="41.691005" lon="2.00072634">
        <ele>138.0</ele>
        <time>2019-06-09T11:33:42+02:00</time>
      </trkpt>
      <trkpt lat="41.69107" lon="2.00067234">
        <ele>138.0</ele>
        <time>2019-06-09T11:33:44+02:00</time>
      </trkpt>
      <trkpt lat="41.691125" lon="2.00063067">
        <ele>138.0</ele>
        <time>2019-06-09T11:33:46+02:00</time>
      </trkpt>
      <trkpt lat="41.69118834" lon="2.0005843399999996">
        <ele>137.0</ele>
        <time>2019-06-09T11:33:48+02:00</time>
      </trkpt>
      <trkpt lat="41.69125167" lon="2.0005433399999997">
        <ele>137.0</ele>
        <time>2019-06-09T11:33:50+02:00</time>
      </trkpt>
      <trkpt lat="41.691315" lon="2.000507">
        <ele>137.0</ele>
        <time>2019-06-09T11:33:52+02:00</time>
      </trkpt>
      <trkpt lat="41.69138167" lon="2.0004716699999996">
        <ele>137.0</ele>
        <time>2019-06-09T11:33:54+02:00</time>
      </trkpt>
      <trkpt lat="41.69144167" lon="2.00043767">
        <ele>137.0</ele>
        <time>2019-06-09T11:33:56+02:00</time>
      </trkpt>
      <trkpt lat="41.69149667000001" lon="2.00039867">
        <ele>137.0</ele>
        <time>2019-06-09T11:33:58+02:00</time>
      </trkpt>
      <trkpt lat="41.69156167" lon="2.00034767">
        <ele>137.0</ele>
        <time>2019-06-09T11:34:00+02:00</time>
      </trkpt>
      <trkpt lat="41.691626670000005" lon="2.0002966699999996">
        <ele>137.0</ele>
        <time>2019-06-09T11:34:02+02:00</time>
      </trkpt>
      <trkpt lat="41.691671670000005" lon="2.0002676700000004">
        <ele>137.0</ele>
        <time>2019-06-09T11:34:03+02:00</time>
      </trkpt>
      <trkpt lat="41.691745000000004" lon="2.00023267">
        <ele>137.0</ele>
        <time>2019-06-09T11:34:05+02:00</time>
      </trkpt>
      <trkpt lat="41.691825" lon="2.0002833399999993">
        <ele>137.0</ele>
        <time>2019-06-09T11:34:07+02:00</time>
      </trkpt>
      <trkpt lat="41.69191167" lon="2.00028">
        <ele>138.0</ele>
        <time>2019-06-09T11:34:09+02:00</time>
      </trkpt>
      <trkpt lat="41.691985" lon="2.0002579999999996">
        <ele>138.0</ele>
        <time>2019-06-09T11:34:11+02:00</time>
      </trkpt>
      <trkpt lat="41.69205834" lon="2.00021534">
        <ele>139.0</ele>
        <time>2019-06-09T11:34:13+02:00</time>
      </trkpt>
      <trkpt lat="41.69209667000001" lon="2.0001860000000002">
        <ele>139.0</ele>
        <time>2019-06-09T11:34:14+02:00</time>
      </trkpt>
      <trkpt lat="41.692175000000006" lon="2.0001420000000003">
        <ele>140.0</ele>
        <time>2019-06-09T11:34:16+02:00</time>
      </trkpt>
      <trkpt lat="41.69222" lon="2.00011934">
        <ele>140.0</ele>
        <time>2019-06-09T11:34:17+02:00</time>
      </trkpt>
      <trkpt lat="41.69226667000001" lon="2.0001006699999997">
        <ele>140.0</ele>
        <time>2019-06-09T11:34:18+02:00</time>
      </trkpt>
      <trkpt lat="41.692311669999995" lon="2.0000863399999997">
        <ele>140.0</ele>
        <time>2019-06-09T11:34:19+02:00</time>
      </trkpt>
      <trkpt lat="41.69235834" lon="2.00007434">
        <ele>141.0</ele>
        <time>2019-06-09T11:34:20+02:00</time>
      </trkpt>
      <trkpt lat="41.692440000000005" lon="2.000059">
        <ele>141.0</ele>
        <time>2019-06-09T11:34:22+02:00</time>
      </trkpt>
      <trkpt lat="41.692521670000005" lon="2.00005234">
        <ele>142.0</ele>
        <time>2019-06-09T11:34:24+02:00</time>
      </trkpt>
      <trkpt lat="41.69261167" lon="2.00004634">
        <ele>144.0</ele>
        <time>2019-06-09T11:34:26+02:00</time>
      </trkpt>
      <trkpt lat="41.69267" lon="2.00004967">
        <ele>144.0</ele>
        <time>2019-06-09T11:34:27+02:00</time>
      </trkpt>
      <trkpt lat="41.69272333999999" lon="2.0000513399999997">
        <ele>144.0</ele>
        <time>2019-06-09T11:34:28+02:00</time>
      </trkpt>
      <trkpt lat="41.69282167" lon="2.00005067">
        <ele>144.0</ele>
        <time>2019-06-09T11:34:30+02:00</time>
      </trkpt>
      <trkpt lat="41.69287834" lon="2.0000596699999997">
        <ele>144.0</ele>
        <time>2019-06-09T11:34:31+02:00</time>
      </trkpt>
      <trkpt lat="41.69293334" lon="2.00006867">
        <ele>145.0</ele>
        <time>2019-06-09T11:34:32+02:00</time>
      </trkpt>
      <trkpt lat="41.692986669999996" lon="2.00008234">
        <ele>145.0</ele>
        <time>2019-06-09T11:34:33+02:00</time>
      </trkpt>
      <trkpt lat="41.69304" lon="2.00009667">
        <ele>145.0</ele>
        <time>2019-06-09T11:34:34+02:00</time>
      </trkpt>
      <trkpt lat="41.69309500000001" lon="2.0001183399999993">
        <ele>146.0</ele>
        <time>2019-06-09T11:34:35+02:00</time>
      </trkpt>
      <trkpt lat="41.69313334" lon="2.0002950000000004">
        <ele>146.0</ele>
        <time>2019-06-09T11:34:36+02:00</time>
      </trkpt>
      <trkpt lat="41.69316833999999" lon="2.00035">
        <ele>147.0</ele>
        <time>2019-06-09T11:34:37+02:00</time>
      </trkpt>
      <trkpt lat="41.693205" lon="2.000395">
        <ele>147.0</ele>
        <time>2019-06-09T11:34:38+02:00</time>
      </trkpt>
      <trkpt lat="41.69324667000001" lon="2.000425">
        <ele>147.0</ele>
        <time>2019-06-09T11:34:39+02:00</time>
      </trkpt>
      <trkpt lat="41.693333339999995" lon="2.0004429999999997">
        <ele>148.0</ele>
        <time>2019-06-09T11:34:41+02:00</time>
      </trkpt>
      <trkpt lat="41.693383340000004" lon="2.000446">
        <ele>148.0</ele>
        <time>2019-06-09T11:34:42+02:00</time>
      </trkpt>
      <trkpt lat="41.693445000000004" lon="2.00043334">
        <ele>150.0</ele>
        <time>2019-06-09T11:34:43+02:00</time>
      </trkpt>
      <trkpt lat="41.69350333999999" lon="2.00042667">
        <ele>150.0</ele>
        <time>2019-06-09T11:34:44+02:00</time>
      </trkpt>
      <trkpt lat="41.69355" lon="2.0004183399999995">
        <ele>150.0</ele>
        <time>2019-06-09T11:34:45+02:00</time>
      </trkpt>
      <trkpt lat="41.69361167" lon="2.00041667">
        <ele>151.0</ele>
        <time>2019-06-09T11:34:46+02:00</time>
      </trkpt>
      <trkpt lat="41.69368834" lon="2.00041767">
        <ele>151.0</ele>
        <time>2019-06-09T11:34:47+02:00</time>
      </trkpt>
      <trkpt lat="41.693741669999994" lon="2.00042">
        <ele>152.0</ele>
        <time>2019-06-09T11:34:48+02:00</time>
      </trkpt>
      <trkpt lat="41.69380667" lon="2.000425">
        <ele>152.0</ele>
        <time>2019-06-09T11:34:49+02:00</time>
      </trkpt>
      <trkpt lat="41.693873339999996" lon="2.00043234">
        <ele>152.0</ele>
        <time>2019-06-09T11:34:50+02:00</time>
      </trkpt>
      <trkpt lat="41.69393667000001" lon="2.000441">
        <ele>152.0</ele>
        <time>2019-06-09T11:34:51+02:00</time>
      </trkpt>
      <trkpt lat="41.69400334" lon="2.00045467">
        <ele>154.0</ele>
        <time>2019-06-09T11:34:52+02:00</time>
      </trkpt>
      <trkpt lat="41.694053339999996" lon="2.00046967">
        <ele>154.0</ele>
        <time>2019-06-09T11:34:53+02:00</time>
      </trkpt>
      <trkpt lat="41.69409667000001" lon="2.0004856699999998">
        <ele>155.0</ele>
        <time>2019-06-09T11:34:54+02:00</time>
      </trkpt>
      <trkpt lat="41.69416834" lon="2.0005103400000004">
        <ele>156.0</ele>
        <time>2019-06-09T11:34:56+02:00</time>
      </trkpt>
      <trkpt lat="41.694226670000006" lon="2.0005379999999997">
        <ele>156.0</ele>
        <time>2019-06-09T11:34:58+02:00</time>
      </trkpt>
      <trkpt lat="41.694286670000004" lon="2.0005689999999996">
        <ele>156.0</ele>
        <time>2019-06-09T11:35:00+02:00</time>
      </trkpt>
      <trkpt lat="41.69435" lon="2.00060634">
        <ele>157.0</ele>
        <time>2019-06-09T11:35:02+02:00</time>
      </trkpt>
      <trkpt lat="41.694421670000004" lon="2.000649">
        <ele>157.0</ele>
        <time>2019-06-09T11:35:04+02:00</time>
      </trkpt>
      <trkpt lat="41.69450334" lon="2.0006863399999997">
        <ele>158.0</ele>
        <time>2019-06-09T11:35:06+02:00</time>
      </trkpt>
      <trkpt lat="41.694578339999985" lon="2.000695">
        <ele>158.0</ele>
        <time>2019-06-09T11:35:08+02:00</time>
      </trkpt>
      <trkpt lat="41.69465167" lon="2.00067667">
        <ele>159.0</ele>
        <time>2019-06-09T11:35:10+02:00</time>
      </trkpt>
      <trkpt lat="41.694733340000006" lon="2.00068134">
        <ele>159.0</ele>
        <time>2019-06-09T11:35:12+02:00</time>
      </trkpt>
      <trkpt lat="41.694821669999996" lon="2.000692">
        <ele>159.0</ele>
        <time>2019-06-09T11:35:14+02:00</time>
      </trkpt>
      <trkpt lat="41.694868340000006" lon="2.00069634">
        <ele>159.0</ele>
        <time>2019-06-09T11:35:15+02:00</time>
      </trkpt>
      <trkpt lat="41.69491334000001" lon="2.0007006699999996">
        <ele>160.0</ele>
        <time>2019-06-09T11:35:16+02:00</time>
      </trkpt>
      <trkpt lat="41.694961670000005" lon="2.0007033399999994">
        <ele>160.0</ele>
        <time>2019-06-09T11:35:17+02:00</time>
      </trkpt>
      <trkpt lat="41.69500834" lon="2.0007043399999995">
        <ele>160.0</ele>
        <time>2019-06-09T11:35:18+02:00</time>
      </trkpt>
      <trkpt lat="41.69509334000001" lon="2.00070367">
        <ele>160.0</ele>
        <time>2019-06-09T11:35:20+02:00</time>
      </trkpt>
      <trkpt lat="41.69516334" lon="2.00069667">
        <ele>160.0</ele>
        <time>2019-06-09T11:35:22+02:00</time>
      </trkpt>
      <trkpt lat="41.695209999999996" lon="2.00069034">
        <ele>160.0</ele>
        <time>2019-06-09T11:35:23+02:00</time>
      </trkpt>
      <trkpt lat="41.695285" lon="2.0006896700000003">
        <ele>161.0</ele>
        <time>2019-06-09T11:35:25+02:00</time>
      </trkpt>
      <trkpt lat="41.69537667000001" lon="2.0006943399999995">
        <ele>161.0</ele>
        <time>2019-06-09T11:35:27+02:00</time>
      </trkpt>
      <trkpt lat="41.69542500000001" lon="2.000703">
        <ele>162.0</ele>
        <time>2019-06-09T11:35:28+02:00</time>
      </trkpt>
      <trkpt lat="41.69547833999999" lon="2.00071534">
        <ele>162.0</ele>
        <time>2019-06-09T11:35:29+02:00</time>
      </trkpt>
      <trkpt lat="41.695533340000004" lon="2.00072934">
        <ele>162.0</ele>
        <time>2019-06-09T11:35:30+02:00</time>
      </trkpt>
      <trkpt lat="41.69559167000001" lon="2.00074534">
        <ele>163.0</ele>
        <time>2019-06-09T11:35:31+02:00</time>
      </trkpt>
      <trkpt lat="41.695651670000004" lon="2.00076367">
        <ele>163.0</ele>
        <time>2019-06-09T11:35:32+02:00</time>
      </trkpt>
      <trkpt lat="41.69571167" lon="2.00078367">
        <ele>163.0</ele>
        <time>2019-06-09T11:35:33+02:00</time>
      </trkpt>
      <trkpt lat="41.695773339999995" lon="2.000806">
        <ele>164.0</ele>
        <time>2019-06-09T11:35:34+02:00</time>
      </trkpt>
      <trkpt lat="41.69583334" lon="2.000827">
        <ele>164.0</ele>
        <time>2019-06-09T11:35:35+02:00</time>
      </trkpt>
      <trkpt lat="41.69589" lon="2.00084867">
        <ele>164.0</ele>
        <time>2019-06-09T11:35:36+02:00</time>
      </trkpt>
      <trkpt lat="41.69594667" lon="2.00086867">
        <ele>165.0</ele>
        <time>2019-06-09T11:35:37+02:00</time>
      </trkpt>
      <trkpt lat="41.69600167" lon="2.000886">
        <ele>165.0</ele>
        <time>2019-06-09T11:35:38+02:00</time>
      </trkpt>
      <trkpt lat="41.69605" lon="2.00090334">
        <ele>165.0</ele>
        <time>2019-06-09T11:35:39+02:00</time>
      </trkpt>
      <trkpt lat="41.69609334" lon="2.000923">
        <ele>166.0</ele>
        <time>2019-06-09T11:35:40+02:00</time>
      </trkpt>
      <trkpt lat="41.69612667" lon="2.000942">
        <ele>166.0</ele>
        <time>2019-06-09T11:35:41+02:00</time>
      </trkpt>
      <trkpt lat="41.69614667" lon="2.0009653399999996">
        <ele>166.0</ele>
        <time>2019-06-09T11:35:42+02:00</time>
      </trkpt>
      <trkpt lat="41.69614667" lon="2.0012066699999997">
        <ele>167.0</ele>
        <time>2019-06-09T11:35:44+02:00</time>
      </trkpt>
      <trkpt lat="41.69611167" lon="2.00132">
        <ele>167.0</ele>
        <time>2019-06-09T11:35:46+02:00</time>
      </trkpt>
      <trkpt lat="41.69609167" lon="2.001375">
        <ele>167.0</ele>
        <time>2019-06-09T11:35:47+02:00</time>
      </trkpt>
      <trkpt lat="41.69604" lon="2.00148167">
        <ele>167.0</ele>
        <time>2019-06-09T11:35:49+02:00</time>
      </trkpt>
      <trkpt lat="41.69599167" lon="2.00157">
        <ele>168.0</ele>
        <time>2019-06-09T11:35:51+02:00</time>
      </trkpt>
      <trkpt lat="41.69595667" lon="2.00162667">
        <ele>168.0</ele>
        <time>2019-06-09T11:35:52+02:00</time>
      </trkpt>
      <trkpt lat="41.69592667" lon="2.0016716699999995">
        <ele>168.0</ele>
        <time>2019-06-09T11:35:53+02:00</time>
      </trkpt>
      <trkpt lat="41.695876670000004" lon="2.00174834">
        <ele>168.0</ele>
        <time>2019-06-09T11:35:55+02:00</time>
      </trkpt>
      <trkpt lat="41.69582667000001" lon="2.0018283399999994">
        <ele>169.0</ele>
        <time>2019-06-09T11:35:57+02:00</time>
      </trkpt>
      <trkpt lat="41.69577433999999" lon="2.0019150000000003">
        <ele>169.0</ele>
        <time>2019-06-09T11:35:59+02:00</time>
      </trkpt>
      <trkpt lat="41.695733669999996" lon="2.0019883399999996">
        <ele>169.0</ele>
        <time>2019-06-09T11:36:00+02:00</time>
      </trkpt>
      <trkpt lat="41.695697339999995" lon="2.0020483399999995">
        <ele>169.0</ele>
        <time>2019-06-09T11:36:02+02:00</time>
      </trkpt>
      <trkpt lat="41.695659340000006" lon="2.00211334">
        <ele>169.0</ele>
        <time>2019-06-09T11:36:04+02:00</time>
      </trkpt>
      <trkpt lat="41.69561634" lon="2.00218">
        <ele>169.0</ele>
        <time>2019-06-09T11:36:06+02:00</time>
      </trkpt>
      <trkpt lat="41.695579339999995" lon="2.0022349999999998">
        <ele>169.0</ele>
        <time>2019-06-09T11:36:08+02:00</time>
      </trkpt>
      <trkpt lat="41.69553900000001" lon="2.00229167">
        <ele>169.0</ele>
        <time>2019-06-09T11:36:10+02:00</time>
      </trkpt>
      <trkpt lat="41.695501" lon="2.0023466699999997">
        <ele>169.0</ele>
        <time>2019-06-09T11:36:12+02:00</time>
      </trkpt>
      <trkpt lat="41.69546834" lon="2.002395">
        <ele>169.0</ele>
        <time>2019-06-09T11:36:14+02:00</time>
      </trkpt>
      <trkpt lat="41.69542433999999" lon="2.00246334">
        <ele>169.0</ele>
        <time>2019-06-09T11:36:16+02:00</time>
      </trkpt>
      <trkpt lat="41.69538299999999" lon="2.0025283399999996">
        <ele>169.0</ele>
        <time>2019-06-09T11:36:18+02:00</time>
      </trkpt>
      <trkpt lat="41.69534867" lon="2.002585">
        <ele>169.0</ele>
        <time>2019-06-09T11:36:20+02:00</time>
      </trkpt>
      <trkpt lat="41.69530734" lon="2.0026533399999997">
        <ele>169.0</ele>
        <time>2019-06-09T11:36:22+02:00</time>
      </trkpt>
      <trkpt lat="41.69527" lon="2.00271167">
        <ele>169.0</ele>
        <time>2019-06-09T11:36:24+02:00</time>
      </trkpt>
      <trkpt lat="41.695238" lon="2.0027583399999997">
        <ele>169.0</ele>
        <time>2019-06-09T11:36:26+02:00</time>
      </trkpt>
      <trkpt lat="41.69517333999999" lon="2.00281">
        <ele>168.0</ele>
        <time>2019-06-09T11:36:28+02:00</time>
      </trkpt>
      <trkpt lat="41.695123339999995" lon="2.00285">
        <ele>168.0</ele>
        <time>2019-06-09T11:36:30+02:00</time>
      </trkpt>
      <trkpt lat="41.695074999999996" lon="2.00288367">
        <ele>167.0</ele>
        <time>2019-06-09T11:36:32+02:00</time>
      </trkpt>
      <trkpt lat="41.69502834" lon="2.0029173399999998">
        <ele>167.0</ele>
        <time>2019-06-09T11:36:34+02:00</time>
      </trkpt>
      <trkpt lat="41.69498334" lon="2.00295467">
        <ele>166.0</ele>
        <time>2019-06-09T11:36:36+02:00</time>
      </trkpt>
      <trkpt lat="41.694936670000004" lon="2.0029966699999995">
        <ele>166.0</ele>
        <time>2019-06-09T11:36:38+02:00</time>
      </trkpt>
      <trkpt lat="41.69489" lon="2.0030430000000004">
        <ele>166.0</ele>
        <time>2019-06-09T11:36:40+02:00</time>
      </trkpt>
      <trkpt lat="41.694846670000004" lon="2.003095">
        <ele>166.0</ele>
        <time>2019-06-09T11:36:43+02:00</time>
      </trkpt>
      <trkpt lat="41.69479834" lon="2.00315034">
        <ele>165.0</ele>
        <time>2019-06-09T11:36:46+02:00</time>
      </trkpt>
      <trkpt lat="41.694759999999995" lon="2.00319467">
        <ele>165.0</ele>
        <time>2019-06-09T11:36:48+02:00</time>
      </trkpt>
      <trkpt lat="41.69470834" lon="2.00325034">
        <ele>164.0</ele>
        <time>2019-06-09T11:36:51+02:00</time>
      </trkpt>
      <trkpt lat="41.69466167" lon="2.003297">
        <ele>164.0</ele>
        <time>2019-06-09T11:36:54+02:00</time>
      </trkpt>
      <trkpt lat="41.69463" lon="2.0033356699999993">
        <ele>163.0</ele>
        <time>2019-06-09T11:36:56+02:00</time>
      </trkpt>
      <trkpt lat="41.694641669999996" lon="2.0034183399999996">
        <ele>162.0</ele>
        <time>2019-06-09T11:36:58+02:00</time>
      </trkpt>
      <trkpt lat="41.69468334" lon="2.0034633399999997">
        <ele>162.0</ele>
        <time>2019-06-09T11:37:00+02:00</time>
      </trkpt>
      <trkpt lat="41.694733340000006" lon="2.0034583399999994">
        <ele>162.0</ele>
        <time>2019-06-09T11:37:02+02:00</time>
      </trkpt>
      <trkpt lat="41.694804999999995" lon="2.00344167">
        <ele>162.0</ele>
        <time>2019-06-09T11:37:04+02:00</time>
      </trkpt>
      <trkpt lat="41.69488" lon="2.0034116699999998">
        <ele>162.0</ele>
        <time>2019-06-09T11:37:06+02:00</time>
      </trkpt>
      <trkpt lat="41.694925" lon="2.00339667">
        <ele>162.0</ele>
        <time>2019-06-09T11:37:07+02:00</time>
      </trkpt>
      <trkpt lat="41.69497" lon="2.00338">
        <ele>163.0</ele>
        <time>2019-06-09T11:37:08+02:00</time>
      </trkpt>
      <trkpt lat="41.695013339999996" lon="2.00336334">
        <ele>163.0</ele>
        <time>2019-06-09T11:37:09+02:00</time>
      </trkpt>
      <trkpt lat="41.69508834" lon="2.0033250000000002">
        <ele>163.0</ele>
        <time>2019-06-09T11:37:11+02:00</time>
      </trkpt>
      <trkpt lat="41.69515667" lon="2.00329167">
        <ele>164.0</ele>
        <time>2019-06-09T11:37:13+02:00</time>
      </trkpt>
      <trkpt lat="41.69521667000001" lon="2.00326734">
        <ele>165.0</ele>
        <time>2019-06-09T11:37:15+02:00</time>
      </trkpt>
      <trkpt lat="41.69527334000001" lon="2.00325534">
        <ele>165.0</ele>
        <time>2019-06-09T11:37:17+02:00</time>
      </trkpt>
      <trkpt lat="41.69533667" lon="2.0032523399999995">
        <ele>166.0</ele>
        <time>2019-06-09T11:37:19+02:00</time>
      </trkpt>
      <trkpt lat="41.69538834" lon="2.0032546699999996">
        <ele>166.0</ele>
        <time>2019-06-09T11:37:21+02:00</time>
      </trkpt>
      <trkpt lat="41.695438339999995" lon="2.0032613399999994">
        <ele>167.0</ele>
        <time>2019-06-09T11:37:23+02:00</time>
      </trkpt>
      <trkpt lat="41.695483339999996" lon="2.0032703399999994">
        <ele>167.0</ele>
        <time>2019-06-09T11:37:25+02:00</time>
      </trkpt>
      <trkpt lat="41.69553667" lon="2.00327767">
        <ele>168.0</ele>
        <time>2019-06-09T11:37:27+02:00</time>
      </trkpt>
      <trkpt lat="41.69559167000001" lon="2.0032760000000005">
        <ele>168.0</ele>
        <time>2019-06-09T11:37:29+02:00</time>
      </trkpt>
      <trkpt lat="41.695640000000004" lon="2.003235">
        <ele>168.0</ele>
        <time>2019-06-09T11:37:31+02:00</time>
      </trkpt>
      <trkpt lat="41.69568" lon="2.00319">
        <ele>169.0</ele>
        <time>2019-06-09T11:37:33+02:00</time>
      </trkpt>
      <trkpt lat="41.69572999999999" lon="2.00314334">
        <ele>169.0</ele>
        <time>2019-06-09T11:37:35+02:00</time>
      </trkpt>
      <trkpt lat="41.695784999999994" lon="2.00310667">
        <ele>169.0</ele>
        <time>2019-06-09T11:37:37+02:00</time>
      </trkpt>
      <trkpt lat="41.695854999999995" lon="2.003086">
        <ele>170.0</ele>
        <time>2019-06-09T11:37:39+02:00</time>
      </trkpt>
      <trkpt lat="41.69591334" lon="2.0030766699999996">
        <ele>170.0</ele>
        <time>2019-06-09T11:37:41+02:00</time>
      </trkpt>
      <trkpt lat="41.695983340000005" lon="2.0030663399999997">
        <ele>170.0</ele>
        <time>2019-06-09T11:37:43+02:00</time>
      </trkpt>
      <trkpt lat="41.69602833999999" lon="2.0030556699999997">
        <ele>171.0</ele>
        <time>2019-06-09T11:37:45+02:00</time>
      </trkpt>
      <trkpt lat="41.69607333999999" lon="2.00303634">
        <ele>171.0</ele>
        <time>2019-06-09T11:37:47+02:00</time>
      </trkpt>
      <trkpt lat="41.69611" lon="2.00296667">
        <ele>172.0</ele>
        <time>2019-06-09T11:37:49+02:00</time>
      </trkpt>
      <trkpt lat="41.69613" lon="2.002905">
        <ele>172.0</ele>
        <time>2019-06-09T11:37:51+02:00</time>
      </trkpt>
      <trkpt lat="41.69614500000001" lon="2.00283">
        <ele>172.0</ele>
        <time>2019-06-09T11:37:53+02:00</time>
      </trkpt>
      <trkpt lat="41.696165" lon="2.00271667">
        <ele>172.0</ele>
        <time>2019-06-09T11:37:55+02:00</time>
      </trkpt>
      <trkpt lat="41.69619833999999" lon="2.0026033399999994">
        <ele>172.0</ele>
        <time>2019-06-09T11:37:57+02:00</time>
      </trkpt>
      <trkpt lat="41.69622167000001" lon="2.0025349999999995">
        <ele>172.0</ele>
        <time>2019-06-09T11:37:58+02:00</time>
      </trkpt>
      <trkpt lat="41.696256000000005" lon="2.002465">
        <ele>172.0</ele>
        <time>2019-06-09T11:37:59+02:00</time>
      </trkpt>
      <trkpt lat="41.69628900000001" lon="2.0024166699999997">
        <ele>172.0</ele>
        <time>2019-06-09T11:38:00+02:00</time>
      </trkpt>
      <trkpt lat="41.69631967" lon="2.0023783399999995">
        <ele>172.0</ele>
        <time>2019-06-09T11:38:01+02:00</time>
      </trkpt>
      <trkpt lat="41.696367339999995" lon="2.00231834">
        <ele>173.0</ele>
        <time>2019-06-09T11:38:02+02:00</time>
      </trkpt>
      <trkpt lat="41.696413670000005" lon="2.0022616699999998">
        <ele>173.0</ele>
        <time>2019-06-09T11:38:03+02:00</time>
      </trkpt>
      <trkpt lat="41.69645834" lon="2.00219667">
        <ele>173.0</ele>
        <time>2019-06-09T11:38:04+02:00</time>
      </trkpt>
      <trkpt lat="41.69650334" lon="2.00212">
        <ele>173.0</ele>
        <time>2019-06-09T11:38:05+02:00</time>
      </trkpt>
      <trkpt lat="41.696535999999995" lon="2.00205334">
        <ele>173.0</ele>
        <time>2019-06-09T11:38:06+02:00</time>
      </trkpt>
      <trkpt lat="41.69657267000001" lon="2.00197667">
        <ele>173.0</ele>
        <time>2019-06-09T11:38:07+02:00</time>
      </trkpt>
      <trkpt lat="41.69660433999999" lon="2.00191167">
        <ele>173.0</ele>
        <time>2019-06-09T11:38:08+02:00</time>
      </trkpt>
      <trkpt lat="41.696640339999995" lon="2.0018533399999994">
        <ele>173.0</ele>
        <time>2019-06-09T11:38:09+02:00</time>
      </trkpt>
      <trkpt lat="41.69666267000001" lon="2.00183">
        <ele>173.0</ele>
        <time>2019-06-09T11:38:10+02:00</time>
      </trkpt>
      <trkpt lat="41.69674833999999" lon="2.0018149999999997">
        <ele>173.0</ele>
        <time>2019-06-09T11:38:11+02:00</time>
      </trkpt>
      <trkpt lat="41.69680667000001" lon="2.001805">
        <ele>173.0</ele>
        <time>2019-06-09T11:38:12+02:00</time>
      </trkpt>
      <trkpt lat="41.696875" lon="2.0017733399999997">
        <ele>173.0</ele>
        <time>2019-06-09T11:38:13+02:00</time>
      </trkpt>
      <trkpt lat="41.69693334" lon="2.0017333399999995">
        <ele>174.0</ele>
        <time>2019-06-09T11:38:14+02:00</time>
      </trkpt>
      <trkpt lat="41.69699167" lon="2.00168634">
        <ele>174.0</ele>
        <time>2019-06-09T11:38:15+02:00</time>
      </trkpt>
      <trkpt lat="41.697053340000004" lon="2.0016386699999997">
        <ele>174.0</ele>
        <time>2019-06-09T11:38:16+02:00</time>
      </trkpt>
      <trkpt lat="41.69710167" lon="2.0016026699999996">
        <ele>174.0</ele>
        <time>2019-06-09T11:38:17+02:00</time>
      </trkpt>
      <trkpt lat="41.69716" lon="2.0015579999999997">
        <ele>175.0</ele>
        <time>2019-06-09T11:38:18+02:00</time>
      </trkpt>
      <trkpt lat="41.69721667" lon="2.00151334">
        <ele>175.0</ele>
        <time>2019-06-09T11:38:19+02:00</time>
      </trkpt>
      <trkpt lat="41.697265" lon="2.0014683399999997">
        <ele>175.0</ele>
        <time>2019-06-09T11:38:20+02:00</time>
      </trkpt>
      <trkpt lat="41.69730499999999" lon="2.00142167">
        <ele>175.0</ele>
        <time>2019-06-09T11:38:21+02:00</time>
      </trkpt>
      <trkpt lat="41.69734667000001" lon="2.00136734">
        <ele>175.0</ele>
        <time>2019-06-09T11:38:22+02:00</time>
      </trkpt>
      <trkpt lat="41.697375" lon="2.00132167">
        <ele>175.0</ele>
        <time>2019-06-09T11:38:23+02:00</time>
      </trkpt>
      <trkpt lat="41.697430000000004" lon="2.0012510000000003">
        <ele>175.0</ele>
        <time>2019-06-09T11:38:25+02:00</time>
      </trkpt>
      <trkpt lat="41.697478339999996" lon="2.00119734">
        <ele>175.0</ele>
        <time>2019-06-09T11:38:27+02:00</time>
      </trkpt>
      <trkpt lat="41.69752999999999" lon="2.00118">
        <ele>174.0</ele>
        <time>2019-06-09T11:38:29+02:00</time>
      </trkpt>
      <trkpt lat="41.69758834" lon="2.001215">
        <ele>173.0</ele>
        <time>2019-06-09T11:38:32+02:00</time>
      </trkpt>
      <trkpt lat="41.69764334" lon="2.00125667">
        <ele>172.0</ele>
        <time>2019-06-09T11:38:35+02:00</time>
      </trkpt>
      <trkpt lat="41.697695" lon="2.0012999999999996">
        <ele>171.0</ele>
        <time>2019-06-09T11:38:38+02:00</time>
      </trkpt>
      <trkpt lat="41.69772833999999" lon="2.00134167">
        <ele>171.0</ele>
        <time>2019-06-09T11:38:41+02:00</time>
      </trkpt>
      <trkpt lat="41.69776167" lon="2.00138667">
        <ele>170.0</ele>
        <time>2019-06-09T11:38:44+02:00</time>
      </trkpt>
      <trkpt lat="41.69780834" lon="2.0014333399999993">
        <ele>168.0</ele>
        <time>2019-06-09T11:38:47+02:00</time>
      </trkpt>
      <trkpt lat="41.697853339999995" lon="2.00148634">
        <ele>166.0</ele>
        <time>2019-06-09T11:38:51+02:00</time>
      </trkpt>
      <trkpt lat="41.697889999999994" lon="2.00153434">
        <ele>165.0</ele>
        <time>2019-06-09T11:38:55+02:00</time>
      </trkpt>
      <trkpt lat="41.697915" lon="2.00158834">
        <ele>162.0</ele>
        <time>2019-06-09T11:38:58+02:00</time>
      </trkpt>
      <trkpt lat="41.697945" lon="2.00164334">
        <ele>160.0</ele>
        <time>2019-06-09T11:39:01+02:00</time>
      </trkpt>
      <trkpt lat="41.69797267" lon="2.00171">
        <ele>157.0</ele>
        <time>2019-06-09T11:39:04+02:00</time>
      </trkpt>
      <trkpt lat="41.69800067" lon="2.00176667">
        <ele>156.0</ele>
        <time>2019-06-09T11:39:07+02:00</time>
      </trkpt>
      <trkpt lat="41.69803667" lon="2.00181834">
        <ele>153.0</ele>
        <time>2019-06-09T11:39:10+02:00</time>
      </trkpt>
      <trkpt lat="41.698098339999994" lon="2.0018483399999996">
        <ele>152.0</ele>
        <time>2019-06-09T11:39:13+02:00</time>
      </trkpt>
      <trkpt lat="41.698159999999994" lon="2.00184667">
        <ele>150.0</ele>
        <time>2019-06-09T11:39:16+02:00</time>
      </trkpt>
      <trkpt lat="41.698220000000006" lon="2.0018166699999997">
        <ele>149.0</ele>
        <time>2019-06-09T11:39:19+02:00</time>
      </trkpt>
      <trkpt lat="41.698275" lon="2.00177667">
        <ele>148.0</ele>
        <time>2019-06-09T11:39:22+02:00</time>
      </trkpt>
      <trkpt lat="41.69832667000001" lon="2.001735">
        <ele>147.0</ele>
        <time>2019-06-09T11:39:25+02:00</time>
      </trkpt>
      <trkpt lat="41.698381669999996" lon="2.00170167">
        <ele>146.0</ele>
        <time>2019-06-09T11:39:28+02:00</time>
      </trkpt>
      <trkpt lat="41.69844167000001" lon="2.00167767">
        <ele>145.0</ele>
        <time>2019-06-09T11:39:31+02:00</time>
      </trkpt>
      <trkpt lat="41.698503339999995" lon="2.0016883400000003">
        <ele>145.0</ele>
        <time>2019-06-09T11:39:34+02:00</time>
      </trkpt>
      <trkpt lat="41.698550000000004" lon="2.00170667">
        <ele>144.0</ele>
        <time>2019-06-09T11:39:36+02:00</time>
      </trkpt>
      <trkpt lat="41.69858834" lon="2.00174167">
        <ele>144.0</ele>
        <time>2019-06-09T11:39:38+02:00</time>
      </trkpt>
      <trkpt lat="41.69862334" lon="2.001785">
        <ele>143.0</ele>
        <time>2019-06-09T11:39:40+02:00</time>
      </trkpt>
      <trkpt lat="41.69866167" lon="2.0018400000000005">
        <ele>142.0</ele>
        <time>2019-06-09T11:39:42+02:00</time>
      </trkpt>
      <trkpt lat="41.69869667000001" lon="2.0018849999999997">
        <ele>142.0</ele>
        <time>2019-06-09T11:39:44+02:00</time>
      </trkpt>
      <trkpt lat="41.698746670000006" lon="2.0019196700000004">
        <ele>141.0</ele>
        <time>2019-06-09T11:39:46+02:00</time>
      </trkpt>
      <trkpt lat="41.69880667" lon="2.00195">
        <ele>141.0</ele>
        <time>2019-06-09T11:39:48+02:00</time>
      </trkpt>
      <trkpt lat="41.69885333999999" lon="2.001972">
        <ele>140.0</ele>
        <time>2019-06-09T11:39:50+02:00</time>
      </trkpt>
      <trkpt lat="41.698913340000004" lon="2.001995">
        <ele>140.0</ele>
        <time>2019-06-09T11:39:52+02:00</time>
      </trkpt>
      <trkpt lat="41.69896667000001" lon="2.002015">
        <ele>139.0</ele>
        <time>2019-06-09T11:39:54+02:00</time>
      </trkpt>
      <trkpt lat="41.69902167" lon="2.002034">
        <ele>139.0</ele>
        <time>2019-06-09T11:39:56+02:00</time>
      </trkpt>
      <trkpt lat="41.699076670000004" lon="2.00205434">
        <ele>138.0</ele>
        <time>2019-06-09T11:39:58+02:00</time>
      </trkpt>
      <trkpt lat="41.699125" lon="2.00207334">
        <ele>137.0</ele>
        <time>2019-06-09T11:40:00+02:00</time>
      </trkpt>
      <trkpt lat="41.699178339999996" lon="2.002093">
        <ele>137.0</ele>
        <time>2019-06-09T11:40:02+02:00</time>
      </trkpt>
      <trkpt lat="41.699245000000005" lon="2.0021120000000003">
        <ele>137.0</ele>
        <time>2019-06-09T11:40:04+02:00</time>
      </trkpt>
      <trkpt lat="41.699315000000006" lon="2.00212034">
        <ele>137.0</ele>
        <time>2019-06-09T11:40:06+02:00</time>
      </trkpt>
      <trkpt lat="41.699358339999996" lon="2.002113">
        <ele>137.0</ele>
        <time>2019-06-09T11:40:07+02:00</time>
      </trkpt>
      <trkpt lat="41.699419999999996" lon="2.001998339999999">
        <ele>137.0</ele>
        <time>2019-06-09T11:40:09+02:00</time>
      </trkpt>
      <trkpt lat="41.69947667" lon="2.00194167">
        <ele>136.0</ele>
        <time>2019-06-09T11:40:11+02:00</time>
      </trkpt>
      <trkpt lat="41.699526670000004" lon="2.0018900000000004">
        <ele>136.0</ele>
        <time>2019-06-09T11:40:13+02:00</time>
      </trkpt>
      <trkpt lat="41.699576670000006" lon="2.0018483399999996">
        <ele>136.0</ele>
        <time>2019-06-09T11:40:15+02:00</time>
      </trkpt>
      <trkpt lat="41.699633340000005" lon="2.001823">
        <ele>136.0</ele>
        <time>2019-06-09T11:40:16+02:00</time>
      </trkpt>
      <trkpt lat="41.69969999999999" lon="2.00181334">
        <ele>136.0</ele>
        <time>2019-06-09T11:40:18+02:00</time>
      </trkpt>
      <trkpt lat="41.69975834" lon="2.0018533399999994">
        <ele>135.0</ele>
        <time>2019-06-09T11:40:20+02:00</time>
      </trkpt>
      <trkpt lat="41.699813340000006" lon="2.001895">
        <ele>135.0</ele>
        <time>2019-06-09T11:40:22+02:00</time>
      </trkpt>
      <trkpt lat="41.69985333999999" lon="2.0019483399999993">
        <ele>135.0</ele>
        <time>2019-06-09T11:40:24+02:00</time>
      </trkpt>
      <trkpt lat="41.699889999999996" lon="2.0020099999999994">
        <ele>135.0</ele>
        <time>2019-06-09T11:40:26+02:00</time>
      </trkpt>
      <trkpt lat="41.69992167" lon="2.00207167">
        <ele>135.0</ele>
        <time>2019-06-09T11:40:28+02:00</time>
      </trkpt>
      <trkpt lat="41.69995667" lon="2.0021286700000003">
        <ele>135.0</ele>
        <time>2019-06-09T11:40:30+02:00</time>
      </trkpt>
      <trkpt lat="41.69998834" lon="2.00217867">
        <ele>136.0</ele>
        <time>2019-06-09T11:40:32+02:00</time>
      </trkpt>
      <trkpt lat="41.70002667000001" lon="2.00222867">
        <ele>137.0</ele>
        <time>2019-06-09T11:40:34+02:00</time>
      </trkpt>
      <trkpt lat="41.700083340000006" lon="2.002292">
        <ele>138.0</ele>
        <time>2019-06-09T11:40:37+02:00</time>
      </trkpt>
      <trkpt lat="41.700125" lon="2.00233067">
        <ele>139.0</ele>
        <time>2019-06-09T11:40:39+02:00</time>
      </trkpt>
      <trkpt lat="41.70018" lon="2.0023783399999995">
        <ele>140.0</ele>
        <time>2019-06-09T11:40:42+02:00</time>
      </trkpt>
      <trkpt lat="41.70021667000001" lon="2.0024120000000005">
        <ele>140.0</ele>
        <time>2019-06-09T11:40:44+02:00</time>
      </trkpt>
      <trkpt lat="41.70025334" lon="2.0024506699999995">
        <ele>140.0</ele>
        <time>2019-06-09T11:40:46+02:00</time>
      </trkpt>
      <trkpt lat="41.70029000000001" lon="2.0024900000000003">
        <ele>140.0</ele>
        <time>2019-06-09T11:40:48+02:00</time>
      </trkpt>
      <trkpt lat="41.70032834" lon="2.002532">
        <ele>141.0</ele>
        <time>2019-06-09T11:40:50+02:00</time>
      </trkpt>
      <trkpt lat="41.70038667" lon="2.0025920000000004">
        <ele>142.0</ele>
        <time>2019-06-09T11:40:53+02:00</time>
      </trkpt>
      <trkpt lat="41.700446670000005" lon="2.0025933399999998">
        <ele>143.0</ele>
        <time>2019-06-09T11:40:56+02:00</time>
      </trkpt>
      <trkpt lat="41.70050167000001" lon="2.0026079999999995">
        <ele>144.0</ele>
        <time>2019-06-09T11:40:59+02:00</time>
      </trkpt>
      <trkpt lat="41.700563339999995" lon="2.0026363399999996">
        <ele>144.0</ele>
        <time>2019-06-09T11:41:02+02:00</time>
      </trkpt>
      <trkpt lat="41.70059834" lon="2.00266867">
        <ele>145.0</ele>
        <time>2019-06-09T11:41:04+02:00</time>
      </trkpt>
      <trkpt lat="41.700625" lon="2.0027549999999996">
        <ele>145.0</ele>
        <time>2019-06-09T11:41:07+02:00</time>
      </trkpt>
      <trkpt lat="41.70064334" lon="2.00281334">
        <ele>145.0</ele>
        <time>2019-06-09T11:41:09+02:00</time>
      </trkpt>
      <trkpt lat="41.700655" lon="2.002905">
        <ele>145.0</ele>
        <time>2019-06-09T11:41:12+02:00</time>
      </trkpt>
      <trkpt lat="41.700646670000005" lon="2.00297167">
        <ele>145.0</ele>
        <time>2019-06-09T11:41:14+02:00</time>
      </trkpt>
      <trkpt lat="41.70063499999999" lon="2.00306167">
        <ele>145.0</ele>
        <time>2019-06-09T11:41:16+02:00</time>
      </trkpt>
      <trkpt lat="41.70066334" lon="2.00312">
        <ele>145.0</ele>
        <time>2019-06-09T11:41:19+02:00</time>
      </trkpt>
      <trkpt lat="41.700735" lon="2.0030766699999996">
        <ele>145.0</ele>
        <time>2019-06-09T11:41:22+02:00</time>
      </trkpt>
      <trkpt lat="41.700784999999996" lon="2.0030366699999997">
        <ele>145.0</ele>
        <time>2019-06-09T11:41:24+02:00</time>
      </trkpt>
      <trkpt lat="41.70087334" lon="2.0029833399999992">
        <ele>146.0</ele>
        <time>2019-06-09T11:41:26+02:00</time>
      </trkpt>
      <trkpt lat="41.70093334" lon="2.0029333399999993">
        <ele>146.0</ele>
        <time>2019-06-09T11:41:27+02:00</time>
      </trkpt>
      <trkpt lat="41.70100000000001" lon="2.0028833399999995">
        <ele>146.0</ele>
        <time>2019-06-09T11:41:28+02:00</time>
      </trkpt>
      <trkpt lat="41.70106667000001" lon="2.0028349999999997">
        <ele>147.0</ele>
        <time>2019-06-09T11:41:29+02:00</time>
      </trkpt>
      <trkpt lat="41.70134167000001" lon="2.0026433399999997">
        <ele>148.0</ele>
        <time>2019-06-09T11:41:31+02:00</time>
      </trkpt>
      <trkpt lat="41.701404999999994" lon="2.00261">
        <ele>148.0</ele>
        <time>2019-06-09T11:41:32+02:00</time>
      </trkpt>
      <trkpt lat="41.70146" lon="2.0025956700000003">
        <ele>149.0</ele>
        <time>2019-06-09T11:41:33+02:00</time>
      </trkpt>
      <trkpt lat="41.701515" lon="2.00260034">
        <ele>149.0</ele>
        <time>2019-06-09T11:41:34+02:00</time>
      </trkpt>
      <trkpt lat="41.70158334" lon="2.00269834">
        <ele>151.0</ele>
        <time>2019-06-09T11:41:35+02:00</time>
      </trkpt>
      <trkpt lat="41.70165167000001" lon="2.0027549999999996">
        <ele>151.0</ele>
        <time>2019-06-09T11:41:36+02:00</time>
      </trkpt>
      <trkpt lat="41.701710000000006" lon="2.00283">
        <ele>152.0</ele>
        <time>2019-06-09T11:41:37+02:00</time>
      </trkpt>
      <trkpt lat="41.701761669999996" lon="2.0028966699999993">
        <ele>152.0</ele>
        <time>2019-06-09T11:41:38+02:00</time>
      </trkpt>
      <trkpt lat="41.70180834000001" lon="2.00295667">
        <ele>153.0</ele>
        <time>2019-06-09T11:41:39+02:00</time>
      </trkpt>
      <trkpt lat="41.70185167000001" lon="2.00300334">
        <ele>153.0</ele>
        <time>2019-06-09T11:41:40+02:00</time>
      </trkpt>
      <trkpt lat="41.70190000000001" lon="2.0030379999999997">
        <ele>154.0</ele>
        <time>2019-06-09T11:41:41+02:00</time>
      </trkpt>
      <trkpt lat="41.701975000000004" lon="2.0030046699999997">
        <ele>156.0</ele>
        <time>2019-06-09T11:41:43+02:00</time>
      </trkpt>
      <trkpt lat="41.702034999999995" lon="2.0029283399999995">
        <ele>157.0</ele>
        <time>2019-06-09T11:41:45+02:00</time>
      </trkpt>
      <trkpt lat="41.70208167" lon="2.0028416699999996">
        <ele>158.0</ele>
        <time>2019-06-09T11:41:47+02:00</time>
      </trkpt>
      <trkpt lat="41.702126670000006" lon="2.00279834">
        <ele>158.0</ele>
        <time>2019-06-09T11:41:48+02:00</time>
      </trkpt>
      <trkpt lat="41.702188340000006" lon="2.0027549999999996">
        <ele>159.0</ele>
        <time>2019-06-09T11:41:49+02:00</time>
      </trkpt>
      <trkpt lat="41.70225834" lon="2.0027266700000004">
        <ele>159.0</ele>
        <time>2019-06-09T11:41:50+02:00</time>
      </trkpt>
      <trkpt lat="41.702326670000005" lon="2.002707">
        <ele>160.0</ele>
        <time>2019-06-09T11:41:51+02:00</time>
      </trkpt>
      <trkpt lat="41.70238334" lon="2.002703">
        <ele>160.0</ele>
        <time>2019-06-09T11:41:52+02:00</time>
      </trkpt>
      <trkpt lat="41.70245167" lon="2.00269367">
        <ele>161.0</ele>
        <time>2019-06-09T11:41:53+02:00</time>
      </trkpt>
      <trkpt lat="41.70251667000001" lon="2.0026833399999995">
        <ele>161.0</ele>
        <time>2019-06-09T11:41:54+02:00</time>
      </trkpt>
      <trkpt lat="41.70258167" lon="2.00267267">
        <ele>163.0</ele>
        <time>2019-06-09T11:41:55+02:00</time>
      </trkpt>
      <trkpt lat="41.70264667" lon="2.002667">
        <ele>163.0</ele>
        <time>2019-06-09T11:41:56+02:00</time>
      </trkpt>
      <trkpt lat="41.70271334" lon="2.00266967">
        <ele>164.0</ele>
        <time>2019-06-09T11:41:57+02:00</time>
      </trkpt>
      <trkpt lat="41.70274667" lon="2.00269634">
        <ele>164.0</ele>
        <time>2019-06-09T11:41:58+02:00</time>
      </trkpt>
      <trkpt lat="41.702844999999996" lon="2.00288167">
        <ele>165.0</ele>
        <time>2019-06-09T11:41:59+02:00</time>
      </trkpt>
      <trkpt lat="41.7029" lon="2.0029450000000004">
        <ele>165.0</ele>
        <time>2019-06-09T11:42:00+02:00</time>
      </trkpt>
      <trkpt lat="41.70297667000001" lon="2.0030349999999997">
        <ele>166.0</ele>
        <time>2019-06-09T11:42:01+02:00</time>
      </trkpt>
      <trkpt lat="41.703041670000005" lon="2.00312">
        <ele>166.0</ele>
        <time>2019-06-09T11:42:02+02:00</time>
      </trkpt>
      <trkpt lat="41.70309834" lon="2.00320667">
        <ele>168.0</ele>
        <time>2019-06-09T11:42:03+02:00</time>
      </trkpt>
      <trkpt lat="41.70314167" lon="2.0032833399999994">
        <ele>168.0</ele>
        <time>2019-06-09T11:42:04+02:00</time>
      </trkpt>
      <trkpt lat="41.70318667" lon="2.0033333399999997">
        <ele>169.0</ele>
        <time>2019-06-09T11:42:05+02:00</time>
      </trkpt>
      <trkpt lat="41.703268339999994" lon="2.003374">
        <ele>170.0</ele>
        <time>2019-06-09T11:42:07+02:00</time>
      </trkpt>
      <trkpt lat="41.70333334" lon="2.00330467">
        <ele>171.0</ele>
        <time>2019-06-09T11:42:08+02:00</time>
      </trkpt>
      <trkpt lat="41.70337000000001" lon="2.0032116699999998">
        <ele>171.0</ele>
        <time>2019-06-09T11:42:09+02:00</time>
      </trkpt>
      <trkpt lat="41.703403339999994" lon="2.00313667">
        <ele>172.0</ele>
        <time>2019-06-09T11:42:10+02:00</time>
      </trkpt>
      <trkpt lat="41.70342667" lon="2.00308167">
        <ele>172.0</ele>
        <time>2019-06-09T11:42:11+02:00</time>
      </trkpt>
      <trkpt lat="41.70348167" lon="2.003025">
        <ele>173.0</ele>
        <time>2019-06-09T11:42:12+02:00</time>
      </trkpt>
      <trkpt lat="41.70353334" lon="2.0029866699999994">
        <ele>173.0</ele>
        <time>2019-06-09T11:42:13+02:00</time>
      </trkpt>
      <trkpt lat="41.70358834" lon="2.0029583399999997">
        <ele>174.0</ele>
        <time>2019-06-09T11:42:14+02:00</time>
      </trkpt>
      <trkpt lat="41.70364167000001" lon="2.0029453399999997">
        <ele>174.0</ele>
        <time>2019-06-09T11:42:15+02:00</time>
      </trkpt>
      <trkpt lat="41.703698339999995" lon="2.002956">
        <ele>175.0</ele>
        <time>2019-06-09T11:42:16+02:00</time>
      </trkpt>
      <trkpt lat="41.70375333999999" lon="2.002992">
        <ele>175.0</ele>
        <time>2019-06-09T11:42:17+02:00</time>
      </trkpt>
      <trkpt lat="41.70379333999999" lon="2.00309167">
        <ele>176.0</ele>
        <time>2019-06-09T11:42:18+02:00</time>
      </trkpt>
      <trkpt lat="41.70382667" lon="2.0031666699999997">
        <ele>176.0</ele>
        <time>2019-06-09T11:42:19+02:00</time>
      </trkpt>
      <trkpt lat="41.703860000000006" lon="2.0032366699999997">
        <ele>176.0</ele>
        <time>2019-06-09T11:42:20+02:00</time>
      </trkpt>
      <trkpt lat="41.703898339999995" lon="2.00329334">
        <ele>177.0</ele>
        <time>2019-06-09T11:42:21+02:00</time>
      </trkpt>
      <trkpt lat="41.703933340000006" lon="2.00333667">
        <ele>177.0</ele>
        <time>2019-06-09T11:42:22+02:00</time>
      </trkpt>
      <trkpt lat="41.70401334" lon="2.003386">
        <ele>178.0</ele>
        <time>2019-06-09T11:42:24+02:00</time>
      </trkpt>
      <trkpt lat="41.704073339999994" lon="2.00339767">
        <ele>178.0</ele>
        <time>2019-06-09T11:42:25+02:00</time>
      </trkpt>
      <trkpt lat="41.70413167" lon="2.00340034">
        <ele>178.0</ele>
        <time>2019-06-09T11:42:26+02:00</time>
      </trkpt>
      <trkpt lat="41.70418667" lon="2.003375">
        <ele>179.0</ele>
        <time>2019-06-09T11:42:27+02:00</time>
      </trkpt>
      <trkpt lat="41.704261669999994" lon="2.0033666699999997">
        <ele>179.0</ele>
        <time>2019-06-09T11:42:28+02:00</time>
      </trkpt>
      <trkpt lat="41.70432333999999" lon="2.0033499999999997">
        <ele>180.0</ele>
        <time>2019-06-09T11:42:29+02:00</time>
      </trkpt>
      <trkpt lat="41.70438" lon="2.00332667">
        <ele>180.0</ele>
        <time>2019-06-09T11:42:30+02:00</time>
      </trkpt>
      <trkpt lat="41.704435" lon="2.00328667">
        <ele>181.0</ele>
        <time>2019-06-09T11:42:31+02:00</time>
      </trkpt>
      <trkpt lat="41.70448834" lon="2.003235">
        <ele>181.0</ele>
        <time>2019-06-09T11:42:32+02:00</time>
      </trkpt>
      <trkpt lat="41.704553340000004" lon="2.0031849999999998">
        <ele>181.0</ele>
        <time>2019-06-09T11:42:33+02:00</time>
      </trkpt>
      <trkpt lat="41.70460833999999" lon="2.00315967">
        <ele>182.0</ele>
        <time>2019-06-09T11:42:34+02:00</time>
      </trkpt>
      <trkpt lat="41.70467167" lon="2.0031516700000003">
        <ele>182.0</ele>
        <time>2019-06-09T11:42:35+02:00</time>
      </trkpt>
      <trkpt lat="41.70472667" lon="2.003159">
        <ele>182.0</ele>
        <time>2019-06-09T11:42:36+02:00</time>
      </trkpt>
      <trkpt lat="41.70479667000001" lon="2.0031799999999995">
        <ele>182.0</ele>
        <time>2019-06-09T11:42:37+02:00</time>
      </trkpt>
      <trkpt lat="41.704851670000004" lon="2.00320367">
        <ele>182.0</ele>
        <time>2019-06-09T11:42:38+02:00</time>
      </trkpt>
      <trkpt lat="41.70489667" lon="2.00323834">
        <ele>182.0</ele>
        <time>2019-06-09T11:42:39+02:00</time>
      </trkpt>
      <trkpt lat="41.70495333999999" lon="2.00325167">
        <ele>183.0</ele>
        <time>2019-06-09T11:42:40+02:00</time>
      </trkpt>
      <trkpt lat="41.705008340000006" lon="2.0032606699999995">
        <ele>183.0</ele>
        <time>2019-06-09T11:42:41+02:00</time>
      </trkpt>
      <trkpt lat="41.70507667" lon="2.003267">
        <ele>183.0</ele>
        <time>2019-06-09T11:42:42+02:00</time>
      </trkpt>
      <trkpt lat="41.70513834" lon="2.003267">
        <ele>183.0</ele>
        <time>2019-06-09T11:42:43+02:00</time>
      </trkpt>
      <trkpt lat="41.705195" lon="2.0032606699999995">
        <ele>183.0</ele>
        <time>2019-06-09T11:42:44+02:00</time>
      </trkpt>
      <trkpt lat="41.70530334" lon="2.00319734">
        <ele>184.0</ele>
        <time>2019-06-09T11:42:45+02:00</time>
      </trkpt>
      <trkpt lat="41.70539834" lon="2.00313767">
        <ele>184.0</ele>
        <time>2019-06-09T11:42:46+02:00</time>
      </trkpt>
      <trkpt lat="41.70547499999999" lon="2.00309634">
        <ele>184.0</ele>
        <time>2019-06-09T11:42:47+02:00</time>
      </trkpt>
      <trkpt lat="41.705538340000004" lon="2.0030840000000003">
        <ele>184.0</ele>
        <time>2019-06-09T11:42:48+02:00</time>
      </trkpt>
      <trkpt lat="41.705596670000006" lon="2.00309534">
        <ele>185.0</ele>
        <time>2019-06-09T11:42:49+02:00</time>
      </trkpt>
      <trkpt lat="41.70562334" lon="2.003127">
        <ele>185.0</ele>
        <time>2019-06-09T11:42:50+02:00</time>
      </trkpt>
      <trkpt lat="41.705645000000004" lon="2.003345">
        <ele>185.0</ele>
        <time>2019-06-09T11:42:51+02:00</time>
      </trkpt>
      <trkpt lat="41.705690000000004" lon="2.00353">
        <ele>186.0</ele>
        <time>2019-06-09T11:42:52+02:00</time>
      </trkpt>
      <trkpt lat="41.70571167" lon="2.003635">
        <ele>186.0</ele>
        <time>2019-06-09T11:42:53+02:00</time>
      </trkpt>
      <trkpt lat="41.705731670000006" lon="2.0037200000000004">
        <ele>187.0</ele>
        <time>2019-06-09T11:42:54+02:00</time>
      </trkpt>
      <trkpt lat="41.705765" lon="2.00378167">
        <ele>187.0</ele>
        <time>2019-06-09T11:42:55+02:00</time>
      </trkpt>
      <trkpt lat="41.705868339999995" lon="2.00386167">
        <ele>187.0</ele>
        <time>2019-06-09T11:42:57+02:00</time>
      </trkpt>
      <trkpt lat="41.70594167000001" lon="2.003873">
        <ele>187.0</ele>
        <time>2019-06-09T11:42:58+02:00</time>
      </trkpt>
      <trkpt lat="41.706" lon="2.00386967">
        <ele>188.0</ele>
        <time>2019-06-09T11:42:59+02:00</time>
      </trkpt>
      <trkpt lat="41.70607167" lon="2.00385167">
        <ele>188.0</ele>
        <time>2019-06-09T11:43:00+02:00</time>
      </trkpt>
      <trkpt lat="41.70614334" lon="2.0038383399999997">
        <ele>188.0</ele>
        <time>2019-06-09T11:43:01+02:00</time>
      </trkpt>
      <trkpt lat="41.70621" lon="2.0038216699999998">
        <ele>189.0</ele>
        <time>2019-06-09T11:43:02+02:00</time>
      </trkpt>
      <trkpt lat="41.70629834" lon="2.0038033399999997">
        <ele>189.0</ele>
        <time>2019-06-09T11:43:03+02:00</time>
      </trkpt>
      <trkpt lat="41.70637334" lon="2.0037766699999997">
        <ele>189.0</ele>
        <time>2019-06-09T11:43:04+02:00</time>
      </trkpt>
      <trkpt lat="41.706419999999994" lon="2.0036716699999997">
        <ele>190.0</ele>
        <time>2019-06-09T11:43:05+02:00</time>
      </trkpt>
      <trkpt lat="41.70654167000001" lon="2.00366334">
        <ele>190.0</ele>
        <time>2019-06-09T11:43:06+02:00</time>
      </trkpt>
      <trkpt lat="41.70661" lon="2.0036536700000003">
        <ele>190.0</ele>
        <time>2019-06-09T11:43:07+02:00</time>
      </trkpt>
      <trkpt lat="41.706705" lon="2.00364">
        <ele>190.0</ele>
        <time>2019-06-09T11:43:08+02:00</time>
      </trkpt>
      <trkpt lat="41.70679833999999" lon="2.0036193399999993">
        <ele>191.0</ele>
        <time>2019-06-09T11:43:09+02:00</time>
      </trkpt>
      <trkpt lat="41.70688499999999" lon="2.0036023399999996">
        <ele>191.0</ele>
        <time>2019-06-09T11:43:10+02:00</time>
      </trkpt>
      <trkpt lat="41.706965000000004" lon="2.0036053399999996">
        <ele>191.0</ele>
        <time>2019-06-09T11:43:11+02:00</time>
      </trkpt>
      <trkpt lat="41.70703834" lon="2.003623">
        <ele>191.0</ele>
        <time>2019-06-09T11:43:12+02:00</time>
      </trkpt>
      <trkpt lat="41.70711333999999" lon="2.00365134">
        <ele>192.0</ele>
        <time>2019-06-09T11:43:13+02:00</time>
      </trkpt>
      <trkpt lat="41.70718" lon="2.0036866699999996">
        <ele>192.0</ele>
        <time>2019-06-09T11:43:14+02:00</time>
      </trkpt>
      <trkpt lat="41.70723667" lon="2.00372067">
        <ele>192.0</ele>
        <time>2019-06-09T11:43:15+02:00</time>
      </trkpt>
      <trkpt lat="41.70731667000001" lon="2.00375467">
        <ele>192.0</ele>
        <time>2019-06-09T11:43:16+02:00</time>
      </trkpt>
      <trkpt lat="41.70737167000001" lon="2.00377134">
        <ele>193.0</ele>
        <time>2019-06-09T11:43:17+02:00</time>
      </trkpt>
      <trkpt lat="41.70743334000001" lon="2.0037879999999997">
        <ele>193.0</ele>
        <time>2019-06-09T11:43:18+02:00</time>
      </trkpt>
      <trkpt lat="41.707525000000004" lon="2.0038023399999996">
        <ele>193.0</ele>
        <time>2019-06-09T11:43:19+02:00</time>
      </trkpt>
      <trkpt lat="41.70758834" lon="2.003808">
        <ele>193.0</ele>
        <time>2019-06-09T11:43:20+02:00</time>
      </trkpt>
      <trkpt lat="41.70766" lon="2.00380834">
        <ele>193.0</ele>
        <time>2019-06-09T11:43:21+02:00</time>
      </trkpt>
      <trkpt lat="41.707723339999994" lon="2.00380467">
        <ele>194.0</ele>
        <time>2019-06-09T11:43:22+02:00</time>
      </trkpt>
      <trkpt lat="41.707784999999994" lon="2.0037996700000003">
        <ele>194.0</ele>
        <time>2019-06-09T11:43:23+02:00</time>
      </trkpt>
      <trkpt lat="41.70784167000001" lon="2.003793">
        <ele>194.0</ele>
        <time>2019-06-09T11:43:24+02:00</time>
      </trkpt>
      <trkpt lat="41.70790167000001" lon="2.00378834">
        <ele>194.0</ele>
        <time>2019-06-09T11:43:25+02:00</time>
      </trkpt>
      <trkpt lat="41.707971670000006" lon="2.003784">
        <ele>194.0</ele>
        <time>2019-06-09T11:43:26+02:00</time>
      </trkpt>
      <trkpt lat="41.70804" lon="2.003782">
        <ele>194.0</ele>
        <time>2019-06-09T11:43:27+02:00</time>
      </trkpt>
      <trkpt lat="41.70811" lon="2.003779">
        <ele>194.0</ele>
        <time>2019-06-09T11:43:28+02:00</time>
      </trkpt>
      <trkpt lat="41.70817667" lon="2.003775">
        <ele>194.0</ele>
        <time>2019-06-09T11:43:29+02:00</time>
      </trkpt>
      <trkpt lat="41.70824334" lon="2.0037706699999998">
        <ele>194.0</ele>
        <time>2019-06-09T11:43:30+02:00</time>
      </trkpt>
      <trkpt lat="41.70831167" lon="2.00376534">
        <ele>194.0</ele>
        <time>2019-06-09T11:43:31+02:00</time>
      </trkpt>
      <trkpt lat="41.70838334" lon="2.00376367">
        <ele>194.0</ele>
        <time>2019-06-09T11:43:32+02:00</time>
      </trkpt>
      <trkpt lat="41.70845333999999" lon="2.0037663399999994">
        <ele>194.0</ele>
        <time>2019-06-09T11:43:33+02:00</time>
      </trkpt>
      <trkpt lat="41.70851667000001" lon="2.0037700000000003">
        <ele>194.0</ele>
        <time>2019-06-09T11:43:34+02:00</time>
      </trkpt>
      <trkpt lat="41.708569999999995" lon="2.00378267">
        <ele>194.0</ele>
        <time>2019-06-09T11:43:35+02:00</time>
      </trkpt>
      <trkpt lat="41.70861834" lon="2.00390334">
        <ele>194.0</ele>
        <time>2019-06-09T11:43:36+02:00</time>
      </trkpt>
      <trkpt lat="41.708668339999996" lon="2.0039716699999994">
        <ele>194.0</ele>
        <time>2019-06-09T11:43:37+02:00</time>
      </trkpt>
      <trkpt lat="41.708745" lon="2.0040533399999996">
        <ele>194.0</ele>
        <time>2019-06-09T11:43:38+02:00</time>
      </trkpt>
      <trkpt lat="41.708816670000004" lon="2.004105">
        <ele>194.0</ele>
        <time>2019-06-09T11:43:39+02:00</time>
      </trkpt>
      <trkpt lat="41.70887833999999" lon="2.004152">
        <ele>194.0</ele>
        <time>2019-06-09T11:43:40+02:00</time>
      </trkpt>
      <trkpt lat="41.70894500000001" lon="2.00419934">
        <ele>194.0</ele>
        <time>2019-06-09T11:43:41+02:00</time>
      </trkpt>
      <trkpt lat="41.70901167" lon="2.0042406699999997">
        <ele>194.0</ele>
        <time>2019-06-09T11:43:42+02:00</time>
      </trkpt>
      <trkpt lat="41.709081669999996" lon="2.0042833399999997">
        <ele>194.0</ele>
        <time>2019-06-09T11:43:43+02:00</time>
      </trkpt>
      <trkpt lat="41.70915" lon="2.004328">
        <ele>194.0</ele>
        <time>2019-06-09T11:43:44+02:00</time>
      </trkpt>
      <trkpt lat="41.70921167" lon="2.00437134">
        <ele>194.0</ele>
        <time>2019-06-09T11:43:45+02:00</time>
      </trkpt>
      <trkpt lat="41.709273339999996" lon="2.0044186699999997">
        <ele>194.0</ele>
        <time>2019-06-09T11:43:46+02:00</time>
      </trkpt>
      <trkpt lat="41.70933167" lon="2.0044703399999997">
        <ele>194.0</ele>
        <time>2019-06-09T11:43:47+02:00</time>
      </trkpt>
      <trkpt lat="41.70938834" lon="2.004525">
        <ele>194.0</ele>
        <time>2019-06-09T11:43:48+02:00</time>
      </trkpt>
      <trkpt lat="41.709446670000005" lon="2.00458334">
        <ele>194.0</ele>
        <time>2019-06-09T11:43:49+02:00</time>
      </trkpt>
      <trkpt lat="41.70950333999999" lon="2.0046379999999995">
        <ele>194.0</ele>
        <time>2019-06-09T11:43:50+02:00</time>
      </trkpt>
      <trkpt lat="41.70955834" lon="2.00468834">
        <ele>194.0</ele>
        <time>2019-06-09T11:43:51+02:00</time>
      </trkpt>
      <trkpt lat="41.709603339999994" lon="2.00472234">
        <ele>195.0</ele>
        <time>2019-06-09T11:43:52+02:00</time>
      </trkpt>
      <trkpt lat="41.709669999999996" lon="2.0047663399999998">
        <ele>195.0</ele>
        <time>2019-06-09T11:43:53+02:00</time>
      </trkpt>
      <trkpt lat="41.70974667" lon="2.0048079999999997">
        <ele>195.0</ele>
        <time>2019-06-09T11:43:54+02:00</time>
      </trkpt>
      <trkpt lat="41.709815" lon="2.0048353400000005">
        <ele>195.0</ele>
        <time>2019-06-09T11:43:55+02:00</time>
      </trkpt>
      <trkpt lat="41.709895" lon="2.0048690000000002">
        <ele>195.0</ele>
        <time>2019-06-09T11:43:56+02:00</time>
      </trkpt>
      <trkpt lat="41.71005" lon="2.00492534">
        <ele>196.0</ele>
        <time>2019-06-09T11:43:57+02:00</time>
      </trkpt>
      <trkpt lat="41.710133340000006" lon="2.0049333399999996">
        <ele>196.0</ele>
        <time>2019-06-09T11:43:59+02:00</time>
      </trkpt>
      <trkpt lat="41.71018667" lon="2.00493834">
        <ele>196.0</ele>
        <time>2019-06-09T11:44:01+02:00</time>
      </trkpt>
      <trkpt lat="41.71019834" lon="2.0049150000000004">
        <ele>197.0</ele>
        <time>2019-06-09T11:44:03+02:00</time>
      </trkpt>
      <trkpt lat="41.71016834" lon="2.0050066699999998">
        <ele>197.0</ele>
        <time>2019-06-09T11:44:05+02:00</time>
      </trkpt>
      <trkpt lat="41.710143339999995" lon="2.0051183399999997">
        <ele>197.0</ele>
        <time>2019-06-09T11:44:07+02:00</time>
      </trkpt>
      <trkpt lat="41.71009334" lon="2.00519334">
        <ele>196.0</ele>
        <time>2019-06-09T11:44:09+02:00</time>
      </trkpt>
      <trkpt lat="41.710045" lon="2.00523">
        <ele>196.0</ele>
        <time>2019-06-09T11:44:11+02:00</time>
      </trkpt>
      <trkpt lat="41.71000834" lon="2.0052766699999998">
        <ele>194.0</ele>
        <time>2019-06-09T11:44:14+02:00</time>
      </trkpt>
      <trkpt lat="41.70997667" lon="2.00534334">
        <ele>191.0</ele>
        <time>2019-06-09T11:44:18+02:00</time>
      </trkpt>
      <trkpt lat="41.70996" lon="2.00541667">
        <ele>188.0</ele>
        <time>2019-06-09T11:44:22+02:00</time>
      </trkpt>
      <trkpt lat="41.70995333999999" lon="2.0054900000000004">
        <ele>185.0</ele>
        <time>2019-06-09T11:44:26+02:00</time>
      </trkpt>
      <trkpt lat="41.70994334" lon="2.0055533399999996">
        <ele>183.0</ele>
        <time>2019-06-09T11:44:29+02:00</time>
      </trkpt>
      <trkpt lat="41.709931999999995" lon="2.0056116699999995">
        <ele>180.0</ele>
        <time>2019-06-09T11:44:31+02:00</time>
      </trkpt>
      <trkpt lat="41.709908999999996" lon="2.0056599999999998">
        <ele>178.0</ele>
        <time>2019-06-09T11:44:34+02:00</time>
      </trkpt>
      <trkpt lat="41.709849999999996" lon="2.0056933399999997">
        <ele>174.0</ele>
        <time>2019-06-09T11:44:38+02:00</time>
      </trkpt>
      <trkpt lat="41.70979667" lon="2.0057">
        <ele>171.0</ele>
        <time>2019-06-09T11:44:41+02:00</time>
      </trkpt>
      <trkpt lat="41.70974167000001" lon="2.0056950000000002">
        <ele>169.0</ele>
        <time>2019-06-09T11:44:44+02:00</time>
      </trkpt>
      <trkpt lat="41.709693339999994" lon="2.0056833399999996">
        <ele>167.0</ele>
        <time>2019-06-09T11:44:47+02:00</time>
      </trkpt>
      <trkpt lat="41.70964667" lon="2.00569134">
        <ele>165.0</ele>
        <time>2019-06-09T11:44:50+02:00</time>
      </trkpt>
      <trkpt lat="41.70959167000001" lon="2.00571567">
        <ele>163.0</ele>
        <time>2019-06-09T11:44:53+02:00</time>
      </trkpt>
      <trkpt lat="41.709545" lon="2.0057433399999995">
        <ele>162.0</ele>
        <time>2019-06-09T11:44:56+02:00</time>
      </trkpt>
      <trkpt lat="41.70950167000001" lon="2.0058033399999995">
        <ele>160.0</ele>
        <time>2019-06-09T11:45:00+02:00</time>
      </trkpt>
      <trkpt lat="41.70946834" lon="2.0058599999999998">
        <ele>158.0</ele>
        <time>2019-06-09T11:45:03+02:00</time>
      </trkpt>
      <trkpt lat="41.70945" lon="2.005925">
        <ele>157.0</ele>
        <time>2019-06-09T11:45:06+02:00</time>
      </trkpt>
      <trkpt lat="41.709426670000006" lon="2.00600667">
        <ele>155.0</ele>
        <time>2019-06-09T11:45:10+02:00</time>
      </trkpt>
      <trkpt lat="41.709415" lon="2.00607167">
        <ele>153.0</ele>
        <time>2019-06-09T11:45:13+02:00</time>
      </trkpt>
      <trkpt lat="41.70940367" lon="2.0061349999999996">
        <ele>152.0</ele>
        <time>2019-06-09T11:45:16+02:00</time>
      </trkpt>
      <trkpt lat="41.70938667" lon="2.00620167">
        <ele>150.0</ele>
        <time>2019-06-09T11:45:20+02:00</time>
      </trkpt>
      <trkpt lat="41.70938334" lon="2.0062699999999998">
        <ele>149.0</ele>
        <time>2019-06-09T11:45:23+02:00</time>
      </trkpt>
      <trkpt lat="41.70939334" lon="2.0063299999999997">
        <ele>148.0</ele>
        <time>2019-06-09T11:45:26+02:00</time>
      </trkpt>
      <trkpt lat="41.709404670000005" lon="2.0063983399999996">
        <ele>147.0</ele>
        <time>2019-06-09T11:45:29+02:00</time>
      </trkpt>
      <trkpt lat="41.70942" lon="2.0064666699999996">
        <ele>146.0</ele>
        <time>2019-06-09T11:45:32+02:00</time>
      </trkpt>
      <trkpt lat="41.709438" lon="2.00653167">
        <ele>145.0</ele>
        <time>2019-06-09T11:45:35+02:00</time>
      </trkpt>
      <trkpt lat="41.709456339999996" lon="2.00659834">
        <ele>144.0</ele>
        <time>2019-06-09T11:45:38+02:00</time>
      </trkpt>
      <trkpt lat="41.70947434" lon="2.00667">
        <ele>143.0</ele>
        <time>2019-06-09T11:45:41+02:00</time>
      </trkpt>
      <trkpt lat="41.70948467" lon="2.00674167">
        <ele>142.0</ele>
        <time>2019-06-09T11:45:44+02:00</time>
      </trkpt>
      <trkpt lat="41.709441670000004" lon="2.00681167">
        <ele>141.0</ele>
        <time>2019-06-09T11:45:47+02:00</time>
      </trkpt>
      <trkpt lat="41.70939167" lon="2.0068400000000004">
        <ele>138.0</ele>
        <time>2019-06-09T11:45:50+02:00</time>
      </trkpt>
      <trkpt lat="41.70933" lon="2.0068433399999996">
        <ele>136.0</ele>
        <time>2019-06-09T11:45:53+02:00</time>
      </trkpt>
      <trkpt lat="41.70928" lon="2.0068366699999998">
        <ele>133.0</ele>
        <time>2019-06-09T11:45:56+02:00</time>
      </trkpt>
      <trkpt lat="41.709235" lon="2.0068283399999993">
        <ele>131.0</ele>
        <time>2019-06-09T11:45:58+02:00</time>
      </trkpt>
      <trkpt lat="41.709188340000004" lon="2.0068183399999997">
        <ele>127.0</ele>
        <time>2019-06-09T11:46:01+02:00</time>
      </trkpt>
      <trkpt lat="41.70914333999999" lon="2.0068329999999994">
        <ele>125.0</ele>
        <time>2019-06-09T11:46:04+02:00</time>
      </trkpt>
      <trkpt lat="41.70909667000001" lon="2.00686667">
        <ele>122.0</ele>
        <time>2019-06-09T11:46:07+02:00</time>
      </trkpt>
      <trkpt lat="41.709064999999995" lon="2.0069216699999997">
        <ele>119.0</ele>
        <time>2019-06-09T11:46:10+02:00</time>
      </trkpt>
      <trkpt lat="41.709048339999995" lon="2.00697834">
        <ele>116.0</ele>
        <time>2019-06-09T11:46:13+02:00</time>
      </trkpt>
      <trkpt lat="41.709028339999996" lon="2.00703834">
        <ele>113.0</ele>
        <time>2019-06-09T11:46:16+02:00</time>
      </trkpt>
      <trkpt lat="41.70901" lon="2.0070983399999998">
        <ele>110.0</ele>
        <time>2019-06-09T11:46:19+02:00</time>
      </trkpt>
      <trkpt lat="41.708985999999996" lon="2.0071583399999993">
        <ele>106.0</ele>
        <time>2019-06-09T11:46:22+02:00</time>
      </trkpt>
      <trkpt lat="41.70895200000001" lon="2.00721334">
        <ele>103.0</ele>
        <time>2019-06-09T11:46:25+02:00</time>
      </trkpt>
      <trkpt lat="41.708916339999995" lon="2.0072666699999995">
        <ele>100.0</ele>
        <time>2019-06-09T11:46:28+02:00</time>
      </trkpt>
      <trkpt lat="41.70888067" lon="2.0073216699999996">
        <ele>97.0</ele>
        <time>2019-06-09T11:46:31+02:00</time>
      </trkpt>
      <trkpt lat="41.708840339999995" lon="2.00738">
        <ele>94.0</ele>
        <time>2019-06-09T11:46:34+02:00</time>
      </trkpt>
      <trkpt lat="41.708803339999996" lon="2.0074433399999996">
        <ele>91.0</ele>
        <time>2019-06-09T11:46:37+02:00</time>
      </trkpt>
      <trkpt lat="41.708768670000005" lon="2.007515">
        <ele>88.0</ele>
        <time>2019-06-09T11:46:40+02:00</time>
      </trkpt>
      <trkpt lat="41.708747669999994" lon="2.00758667">
        <ele>85.0</ele>
        <time>2019-06-09T11:46:43+02:00</time>
      </trkpt>
      <trkpt lat="41.708783340000004" lon="2.0076650000000003">
        <ele>82.0</ele>
        <time>2019-06-09T11:46:46+02:00</time>
      </trkpt>
      <trkpt lat="41.70878834" lon="2.00773667">
        <ele>78.0</ele>
        <time>2019-06-09T11:46:49+02:00</time>
      </trkpt>
      <trkpt lat="41.708794999999995" lon="2.0078033399999997">
        <ele>76.0</ele>
        <time>2019-06-09T11:46:52+02:00</time>
      </trkpt>
      <trkpt lat="41.708800339999996" lon="2.00787667">
        <ele>72.0</ele>
        <time>2019-06-09T11:46:55+02:00</time>
      </trkpt>
      <trkpt lat="41.70880633999999" lon="2.0079516699999997">
        <ele>70.0</ele>
        <time>2019-06-09T11:46:58+02:00</time>
      </trkpt>
      <trkpt lat="41.708810670000005" lon="2.0080216699999998">
        <ele>68.0</ele>
        <time>2019-06-09T11:47:01+02:00</time>
      </trkpt>
      <trkpt lat="41.70881267" lon="2.0080883399999996">
        <ele>65.0</ele>
        <time>2019-06-09T11:47:04+02:00</time>
      </trkpt>
      <trkpt lat="41.70881367" lon="2.00816334">
        <ele>62.0</ele>
        <time>2019-06-09T11:47:08+02:00</time>
      </trkpt>
      <trkpt lat="41.708816999999996" lon="2.0082366699999996">
        <ele>61.0</ele>
        <time>2019-06-09T11:47:11+02:00</time>
      </trkpt>
      <trkpt lat="41.70882367" lon="2.0082983399999996">
        <ele>59.0</ele>
        <time>2019-06-09T11:47:14+02:00</time>
      </trkpt>
      <trkpt lat="41.708832" lon="2.00837667">
        <ele>58.0</ele>
        <time>2019-06-09T11:47:18+02:00</time>
      </trkpt>
      <trkpt lat="41.70884167000001" lon="2.0084366699999996">
        <ele>56.0</ele>
        <time>2019-06-09T11:47:21+02:00</time>
      </trkpt>
      <trkpt lat="41.70885199999999" lon="2.00851167">
        <ele>55.0</ele>
        <time>2019-06-09T11:47:24+02:00</time>
      </trkpt>
      <trkpt lat="41.70886" lon="2.0085816700000003">
        <ele>54.0</ele>
        <time>2019-06-09T11:47:27+02:00</time>
      </trkpt>
      <trkpt lat="41.708861" lon="2.008645">
        <ele>53.0</ele>
        <time>2019-06-09T11:47:30+02:00</time>
      </trkpt>
      <trkpt lat="41.708816670000004" lon="2.0087">
        <ele>53.0</ele>
        <time>2019-06-09T11:47:33+02:00</time>
      </trkpt>
      <trkpt lat="41.708778339999995" lon="2.0087599999999997">
        <ele>53.0</ele>
        <time>2019-06-09T11:47:36+02:00</time>
      </trkpt>
      <trkpt lat="41.70873666999999" lon="2.00880667">
        <ele>53.0</ele>
        <time>2019-06-09T11:47:39+02:00</time>
      </trkpt>
      <trkpt lat="41.708681670000004" lon="2.008855">
        <ele>52.0</ele>
        <time>2019-06-09T11:47:42+02:00</time>
      </trkpt>
      <trkpt lat="41.70863667" lon="2.0088996700000004">
        <ele>52.0</ele>
        <time>2019-06-09T11:47:45+02:00</time>
      </trkpt>
      <trkpt lat="41.708591670000004" lon="2.008945">
        <ele>52.0</ele>
        <time>2019-06-09T11:47:48+02:00</time>
      </trkpt>
      <trkpt lat="41.70854167" lon="2.0089813399999996">
        <ele>52.0</ele>
        <time>2019-06-09T11:47:51+02:00</time>
      </trkpt>
      <trkpt lat="41.70849667" lon="2.00902434">
        <ele>52.0</ele>
        <time>2019-06-09T11:47:54+02:00</time>
      </trkpt>
      <trkpt lat="41.708459999999995" lon="2.0090709999999996">
        <ele>52.0</ele>
        <time>2019-06-09T11:47:57+02:00</time>
      </trkpt>
      <trkpt lat="41.70842167000001" lon="2.0091500000000004">
        <ele>51.0</ele>
        <time>2019-06-09T11:48:00+02:00</time>
      </trkpt>
      <trkpt lat="41.70838" lon="2.0092216699999996">
        <ele>51.0</ele>
        <time>2019-06-09T11:48:03+02:00</time>
      </trkpt>
      <trkpt lat="41.70835033999999" lon="2.00927">
        <ele>51.0</ele>
        <time>2019-06-09T11:48:05+02:00</time>
      </trkpt>
      <trkpt lat="41.708319339999996" lon="2.00931">
        <ele>51.0</ele>
        <time>2019-06-09T11:48:07+02:00</time>
      </trkpt>
      <trkpt lat="41.70827333999999" lon="2.00935167">
        <ele>51.0</ele>
        <time>2019-06-09T11:48:09+02:00</time>
      </trkpt>
      <trkpt lat="41.70822667" lon="2.00938167">
        <ele>52.0</ele>
        <time>2019-06-09T11:48:11+02:00</time>
      </trkpt>
      <trkpt lat="41.70818499999999" lon="2.0094079999999996">
        <ele>52.0</ele>
        <time>2019-06-09T11:48:13+02:00</time>
      </trkpt>
      <trkpt lat="41.70813499999999" lon="2.0094373400000003">
        <ele>53.0</ele>
        <time>2019-06-09T11:48:15+02:00</time>
      </trkpt>
      <trkpt lat="41.708083339999995" lon="2.0094636699999997">
        <ele>53.0</ele>
        <time>2019-06-09T11:48:17+02:00</time>
      </trkpt>
      <trkpt lat="41.70801834" lon="2.0094900000000004">
        <ele>53.0</ele>
        <time>2019-06-09T11:48:20+02:00</time>
      </trkpt>
      <trkpt lat="41.70797" lon="2.009511">
        <ele>54.0</ele>
        <time>2019-06-09T11:48:22+02:00</time>
      </trkpt>
      <trkpt lat="41.70791333999999" lon="2.00953634">
        <ele>54.0</ele>
        <time>2019-06-09T11:48:24+02:00</time>
      </trkpt>
      <trkpt lat="41.70786" lon="2.009561">
        <ele>55.0</ele>
        <time>2019-06-09T11:48:26+02:00</time>
      </trkpt>
      <trkpt lat="41.70781334" lon="2.0095840000000003">
        <ele>55.0</ele>
        <time>2019-06-09T11:48:28+02:00</time>
      </trkpt>
      <trkpt lat="41.70776334" lon="2.0096096700000006">
        <ele>55.0</ele>
        <time>2019-06-09T11:48:30+02:00</time>
      </trkpt>
      <trkpt lat="41.70772" lon="2.009637">
        <ele>56.0</ele>
        <time>2019-06-09T11:48:32+02:00</time>
      </trkpt>
      <trkpt lat="41.707679999999996" lon="2.00966534">
        <ele>56.0</ele>
        <time>2019-06-09T11:48:34+02:00</time>
      </trkpt>
      <trkpt lat="41.707645" lon="2.00969567">
        <ele>56.0</ele>
        <time>2019-06-09T11:48:36+02:00</time>
      </trkpt>
      <trkpt lat="41.70761667000001" lon="2.009785">
        <ele>56.0</ele>
        <time>2019-06-09T11:48:38+02:00</time>
      </trkpt>
      <trkpt lat="41.70761" lon="2.00984834">
        <ele>56.0</ele>
        <time>2019-06-09T11:48:40+02:00</time>
      </trkpt>
      <trkpt lat="41.70762833999999" lon="2.0099333399999995">
        <ele>57.0</ele>
        <time>2019-06-09T11:48:43+02:00</time>
      </trkpt>
      <trkpt lat="41.707654999999995" lon="2.0099849999999995">
        <ele>57.0</ele>
        <time>2019-06-09T11:48:45+02:00</time>
      </trkpt>
      <trkpt lat="41.70769334" lon="2.01004834">
        <ele>58.0</ele>
        <time>2019-06-09T11:48:47+02:00</time>
      </trkpt>
      <trkpt lat="41.70773333999999" lon="2.0101083399999995">
        <ele>59.0</ele>
        <time>2019-06-09T11:48:50+02:00</time>
      </trkpt>
      <trkpt lat="41.707775000000005" lon="2.0101733399999997">
        <ele>59.0</ele>
        <time>2019-06-09T11:48:53+02:00</time>
      </trkpt>
      <trkpt lat="41.707813" lon="2.0102333399999996">
        <ele>60.0</ele>
        <time>2019-06-09T11:48:56+02:00</time>
      </trkpt>
      <trkpt lat="41.70785434" lon="2.01029834">
        <ele>61.0</ele>
        <time>2019-06-09T11:48:59+02:00</time>
      </trkpt>
      <trkpt lat="41.70788567000001" lon="2.01036">
        <ele>61.0</ele>
        <time>2019-06-09T11:49:02+02:00</time>
      </trkpt>
      <trkpt lat="41.70792034" lon="2.01043834">
        <ele>61.0</ele>
        <time>2019-06-09T11:49:05+02:00</time>
      </trkpt>
      <trkpt lat="41.70794567" lon="2.0105150000000003">
        <ele>61.0</ele>
        <time>2019-06-09T11:49:08+02:00</time>
      </trkpt>
      <trkpt lat="41.70796467" lon="2.0105816699999997">
        <ele>61.0</ele>
        <time>2019-06-09T11:49:11+02:00</time>
      </trkpt>
      <trkpt lat="41.70798767" lon="2.01066334">
        <ele>60.0</ele>
        <time>2019-06-09T11:49:14+02:00</time>
      </trkpt>
      <trkpt lat="41.70800766999999" lon="2.01074167">
        <ele>59.0</ele>
        <time>2019-06-09T11:49:17+02:00</time>
      </trkpt>
      <trkpt lat="41.708025670000005" lon="2.0108183399999997">
        <ele>58.0</ele>
        <time>2019-06-09T11:49:20+02:00</time>
      </trkpt>
      <trkpt lat="41.708043669999995" lon="2.01089834">
        <ele>57.0</ele>
        <time>2019-06-09T11:49:23+02:00</time>
      </trkpt>
      <trkpt lat="41.70805634" lon="2.0109766700000002">
        <ele>56.0</ele>
        <time>2019-06-09T11:49:26+02:00</time>
      </trkpt>
      <trkpt lat="41.70806567000001" lon="2.011055">
        <ele>55.0</ele>
        <time>2019-06-09T11:49:29+02:00</time>
      </trkpt>
      <trkpt lat="41.708068000000004" lon="2.01113">
        <ele>54.0</ele>
        <time>2019-06-09T11:49:32+02:00</time>
      </trkpt>
      <trkpt lat="41.708065000000005" lon="2.0112083399999996">
        <ele>53.0</ele>
        <time>2019-06-09T11:49:35+02:00</time>
      </trkpt>
      <trkpt lat="41.70805899999999" lon="2.0112933399999995">
        <ele>52.0</ele>
        <time>2019-06-09T11:49:38+02:00</time>
      </trkpt>
      <trkpt lat="41.708048" lon="2.01137167">
        <ele>51.0</ele>
        <time>2019-06-09T11:49:41+02:00</time>
      </trkpt>
      <trkpt lat="41.70803600000001" lon="2.01143167">
        <ele>50.0</ele>
        <time>2019-06-09T11:49:43+02:00</time>
      </trkpt>
      <trkpt lat="41.70801767" lon="2.01150667">
        <ele>49.0</ele>
        <time>2019-06-09T11:49:46+02:00</time>
      </trkpt>
      <trkpt lat="41.70800033999999" lon="2.0115600000000002">
        <ele>49.0</ele>
        <time>2019-06-09T11:49:48+02:00</time>
      </trkpt>
      <trkpt lat="41.707978999999995" lon="2.0116349999999996">
        <ele>48.0</ele>
        <time>2019-06-09T11:49:51+02:00</time>
      </trkpt>
      <trkpt lat="41.707958" lon="2.0117166699999998">
        <ele>48.0</ele>
        <time>2019-06-09T11:49:54+02:00</time>
      </trkpt>
      <trkpt lat="41.707934339999994" lon="2.0117933399999997">
        <ele>47.0</ele>
        <time>2019-06-09T11:49:57+02:00</time>
      </trkpt>
      <trkpt lat="41.707912670000006" lon="2.01188334">
        <ele>47.0</ele>
        <time>2019-06-09T11:50:00+02:00</time>
      </trkpt>
      <trkpt lat="41.707896670000004" lon="2.011965">
        <ele>47.0</ele>
        <time>2019-06-09T11:50:03+02:00</time>
      </trkpt>
      <trkpt lat="41.70788033999999" lon="2.01206167">
        <ele>47.0</ele>
        <time>2019-06-09T11:50:06+02:00</time>
      </trkpt>
      <trkpt lat="41.70786767" lon="2.01215">
        <ele>47.0</ele>
        <time>2019-06-09T11:50:09+02:00</time>
      </trkpt>
      <trkpt lat="41.70785967" lon="2.01221667">
        <ele>47.0</ele>
        <time>2019-06-09T11:50:11+02:00</time>
      </trkpt>
      <trkpt lat="41.70785634" lon="2.01230334">
        <ele>47.0</ele>
        <time>2019-06-09T11:50:14+02:00</time>
      </trkpt>
      <trkpt lat="41.70784834" lon="2.01239">
        <ele>47.0</ele>
        <time>2019-06-09T11:50:17+02:00</time>
      </trkpt>
      <trkpt lat="41.70785134" lon="2.01246667">
        <ele>47.0</ele>
        <time>2019-06-09T11:50:20+02:00</time>
      </trkpt>
      <trkpt lat="41.70784999999999" lon="2.012525">
        <ele>47.0</ele>
        <time>2019-06-09T11:50:22+02:00</time>
      </trkpt>
      <trkpt lat="41.70785434" lon="2.01258667">
        <ele>47.0</ele>
        <time>2019-06-09T11:50:24+02:00</time>
      </trkpt>
      <trkpt lat="41.707859" lon="2.0126483399999997">
        <ele>47.0</ele>
        <time>2019-06-09T11:50:26+02:00</time>
      </trkpt>
      <trkpt lat="41.70785867000001" lon="2.0127083399999997">
        <ele>47.0</ele>
        <time>2019-06-09T11:50:28+02:00</time>
      </trkpt>
      <trkpt lat="41.70786367000001" lon="2.012795">
        <ele>47.0</ele>
        <time>2019-06-09T11:50:31+02:00</time>
      </trkpt>
      <trkpt lat="41.70787" lon="2.01286667">
        <ele>47.0</ele>
        <time>2019-06-09T11:50:33+02:00</time>
      </trkpt>
      <trkpt lat="41.70787567000001" lon="2.01296">
        <ele>46.0</ele>
        <time>2019-06-09T11:50:36+02:00</time>
      </trkpt>
      <trkpt lat="41.707882" lon="2.0130316699999997">
        <ele>46.0</ele>
        <time>2019-06-09T11:50:38+02:00</time>
      </trkpt>
      <trkpt lat="41.70788234" lon="2.01308834">
        <ele>46.0</ele>
        <time>2019-06-09T11:50:40+02:00</time>
      </trkpt>
      <trkpt lat="41.70788834" lon="2.01315">
        <ele>46.0</ele>
        <time>2019-06-09T11:50:42+02:00</time>
      </trkpt>
      <trkpt lat="41.70785834" lon="2.01321667">
        <ele>46.0</ele>
        <time>2019-06-09T11:50:45+02:00</time>
      </trkpt>
      <trkpt lat="41.70783333999999" lon="2.013275">
        <ele>46.0</ele>
        <time>2019-06-09T11:50:47+02:00</time>
      </trkpt>
      <trkpt lat="41.707812" lon="2.0133583399999995">
        <ele>46.0</ele>
        <time>2019-06-09T11:50:50+02:00</time>
      </trkpt>
      <trkpt lat="41.70781" lon="2.01343667">
        <ele>47.0</ele>
        <time>2019-06-09T11:50:53+02:00</time>
      </trkpt>
      <trkpt lat="41.70784334" lon="2.0135250000000005">
        <ele>47.0</ele>
        <time>2019-06-09T11:50:56+02:00</time>
      </trkpt>
      <trkpt lat="41.70787334" lon="2.0135733399999998">
        <ele>47.0</ele>
        <time>2019-06-09T11:50:58+02:00</time>
      </trkpt>
      <trkpt lat="41.70791333999999" lon="2.0136150000000006">
        <ele>47.0</ele>
        <time>2019-06-09T11:51:00+02:00</time>
      </trkpt>
      <trkpt lat="41.707953339999996" lon="2.01365334">
        <ele>47.0</ele>
        <time>2019-06-09T11:51:02+02:00</time>
      </trkpt>
      <trkpt lat="41.708000000000006" lon="2.01368667">
        <ele>47.0</ele>
        <time>2019-06-09T11:51:04+02:00</time>
      </trkpt>
      <trkpt lat="41.708045000000006" lon="2.01373167">
        <ele>47.0</ele>
        <time>2019-06-09T11:51:06+02:00</time>
      </trkpt>
      <trkpt lat="41.708085" lon="2.0137896700000004">
        <ele>47.0</ele>
        <time>2019-06-09T11:51:08+02:00</time>
      </trkpt>
      <trkpt lat="41.70811167" lon="2.01384667">
        <ele>47.0</ele>
        <time>2019-06-09T11:51:10+02:00</time>
      </trkpt>
      <trkpt lat="41.708128339999995" lon="2.0139216699999998">
        <ele>47.0</ele>
        <time>2019-06-09T11:51:12+02:00</time>
      </trkpt>
      <trkpt lat="41.70813334" lon="2.01399334">
        <ele>47.0</ele>
        <time>2019-06-09T11:51:14+02:00</time>
      </trkpt>
      <trkpt lat="41.70813334" lon="2.01405667">
        <ele>48.0</ele>
        <time>2019-06-09T11:51:16+02:00</time>
      </trkpt>
      <trkpt lat="41.708138" lon="2.0141349999999996">
        <ele>48.0</ele>
        <time>2019-06-09T11:51:18+02:00</time>
      </trkpt>
      <trkpt lat="41.70813867" lon="2.0142333399999997">
        <ele>49.0</ele>
        <time>2019-06-09T11:51:21+02:00</time>
      </trkpt>
      <trkpt lat="41.708142669999994" lon="2.01432334">
        <ele>51.0</ele>
        <time>2019-06-09T11:51:24+02:00</time>
      </trkpt>
      <trkpt lat="41.708146" lon="2.0144016700000003">
        <ele>52.0</ele>
        <time>2019-06-09T11:51:27+02:00</time>
      </trkpt>
      <trkpt lat="41.70814700000001" lon="2.0144650000000004">
        <ele>53.0</ele>
        <time>2019-06-09T11:51:29+02:00</time>
      </trkpt>
      <trkpt lat="41.708148339999994" lon="2.01455">
        <ele>54.0</ele>
        <time>2019-06-09T11:51:32+02:00</time>
      </trkpt>
      <trkpt lat="41.708152" lon="2.01463167">
        <ele>54.0</ele>
        <time>2019-06-09T11:51:35+02:00</time>
      </trkpt>
      <trkpt lat="41.70818667" lon="2.01470667">
        <ele>55.0</ele>
        <time>2019-06-09T11:51:38+02:00</time>
      </trkpt>
      <trkpt lat="41.70822833999999" lon="2.0147666699999993">
        <ele>55.0</ele>
        <time>2019-06-09T11:51:41+02:00</time>
      </trkpt>
      <trkpt lat="41.708263339999995" lon="2.014805">
        <ele>55.0</ele>
        <time>2019-06-09T11:51:43+02:00</time>
      </trkpt>
      <trkpt lat="41.70831667" lon="2.0148650000000004">
        <ele>55.0</ele>
        <time>2019-06-09T11:51:46+02:00</time>
      </trkpt>
      <trkpt lat="41.708361339999996" lon="2.0149216699999997">
        <ele>55.0</ele>
        <time>2019-06-09T11:51:49+02:00</time>
      </trkpt>
      <trkpt lat="41.708411340000005" lon="2.0149916699999997">
        <ele>54.0</ele>
        <time>2019-06-09T11:51:52+02:00</time>
      </trkpt>
      <trkpt lat="41.70845200000001" lon="2.01505167">
        <ele>53.0</ele>
        <time>2019-06-09T11:51:55+02:00</time>
      </trkpt>
      <trkpt lat="41.708482000000004" lon="2.0150966699999997">
        <ele>53.0</ele>
        <time>2019-06-09T11:51:57+02:00</time>
      </trkpt>
      <trkpt lat="41.708513" lon="2.0151466699999996">
        <ele>52.0</ele>
        <time>2019-06-09T11:51:59+02:00</time>
      </trkpt>
      <trkpt lat="41.70855067000001" lon="2.0152116700000002">
        <ele>52.0</ele>
        <time>2019-06-09T11:52:02+02:00</time>
      </trkpt>
      <trkpt lat="41.70858634" lon="2.01528167">
        <ele>51.0</ele>
        <time>2019-06-09T11:52:05+02:00</time>
      </trkpt>
      <trkpt lat="41.70861734" lon="2.01536167">
        <ele>50.0</ele>
        <time>2019-06-09T11:52:08+02:00</time>
      </trkpt>
      <trkpt lat="41.70863467" lon="2.01543167">
        <ele>50.0</ele>
        <time>2019-06-09T11:52:11+02:00</time>
      </trkpt>
      <trkpt lat="41.70864966999999" lon="2.01551834">
        <ele>49.0</ele>
        <time>2019-06-09T11:52:14+02:00</time>
      </trkpt>
      <trkpt lat="41.708569999999995" lon="2.0155950000000002">
        <ele>48.0</ele>
        <time>2019-06-09T11:52:17+02:00</time>
      </trkpt>
      <trkpt lat="41.708555" lon="2.0156549999999998">
        <ele>46.0</ele>
        <time>2019-06-09T11:52:19+02:00</time>
      </trkpt>
      <trkpt lat="41.70852334" lon="2.01571334">
        <ele>45.0</ele>
        <time>2019-06-09T11:52:22+02:00</time>
      </trkpt>
      <trkpt lat="41.708475" lon="2.015765">
        <ele>43.0</ele>
        <time>2019-06-09T11:52:25+02:00</time>
      </trkpt>
      <trkpt lat="41.708418339999994" lon="2.0157916699999996">
        <ele>42.0</ele>
        <time>2019-06-09T11:52:28+02:00</time>
      </trkpt>
      <trkpt lat="41.708373339999994" lon="2.0158049999999994">
        <ele>41.0</ele>
        <time>2019-06-09T11:52:30+02:00</time>
      </trkpt>
      <trkpt lat="41.70830667" lon="2.0158033399999997">
        <ele>41.0</ele>
        <time>2019-06-09T11:52:33+02:00</time>
      </trkpt>
      <trkpt lat="41.70825834" lon="2.01580167">
        <ele>41.0</ele>
        <time>2019-06-09T11:52:35+02:00</time>
      </trkpt>
      <trkpt lat="41.708205" lon="2.01578667">
        <ele>40.0</ele>
        <time>2019-06-09T11:52:38+02:00</time>
      </trkpt>
      <trkpt lat="41.70815167000001" lon="2.01577667">
        <ele>40.0</ele>
        <time>2019-06-09T11:52:40+02:00</time>
      </trkpt>
      <trkpt lat="41.70810666999999" lon="2.01576834">
        <ele>40.0</ele>
        <time>2019-06-09T11:52:42+02:00</time>
      </trkpt>
      <trkpt lat="41.708055" lon="2.0157643399999996">
        <ele>40.0</ele>
        <time>2019-06-09T11:52:44+02:00</time>
      </trkpt>
      <trkpt lat="41.707996670000014" lon="2.015762">
        <ele>40.0</ele>
        <time>2019-06-09T11:52:47+02:00</time>
      </trkpt>
      <trkpt lat="41.70793834" lon="2.015761">
        <ele>40.0</ele>
        <time>2019-06-09T11:52:50+02:00</time>
      </trkpt>
      <trkpt lat="41.707885" lon="2.0157633400000003">
        <ele>40.0</ele>
        <time>2019-06-09T11:52:53+02:00</time>
      </trkpt>
      <trkpt lat="41.70782167" lon="2.0157670000000003">
        <ele>40.0</ele>
        <time>2019-06-09T11:52:56+02:00</time>
      </trkpt>
      <trkpt lat="41.707775000000005" lon="2.0157646700000003">
        <ele>39.0</ele>
        <time>2019-06-09T11:52:58+02:00</time>
      </trkpt>
      <trkpt lat="41.70772667" lon="2.01575934">
        <ele>39.0</ele>
        <time>2019-06-09T11:53:00+02:00</time>
      </trkpt>
      <trkpt lat="41.70766667000001" lon="2.0157466699999995">
        <ele>39.0</ele>
        <time>2019-06-09T11:53:02+02:00</time>
      </trkpt>
      <trkpt lat="41.707620000000006" lon="2.0157333399999997">
        <ele>39.0</ele>
        <time>2019-06-09T11:53:04+02:00</time>
      </trkpt>
      <trkpt lat="41.707575" lon="2.015719">
        <ele>39.0</ele>
        <time>2019-06-09T11:53:06+02:00</time>
      </trkpt>
      <trkpt lat="41.70751334" lon="2.01570267">
        <ele>39.0</ele>
        <time>2019-06-09T11:53:09+02:00</time>
      </trkpt>
      <trkpt lat="41.70745167" lon="2.01568634">
        <ele>39.0</ele>
        <time>2019-06-09T11:53:12+02:00</time>
      </trkpt>
      <trkpt lat="41.707405" lon="2.015677">
        <ele>39.0</ele>
        <time>2019-06-09T11:53:14+02:00</time>
      </trkpt>
      <trkpt lat="41.70734" lon="2.01566734">
        <ele>39.0</ele>
        <time>2019-06-09T11:53:17+02:00</time>
      </trkpt>
      <trkpt lat="41.707291670000004" lon="2.0156620000000003">
        <ele>39.0</ele>
        <time>2019-06-09T11:53:19+02:00</time>
      </trkpt>
      <trkpt lat="41.70724667" lon="2.0156583399999994">
        <ele>39.0</ele>
        <time>2019-06-09T11:53:21+02:00</time>
      </trkpt>
      <trkpt lat="41.70719834" lon="2.01565667">
        <ele>39.0</ele>
        <time>2019-06-09T11:53:23+02:00</time>
      </trkpt>
      <trkpt lat="41.70713667" lon="2.015654">
        <ele>39.0</ele>
        <time>2019-06-09T11:53:26+02:00</time>
      </trkpt>
      <trkpt lat="41.70707833999999" lon="2.01565534">
        <ele>39.0</ele>
        <time>2019-06-09T11:53:29+02:00</time>
      </trkpt>
      <trkpt lat="41.70702333999999" lon="2.015661">
        <ele>39.0</ele>
        <time>2019-06-09T11:53:32+02:00</time>
      </trkpt>
      <trkpt lat="41.706965000000004" lon="2.01566534">
        <ele>39.0</ele>
        <time>2019-06-09T11:53:35+02:00</time>
      </trkpt>
      <trkpt lat="41.706900000000005" lon="2.015673">
        <ele>39.0</ele>
        <time>2019-06-09T11:53:38+02:00</time>
      </trkpt>
      <trkpt lat="41.70684167000001" lon="2.0156799999999997">
        <ele>40.0</ele>
        <time>2019-06-09T11:53:41+02:00</time>
      </trkpt>
      <trkpt lat="41.70678667" lon="2.01569134">
        <ele>40.0</ele>
        <time>2019-06-09T11:53:44+02:00</time>
      </trkpt>
      <trkpt lat="41.706731669999996" lon="2.0157006699999998">
        <ele>40.0</ele>
        <time>2019-06-09T11:53:47+02:00</time>
      </trkpt>
      <trkpt lat="41.706678339999996" lon="2.015711">
        <ele>40.0</ele>
        <time>2019-06-09T11:53:50+02:00</time>
      </trkpt>
      <trkpt lat="41.706625" lon="2.0157220000000002">
        <ele>39.0</ele>
        <time>2019-06-09T11:53:53+02:00</time>
      </trkpt>
      <trkpt lat="41.70655834" lon="2.01573">
        <ele>39.0</ele>
        <time>2019-06-09T11:53:56+02:00</time>
      </trkpt>
      <trkpt lat="41.706495000000004" lon="2.015736">
        <ele>38.0</ele>
        <time>2019-06-09T11:53:59+02:00</time>
      </trkpt>
      <trkpt lat="41.706433340000004" lon="2.0157499999999997">
        <ele>37.0</ele>
        <time>2019-06-09T11:54:02+02:00</time>
      </trkpt>
      <trkpt lat="41.70637833999999" lon="2.01576967">
        <ele>37.0</ele>
        <time>2019-06-09T11:54:05+02:00</time>
      </trkpt>
      <trkpt lat="41.706329999999994" lon="2.0159416699999997">
        <ele>36.0</ele>
        <time>2019-06-09T11:54:08+02:00</time>
      </trkpt>
      <trkpt lat="41.706291670000006" lon="2.01598967">
        <ele>35.0</ele>
        <time>2019-06-09T11:54:10+02:00</time>
      </trkpt>
      <trkpt lat="41.70625667" lon="2.016036">
        <ele>34.0</ele>
        <time>2019-06-09T11:54:12+02:00</time>
      </trkpt>
      <trkpt lat="41.70621" lon="2.0160976699999997">
        <ele>34.0</ele>
        <time>2019-06-09T11:54:15+02:00</time>
      </trkpt>
      <trkpt lat="41.70617334" lon="2.0161510000000002">
        <ele>32.0</ele>
        <time>2019-06-09T11:54:18+02:00</time>
      </trkpt>
      <trkpt lat="41.70613999999999" lon="2.0161956699999997">
        <ele>31.0</ele>
        <time>2019-06-09T11:54:20+02:00</time>
      </trkpt>
      <trkpt lat="41.70610167000001" lon="2.01624667">
        <ele>31.0</ele>
        <time>2019-06-09T11:54:22+02:00</time>
      </trkpt>
      <trkpt lat="41.70606334" lon="2.0162956700000003">
        <ele>30.0</ele>
        <time>2019-06-09T11:54:25+02:00</time>
      </trkpt>
      <trkpt lat="41.706025" lon="2.0163566699999995">
        <ele>29.0</ele>
        <time>2019-06-09T11:54:28+02:00</time>
      </trkpt>
      <trkpt lat="41.70598334" lon="2.0164016699999996">
        <ele>28.0</ele>
        <time>2019-06-09T11:54:30+02:00</time>
      </trkpt>
      <trkpt lat="41.70594333999999" lon="2.01644967">
        <ele>28.0</ele>
        <time>2019-06-09T11:54:32+02:00</time>
      </trkpt>
      <trkpt lat="41.705905" lon="2.016488">
        <ele>28.0</ele>
        <time>2019-06-09T11:54:34+02:00</time>
      </trkpt>
      <trkpt lat="41.705865" lon="2.01652667">
        <ele>28.0</ele>
        <time>2019-06-09T11:54:36+02:00</time>
      </trkpt>
      <trkpt lat="41.705823339999995" lon="2.01656567">
        <ele>28.0</ele>
        <time>2019-06-09T11:54:38+02:00</time>
      </trkpt>
      <trkpt lat="41.70577999999999" lon="2.0166060000000003">
        <ele>28.0</ele>
        <time>2019-06-09T11:54:40+02:00</time>
      </trkpt>
      <trkpt lat="41.705731670000006" lon="2.016646">
        <ele>28.0</ele>
        <time>2019-06-09T11:54:42+02:00</time>
      </trkpt>
      <trkpt lat="41.705690000000004" lon="2.016679">
        <ele>28.0</ele>
        <time>2019-06-09T11:54:44+02:00</time>
      </trkpt>
      <trkpt lat="41.705641670000006" lon="2.01671534">
        <ele>28.0</ele>
        <time>2019-06-09T11:54:46+02:00</time>
      </trkpt>
      <trkpt lat="41.70559" lon="2.01675134">
        <ele>28.0</ele>
        <time>2019-06-09T11:54:48+02:00</time>
      </trkpt>
      <trkpt lat="41.70554334" lon="2.01677967">
        <ele>28.0</ele>
        <time>2019-06-09T11:54:50+02:00</time>
      </trkpt>
      <trkpt lat="41.70547667000001" lon="2.01681367">
        <ele>29.0</ele>
        <time>2019-06-09T11:54:53+02:00</time>
      </trkpt>
      <trkpt lat="41.705418339999994" lon="2.01677">
        <ele>29.0</ele>
        <time>2019-06-09T11:54:55+02:00</time>
      </trkpt>
      <trkpt lat="41.705365" lon="2.01674667">
        <ele>30.0</ele>
        <time>2019-06-09T11:54:57+02:00</time>
      </trkpt>
      <trkpt lat="41.705324999999995" lon="2.01671334">
        <ele>31.0</ele>
        <time>2019-06-09T11:54:59+02:00</time>
      </trkpt>
      <trkpt lat="41.705288339999996" lon="2.01667667">
        <ele>31.0</ele>
        <time>2019-06-09T11:55:01+02:00</time>
      </trkpt>
      <trkpt lat="41.70524667000001" lon="2.0166316699999998">
        <ele>32.0</ele>
        <time>2019-06-09T11:55:03+02:00</time>
      </trkpt>
      <trkpt lat="41.70520333999999" lon="2.01655667">
        <ele>33.0</ele>
        <time>2019-06-09T11:55:06+02:00</time>
      </trkpt>
      <trkpt lat="41.705169999999995" lon="2.0164983399999996">
        <ele>34.0</ele>
        <time>2019-06-09T11:55:08+02:00</time>
      </trkpt>
      <trkpt lat="41.70514167" lon="2.0164383399999997">
        <ele>35.0</ele>
        <time>2019-06-09T11:55:10+02:00</time>
      </trkpt>
      <trkpt lat="41.705110000000005" lon="2.01638">
        <ele>36.0</ele>
        <time>2019-06-09T11:55:12+02:00</time>
      </trkpt>
      <trkpt lat="41.705079669999996" lon="2.01632167">
        <ele>36.0</ele>
        <time>2019-06-09T11:55:14+02:00</time>
      </trkpt>
      <trkpt lat="41.70504834" lon="2.01626834">
        <ele>37.0</ele>
        <time>2019-06-09T11:55:16+02:00</time>
      </trkpt>
      <trkpt lat="41.70501567000001" lon="2.0162150000000003">
        <ele>37.0</ele>
        <time>2019-06-09T11:55:18+02:00</time>
      </trkpt>
      <trkpt lat="41.70498267" lon="2.016165">
        <ele>37.0</ele>
        <time>2019-06-09T11:55:20+02:00</time>
      </trkpt>
      <trkpt lat="41.704947999999995" lon="2.01612">
        <ele>38.0</ele>
        <time>2019-06-09T11:55:22+02:00</time>
      </trkpt>
      <trkpt lat="41.70491367000001" lon="2.01607667">
        <ele>38.0</ele>
        <time>2019-06-09T11:55:24+02:00</time>
      </trkpt>
      <trkpt lat="41.70485667" lon="2.016025">
        <ele>38.0</ele>
        <time>2019-06-09T11:55:27+02:00</time>
      </trkpt>
      <trkpt lat="41.704800000000006" lon="2.0159849999999997">
        <ele>39.0</ele>
        <time>2019-06-09T11:55:30+02:00</time>
      </trkpt>
      <trkpt lat="41.70475499999999" lon="2.0159599999999998">
        <ele>39.0</ele>
        <time>2019-06-09T11:55:32+02:00</time>
      </trkpt>
      <trkpt lat="41.704705000000004" lon="2.0159316699999996">
        <ele>39.0</ele>
        <time>2019-06-09T11:55:34+02:00</time>
      </trkpt>
      <trkpt lat="41.70465333999999" lon="2.0159056699999995">
        <ele>39.0</ele>
        <time>2019-06-09T11:55:36+02:00</time>
      </trkpt>
      <trkpt lat="41.70461" lon="2.01588234">
        <ele>39.0</ele>
        <time>2019-06-09T11:55:38+02:00</time>
      </trkpt>
      <trkpt lat="41.704561670000004" lon="2.01585967">
        <ele>39.0</ele>
        <time>2019-06-09T11:55:40+02:00</time>
      </trkpt>
      <trkpt lat="41.704508340000004" lon="2.0158413399999997">
        <ele>39.0</ele>
        <time>2019-06-09T11:55:42+02:00</time>
      </trkpt>
      <trkpt lat="41.704463340000004" lon="2.01583167">
        <ele>39.0</ele>
        <time>2019-06-09T11:55:44+02:00</time>
      </trkpt>
      <trkpt lat="41.704415" lon="2.0158733399999997">
        <ele>39.0</ele>
        <time>2019-06-09T11:55:46+02:00</time>
      </trkpt>
      <trkpt lat="41.70435834" lon="2.01593">
        <ele>39.0</ele>
        <time>2019-06-09T11:55:49+02:00</time>
      </trkpt>
      <trkpt lat="41.70432333999999" lon="2.01597167">
        <ele>39.0</ele>
        <time>2019-06-09T11:55:51+02:00</time>
      </trkpt>
      <trkpt lat="41.70428334" lon="2.016025">
        <ele>38.0</ele>
        <time>2019-06-09T11:55:54+02:00</time>
      </trkpt>
      <trkpt lat="41.70424000000001" lon="2.016095">
        <ele>36.0</ele>
        <time>2019-06-09T11:55:57+02:00</time>
      </trkpt>
      <trkpt lat="41.704206670000005" lon="2.0161506699999996">
        <ele>35.0</ele>
        <time>2019-06-09T11:55:59+02:00</time>
      </trkpt>
      <trkpt lat="41.704176669999995" lon="2.0162166699999995">
        <ele>34.0</ele>
        <time>2019-06-09T11:56:02+02:00</time>
      </trkpt>
      <trkpt lat="41.704155" lon="2.01627667">
        <ele>32.0</ele>
        <time>2019-06-09T11:56:04+02:00</time>
      </trkpt>
      <trkpt lat="41.70414333999999" lon="2.0163450000000003">
        <ele>31.0</ele>
        <time>2019-06-09T11:56:06+02:00</time>
      </trkpt>
      <trkpt lat="41.70414834" lon="2.01640667">
        <ele>30.0</ele>
        <time>2019-06-09T11:56:08+02:00</time>
      </trkpt>
      <trkpt lat="41.704145000000004" lon="2.0164766700000003">
        <ele>29.0</ele>
        <time>2019-06-09T11:56:10+02:00</time>
      </trkpt>
      <trkpt lat="41.704145000000004" lon="2.016545">
        <ele>28.0</ele>
        <time>2019-06-09T11:56:12+02:00</time>
      </trkpt>
      <trkpt lat="41.704146" lon="2.01660667">
        <ele>27.0</ele>
        <time>2019-06-09T11:56:14+02:00</time>
      </trkpt>
      <trkpt lat="41.70414633999999" lon="2.01667">
        <ele>26.0</ele>
        <time>2019-06-09T11:56:16+02:00</time>
      </trkpt>
      <trkpt lat="41.70415167000001" lon="2.0167366699999993">
        <ele>25.0</ele>
        <time>2019-06-09T11:56:18+02:00</time>
      </trkpt>
      <trkpt lat="41.70415934" lon="2.0168033399999996">
        <ele>24.0</ele>
        <time>2019-06-09T11:56:20+02:00</time>
      </trkpt>
      <trkpt lat="41.70417267" lon="2.0168633399999996">
        <ele>23.0</ele>
        <time>2019-06-09T11:56:22+02:00</time>
      </trkpt>
      <trkpt lat="41.70421" lon="2.0169183399999997">
        <ele>22.0</ele>
        <time>2019-06-09T11:56:24+02:00</time>
      </trkpt>
      <trkpt lat="41.704235" lon="2.0169833399999995">
        <ele>21.0</ele>
        <time>2019-06-09T11:56:26+02:00</time>
      </trkpt>
      <trkpt lat="41.704256" lon="2.01703667">
        <ele>20.0</ele>
        <time>2019-06-09T11:56:28+02:00</time>
      </trkpt>
      <trkpt lat="41.70427834" lon="2.0170933399999997">
        <ele>19.0</ele>
        <time>2019-06-09T11:56:30+02:00</time>
      </trkpt>
      <trkpt lat="41.704297669999995" lon="2.0171533399999992">
        <ele>19.0</ele>
        <time>2019-06-09T11:56:32+02:00</time>
      </trkpt>
      <trkpt lat="41.704312" lon="2.017215">
        <ele>18.0</ele>
        <time>2019-06-09T11:56:34+02:00</time>
      </trkpt>
      <trkpt lat="41.704321670000006" lon="2.017275">
        <ele>17.0</ele>
        <time>2019-06-09T11:56:36+02:00</time>
      </trkpt>
      <trkpt lat="41.70432734" lon="2.01736334">
        <ele>15.0</ele>
        <time>2019-06-09T11:56:39+02:00</time>
      </trkpt>
      <trkpt lat="41.70428167" lon="2.01741834">
        <ele>14.0</ele>
        <time>2019-06-09T11:56:41+02:00</time>
      </trkpt>
      <trkpt lat="41.704243340000005" lon="2.01745667">
        <ele>13.0</ele>
        <time>2019-06-09T11:56:43+02:00</time>
      </trkpt>
      <trkpt lat="41.70419833999999" lon="2.0174783399999994">
        <ele>13.0</ele>
        <time>2019-06-09T11:56:45+02:00</time>
      </trkpt>
      <trkpt lat="41.704139999999995" lon="2.01750834">
        <ele>12.0</ele>
        <time>2019-06-09T11:56:48+02:00</time>
      </trkpt>
      <trkpt lat="41.704105" lon="2.01755467">
        <ele>11.0</ele>
        <time>2019-06-09T11:56:50+02:00</time>
      </trkpt>
      <trkpt lat="41.704081669999994" lon="2.0176013399999997">
        <ele>11.0</ele>
        <time>2019-06-09T11:56:52+02:00</time>
      </trkpt>
      <trkpt lat="41.70406833999999" lon="2.0176683399999993">
        <ele>9.0</ele>
        <time>2019-06-09T11:56:54+02:00</time>
      </trkpt>
      <trkpt lat="41.704078339999995" lon="2.0177349999999996">
        <ele>9.0</ele>
        <time>2019-06-09T11:56:56+02:00</time>
      </trkpt>
      <trkpt lat="41.70409000000001" lon="2.0178083399999998">
        <ele>8.0</ele>
        <time>2019-06-09T11:56:58+02:00</time>
      </trkpt>
      <trkpt lat="41.704103339999996" lon="2.01788">
        <ele>7.0</ele>
        <time>2019-06-09T11:57:00+02:00</time>
      </trkpt>
      <trkpt lat="41.70411333999999" lon="2.01795">
        <ele>7.0</ele>
        <time>2019-06-09T11:57:02+02:00</time>
      </trkpt>
      <trkpt lat="41.704117339999996" lon="2.01801334">
        <ele>6.0</ele>
        <time>2019-06-09T11:57:04+02:00</time>
      </trkpt>
      <trkpt lat="41.704109339999995" lon="2.0180833399999996">
        <ele>5.0</ele>
        <time>2019-06-09T11:57:06+02:00</time>
      </trkpt>
      <trkpt lat="41.704094999999995" lon="2.0181549999999997">
        <ele>5.0</ele>
        <time>2019-06-09T11:57:08+02:00</time>
      </trkpt>
      <trkpt lat="41.70407733999999" lon="2.01822667">
        <ele>5.0</ele>
        <time>2019-06-09T11:57:10+02:00</time>
      </trkpt>
      <trkpt lat="41.70405834" lon="2.0182949999999997">
        <ele>5.0</ele>
        <time>2019-06-09T11:57:12+02:00</time>
      </trkpt>
      <trkpt lat="41.704043" lon="2.0183533399999996">
        <ele>5.0</ele>
        <time>2019-06-09T11:57:14+02:00</time>
      </trkpt>
      <trkpt lat="41.704023670000005" lon="2.0184">
        <ele>4.0</ele>
        <time>2019-06-09T11:57:15+02:00</time>
      </trkpt>
      <trkpt lat="41.703961670000005" lon="2.01844">
        <ele>3.0</ele>
        <time>2019-06-09T11:57:17+02:00</time>
      </trkpt>
      <trkpt lat="41.70391834" lon="2.0184716699999994">
        <ele>3.0</ele>
        <time>2019-06-09T11:57:19+02:00</time>
      </trkpt>
      <trkpt lat="41.70387334" lon="2.0184966699999998">
        <ele>3.0</ele>
        <time>2019-06-09T11:57:21+02:00</time>
      </trkpt>
      <trkpt lat="41.70382334" lon="2.0185083399999995">
        <ele>3.0</ele>
        <time>2019-06-09T11:57:23+02:00</time>
      </trkpt>
      <trkpt lat="41.70377167" lon="2.0185250000000003">
        <ele>2.0</ele>
        <time>2019-06-09T11:57:25+02:00</time>
      </trkpt>
      <trkpt lat="41.703720000000004" lon="2.01853634">
        <ele>2.0</ele>
        <time>2019-06-09T11:57:27+02:00</time>
      </trkpt>
      <trkpt lat="41.703671670000006" lon="2.0185489999999997">
        <ele>2.0</ele>
        <time>2019-06-09T11:57:29+02:00</time>
      </trkpt>
      <trkpt lat="41.70361" lon="2.0185610000000005">
        <ele>2.0</ele>
        <time>2019-06-09T11:57:32+02:00</time>
      </trkpt>
      <trkpt lat="41.703559999999996" lon="2.0185660000000003">
        <ele>2.0</ele>
        <time>2019-06-09T11:57:34+02:00</time>
      </trkpt>
      <trkpt lat="41.70351334" lon="2.01856567">
        <ele>1.0</ele>
        <time>2019-06-09T11:57:36+02:00</time>
      </trkpt>
      <trkpt lat="41.70345999999999" lon="2.01856534">
        <ele>1.0</ele>
        <time>2019-06-09T11:57:38+02:00</time>
      </trkpt>
      <trkpt lat="41.70340834" lon="2.0185613399999998">
        <ele>1.0</ele>
        <time>2019-06-09T11:57:40+02:00</time>
      </trkpt>
      <trkpt lat="41.70336166999999" lon="2.0185576699999994">
        <ele>1.0</ele>
        <time>2019-06-09T11:57:42+02:00</time>
      </trkpt>
      <trkpt lat="41.70331667000001" lon="2.0185570000000004">
        <ele>0.0</ele>
        <time>2019-06-09T11:57:44+02:00</time>
      </trkpt>
      <trkpt lat="41.70326167" lon="2.01856334">
        <ele>0.0</ele>
        <time>2019-06-09T11:57:47+02:00</time>
      </trkpt>
      <trkpt lat="41.703223339999994" lon="2.0186483399999995">
        <ele>-1.0</ele>
        <time>2019-06-09T11:57:50+02:00</time>
      </trkpt>
      <trkpt lat="41.703213340000005" lon="2.01870834">
        <ele>-2.0</ele>
        <time>2019-06-09T11:57:52+02:00</time>
      </trkpt>
      <trkpt lat="41.70320834" lon="2.0187716699999996">
        <ele>-2.0</ele>
        <time>2019-06-09T11:57:54+02:00</time>
      </trkpt>
      <trkpt lat="41.703185" lon="2.0188349999999997">
        <ele>-3.0</ele>
        <time>2019-06-09T11:57:56+02:00</time>
      </trkpt>
      <trkpt lat="41.703146339999996" lon="2.0188866699999997">
        <ele>-4.0</ele>
        <time>2019-06-09T11:57:58+02:00</time>
      </trkpt>
      <trkpt lat="41.70310267" lon="2.018925">
        <ele>-5.0</ele>
        <time>2019-06-09T11:58:00+02:00</time>
      </trkpt>
      <trkpt lat="41.703046670000006" lon="2.0189533399999995">
        <ele>-6.0</ele>
        <time>2019-06-09T11:58:02+02:00</time>
      </trkpt>
      <trkpt lat="41.70299334" lon="2.01898">
        <ele>-6.0</ele>
        <time>2019-06-09T11:58:04+02:00</time>
      </trkpt>
      <trkpt lat="41.702943340000004" lon="2.0190113399999996">
        <ele>-8.0</ele>
        <time>2019-06-09T11:58:06+02:00</time>
      </trkpt>
      <trkpt lat="41.702895000000005" lon="2.01904134">
        <ele>-9.0</ele>
        <time>2019-06-09T11:58:08+02:00</time>
      </trkpt>
      <trkpt lat="41.70285667" lon="2.0190760000000005">
        <ele>-9.0</ele>
        <time>2019-06-09T11:58:10+02:00</time>
      </trkpt>
      <trkpt lat="41.70285" lon="2.0191600000000003">
        <ele>-11.0</ele>
        <time>2019-06-09T11:58:13+02:00</time>
      </trkpt>
      <trkpt lat="41.702895000000005" lon="2.01921">
        <ele>-11.0</ele>
        <time>2019-06-09T11:58:15+02:00</time>
      </trkpt>
      <trkpt lat="41.70296167" lon="2.0192333399999995">
        <ele>-11.0</ele>
        <time>2019-06-09T11:58:17+02:00</time>
      </trkpt>
      <trkpt lat="41.70300667" lon="2.019245">
        <ele>-11.0</ele>
        <time>2019-06-09T11:58:18+02:00</time>
      </trkpt>
      <trkpt lat="41.703058340000005" lon="2.0192583399999995">
        <ele>-11.0</ele>
        <time>2019-06-09T11:58:19+02:00</time>
      </trkpt>
      <trkpt lat="41.70311500000001" lon="2.0192716699999997">
        <ele>-11.0</ele>
        <time>2019-06-09T11:58:20+02:00</time>
      </trkpt>
      <trkpt lat="41.70317333999999" lon="2.01928667">
        <ele>-11.0</ele>
        <time>2019-06-09T11:58:21+02:00</time>
      </trkpt>
      <trkpt lat="41.70323500000001" lon="2.0193000000000003">
        <ele>-9.0</ele>
        <time>2019-06-09T11:58:22+02:00</time>
      </trkpt>
      <trkpt lat="41.70329667" lon="2.01931667">
        <ele>-9.0</ele>
        <time>2019-06-09T11:58:23+02:00</time>
      </trkpt>
      <trkpt lat="41.70337334" lon="2.0193446699999997">
        <ele>-8.0</ele>
        <time>2019-06-09T11:58:24+02:00</time>
      </trkpt>
      <trkpt lat="41.70344" lon="2.01937267">
        <ele>-7.0</ele>
        <time>2019-06-09T11:58:25+02:00</time>
      </trkpt>
      <trkpt lat="41.70349" lon="2.01939467">
        <ele>-6.0</ele>
        <time>2019-06-09T11:58:26+02:00</time>
      </trkpt>
      <trkpt lat="41.703551669999996" lon="2.0194229999999997">
        <ele>-4.0</ele>
        <time>2019-06-09T11:58:27+02:00</time>
      </trkpt>
      <trkpt lat="41.70360834" lon="2.01945134">
        <ele>-3.0</ele>
        <time>2019-06-09T11:58:28+02:00</time>
      </trkpt>
      <trkpt lat="41.703680000000006" lon="2.0194920000000005">
        <ele>-1.0</ele>
        <time>2019-06-09T11:58:29+02:00</time>
      </trkpt>
      <trkpt lat="41.70372999999999" lon="2.019522">
        <ele>0.0</ele>
        <time>2019-06-09T11:58:30+02:00</time>
      </trkpt>
      <trkpt lat="41.70379333999999" lon="2.01955467">
        <ele>1.0</ele>
        <time>2019-06-09T11:58:31+02:00</time>
      </trkpt>
      <trkpt lat="41.70385499999999" lon="2.019584">
        <ele>3.0</ele>
        <time>2019-06-09T11:58:32+02:00</time>
      </trkpt>
      <trkpt lat="41.703916670000005" lon="2.0196096700000004">
        <ele>4.0</ele>
        <time>2019-06-09T11:58:33+02:00</time>
      </trkpt>
      <trkpt lat="41.70396834" lon="2.019626">
        <ele>6.0</ele>
        <time>2019-06-09T11:58:34+02:00</time>
      </trkpt>
      <trkpt lat="41.704044999999994" lon="2.01964934">
        <ele>9.0</ele>
        <time>2019-06-09T11:58:36+02:00</time>
      </trkpt>
      <trkpt lat="41.70412" lon="2.0196606699999995">
        <ele>12.0</ele>
        <time>2019-06-09T11:58:38+02:00</time>
      </trkpt>
      <trkpt lat="41.704166670000006" lon="2.019661">
        <ele>14.0</ele>
        <time>2019-06-09T11:58:39+02:00</time>
      </trkpt>
      <trkpt lat="41.70421667000001" lon="2.0196620000000003">
        <ele>15.0</ele>
        <time>2019-06-09T11:58:40+02:00</time>
      </trkpt>
      <trkpt lat="41.70427167" lon="2.01966267">
        <ele>16.0</ele>
        <time>2019-06-09T11:58:41+02:00</time>
      </trkpt>
      <trkpt lat="41.70433167" lon="2.019663">
        <ele>18.0</ele>
        <time>2019-06-09T11:58:42+02:00</time>
      </trkpt>
      <trkpt lat="41.70439167000001" lon="2.01966334">
        <ele>19.0</ele>
        <time>2019-06-09T11:58:43+02:00</time>
      </trkpt>
      <trkpt lat="41.704454999999996" lon="2.01966434">
        <ele>20.0</ele>
        <time>2019-06-09T11:58:44+02:00</time>
      </trkpt>
      <trkpt lat="41.70452999999999" lon="2.019663">
        <ele>21.0</ele>
        <time>2019-06-09T11:58:45+02:00</time>
      </trkpt>
      <trkpt lat="41.704581669999996" lon="2.01965767">
        <ele>22.0</ele>
        <time>2019-06-09T11:58:46+02:00</time>
      </trkpt>
      <trkpt lat="41.70464334" lon="2.019653">
        <ele>24.0</ele>
        <time>2019-06-09T11:58:47+02:00</time>
      </trkpt>
      <trkpt lat="41.704705000000004" lon="2.01965634">
        <ele>25.0</ele>
        <time>2019-06-09T11:58:48+02:00</time>
      </trkpt>
      <trkpt lat="41.70476334" lon="2.0196596700000002">
        <ele>26.0</ele>
        <time>2019-06-09T11:58:49+02:00</time>
      </trkpt>
      <trkpt lat="41.70481834" lon="2.0196686699999997">
        <ele>28.0</ele>
        <time>2019-06-09T11:58:50+02:00</time>
      </trkpt>
      <trkpt lat="41.70487333999999" lon="2.0196783399999996">
        <ele>29.0</ele>
        <time>2019-06-09T11:58:51+02:00</time>
      </trkpt>
      <trkpt lat="41.704926670000006" lon="2.019692">
        <ele>30.0</ele>
        <time>2019-06-09T11:58:52+02:00</time>
      </trkpt>
      <trkpt lat="41.70497834" lon="2.01970867">
        <ele>31.0</ele>
        <time>2019-06-09T11:58:53+02:00</time>
      </trkpt>
      <trkpt lat="41.70503" lon="2.0197226699999997">
        <ele>33.0</ele>
        <time>2019-06-09T11:58:54+02:00</time>
      </trkpt>
      <trkpt lat="41.705078339999986" lon="2.019736">
        <ele>34.0</ele>
        <time>2019-06-09T11:58:55+02:00</time>
      </trkpt>
      <trkpt lat="41.705161669999995" lon="2.01975634">
        <ele>36.0</ele>
        <time>2019-06-09T11:58:57+02:00</time>
      </trkpt>
      <trkpt lat="41.705235" lon="2.019771">
        <ele>38.0</ele>
        <time>2019-06-09T11:58:59+02:00</time>
      </trkpt>
      <trkpt lat="41.70531" lon="2.0197856699999996">
        <ele>40.0</ele>
        <time>2019-06-09T11:59:01+02:00</time>
      </trkpt>
      <trkpt lat="41.70538499999999" lon="2.0198">
        <ele>41.0</ele>
        <time>2019-06-09T11:59:03+02:00</time>
      </trkpt>
      <trkpt lat="41.705455" lon="2.01981334">
        <ele>42.0</ele>
        <time>2019-06-09T11:59:05+02:00</time>
      </trkpt>
      <trkpt lat="41.705525" lon="2.01982734">
        <ele>44.0</ele>
        <time>2019-06-09T11:59:07+02:00</time>
      </trkpt>
      <trkpt lat="41.705596670000006" lon="2.0198460000000003">
        <ele>45.0</ele>
        <time>2019-06-09T11:59:09+02:00</time>
      </trkpt>
      <trkpt lat="41.70566334" lon="2.01986034">
        <ele>47.0</ele>
        <time>2019-06-09T11:59:11+02:00</time>
      </trkpt>
      <trkpt lat="41.70572833999999" lon="2.0198796699999995">
        <ele>49.0</ele>
        <time>2019-06-09T11:59:13+02:00</time>
      </trkpt>
      <trkpt lat="41.70578834" lon="2.019904">
        <ele>50.0</ele>
        <time>2019-06-09T11:59:15+02:00</time>
      </trkpt>
      <trkpt lat="41.70583334" lon="2.0200716699999997">
        <ele>51.0</ele>
        <time>2019-06-09T11:59:17+02:00</time>
      </trkpt>
      <trkpt lat="41.705866670000006" lon="2.0201599999999997">
        <ele>52.0</ele>
        <time>2019-06-09T11:59:19+02:00</time>
      </trkpt>
      <trkpt lat="41.70587334" lon="2.02025834">
        <ele>53.0</ele>
        <time>2019-06-09T11:59:21+02:00</time>
      </trkpt>
      <trkpt lat="41.70585333999999" lon="2.0203583399999996">
        <ele>54.0</ele>
        <time>2019-06-09T11:59:23+02:00</time>
      </trkpt>
      <trkpt lat="41.705813340000006" lon="2.0204416699999994">
        <ele>54.0</ele>
        <time>2019-06-09T11:59:25+02:00</time>
      </trkpt>
      <trkpt lat="41.70577333999999" lon="2.0205266699999997">
        <ele>54.0</ele>
        <time>2019-06-09T11:59:27+02:00</time>
      </trkpt>
      <trkpt lat="41.70576167" lon="2.02061667">
        <ele>55.0</ele>
        <time>2019-06-09T11:59:29+02:00</time>
      </trkpt>
      <trkpt lat="41.70576567000001" lon="2.0207083399999997">
        <ele>55.0</ele>
        <time>2019-06-09T11:59:31+02:00</time>
      </trkpt>
      <trkpt lat="41.70579334" lon="2.020785">
        <ele>55.0</ele>
        <time>2019-06-09T11:59:33+02:00</time>
      </trkpt>
      <trkpt lat="41.705830000000006" lon="2.0208466699999996">
        <ele>55.0</ele>
        <time>2019-06-09T11:59:35+02:00</time>
      </trkpt>
      <trkpt lat="41.70588167" lon="2.0209">
        <ele>56.0</ele>
        <time>2019-06-09T11:59:37+02:00</time>
      </trkpt>
      <trkpt lat="41.705945" lon="2.02094">
        <ele>56.0</ele>
        <time>2019-06-09T11:59:39+02:00</time>
      </trkpt>
      <trkpt lat="41.70602334" lon="2.0209716699999993">
        <ele>56.0</ele>
        <time>2019-06-09T11:59:41+02:00</time>
      </trkpt>
      <trkpt lat="41.70611" lon="2.02100167">
        <ele>56.0</ele>
        <time>2019-06-09T11:59:43+02:00</time>
      </trkpt>
      <trkpt lat="41.70616334" lon="2.02101834">
        <ele>57.0</ele>
        <time>2019-06-09T11:59:44+02:00</time>
      </trkpt>
      <trkpt lat="41.70621" lon="2.02102834">
        <ele>57.0</ele>
        <time>2019-06-09T11:59:45+02:00</time>
      </trkpt>
      <trkpt lat="41.70629333999999" lon="2.0210463400000003">
        <ele>58.0</ele>
        <time>2019-06-09T11:59:47+02:00</time>
      </trkpt>
      <trkpt lat="41.706343340000004" lon="2.021064">
        <ele>58.0</ele>
        <time>2019-06-09T11:59:48+02:00</time>
      </trkpt>
      <trkpt lat="41.706419999999994" lon="2.0211040000000002">
        <ele>59.0</ele>
        <time>2019-06-09T11:59:50+02:00</time>
      </trkpt>
      <trkpt lat="41.706455000000005" lon="2.0211496700000002">
        <ele>59.0</ele>
        <time>2019-06-09T11:59:52+02:00</time>
      </trkpt>
      <trkpt lat="41.706448339999994" lon="2.0212650000000005">
        <ele>59.0</ele>
        <time>2019-06-09T11:59:54+02:00</time>
      </trkpt>
      <trkpt lat="41.70642333999999" lon="2.0213183399999997">
        <ele>59.0</ele>
        <time>2019-06-09T11:59:55+02:00</time>
      </trkpt>
      <trkpt lat="41.706365000000005" lon="2.02141">
        <ele>59.0</ele>
        <time>2019-06-09T11:59:57+02:00</time>
      </trkpt>
      <trkpt lat="41.70633834" lon="2.0214633399999995">
        <ele>59.0</ele>
        <time>2019-06-09T11:59:58+02:00</time>
      </trkpt>
      <trkpt lat="41.706311670000005" lon="2.02153167">
        <ele>59.0</ele>
        <time>2019-06-09T11:59:59+02:00</time>
      </trkpt>
      <trkpt lat="41.70627167000001" lon="2.02164334">
        <ele>59.0</ele>
        <time>2019-06-09T12:00:01+02:00</time>
      </trkpt>
      <trkpt lat="41.70625" lon="2.0217099999999997">
        <ele>59.0</ele>
        <time>2019-06-09T12:00:02+02:00</time>
      </trkpt>
      <trkpt lat="41.70622667000001" lon="2.0217816699999998">
        <ele>59.0</ele>
        <time>2019-06-09T12:00:03+02:00</time>
      </trkpt>
      <trkpt lat="41.706208339999996" lon="2.0218533399999994">
        <ele>59.0</ele>
        <time>2019-06-09T12:00:04+02:00</time>
      </trkpt>
      <trkpt lat="41.70619033999999" lon="2.021945">
        <ele>59.0</ele>
        <time>2019-06-09T12:00:05+02:00</time>
      </trkpt>
      <trkpt lat="41.70618334000001" lon="2.0220099999999994">
        <ele>58.0</ele>
        <time>2019-06-09T12:00:06+02:00</time>
      </trkpt>
      <trkpt lat="41.70617767" lon="2.0220949999999998">
        <ele>58.0</ele>
        <time>2019-06-09T12:00:07+02:00</time>
      </trkpt>
      <trkpt lat="41.706175339999994" lon="2.022185">
        <ele>58.0</ele>
        <time>2019-06-09T12:00:08+02:00</time>
      </trkpt>
      <trkpt lat="41.70617599999999" lon="2.022295">
        <ele>58.0</ele>
        <time>2019-06-09T12:00:09+02:00</time>
      </trkpt>
      <trkpt lat="41.70621234" lon="2.02243834">
        <ele>57.0</ele>
        <time>2019-06-09T12:00:10+02:00</time>
      </trkpt>
      <trkpt lat="41.706229" lon="2.02254167">
        <ele>57.0</ele>
        <time>2019-06-09T12:00:11+02:00</time>
      </trkpt>
      <trkpt lat="41.70622934" lon="2.02263667">
        <ele>57.0</ele>
        <time>2019-06-09T12:00:12+02:00</time>
      </trkpt>
      <trkpt lat="41.70622734" lon="2.02273834">
        <ele>57.0</ele>
        <time>2019-06-09T12:00:13+02:00</time>
      </trkpt>
      <trkpt lat="41.70622767" lon="2.02284834">
        <ele>57.0</ele>
        <time>2019-06-09T12:00:14+02:00</time>
      </trkpt>
      <trkpt lat="41.706232" lon="2.0229583399999997">
        <ele>57.0</ele>
        <time>2019-06-09T12:00:15+02:00</time>
      </trkpt>
      <trkpt lat="41.70624067000001" lon="2.0230683399999996">
        <ele>57.0</ele>
        <time>2019-06-09T12:00:16+02:00</time>
      </trkpt>
      <trkpt lat="41.706256" lon="2.02317167">
        <ele>57.0</ele>
        <time>2019-06-09T12:00:17+02:00</time>
      </trkpt>
      <trkpt lat="41.70637167000001" lon="2.0232933399999995">
        <ele>57.0</ele>
        <time>2019-06-09T12:00:18+02:00</time>
      </trkpt>
      <trkpt lat="41.70639834" lon="2.023375">
        <ele>57.0</ele>
        <time>2019-06-09T12:00:19+02:00</time>
      </trkpt>
      <trkpt lat="41.70640367" lon="2.0234900000000002">
        <ele>57.0</ele>
        <time>2019-06-09T12:00:20+02:00</time>
      </trkpt>
      <trkpt lat="41.70637467" lon="2.0235666699999997">
        <ele>57.0</ele>
        <time>2019-06-09T12:00:21+02:00</time>
      </trkpt>
      <trkpt lat="41.706295" lon="2.0235999999999996">
        <ele>57.0</ele>
        <time>2019-06-09T12:00:22+02:00</time>
      </trkpt>
      <trkpt lat="41.706208339999996" lon="2.02361334">
        <ele>57.0</ele>
        <time>2019-06-09T12:00:23+02:00</time>
      </trkpt>
      <trkpt lat="41.70612333999999" lon="2.02359334">
        <ele>57.0</ele>
        <time>2019-06-09T12:00:24+02:00</time>
      </trkpt>
      <trkpt lat="41.706043339999994" lon="2.02356">
        <ele>57.0</ele>
        <time>2019-06-09T12:00:25+02:00</time>
      </trkpt>
      <trkpt lat="41.705951670000005" lon="2.02353">
        <ele>57.0</ele>
        <time>2019-06-09T12:00:26+02:00</time>
      </trkpt>
      <trkpt lat="41.70585667" lon="2.02350834">
        <ele>57.0</ele>
        <time>2019-06-09T12:00:27+02:00</time>
      </trkpt>
      <trkpt lat="41.70576167" lon="2.0235">
        <ele>57.0</ele>
        <time>2019-06-09T12:00:28+02:00</time>
      </trkpt>
      <trkpt lat="41.705668339999995" lon="2.02351667">
        <ele>58.0</ele>
        <time>2019-06-09T12:00:29+02:00</time>
      </trkpt>
      <trkpt lat="41.705574999999996" lon="2.0235510000000003">
        <ele>58.0</ele>
        <time>2019-06-09T12:00:30+02:00</time>
      </trkpt>
      <trkpt lat="41.705495" lon="2.02359934">
        <ele>58.0</ele>
        <time>2019-06-09T12:00:31+02:00</time>
      </trkpt>
      <trkpt lat="41.70543167000001" lon="2.0236576699999995">
        <ele>59.0</ele>
        <time>2019-06-09T12:00:32+02:00</time>
      </trkpt>
      <trkpt lat="41.70538499999999" lon="2.0237239999999996">
        <ele>59.0</ele>
        <time>2019-06-09T12:00:33+02:00</time>
      </trkpt>
      <trkpt lat="41.70538" lon="2.02388334">
        <ele>59.0</ele>
        <time>2019-06-09T12:00:34+02:00</time>
      </trkpt>
      <trkpt lat="41.70540333999999" lon="2.0239900000000004">
        <ele>60.0</ele>
        <time>2019-06-09T12:00:35+02:00</time>
      </trkpt>
      <trkpt lat="41.705461670000005" lon="2.02411">
        <ele>60.0</ele>
        <time>2019-06-09T12:00:36+02:00</time>
      </trkpt>
      <trkpt lat="41.705538340000004" lon="2.02419334">
        <ele>61.0</ele>
        <time>2019-06-09T12:00:37+02:00</time>
      </trkpt>
      <trkpt lat="41.70562667" lon="2.0242583399999994">
        <ele>61.0</ele>
        <time>2019-06-09T12:00:38+02:00</time>
      </trkpt>
      <trkpt lat="41.70570667" lon="2.0242966699999996">
        <ele>62.0</ele>
        <time>2019-06-09T12:00:39+02:00</time>
      </trkpt>
      <trkpt lat="41.70580167" lon="2.0243416699999996">
        <ele>62.0</ele>
        <time>2019-06-09T12:00:40+02:00</time>
      </trkpt>
      <trkpt lat="41.70588834" lon="2.0243966699999993">
        <ele>63.0</ele>
        <time>2019-06-09T12:00:41+02:00</time>
      </trkpt>
      <trkpt lat="41.70593834" lon="2.0244816699999997">
        <ele>63.0</ele>
        <time>2019-06-09T12:00:42+02:00</time>
      </trkpt>
      <trkpt lat="41.705955" lon="2.0246033399999996">
        <ele>64.0</ele>
        <time>2019-06-09T12:00:43+02:00</time>
      </trkpt>
      <trkpt lat="41.70594" lon="2.02468834">
        <ele>64.0</ele>
        <time>2019-06-09T12:00:44+02:00</time>
      </trkpt>
      <trkpt lat="41.705875" lon="2.024785">
        <ele>65.0</ele>
        <time>2019-06-09T12:00:45+02:00</time>
      </trkpt>
      <trkpt lat="41.70582" lon="2.0248716699999996">
        <ele>65.0</ele>
        <time>2019-06-09T12:00:46+02:00</time>
      </trkpt>
      <trkpt lat="41.70576333999999" lon="2.02495834">
        <ele>66.0</ele>
        <time>2019-06-09T12:00:47+02:00</time>
      </trkpt>
      <trkpt lat="41.70569667000001" lon="2.0250583399999997">
        <ele>66.0</ele>
        <time>2019-06-09T12:00:48+02:00</time>
      </trkpt>
      <trkpt lat="41.705650000000006" lon="2.0251183399999997">
        <ele>66.0</ele>
        <time>2019-06-09T12:00:49+02:00</time>
      </trkpt>
      <trkpt lat="41.70558" lon="2.0251849999999996">
        <ele>68.0</ele>
        <time>2019-06-09T12:00:50+02:00</time>
      </trkpt>
      <trkpt lat="41.705504999999995" lon="2.02524">
        <ele>68.0</ele>
        <time>2019-06-09T12:00:51+02:00</time>
      </trkpt>
      <trkpt lat="41.705426669999994" lon="2.02528667">
        <ele>68.0</ele>
        <time>2019-06-09T12:00:52+02:00</time>
      </trkpt>
      <trkpt lat="41.705346670000004" lon="2.0253333399999995">
        <ele>68.0</ele>
        <time>2019-06-09T12:00:53+02:00</time>
      </trkpt>
      <trkpt lat="41.70526833999999" lon="2.0253900000000002">
        <ele>68.0</ele>
        <time>2019-06-09T12:00:54+02:00</time>
      </trkpt>
      <trkpt lat="41.70519667000001" lon="2.0254446699999997">
        <ele>69.0</ele>
        <time>2019-06-09T12:00:55+02:00</time>
      </trkpt>
      <trkpt lat="41.705124999999995" lon="2.0255166699999996">
        <ele>69.0</ele>
        <time>2019-06-09T12:00:56+02:00</time>
      </trkpt>
      <trkpt lat="41.705061670000006" lon="2.0255929999999998">
        <ele>69.0</ele>
        <time>2019-06-09T12:00:57+02:00</time>
      </trkpt>
      <trkpt lat="41.705009999999994" lon="2.025678">
        <ele>69.0</ele>
        <time>2019-06-09T12:00:58+02:00</time>
      </trkpt>
      <trkpt lat="41.704965" lon="2.02581">
        <ele>70.0</ele>
        <time>2019-06-09T12:00:59+02:00</time>
      </trkpt>
      <trkpt lat="41.704919669999995" lon="2.025925">
        <ele>70.0</ele>
        <time>2019-06-09T12:01:00+02:00</time>
      </trkpt>
      <trkpt lat="41.70486534" lon="2.0260166699999997">
        <ele>70.0</ele>
        <time>2019-06-09T12:01:01+02:00</time>
      </trkpt>
      <trkpt lat="41.70477834" lon="2.02608167">
        <ele>70.0</ele>
        <time>2019-06-09T12:01:02+02:00</time>
      </trkpt>
      <trkpt lat="41.704688340000004" lon="2.0261216699999998">
        <ele>70.0</ele>
        <time>2019-06-09T12:01:03+02:00</time>
      </trkpt>
      <trkpt lat="41.70459334" lon="2.0261583399999994">
        <ele>70.0</ele>
        <time>2019-06-09T12:01:04+02:00</time>
      </trkpt>
      <trkpt lat="41.70450333999999" lon="2.02620967">
        <ele>71.0</ele>
        <time>2019-06-09T12:01:05+02:00</time>
      </trkpt>
      <trkpt lat="41.70442833999999" lon="2.0262783399999997">
        <ele>71.0</ele>
        <time>2019-06-09T12:01:06+02:00</time>
      </trkpt>
      <trkpt lat="41.70438" lon="2.0263479999999996">
        <ele>71.0</ele>
        <time>2019-06-09T12:01:07+02:00</time>
      </trkpt>
      <trkpt lat="41.70437" lon="2.02646667">
        <ele>71.0</ele>
        <time>2019-06-09T12:01:08+02:00</time>
      </trkpt>
      <trkpt lat="41.704393339999996" lon="2.02656334">
        <ele>72.0</ele>
        <time>2019-06-09T12:01:09+02:00</time>
      </trkpt>
      <trkpt lat="41.70444834" lon="2.0266583399999996">
        <ele>72.0</ele>
        <time>2019-06-09T12:01:10+02:00</time>
      </trkpt>
      <trkpt lat="41.70451167" lon="2.0267583399999998">
        <ele>72.0</ele>
        <time>2019-06-09T12:01:11+02:00</time>
      </trkpt>
      <trkpt lat="41.70454966999999" lon="2.026875">
        <ele>72.0</ele>
        <time>2019-06-09T12:01:12+02:00</time>
      </trkpt>
      <trkpt lat="41.70455167" lon="2.02698667">
        <ele>73.0</ele>
        <time>2019-06-09T12:01:13+02:00</time>
      </trkpt>
      <trkpt lat="41.70452034" lon="2.02707334">
        <ele>73.0</ele>
        <time>2019-06-09T12:01:14+02:00</time>
      </trkpt>
      <trkpt lat="41.704415" lon="2.02713">
        <ele>73.0</ele>
        <time>2019-06-09T12:01:15+02:00</time>
      </trkpt>
      <trkpt lat="41.704319999999996" lon="2.02716334">
        <ele>73.0</ele>
        <time>2019-06-09T12:01:16+02:00</time>
      </trkpt>
      <trkpt lat="41.70422000000001" lon="2.0271850000000002">
        <ele>73.0</ele>
        <time>2019-06-09T12:01:17+02:00</time>
      </trkpt>
      <trkpt lat="41.70412" lon="2.027205">
        <ele>73.0</ele>
        <time>2019-06-09T12:01:18+02:00</time>
      </trkpt>
      <trkpt lat="41.70401833999999" lon="2.0272300000000003">
        <ele>74.0</ele>
        <time>2019-06-09T12:01:19+02:00</time>
      </trkpt>
      <trkpt lat="41.70392" lon="2.0272583399999995">
        <ele>74.0</ele>
        <time>2019-06-09T12:01:20+02:00</time>
      </trkpt>
      <trkpt lat="41.70381667" lon="2.0272963400000004">
        <ele>74.0</ele>
        <time>2019-06-09T12:01:21+02:00</time>
      </trkpt>
      <trkpt lat="41.703718339999995" lon="2.0273470000000002">
        <ele>74.0</ele>
        <time>2019-06-09T12:01:22+02:00</time>
      </trkpt>
      <trkpt lat="41.70363999999999" lon="2.027408">
        <ele>74.0</ele>
        <time>2019-06-09T12:01:23+02:00</time>
      </trkpt>
      <trkpt lat="41.703583339999994" lon="2.02748134">
        <ele>74.0</ele>
        <time>2019-06-09T12:01:24+02:00</time>
      </trkpt>
      <trkpt lat="41.70355834" lon="2.0275553399999997">
        <ele>75.0</ele>
        <time>2019-06-09T12:01:25+02:00</time>
      </trkpt>
      <trkpt lat="41.70360834" lon="2.0277833399999996">
        <ele>75.0</ele>
        <time>2019-06-09T12:01:26+02:00</time>
      </trkpt>
      <trkpt lat="41.70361667" lon="2.02791834">
        <ele>75.0</ele>
        <time>2019-06-09T12:01:27+02:00</time>
      </trkpt>
      <trkpt lat="41.703628339999995" lon="2.0280583399999994">
        <ele>75.0</ele>
        <time>2019-06-09T12:01:28+02:00</time>
      </trkpt>
      <trkpt lat="41.70365966999999" lon="2.02822334">
        <ele>75.0</ele>
        <time>2019-06-09T12:01:29+02:00</time>
      </trkpt>
      <trkpt lat="41.70358734" lon="2.02849334">
        <ele>75.0</ele>
        <time>2019-06-09T12:01:30+02:00</time>
      </trkpt>
      <trkpt lat="41.70353733999999" lon="2.02861834">
        <ele>75.0</ele>
        <time>2019-06-09T12:01:31+02:00</time>
      </trkpt>
      <trkpt lat="41.70348167" lon="2.02873834">
        <ele>75.0</ele>
        <time>2019-06-09T12:01:32+02:00</time>
      </trkpt>
      <trkpt lat="41.70342367" lon="2.0288583399999998">
        <ele>75.0</ele>
        <time>2019-06-09T12:01:33+02:00</time>
      </trkpt>
      <trkpt lat="41.70336166999999" lon="2.02898">
        <ele>75.0</ele>
        <time>2019-06-09T12:01:34+02:00</time>
      </trkpt>
      <trkpt lat="41.70330233999999" lon="2.02909834">
        <ele>75.0</ele>
        <time>2019-06-09T12:01:35+02:00</time>
      </trkpt>
      <trkpt lat="41.70324334" lon="2.029205">
        <ele>75.0</ele>
        <time>2019-06-09T12:01:36+02:00</time>
      </trkpt>
      <trkpt lat="41.703190670000005" lon="2.02933334">
        <ele>76.0</ele>
        <time>2019-06-09T12:01:37+02:00</time>
      </trkpt>
      <trkpt lat="41.70315133999999" lon="2.029465">
        <ele>76.0</ele>
        <time>2019-06-09T12:01:38+02:00</time>
      </trkpt>
      <trkpt lat="41.70320834" lon="2.02959167">
        <ele>76.0</ele>
        <time>2019-06-09T12:01:39+02:00</time>
      </trkpt>
      <trkpt lat="41.703241670000004" lon="2.02970667">
        <ele>76.0</ele>
        <time>2019-06-09T12:01:40+02:00</time>
      </trkpt>
      <trkpt lat="41.70329167000001" lon="2.0297966699999996">
        <ele>76.0</ele>
        <time>2019-06-09T12:01:41+02:00</time>
      </trkpt>
      <trkpt lat="41.703354999999995" lon="2.02986334">
        <ele>76.0</ele>
        <time>2019-06-09T12:01:42+02:00</time>
      </trkpt>
      <trkpt lat="41.703438340000005" lon="2.02989334">
        <ele>76.0</ele>
        <time>2019-06-09T12:01:43+02:00</time>
      </trkpt>
      <trkpt lat="41.70353334" lon="2.02988667">
        <ele>78.0</ele>
        <time>2019-06-09T12:01:44+02:00</time>
      </trkpt>
      <trkpt lat="41.70362167000001" lon="2.0298583399999997">
        <ele>78.0</ele>
        <time>2019-06-09T12:01:45+02:00</time>
      </trkpt>
      <trkpt lat="41.703715" lon="2.029825">
        <ele>79.0</ele>
        <time>2019-06-09T12:01:46+02:00</time>
      </trkpt>
      <trkpt lat="41.703813339999996" lon="2.029795">
        <ele>79.0</ele>
        <time>2019-06-09T12:01:47+02:00</time>
      </trkpt>
      <trkpt lat="41.70390999999999" lon="2.02979">
        <ele>80.0</ele>
        <time>2019-06-09T12:01:48+02:00</time>
      </trkpt>
      <trkpt lat="41.70400834" lon="2.0297966699999996">
        <ele>80.0</ele>
        <time>2019-06-09T12:01:49+02:00</time>
      </trkpt>
      <trkpt lat="41.70410667" lon="2.0298170000000004">
        <ele>82.0</ele>
        <time>2019-06-09T12:01:50+02:00</time>
      </trkpt>
      <trkpt lat="41.7042" lon="2.0298430000000005">
        <ele>82.0</ele>
        <time>2019-06-09T12:01:51+02:00</time>
      </trkpt>
      <trkpt lat="41.70429333999999" lon="2.029871">
        <ele>83.0</ele>
        <time>2019-06-09T12:01:52+02:00</time>
      </trkpt>
      <trkpt lat="41.704386670000005" lon="2.02990234">
        <ele>83.0</ele>
        <time>2019-06-09T12:01:53+02:00</time>
      </trkpt>
      <trkpt lat="41.70447" lon="2.02994">
        <ele>84.0</ele>
        <time>2019-06-09T12:01:54+02:00</time>
      </trkpt>
      <trkpt lat="41.704536669999996" lon="2.0299893399999993">
        <ele>84.0</ele>
        <time>2019-06-09T12:01:55+02:00</time>
      </trkpt>
      <trkpt lat="41.70457499999999" lon="2.0301400000000003">
        <ele>85.0</ele>
        <time>2019-06-09T12:01:56+02:00</time>
      </trkpt>
      <trkpt lat="41.70458334" lon="2.030255">
        <ele>85.0</ele>
        <time>2019-06-09T12:01:57+02:00</time>
      </trkpt>
      <trkpt lat="41.70456" lon="2.030365">
        <ele>85.0</ele>
        <time>2019-06-09T12:01:58+02:00</time>
      </trkpt>
      <trkpt lat="41.704501670000006" lon="2.0304683399999996">
        <ele>86.0</ele>
        <time>2019-06-09T12:01:59+02:00</time>
      </trkpt>
      <trkpt lat="41.704445" lon="2.0305050000000002">
        <ele>86.0</ele>
        <time>2019-06-09T12:02:00+02:00</time>
      </trkpt>
      <trkpt lat="41.704359999999994" lon="2.0305299999999997">
        <ele>86.0</ele>
        <time>2019-06-09T12:02:01+02:00</time>
      </trkpt>
      <trkpt lat="41.704261669999994" lon="2.0305266699999995">
        <ele>86.0</ele>
        <time>2019-06-09T12:02:02+02:00</time>
      </trkpt>
      <trkpt lat="41.704163339999994" lon="2.03049834">
        <ele>86.0</ele>
        <time>2019-06-09T12:02:03+02:00</time>
      </trkpt>
      <trkpt lat="41.70406667000001" lon="2.03046">
        <ele>86.0</ele>
        <time>2019-06-09T12:02:04+02:00</time>
      </trkpt>
      <trkpt lat="41.70397667" lon="2.0304116700000003">
        <ele>86.0</ele>
        <time>2019-06-09T12:02:05+02:00</time>
      </trkpt>
      <trkpt lat="41.70387000000001" lon="2.03036334">
        <ele>86.0</ele>
        <time>2019-06-09T12:02:06+02:00</time>
      </trkpt>
      <trkpt lat="41.70377834" lon="2.0303466699999992">
        <ele>86.0</ele>
        <time>2019-06-09T12:02:07+02:00</time>
      </trkpt>
      <trkpt lat="41.70368167" lon="2.03037134">
        <ele>86.0</ele>
        <time>2019-06-09T12:02:08+02:00</time>
      </trkpt>
      <trkpt lat="41.70361167" lon="2.0304116700000003">
        <ele>86.0</ele>
        <time>2019-06-09T12:02:09+02:00</time>
      </trkpt>
      <trkpt lat="41.70353" lon="2.0304770000000003">
        <ele>86.0</ele>
        <time>2019-06-09T12:02:10+02:00</time>
      </trkpt>
      <trkpt lat="41.70345167000001" lon="2.03056034">
        <ele>85.0</ele>
        <time>2019-06-09T12:02:11+02:00</time>
      </trkpt>
      <trkpt lat="41.703385" lon="2.0306883399999998">
        <ele>85.0</ele>
        <time>2019-06-09T12:02:12+02:00</time>
      </trkpt>
      <trkpt lat="41.70332499999999" lon="2.03079">
        <ele>85.0</ele>
        <time>2019-06-09T12:02:13+02:00</time>
      </trkpt>
      <trkpt lat="41.70325" lon="2.03089967">
        <ele>85.0</ele>
        <time>2019-06-09T12:02:14+02:00</time>
      </trkpt>
      <trkpt lat="41.70318667" lon="2.0309739999999996">
        <ele>85.0</ele>
        <time>2019-06-09T12:02:15+02:00</time>
      </trkpt>
      <trkpt lat="41.703104999999994" lon="2.03108034">
        <ele>84.0</ele>
        <time>2019-06-09T12:02:16+02:00</time>
      </trkpt>
      <trkpt lat="41.703050000000005" lon="2.0311583399999997">
        <ele>84.0</ele>
        <time>2019-06-09T12:02:17+02:00</time>
      </trkpt>
      <trkpt lat="41.70299667000001" lon="2.03125067">
        <ele>84.0</ele>
        <time>2019-06-09T12:02:18+02:00</time>
      </trkpt>
      <trkpt lat="41.702958339999995" lon="2.03139667">
        <ele>84.0</ele>
        <time>2019-06-09T12:02:19+02:00</time>
      </trkpt>
      <trkpt lat="41.702918669999995" lon="2.0315216699999996">
        <ele>84.0</ele>
        <time>2019-06-09T12:02:20+02:00</time>
      </trkpt>
      <trkpt lat="41.702869" lon="2.0316400000000003">
        <ele>84.0</ele>
        <time>2019-06-09T12:02:21+02:00</time>
      </trkpt>
      <trkpt lat="41.702832" lon="2.031775">
        <ele>84.0</ele>
        <time>2019-06-09T12:02:22+02:00</time>
      </trkpt>
      <trkpt lat="41.702761339999995" lon="2.0318433399999996">
        <ele>84.0</ele>
        <time>2019-06-09T12:02:23+02:00</time>
      </trkpt>
      <trkpt lat="41.70262667000001" lon="2.0319116700000004">
        <ele>84.0</ele>
        <time>2019-06-09T12:02:24+02:00</time>
      </trkpt>
      <trkpt lat="41.702538340000004" lon="2.03197967">
        <ele>84.0</ele>
        <time>2019-06-09T12:02:25+02:00</time>
      </trkpt>
      <trkpt lat="41.70243167" lon="2.03206567">
        <ele>84.0</ele>
        <time>2019-06-09T12:02:26+02:00</time>
      </trkpt>
      <trkpt lat="41.70236" lon="2.03215334">
        <ele>84.0</ele>
        <time>2019-06-09T12:02:27+02:00</time>
      </trkpt>
      <trkpt lat="41.70228" lon="2.032271669999999">
        <ele>84.0</ele>
        <time>2019-06-09T12:02:28+02:00</time>
      </trkpt>
      <trkpt lat="41.70222833999999" lon="2.0323983399999994">
        <ele>84.0</ele>
        <time>2019-06-09T12:02:29+02:00</time>
      </trkpt>
      <trkpt lat="41.70214333999999" lon="2.0325083399999997">
        <ele>84.0</ele>
        <time>2019-06-09T12:02:30+02:00</time>
      </trkpt>
      <trkpt lat="41.70212399999999" lon="2.03266334">
        <ele>84.0</ele>
        <time>2019-06-09T12:02:31+02:00</time>
      </trkpt>
      <trkpt lat="41.70216834" lon="2.032855">
        <ele>84.0</ele>
        <time>2019-06-09T12:02:32+02:00</time>
      </trkpt>
      <trkpt lat="41.702185" lon="2.03297334">
        <ele>84.0</ele>
        <time>2019-06-09T12:02:33+02:00</time>
      </trkpt>
      <trkpt lat="41.702209999999994" lon="2.0331200000000003">
        <ele>85.0</ele>
        <time>2019-06-09T12:02:34+02:00</time>
      </trkpt>
      <trkpt lat="41.70224" lon="2.0332683400000002">
        <ele>85.0</ele>
        <time>2019-06-09T12:02:35+02:00</time>
      </trkpt>
      <trkpt lat="41.70227167" lon="2.03341667">
        <ele>85.0</ele>
        <time>2019-06-09T12:02:36+02:00</time>
      </trkpt>
      <trkpt lat="41.70231667000001" lon="2.0335983399999997">
        <ele>86.0</ele>
        <time>2019-06-09T12:02:37+02:00</time>
      </trkpt>
      <trkpt lat="41.70235333999999" lon="2.03375167">
        <ele>86.0</ele>
        <time>2019-06-09T12:02:38+02:00</time>
      </trkpt>
      <trkpt lat="41.702394670000004" lon="2.0339083399999995">
        <ele>87.0</ele>
        <time>2019-06-09T12:02:39+02:00</time>
      </trkpt>
      <trkpt lat="41.702441670000006" lon="2.034065">
        <ele>87.0</ele>
        <time>2019-06-09T12:02:40+02:00</time>
      </trkpt>
      <trkpt lat="41.702481" lon="2.03418834">
        <ele>88.0</ele>
        <time>2019-06-09T12:02:41+02:00</time>
      </trkpt>
      <trkpt lat="41.70253234" lon="2.03436667">
        <ele>88.0</ele>
        <time>2019-06-09T12:02:42+02:00</time>
      </trkpt>
      <trkpt lat="41.70257134" lon="2.0344866699999997">
        <ele>89.0</ele>
        <time>2019-06-09T12:02:43+02:00</time>
      </trkpt>
      <trkpt lat="41.702571000000006" lon="2.0346033399999994">
        <ele>89.0</ele>
        <time>2019-06-09T12:02:44+02:00</time>
      </trkpt>
      <trkpt lat="41.702545670000006" lon="2.0347150000000003">
        <ele>89.0</ele>
        <time>2019-06-09T12:02:45+02:00</time>
      </trkpt>
      <trkpt lat="41.70239667" lon="2.03482334">
        <ele>89.0</ele>
        <time>2019-06-09T12:02:46+02:00</time>
      </trkpt>
      <trkpt lat="41.70233167" lon="2.03493">
        <ele>90.0</ele>
        <time>2019-06-09T12:02:47+02:00</time>
      </trkpt>
      <trkpt lat="41.70226167" lon="2.03506667">
        <ele>90.0</ele>
        <time>2019-06-09T12:02:48+02:00</time>
      </trkpt>
      <trkpt lat="41.702216670000006" lon="2.0351633399999995">
        <ele>91.0</ele>
        <time>2019-06-09T12:02:49+02:00</time>
      </trkpt>
      <trkpt lat="41.70215" lon="2.03531">
        <ele>91.0</ele>
        <time>2019-06-09T12:02:50+02:00</time>
      </trkpt>
      <trkpt lat="41.702104999999996" lon="2.0354099999999997">
        <ele>91.0</ele>
        <time>2019-06-09T12:02:51+02:00</time>
      </trkpt>
      <trkpt lat="41.70205266999999" lon="2.0355316699999997">
        <ele>92.0</ele>
        <time>2019-06-09T12:02:52+02:00</time>
      </trkpt>
      <trkpt lat="41.70199234" lon="2.0356916699999994">
        <ele>92.0</ele>
        <time>2019-06-09T12:02:53+02:00</time>
      </trkpt>
      <trkpt lat="41.701963000000006" lon="2.03581">
        <ele>92.0</ele>
        <time>2019-06-09T12:02:54+02:00</time>
      </trkpt>
      <trkpt lat="41.70195" lon="2.03598834">
        <ele>93.0</ele>
        <time>2019-06-09T12:02:55+02:00</time>
      </trkpt>
      <trkpt lat="41.70203167000001" lon="2.03613167">
        <ele>93.0</ele>
        <time>2019-06-09T12:02:56+02:00</time>
      </trkpt>
      <trkpt lat="41.702055" lon="2.036275">
        <ele>94.0</ele>
        <time>2019-06-09T12:02:57+02:00</time>
      </trkpt>
      <trkpt lat="41.70208000000001" lon="2.03642">
        <ele>94.0</ele>
        <time>2019-06-09T12:02:58+02:00</time>
      </trkpt>
      <trkpt lat="41.702110000000005" lon="2.03656334">
        <ele>95.0</ele>
        <time>2019-06-09T12:02:59+02:00</time>
      </trkpt>
      <trkpt lat="41.70213299999999" lon="2.0366783399999995">
        <ele>95.0</ele>
        <time>2019-06-09T12:03:00+02:00</time>
      </trkpt>
      <trkpt lat="41.70216167" lon="2.036825">
        <ele>96.0</ele>
        <time>2019-06-09T12:03:01+02:00</time>
      </trkpt>
      <trkpt lat="41.70218734" lon="2.03697167">
        <ele>96.0</ele>
        <time>2019-06-09T12:03:02+02:00</time>
      </trkpt>
      <trkpt lat="41.70221433999999" lon="2.03712167">
        <ele>97.0</ele>
        <time>2019-06-09T12:03:03+02:00</time>
      </trkpt>
      <trkpt lat="41.70223634" lon="2.03727667">
        <ele>97.0</ele>
        <time>2019-06-09T12:03:04+02:00</time>
      </trkpt>
      <trkpt lat="41.70224967" lon="2.0374416699999998">
        <ele>97.0</ele>
        <time>2019-06-09T12:03:05+02:00</time>
      </trkpt>
      <trkpt lat="41.702248999999995" lon="2.03759667">
        <ele>97.0</ele>
        <time>2019-06-09T12:03:06+02:00</time>
      </trkpt>
      <trkpt lat="41.702240339999996" lon="2.0377483399999994">
        <ele>97.0</ele>
        <time>2019-06-09T12:03:07+02:00</time>
      </trkpt>
      <trkpt lat="41.70223167" lon="2.0379033399999997">
        <ele>97.0</ele>
        <time>2019-06-09T12:03:08+02:00</time>
      </trkpt>
      <trkpt lat="41.70221167000001" lon="2.0380466699999995">
        <ele>98.0</ele>
        <time>2019-06-09T12:03:09+02:00</time>
      </trkpt>
      <trkpt lat="41.70220367" lon="2.0382">
        <ele>98.0</ele>
        <time>2019-06-09T12:03:10+02:00</time>
      </trkpt>
      <trkpt lat="41.70220234" lon="2.0383533399999996">
        <ele>98.0</ele>
        <time>2019-06-09T12:03:11+02:00</time>
      </trkpt>
      <trkpt lat="41.702206" lon="2.0385083399999995">
        <ele>98.0</ele>
        <time>2019-06-09T12:03:12+02:00</time>
      </trkpt>
      <trkpt lat="41.702226" lon="2.03867667">
        <ele>98.0</ele>
        <time>2019-06-09T12:03:13+02:00</time>
      </trkpt>
      <trkpt lat="41.70222467000001" lon="2.03884334">
        <ele>98.0</ele>
        <time>2019-06-09T12:03:14+02:00</time>
      </trkpt>
      <trkpt lat="41.70220234" lon="2.038935">
        <ele>98.0</ele>
        <time>2019-06-09T12:03:15+02:00</time>
      </trkpt>
      <trkpt lat="41.70200167000001" lon="2.03901334">
        <ele>98.0</ele>
        <time>2019-06-09T12:03:16+02:00</time>
      </trkpt>
      <trkpt lat="41.70190334" lon="2.03904834">
        <ele>98.0</ele>
        <time>2019-06-09T12:03:17+02:00</time>
      </trkpt>
      <trkpt lat="41.70182667" lon="2.03905">
        <ele>98.0</ele>
        <time>2019-06-09T12:03:18+02:00</time>
      </trkpt>
      <trkpt lat="41.701715" lon="2.0390533399999997">
        <ele>98.0</ele>
        <time>2019-06-09T12:03:19+02:00</time>
      </trkpt>
      <trkpt lat="41.70164667" lon="2.03907667">
        <ele>98.0</ele>
        <time>2019-06-09T12:03:20+02:00</time>
      </trkpt>
      <trkpt lat="41.70157499999999" lon="2.03913134">
        <ele>98.0</ele>
        <time>2019-06-09T12:03:21+02:00</time>
      </trkpt>
      <trkpt lat="41.701528339999996" lon="2.039202">
        <ele>98.0</ele>
        <time>2019-06-09T12:03:22+02:00</time>
      </trkpt>
      <trkpt lat="41.70150334" lon="2.03933">
        <ele>98.0</ele>
        <time>2019-06-09T12:03:23+02:00</time>
      </trkpt>
      <trkpt lat="41.70151167" lon="2.03941334">
        <ele>98.0</ele>
        <time>2019-06-09T12:03:24+02:00</time>
      </trkpt>
      <trkpt lat="41.701530000000005" lon="2.03951834">
        <ele>99.0</ele>
        <time>2019-06-09T12:03:25+02:00</time>
      </trkpt>
      <trkpt lat="41.70156667000001" lon="2.03965167">
        <ele>99.0</ele>
        <time>2019-06-09T12:03:26+02:00</time>
      </trkpt>
      <trkpt lat="41.70159334" lon="2.039765">
        <ele>99.0</ele>
        <time>2019-06-09T12:03:27+02:00</time>
      </trkpt>
      <trkpt lat="41.7016" lon="2.03986334">
        <ele>99.0</ele>
        <time>2019-06-09T12:03:28+02:00</time>
      </trkpt>
      <trkpt lat="41.701596339999995" lon="2.03998167">
        <ele>99.0</ele>
        <time>2019-06-09T12:03:29+02:00</time>
      </trkpt>
      <trkpt lat="41.70159" lon="2.0401266700000003">
        <ele>99.0</ele>
        <time>2019-06-09T12:03:30+02:00</time>
      </trkpt>
      <trkpt lat="41.70158234" lon="2.040225">
        <ele>99.0</ele>
        <time>2019-06-09T12:03:31+02:00</time>
      </trkpt>
      <trkpt lat="41.70157433999999" lon="2.04034834">
        <ele>99.0</ele>
        <time>2019-06-09T12:03:32+02:00</time>
      </trkpt>
      <trkpt lat="41.70156667000001" lon="2.040475">
        <ele>99.0</ele>
        <time>2019-06-09T12:03:33+02:00</time>
      </trkpt>
      <trkpt lat="41.701554" lon="2.040595">
        <ele>99.0</ele>
        <time>2019-06-09T12:03:34+02:00</time>
      </trkpt>
      <trkpt lat="41.70152533999999" lon="2.0407166699999997">
        <ele>99.0</ele>
        <time>2019-06-09T12:03:35+02:00</time>
      </trkpt>
      <trkpt lat="41.70148633999999" lon="2.0407783399999997">
        <ele>99.0</ele>
        <time>2019-06-09T12:03:36+02:00</time>
      </trkpt>
      <trkpt lat="41.70132833999999" lon="2.0408049999999998">
        <ele>99.0</ele>
        <time>2019-06-09T12:03:37+02:00</time>
      </trkpt>
      <trkpt lat="41.70125167" lon="2.0408">
        <ele>99.0</ele>
        <time>2019-06-09T12:03:38+02:00</time>
      </trkpt>
      <trkpt lat="41.701170000000005" lon="2.0407633400000003">
        <ele>99.0</ele>
        <time>2019-06-09T12:03:39+02:00</time>
      </trkpt>
      <trkpt lat="41.70110667" lon="2.04069">
        <ele>99.0</ele>
        <time>2019-06-09T12:03:40+02:00</time>
      </trkpt>
      <trkpt lat="41.70105667000001" lon="2.04059834">
        <ele>99.0</ele>
        <time>2019-06-09T12:03:41+02:00</time>
      </trkpt>
      <trkpt lat="41.70101" lon="2.0404966699999996">
        <ele>99.0</ele>
        <time>2019-06-09T12:03:42+02:00</time>
      </trkpt>
      <trkpt lat="41.700945000000004" lon="2.0404050000000002">
        <ele>99.0</ele>
        <time>2019-06-09T12:03:43+02:00</time>
      </trkpt>
      <trkpt lat="41.700858339999996" lon="2.040325">
        <ele>98.0</ele>
        <time>2019-06-09T12:03:44+02:00</time>
      </trkpt>
      <trkpt lat="41.70077667" lon="2.04028567">
        <ele>98.0</ele>
        <time>2019-06-09T12:03:45+02:00</time>
      </trkpt>
      <trkpt lat="41.70070834" lon="2.040283">
        <ele>98.0</ele>
        <time>2019-06-09T12:03:46+02:00</time>
      </trkpt>
      <trkpt lat="41.70063167" lon="2.04031267">
        <ele>98.0</ele>
        <time>2019-06-09T12:03:47+02:00</time>
      </trkpt>
      <trkpt lat="41.70055167" lon="2.0404466699999997">
        <ele>98.0</ele>
        <time>2019-06-09T12:03:48+02:00</time>
      </trkpt>
      <trkpt lat="41.700509999999994" lon="2.0405266699999998">
        <ele>98.0</ele>
        <time>2019-06-09T12:03:49+02:00</time>
      </trkpt>
      <trkpt lat="41.700445" lon="2.0406349999999995">
        <ele>98.0</ele>
        <time>2019-06-09T12:03:50+02:00</time>
      </trkpt>
      <trkpt lat="41.70039" lon="2.04073667">
        <ele>98.0</ele>
        <time>2019-06-09T12:03:51+02:00</time>
      </trkpt>
      <trkpt lat="41.70035333999999" lon="2.04083667">
        <ele>98.0</ele>
        <time>2019-06-09T12:03:52+02:00</time>
      </trkpt>
      <trkpt lat="41.70032667" lon="2.04095">
        <ele>98.0</ele>
        <time>2019-06-09T12:03:53+02:00</time>
      </trkpt>
      <trkpt lat="41.70031334" lon="2.0410666699999997">
        <ele>97.0</ele>
        <time>2019-06-09T12:03:54+02:00</time>
      </trkpt>
      <trkpt lat="41.700311670000005" lon="2.04119">
        <ele>97.0</ele>
        <time>2019-06-09T12:03:55+02:00</time>
      </trkpt>
      <trkpt lat="41.70032834" lon="2.04131334">
        <ele>97.0</ele>
        <time>2019-06-09T12:03:56+02:00</time>
      </trkpt>
      <trkpt lat="41.70034334" lon="2.04144">
        <ele>97.0</ele>
        <time>2019-06-09T12:03:57+02:00</time>
      </trkpt>
      <trkpt lat="41.70034467000001" lon="2.041545">
        <ele>97.0</ele>
        <time>2019-06-09T12:03:58+02:00</time>
      </trkpt>
      <trkpt lat="41.70033234" lon="2.0417016699999997">
        <ele>97.0</ele>
        <time>2019-06-09T12:03:59+02:00</time>
      </trkpt>
      <trkpt lat="41.70029833999999" lon="2.0418250000000002">
        <ele>97.0</ele>
        <time>2019-06-09T12:04:00+02:00</time>
      </trkpt>
      <trkpt lat="41.70026033999999" lon="2.0419150000000004">
        <ele>97.0</ele>
        <time>2019-06-09T12:04:01+02:00</time>
      </trkpt>
      <trkpt lat="41.70017333999999" lon="2.04202">
        <ele>97.0</ele>
        <time>2019-06-09T12:04:02+02:00</time>
      </trkpt>
      <trkpt lat="41.70010499999999" lon="2.04212667">
        <ele>97.0</ele>
        <time>2019-06-09T12:04:03+02:00</time>
      </trkpt>
      <trkpt lat="41.700042999999994" lon="2.0422433399999997">
        <ele>97.0</ele>
        <time>2019-06-09T12:04:04+02:00</time>
      </trkpt>
      <trkpt lat="41.699991" lon="2.04236">
        <ele>97.0</ele>
        <time>2019-06-09T12:04:05+02:00</time>
      </trkpt>
      <trkpt lat="41.699934670000005" lon="2.0425">
        <ele>97.0</ele>
        <time>2019-06-09T12:04:06+02:00</time>
      </trkpt>
      <trkpt lat="41.69990233999999" lon="2.042595">
        <ele>98.0</ele>
        <time>2019-06-09T12:04:07+02:00</time>
      </trkpt>
      <trkpt lat="41.699862339999996" lon="2.04273667">
        <ele>98.0</ele>
        <time>2019-06-09T12:04:08+02:00</time>
      </trkpt>
      <trkpt lat="41.699848" lon="2.0428416699999996">
        <ele>98.0</ele>
        <time>2019-06-09T12:04:09+02:00</time>
      </trkpt>
      <trkpt lat="41.699888339999994" lon="2.0429716699999996">
        <ele>98.0</ele>
        <time>2019-06-09T12:04:10+02:00</time>
      </trkpt>
      <trkpt lat="41.699888339999994" lon="2.0431">
        <ele>98.0</ele>
        <time>2019-06-09T12:04:11+02:00</time>
      </trkpt>
      <trkpt lat="41.699874" lon="2.0432566700000003">
        <ele>99.0</ele>
        <time>2019-06-09T12:04:12+02:00</time>
      </trkpt>
      <trkpt lat="41.699849670000006" lon="2.0433533399999995">
        <ele>99.0</ele>
        <time>2019-06-09T12:04:13+02:00</time>
      </trkpt>
      <trkpt lat="41.699796000000006" lon="2.04348">
        <ele>99.0</ele>
        <time>2019-06-09T12:04:14+02:00</time>
      </trkpt>
      <trkpt lat="41.699737670000005" lon="2.04355334">
        <ele>99.0</ele>
        <time>2019-06-09T12:04:15+02:00</time>
      </trkpt>
      <trkpt lat="41.699603339999996" lon="2.04359">
        <ele>99.0</ele>
        <time>2019-06-09T12:04:16+02:00</time>
      </trkpt>
      <trkpt lat="41.69950667" lon="2.043625">
        <ele>100.0</ele>
        <time>2019-06-09T12:04:17+02:00</time>
      </trkpt>
      <trkpt lat="41.69941334" lon="2.04366">
        <ele>100.0</ele>
        <time>2019-06-09T12:04:18+02:00</time>
      </trkpt>
      <trkpt lat="41.69931667000001" lon="2.04369334">
        <ele>100.0</ele>
        <time>2019-06-09T12:04:19+02:00</time>
      </trkpt>
      <trkpt lat="41.699223339999996" lon="2.04373">
        <ele>101.0</ele>
        <time>2019-06-09T12:04:20+02:00</time>
      </trkpt>
      <trkpt lat="41.69913" lon="2.04377067">
        <ele>101.0</ele>
        <time>2019-06-09T12:04:21+02:00</time>
      </trkpt>
      <trkpt lat="41.69903334000001" lon="2.0438083399999996">
        <ele>102.0</ele>
        <time>2019-06-09T12:04:22+02:00</time>
      </trkpt>
      <trkpt lat="41.698938340000005" lon="2.0438439999999995">
        <ele>102.0</ele>
        <time>2019-06-09T12:04:23+02:00</time>
      </trkpt>
      <trkpt lat="41.698815" lon="2.0438856699999994">
        <ele>103.0</ele>
        <time>2019-06-09T12:04:24+02:00</time>
      </trkpt>
      <trkpt lat="41.698685" lon="2.04393234">
        <ele>103.0</ele>
        <time>2019-06-09T12:04:25+02:00</time>
      </trkpt>
      <trkpt lat="41.698605" lon="2.0439839999999996">
        <ele>103.0</ele>
        <time>2019-06-09T12:04:26+02:00</time>
      </trkpt>
      <trkpt lat="41.698555" lon="2.04403567">
        <ele>103.0</ele>
        <time>2019-06-09T12:04:27+02:00</time>
      </trkpt>
      <trkpt lat="41.69848667" lon="2.044107">
        <ele>104.0</ele>
        <time>2019-06-09T12:04:28+02:00</time>
      </trkpt>
      <trkpt lat="41.698426669999996" lon="2.044315">
        <ele>104.0</ele>
        <time>2019-06-09T12:04:29+02:00</time>
      </trkpt>
      <trkpt lat="41.69836" lon="2.0444183399999996">
        <ele>105.0</ele>
        <time>2019-06-09T12:04:30+02:00</time>
      </trkpt>
      <trkpt lat="41.698296670000005" lon="2.044523">
        <ele>105.0</ele>
        <time>2019-06-09T12:04:31+02:00</time>
      </trkpt>
      <trkpt lat="41.698225" lon="2.044599">
        <ele>106.0</ele>
        <time>2019-06-09T12:04:32+02:00</time>
      </trkpt>
      <trkpt lat="41.698130000000006" lon="2.044665">
        <ele>106.0</ele>
        <time>2019-06-09T12:04:33+02:00</time>
      </trkpt>
      <trkpt lat="41.69801334" lon="2.0447193399999994">
        <ele>107.0</ele>
        <time>2019-06-09T12:04:34+02:00</time>
      </trkpt>
      <trkpt lat="41.69789667" lon="2.0446599999999995">
        <ele>107.0</ele>
        <time>2019-06-09T12:04:35+02:00</time>
      </trkpt>
      <trkpt lat="41.697775" lon="2.0446383399999997">
        <ele>107.0</ele>
        <time>2019-06-09T12:04:36+02:00</time>
      </trkpt>
      <trkpt lat="41.69763499999999" lon="2.04457">
        <ele>108.0</ele>
        <time>2019-06-09T12:04:37+02:00</time>
      </trkpt>
      <trkpt lat="41.697545000000005" lon="2.0445016700000003">
        <ele>108.0</ele>
        <time>2019-06-09T12:04:38+02:00</time>
      </trkpt>
      <trkpt lat="41.69746167" lon="2.04445167">
        <ele>109.0</ele>
        <time>2019-06-09T12:04:39+02:00</time>
      </trkpt>
      <trkpt lat="41.69737833999999" lon="2.0444283399999996">
        <ele>109.0</ele>
        <time>2019-06-09T12:04:40+02:00</time>
      </trkpt>
      <trkpt lat="41.69731334" lon="2.0444299999999997">
        <ele>110.0</ele>
        <time>2019-06-09T12:04:41+02:00</time>
      </trkpt>
      <trkpt lat="41.69723667" lon="2.0444546699999995">
        <ele>110.0</ele>
        <time>2019-06-09T12:04:42+02:00</time>
      </trkpt>
      <trkpt lat="41.69717333999999" lon="2.04450667">
        <ele>110.0</ele>
        <time>2019-06-09T12:04:43+02:00</time>
      </trkpt>
      <trkpt lat="41.69711667" lon="2.04463667">
        <ele>111.0</ele>
        <time>2019-06-09T12:04:44+02:00</time>
      </trkpt>
      <trkpt lat="41.69706334000001" lon="2.04473834">
        <ele>111.0</ele>
        <time>2019-06-09T12:04:45+02:00</time>
      </trkpt>
      <trkpt lat="41.69700667" lon="2.0448399999999998">
        <ele>111.0</ele>
        <time>2019-06-09T12:04:46+02:00</time>
      </trkpt>
      <trkpt lat="41.69694834" lon="2.04493667">
        <ele>112.0</ele>
        <time>2019-06-09T12:04:47+02:00</time>
      </trkpt>
      <trkpt lat="41.69690334" lon="2.04504">
        <ele>112.0</ele>
        <time>2019-06-09T12:04:48+02:00</time>
      </trkpt>
      <trkpt lat="41.69686500000001" lon="2.04515167">
        <ele>112.0</ele>
        <time>2019-06-09T12:04:49+02:00</time>
      </trkpt>
      <trkpt lat="41.69681667000001" lon="2.0452649999999997">
        <ele>113.0</ele>
        <time>2019-06-09T12:04:50+02:00</time>
      </trkpt>
      <trkpt lat="41.69676334" lon="2.0453716699999998">
        <ele>113.0</ele>
        <time>2019-06-09T12:04:51+02:00</time>
      </trkpt>
      <trkpt lat="41.696697670000006" lon="2.045465">
        <ele>113.0</ele>
        <time>2019-06-09T12:04:52+02:00</time>
      </trkpt>
      <trkpt lat="41.69662967000001" lon="2.04555167">
        <ele>114.0</ele>
        <time>2019-06-09T12:04:53+02:00</time>
      </trkpt>
      <trkpt lat="41.696546" lon="2.045655">
        <ele>114.0</ele>
        <time>2019-06-09T12:04:54+02:00</time>
      </trkpt>
      <trkpt lat="41.696488" lon="2.04572">
        <ele>114.0</ele>
        <time>2019-06-09T12:04:55+02:00</time>
      </trkpt>
      <trkpt lat="41.69639667" lon="2.0457983399999997">
        <ele>115.0</ele>
        <time>2019-06-09T12:04:56+02:00</time>
      </trkpt>
      <trkpt lat="41.69631" lon="2.045855">
        <ele>115.0</ele>
        <time>2019-06-09T12:04:57+02:00</time>
      </trkpt>
      <trkpt lat="41.696220000000004" lon="2.04588667">
        <ele>115.0</ele>
        <time>2019-06-09T12:04:58+02:00</time>
      </trkpt>
      <trkpt lat="41.696133339999996" lon="2.0458716699999995">
        <ele>115.0</ele>
        <time>2019-06-09T12:04:59+02:00</time>
      </trkpt>
      <trkpt lat="41.69602000000001" lon="2.04582667">
        <ele>116.0</ele>
        <time>2019-06-09T12:05:00+02:00</time>
      </trkpt>
      <trkpt lat="41.695949999999996" lon="2.04578667">
        <ele>116.0</ele>
        <time>2019-06-09T12:05:01+02:00</time>
      </trkpt>
      <trkpt lat="41.69584667000001" lon="2.04574">
        <ele>116.0</ele>
        <time>2019-06-09T12:05:02+02:00</time>
      </trkpt>
      <trkpt lat="41.69578" lon="2.0457283399999997">
        <ele>116.0</ele>
        <time>2019-06-09T12:05:03+02:00</time>
      </trkpt>
      <trkpt lat="41.695705" lon="2.0457346700000003">
        <ele>117.0</ele>
        <time>2019-06-09T12:05:04+02:00</time>
      </trkpt>
      <trkpt lat="41.695638339999995" lon="2.045763">
        <ele>117.0</ele>
        <time>2019-06-09T12:05:05+02:00</time>
      </trkpt>
      <trkpt lat="41.69556334" lon="2.0458283399999995">
        <ele>117.0</ele>
        <time>2019-06-09T12:05:06+02:00</time>
      </trkpt>
      <trkpt lat="41.695546670000006" lon="2.0459616699999996">
        <ele>118.0</ele>
        <time>2019-06-09T12:05:07+02:00</time>
      </trkpt>
      <trkpt lat="41.69555334" lon="2.0460583399999996">
        <ele>118.0</ele>
        <time>2019-06-09T12:05:08+02:00</time>
      </trkpt>
      <trkpt lat="41.69555167" lon="2.04619167">
        <ele>118.0</ele>
        <time>2019-06-09T12:05:09+02:00</time>
      </trkpt>
      <trkpt lat="41.695533340000004" lon="2.0462783399999998">
        <ele>119.0</ele>
        <time>2019-06-09T12:05:10+02:00</time>
      </trkpt>
      <trkpt lat="41.695495" lon="2.0463916699999998">
        <ele>119.0</ele>
        <time>2019-06-09T12:05:11+02:00</time>
      </trkpt>
      <trkpt lat="41.69545" lon="2.0464866699999997">
        <ele>119.0</ele>
        <time>2019-06-09T12:05:12+02:00</time>
      </trkpt>
      <trkpt lat="41.695411" lon="2.04656167">
        <ele>120.0</ele>
        <time>2019-06-09T12:05:13+02:00</time>
      </trkpt>
      <trkpt lat="41.695365" lon="2.04665167">
        <ele>120.0</ele>
        <time>2019-06-09T12:05:14+02:00</time>
      </trkpt>
      <trkpt lat="41.69532033999999" lon="2.04674167">
        <ele>120.0</ele>
        <time>2019-06-09T12:05:15+02:00</time>
      </trkpt>
      <trkpt lat="41.69528233999999" lon="2.04683334">
        <ele>120.0</ele>
        <time>2019-06-09T12:05:16+02:00</time>
      </trkpt>
      <trkpt lat="41.69524767" lon="2.04694">
        <ele>121.0</ele>
        <time>2019-06-09T12:05:17+02:00</time>
      </trkpt>
      <trkpt lat="41.695219339999994" lon="2.0470499999999996">
        <ele>121.0</ele>
        <time>2019-06-09T12:05:18+02:00</time>
      </trkpt>
      <trkpt lat="41.69518434" lon="2.04717667">
        <ele>121.0</ele>
        <time>2019-06-09T12:05:19+02:00</time>
      </trkpt>
      <trkpt lat="41.69516433999999" lon="2.04725834">
        <ele>121.0</ele>
        <time>2019-06-09T12:05:20+02:00</time>
      </trkpt>
      <trkpt lat="41.69513267000001" lon="2.04734834">
        <ele>121.0</ele>
        <time>2019-06-09T12:05:21+02:00</time>
      </trkpt>
      <trkpt lat="41.695097999999994" lon="2.04742667">
        <ele>121.0</ele>
        <time>2019-06-09T12:05:22+02:00</time>
      </trkpt>
      <trkpt lat="41.69505834" lon="2.0474900000000003">
        <ele>122.0</ele>
        <time>2019-06-09T12:05:23+02:00</time>
      </trkpt>
      <trkpt lat="41.69493000000001" lon="2.04754667">
        <ele>122.0</ele>
        <time>2019-06-09T12:05:24+02:00</time>
      </trkpt>
      <trkpt lat="41.69486800000001" lon="2.047615">
        <ele>122.0</ele>
        <time>2019-06-09T12:05:25+02:00</time>
      </trkpt>
      <trkpt lat="41.694809670000005" lon="2.0476900000000002">
        <ele>122.0</ele>
        <time>2019-06-09T12:05:26+02:00</time>
      </trkpt>
      <trkpt lat="41.69475866999999" lon="2.04778167">
        <ele>122.0</ele>
        <time>2019-06-09T12:05:27+02:00</time>
      </trkpt>
      <trkpt lat="41.69472400000001" lon="2.04788834">
        <ele>122.0</ele>
        <time>2019-06-09T12:05:28+02:00</time>
      </trkpt>
      <trkpt lat="41.694731669999996" lon="2.048025">
        <ele>122.0</ele>
        <time>2019-06-09T12:05:29+02:00</time>
      </trkpt>
      <trkpt lat="41.694731669999996" lon="2.0481133399999996">
        <ele>122.0</ele>
        <time>2019-06-09T12:05:30+02:00</time>
      </trkpt>
      <trkpt lat="41.69472" lon="2.0482216699999998">
        <ele>122.0</ele>
        <time>2019-06-09T12:05:31+02:00</time>
      </trkpt>
      <trkpt lat="41.694694670000004" lon="2.0483249999999997">
        <ele>122.0</ele>
        <time>2019-06-09T12:05:32+02:00</time>
      </trkpt>
      <trkpt lat="41.69465699999999" lon="2.04841334">
        <ele>122.0</ele>
        <time>2019-06-09T12:05:33+02:00</time>
      </trkpt>
      <trkpt lat="41.69461199999999" lon="2.04849">
        <ele>122.0</ele>
        <time>2019-06-09T12:05:34+02:00</time>
      </trkpt>
      <trkpt lat="41.69456100000001" lon="2.0485433399999997">
        <ele>122.0</ele>
        <time>2019-06-09T12:05:35+02:00</time>
      </trkpt>
      <trkpt lat="41.694448339999994" lon="2.0485700000000002">
        <ele>122.0</ele>
        <time>2019-06-09T12:05:36+02:00</time>
      </trkpt>
      <trkpt lat="41.69437167000001" lon="2.04856334">
        <ele>122.0</ele>
        <time>2019-06-09T12:05:37+02:00</time>
      </trkpt>
      <trkpt lat="41.69429167" lon="2.04852667">
        <ele>122.0</ele>
        <time>2019-06-09T12:05:38+02:00</time>
      </trkpt>
      <trkpt lat="41.69421167" lon="2.0484883399999996">
        <ele>122.0</ele>
        <time>2019-06-09T12:05:39+02:00</time>
      </trkpt>
      <trkpt lat="41.694134999999996" lon="2.04846">
        <ele>122.0</ele>
        <time>2019-06-09T12:05:40+02:00</time>
      </trkpt>
      <trkpt lat="41.69405667000001" lon="2.04845167">
        <ele>122.0</ele>
        <time>2019-06-09T12:05:41+02:00</time>
      </trkpt>
      <trkpt lat="41.693975" lon="2.04846">
        <ele>122.0</ele>
        <time>2019-06-09T12:05:42+02:00</time>
      </trkpt>
      <trkpt lat="41.69389667" lon="2.04848467">
        <ele>122.0</ele>
        <time>2019-06-09T12:05:43+02:00</time>
      </trkpt>
      <trkpt lat="41.69382334" lon="2.04852534">
        <ele>122.0</ele>
        <time>2019-06-09T12:05:44+02:00</time>
      </trkpt>
      <trkpt lat="41.69369167000001" lon="2.04870167">
        <ele>122.0</ele>
        <time>2019-06-09T12:05:45+02:00</time>
      </trkpt>
      <trkpt lat="41.69364334" lon="2.04879834">
        <ele>122.0</ele>
        <time>2019-06-09T12:05:46+02:00</time>
      </trkpt>
      <trkpt lat="41.693608340000004" lon="2.0489">
        <ele>122.0</ele>
        <time>2019-06-09T12:05:47+02:00</time>
      </trkpt>
      <trkpt lat="41.69357167" lon="2.04900667">
        <ele>122.0</ele>
        <time>2019-06-09T12:05:48+02:00</time>
      </trkpt>
      <trkpt lat="41.69354" lon="2.049115">
        <ele>122.0</ele>
        <time>2019-06-09T12:05:49+02:00</time>
      </trkpt>
      <trkpt lat="41.69351833999999" lon="2.049225">
        <ele>122.0</ele>
        <time>2019-06-09T12:05:50+02:00</time>
      </trkpt>
      <trkpt lat="41.69349834" lon="2.0493333399999996">
        <ele>122.0</ele>
        <time>2019-06-09T12:05:51+02:00</time>
      </trkpt>
      <trkpt lat="41.69347833999999" lon="2.04944834">
        <ele>122.0</ele>
        <time>2019-06-09T12:05:52+02:00</time>
      </trkpt>
      <trkpt lat="41.693475" lon="2.0495683399999995">
        <ele>122.0</ele>
        <time>2019-06-09T12:05:53+02:00</time>
      </trkpt>
      <trkpt lat="41.69347833999999" lon="2.0496883399999994">
        <ele>122.0</ele>
        <time>2019-06-09T12:05:54+02:00</time>
      </trkpt>
      <trkpt lat="41.69348167" lon="2.0498083399999993">
        <ele>122.0</ele>
        <time>2019-06-09T12:05:55+02:00</time>
      </trkpt>
      <trkpt lat="41.69349334" lon="2.04995667">
        <ele>122.0</ele>
        <time>2019-06-09T12:05:56+02:00</time>
      </trkpt>
      <trkpt lat="41.69349467" lon="2.0500549999999995">
        <ele>122.0</ele>
        <time>2019-06-09T12:05:57+02:00</time>
      </trkpt>
      <trkpt lat="41.69349100000001" lon="2.0501799999999997">
        <ele>122.0</ele>
        <time>2019-06-09T12:05:58+02:00</time>
      </trkpt>
      <trkpt lat="41.693474" lon="2.0503016699999996">
        <ele>122.0</ele>
        <time>2019-06-09T12:05:59+02:00</time>
      </trkpt>
      <trkpt lat="41.69344134" lon="2.050415">
        <ele>122.0</ele>
        <time>2019-06-09T12:06:00+02:00</time>
      </trkpt>
      <trkpt lat="41.69339633999999" lon="2.0505150000000003">
        <ele>122.0</ele>
        <time>2019-06-09T12:06:01+02:00</time>
      </trkpt>
      <trkpt lat="41.69329667" lon="2.05059334">
        <ele>122.0</ele>
        <time>2019-06-09T12:06:02+02:00</time>
      </trkpt>
      <trkpt lat="41.693214999999995" lon="2.05064667">
        <ele>122.0</ele>
        <time>2019-06-09T12:06:03+02:00</time>
      </trkpt>
      <trkpt lat="41.69312167000001" lon="2.05069167">
        <ele>122.0</ele>
        <time>2019-06-09T12:06:04+02:00</time>
      </trkpt>
      <trkpt lat="41.69302334" lon="2.05071667">
        <ele>122.0</ele>
        <time>2019-06-09T12:06:05+02:00</time>
      </trkpt>
      <trkpt lat="41.692925" lon="2.05072334">
        <ele>122.0</ele>
        <time>2019-06-09T12:06:06+02:00</time>
      </trkpt>
      <trkpt lat="41.69282833999999" lon="2.0506883399999998">
        <ele>122.0</ele>
        <time>2019-06-09T12:06:07+02:00</time>
      </trkpt>
      <trkpt lat="41.692728339999995" lon="2.0506633400000003">
        <ele>122.0</ele>
        <time>2019-06-09T12:06:08+02:00</time>
      </trkpt>
      <trkpt lat="41.69263334" lon="2.050625">
        <ele>123.0</ele>
        <time>2019-06-09T12:06:09+02:00</time>
      </trkpt>
      <trkpt lat="41.692535" lon="2.05059334">
        <ele>123.0</ele>
        <time>2019-06-09T12:06:10+02:00</time>
      </trkpt>
      <trkpt lat="41.692436670000006" lon="2.0505850000000003">
        <ele>123.0</ele>
        <time>2019-06-09T12:06:11+02:00</time>
      </trkpt>
      <trkpt lat="41.692345" lon="2.0505983399999996">
        <ele>123.0</ele>
        <time>2019-06-09T12:06:12+02:00</time>
      </trkpt>
      <trkpt lat="41.69224834" lon="2.0506216699999995">
        <ele>123.0</ele>
        <time>2019-06-09T12:06:13+02:00</time>
      </trkpt>
      <trkpt lat="41.69215167" lon="2.050637">
        <ele>123.0</ele>
        <time>2019-06-09T12:06:14+02:00</time>
      </trkpt>
      <trkpt lat="41.692060000000005" lon="2.05063767">
        <ele>123.0</ele>
        <time>2019-06-09T12:06:15+02:00</time>
      </trkpt>
      <trkpt lat="41.691970000000005" lon="2.05061567">
        <ele>123.0</ele>
        <time>2019-06-09T12:06:16+02:00</time>
      </trkpt>
      <trkpt lat="41.69187667" lon="2.0505843399999995">
        <ele>123.0</ele>
        <time>2019-06-09T12:06:17+02:00</time>
      </trkpt>
      <trkpt lat="41.69177499999999" lon="2.05054867">
        <ele>123.0</ele>
        <time>2019-06-09T12:06:18+02:00</time>
      </trkpt>
      <trkpt lat="41.69168499999999" lon="2.050528">
        <ele>123.0</ele>
        <time>2019-06-09T12:06:19+02:00</time>
      </trkpt>
      <trkpt lat="41.69160333999999" lon="2.0505306699999997">
        <ele>123.0</ele>
        <time>2019-06-09T12:06:20+02:00</time>
      </trkpt>
      <trkpt lat="41.69154" lon="2.05063667">
        <ele>123.0</ele>
        <time>2019-06-09T12:06:21+02:00</time>
      </trkpt>
      <trkpt lat="41.69149334" lon="2.05074167">
        <ele>123.0</ele>
        <time>2019-06-09T12:06:22+02:00</time>
      </trkpt>
      <trkpt lat="41.69146334" lon="2.0508866699999997">
        <ele>123.0</ele>
        <time>2019-06-09T12:06:23+02:00</time>
      </trkpt>
      <trkpt lat="41.69144834" lon="2.05099">
        <ele>123.0</ele>
        <time>2019-06-09T12:06:24+02:00</time>
      </trkpt>
      <trkpt lat="41.6914" lon="2.0511209999999997">
        <ele>123.0</ele>
        <time>2019-06-09T12:06:25+02:00</time>
      </trkpt>
      <trkpt lat="41.69134167000001" lon="2.05121634">
        <ele>123.0</ele>
        <time>2019-06-09T12:06:26+02:00</time>
      </trkpt>
      <trkpt lat="41.69127" lon="2.05129667">
        <ele>123.0</ele>
        <time>2019-06-09T12:06:27+02:00</time>
      </trkpt>
      <trkpt lat="41.69119833999999" lon="2.0513633399999995">
        <ele>123.0</ele>
        <time>2019-06-09T12:06:28+02:00</time>
      </trkpt>
      <trkpt lat="41.69112833999999" lon="2.051431">
        <ele>123.0</ele>
        <time>2019-06-09T12:06:29+02:00</time>
      </trkpt>
      <trkpt lat="41.691064999999995" lon="2.051495">
        <ele>123.0</ele>
        <time>2019-06-09T12:06:30+02:00</time>
      </trkpt>
      <trkpt lat="41.69098167" lon="2.0515893399999996">
        <ele>123.0</ele>
        <time>2019-06-09T12:06:31+02:00</time>
      </trkpt>
      <trkpt lat="41.69092500000001" lon="2.05166434">
        <ele>123.0</ele>
        <time>2019-06-09T12:06:32+02:00</time>
      </trkpt>
      <trkpt lat="41.690868339999994" lon="2.05174467">
        <ele>123.0</ele>
        <time>2019-06-09T12:06:33+02:00</time>
      </trkpt>
      <trkpt lat="41.69080667" lon="2.05183434">
        <ele>122.0</ele>
        <time>2019-06-09T12:06:34+02:00</time>
      </trkpt>
      <trkpt lat="41.690740000000005" lon="2.0519316699999997">
        <ele>122.0</ele>
        <time>2019-06-09T12:06:35+02:00</time>
      </trkpt>
      <trkpt lat="41.690688339999994" lon="2.0520416699999995">
        <ele>122.0</ele>
        <time>2019-06-09T12:06:36+02:00</time>
      </trkpt>
      <trkpt lat="41.69061667" lon="2.05215667">
        <ele>122.0</ele>
        <time>2019-06-09T12:06:37+02:00</time>
      </trkpt>
      <trkpt lat="41.69056267" lon="2.0522616699999996">
        <ele>122.0</ele>
        <time>2019-06-09T12:06:38+02:00</time>
      </trkpt>
      <trkpt lat="41.690514" lon="2.0523716699999994">
        <ele>122.0</ele>
        <time>2019-06-09T12:06:39+02:00</time>
      </trkpt>
      <trkpt lat="41.69047467" lon="2.05248834">
        <ele>122.0</ele>
        <time>2019-06-09T12:06:40+02:00</time>
      </trkpt>
      <trkpt lat="41.69043967" lon="2.05260834">
        <ele>122.0</ele>
        <time>2019-06-09T12:06:41+02:00</time>
      </trkpt>
      <trkpt lat="41.690403669999995" lon="2.05273167">
        <ele>121.0</ele>
        <time>2019-06-09T12:06:42+02:00</time>
      </trkpt>
      <trkpt lat="41.69036633999999" lon="2.0528500000000003">
        <ele>121.0</ele>
        <time>2019-06-09T12:06:43+02:00</time>
      </trkpt>
      <trkpt lat="41.69033466999999" lon="2.05292167">
        <ele>121.0</ele>
        <time>2019-06-09T12:06:44+02:00</time>
      </trkpt>
      <trkpt lat="41.690281000000006" lon="2.0530033399999996">
        <ele>121.0</ele>
        <time>2019-06-09T12:06:45+02:00</time>
      </trkpt>
      <trkpt lat="41.69015499999999" lon="2.0530316699999998">
        <ele>121.0</ele>
        <time>2019-06-09T12:06:46+02:00</time>
      </trkpt>
      <trkpt lat="41.69005" lon="2.0530916699999997">
        <ele>121.0</ele>
        <time>2019-06-09T12:06:47+02:00</time>
      </trkpt>
      <trkpt lat="41.689986669999996" lon="2.05314534">
        <ele>120.0</ele>
        <time>2019-06-09T12:06:48+02:00</time>
      </trkpt>
      <trkpt lat="41.689901670000005" lon="2.0532276699999996">
        <ele>120.0</ele>
        <time>2019-06-09T12:06:49+02:00</time>
      </trkpt>
      <trkpt lat="41.68981667000001" lon="2.0533176699999998">
        <ele>120.0</ele>
        <time>2019-06-09T12:06:50+02:00</time>
      </trkpt>
      <trkpt lat="41.689735" lon="2.0534073400000006">
        <ele>120.0</ele>
        <time>2019-06-09T12:06:51+02:00</time>
      </trkpt>
      <trkpt lat="41.68965" lon="2.0534966699999995">
        <ele>120.0</ele>
        <time>2019-06-09T12:06:52+02:00</time>
      </trkpt>
      <trkpt lat="41.689558340000005" lon="2.0535900000000002">
        <ele>120.0</ele>
        <time>2019-06-09T12:06:53+02:00</time>
      </trkpt>
      <trkpt lat="41.689476670000005" lon="2.053674">
        <ele>120.0</ele>
        <time>2019-06-09T12:06:54+02:00</time>
      </trkpt>
      <trkpt lat="41.689384999999994" lon="2.0537650000000003">
        <ele>119.0</ele>
        <time>2019-06-09T12:06:55+02:00</time>
      </trkpt>
      <trkpt lat="41.68929167" lon="2.05385334">
        <ele>119.0</ele>
        <time>2019-06-09T12:06:56+02:00</time>
      </trkpt>
      <trkpt lat="41.68918167" lon="2.0539616699999996">
        <ele>119.0</ele>
        <time>2019-06-09T12:06:57+02:00</time>
      </trkpt>
      <trkpt lat="41.68909334" lon="2.05405134">
        <ele>119.0</ele>
        <time>2019-06-09T12:06:58+02:00</time>
      </trkpt>
      <trkpt lat="41.689004999999995" lon="2.054142">
        <ele>119.0</ele>
        <time>2019-06-09T12:06:59+02:00</time>
      </trkpt>
      <trkpt lat="41.688911669999996" lon="2.054241">
        <ele>119.0</ele>
        <time>2019-06-09T12:07:00+02:00</time>
      </trkpt>
      <trkpt lat="41.688835" lon="2.054322">
        <ele>119.0</ele>
        <time>2019-06-09T12:07:01+02:00</time>
      </trkpt>
      <trkpt lat="41.68872667000001" lon="2.05443834">
        <ele>119.0</ele>
        <time>2019-06-09T12:07:02+02:00</time>
      </trkpt>
      <trkpt lat="41.688633339999996" lon="2.05453734">
        <ele>119.0</ele>
        <time>2019-06-09T12:07:03+02:00</time>
      </trkpt>
      <trkpt lat="41.68855834" lon="2.054622">
        <ele>119.0</ele>
        <time>2019-06-09T12:07:04+02:00</time>
      </trkpt>
      <trkpt lat="41.68843667" lon="2.054746669999999">
        <ele>119.0</ele>
        <time>2019-06-09T12:07:05+02:00</time>
      </trkpt>
      <trkpt lat="41.688334999999995" lon="2.054846">
        <ele>119.0</ele>
        <time>2019-06-09T12:07:06+02:00</time>
      </trkpt>
      <trkpt lat="41.688225" lon="2.054952">
        <ele>119.0</ele>
        <time>2019-06-09T12:07:07+02:00</time>
      </trkpt>
      <trkpt lat="41.68811334" lon="2.05504967">
        <ele>119.0</ele>
        <time>2019-06-09T12:07:08+02:00</time>
      </trkpt>
      <trkpt lat="41.688073339999995" lon="2.05510034">
        <ele>119.0</ele>
        <time>2019-06-09T12:07:09+02:00</time>
      </trkpt>
      <trkpt lat="41.68802667000001" lon="2.05527667">
        <ele>119.0</ele>
        <time>2019-06-09T12:07:10+02:00</time>
      </trkpt>
      <trkpt lat="41.68798334" lon="2.05542167">
        <ele>119.0</ele>
        <time>2019-06-09T12:07:11+02:00</time>
      </trkpt>
      <trkpt lat="41.68793667" lon="2.0555616700000003">
        <ele>119.0</ele>
        <time>2019-06-09T12:07:12+02:00</time>
      </trkpt>
      <trkpt lat="41.687948999999996" lon="2.055678339999999">
        <ele>119.0</ele>
        <time>2019-06-09T12:07:13+02:00</time>
      </trkpt>
      <trkpt lat="41.68786567000001" lon="2.0557349999999994">
        <ele>119.0</ele>
        <time>2019-06-09T12:07:14+02:00</time>
      </trkpt>
      <trkpt lat="41.68766667000001" lon="2.05573167">
        <ele>119.0</ele>
        <time>2019-06-09T12:07:15+02:00</time>
      </trkpt>
      <trkpt lat="41.68758" lon="2.0557433400000003">
        <ele>119.0</ele>
        <time>2019-06-09T12:07:16+02:00</time>
      </trkpt>
      <trkpt lat="41.687468339999995" lon="2.05576">
        <ele>119.0</ele>
        <time>2019-06-09T12:07:17+02:00</time>
      </trkpt>
      <trkpt lat="41.68735667" lon="2.055775">
        <ele>119.0</ele>
        <time>2019-06-09T12:07:18+02:00</time>
      </trkpt>
      <trkpt lat="41.687241670000006" lon="2.0557933399999997">
        <ele>119.0</ele>
        <time>2019-06-09T12:07:19+02:00</time>
      </trkpt>
      <trkpt lat="41.68710333999999" lon="2.05582">
        <ele>119.0</ele>
        <time>2019-06-09T12:07:20+02:00</time>
      </trkpt>
      <trkpt lat="41.68700667" lon="2.0558353400000002">
        <ele>119.0</ele>
        <time>2019-06-09T12:07:21+02:00</time>
      </trkpt>
      <trkpt lat="41.68686167" lon="2.05586467">
        <ele>119.0</ele>
        <time>2019-06-09T12:07:22+02:00</time>
      </trkpt>
      <trkpt lat="41.686764999999994" lon="2.05588834">
        <ele>119.0</ele>
        <time>2019-06-09T12:07:23+02:00</time>
      </trkpt>
      <trkpt lat="41.68662167000001" lon="2.05592067">
        <ele>119.0</ele>
        <time>2019-06-09T12:07:24+02:00</time>
      </trkpt>
      <trkpt lat="41.686528339999995" lon="2.055943">
        <ele>119.0</ele>
        <time>2019-06-09T12:07:25+02:00</time>
      </trkpt>
      <trkpt lat="41.68640499999999" lon="2.055972">
        <ele>119.0</ele>
        <time>2019-06-09T12:07:26+02:00</time>
      </trkpt>
      <trkpt lat="41.68626667" lon="2.0559996700000003">
        <ele>119.0</ele>
        <time>2019-06-09T12:07:27+02:00</time>
      </trkpt>
      <trkpt lat="41.68616334" lon="2.0560129999999996">
        <ele>119.0</ele>
        <time>2019-06-09T12:07:28+02:00</time>
      </trkpt>
      <trkpt lat="41.68601833999999" lon="2.05602234">
        <ele>119.0</ele>
        <time>2019-06-09T12:07:29+02:00</time>
      </trkpt>
      <trkpt lat="41.68591834" lon="2.056019">
        <ele>119.0</ele>
        <time>2019-06-09T12:07:30+02:00</time>
      </trkpt>
      <trkpt lat="41.68579334" lon="2.05601134">
        <ele>119.0</ele>
        <time>2019-06-09T12:07:31+02:00</time>
      </trkpt>
      <trkpt lat="41.685678339999996" lon="2.05599667">
        <ele>119.0</ele>
        <time>2019-06-09T12:07:32+02:00</time>
      </trkpt>
      <trkpt lat="41.68557667" lon="2.0559583399999997">
        <ele>119.0</ele>
        <time>2019-06-09T12:07:33+02:00</time>
      </trkpt>
      <trkpt lat="41.68544833999999" lon="2.055908">
        <ele>119.0</ele>
        <time>2019-06-09T12:07:34+02:00</time>
      </trkpt>
      <trkpt lat="41.68536" lon="2.0556400000000004">
        <ele>119.0</ele>
        <time>2019-06-09T12:07:35+02:00</time>
      </trkpt>
      <trkpt lat="41.68522167000001" lon="2.055537">
        <ele>119.0</ele>
        <time>2019-06-09T12:07:36+02:00</time>
      </trkpt>
      <trkpt lat="41.685125" lon="2.05547534">
        <ele>118.0</ele>
        <time>2019-06-09T12:07:37+02:00</time>
      </trkpt>
      <trkpt lat="41.68499834000001" lon="2.0554003399999994">
        <ele>118.0</ele>
        <time>2019-06-09T12:07:38+02:00</time>
      </trkpt>
      <trkpt lat="41.68484334" lon="2.055317">
        <ele>118.0</ele>
        <time>2019-06-09T12:07:39+02:00</time>
      </trkpt>
      <trkpt lat="41.684735" lon="2.055302">
        <ele>118.0</ele>
        <time>2019-06-09T12:07:40+02:00</time>
      </trkpt>
      <trkpt lat="41.684593340000006" lon="2.0552966699999997">
        <ele>118.0</ele>
        <time>2019-06-09T12:07:41+02:00</time>
      </trkpt>
      <trkpt lat="41.684458340000006" lon="2.05531167">
        <ele>118.0</ele>
        <time>2019-06-09T12:07:42+02:00</time>
      </trkpt>
      <trkpt lat="41.68433167" lon="2.05543834">
        <ele>118.0</ele>
        <time>2019-06-09T12:07:43+02:00</time>
      </trkpt>
      <trkpt lat="41.684205000000006" lon="2.0554966699999992">
        <ele>117.0</ele>
        <time>2019-06-09T12:07:44+02:00</time>
      </trkpt>
      <trkpt lat="41.68410834" lon="2.0555299999999996">
        <ele>117.0</ele>
        <time>2019-06-09T12:07:45+02:00</time>
      </trkpt>
      <trkpt lat="41.68397667000001" lon="2.05548834">
        <ele>117.0</ele>
        <time>2019-06-09T12:07:46+02:00</time>
      </trkpt>
      <trkpt lat="41.68386167" lon="2.05544634">
        <ele>117.0</ele>
        <time>2019-06-09T12:07:47+02:00</time>
      </trkpt>
      <trkpt lat="41.683749999999996" lon="2.05540067">
        <ele>116.0</ele>
        <time>2019-06-09T12:07:48+02:00</time>
      </trkpt>
      <trkpt lat="41.68364167000001" lon="2.0553266700000004">
        <ele>116.0</ele>
        <time>2019-06-09T12:07:49+02:00</time>
      </trkpt>
      <trkpt lat="41.68353499999999" lon="2.0552633399999998">
        <ele>116.0</ele>
        <time>2019-06-09T12:07:50+02:00</time>
      </trkpt>
      <trkpt lat="41.683409999999995" lon="2.0551913399999995">
        <ele>116.0</ele>
        <time>2019-06-09T12:07:51+02:00</time>
      </trkpt>
      <trkpt lat="41.68330667" lon="2.0551306699999996">
        <ele>116.0</ele>
        <time>2019-06-09T12:07:52+02:00</time>
      </trkpt>
      <trkpt lat="41.68322667" lon="2.0550810000000004">
        <ele>116.0</ele>
        <time>2019-06-09T12:07:53+02:00</time>
      </trkpt>
      <trkpt lat="41.68312667" lon="2.05502134">
        <ele>115.0</ele>
        <time>2019-06-09T12:07:54+02:00</time>
      </trkpt>
      <trkpt lat="41.683006670000005" lon="2.05494834">
        <ele>115.0</ele>
        <time>2019-06-09T12:07:55+02:00</time>
      </trkpt>
      <trkpt lat="41.682925000000004" lon="2.0549016700000005">
        <ele>115.0</ele>
        <time>2019-06-09T12:07:56+02:00</time>
      </trkpt>
      <trkpt lat="41.68282834" lon="2.0548503399999998">
        <ele>114.0</ele>
        <time>2019-06-09T12:07:57+02:00</time>
      </trkpt>
      <trkpt lat="41.68271" lon="2.0548113399999997">
        <ele>114.0</ele>
        <time>2019-06-09T12:07:58+02:00</time>
      </trkpt>
      <trkpt lat="41.682608339999994" lon="2.054799">
        <ele>114.0</ele>
        <time>2019-06-09T12:07:59+02:00</time>
      </trkpt>
      <trkpt lat="41.682505000000006" lon="2.0549283399999996">
        <ele>114.0</ele>
        <time>2019-06-09T12:08:00+02:00</time>
      </trkpt>
      <trkpt lat="41.68242334" lon="2.0549616699999995">
        <ele>114.0</ele>
        <time>2019-06-09T12:08:01+02:00</time>
      </trkpt>
      <trkpt lat="41.68229834" lon="2.05501334">
        <ele>114.0</ele>
        <time>2019-06-09T12:08:02+02:00</time>
      </trkpt>
      <trkpt lat="41.682195" lon="2.05505467">
        <ele>114.0</ele>
        <time>2019-06-09T12:08:03+02:00</time>
      </trkpt>
      <trkpt lat="41.68209" lon="2.05510067">
        <ele>114.0</ele>
        <time>2019-06-09T12:08:04+02:00</time>
      </trkpt>
      <trkpt lat="41.68200834" lon="2.0551393399999998">
        <ele>114.0</ele>
        <time>2019-06-09T12:08:05+02:00</time>
      </trkpt>
      <trkpt lat="41.681886670000004" lon="2.0552016699999998">
        <ele>114.0</ele>
        <time>2019-06-09T12:08:06+02:00</time>
      </trkpt>
      <trkpt lat="41.68179" lon="2.055257">
        <ele>114.0</ele>
        <time>2019-06-09T12:08:07+02:00</time>
      </trkpt>
      <trkpt lat="41.681715000000004" lon="2.0552979999999996">
        <ele>114.0</ele>
        <time>2019-06-09T12:08:08+02:00</time>
      </trkpt>
      <trkpt lat="41.681621670000006" lon="2.0553450000000004">
        <ele>114.0</ele>
        <time>2019-06-09T12:08:09+02:00</time>
      </trkpt>
      <trkpt lat="41.681525" lon="2.05538534">
        <ele>114.0</ele>
        <time>2019-06-09T12:08:10+02:00</time>
      </trkpt>
      <trkpt lat="41.681428340000004" lon="2.05542067">
        <ele>114.0</ele>
        <time>2019-06-09T12:08:11+02:00</time>
      </trkpt>
      <trkpt lat="41.681315000000005" lon="2.055461">
        <ele>114.0</ele>
        <time>2019-06-09T12:08:12+02:00</time>
      </trkpt>
      <trkpt lat="41.68124167" lon="2.0554849999999996">
        <ele>114.0</ele>
        <time>2019-06-09T12:08:13+02:00</time>
      </trkpt>
      <trkpt lat="41.681136669999994" lon="2.0555250000000003">
        <ele>114.0</ele>
        <time>2019-06-09T12:08:14+02:00</time>
      </trkpt>
      <trkpt lat="41.68107667" lon="2.05554734">
        <ele>114.0</ele>
        <time>2019-06-09T12:08:15+02:00</time>
      </trkpt>
      <trkpt lat="41.68099667" lon="2.0555779999999997">
        <ele>114.0</ele>
        <time>2019-06-09T12:08:16+02:00</time>
      </trkpt>
      <trkpt lat="41.68090667" lon="2.05561267">
        <ele>114.0</ele>
        <time>2019-06-09T12:08:17+02:00</time>
      </trkpt>
      <trkpt lat="41.68082167000001" lon="2.05564767">
        <ele>114.0</ele>
        <time>2019-06-09T12:08:18+02:00</time>
      </trkpt>
      <trkpt lat="41.68074500000001" lon="2.0556766699999995">
        <ele>114.0</ele>
        <time>2019-06-09T12:08:19+02:00</time>
      </trkpt>
      <trkpt lat="41.68067167" lon="2.05570667">
        <ele>114.0</ele>
        <time>2019-06-09T12:08:20+02:00</time>
      </trkpt>
      <trkpt lat="41.680598339999996" lon="2.0557333399999997">
        <ele>114.0</ele>
        <time>2019-06-09T12:08:21+02:00</time>
      </trkpt>
      <trkpt lat="41.68052834" lon="2.055761">
        <ele>114.0</ele>
        <time>2019-06-09T12:08:22+02:00</time>
      </trkpt>
      <trkpt lat="41.680460000000004" lon="2.0557849999999998">
        <ele>114.0</ele>
        <time>2019-06-09T12:08:23+02:00</time>
      </trkpt>
      <trkpt lat="41.680398339999996" lon="2.05580967">
        <ele>114.0</ele>
        <time>2019-06-09T12:08:24+02:00</time>
      </trkpt>
      <trkpt lat="41.68033334" lon="2.05583634">
        <ele>114.0</ele>
        <time>2019-06-09T12:08:26+02:00</time>
      </trkpt>
      <trkpt lat="41.680263339999996" lon="2.0558650000000003">
        <ele>114.0</ele>
        <time>2019-06-09T12:08:27+02:00</time>
      </trkpt>
      <trkpt lat="41.68018667" lon="2.0558959999999997">
        <ele>114.0</ele>
        <time>2019-06-09T12:08:28+02:00</time>
      </trkpt>
      <trkpt lat="41.68011834" lon="2.0559236700000003">
        <ele>114.0</ele>
        <time>2019-06-09T12:08:29+02:00</time>
      </trkpt>
      <trkpt lat="41.680038339999996" lon="2.055956">
        <ele>114.0</ele>
        <time>2019-06-09T12:08:30+02:00</time>
      </trkpt>
      <trkpt lat="41.67998667" lon="2.05597734">
        <ele>114.0</ele>
        <time>2019-06-09T12:08:31+02:00</time>
      </trkpt>
      <trkpt lat="41.67990167000001" lon="2.05601234">
        <ele>114.0</ele>
        <time>2019-06-09T12:08:32+02:00</time>
      </trkpt>
      <trkpt lat="41.679831670000006" lon="2.0560413399999997">
        <ele>114.0</ele>
        <time>2019-06-09T12:08:33+02:00</time>
      </trkpt>
      <trkpt lat="41.67968667" lon="2.05609967">
        <ele>114.0</ele>
        <time>2019-06-09T12:08:34+02:00</time>
      </trkpt>
      <trkpt lat="41.67960333999999" lon="2.0561273399999997">
        <ele>114.0</ele>
        <time>2019-06-09T12:08:35+02:00</time>
      </trkpt>
      <trkpt lat="41.679541670000006" lon="2.056152">
        <ele>114.0</ele>
        <time>2019-06-09T12:08:36+02:00</time>
      </trkpt>
      <trkpt lat="41.67948" lon="2.05617634">
        <ele>115.0</ele>
        <time>2019-06-09T12:08:37+02:00</time>
      </trkpt>
      <trkpt lat="41.67941667000001" lon="2.056202">
        <ele>115.0</ele>
        <time>2019-06-09T12:08:38+02:00</time>
      </trkpt>
      <trkpt lat="41.679355" lon="2.056227">
        <ele>115.0</ele>
        <time>2019-06-09T12:08:39+02:00</time>
      </trkpt>
      <trkpt lat="41.67927000000001" lon="2.05626167">
        <ele>115.0</ele>
        <time>2019-06-09T12:08:40+02:00</time>
      </trkpt>
      <trkpt lat="41.67920667" lon="2.056294">
        <ele>115.0</ele>
        <time>2019-06-09T12:08:41+02:00</time>
      </trkpt>
      <trkpt lat="41.679145000000005" lon="2.0563200000000004">
        <ele>115.0</ele>
        <time>2019-06-09T12:08:42+02:00</time>
      </trkpt>
      <trkpt lat="41.679091670000005" lon="2.056342">
        <ele>115.0</ele>
        <time>2019-06-09T12:08:43+02:00</time>
      </trkpt>
      <trkpt lat="41.67903167000001" lon="2.05636667">
        <ele>115.0</ele>
        <time>2019-06-09T12:08:44+02:00</time>
      </trkpt>
      <trkpt lat="41.67897333999999" lon="2.0563903399999997">
        <ele>115.0</ele>
        <time>2019-06-09T12:08:45+02:00</time>
      </trkpt>
      <trkpt lat="41.67890667" lon="2.056418">
        <ele>115.0</ele>
        <time>2019-06-09T12:08:46+02:00</time>
      </trkpt>
      <trkpt lat="41.678861669999996" lon="2.05644334">
        <ele>115.0</ele>
        <time>2019-06-09T12:08:47+02:00</time>
      </trkpt>
      <trkpt lat="41.67882667" lon="2.05645867">
        <ele>115.0</ele>
        <time>2019-06-09T12:08:48+02:00</time>
      </trkpt>
      <trkpt lat="41.67879833999999" lon="2.0564783399999995">
        <ele>115.0</ele>
        <time>2019-06-09T12:08:49+02:00</time>
      </trkpt>
      <trkpt lat="41.67876667" lon="2.0566466699999997">
        <ele>114.0</ele>
        <time>2019-06-09T12:08:51+02:00</time>
      </trkpt>
      <trkpt lat="41.67871" lon="2.056718">
        <ele>114.0</ele>
        <time>2019-06-09T12:08:53+02:00</time>
      </trkpt>
      <trkpt lat="41.67871334" lon="2.0567833399999995">
        <ele>113.0</ele>
        <time>2019-06-09T12:08:55+02:00</time>
      </trkpt>
      <trkpt lat="41.67878834" lon="2.056785">
        <ele>112.0</ele>
        <time>2019-06-09T12:08:58+02:00</time>
      </trkpt>
      <trkpt lat="41.67886" lon="2.0567566699999995">
        <ele>112.0</ele>
        <time>2019-06-09T12:09:00+02:00</time>
      </trkpt>
      <trkpt lat="41.678925" lon="2.05673334">
        <ele>112.0</ele>
        <time>2019-06-09T12:09:02+02:00</time>
      </trkpt>
      <trkpt lat="41.67897167000001" lon="2.05674367">
        <ele>111.0</ele>
        <time>2019-06-09T12:09:04+02:00</time>
      </trkpt>
      <trkpt lat="41.67893667" lon="2.0568049999999998">
        <ele>110.0</ele>
        <time>2019-06-09T12:09:08+02:00</time>
      </trkpt>
      <trkpt lat="41.678881669999996" lon="2.0568383399999997">
        <ele>108.0</ele>
        <time>2019-06-09T12:09:10+02:00</time>
      </trkpt>
      <trkpt lat="41.67894" lon="2.0568">
        <ele>106.0</ele>
        <time>2019-06-09T12:09:14+02:00</time>
      </trkpt>
      <trkpt lat="41.678995" lon="2.05677334">
        <ele>105.0</ele>
        <time>2019-06-09T12:09:16+02:00</time>
      </trkpt>
      <trkpt lat="41.679028339999995" lon="2.05681667">
        <ele>104.0</ele>
        <time>2019-06-09T12:09:19+02:00</time>
      </trkpt>
      <trkpt lat="41.67897167000001" lon="2.056832">
        <ele>101.0</ele>
        <time>2019-06-09T12:09:22+02:00</time>
      </trkpt>
      <trkpt lat="41.678909999999995" lon="2.0568733399999997">
        <ele>99.0</ele>
        <time>2019-06-09T12:09:24+02:00</time>
      </trkpt>
      <trkpt lat="41.678853339999996" lon="2.0568906699999996">
        <ele>98.0</ele>
        <time>2019-06-09T12:09:26+02:00</time>
      </trkpt>
      <trkpt lat="41.67880834" lon="2.05690734">
        <ele>92.0</ele>
        <time>2019-06-09T12:09:30+02:00</time>
      </trkpt>
      <trkpt lat="41.678763339999996" lon="2.0569133400000004">
        <ele>-11.0</ele>
        <time>2019-06-09T12:11:48+02:00</time>
      </trkpt>
      <trkpt lat="41.67876834" lon="2.05697667">
        <ele>-16.0</ele>
        <time>2019-06-09T12:11:55+02:00</time>
      </trkpt>
      <trkpt lat="41.67872667" lon="2.0570033399999996">
        <ele>-16.0</ele>
        <time>2019-06-09T12:11:57+02:00</time>
      </trkpt>
      <trkpt lat="41.678675000000005" lon="2.0570483399999997">
        <ele>-17.0</ele>
        <time>2019-06-09T12:11:59+02:00</time>
      </trkpt>
      <trkpt lat="41.67862" lon="2.0570999999999997">
        <ele>-17.0</ele>
        <time>2019-06-09T12:12:01+02:00</time>
      </trkpt>
      <trkpt lat="41.67858" lon="2.0571349999999997">
        <ele>-17.0</ele>
        <time>2019-06-09T12:12:02+02:00</time>
      </trkpt>
      <trkpt lat="41.67851334" lon="2.05720934">
        <ele>-16.0</ele>
        <time>2019-06-09T12:12:04+02:00</time>
      </trkpt>
      <trkpt lat="41.67844167000001" lon="2.05728234">
        <ele>-15.0</ele>
        <time>2019-06-09T12:12:06+02:00</time>
      </trkpt>
      <trkpt lat="41.67839667" lon="2.057319">
        <ele>-15.0</ele>
        <time>2019-06-09T12:12:07+02:00</time>
      </trkpt>
      <trkpt lat="41.678345" lon="2.0573596700000003">
        <ele>-14.0</ele>
        <time>2019-06-09T12:12:08+02:00</time>
      </trkpt>
      <trkpt lat="41.678263339999994" lon="2.0574233399999997">
        <ele>-13.0</ele>
        <time>2019-06-09T12:12:10+02:00</time>
      </trkpt>
      <trkpt lat="41.678223339999995" lon="2.0574529999999998">
        <ele>-13.0</ele>
        <time>2019-06-09T12:12:11+02:00</time>
      </trkpt>
      <trkpt lat="41.67817167" lon="2.05751167">
        <ele>-12.0</ele>
        <time>2019-06-09T12:12:13+02:00</time>
      </trkpt>
      <trkpt lat="41.67819000000001" lon="2.05762">
        <ele>-12.0</ele>
        <time>2019-06-09T12:12:15+02:00</time>
      </trkpt>
      <trkpt lat="41.67822667" lon="2.0576966699999995">
        <ele>-11.0</ele>
        <time>2019-06-09T12:12:17+02:00</time>
      </trkpt>
      <trkpt lat="41.678264999999996" lon="2.0577716699999997">
        <ele>-10.0</ele>
        <time>2019-06-09T12:12:19+02:00</time>
      </trkpt>
      <trkpt lat="41.678296669999995" lon="2.05784">
        <ele>-9.0</ele>
        <time>2019-06-09T12:12:21+02:00</time>
      </trkpt>
      <trkpt lat="41.678335" lon="2.0578883400000003">
        <ele>-7.0</ele>
        <time>2019-06-09T12:12:23+02:00</time>
      </trkpt>
      <trkpt lat="41.67838" lon="2.05792">
        <ele>-6.0</ele>
        <time>2019-06-09T12:12:25+02:00</time>
      </trkpt>
      <trkpt lat="41.67841500000001" lon="2.05795834">
        <ele>-6.0</ele>
        <time>2019-06-09T12:12:27+02:00</time>
      </trkpt>
      <trkpt lat="41.67844667000001" lon="2.0580299999999996">
        <ele>-4.0</ele>
        <time>2019-06-09T12:12:30+02:00</time>
      </trkpt>
      <trkpt lat="41.67848034" lon="2.0580683399999997">
        <ele>-3.0</ele>
        <time>2019-06-09T12:12:33+02:00</time>
      </trkpt>
      <trkpt lat="41.678535" lon="2.05810667">
        <ele>0.0</ele>
        <time>2019-06-09T12:12:37+02:00</time>
      </trkpt>
      <trkpt lat="41.67857667" lon="2.0581400000000003">
        <ele>2.0</ele>
        <time>2019-06-09T12:12:41+02:00</time>
      </trkpt>
      <trkpt lat="41.67862" lon="2.05815667">
        <ele>5.0</ele>
        <time>2019-06-09T12:12:45+02:00</time>
      </trkpt>
      <trkpt lat="41.67866667" lon="2.0582133399999996">
        <ele>7.0</ele>
        <time>2019-06-09T12:12:50+02:00</time>
      </trkpt>
      <trkpt lat="41.67870333999999" lon="2.0582556699999994">
        <ele>9.0</ele>
        <time>2019-06-09T12:12:53+02:00</time>
      </trkpt>
      <trkpt lat="41.67874167" lon="2.0583216699999998">
        <ele>10.0</ele>
        <time>2019-06-09T12:12:56+02:00</time>
      </trkpt>
      <trkpt lat="41.67877500000001" lon="2.0583800000000005">
        <ele>11.0</ele>
        <time>2019-06-09T12:12:59+02:00</time>
      </trkpt>
      <trkpt lat="41.678796670000004" lon="2.058445">
        <ele>12.0</ele>
        <time>2019-06-09T12:13:02+02:00</time>
      </trkpt>
      <trkpt lat="41.678827999999996" lon="2.0585116699999997">
        <ele>14.0</ele>
        <time>2019-06-09T12:13:06+02:00</time>
      </trkpt>
      <trkpt lat="41.67885834" lon="2.05856167">
        <ele>16.0</ele>
        <time>2019-06-09T12:13:09+02:00</time>
      </trkpt>
      <trkpt lat="41.678893" lon="2.0586183399999998">
        <ele>17.0</ele>
        <time>2019-06-09T12:13:12+02:00</time>
      </trkpt>
      <trkpt lat="41.67893134" lon="2.0586683399999997">
        <ele>19.0</ele>
        <time>2019-06-09T12:13:15+02:00</time>
      </trkpt>
      <trkpt lat="41.67897033999999" lon="2.0587466699999997">
        <ele>20.0</ele>
        <time>2019-06-09T12:13:18+02:00</time>
      </trkpt>
      <trkpt lat="41.67899767" lon="2.05881167">
        <ele>22.0</ele>
        <time>2019-06-09T12:13:21+02:00</time>
      </trkpt>
      <trkpt lat="41.67902733999999" lon="2.0588699999999998">
        <ele>23.0</ele>
        <time>2019-06-09T12:13:24+02:00</time>
      </trkpt>
      <trkpt lat="41.679058669999996" lon="2.0589233399999998">
        <ele>25.0</ele>
        <time>2019-06-09T12:13:28+02:00</time>
      </trkpt>
      <trkpt lat="41.67908867" lon="2.0589783399999995">
        <ele>28.0</ele>
        <time>2019-06-09T12:13:31+02:00</time>
      </trkpt>
      <trkpt lat="41.679111670000005" lon="2.05904834">
        <ele>29.0</ele>
        <time>2019-06-09T12:13:34+02:00</time>
      </trkpt>
      <trkpt lat="41.679081669999995" lon="2.05912834">
        <ele>31.0</ele>
        <time>2019-06-09T12:13:37+02:00</time>
      </trkpt>
      <trkpt lat="41.67910167" lon="2.0592083399999996">
        <ele>32.0</ele>
        <time>2019-06-09T12:13:40+02:00</time>
      </trkpt>
      <trkpt lat="41.67912834" lon="2.059285">
        <ele>34.0</ele>
        <time>2019-06-09T12:13:43+02:00</time>
      </trkpt>
      <trkpt lat="41.679139670000005" lon="2.059375">
        <ele>35.0</ele>
        <time>2019-06-09T12:13:46+02:00</time>
      </trkpt>
      <trkpt lat="41.67915067" lon="2.05943667">
        <ele>35.0</ele>
        <time>2019-06-09T12:13:48+02:00</time>
      </trkpt>
      <trkpt lat="41.67916667000001" lon="2.0595066699999998">
        <ele>36.0</ele>
        <time>2019-06-09T12:13:50+02:00</time>
      </trkpt>
      <trkpt lat="41.679188999999994" lon="2.05957334">
        <ele>36.0</ele>
        <time>2019-06-09T12:13:52+02:00</time>
      </trkpt>
      <trkpt lat="41.67921067" lon="2.0596333399999995">
        <ele>36.0</ele>
        <time>2019-06-09T12:13:54+02:00</time>
      </trkpt>
      <trkpt lat="41.679236" lon="2.0597033399999995">
        <ele>37.0</ele>
        <time>2019-06-09T12:13:56+02:00</time>
      </trkpt>
      <trkpt lat="41.67926134" lon="2.05977334">
        <ele>37.0</ele>
        <time>2019-06-09T12:13:58+02:00</time>
      </trkpt>
      <trkpt lat="41.67929033999999" lon="2.0598483399999994">
        <ele>38.0</ele>
        <time>2019-06-09T12:14:00+02:00</time>
      </trkpt>
      <trkpt lat="41.679320669999996" lon="2.0599233399999997">
        <ele>39.0</ele>
        <time>2019-06-09T12:14:02+02:00</time>
      </trkpt>
      <trkpt lat="41.67934999999999" lon="2.059995">
        <ele>40.0</ele>
        <time>2019-06-09T12:14:04+02:00</time>
      </trkpt>
      <trkpt lat="41.679381670000005" lon="2.060075">
        <ele>42.0</ele>
        <time>2019-06-09T12:14:06+02:00</time>
      </trkpt>
      <trkpt lat="41.679407999999995" lon="2.0601416699999997">
        <ele>44.0</ele>
        <time>2019-06-09T12:14:08+02:00</time>
      </trkpt>
      <trkpt lat="41.67943767" lon="2.06021">
        <ele>45.0</ele>
        <time>2019-06-09T12:14:10+02:00</time>
      </trkpt>
      <trkpt lat="41.679468670000006" lon="2.06026667">
        <ele>47.0</ele>
        <time>2019-06-09T12:14:12+02:00</time>
      </trkpt>
      <trkpt lat="41.67955334" lon="2.06031167">
        <ele>49.0</ele>
        <time>2019-06-09T12:14:13+02:00</time>
      </trkpt>
      <trkpt lat="41.679610000000004" lon="2.06035167">
        <ele>51.0</ele>
        <time>2019-06-09T12:14:15+02:00</time>
      </trkpt>
      <trkpt lat="41.67966667" lon="2.06038967">
        <ele>53.0</ele>
        <time>2019-06-09T12:14:17+02:00</time>
      </trkpt>
      <trkpt lat="41.679719999999996" lon="2.0604263400000002">
        <ele>55.0</ele>
        <time>2019-06-09T12:14:19+02:00</time>
      </trkpt>
      <trkpt lat="41.679775" lon="2.0604646700000004">
        <ele>57.0</ele>
        <time>2019-06-09T12:14:21+02:00</time>
      </trkpt>
      <trkpt lat="41.67983667" lon="2.0605066699999997">
        <ele>58.0</ele>
        <time>2019-06-09T12:14:23+02:00</time>
      </trkpt>
      <trkpt lat="41.679885" lon="2.06054">
        <ele>59.0</ele>
        <time>2019-06-09T12:14:25+02:00</time>
      </trkpt>
      <trkpt lat="41.679936670000004" lon="2.06057967">
        <ele>61.0</ele>
        <time>2019-06-09T12:14:27+02:00</time>
      </trkpt>
      <trkpt lat="41.67998834" lon="2.0606223399999997">
        <ele>63.0</ele>
        <time>2019-06-09T12:14:29+02:00</time>
      </trkpt>
      <trkpt lat="41.68004667" lon="2.0606696700000002">
        <ele>65.0</ele>
        <time>2019-06-09T12:14:31+02:00</time>
      </trkpt>
      <trkpt lat="41.68009667" lon="2.0607106699999997">
        <ele>66.0</ele>
        <time>2019-06-09T12:14:33+02:00</time>
      </trkpt>
      <trkpt lat="41.68016167" lon="2.0607599999999997">
        <ele>68.0</ele>
        <time>2019-06-09T12:14:35+02:00</time>
      </trkpt>
      <trkpt lat="41.68021" lon="2.06079634">
        <ele>69.0</ele>
        <time>2019-06-09T12:14:37+02:00</time>
      </trkpt>
      <trkpt lat="41.68027334" lon="2.0608443399999996">
        <ele>71.0</ele>
        <time>2019-06-09T12:14:39+02:00</time>
      </trkpt>
      <trkpt lat="41.680328339999996" lon="2.0608853399999996">
        <ele>71.0</ele>
        <time>2019-06-09T12:14:41+02:00</time>
      </trkpt>
      <trkpt lat="41.68038334" lon="2.06092734">
        <ele>74.0</ele>
        <time>2019-06-09T12:14:43+02:00</time>
      </trkpt>
      <trkpt lat="41.68043834" lon="2.060969">
        <ele>75.0</ele>
        <time>2019-06-09T12:14:45+02:00</time>
      </trkpt>
      <trkpt lat="41.68049667000001" lon="2.06101267">
        <ele>76.0</ele>
        <time>2019-06-09T12:14:47+02:00</time>
      </trkpt>
      <trkpt lat="41.680541670000004" lon="2.0610493400000003">
        <ele>78.0</ele>
        <time>2019-06-09T12:14:49+02:00</time>
      </trkpt>
      <trkpt lat="41.68059167000001" lon="2.06109">
        <ele>79.0</ele>
        <time>2019-06-09T12:14:51+02:00</time>
      </trkpt>
      <trkpt lat="41.680645000000005" lon="2.061133">
        <ele>80.0</ele>
        <time>2019-06-09T12:14:53+02:00</time>
      </trkpt>
      <trkpt lat="41.68070667" lon="2.0611806699999997">
        <ele>81.0</ele>
        <time>2019-06-09T12:14:55+02:00</time>
      </trkpt>
      <trkpt lat="41.68075834" lon="2.0612203399999998">
        <ele>82.0</ele>
        <time>2019-06-09T12:14:57+02:00</time>
      </trkpt>
      <trkpt lat="41.68081334" lon="2.06126267">
        <ele>84.0</ele>
        <time>2019-06-09T12:14:59+02:00</time>
      </trkpt>
      <trkpt lat="41.68086667000001" lon="2.0613063400000002">
        <ele>85.0</ele>
        <time>2019-06-09T12:15:01+02:00</time>
      </trkpt>
      <trkpt lat="41.68092167000001" lon="2.06134934">
        <ele>86.0</ele>
        <time>2019-06-09T12:15:03+02:00</time>
      </trkpt>
      <trkpt lat="41.68097833999999" lon="2.061393">
        <ele>87.0</ele>
        <time>2019-06-09T12:15:05+02:00</time>
      </trkpt>
      <trkpt lat="41.681033340000006" lon="2.0614383399999996">
        <ele>88.0</ele>
        <time>2019-06-09T12:15:07+02:00</time>
      </trkpt>
      <trkpt lat="41.681090000000005" lon="2.06148234">
        <ele>89.0</ele>
        <time>2019-06-09T12:15:09+02:00</time>
      </trkpt>
      <trkpt lat="41.68113834" lon="2.0615203400000004">
        <ele>90.0</ele>
        <time>2019-06-09T12:15:11+02:00</time>
      </trkpt>
      <trkpt lat="41.68119" lon="2.0615639999999997">
        <ele>91.0</ele>
        <time>2019-06-09T12:15:13+02:00</time>
      </trkpt>
      <trkpt lat="41.68124667000001" lon="2.0616079999999997">
        <ele>92.0</ele>
        <time>2019-06-09T12:15:15+02:00</time>
      </trkpt>
      <trkpt lat="41.681306670000005" lon="2.06165467">
        <ele>93.0</ele>
        <time>2019-06-09T12:15:17+02:00</time>
      </trkpt>
      <trkpt lat="41.681351670000005" lon="2.06169">
        <ele>94.0</ele>
        <time>2019-06-09T12:15:19+02:00</time>
      </trkpt>
      <trkpt lat="41.68140834" lon="2.061734">
        <ele>95.0</ele>
        <time>2019-06-09T12:15:21+02:00</time>
      </trkpt>
      <trkpt lat="41.68146834" lon="2.0617803399999994">
        <ele>96.0</ele>
        <time>2019-06-09T12:15:23+02:00</time>
      </trkpt>
      <trkpt lat="41.681526670000004" lon="2.06182134">
        <ele>97.0</ele>
        <time>2019-06-09T12:15:25+02:00</time>
      </trkpt>
      <trkpt lat="41.68158667000001" lon="2.0618676700000003">
        <ele>98.0</ele>
        <time>2019-06-09T12:15:27+02:00</time>
      </trkpt>
      <trkpt lat="41.68164500000001" lon="2.06191234">
        <ele>99.0</ele>
        <time>2019-06-09T12:15:29+02:00</time>
      </trkpt>
      <trkpt lat="41.68169833999999" lon="2.06195367">
        <ele>100.0</ele>
        <time>2019-06-09T12:15:31+02:00</time>
      </trkpt>
      <trkpt lat="41.68174667000001" lon="2.06199067">
        <ele>101.0</ele>
        <time>2019-06-09T12:15:33+02:00</time>
      </trkpt>
      <trkpt lat="41.681805000000004" lon="2.062036">
        <ele>102.0</ele>
        <time>2019-06-09T12:15:35+02:00</time>
      </trkpt>
      <trkpt lat="41.68186167" lon="2.06208">
        <ele>103.0</ele>
        <time>2019-06-09T12:15:37+02:00</time>
      </trkpt>
      <trkpt lat="41.68192333999999" lon="2.0621279999999995">
        <ele>104.0</ele>
        <time>2019-06-09T12:15:39+02:00</time>
      </trkpt>
      <trkpt lat="41.681985000000005" lon="2.0621753399999996">
        <ele>106.0</ele>
        <time>2019-06-09T12:15:41+02:00</time>
      </trkpt>
      <trkpt lat="41.68204334" lon="2.06222067">
        <ele>107.0</ele>
        <time>2019-06-09T12:15:43+02:00</time>
      </trkpt>
      <trkpt lat="41.68210499999999" lon="2.06226867">
        <ele>108.0</ele>
        <time>2019-06-09T12:15:45+02:00</time>
      </trkpt>
      <trkpt lat="41.68216667" lon="2.0623163399999997">
        <ele>109.0</ele>
        <time>2019-06-09T12:15:47+02:00</time>
      </trkpt>
      <trkpt lat="41.682221670000004" lon="2.06235967">
        <ele>110.0</ele>
        <time>2019-06-09T12:15:49+02:00</time>
      </trkpt>
      <trkpt lat="41.68227334" lon="2.06240634">
        <ele>110.0</ele>
        <time>2019-06-09T12:15:51+02:00</time>
      </trkpt>
      <trkpt lat="41.682311670000004" lon="2.0624436699999995">
        <ele>111.0</ele>
        <time>2019-06-09T12:15:53+02:00</time>
      </trkpt>
      <trkpt lat="41.682325000000006" lon="2.0626583399999996">
        <ele>112.0</ele>
        <time>2019-06-09T12:15:55+02:00</time>
      </trkpt>
      <trkpt lat="41.68232833999999" lon="2.06275167">
        <ele>112.0</ele>
        <time>2019-06-09T12:15:57+02:00</time>
      </trkpt>
      <trkpt lat="41.68230334" lon="2.062855">
        <ele>113.0</ele>
        <time>2019-06-09T12:15:59+02:00</time>
      </trkpt>
      <trkpt lat="41.682264999999994" lon="2.0629483399999997">
        <ele>113.0</ele>
        <time>2019-06-09T12:16:01+02:00</time>
      </trkpt>
      <trkpt lat="41.68221334" lon="2.06303834">
        <ele>115.0</ele>
        <time>2019-06-09T12:16:03+02:00</time>
      </trkpt>
      <trkpt lat="41.68216334" lon="2.0631166700000003">
        <ele>115.0</ele>
        <time>2019-06-09T12:16:05+02:00</time>
      </trkpt>
      <trkpt lat="41.68212834" lon="2.06316334">
        <ele>116.0</ele>
        <time>2019-06-09T12:16:06+02:00</time>
      </trkpt>
      <trkpt lat="41.68206167" lon="2.06321">
        <ele>116.0</ele>
        <time>2019-06-09T12:16:08+02:00</time>
      </trkpt>
      <trkpt lat="41.68199334" lon="2.06322167">
        <ele>116.0</ele>
        <time>2019-06-09T12:16:10+02:00</time>
      </trkpt>
      <trkpt lat="41.681918339999996" lon="2.06321334">
        <ele>116.0</ele>
        <time>2019-06-09T12:16:12+02:00</time>
      </trkpt>
      <trkpt lat="41.68185167" lon="2.06317667">
        <ele>116.0</ele>
        <time>2019-06-09T12:16:14+02:00</time>
      </trkpt>
      <trkpt lat="41.6818" lon="2.0631099999999996">
        <ele>116.0</ele>
        <time>2019-06-09T12:16:16+02:00</time>
      </trkpt>
      <trkpt lat="41.681743340000004" lon="2.06303834">
        <ele>116.0</ele>
        <time>2019-06-09T12:16:18+02:00</time>
      </trkpt>
      <trkpt lat="41.68169334" lon="2.0629833399999997">
        <ele>115.0</ele>
        <time>2019-06-09T12:16:20+02:00</time>
      </trkpt>
      <trkpt lat="41.68162667" lon="2.062945">
        <ele>115.0</ele>
        <time>2019-06-09T12:16:22+02:00</time>
      </trkpt>
      <trkpt lat="41.681560000000005" lon="2.0629386700000003">
        <ele>114.0</ele>
        <time>2019-06-09T12:16:24+02:00</time>
      </trkpt>
      <trkpt lat="41.68150667" lon="2.06297834">
        <ele>113.0</ele>
        <time>2019-06-09T12:16:26+02:00</time>
      </trkpt>
      <trkpt lat="41.68145" lon="2.06303167">
        <ele>112.0</ele>
        <time>2019-06-09T12:16:28+02:00</time>
      </trkpt>
      <trkpt lat="41.68140999999999" lon="2.0630916699999995">
        <ele>111.0</ele>
        <time>2019-06-09T12:16:30+02:00</time>
      </trkpt>
      <trkpt lat="41.68137167000001" lon="2.06316334">
        <ele>111.0</ele>
        <time>2019-06-09T12:16:32+02:00</time>
      </trkpt>
      <trkpt lat="41.68134334" lon="2.06323834">
        <ele>110.0</ele>
        <time>2019-06-09T12:16:34+02:00</time>
      </trkpt>
      <trkpt lat="41.681313339999996" lon="2.06331667">
        <ele>110.0</ele>
        <time>2019-06-09T12:16:36+02:00</time>
      </trkpt>
      <trkpt lat="41.681281340000005" lon="2.06339834">
        <ele>109.0</ele>
        <time>2019-06-09T12:16:38+02:00</time>
      </trkpt>
      <trkpt lat="41.68124967000001" lon="2.06348834">
        <ele>109.0</ele>
        <time>2019-06-09T12:16:40+02:00</time>
      </trkpt>
      <trkpt lat="41.68121867" lon="2.0635700000000003">
        <ele>108.0</ele>
        <time>2019-06-09T12:16:42+02:00</time>
      </trkpt>
      <trkpt lat="41.68118967" lon="2.0636483399999994">
        <ele>108.0</ele>
        <time>2019-06-09T12:16:44+02:00</time>
      </trkpt>
      <trkpt lat="41.68115834" lon="2.06373167">
        <ele>108.0</ele>
        <time>2019-06-09T12:16:46+02:00</time>
      </trkpt>
      <trkpt lat="41.681126670000005" lon="2.0638183399999996">
        <ele>107.0</ele>
        <time>2019-06-09T12:16:48+02:00</time>
      </trkpt>
      <trkpt lat="41.681102339999995" lon="2.063895">
        <ele>106.0</ele>
        <time>2019-06-09T12:16:50+02:00</time>
      </trkpt>
      <trkpt lat="41.68107667" lon="2.06398167">
        <ele>106.0</ele>
        <time>2019-06-09T12:16:52+02:00</time>
      </trkpt>
      <trkpt lat="41.68105267" lon="2.0640683399999995">
        <ele>105.0</ele>
        <time>2019-06-09T12:16:54+02:00</time>
      </trkpt>
      <trkpt lat="41.68103267" lon="2.06415667">
        <ele>104.0</ele>
        <time>2019-06-09T12:16:56+02:00</time>
      </trkpt>
      <trkpt lat="41.681011999999996" lon="2.0642950000000004">
        <ele>104.0</ele>
        <time>2019-06-09T12:16:59+02:00</time>
      </trkpt>
      <trkpt lat="41.68100867" lon="2.0643783399999998">
        <ele>104.0</ele>
        <time>2019-06-09T12:17:01+02:00</time>
      </trkpt>
      <trkpt lat="41.68100267" lon="2.06447667">
        <ele>104.0</ele>
        <time>2019-06-09T12:17:03+02:00</time>
      </trkpt>
      <trkpt lat="41.681002" lon="2.06456334">
        <ele>104.0</ele>
        <time>2019-06-09T12:17:05+02:00</time>
      </trkpt>
      <trkpt lat="41.68100334" lon="2.06464167">
        <ele>104.0</ele>
        <time>2019-06-09T12:17:07+02:00</time>
      </trkpt>
      <trkpt lat="41.68100234" lon="2.06473">
        <ele>105.0</ele>
        <time>2019-06-09T12:17:09+02:00</time>
      </trkpt>
      <trkpt lat="41.68100267" lon="2.0648216699999997">
        <ele>105.0</ele>
        <time>2019-06-09T12:17:11+02:00</time>
      </trkpt>
      <trkpt lat="41.68100533999999" lon="2.06491167">
        <ele>105.0</ele>
        <time>2019-06-09T12:17:13+02:00</time>
      </trkpt>
      <trkpt lat="41.681006" lon="2.0650033399999996">
        <ele>106.0</ele>
        <time>2019-06-09T12:17:15+02:00</time>
      </trkpt>
      <trkpt lat="41.68100799999999" lon="2.0650950000000003">
        <ele>106.0</ele>
        <time>2019-06-09T12:17:17+02:00</time>
      </trkpt>
      <trkpt lat="41.68101167" lon="2.06518667">
        <ele>106.0</ele>
        <time>2019-06-09T12:17:19+02:00</time>
      </trkpt>
      <trkpt lat="41.68101167" lon="2.0652766700000003">
        <ele>106.0</ele>
        <time>2019-06-09T12:17:21+02:00</time>
      </trkpt>
      <trkpt lat="41.68100867" lon="2.06536667">
        <ele>106.0</ele>
        <time>2019-06-09T12:17:23+02:00</time>
      </trkpt>
      <trkpt lat="41.681001" lon="2.06545334">
        <ele>106.0</ele>
        <time>2019-06-09T12:17:25+02:00</time>
      </trkpt>
      <trkpt lat="41.68098" lon="2.0655349999999997">
        <ele>106.0</ele>
        <time>2019-06-09T12:17:27+02:00</time>
      </trkpt>
      <trkpt lat="41.680935" lon="2.06561834">
        <ele>106.0</ele>
        <time>2019-06-09T12:17:29+02:00</time>
      </trkpt>
      <trkpt lat="41.68089" lon="2.0657033399999998">
        <ele>106.0</ele>
        <time>2019-06-09T12:17:31+02:00</time>
      </trkpt>
      <trkpt lat="41.68085" lon="2.0657799999999997">
        <ele>106.0</ele>
        <time>2019-06-09T12:17:33+02:00</time>
      </trkpt>
      <trkpt lat="41.68081434" lon="2.0658533399999994">
        <ele>106.0</ele>
        <time>2019-06-09T12:17:35+02:00</time>
      </trkpt>
      <trkpt lat="41.680778339999996" lon="2.06594">
        <ele>106.0</ele>
        <time>2019-06-09T12:17:37+02:00</time>
      </trkpt>
      <trkpt lat="41.680747339999996" lon="2.0660266700000003">
        <ele>106.0</ele>
        <time>2019-06-09T12:17:39+02:00</time>
      </trkpt>
      <trkpt lat="41.680721670000004" lon="2.06611834">
        <ele>106.0</ele>
        <time>2019-06-09T12:17:41+02:00</time>
      </trkpt>
      <trkpt lat="41.68070967" lon="2.0661783399999996">
        <ele>106.0</ele>
        <time>2019-06-09T12:17:42+02:00</time>
      </trkpt>
      <trkpt lat="41.680693000000005" lon="2.0662683399999997">
        <ele>106.0</ele>
        <time>2019-06-09T12:17:44+02:00</time>
      </trkpt>
      <trkpt lat="41.68067633999999" lon="2.06638">
        <ele>106.0</ele>
        <time>2019-06-09T12:17:46+02:00</time>
      </trkpt>
      <trkpt lat="41.680669339999994" lon="2.0664849999999992">
        <ele>106.0</ele>
        <time>2019-06-09T12:17:48+02:00</time>
      </trkpt>
      <trkpt lat="41.68066534" lon="2.0665833399999998">
        <ele>106.0</ele>
        <time>2019-06-09T12:17:50+02:00</time>
      </trkpt>
      <trkpt lat="41.680657999999994" lon="2.0666933399999996">
        <ele>106.0</ele>
        <time>2019-06-09T12:17:52+02:00</time>
      </trkpt>
      <trkpt lat="41.680655339999994" lon="2.0667999999999997">
        <ele>106.0</ele>
        <time>2019-06-09T12:17:54+02:00</time>
      </trkpt>
      <trkpt lat="41.68065134" lon="2.06691667">
        <ele>106.0</ele>
        <time>2019-06-09T12:17:56+02:00</time>
      </trkpt>
      <trkpt lat="41.68064700000001" lon="2.0670333399999996">
        <ele>107.0</ele>
        <time>2019-06-09T12:17:58+02:00</time>
      </trkpt>
      <trkpt lat="41.68065033999999" lon="2.06709334">
        <ele>107.0</ele>
        <time>2019-06-09T12:17:59+02:00</time>
      </trkpt>
      <trkpt lat="41.680648999999995" lon="2.0671666699999998">
        <ele>107.0</ele>
        <time>2019-06-09T12:18:00+02:00</time>
      </trkpt>
      <trkpt lat="41.68064733999999" lon="2.0672766700000005">
        <ele>108.0</ele>
        <time>2019-06-09T12:18:02+02:00</time>
      </trkpt>
      <trkpt lat="41.68064933999999" lon="2.06733834">
        <ele>108.0</ele>
        <time>2019-06-09T12:18:03+02:00</time>
      </trkpt>
      <trkpt lat="41.680645000000005" lon="2.06746">
        <ele>109.0</ele>
        <time>2019-06-09T12:18:05+02:00</time>
      </trkpt>
      <trkpt lat="41.680648000000005" lon="2.0675233399999997">
        <ele>109.0</ele>
        <time>2019-06-09T12:18:06+02:00</time>
      </trkpt>
      <trkpt lat="41.68064733999999" lon="2.06758667">
        <ele>110.0</ele>
        <time>2019-06-09T12:18:07+02:00</time>
      </trkpt>
      <trkpt lat="41.68064700000001" lon="2.06765">
        <ele>110.0</ele>
        <time>2019-06-09T12:18:08+02:00</time>
      </trkpt>
      <trkpt lat="41.68064700000001" lon="2.067715">
        <ele>110.0</ele>
        <time>2019-06-09T12:18:09+02:00</time>
      </trkpt>
      <trkpt lat="41.680645999999996" lon="2.0677883400000003">
        <ele>110.0</ele>
        <time>2019-06-09T12:18:10+02:00</time>
      </trkpt>
      <trkpt lat="41.68064267" lon="2.0678966699999997">
        <ele>111.0</ele>
        <time>2019-06-09T12:18:12+02:00</time>
      </trkpt>
      <trkpt lat="41.68064367000001" lon="2.0680183399999996">
        <ele>111.0</ele>
        <time>2019-06-09T12:18:14+02:00</time>
      </trkpt>
      <trkpt lat="41.680640000000004" lon="2.06808834">
        <ele>111.0</ele>
        <time>2019-06-09T12:18:15+02:00</time>
      </trkpt>
      <trkpt lat="41.680639" lon="2.06818834">
        <ele>112.0</ele>
        <time>2019-06-09T12:18:17+02:00</time>
      </trkpt>
      <trkpt lat="41.680637000000004" lon="2.0683083399999993">
        <ele>113.0</ele>
        <time>2019-06-09T12:18:19+02:00</time>
      </trkpt>
      <trkpt lat="41.68063934" lon="2.06837167">
        <ele>113.0</ele>
        <time>2019-06-09T12:18:20+02:00</time>
      </trkpt>
      <trkpt lat="41.680634999999995" lon="2.0684499999999995">
        <ele>113.0</ele>
        <time>2019-06-09T12:18:21+02:00</time>
      </trkpt>
      <trkpt lat="41.68063434" lon="2.0685650000000004">
        <ele>114.0</ele>
        <time>2019-06-09T12:18:23+02:00</time>
      </trkpt>
      <trkpt lat="41.680631340000005" lon="2.06862667">
        <ele>114.0</ele>
        <time>2019-06-09T12:18:24+02:00</time>
      </trkpt>
      <trkpt lat="41.680627" lon="2.06869834">
        <ele>115.0</ele>
        <time>2019-06-09T12:18:25+02:00</time>
      </trkpt>
      <trkpt lat="41.68062667" lon="2.06882334">
        <ele>115.0</ele>
        <time>2019-06-09T12:18:27+02:00</time>
      </trkpt>
      <trkpt lat="41.68061967" lon="2.06895667">
        <ele>116.0</ele>
        <time>2019-06-09T12:18:28+02:00</time>
      </trkpt>
      <trkpt lat="41.680616" lon="2.069025">
        <ele>116.0</ele>
        <time>2019-06-09T12:18:29+02:00</time>
      </trkpt>
      <trkpt lat="41.68061967" lon="2.0690916699999997">
        <ele>116.0</ele>
        <time>2019-06-09T12:18:30+02:00</time>
      </trkpt>
      <trkpt lat="41.68061667" lon="2.06916">
        <ele>116.0</ele>
        <time>2019-06-09T12:18:31+02:00</time>
      </trkpt>
      <trkpt lat="41.680614000000006" lon="2.06922667">
        <ele>116.0</ele>
        <time>2019-06-09T12:18:32+02:00</time>
      </trkpt>
      <trkpt lat="41.68061834" lon="2.0692933399999998">
        <ele>116.0</ele>
        <time>2019-06-09T12:18:33+02:00</time>
      </trkpt>
      <trkpt lat="41.680616" lon="2.0693633399999998">
        <ele>116.0</ele>
        <time>2019-06-09T12:18:34+02:00</time>
      </trkpt>
      <trkpt lat="41.68062034" lon="2.06944834">
        <ele>116.0</ele>
        <time>2019-06-09T12:18:35+02:00</time>
      </trkpt>
      <trkpt lat="41.68061867" lon="2.0695216699999994">
        <ele>116.0</ele>
        <time>2019-06-09T12:18:36+02:00</time>
      </trkpt>
      <trkpt lat="41.68062467000001" lon="2.0695983399999998">
        <ele>116.0</ele>
        <time>2019-06-09T12:18:37+02:00</time>
      </trkpt>
      <trkpt lat="41.680631340000005" lon="2.06967334">
        <ele>116.0</ele>
        <time>2019-06-09T12:18:38+02:00</time>
      </trkpt>
      <trkpt lat="41.68064234" lon="2.06975667">
        <ele>116.0</ele>
        <time>2019-06-09T12:18:39+02:00</time>
      </trkpt>
      <trkpt lat="41.68065467" lon="2.0698383399999996">
        <ele>116.0</ele>
        <time>2019-06-09T12:18:40+02:00</time>
      </trkpt>
      <trkpt lat="41.680668" lon="2.06992334">
        <ele>116.0</ele>
        <time>2019-06-09T12:18:41+02:00</time>
      </trkpt>
      <trkpt lat="41.680682669999996" lon="2.07001">
        <ele>116.0</ele>
        <time>2019-06-09T12:18:42+02:00</time>
      </trkpt>
      <trkpt lat="41.68069100000001" lon="2.0701">
        <ele>116.0</ele>
        <time>2019-06-09T12:18:43+02:00</time>
      </trkpt>
      <trkpt lat="41.680699999999995" lon="2.07017">
        <ele>116.0</ele>
        <time>2019-06-09T12:18:44+02:00</time>
      </trkpt>
      <trkpt lat="41.680718340000006" lon="2.0702716699999995">
        <ele>117.0</ele>
        <time>2019-06-09T12:18:45+02:00</time>
      </trkpt>
      <trkpt lat="41.68073733999999" lon="2.07035167">
        <ele>117.0</ele>
        <time>2019-06-09T12:18:46+02:00</time>
      </trkpt>
      <trkpt lat="41.68075667" lon="2.07043167">
        <ele>119.0</ele>
        <time>2019-06-09T12:18:47+02:00</time>
      </trkpt>
      <trkpt lat="41.68077667000001" lon="2.07051667">
        <ele>120.0</ele>
        <time>2019-06-09T12:18:48+02:00</time>
      </trkpt>
      <trkpt lat="41.680797670000004" lon="2.07060167">
        <ele>120.0</ele>
        <time>2019-06-09T12:18:49+02:00</time>
      </trkpt>
      <trkpt lat="41.680819" lon="2.07068834">
        <ele>121.0</ele>
        <time>2019-06-09T12:18:50+02:00</time>
      </trkpt>
      <trkpt lat="41.68084067000001" lon="2.07077667">
        <ele>121.0</ele>
        <time>2019-06-09T12:18:51+02:00</time>
      </trkpt>
      <trkpt lat="41.680863339999995" lon="2.0708650000000004">
        <ele>122.0</ele>
        <time>2019-06-09T12:18:52+02:00</time>
      </trkpt>
      <trkpt lat="41.680894" lon="2.070945">
        <ele>123.0</ele>
        <time>2019-06-09T12:18:53+02:00</time>
      </trkpt>
      <trkpt lat="41.68091667" lon="2.07102">
        <ele>124.0</ele>
        <time>2019-06-09T12:18:54+02:00</time>
      </trkpt>
      <trkpt lat="41.68093967000001" lon="2.0710950000000006">
        <ele>125.0</ele>
        <time>2019-06-09T12:18:55+02:00</time>
      </trkpt>
      <trkpt lat="41.68096167" lon="2.07115334">
        <ele>126.0</ele>
        <time>2019-06-09T12:18:56+02:00</time>
      </trkpt>
      <trkpt lat="41.680986" lon="2.0712349999999997">
        <ele>126.0</ele>
        <time>2019-06-09T12:18:57+02:00</time>
      </trkpt>
      <trkpt lat="41.681016" lon="2.07129834">
        <ele>126.0</ele>
        <time>2019-06-09T12:18:58+02:00</time>
      </trkpt>
      <trkpt lat="41.681038" lon="2.0713583399999997">
        <ele>128.0</ele>
        <time>2019-06-09T12:18:59+02:00</time>
      </trkpt>
      <trkpt lat="41.681059999999995" lon="2.0714183399999997">
        <ele>128.0</ele>
        <time>2019-06-09T12:19:00+02:00</time>
      </trkpt>
      <trkpt lat="41.68108234" lon="2.0714783399999996">
        <ele>129.0</ele>
        <time>2019-06-09T12:19:01+02:00</time>
      </trkpt>
      <trkpt lat="41.681104340000005" lon="2.071535">
        <ele>129.0</ele>
        <time>2019-06-09T12:19:02+02:00</time>
      </trkpt>
      <trkpt lat="41.68113434" lon="2.071645">
        <ele>130.0</ele>
        <time>2019-06-09T12:19:04+02:00</time>
      </trkpt>
      <trkpt lat="41.68116533999999" lon="2.07175334">
        <ele>132.0</ele>
        <time>2019-06-09T12:19:06+02:00</time>
      </trkpt>
      <trkpt lat="41.681203999999994" lon="2.0718583399999995">
        <ele>133.0</ele>
        <time>2019-06-09T12:19:08+02:00</time>
      </trkpt>
      <trkpt lat="41.68123534" lon="2.07196">
        <ele>134.0</ele>
        <time>2019-06-09T12:19:10+02:00</time>
      </trkpt>
      <trkpt lat="41.68126867000001" lon="2.07206667">
        <ele>135.0</ele>
        <time>2019-06-09T12:19:12+02:00</time>
      </trkpt>
      <trkpt lat="41.68130233999999" lon="2.0721716699999995">
        <ele>135.0</ele>
        <time>2019-06-09T12:19:14+02:00</time>
      </trkpt>
      <trkpt lat="41.68133534" lon="2.07226834">
        <ele>136.0</ele>
        <time>2019-06-09T12:19:16+02:00</time>
      </trkpt>
      <trkpt lat="41.68136234" lon="2.0723683399999997">
        <ele>136.0</ele>
        <time>2019-06-09T12:19:18+02:00</time>
      </trkpt>
      <trkpt lat="41.681398" lon="2.0724716699999997">
        <ele>136.0</ele>
        <time>2019-06-09T12:19:20+02:00</time>
      </trkpt>
      <trkpt lat="41.681434339999996" lon="2.07257167">
        <ele>136.0</ele>
        <time>2019-06-09T12:19:22+02:00</time>
      </trkpt>
      <trkpt lat="41.68146066999999" lon="2.07266">
        <ele>137.0</ele>
        <time>2019-06-09T12:19:24+02:00</time>
      </trkpt>
      <trkpt lat="41.68148834" lon="2.0727533399999998">
        <ele>137.0</ele>
        <time>2019-06-09T12:19:26+02:00</time>
      </trkpt>
      <trkpt lat="41.68150767" lon="2.07281">
        <ele>137.0</ele>
        <time>2019-06-09T12:19:27+02:00</time>
      </trkpt>
      <trkpt lat="41.68153634" lon="2.0728983399999996">
        <ele>137.0</ele>
        <time>2019-06-09T12:19:29+02:00</time>
      </trkpt>
      <trkpt lat="41.68156534" lon="2.0729866699999997">
        <ele>137.0</ele>
        <time>2019-06-09T12:19:31+02:00</time>
      </trkpt>
      <trkpt lat="41.68159367" lon="2.07306834">
        <ele>137.0</ele>
        <time>2019-06-09T12:19:33+02:00</time>
      </trkpt>
      <trkpt lat="41.681619669999996" lon="2.07313667">
        <ele>136.0</ele>
        <time>2019-06-09T12:19:35+02:00</time>
      </trkpt>
      <trkpt lat="41.681640339999994" lon="2.07318167">
        <ele>136.0</ele>
        <time>2019-06-09T12:19:36+02:00</time>
      </trkpt>
      <trkpt lat="41.68167067" lon="2.07326">
        <ele>136.0</ele>
        <time>2019-06-09T12:19:38+02:00</time>
      </trkpt>
      <trkpt lat="41.68170867" lon="2.07333167">
        <ele>135.0</ele>
        <time>2019-06-09T12:19:40+02:00</time>
      </trkpt>
      <trkpt lat="41.681945" lon="2.0734083399999994">
        <ele>135.0</ele>
        <time>2019-06-09T12:19:42+02:00</time>
      </trkpt>
      <trkpt lat="41.68201667" lon="2.07348667">
        <ele>135.0</ele>
        <time>2019-06-09T12:19:44+02:00</time>
      </trkpt>
      <trkpt lat="41.682055000000005" lon="2.073527">
        <ele>135.0</ele>
        <time>2019-06-09T12:19:45+02:00</time>
      </trkpt>
      <trkpt lat="41.682131670000004" lon="2.07360967">
        <ele>135.0</ele>
        <time>2019-06-09T12:19:47+02:00</time>
      </trkpt>
      <trkpt lat="41.68216834" lon="2.0736523399999998">
        <ele>135.0</ele>
        <time>2019-06-09T12:19:48+02:00</time>
      </trkpt>
      <trkpt lat="41.68223667" lon="2.07373367">
        <ele>135.0</ele>
        <time>2019-06-09T12:19:50+02:00</time>
      </trkpt>
      <trkpt lat="41.68227334" lon="2.0737820000000005">
        <ele>135.0</ele>
        <time>2019-06-09T12:19:51+02:00</time>
      </trkpt>
      <trkpt lat="41.68230667000001" lon="2.07382967">
        <ele>135.0</ele>
        <time>2019-06-09T12:19:52+02:00</time>
      </trkpt>
      <trkpt lat="41.68234167000001" lon="2.07391334">
        <ele>135.0</ele>
        <time>2019-06-09T12:19:53+02:00</time>
      </trkpt>
      <trkpt lat="41.68237167000001" lon="2.0740333399999993">
        <ele>136.0</ele>
        <time>2019-06-09T12:19:55+02:00</time>
      </trkpt>
      <trkpt lat="41.68237834" lon="2.0741050000000003">
        <ele>136.0</ele>
        <time>2019-06-09T12:19:56+02:00</time>
      </trkpt>
      <trkpt lat="41.682363339999995" lon="2.0741733399999998">
        <ele>136.0</ele>
        <time>2019-06-09T12:19:57+02:00</time>
      </trkpt>
      <trkpt lat="41.68233" lon="2.0742483399999996">
        <ele>136.0</ele>
        <time>2019-06-09T12:19:58+02:00</time>
      </trkpt>
      <trkpt lat="41.68228834" lon="2.0742983399999995">
        <ele>137.0</ele>
        <time>2019-06-09T12:19:59+02:00</time>
      </trkpt>
      <trkpt lat="41.68219333999999" lon="2.07436334">
        <ele>137.0</ele>
        <time>2019-06-09T12:20:01+02:00</time>
      </trkpt>
      <trkpt lat="41.68214167" lon="2.07439167">
        <ele>137.0</ele>
        <time>2019-06-09T12:20:02+02:00</time>
      </trkpt>
      <trkpt lat="41.68209167000001" lon="2.0744166699999997">
        <ele>137.0</ele>
        <time>2019-06-09T12:20:03+02:00</time>
      </trkpt>
      <trkpt lat="41.68199834" lon="2.0744549999999995">
        <ele>138.0</ele>
        <time>2019-06-09T12:20:05+02:00</time>
      </trkpt>
      <trkpt lat="41.68194834" lon="2.0744733399999995">
        <ele>138.0</ele>
        <time>2019-06-09T12:20:06+02:00</time>
      </trkpt>
      <trkpt lat="41.68189" lon="2.0744999999999996">
        <ele>138.0</ele>
        <time>2019-06-09T12:20:07+02:00</time>
      </trkpt>
      <trkpt lat="41.68184167000001" lon="2.0745246699999997">
        <ele>138.0</ele>
        <time>2019-06-09T12:20:08+02:00</time>
      </trkpt>
      <trkpt lat="41.681796670000004" lon="2.0745453399999993">
        <ele>138.0</ele>
        <time>2019-06-09T12:20:09+02:00</time>
      </trkpt>
      <trkpt lat="41.681715000000004" lon="2.0745816699999997">
        <ele>138.0</ele>
        <time>2019-06-09T12:20:11+02:00</time>
      </trkpt>
      <trkpt lat="41.68166834" lon="2.07460034">
        <ele>138.0</ele>
        <time>2019-06-09T12:20:12+02:00</time>
      </trkpt>
      <trkpt lat="41.681616670000004" lon="2.074622">
        <ele>138.0</ele>
        <time>2019-06-09T12:20:13+02:00</time>
      </trkpt>
      <trkpt lat="41.681526670000004" lon="2.07466367">
        <ele>138.0</ele>
        <time>2019-06-09T12:20:15+02:00</time>
      </trkpt>
      <trkpt lat="41.68145" lon="2.0747030000000004">
        <ele>137.0</ele>
        <time>2019-06-09T12:20:17+02:00</time>
      </trkpt>
      <trkpt lat="41.68140667000001" lon="2.0747246699999997">
        <ele>136.0</ele>
        <time>2019-06-09T12:20:18+02:00</time>
      </trkpt>
      <trkpt lat="41.681315000000005" lon="2.0747703399999997">
        <ele>135.0</ele>
        <time>2019-06-09T12:20:20+02:00</time>
      </trkpt>
      <trkpt lat="41.68127500000001" lon="2.07479467">
        <ele>135.0</ele>
        <time>2019-06-09T12:20:21+02:00</time>
      </trkpt>
      <trkpt lat="41.68120167" lon="2.07484167">
        <ele>134.0</ele>
        <time>2019-06-09T12:20:23+02:00</time>
      </trkpt>
      <trkpt lat="41.68114334" lon="2.07489267">
        <ele>133.0</ele>
        <time>2019-06-09T12:20:25+02:00</time>
      </trkpt>
      <trkpt lat="41.68109667" lon="2.07505">
        <ele>132.0</ele>
        <time>2019-06-09T12:20:27+02:00</time>
      </trkpt>
      <trkpt lat="41.68106667000001" lon="2.0751583399999993">
        <ele>131.0</ele>
        <time>2019-06-09T12:20:29+02:00</time>
      </trkpt>
      <trkpt lat="41.68105667000001" lon="2.0752783399999997">
        <ele>130.0</ele>
        <time>2019-06-09T12:20:31+02:00</time>
      </trkpt>
      <trkpt lat="41.681055" lon="2.0754">
        <ele>129.0</ele>
        <time>2019-06-09T12:20:33+02:00</time>
      </trkpt>
      <trkpt lat="41.681059999999995" lon="2.0754616699999997">
        <ele>129.0</ele>
        <time>2019-06-09T12:20:34+02:00</time>
      </trkpt>
      <trkpt lat="41.68106667000001" lon="2.075525">
        <ele>128.0</ele>
        <time>2019-06-09T12:20:35+02:00</time>
      </trkpt>
      <trkpt lat="41.68107167" lon="2.07558834">
        <ele>128.0</ele>
        <time>2019-06-09T12:20:36+02:00</time>
      </trkpt>
      <trkpt lat="41.68107633999999" lon="2.07565">
        <ele>128.0</ele>
        <time>2019-06-09T12:20:37+02:00</time>
      </trkpt>
      <trkpt lat="41.68108567" lon="2.0757116699999996">
        <ele>128.0</ele>
        <time>2019-06-09T12:20:38+02:00</time>
      </trkpt>
      <trkpt lat="41.68110634" lon="2.07582667">
        <ele>127.0</ele>
        <time>2019-06-09T12:20:40+02:00</time>
      </trkpt>
      <trkpt lat="41.68111933999999" lon="2.07590167">
        <ele>127.0</ele>
        <time>2019-06-09T12:20:41+02:00</time>
      </trkpt>
      <trkpt lat="41.681129999999996" lon="2.07596167">
        <ele>127.0</ele>
        <time>2019-06-09T12:20:42+02:00</time>
      </trkpt>
      <trkpt lat="41.68114200000001" lon="2.07602">
        <ele>127.0</ele>
        <time>2019-06-09T12:20:43+02:00</time>
      </trkpt>
      <trkpt lat="41.681156339999994" lon="2.0760783399999996">
        <ele>127.0</ele>
        <time>2019-06-09T12:20:44+02:00</time>
      </trkpt>
      <trkpt lat="41.681171670000005" lon="2.07613667">
        <ele>127.0</ele>
        <time>2019-06-09T12:20:45+02:00</time>
      </trkpt>
      <trkpt lat="41.68119" lon="2.07619667">
        <ele>127.0</ele>
        <time>2019-06-09T12:20:46+02:00</time>
      </trkpt>
      <trkpt lat="41.68120834" lon="2.07625667">
        <ele>127.0</ele>
        <time>2019-06-09T12:20:47+02:00</time>
      </trkpt>
      <trkpt lat="41.68124467" lon="2.076365">
        <ele>127.0</ele>
        <time>2019-06-09T12:20:49+02:00</time>
      </trkpt>
      <trkpt lat="41.681274339999995" lon="2.0764383399999997">
        <ele>127.0</ele>
        <time>2019-06-09T12:20:50+02:00</time>
      </trkpt>
      <trkpt lat="41.68130367" lon="2.07650167">
        <ele>127.0</ele>
        <time>2019-06-09T12:20:51+02:00</time>
      </trkpt>
      <trkpt lat="41.681335000000004" lon="2.076565">
        <ele>127.0</ele>
        <time>2019-06-09T12:20:52+02:00</time>
      </trkpt>
      <trkpt lat="41.681369" lon="2.07663167">
        <ele>127.0</ele>
        <time>2019-06-09T12:20:53+02:00</time>
      </trkpt>
      <trkpt lat="41.681403" lon="2.0766983399999996">
        <ele>127.0</ele>
        <time>2019-06-09T12:20:54+02:00</time>
      </trkpt>
      <trkpt lat="41.68143634" lon="2.07675167">
        <ele>127.0</ele>
        <time>2019-06-09T12:20:55+02:00</time>
      </trkpt>
      <trkpt lat="41.681482" lon="2.0768333399999994">
        <ele>127.0</ele>
        <time>2019-06-09T12:20:56+02:00</time>
      </trkpt>
      <trkpt lat="41.68152266999999" lon="2.07690334">
        <ele>127.0</ele>
        <time>2019-06-09T12:20:57+02:00</time>
      </trkpt>
      <trkpt lat="41.681564339999994" lon="2.07697167">
        <ele>127.0</ele>
        <time>2019-06-09T12:20:58+02:00</time>
      </trkpt>
      <trkpt lat="41.681603339999995" lon="2.07703667">
        <ele>127.0</ele>
        <time>2019-06-09T12:20:59+02:00</time>
      </trkpt>
      <trkpt lat="41.681646" lon="2.0771016700000002">
        <ele>128.0</ele>
        <time>2019-06-09T12:21:00+02:00</time>
      </trkpt>
      <trkpt lat="41.68167834" lon="2.077155">
        <ele>128.0</ele>
        <time>2019-06-09T12:21:01+02:00</time>
      </trkpt>
      <trkpt lat="41.68172634" lon="2.07723334">
        <ele>129.0</ele>
        <time>2019-06-09T12:21:02+02:00</time>
      </trkpt>
      <trkpt lat="41.68176" lon="2.0772866700000003">
        <ele>129.0</ele>
        <time>2019-06-09T12:21:03+02:00</time>
      </trkpt>
      <trkpt lat="41.6818" lon="2.0773533399999997">
        <ele>130.0</ele>
        <time>2019-06-09T12:21:04+02:00</time>
      </trkpt>
      <trkpt lat="41.68184067" lon="2.07742">
        <ele>130.0</ele>
        <time>2019-06-09T12:21:05+02:00</time>
      </trkpt>
      <trkpt lat="41.681886" lon="2.077505">
        <ele>131.0</ele>
        <time>2019-06-09T12:21:06+02:00</time>
      </trkpt>
      <trkpt lat="41.681923" lon="2.0775799999999998">
        <ele>131.0</ele>
        <time>2019-06-09T12:21:07+02:00</time>
      </trkpt>
      <trkpt lat="41.68194967000001" lon="2.077645">
        <ele>132.0</ele>
        <time>2019-06-09T12:21:08+02:00</time>
      </trkpt>
      <trkpt lat="41.68193" lon="2.0777349999999997">
        <ele>132.0</ele>
        <time>2019-06-09T12:21:09+02:00</time>
      </trkpt>
      <trkpt lat="41.68192167" lon="2.0778100000000004">
        <ele>133.0</ele>
        <time>2019-06-09T12:21:10+02:00</time>
      </trkpt>
      <trkpt lat="41.681891670000006" lon="2.07795167">
        <ele>134.0</ele>
        <time>2019-06-09T12:21:12+02:00</time>
      </trkpt>
      <trkpt lat="41.681869999999996" lon="2.07802">
        <ele>134.0</ele>
        <time>2019-06-09T12:21:13+02:00</time>
      </trkpt>
      <trkpt lat="41.681845" lon="2.07808834">
        <ele>135.0</ele>
        <time>2019-06-09T12:21:14+02:00</time>
      </trkpt>
      <trkpt lat="41.68181834" lon="2.0781400000000003">
        <ele>135.0</ele>
        <time>2019-06-09T12:21:15+02:00</time>
      </trkpt>
      <trkpt lat="41.681785000000005" lon="2.0782049999999996">
        <ele>136.0</ele>
        <time>2019-06-09T12:21:16+02:00</time>
      </trkpt>
      <trkpt lat="41.68175333999999" lon="2.07826667">
        <ele>136.0</ele>
        <time>2019-06-09T12:21:17+02:00</time>
      </trkpt>
      <trkpt lat="41.681718339999996" lon="2.07832334">
        <ele>137.0</ele>
        <time>2019-06-09T12:21:18+02:00</time>
      </trkpt>
      <trkpt lat="41.681673339999996" lon="2.0783833399999994">
        <ele>137.0</ele>
        <time>2019-06-09T12:21:19+02:00</time>
      </trkpt>
      <trkpt lat="41.68163834" lon="2.0784216699999996">
        <ele>138.0</ele>
        <time>2019-06-09T12:21:20+02:00</time>
      </trkpt>
      <trkpt lat="41.681603339999995" lon="2.0784666699999996">
        <ele>138.0</ele>
        <time>2019-06-09T12:21:21+02:00</time>
      </trkpt>
      <trkpt lat="41.68156667000001" lon="2.0785116699999997">
        <ele>139.0</ele>
        <time>2019-06-09T12:21:22+02:00</time>
      </trkpt>
      <trkpt lat="41.681522339999994" lon="2.07855834">
        <ele>139.0</ele>
        <time>2019-06-09T12:21:23+02:00</time>
      </trkpt>
      <trkpt lat="41.68145" lon="2.0786333399999997">
        <ele>140.0</ele>
        <time>2019-06-09T12:21:25+02:00</time>
      </trkpt>
      <trkpt lat="41.681377000000005" lon="2.0787116699999997">
        <ele>140.0</ele>
        <time>2019-06-09T12:21:27+02:00</time>
      </trkpt>
      <trkpt lat="41.68134334" lon="2.078755">
        <ele>141.0</ele>
        <time>2019-06-09T12:21:28+02:00</time>
      </trkpt>
      <trkpt lat="41.681306670000005" lon="2.07879634">
        <ele>141.0</ele>
        <time>2019-06-09T12:21:29+02:00</time>
      </trkpt>
      <trkpt lat="41.681270000000005" lon="2.0788339999999996">
        <ele>141.0</ele>
        <time>2019-06-09T12:21:30+02:00</time>
      </trkpt>
      <trkpt lat="41.68121" lon="2.0789029999999995">
        <ele>141.0</ele>
        <time>2019-06-09T12:21:32+02:00</time>
      </trkpt>
      <trkpt lat="41.681171670000005" lon="2.07894834">
        <ele>141.0</ele>
        <time>2019-06-09T12:21:33+02:00</time>
      </trkpt>
      <trkpt lat="41.68111167" lon="2.0790230000000003">
        <ele>140.0</ele>
        <time>2019-06-09T12:21:35+02:00</time>
      </trkpt>
      <trkpt lat="41.68105334" lon="2.07910234">
        <ele>139.0</ele>
        <time>2019-06-09T12:21:37+02:00</time>
      </trkpt>
      <trkpt lat="41.68100167000001" lon="2.07920334">
        <ele>138.0</ele>
        <time>2019-06-09T12:21:39+02:00</time>
      </trkpt>
      <trkpt lat="41.68095666999999" lon="2.0792966699999997">
        <ele>137.0</ele>
        <time>2019-06-09T12:21:41+02:00</time>
      </trkpt>
      <trkpt lat="41.68091434" lon="2.0793950000000003">
        <ele>136.0</ele>
        <time>2019-06-09T12:21:43+02:00</time>
      </trkpt>
      <trkpt lat="41.68089234" lon="2.07944834">
        <ele>135.0</ele>
        <time>2019-06-09T12:21:44+02:00</time>
      </trkpt>
      <trkpt lat="41.68085167" lon="2.079555">
        <ele>134.0</ele>
        <time>2019-06-09T12:21:46+02:00</time>
      </trkpt>
      <trkpt lat="41.680832339999995" lon="2.0796099999999997">
        <ele>134.0</ele>
        <time>2019-06-09T12:21:47+02:00</time>
      </trkpt>
      <trkpt lat="41.680814" lon="2.079665">
        <ele>132.0</ele>
        <time>2019-06-09T12:21:48+02:00</time>
      </trkpt>
      <trkpt lat="41.68078134" lon="2.0797633400000004">
        <ele>131.0</ele>
        <time>2019-06-09T12:21:50+02:00</time>
      </trkpt>
      <trkpt lat="41.680761000000004" lon="2.0798300000000003">
        <ele>131.0</ele>
        <time>2019-06-09T12:21:51+02:00</time>
      </trkpt>
      <trkpt lat="41.68074500000001" lon="2.079885">
        <ele>130.0</ele>
        <time>2019-06-09T12:21:52+02:00</time>
      </trkpt>
      <trkpt lat="41.68070967" lon="2.07999">
        <ele>129.0</ele>
        <time>2019-06-09T12:21:54+02:00</time>
      </trkpt>
      <trkpt lat="41.680675" lon="2.0800950000000005">
        <ele>128.0</ele>
        <time>2019-06-09T12:21:56+02:00</time>
      </trkpt>
      <trkpt lat="41.68064433999999" lon="2.0801833399999996">
        <ele>127.0</ele>
        <time>2019-06-09T12:21:58+02:00</time>
      </trkpt>
      <trkpt lat="41.680625" lon="2.0802400000000003">
        <ele>126.0</ele>
        <time>2019-06-09T12:21:59+02:00</time>
      </trkpt>
      <trkpt lat="41.68059366999999" lon="2.08033667">
        <ele>124.0</ele>
        <time>2019-06-09T12:22:01+02:00</time>
      </trkpt>
      <trkpt lat="41.68056600000001" lon="2.08042667">
        <ele>123.0</ele>
        <time>2019-06-09T12:22:03+02:00</time>
      </trkpt>
      <trkpt lat="41.680536339999996" lon="2.080525">
        <ele>122.0</ele>
        <time>2019-06-09T12:22:05+02:00</time>
      </trkpt>
      <trkpt lat="41.680512" lon="2.08063167">
        <ele>122.0</ele>
        <time>2019-06-09T12:22:07+02:00</time>
      </trkpt>
      <trkpt lat="41.68049834" lon="2.08072167">
        <ele>121.0</ele>
        <time>2019-06-09T12:22:09+02:00</time>
      </trkpt>
      <trkpt lat="41.68048700000001" lon="2.0808283399999996">
        <ele>121.0</ele>
        <time>2019-06-09T12:22:11+02:00</time>
      </trkpt>
      <trkpt lat="41.68048234" lon="2.0809266699999998">
        <ele>121.0</ele>
        <time>2019-06-09T12:22:13+02:00</time>
      </trkpt>
      <trkpt lat="41.68048700000001" lon="2.08102">
        <ele>121.0</ele>
        <time>2019-06-09T12:22:15+02:00</time>
      </trkpt>
      <trkpt lat="41.68065334" lon="2.08111334">
        <ele>121.0</ele>
        <time>2019-06-09T12:22:17+02:00</time>
      </trkpt>
      <trkpt lat="41.68069467" lon="2.08120667">
        <ele>121.0</ele>
        <time>2019-06-09T12:22:19+02:00</time>
      </trkpt>
      <trkpt lat="41.680740670000006" lon="2.0813">
        <ele>120.0</ele>
        <time>2019-06-09T12:22:21+02:00</time>
      </trkpt>
      <trkpt lat="41.680785" lon="2.0813900000000003">
        <ele>120.0</ele>
        <time>2019-06-09T12:22:23+02:00</time>
      </trkpt>
      <trkpt lat="41.680828999999996" lon="2.08148834">
        <ele>120.0</ele>
        <time>2019-06-09T12:22:25+02:00</time>
      </trkpt>
      <trkpt lat="41.680854" lon="2.0815466699999994">
        <ele>120.0</ele>
        <time>2019-06-09T12:22:26+02:00</time>
      </trkpt>
      <trkpt lat="41.68089633999999" lon="2.0816416699999998">
        <ele>119.0</ele>
        <time>2019-06-09T12:22:28+02:00</time>
      </trkpt>
      <trkpt lat="41.68093634" lon="2.0817400000000004">
        <ele>119.0</ele>
        <time>2019-06-09T12:22:30+02:00</time>
      </trkpt>
      <trkpt lat="41.68097433999999" lon="2.08183834">
        <ele>119.0</ele>
        <time>2019-06-09T12:22:32+02:00</time>
      </trkpt>
      <trkpt lat="41.681008999999996" lon="2.0819283399999997">
        <ele>119.0</ele>
        <time>2019-06-09T12:22:34+02:00</time>
      </trkpt>
      <trkpt lat="41.68103267" lon="2.0819900000000002">
        <ele>119.0</ele>
        <time>2019-06-09T12:22:35+02:00</time>
      </trkpt>
      <trkpt lat="41.681064" lon="2.0820883399999994">
        <ele>119.0</ele>
        <time>2019-06-09T12:22:37+02:00</time>
      </trkpt>
      <trkpt lat="41.68109933999999" lon="2.08221167">
        <ele>119.0</ele>
        <time>2019-06-09T12:22:39+02:00</time>
      </trkpt>
      <trkpt lat="41.68112266999999" lon="2.08232334">
        <ele>120.0</ele>
        <time>2019-06-09T12:22:41+02:00</time>
      </trkpt>
      <trkpt lat="41.681055" lon="2.08242">
        <ele>121.0</ele>
        <time>2019-06-09T12:22:43+02:00</time>
      </trkpt>
      <trkpt lat="41.681036670000005" lon="2.0825349999999996">
        <ele>121.0</ele>
        <time>2019-06-09T12:22:44+02:00</time>
      </trkpt>
      <trkpt lat="41.68100834" lon="2.0826249999999997">
        <ele>121.0</ele>
        <time>2019-06-09T12:22:46+02:00</time>
      </trkpt>
      <trkpt lat="41.68099" lon="2.0826816700000004">
        <ele>121.0</ele>
        <time>2019-06-09T12:22:47+02:00</time>
      </trkpt>
      <trkpt lat="41.68096334" lon="2.08276334">
        <ele>122.0</ele>
        <time>2019-06-09T12:22:49+02:00</time>
      </trkpt>
      <trkpt lat="41.680936" lon="2.0828599999999997">
        <ele>122.0</ele>
        <time>2019-06-09T12:22:51+02:00</time>
      </trkpt>
      <trkpt lat="41.68091334" lon="2.08295">
        <ele>122.0</ele>
        <time>2019-06-09T12:22:53+02:00</time>
      </trkpt>
      <trkpt lat="41.680891" lon="2.0830349999999997">
        <ele>122.0</ele>
        <time>2019-06-09T12:22:55+02:00</time>
      </trkpt>
      <trkpt lat="41.680868" lon="2.0831216699999997">
        <ele>122.0</ele>
        <time>2019-06-09T12:22:57+02:00</time>
      </trkpt>
      <trkpt lat="41.68084433999999" lon="2.0832100000000002">
        <ele>122.0</ele>
        <time>2019-06-09T12:22:59+02:00</time>
      </trkpt>
      <trkpt lat="41.680818" lon="2.08330167">
        <ele>122.0</ele>
        <time>2019-06-09T12:23:01+02:00</time>
      </trkpt>
      <trkpt lat="41.68079633999999" lon="2.0833800000000005">
        <ele>122.0</ele>
        <time>2019-06-09T12:23:03+02:00</time>
      </trkpt>
      <trkpt lat="41.680772669999996" lon="2.0834650000000003">
        <ele>122.0</ele>
        <time>2019-06-09T12:23:05+02:00</time>
      </trkpt>
      <trkpt lat="41.680747339999996" lon="2.0835483399999997">
        <ele>122.0</ele>
        <time>2019-06-09T12:23:07+02:00</time>
      </trkpt>
      <trkpt lat="41.680721670000004" lon="2.0836333399999996">
        <ele>122.0</ele>
        <time>2019-06-09T12:23:09+02:00</time>
      </trkpt>
      <trkpt lat="41.680697339999995" lon="2.08371834">
        <ele>122.0</ele>
        <time>2019-06-09T12:23:11+02:00</time>
      </trkpt>
      <trkpt lat="41.680677339999995" lon="2.0838">
        <ele>121.0</ele>
        <time>2019-06-09T12:23:13+02:00</time>
      </trkpt>
      <trkpt lat="41.68066334" lon="2.0838849999999995">
        <ele>120.0</ele>
        <time>2019-06-09T12:23:15+02:00</time>
      </trkpt>
      <trkpt lat="41.680705" lon="2.08397">
        <ele>120.0</ele>
        <time>2019-06-09T12:23:17+02:00</time>
      </trkpt>
      <trkpt lat="41.680728339999995" lon="2.0840466699999998">
        <ele>119.0</ele>
        <time>2019-06-09T12:23:19+02:00</time>
      </trkpt>
      <trkpt lat="41.680755" lon="2.08411834">
        <ele>119.0</ele>
        <time>2019-06-09T12:23:21+02:00</time>
      </trkpt>
      <trkpt lat="41.680795" lon="2.0841983399999995">
        <ele>119.0</ele>
        <time>2019-06-09T12:23:23+02:00</time>
      </trkpt>
      <trkpt lat="41.68082967" lon="2.08426334">
        <ele>118.0</ele>
        <time>2019-06-09T12:23:25+02:00</time>
      </trkpt>
      <trkpt lat="41.680870000000006" lon="2.0843416699999997">
        <ele>118.0</ele>
        <time>2019-06-09T12:23:27+02:00</time>
      </trkpt>
      <trkpt lat="41.68090334" lon="2.0844083399999995">
        <ele>118.0</ele>
        <time>2019-06-09T12:23:29+02:00</time>
      </trkpt>
      <trkpt lat="41.68094" lon="2.08448">
        <ele>117.0</ele>
        <time>2019-06-09T12:23:31+02:00</time>
      </trkpt>
      <trkpt lat="41.680977" lon="2.0845433399999997">
        <ele>117.0</ele>
        <time>2019-06-09T12:23:33+02:00</time>
      </trkpt>
      <trkpt lat="41.681013670000006" lon="2.084605">
        <ele>117.0</ele>
        <time>2019-06-09T12:23:35+02:00</time>
      </trkpt>
      <trkpt lat="41.681049339999994" lon="2.08467">
        <ele>116.0</ele>
        <time>2019-06-09T12:23:37+02:00</time>
      </trkpt>
      <trkpt lat="41.68109067" lon="2.0847466699999995">
        <ele>116.0</ele>
        <time>2019-06-09T12:23:39+02:00</time>
      </trkpt>
      <trkpt lat="41.68112233999999" lon="2.08482">
        <ele>116.0</ele>
        <time>2019-06-09T12:23:41+02:00</time>
      </trkpt>
      <trkpt lat="41.68115233999999" lon="2.0849066699999996">
        <ele>116.0</ele>
        <time>2019-06-09T12:23:43+02:00</time>
      </trkpt>
      <trkpt lat="41.681175999999994" lon="2.084995">
        <ele>116.0</ele>
        <time>2019-06-09T12:23:45+02:00</time>
      </trkpt>
      <trkpt lat="41.68111834" lon="2.0850850000000003">
        <ele>115.0</ele>
        <time>2019-06-09T12:23:47+02:00</time>
      </trkpt>
      <trkpt lat="41.68108834000001" lon="2.08517167">
        <ele>115.0</ele>
        <time>2019-06-09T12:23:49+02:00</time>
      </trkpt>
      <trkpt lat="41.681055" lon="2.08526">
        <ele>114.0</ele>
        <time>2019-06-09T12:23:51+02:00</time>
      </trkpt>
      <trkpt lat="41.68103" lon="2.08533">
        <ele>113.0</ele>
        <time>2019-06-09T12:23:53+02:00</time>
      </trkpt>
      <trkpt lat="41.68100167000001" lon="2.08541334">
        <ele>112.0</ele>
        <time>2019-06-09T12:23:55+02:00</time>
      </trkpt>
      <trkpt lat="41.680971670000005" lon="2.08548">
        <ele>111.0</ele>
        <time>2019-06-09T12:23:57+02:00</time>
      </trkpt>
      <trkpt lat="41.68094567" lon="2.08556167">
        <ele>111.0</ele>
        <time>2019-06-09T12:23:59+02:00</time>
      </trkpt>
      <trkpt lat="41.68092800000001" lon="2.08562834">
        <ele>109.0</ele>
        <time>2019-06-09T12:24:01+02:00</time>
      </trkpt>
      <trkpt lat="41.68091434" lon="2.0857033399999994">
        <ele>108.0</ele>
        <time>2019-06-09T12:24:03+02:00</time>
      </trkpt>
      <trkpt lat="41.68093667" lon="2.08579167">
        <ele>107.0</ele>
        <time>2019-06-09T12:24:05+02:00</time>
      </trkpt>
      <trkpt lat="41.68095666999999" lon="2.0858650000000005">
        <ele>106.0</ele>
        <time>2019-06-09T12:24:07+02:00</time>
      </trkpt>
      <trkpt lat="41.68099334" lon="2.0859283399999997">
        <ele>104.0</ele>
        <time>2019-06-09T12:24:09+02:00</time>
      </trkpt>
      <trkpt lat="41.68103" lon="2.0859883399999997">
        <ele>103.0</ele>
        <time>2019-06-09T12:24:11+02:00</time>
      </trkpt>
      <trkpt lat="41.681075" lon="2.0860549999999995">
        <ele>102.0</ele>
        <time>2019-06-09T12:24:13+02:00</time>
      </trkpt>
      <trkpt lat="41.68112167000001" lon="2.08612">
        <ele>101.0</ele>
        <time>2019-06-09T12:24:15+02:00</time>
      </trkpt>
      <trkpt lat="41.68116167" lon="2.0861799999999997">
        <ele>100.0</ele>
        <time>2019-06-09T12:24:17+02:00</time>
      </trkpt>
      <trkpt lat="41.68120967" lon="2.08625">
        <ele>99.0</ele>
        <time>2019-06-09T12:24:19+02:00</time>
      </trkpt>
      <trkpt lat="41.68125467" lon="2.0863116699999997">
        <ele>98.0</ele>
        <time>2019-06-09T12:24:21+02:00</time>
      </trkpt>
      <trkpt lat="41.68129467000001" lon="2.08636834">
        <ele>97.0</ele>
        <time>2019-06-09T12:24:23+02:00</time>
      </trkpt>
      <trkpt lat="41.681337" lon="2.086425">
        <ele>96.0</ele>
        <time>2019-06-09T12:24:25+02:00</time>
      </trkpt>
      <trkpt lat="41.681380000000004" lon="2.08648167">
        <ele>96.0</ele>
        <time>2019-06-09T12:24:27+02:00</time>
      </trkpt>
      <trkpt lat="41.68143167" lon="2.08652834">
        <ele>95.0</ele>
        <time>2019-06-09T12:24:29+02:00</time>
      </trkpt>
      <trkpt lat="41.681493339999996" lon="2.0865766700000004">
        <ele>94.0</ele>
        <time>2019-06-09T12:24:31+02:00</time>
      </trkpt>
      <trkpt lat="41.68154667" lon="2.08661267">
        <ele>93.0</ele>
        <time>2019-06-09T12:24:33+02:00</time>
      </trkpt>
      <trkpt lat="41.681605000000005" lon="2.086657">
        <ele>93.0</ele>
        <time>2019-06-09T12:24:35+02:00</time>
      </trkpt>
      <trkpt lat="41.68165834" lon="2.086711">
        <ele>93.0</ele>
        <time>2019-06-09T12:24:37+02:00</time>
      </trkpt>
      <trkpt lat="41.68169833999999" lon="2.086766">
        <ele>93.0</ele>
        <time>2019-06-09T12:24:39+02:00</time>
      </trkpt>
      <trkpt lat="41.68172334" lon="2.0868566700000004">
        <ele>92.0</ele>
        <time>2019-06-09T12:24:41+02:00</time>
      </trkpt>
      <trkpt lat="41.68175133999999" lon="2.086935">
        <ele>92.0</ele>
        <time>2019-06-09T12:24:43+02:00</time>
      </trkpt>
      <trkpt lat="41.68177834" lon="2.08701167">
        <ele>92.0</ele>
        <time>2019-06-09T12:24:45+02:00</time>
      </trkpt>
      <trkpt lat="41.68180733999999" lon="2.08709">
        <ele>91.0</ele>
        <time>2019-06-09T12:24:47+02:00</time>
      </trkpt>
      <trkpt lat="41.68183266999999" lon="2.0871416700000003">
        <ele>91.0</ele>
        <time>2019-06-09T12:24:49+02:00</time>
      </trkpt>
      <trkpt lat="41.681870339999996" lon="2.0871983399999996">
        <ele>91.0</ele>
        <time>2019-06-09T12:24:51+02:00</time>
      </trkpt>
      <trkpt lat="41.681936670000006" lon="2.08722834">
        <ele>91.0</ele>
        <time>2019-06-09T12:24:53+02:00</time>
      </trkpt>
      <trkpt lat="41.681996670000004" lon="2.0872599999999997">
        <ele>91.0</ele>
        <time>2019-06-09T12:24:55+02:00</time>
      </trkpt>
      <trkpt lat="41.68206167" lon="2.0872766700000005">
        <ele>91.0</ele>
        <time>2019-06-09T12:24:57+02:00</time>
      </trkpt>
      <trkpt lat="41.682125" lon="2.0872966699999997">
        <ele>91.0</ele>
        <time>2019-06-09T12:24:59+02:00</time>
      </trkpt>
      <trkpt lat="41.68218834" lon="2.08731367">
        <ele>91.0</ele>
        <time>2019-06-09T12:25:01+02:00</time>
      </trkpt>
      <trkpt lat="41.68224334" lon="2.08733534">
        <ele>91.0</ele>
        <time>2019-06-09T12:25:03+02:00</time>
      </trkpt>
      <trkpt lat="41.682305" lon="2.0873599999999994">
        <ele>90.0</ele>
        <time>2019-06-09T12:25:05+02:00</time>
      </trkpt>
      <trkpt lat="41.682368340000004" lon="2.08737934">
        <ele>90.0</ele>
        <time>2019-06-09T12:25:07+02:00</time>
      </trkpt>
      <trkpt lat="41.682425" lon="2.087395">
        <ele>90.0</ele>
        <time>2019-06-09T12:25:09+02:00</time>
      </trkpt>
      <trkpt lat="41.682486669999996" lon="2.0874146700000002">
        <ele>90.0</ele>
        <time>2019-06-09T12:25:11+02:00</time>
      </trkpt>
      <trkpt lat="41.68254" lon="2.08743067">
        <ele>90.0</ele>
        <time>2019-06-09T12:25:13+02:00</time>
      </trkpt>
      <trkpt lat="41.68259833999999" lon="2.0874496700000003">
        <ele>90.0</ele>
        <time>2019-06-09T12:25:15+02:00</time>
      </trkpt>
      <trkpt lat="41.68266" lon="2.0874726700000004">
        <ele>89.0</ele>
        <time>2019-06-09T12:25:17+02:00</time>
      </trkpt>
      <trkpt lat="41.68271334" lon="2.08749867">
        <ele>89.0</ele>
        <time>2019-06-09T12:25:19+02:00</time>
      </trkpt>
      <trkpt lat="41.68276667" lon="2.087529">
        <ele>89.0</ele>
        <time>2019-06-09T12:25:21+02:00</time>
      </trkpt>
      <trkpt lat="41.68280834" lon="2.0875643399999997">
        <ele>88.0</ele>
        <time>2019-06-09T12:25:23+02:00</time>
      </trkpt>
      <trkpt lat="41.682849999999995" lon="2.0876046699999997">
        <ele>88.0</ele>
        <time>2019-06-09T12:25:25+02:00</time>
      </trkpt>
      <trkpt lat="41.68288167000001" lon="2.08776">
        <ele>87.0</ele>
        <time>2019-06-09T12:25:27+02:00</time>
      </trkpt>
      <trkpt lat="41.682919999999996" lon="2.0878400000000004">
        <ele>87.0</ele>
        <time>2019-06-09T12:25:29+02:00</time>
      </trkpt>
      <trkpt lat="41.68295133999999" lon="2.0879083399999994">
        <ele>87.0</ele>
        <time>2019-06-09T12:25:31+02:00</time>
      </trkpt>
      <trkpt lat="41.682991" lon="2.08798667">
        <ele>87.0</ele>
        <time>2019-06-09T12:25:33+02:00</time>
      </trkpt>
      <trkpt lat="41.68302799999999" lon="2.0880549999999998">
        <ele>87.0</ele>
        <time>2019-06-09T12:25:35+02:00</time>
      </trkpt>
      <trkpt lat="41.68306367" lon="2.0881266700000003">
        <ele>86.0</ele>
        <time>2019-06-09T12:25:37+02:00</time>
      </trkpt>
      <trkpt lat="41.68309467000001" lon="2.088185">
        <ele>86.0</ele>
        <time>2019-06-09T12:25:39+02:00</time>
      </trkpt>
      <trkpt lat="41.683134339999995" lon="2.0882533399999996">
        <ele>86.0</ele>
        <time>2019-06-09T12:25:41+02:00</time>
      </trkpt>
      <trkpt lat="41.683172" lon="2.08831167">
        <ele>85.0</ele>
        <time>2019-06-09T12:25:43+02:00</time>
      </trkpt>
      <trkpt lat="41.68321099999999" lon="2.0883650000000005">
        <ele>85.0</ele>
        <time>2019-06-09T12:25:45+02:00</time>
      </trkpt>
      <trkpt lat="41.68327333999999" lon="2.0884083399999995">
        <ele>85.0</ele>
        <time>2019-06-09T12:25:47+02:00</time>
      </trkpt>
      <trkpt lat="41.683321670000005" lon="2.0884549999999997">
        <ele>85.0</ele>
        <time>2019-06-09T12:25:49+02:00</time>
      </trkpt>
      <trkpt lat="41.683373339999996" lon="2.08849934">
        <ele>85.0</ele>
        <time>2019-06-09T12:25:51+02:00</time>
      </trkpt>
      <trkpt lat="41.68343" lon="2.0885489999999995">
        <ele>85.0</ele>
        <time>2019-06-09T12:25:53+02:00</time>
      </trkpt>
      <trkpt lat="41.68348667" lon="2.08858834">
        <ele>85.0</ele>
        <time>2019-06-09T12:25:55+02:00</time>
      </trkpt>
      <trkpt lat="41.68353667" lon="2.088621">
        <ele>84.0</ele>
        <time>2019-06-09T12:25:57+02:00</time>
      </trkpt>
      <trkpt lat="41.68358834000001" lon="2.0886576699999995">
        <ele>84.0</ele>
        <time>2019-06-09T12:25:59+02:00</time>
      </trkpt>
      <trkpt lat="41.683645000000006" lon="2.0886986700000003">
        <ele>84.0</ele>
        <time>2019-06-09T12:26:01+02:00</time>
      </trkpt>
      <trkpt lat="41.683708339999995" lon="2.08874167">
        <ele>84.0</ele>
        <time>2019-06-09T12:26:03+02:00</time>
      </trkpt>
      <trkpt lat="41.68375667" lon="2.0887773399999996">
        <ele>84.0</ele>
        <time>2019-06-09T12:26:05+02:00</time>
      </trkpt>
      <trkpt lat="41.683815" lon="2.088819">
        <ele>84.0</ele>
        <time>2019-06-09T12:26:07+02:00</time>
      </trkpt>
      <trkpt lat="41.683865000000004" lon="2.08885567">
        <ele>84.0</ele>
        <time>2019-06-09T12:26:09+02:00</time>
      </trkpt>
      <trkpt lat="41.68391334" lon="2.0888913399999995">
        <ele>85.0</ele>
        <time>2019-06-09T12:26:11+02:00</time>
      </trkpt>
      <trkpt lat="41.683963340000005" lon="2.0889296699999997">
        <ele>85.0</ele>
        <time>2019-06-09T12:26:13+02:00</time>
      </trkpt>
      <trkpt lat="41.68401334" lon="2.0889693399999993">
        <ele>86.0</ele>
        <time>2019-06-09T12:26:15+02:00</time>
      </trkpt>
      <trkpt lat="41.68406" lon="2.0890103399999997">
        <ele>86.0</ele>
        <time>2019-06-09T12:26:17+02:00</time>
      </trkpt>
      <trkpt lat="41.68411" lon="2.08905734">
        <ele>87.0</ele>
        <time>2019-06-09T12:26:19+02:00</time>
      </trkpt>
      <trkpt lat="41.68414834" lon="2.089098">
        <ele>87.0</ele>
        <time>2019-06-09T12:26:21+02:00</time>
      </trkpt>
      <trkpt lat="41.684186669999995" lon="2.089141">
        <ele>88.0</ele>
        <time>2019-06-09T12:26:23+02:00</time>
      </trkpt>
      <trkpt lat="41.68422167000001" lon="2.0892733399999996">
        <ele>89.0</ele>
        <time>2019-06-09T12:26:25+02:00</time>
      </trkpt>
      <trkpt lat="41.68425167" lon="2.08933167">
        <ele>89.0</ele>
        <time>2019-06-09T12:26:27+02:00</time>
      </trkpt>
      <trkpt lat="41.68428134" lon="2.08940667">
        <ele>89.0</ele>
        <time>2019-06-09T12:26:29+02:00</time>
      </trkpt>
      <trkpt lat="41.68430534" lon="2.0894733399999996">
        <ele>89.0</ele>
        <time>2019-06-09T12:26:31+02:00</time>
      </trkpt>
      <trkpt lat="41.68432833999999" lon="2.08953667">
        <ele>89.0</ele>
        <time>2019-06-09T12:26:33+02:00</time>
      </trkpt>
      <trkpt lat="41.684353339999994" lon="2.08961334">
        <ele>89.0</ele>
        <time>2019-06-09T12:26:35+02:00</time>
      </trkpt>
      <trkpt lat="41.684377000000005" lon="2.08969">
        <ele>89.0</ele>
        <time>2019-06-09T12:26:37+02:00</time>
      </trkpt>
      <trkpt lat="41.68440267" lon="2.08976834">
        <ele>90.0</ele>
        <time>2019-06-09T12:26:39+02:00</time>
      </trkpt>
      <trkpt lat="41.684422999999995" lon="2.0898366699999995">
        <ele>90.0</ele>
        <time>2019-06-09T12:26:41+02:00</time>
      </trkpt>
      <trkpt lat="41.68444367" lon="2.08990667">
        <ele>90.0</ele>
        <time>2019-06-09T12:26:43+02:00</time>
      </trkpt>
      <trkpt lat="41.684466" lon="2.0899799999999997">
        <ele>91.0</ele>
        <time>2019-06-09T12:26:45+02:00</time>
      </trkpt>
      <trkpt lat="41.684490000000004" lon="2.0900600000000003">
        <ele>92.0</ele>
        <time>2019-06-09T12:26:47+02:00</time>
      </trkpt>
      <trkpt lat="41.684512340000005" lon="2.09013667">
        <ele>92.0</ele>
        <time>2019-06-09T12:26:49+02:00</time>
      </trkpt>
      <trkpt lat="41.68453234" lon="2.0902066699999997">
        <ele>93.0</ele>
        <time>2019-06-09T12:26:51+02:00</time>
      </trkpt>
      <trkpt lat="41.684552999999994" lon="2.0902799999999995">
        <ele>93.0</ele>
        <time>2019-06-09T12:26:53+02:00</time>
      </trkpt>
      <trkpt lat="41.68457367" lon="2.090355">
        <ele>94.0</ele>
        <time>2019-06-09T12:26:55+02:00</time>
      </trkpt>
      <trkpt lat="41.68461467" lon="2.0904900000000004">
        <ele>94.0</ele>
        <time>2019-06-09T12:26:57+02:00</time>
      </trkpt>
      <trkpt lat="41.684636669999996" lon="2.09056">
        <ele>94.0</ele>
        <time>2019-06-09T12:26:59+02:00</time>
      </trkpt>
      <trkpt lat="41.684659339999996" lon="2.0906316699999996">
        <ele>95.0</ele>
        <time>2019-06-09T12:27:01+02:00</time>
      </trkpt>
      <trkpt lat="41.68468334000001" lon="2.09071">
        <ele>95.0</ele>
        <time>2019-06-09T12:27:03+02:00</time>
      </trkpt>
      <trkpt lat="41.68470299999999" lon="2.09078667">
        <ele>95.0</ele>
        <time>2019-06-09T12:27:05+02:00</time>
      </trkpt>
      <trkpt lat="41.68467667" lon="2.0908716699999994">
        <ele>95.0</ele>
        <time>2019-06-09T12:27:07+02:00</time>
      </trkpt>
      <trkpt lat="41.684658340000006" lon="2.0909299999999997">
        <ele>95.0</ele>
        <time>2019-06-09T12:27:09+02:00</time>
      </trkpt>
      <trkpt lat="41.68460834" lon="2.09098667">
        <ele>95.0</ele>
        <time>2019-06-09T12:27:11+02:00</time>
      </trkpt>
      <trkpt lat="41.68455834" lon="2.0910166699999997">
        <ele>95.0</ele>
        <time>2019-06-09T12:27:13+02:00</time>
      </trkpt>
      <trkpt lat="41.68449667000001" lon="2.0910366700000003">
        <ele>96.0</ele>
        <time>2019-06-09T12:27:15+02:00</time>
      </trkpt>
      <trkpt lat="41.68443167" lon="2.09103834">
        <ele>96.0</ele>
        <time>2019-06-09T12:27:17+02:00</time>
      </trkpt>
      <trkpt lat="41.68436500000001" lon="2.09102334">
        <ele>98.0</ele>
        <time>2019-06-09T12:27:19+02:00</time>
      </trkpt>
      <trkpt lat="41.68428667" lon="2.091">
        <ele>98.0</ele>
        <time>2019-06-09T12:27:21+02:00</time>
      </trkpt>
      <trkpt lat="41.684225" lon="2.0909666699999994">
        <ele>98.0</ele>
        <time>2019-06-09T12:27:23+02:00</time>
      </trkpt>
      <trkpt lat="41.68416167" lon="2.090935">
        <ele>100.0</ele>
        <time>2019-06-09T12:27:25+02:00</time>
      </trkpt>
      <trkpt lat="41.684095" lon="2.09091334">
        <ele>101.0</ele>
        <time>2019-06-09T12:27:27+02:00</time>
      </trkpt>
      <trkpt lat="41.684033340000006" lon="2.0909070000000005">
        <ele>102.0</ele>
        <time>2019-06-09T12:27:29+02:00</time>
      </trkpt>
      <trkpt lat="41.68396167000001" lon="2.09091">
        <ele>102.0</ele>
        <time>2019-06-09T12:27:31+02:00</time>
      </trkpt>
      <trkpt lat="41.68390834" lon="2.090945">
        <ele>103.0</ele>
        <time>2019-06-09T12:27:33+02:00</time>
      </trkpt>
      <trkpt lat="41.68386" lon="2.09099167">
        <ele>104.0</ele>
        <time>2019-06-09T12:27:35+02:00</time>
      </trkpt>
      <trkpt lat="41.683815" lon="2.0910599999999997">
        <ele>104.0</ele>
        <time>2019-06-09T12:27:37+02:00</time>
      </trkpt>
      <trkpt lat="41.68379167000001" lon="2.0911316699999998">
        <ele>105.0</ele>
        <time>2019-06-09T12:27:39+02:00</time>
      </trkpt>
      <trkpt lat="41.68377667000001" lon="2.0912033399999994">
        <ele>106.0</ele>
        <time>2019-06-09T12:27:41+02:00</time>
      </trkpt>
      <trkpt lat="41.68378167000001" lon="2.091295">
        <ele>107.0</ele>
        <time>2019-06-09T12:27:43+02:00</time>
      </trkpt>
      <trkpt lat="41.683794999999996" lon="2.09136834">
        <ele>107.0</ele>
        <time>2019-06-09T12:27:45+02:00</time>
      </trkpt>
      <trkpt lat="41.68381834" lon="2.0914483400000003">
        <ele>107.0</ele>
        <time>2019-06-09T12:27:47+02:00</time>
      </trkpt>
      <trkpt lat="41.68384334" lon="2.0915349999999995">
        <ele>108.0</ele>
        <time>2019-06-09T12:27:49+02:00</time>
      </trkpt>
      <trkpt lat="41.68387167000001" lon="2.09160167">
        <ele>108.0</ele>
        <time>2019-06-09T12:27:51+02:00</time>
      </trkpt>
      <trkpt lat="41.683909670000006" lon="2.091685">
        <ele>108.0</ele>
        <time>2019-06-09T12:27:53+02:00</time>
      </trkpt>
      <trkpt lat="41.68394567" lon="2.0917566699999997">
        <ele>109.0</ele>
        <time>2019-06-09T12:27:55+02:00</time>
      </trkpt>
      <trkpt lat="41.683981" lon="2.0918166699999996">
        <ele>109.0</ele>
        <time>2019-06-09T12:27:57+02:00</time>
      </trkpt>
      <trkpt lat="41.68402733999999" lon="2.0918883399999997">
        <ele>109.0</ele>
        <time>2019-06-09T12:27:59+02:00</time>
      </trkpt>
      <trkpt lat="41.68407067" lon="2.0919499999999998">
        <ele>109.0</ele>
        <time>2019-06-09T12:28:01+02:00</time>
      </trkpt>
      <trkpt lat="41.68411467" lon="2.0920133400000003">
        <ele>109.0</ele>
        <time>2019-06-09T12:28:03+02:00</time>
      </trkpt>
      <trkpt lat="41.684161" lon="2.09208">
        <ele>109.0</ele>
        <time>2019-06-09T12:28:05+02:00</time>
      </trkpt>
      <trkpt lat="41.684205000000006" lon="2.09214">
        <ele>109.0</ele>
        <time>2019-06-09T12:28:07+02:00</time>
      </trkpt>
      <trkpt lat="41.684249" lon="2.09219834">
        <ele>109.0</ele>
        <time>2019-06-09T12:28:09+02:00</time>
      </trkpt>
      <trkpt lat="41.68431167000001" lon="2.09225167">
        <ele>109.0</ele>
        <time>2019-06-09T12:28:11+02:00</time>
      </trkpt>
      <trkpt lat="41.68436167" lon="2.0923049999999996">
        <ele>109.0</ele>
        <time>2019-06-09T12:28:13+02:00</time>
      </trkpt>
      <trkpt lat="41.684415" lon="2.0923546699999998">
        <ele>109.0</ele>
        <time>2019-06-09T12:28:15+02:00</time>
      </trkpt>
      <trkpt lat="41.684461670000005" lon="2.0924">
        <ele>109.0</ele>
        <time>2019-06-09T12:28:17+02:00</time>
      </trkpt>
      <trkpt lat="41.684513339999995" lon="2.09244934">
        <ele>109.0</ele>
        <time>2019-06-09T12:28:19+02:00</time>
      </trkpt>
      <trkpt lat="41.68457" lon="2.09249967">
        <ele>109.0</ele>
        <time>2019-06-09T12:28:21+02:00</time>
      </trkpt>
      <trkpt lat="41.684611669999995" lon="2.0925366700000003">
        <ele>109.0</ele>
        <time>2019-06-09T12:28:23+02:00</time>
      </trkpt>
      <trkpt lat="41.684659999999994" lon="2.0925819999999997">
        <ele>109.0</ele>
        <time>2019-06-09T12:28:25+02:00</time>
      </trkpt>
      <trkpt lat="41.684711670000006" lon="2.092629">
        <ele>110.0</ele>
        <time>2019-06-09T12:28:27+02:00</time>
      </trkpt>
      <trkpt lat="41.684765" lon="2.09267267">
        <ele>110.0</ele>
        <time>2019-06-09T12:28:29+02:00</time>
      </trkpt>
      <trkpt lat="41.684825000000004" lon="2.092716">
        <ele>110.0</ele>
        <time>2019-06-09T12:28:31+02:00</time>
      </trkpt>
      <trkpt lat="41.68487999999999" lon="2.0927456700000002">
        <ele>111.0</ele>
        <time>2019-06-09T12:28:33+02:00</time>
      </trkpt>
      <trkpt lat="41.684938339999995" lon="2.0927689999999997">
        <ele>111.0</ele>
        <time>2019-06-09T12:28:35+02:00</time>
      </trkpt>
      <trkpt lat="41.685001670000005" lon="2.09278567">
        <ele>111.0</ele>
        <time>2019-06-09T12:28:37+02:00</time>
      </trkpt>
      <trkpt lat="41.685066670000005" lon="2.092795">
        <ele>111.0</ele>
        <time>2019-06-09T12:28:39+02:00</time>
      </trkpt>
      <trkpt lat="41.685123340000004" lon="2.0927953399999994">
        <ele>111.0</ele>
        <time>2019-06-09T12:28:41+02:00</time>
      </trkpt>
      <trkpt lat="41.68518" lon="2.092797">
        <ele>111.0</ele>
        <time>2019-06-09T12:28:43+02:00</time>
      </trkpt>
      <trkpt lat="41.685235" lon="2.092803">
        <ele>111.0</ele>
        <time>2019-06-09T12:28:45+02:00</time>
      </trkpt>
      <trkpt lat="41.685294999999996" lon="2.0928163399999997">
        <ele>111.0</ele>
        <time>2019-06-09T12:28:47+02:00</time>
      </trkpt>
      <trkpt lat="41.68534000000001" lon="2.0927933399999996">
        <ele>112.0</ele>
        <time>2019-06-09T12:28:49+02:00</time>
      </trkpt>
      <trkpt lat="41.68538334" lon="2.0928366699999996">
        <ele>112.0</ele>
        <time>2019-06-09T12:28:51+02:00</time>
      </trkpt>
      <trkpt lat="41.685421670000004" lon="2.092895">
        <ele>113.0</ele>
        <time>2019-06-09T12:28:53+02:00</time>
      </trkpt>
      <trkpt lat="41.68546" lon="2.0929499999999996">
        <ele>113.0</ele>
        <time>2019-06-09T12:28:55+02:00</time>
      </trkpt>
      <trkpt lat="41.68550167" lon="2.0930183399999995">
        <ele>113.0</ele>
        <time>2019-06-09T12:28:57+02:00</time>
      </trkpt>
      <trkpt lat="41.68553834000001" lon="2.09306667">
        <ele>113.0</ele>
        <time>2019-06-09T12:28:59+02:00</time>
      </trkpt>
      <trkpt lat="41.68557833999999" lon="2.09313667">
        <ele>113.0</ele>
        <time>2019-06-09T12:29:01+02:00</time>
      </trkpt>
      <trkpt lat="41.685616339999996" lon="2.09320167">
        <ele>113.0</ele>
        <time>2019-06-09T12:29:03+02:00</time>
      </trkpt>
      <trkpt lat="41.68565534" lon="2.09326">
        <ele>113.0</ele>
        <time>2019-06-09T12:29:05+02:00</time>
      </trkpt>
      <trkpt lat="41.68569367" lon="2.0933200000000003">
        <ele>113.0</ele>
        <time>2019-06-09T12:29:07+02:00</time>
      </trkpt>
      <trkpt lat="41.68572766999999" lon="2.09337334">
        <ele>113.0</ele>
        <time>2019-06-09T12:29:09+02:00</time>
      </trkpt>
      <trkpt lat="41.685764" lon="2.0934250000000003">
        <ele>113.0</ele>
        <time>2019-06-09T12:29:11+02:00</time>
      </trkpt>
      <trkpt lat="41.685803670000006" lon="2.093485">
        <ele>112.0</ele>
        <time>2019-06-09T12:29:13+02:00</time>
      </trkpt>
      <trkpt lat="41.685844339999996" lon="2.09355">
        <ele>112.0</ele>
        <time>2019-06-09T12:29:15+02:00</time>
      </trkpt>
      <trkpt lat="41.685883669999996" lon="2.0936116699999996">
        <ele>112.0</ele>
        <time>2019-06-09T12:29:17+02:00</time>
      </trkpt>
      <trkpt lat="41.685920339999996" lon="2.09367667">
        <ele>112.0</ele>
        <time>2019-06-09T12:29:19+02:00</time>
      </trkpt>
      <trkpt lat="41.68596067" lon="2.09375167">
        <ele>111.0</ele>
        <time>2019-06-09T12:29:21+02:00</time>
      </trkpt>
      <trkpt lat="41.68599433999999" lon="2.09381667">
        <ele>111.0</ele>
        <time>2019-06-09T12:29:23+02:00</time>
      </trkpt>
      <trkpt lat="41.68603" lon="2.09388667">
        <ele>110.0</ele>
        <time>2019-06-09T12:29:25+02:00</time>
      </trkpt>
      <trkpt lat="41.686060669999996" lon="2.0939550000000002">
        <ele>110.0</ele>
        <time>2019-06-09T12:29:27+02:00</time>
      </trkpt>
      <trkpt lat="41.68609" lon="2.0940233399999997">
        <ele>109.0</ele>
        <time>2019-06-09T12:29:29+02:00</time>
      </trkpt>
      <trkpt lat="41.686123339999995" lon="2.0940983399999995">
        <ele>109.0</ele>
        <time>2019-06-09T12:29:31+02:00</time>
      </trkpt>
      <trkpt lat="41.68615067" lon="2.094165">
        <ele>109.0</ele>
        <time>2019-06-09T12:29:33+02:00</time>
      </trkpt>
      <trkpt lat="41.68617533999999" lon="2.09422834">
        <ele>109.0</ele>
        <time>2019-06-09T12:29:35+02:00</time>
      </trkpt>
      <trkpt lat="41.686202" lon="2.0942983399999995">
        <ele>109.0</ele>
        <time>2019-06-09T12:29:37+02:00</time>
      </trkpt>
      <trkpt lat="41.68622834" lon="2.09437">
        <ele>109.0</ele>
        <time>2019-06-09T12:29:39+02:00</time>
      </trkpt>
      <trkpt lat="41.686255" lon="2.094445">
        <ele>109.0</ele>
        <time>2019-06-09T12:29:41+02:00</time>
      </trkpt>
      <trkpt lat="41.68627834" lon="2.0945083399999995">
        <ele>109.0</ele>
        <time>2019-06-09T12:29:43+02:00</time>
      </trkpt>
      <trkpt lat="41.68630734" lon="2.0945783399999995">
        <ele>110.0</ele>
        <time>2019-06-09T12:29:45+02:00</time>
      </trkpt>
      <trkpt lat="41.68633767" lon="2.0946583399999996">
        <ele>110.0</ele>
        <time>2019-06-09T12:29:47+02:00</time>
      </trkpt>
      <trkpt lat="41.68636433999999" lon="2.094725">
        <ele>110.0</ele>
        <time>2019-06-09T12:29:49+02:00</time>
      </trkpt>
      <trkpt lat="41.686393339999995" lon="2.0947983399999996">
        <ele>111.0</ele>
        <time>2019-06-09T12:29:51+02:00</time>
      </trkpt>
      <trkpt lat="41.68641667000001" lon="2.09486834">
        <ele>111.0</ele>
        <time>2019-06-09T12:29:53+02:00</time>
      </trkpt>
      <trkpt lat="41.68644567" lon="2.0949433399999995">
        <ele>111.0</ele>
        <time>2019-06-09T12:29:55+02:00</time>
      </trkpt>
      <trkpt lat="41.68647867" lon="2.09503">
        <ele>112.0</ele>
        <time>2019-06-09T12:29:57+02:00</time>
      </trkpt>
      <trkpt lat="41.68649899999999" lon="2.0950983399999994">
        <ele>112.0</ele>
        <time>2019-06-09T12:29:59+02:00</time>
      </trkpt>
      <trkpt lat="41.68652667" lon="2.09517667">
        <ele>112.0</ele>
        <time>2019-06-09T12:30:01+02:00</time>
      </trkpt>
      <trkpt lat="41.686549670000005" lon="2.0952550000000003">
        <ele>112.0</ele>
        <time>2019-06-09T12:30:03+02:00</time>
      </trkpt>
      <trkpt lat="41.68657967" lon="2.09534167">
        <ele>112.0</ele>
        <time>2019-06-09T12:30:05+02:00</time>
      </trkpt>
      <trkpt lat="41.68659733999999" lon="2.09541167">
        <ele>113.0</ele>
        <time>2019-06-09T12:30:07+02:00</time>
      </trkpt>
      <trkpt lat="41.68661667" lon="2.09548834">
        <ele>114.0</ele>
        <time>2019-06-09T12:30:09+02:00</time>
      </trkpt>
      <trkpt lat="41.686637669999996" lon="2.09557334">
        <ele>114.0</ele>
        <time>2019-06-09T12:30:11+02:00</time>
      </trkpt>
      <trkpt lat="41.686657" lon="2.095658339999999">
        <ele>114.0</ele>
        <time>2019-06-09T12:30:13+02:00</time>
      </trkpt>
      <trkpt lat="41.68650834" lon="2.09574">
        <ele>114.0</ele>
        <time>2019-06-09T12:30:15+02:00</time>
      </trkpt>
      <trkpt lat="41.68646834" lon="2.09581167">
        <ele>114.0</ele>
        <time>2019-06-09T12:30:17+02:00</time>
      </trkpt>
      <trkpt lat="41.68642167" lon="2.09588167">
        <ele>114.0</ele>
        <time>2019-06-09T12:30:19+02:00</time>
      </trkpt>
      <trkpt lat="41.686383340000006" lon="2.0959383399999996">
        <ele>114.0</ele>
        <time>2019-06-09T12:30:21+02:00</time>
      </trkpt>
      <trkpt lat="41.68634334" lon="2.096">
        <ele>114.0</ele>
        <time>2019-06-09T12:30:23+02:00</time>
      </trkpt>
      <trkpt lat="41.68631167" lon="2.09606667">
        <ele>114.0</ele>
        <time>2019-06-09T12:30:25+02:00</time>
      </trkpt>
      <trkpt lat="41.686279670000005" lon="2.0961400000000006">
        <ele>114.0</ele>
        <time>2019-06-09T12:30:27+02:00</time>
      </trkpt>
      <trkpt lat="41.686251000000006" lon="2.09620667">
        <ele>114.0</ele>
        <time>2019-06-09T12:30:29+02:00</time>
      </trkpt>
      <trkpt lat="41.68621967000001" lon="2.096295">
        <ele>114.0</ele>
        <time>2019-06-09T12:30:31+02:00</time>
      </trkpt>
      <trkpt lat="41.68619400000001" lon="2.09638">
        <ele>114.0</ele>
        <time>2019-06-09T12:30:33+02:00</time>
      </trkpt>
      <trkpt lat="41.686171339999994" lon="2.0964616699999996">
        <ele>114.0</ele>
        <time>2019-06-09T12:30:35+02:00</time>
      </trkpt>
      <trkpt lat="41.686148" lon="2.09654">
        <ele>114.0</ele>
        <time>2019-06-09T12:30:37+02:00</time>
      </trkpt>
      <trkpt lat="41.686124" lon="2.09661667">
        <ele>114.0</ele>
        <time>2019-06-09T12:30:39+02:00</time>
      </trkpt>
      <trkpt lat="41.68610133999999" lon="2.0966950000000004">
        <ele>114.0</ele>
        <time>2019-06-09T12:30:41+02:00</time>
      </trkpt>
      <trkpt lat="41.686080000000004" lon="2.09676667">
        <ele>114.0</ele>
        <time>2019-06-09T12:30:43+02:00</time>
      </trkpt>
      <trkpt lat="41.68605834" lon="2.09683167">
        <ele>115.0</ele>
        <time>2019-06-09T12:30:45+02:00</time>
      </trkpt>
      <trkpt lat="41.685995000000005" lon="2.0968716699999996">
        <ele>116.0</ele>
        <time>2019-06-09T12:30:47+02:00</time>
      </trkpt>
      <trkpt lat="41.68593" lon="2.09691334">
        <ele>116.0</ele>
        <time>2019-06-09T12:30:49+02:00</time>
      </trkpt>
      <trkpt lat="41.685874999999996" lon="2.09694667">
        <ele>117.0</ele>
        <time>2019-06-09T12:30:51+02:00</time>
      </trkpt>
      <trkpt lat="41.68581334" lon="2.09697667">
        <ele>118.0</ele>
        <time>2019-06-09T12:30:53+02:00</time>
      </trkpt>
      <trkpt lat="41.68575333999999" lon="2.09700134">
        <ele>119.0</ele>
        <time>2019-06-09T12:30:55+02:00</time>
      </trkpt>
      <trkpt lat="41.6857" lon="2.0970326699999995">
        <ele>119.0</ele>
        <time>2019-06-09T12:30:57+02:00</time>
      </trkpt>
      <trkpt lat="41.68565" lon="2.0970803399999993">
        <ele>120.0</ele>
        <time>2019-06-09T12:30:59+02:00</time>
      </trkpt>
      <trkpt lat="41.68563167000001" lon="2.0971483399999995">
        <ele>121.0</ele>
        <time>2019-06-09T12:31:01+02:00</time>
      </trkpt>
      <trkpt lat="41.68560834" lon="2.0972150000000003">
        <ele>121.0</ele>
        <time>2019-06-09T12:31:03+02:00</time>
      </trkpt>
      <trkpt lat="41.68558167" lon="2.0972983399999996">
        <ele>122.0</ele>
        <time>2019-06-09T12:31:05+02:00</time>
      </trkpt>
      <trkpt lat="41.68556500000001" lon="2.0973750000000004">
        <ele>122.0</ele>
        <time>2019-06-09T12:31:07+02:00</time>
      </trkpt>
      <trkpt lat="41.68554667" lon="2.0974399999999997">
        <ele>123.0</ele>
        <time>2019-06-09T12:31:09+02:00</time>
      </trkpt>
      <trkpt lat="41.68548634" lon="2.097485">
        <ele>123.0</ele>
        <time>2019-06-09T12:31:12+02:00</time>
      </trkpt>
      <trkpt lat="41.68542334" lon="2.0974616699999995">
        <ele>124.0</ele>
        <time>2019-06-09T12:31:13+02:00</time>
      </trkpt>
      <trkpt lat="41.685368340000004" lon="2.0974166699999994">
        <ele>125.0</ele>
        <time>2019-06-09T12:31:15+02:00</time>
      </trkpt>
      <trkpt lat="41.68530667000001" lon="2.09737">
        <ele>125.0</ele>
        <time>2019-06-09T12:31:17+02:00</time>
      </trkpt>
      <trkpt lat="41.68523834" lon="2.097335">
        <ele>126.0</ele>
        <time>2019-06-09T12:31:19+02:00</time>
      </trkpt>
      <trkpt lat="41.685168340000004" lon="2.0973166699999997">
        <ele>128.0</ele>
        <time>2019-06-09T12:31:21+02:00</time>
      </trkpt>
      <trkpt lat="41.68510667" lon="2.0973040000000003">
        <ele>129.0</ele>
        <time>2019-06-09T12:31:23+02:00</time>
      </trkpt>
      <trkpt lat="41.68506167" lon="2.09730934">
        <ele>130.0</ele>
        <time>2019-06-09T12:31:25+02:00</time>
      </trkpt>
      <trkpt lat="41.68501334" lon="2.0973166699999997">
        <ele>131.0</ele>
        <time>2019-06-09T12:31:27+02:00</time>
      </trkpt>
      <trkpt lat="41.68496167" lon="2.09732634">
        <ele>132.0</ele>
        <time>2019-06-09T12:31:29+02:00</time>
      </trkpt>
      <trkpt lat="41.684911670000005" lon="2.0973433399999997">
        <ele>132.0</ele>
        <time>2019-06-09T12:31:31+02:00</time>
      </trkpt>
      <trkpt lat="41.68485333999999" lon="2.0973629999999996">
        <ele>133.0</ele>
        <time>2019-06-09T12:31:33+02:00</time>
      </trkpt>
      <trkpt lat="41.68480000000001" lon="2.09738134">
        <ele>134.0</ele>
        <time>2019-06-09T12:31:35+02:00</time>
      </trkpt>
      <trkpt lat="41.68474667" lon="2.09739867">
        <ele>134.0</ele>
        <time>2019-06-09T12:31:37+02:00</time>
      </trkpt>
      <trkpt lat="41.68470167" lon="2.09741234">
        <ele>135.0</ele>
        <time>2019-06-09T12:31:39+02:00</time>
      </trkpt>
      <trkpt lat="41.684635" lon="2.097428">
        <ele>136.0</ele>
        <time>2019-06-09T12:31:42+02:00</time>
      </trkpt>
      <trkpt lat="41.68459000000001" lon="2.097436">
        <ele>136.0</ele>
        <time>2019-06-09T12:31:44+02:00</time>
      </trkpt>
      <trkpt lat="41.68454334" lon="2.09744267">
        <ele>136.0</ele>
        <time>2019-06-09T12:31:46+02:00</time>
      </trkpt>
      <trkpt lat="41.68449167000001" lon="2.09744934">
        <ele>136.0</ele>
        <time>2019-06-09T12:31:48+02:00</time>
      </trkpt>
      <trkpt lat="41.684443339999994" lon="2.0974506699999997">
        <ele>136.0</ele>
        <time>2019-06-09T12:31:50+02:00</time>
      </trkpt>
      <trkpt lat="41.684391670000004" lon="2.0974536699999997">
        <ele>136.0</ele>
        <time>2019-06-09T12:31:52+02:00</time>
      </trkpt>
      <trkpt lat="41.684345" lon="2.09745234">
        <ele>137.0</ele>
        <time>2019-06-09T12:31:54+02:00</time>
      </trkpt>
      <trkpt lat="41.6843" lon="2.09744934">
        <ele>137.0</ele>
        <time>2019-06-09T12:31:56+02:00</time>
      </trkpt>
      <trkpt lat="41.68425334" lon="2.09744334">
        <ele>137.0</ele>
        <time>2019-06-09T12:31:58+02:00</time>
      </trkpt>
      <trkpt lat="41.684205000000006" lon="2.097436">
        <ele>138.0</ele>
        <time>2019-06-09T12:32:00+02:00</time>
      </trkpt>
      <trkpt lat="41.684155" lon="2.09742967">
        <ele>138.0</ele>
        <time>2019-06-09T12:32:02+02:00</time>
      </trkpt>
      <trkpt lat="41.684101670000004" lon="2.09742234">
        <ele>139.0</ele>
        <time>2019-06-09T12:32:04+02:00</time>
      </trkpt>
      <trkpt lat="41.684045" lon="2.09741367">
        <ele>139.0</ele>
        <time>2019-06-09T12:32:06+02:00</time>
      </trkpt>
      <trkpt lat="41.683995" lon="2.09740334">
        <ele>140.0</ele>
        <time>2019-06-09T12:32:08+02:00</time>
      </trkpt>
      <trkpt lat="41.683949999999996" lon="2.09739167">
        <ele>140.0</ele>
        <time>2019-06-09T12:32:10+02:00</time>
      </trkpt>
      <trkpt lat="41.68388334" lon="2.0973796699999996">
        <ele>140.0</ele>
        <time>2019-06-09T12:32:13+02:00</time>
      </trkpt>
      <trkpt lat="41.68383" lon="2.09737134">
        <ele>140.0</ele>
        <time>2019-06-09T12:32:15+02:00</time>
      </trkpt>
      <trkpt lat="41.683775000000004" lon="2.0973603400000003">
        <ele>140.0</ele>
        <time>2019-06-09T12:32:17+02:00</time>
      </trkpt>
      <trkpt lat="41.683715" lon="2.0973513400000003">
        <ele>141.0</ele>
        <time>2019-06-09T12:32:19+02:00</time>
      </trkpt>
      <trkpt lat="41.68365667" lon="2.09734234">
        <ele>141.0</ele>
        <time>2019-06-09T12:32:21+02:00</time>
      </trkpt>
      <trkpt lat="41.68359334" lon="2.09734">
        <ele>142.0</ele>
        <time>2019-06-09T12:32:23+02:00</time>
      </trkpt>
      <trkpt lat="41.68353167" lon="2.0973383399999994">
        <ele>142.0</ele>
        <time>2019-06-09T12:32:25+02:00</time>
      </trkpt>
      <trkpt lat="41.683465000000005" lon="2.0973409999999997">
        <ele>142.0</ele>
        <time>2019-06-09T12:32:27+02:00</time>
      </trkpt>
      <trkpt lat="41.683398340000004" lon="2.09734">
        <ele>143.0</ele>
        <time>2019-06-09T12:32:29+02:00</time>
      </trkpt>
      <trkpt lat="41.683333340000004" lon="2.0973433399999997">
        <ele>143.0</ele>
        <time>2019-06-09T12:32:31+02:00</time>
      </trkpt>
      <trkpt lat="41.68327834" lon="2.097347">
        <ele>143.0</ele>
        <time>2019-06-09T12:32:33+02:00</time>
      </trkpt>
      <trkpt lat="41.68322" lon="2.097351">
        <ele>144.0</ele>
        <time>2019-06-09T12:32:35+02:00</time>
      </trkpt>
      <trkpt lat="41.683153340000004" lon="2.097351">
        <ele>144.0</ele>
        <time>2019-06-09T12:32:37+02:00</time>
      </trkpt>
      <trkpt lat="41.68308667" lon="2.0973606699999996">
        <ele>145.0</ele>
        <time>2019-06-09T12:32:39+02:00</time>
      </trkpt>
      <trkpt lat="41.683029999999995" lon="2.0974733399999996">
        <ele>146.0</ele>
        <time>2019-06-09T12:32:41+02:00</time>
      </trkpt>
      <trkpt lat="41.68297833999999" lon="2.09754">
        <ele>147.0</ele>
        <time>2019-06-09T12:32:43+02:00</time>
      </trkpt>
      <trkpt lat="41.682928340000004" lon="2.09760334">
        <ele>147.0</ele>
        <time>2019-06-09T12:32:45+02:00</time>
      </trkpt>
      <trkpt lat="41.68287334" lon="2.09767134">
        <ele>149.0</ele>
        <time>2019-06-09T12:32:47+02:00</time>
      </trkpt>
      <trkpt lat="41.68282333999999" lon="2.0977493399999996">
        <ele>150.0</ele>
        <time>2019-06-09T12:32:49+02:00</time>
      </trkpt>
      <trkpt lat="41.682786670000006" lon="2.09785">
        <ele>151.0</ele>
        <time>2019-06-09T12:32:51+02:00</time>
      </trkpt>
      <trkpt lat="41.682765" lon="2.0979533399999997">
        <ele>152.0</ele>
        <time>2019-06-09T12:32:53+02:00</time>
      </trkpt>
      <trkpt lat="41.68276334" lon="2.0980616700000003">
        <ele>153.0</ele>
        <time>2019-06-09T12:32:55+02:00</time>
      </trkpt>
      <trkpt lat="41.68274667000001" lon="2.098165">
        <ele>154.0</ele>
        <time>2019-06-09T12:32:57+02:00</time>
      </trkpt>
      <trkpt lat="41.68273667" lon="2.09826">
        <ele>155.0</ele>
        <time>2019-06-09T12:32:59+02:00</time>
      </trkpt>
      <trkpt lat="41.68272567" lon="2.098345">
        <ele>155.0</ele>
        <time>2019-06-09T12:33:01+02:00</time>
      </trkpt>
      <trkpt lat="41.682714" lon="2.0984366700000003">
        <ele>156.0</ele>
        <time>2019-06-09T12:33:03+02:00</time>
      </trkpt>
      <trkpt lat="41.682691670000004" lon="2.0985333399999995">
        <ele>156.0</ele>
        <time>2019-06-09T12:33:05+02:00</time>
      </trkpt>
      <trkpt lat="41.68265600000001" lon="2.0986116699999995">
        <ele>157.0</ele>
        <time>2019-06-09T12:33:07+02:00</time>
      </trkpt>
      <trkpt lat="41.682561670000005" lon="2.09867334">
        <ele>158.0</ele>
        <time>2019-06-09T12:33:09+02:00</time>
      </trkpt>
      <trkpt lat="41.68248" lon="2.0987216699999998">
        <ele>158.0</ele>
        <time>2019-06-09T12:33:11+02:00</time>
      </trkpt>
      <trkpt lat="41.68244000000001" lon="2.0987533399999996">
        <ele>159.0</ele>
        <time>2019-06-09T12:33:12+02:00</time>
      </trkpt>
      <trkpt lat="41.68239834" lon="2.0987863399999998">
        <ele>159.0</ele>
        <time>2019-06-09T12:33:13+02:00</time>
      </trkpt>
      <trkpt lat="41.68235167000001" lon="2.0988189999999998">
        <ele>159.0</ele>
        <time>2019-06-09T12:33:14+02:00</time>
      </trkpt>
      <trkpt lat="41.68230334" lon="2.0988513400000004">
        <ele>160.0</ele>
        <time>2019-06-09T12:33:15+02:00</time>
      </trkpt>
      <trkpt lat="41.682255" lon="2.0988903399999996">
        <ele>160.0</ele>
        <time>2019-06-09T12:33:16+02:00</time>
      </trkpt>
      <trkpt lat="41.68221167" lon="2.0989306699999997">
        <ele>161.0</ele>
        <time>2019-06-09T12:33:17+02:00</time>
      </trkpt>
      <trkpt lat="41.68218834" lon="2.0989690000000003">
        <ele>161.0</ele>
        <time>2019-06-09T12:33:18+02:00</time>
      </trkpt>
      <trkpt lat="41.68218167000001" lon="2.09899967">
        <ele>162.0</ele>
        <time>2019-06-09T12:33:19+02:00</time>
      </trkpt>
      <trkpt lat="41.68217333999999" lon="2.0991750000000002">
        <ele>163.0</ele>
        <time>2019-06-09T12:33:21+02:00</time>
      </trkpt>
      <trkpt lat="41.68217167000001" lon="2.09929334">
        <ele>164.0</ele>
        <time>2019-06-09T12:33:23+02:00</time>
      </trkpt>
      <trkpt lat="41.68216834" lon="2.099355">
        <ele>164.0</ele>
        <time>2019-06-09T12:33:24+02:00</time>
      </trkpt>
      <trkpt lat="41.682165000000005" lon="2.0994183399999997">
        <ele>164.0</ele>
        <time>2019-06-09T12:33:25+02:00</time>
      </trkpt>
      <trkpt lat="41.682156000000006" lon="2.0994883399999997">
        <ele>165.0</ele>
        <time>2019-06-09T12:33:26+02:00</time>
      </trkpt>
      <trkpt lat="41.682143339999996" lon="2.09956834">
        <ele>165.0</ele>
        <time>2019-06-09T12:33:27+02:00</time>
      </trkpt>
      <trkpt lat="41.68212934" lon="2.0996466699999994">
        <ele>165.0</ele>
        <time>2019-06-09T12:33:28+02:00</time>
      </trkpt>
      <trkpt lat="41.68211234" lon="2.0997333399999993">
        <ele>166.0</ele>
        <time>2019-06-09T12:33:29+02:00</time>
      </trkpt>
      <trkpt lat="41.682090339999995" lon="2.0998183399999997">
        <ele>166.0</ele>
        <time>2019-06-09T12:33:30+02:00</time>
      </trkpt>
      <trkpt lat="41.682061999999995" lon="2.09990334">
        <ele>167.0</ele>
        <time>2019-06-09T12:33:31+02:00</time>
      </trkpt>
      <trkpt lat="41.68203100000001" lon="2.09998834">
        <ele>167.0</ele>
        <time>2019-06-09T12:33:32+02:00</time>
      </trkpt>
      <trkpt lat="41.682002" lon="2.10009334">
        <ele>168.0</ele>
        <time>2019-06-09T12:33:33+02:00</time>
      </trkpt>
      <trkpt lat="41.68198067" lon="2.1002349999999996">
        <ele>168.0</ele>
        <time>2019-06-09T12:33:34+02:00</time>
      </trkpt>
      <trkpt lat="41.68194467" lon="2.10031167">
        <ele>169.0</ele>
        <time>2019-06-09T12:33:35+02:00</time>
      </trkpt>
      <trkpt lat="41.681919" lon="2.100435">
        <ele>169.0</ele>
        <time>2019-06-09T12:33:36+02:00</time>
      </trkpt>
      <trkpt lat="41.68190167000001" lon="2.1005599999999998">
        <ele>170.0</ele>
        <time>2019-06-09T12:33:37+02:00</time>
      </trkpt>
      <trkpt lat="41.681893" lon="2.1006799999999997">
        <ele>170.0</ele>
        <time>2019-06-09T12:33:38+02:00</time>
      </trkpt>
      <trkpt lat="41.68189133999999" lon="2.1007833399999996">
        <ele>171.0</ele>
        <time>2019-06-09T12:33:39+02:00</time>
      </trkpt>
      <trkpt lat="41.681885339999994" lon="2.1008816699999997">
        <ele>171.0</ele>
        <time>2019-06-09T12:33:40+02:00</time>
      </trkpt>
      <trkpt lat="41.68187334" lon="2.100975">
        <ele>172.0</ele>
        <time>2019-06-09T12:33:41+02:00</time>
      </trkpt>
      <trkpt lat="41.68185233999999" lon="2.101065">
        <ele>172.0</ele>
        <time>2019-06-09T12:33:42+02:00</time>
      </trkpt>
      <trkpt lat="41.681779999999996" lon="2.10112334">
        <ele>174.0</ele>
        <time>2019-06-09T12:33:43+02:00</time>
      </trkpt>
      <trkpt lat="41.68171667" lon="2.1011566699999995">
        <ele>174.0</ele>
        <time>2019-06-09T12:33:44+02:00</time>
      </trkpt>
      <trkpt lat="41.681655" lon="2.1011466699999994">
        <ele>175.0</ele>
        <time>2019-06-09T12:33:45+02:00</time>
      </trkpt>
      <trkpt lat="41.681563340000004" lon="2.10103167">
        <ele>175.0</ele>
        <time>2019-06-09T12:33:46+02:00</time>
      </trkpt>
      <trkpt lat="41.68145834" lon="2.1009783399999997">
        <ele>175.0</ele>
        <time>2019-06-09T12:33:47+02:00</time>
      </trkpt>
      <trkpt lat="41.68137167000001" lon="2.101005">
        <ele>175.0</ele>
        <time>2019-06-09T12:33:48+02:00</time>
      </trkpt>
      <trkpt lat="41.68130167" lon="2.10099167">
        <ele>176.0</ele>
        <time>2019-06-09T12:33:49+02:00</time>
      </trkpt>
      <trkpt lat="41.68122667000001" lon="2.1009533399999993">
        <ele>176.0</ele>
        <time>2019-06-09T12:33:50+02:00</time>
      </trkpt>
      <trkpt lat="41.68114834" lon="2.10091167">
        <ele>177.0</ele>
        <time>2019-06-09T12:33:51+02:00</time>
      </trkpt>
      <trkpt lat="41.681075" lon="2.10084334">
        <ele>177.0</ele>
        <time>2019-06-09T12:33:52+02:00</time>
      </trkpt>
      <trkpt lat="41.680991670000004" lon="2.10077834">
        <ele>177.0</ele>
        <time>2019-06-09T12:33:53+02:00</time>
      </trkpt>
      <trkpt lat="41.68092834" lon="2.100715">
        <ele>178.0</ele>
        <time>2019-06-09T12:33:54+02:00</time>
      </trkpt>
      <trkpt lat="41.68088167" lon="2.10064334">
        <ele>178.0</ele>
        <time>2019-06-09T12:33:55+02:00</time>
      </trkpt>
      <trkpt lat="41.68085" lon="2.1005466699999995">
        <ele>178.0</ele>
        <time>2019-06-09T12:33:56+02:00</time>
      </trkpt>
      <trkpt lat="41.68084" lon="2.1004383399999997">
        <ele>179.0</ele>
        <time>2019-06-09T12:33:57+02:00</time>
      </trkpt>
      <trkpt lat="41.68083" lon="2.10033">
        <ele>179.0</ele>
        <time>2019-06-09T12:33:58+02:00</time>
      </trkpt>
      <trkpt lat="41.680823339999996" lon="2.1002166699999996">
        <ele>179.0</ele>
        <time>2019-06-09T12:33:59+02:00</time>
      </trkpt>
      <trkpt lat="41.680818339999995" lon="2.10010667">
        <ele>180.0</ele>
        <time>2019-06-09T12:34:00+02:00</time>
      </trkpt>
      <trkpt lat="41.68081667" lon="2.0999966699999995">
        <ele>180.0</ele>
        <time>2019-06-09T12:34:01+02:00</time>
      </trkpt>
      <trkpt lat="41.68082667" lon="2.0998916700000003">
        <ele>180.0</ele>
        <time>2019-06-09T12:34:02+02:00</time>
      </trkpt>
      <trkpt lat="41.68082167000001" lon="2.09978">
        <ele>181.0</ele>
        <time>2019-06-09T12:34:03+02:00</time>
      </trkpt>
      <trkpt lat="41.680806" lon="2.0996833399999995">
        <ele>181.0</ele>
        <time>2019-06-09T12:34:04+02:00</time>
      </trkpt>
      <trkpt lat="41.680779339999994" lon="2.0995999999999997">
        <ele>181.0</ele>
        <time>2019-06-09T12:34:05+02:00</time>
      </trkpt>
      <trkpt lat="41.680742339999995" lon="2.0995183399999995">
        <ele>182.0</ele>
        <time>2019-06-09T12:34:06+02:00</time>
      </trkpt>
      <trkpt lat="41.680675" lon="2.0994400000000004">
        <ele>182.0</ele>
        <time>2019-06-09T12:34:07+02:00</time>
      </trkpt>
      <trkpt lat="41.68062" lon="2.0993616699999995">
        <ele>182.0</ele>
        <time>2019-06-09T12:34:08+02:00</time>
      </trkpt>
      <trkpt lat="41.680555670000004" lon="2.0992716699999994">
        <ele>182.0</ele>
        <time>2019-06-09T12:34:09+02:00</time>
      </trkpt>
      <trkpt lat="41.68051799999999" lon="2.0992083399999997">
        <ele>183.0</ele>
        <time>2019-06-09T12:34:10+02:00</time>
      </trkpt>
      <trkpt lat="41.680480339999995" lon="2.0991349999999995">
        <ele>183.0</ele>
        <time>2019-06-09T12:34:11+02:00</time>
      </trkpt>
      <trkpt lat="41.68045599999999" lon="2.09905667">
        <ele>183.0</ele>
        <time>2019-06-09T12:34:12+02:00</time>
      </trkpt>
      <trkpt lat="41.680447" lon="2.0989733399999997">
        <ele>183.0</ele>
        <time>2019-06-09T12:34:13+02:00</time>
      </trkpt>
      <trkpt lat="41.680535" lon="2.09883667">
        <ele>183.0</ele>
        <time>2019-06-09T12:34:14+02:00</time>
      </trkpt>
      <trkpt lat="41.68055667" lon="2.09877">
        <ele>183.0</ele>
        <time>2019-06-09T12:34:15+02:00</time>
      </trkpt>
      <trkpt lat="41.680585" lon="2.09869167">
        <ele>183.0</ele>
        <time>2019-06-09T12:34:16+02:00</time>
      </trkpt>
      <trkpt lat="41.680606669999996" lon="2.098585">
        <ele>183.0</ele>
        <time>2019-06-09T12:34:17+02:00</time>
      </trkpt>
      <trkpt lat="41.680626339999996" lon="2.09851667">
        <ele>183.0</ele>
        <time>2019-06-09T12:34:18+02:00</time>
      </trkpt>
      <trkpt lat="41.680637000000004" lon="2.09842">
        <ele>183.0</ele>
        <time>2019-06-09T12:34:19+02:00</time>
      </trkpt>
      <trkpt lat="41.680638339999994" lon="2.09833167">
        <ele>183.0</ele>
        <time>2019-06-09T12:34:20+02:00</time>
      </trkpt>
      <trkpt lat="41.68061867" lon="2.0982583399999992">
        <ele>183.0</ele>
        <time>2019-06-09T12:34:21+02:00</time>
      </trkpt>
      <trkpt lat="41.680572999999995" lon="2.0981583399999995">
        <ele>183.0</ele>
        <time>2019-06-09T12:34:22+02:00</time>
      </trkpt>
      <trkpt lat="41.680490000000006" lon="2.0980766699999998">
        <ele>183.0</ele>
        <time>2019-06-09T12:34:23+02:00</time>
      </trkpt>
      <trkpt lat="41.68039333999999" lon="2.0979983399999997">
        <ele>183.0</ele>
        <time>2019-06-09T12:34:24+02:00</time>
      </trkpt>
      <trkpt lat="41.68034334" lon="2.09793167">
        <ele>183.0</ele>
        <time>2019-06-09T12:34:25+02:00</time>
      </trkpt>
      <trkpt lat="41.68026667" lon="2.09783667">
        <ele>183.0</ele>
        <time>2019-06-09T12:34:26+02:00</time>
      </trkpt>
      <trkpt lat="41.680218339999996" lon="2.09776">
        <ele>184.0</ele>
        <time>2019-06-09T12:34:27+02:00</time>
      </trkpt>
      <trkpt lat="41.680185339999994" lon="2.0976999999999997">
        <ele>184.0</ele>
        <time>2019-06-09T12:34:28+02:00</time>
      </trkpt>
      <trkpt lat="41.68013934" lon="2.097625">
        <ele>184.0</ele>
        <time>2019-06-09T12:34:29+02:00</time>
      </trkpt>
      <trkpt lat="41.680091340000004" lon="2.0975633399999998">
        <ele>184.0</ele>
        <time>2019-06-09T12:34:30+02:00</time>
      </trkpt>
      <trkpt lat="41.680015000000004" lon="2.0975099999999998">
        <ele>184.0</ele>
        <time>2019-06-09T12:34:31+02:00</time>
      </trkpt>
      <trkpt lat="41.679936670000004" lon="2.09746834">
        <ele>185.0</ele>
        <time>2019-06-09T12:34:32+02:00</time>
      </trkpt>
      <trkpt lat="41.67983667" lon="2.09743667">
        <ele>185.0</ele>
        <time>2019-06-09T12:34:33+02:00</time>
      </trkpt>
      <trkpt lat="41.679748339999996" lon="2.0974150000000003">
        <ele>185.0</ele>
        <time>2019-06-09T12:34:34+02:00</time>
      </trkpt>
      <trkpt lat="41.679678339999995" lon="2.09739834">
        <ele>185.0</ele>
        <time>2019-06-09T12:34:35+02:00</time>
      </trkpt>
      <trkpt lat="41.679593340000004" lon="2.09736667">
        <ele>185.0</ele>
        <time>2019-06-09T12:34:36+02:00</time>
      </trkpt>
      <trkpt lat="41.679518339999994" lon="2.09732834">
        <ele>185.0</ele>
        <time>2019-06-09T12:34:37+02:00</time>
      </trkpt>
      <trkpt lat="41.679458340000004" lon="2.0972809999999997">
        <ele>186.0</ele>
        <time>2019-06-09T12:34:38+02:00</time>
      </trkpt>
      <trkpt lat="41.67939167000001" lon="2.0972233399999998">
        <ele>186.0</ele>
        <time>2019-06-09T12:34:39+02:00</time>
      </trkpt>
      <trkpt lat="41.67932167000001" lon="2.09718034">
        <ele>186.0</ele>
        <time>2019-06-09T12:34:40+02:00</time>
      </trkpt>
      <trkpt lat="41.67917334" lon="2.0971993400000004">
        <ele>186.0</ele>
        <time>2019-06-09T12:34:41+02:00</time>
      </trkpt>
      <trkpt lat="41.679091670000005" lon="2.09730167">
        <ele>186.0</ele>
        <time>2019-06-09T12:34:42+02:00</time>
      </trkpt>
      <trkpt lat="41.67903167000001" lon="2.09731334">
        <ele>186.0</ele>
        <time>2019-06-09T12:34:43+02:00</time>
      </trkpt>
      <trkpt lat="41.67898167" lon="2.0973433399999997">
        <ele>186.0</ele>
        <time>2019-06-09T12:34:44+02:00</time>
      </trkpt>
      <trkpt lat="41.678926669999996" lon="2.0973833399999995">
        <ele>186.0</ele>
        <time>2019-06-09T12:34:45+02:00</time>
      </trkpt>
      <trkpt lat="41.678883340000006" lon="2.09741334">
        <ele>187.0</ele>
        <time>2019-06-09T12:34:46+02:00</time>
      </trkpt>
      <trkpt lat="41.67883167" lon="2.09743">
        <ele>187.0</ele>
        <time>2019-06-09T12:34:47+02:00</time>
      </trkpt>
      <trkpt lat="41.678776670000005" lon="2.09743934">
        <ele>187.0</ele>
        <time>2019-06-09T12:34:48+02:00</time>
      </trkpt>
      <trkpt lat="41.67872167" lon="2.097452">
        <ele>188.0</ele>
        <time>2019-06-09T12:34:49+02:00</time>
      </trkpt>
      <trkpt lat="41.678655" lon="2.0974636700000002">
        <ele>188.0</ele>
        <time>2019-06-09T12:34:50+02:00</time>
      </trkpt>
      <trkpt lat="41.67856667000001" lon="2.0974643399999997">
        <ele>188.0</ele>
        <time>2019-06-09T12:34:52+02:00</time>
      </trkpt>
      <trkpt lat="41.678520000000006" lon="2.09745667">
        <ele>188.0</ele>
        <time>2019-06-09T12:34:53+02:00</time>
      </trkpt>
      <trkpt lat="41.678466670000006" lon="2.097448">
        <ele>188.0</ele>
        <time>2019-06-09T12:34:54+02:00</time>
      </trkpt>
      <trkpt lat="41.67840667" lon="2.09743267">
        <ele>189.0</ele>
        <time>2019-06-09T12:34:55+02:00</time>
      </trkpt>
      <trkpt lat="41.678360000000005" lon="2.0974086699999996">
        <ele>189.0</ele>
        <time>2019-06-09T12:34:56+02:00</time>
      </trkpt>
      <trkpt lat="41.67832167" lon="2.097376">
        <ele>189.0</ele>
        <time>2019-06-09T12:34:57+02:00</time>
      </trkpt>
      <trkpt lat="41.678295" lon="2.09722834">
        <ele>189.0</ele>
        <time>2019-06-09T12:34:58+02:00</time>
      </trkpt>
      <trkpt lat="41.67828333999999" lon="2.0971533399999998">
        <ele>189.0</ele>
        <time>2019-06-09T12:34:59+02:00</time>
      </trkpt>
      <trkpt lat="41.678293339999996" lon="2.09708">
        <ele>189.0</ele>
        <time>2019-06-09T12:35:00+02:00</time>
      </trkpt>
      <trkpt lat="41.678305" lon="2.09701334">
        <ele>190.0</ele>
        <time>2019-06-09T12:35:01+02:00</time>
      </trkpt>
      <trkpt lat="41.67831834" lon="2.09693834">
        <ele>190.0</ele>
        <time>2019-06-09T12:35:02+02:00</time>
      </trkpt>
      <trkpt lat="41.678315000000005" lon="2.09685667">
        <ele>190.0</ele>
        <time>2019-06-09T12:35:03+02:00</time>
      </trkpt>
      <trkpt lat="41.678282" lon="2.0967783399999997">
        <ele>190.0</ele>
        <time>2019-06-09T12:35:04+02:00</time>
      </trkpt>
      <trkpt lat="41.678244670000005" lon="2.09670334">
        <ele>190.0</ele>
        <time>2019-06-09T12:35:05+02:00</time>
      </trkpt>
      <trkpt lat="41.678199670000005" lon="2.096635">
        <ele>191.0</ele>
        <time>2019-06-09T12:35:06+02:00</time>
      </trkpt>
      <trkpt lat="41.678084" lon="2.0965633399999994">
        <ele>191.0</ele>
        <time>2019-06-09T12:35:07+02:00</time>
      </trkpt>
      <trkpt lat="41.67799867" lon="2.0964883399999996">
        <ele>191.0</ele>
        <time>2019-06-09T12:35:08+02:00</time>
      </trkpt>
      <trkpt lat="41.67792667" lon="2.0964133400000002">
        <ele>191.0</ele>
        <time>2019-06-09T12:35:09+02:00</time>
      </trkpt>
      <trkpt lat="41.67787833999999" lon="2.09635167">
        <ele>191.0</ele>
        <time>2019-06-09T12:35:10+02:00</time>
      </trkpt>
      <trkpt lat="41.677825" lon="2.0962766700000004">
        <ele>191.0</ele>
        <time>2019-06-09T12:35:11+02:00</time>
      </trkpt>
      <trkpt lat="41.677746670000005" lon="2.0962033399999997">
        <ele>191.0</ele>
        <time>2019-06-09T12:35:12+02:00</time>
      </trkpt>
      <trkpt lat="41.67766167" lon="2.0961536700000005">
        <ele>191.0</ele>
        <time>2019-06-09T12:35:13+02:00</time>
      </trkpt>
      <trkpt lat="41.677571670000006" lon="2.0961030000000003">
        <ele>192.0</ele>
        <time>2019-06-09T12:35:14+02:00</time>
      </trkpt>
      <trkpt lat="41.67749334" lon="2.096056">
        <ele>192.0</ele>
        <time>2019-06-09T12:35:15+02:00</time>
      </trkpt>
      <trkpt lat="41.67742500000001" lon="2.0960206699999997">
        <ele>192.0</ele>
        <time>2019-06-09T12:35:16+02:00</time>
      </trkpt>
      <trkpt lat="41.67736500000001" lon="2.09599">
        <ele>193.0</ele>
        <time>2019-06-09T12:35:17+02:00</time>
      </trkpt>
      <trkpt lat="41.677305" lon="2.0959666699999997">
        <ele>193.0</ele>
        <time>2019-06-09T12:35:18+02:00</time>
      </trkpt>
      <trkpt lat="41.677243340000004" lon="2.09598667">
        <ele>193.0</ele>
        <time>2019-06-09T12:35:19+02:00</time>
      </trkpt>
      <trkpt lat="41.677145" lon="2.09607334">
        <ele>194.0</ele>
        <time>2019-06-09T12:35:20+02:00</time>
      </trkpt>
      <trkpt lat="41.67709334" lon="2.0961233399999997">
        <ele>194.0</ele>
        <time>2019-06-09T12:35:21+02:00</time>
      </trkpt>
      <trkpt lat="41.67700167000001" lon="2.0961733399999996">
        <ele>195.0</ele>
        <time>2019-06-09T12:35:23+02:00</time>
      </trkpt>
      <trkpt lat="41.67691833999999" lon="2.0962233399999994">
        <ele>195.0</ele>
        <time>2019-06-09T12:35:25+02:00</time>
      </trkpt>
      <trkpt lat="41.67684834" lon="2.09624467">
        <ele>196.0</ele>
        <time>2019-06-09T12:35:27+02:00</time>
      </trkpt>
      <trkpt lat="41.676764999999996" lon="2.096267">
        <ele>197.0</ele>
        <time>2019-06-09T12:35:28+02:00</time>
      </trkpt>
      <trkpt lat="41.676689999999994" lon="2.09627067">
        <ele>197.0</ele>
        <time>2019-06-09T12:35:30+02:00</time>
      </trkpt>
      <trkpt lat="41.676625" lon="2.0962603399999997">
        <ele>198.0</ele>
        <time>2019-06-09T12:35:32+02:00</time>
      </trkpt>
      <trkpt lat="41.67656" lon="2.0962413399999997">
        <ele>198.0</ele>
        <time>2019-06-09T12:35:34+02:00</time>
      </trkpt>
      <trkpt lat="41.67651334" lon="2.09615667">
        <ele>199.0</ele>
        <time>2019-06-09T12:35:36+02:00</time>
      </trkpt>
      <trkpt lat="41.676473339999994" lon="2.0960816700000002">
        <ele>199.0</ele>
        <time>2019-06-09T12:35:38+02:00</time>
      </trkpt>
      <trkpt lat="41.67644" lon="2.09598">
        <ele>199.0</ele>
        <time>2019-06-09T12:35:40+02:00</time>
      </trkpt>
      <trkpt lat="41.67641167" lon="2.09586334">
        <ele>200.0</ele>
        <time>2019-06-09T12:35:42+02:00</time>
      </trkpt>
      <trkpt lat="41.67639834" lon="2.0958016699999997">
        <ele>200.0</ele>
        <time>2019-06-09T12:35:43+02:00</time>
      </trkpt>
      <trkpt lat="41.67638667" lon="2.09574167">
        <ele>200.0</ele>
        <time>2019-06-09T12:35:44+02:00</time>
      </trkpt>
      <trkpt lat="41.67637833999999" lon="2.0956766699999996">
        <ele>200.0</ele>
        <time>2019-06-09T12:35:45+02:00</time>
      </trkpt>
      <trkpt lat="41.67637167000001" lon="2.09561167">
        <ele>200.0</ele>
        <time>2019-06-09T12:35:46+02:00</time>
      </trkpt>
      <trkpt lat="41.67636667000001" lon="2.09554334">
        <ele>200.0</ele>
        <time>2019-06-09T12:35:47+02:00</time>
      </trkpt>
      <trkpt lat="41.67636166999999" lon="2.09547167">
        <ele>200.0</ele>
        <time>2019-06-09T12:35:48+02:00</time>
      </trkpt>
      <trkpt lat="41.67635266999999" lon="2.09539834">
        <ele>200.0</ele>
        <time>2019-06-09T12:35:49+02:00</time>
      </trkpt>
      <trkpt lat="41.676334669999996" lon="2.09532667">
        <ele>200.0</ele>
        <time>2019-06-09T12:35:50+02:00</time>
      </trkpt>
      <trkpt lat="41.67631367" lon="2.0952583399999996">
        <ele>201.0</ele>
        <time>2019-06-09T12:35:51+02:00</time>
      </trkpt>
      <trkpt lat="41.67628767" lon="2.09521334">
        <ele>201.0</ele>
        <time>2019-06-09T12:35:52+02:00</time>
      </trkpt>
      <trkpt lat="41.67625567" lon="2.095185">
        <ele>201.0</ele>
        <time>2019-06-09T12:35:53+02:00</time>
      </trkpt>
      <trkpt lat="41.67616167" lon="2.09516667">
        <ele>201.0</ele>
        <time>2019-06-09T12:35:54+02:00</time>
      </trkpt>
      <trkpt lat="41.67611333999999" lon="2.09515834">
        <ele>202.0</ele>
        <time>2019-06-09T12:35:55+02:00</time>
      </trkpt>
      <trkpt lat="41.67606334" lon="2.09516">
        <ele>202.0</ele>
        <time>2019-06-09T12:35:56+02:00</time>
      </trkpt>
      <trkpt lat="41.67601334" lon="2.095165">
        <ele>202.0</ele>
        <time>2019-06-09T12:35:57+02:00</time>
      </trkpt>
      <trkpt lat="41.67596167000001" lon="2.09517167">
        <ele>202.0</ele>
        <time>2019-06-09T12:35:58+02:00</time>
      </trkpt>
      <trkpt lat="41.675915" lon="2.09517667">
        <ele>203.0</ele>
        <time>2019-06-09T12:35:59+02:00</time>
      </trkpt>
      <trkpt lat="41.675865" lon="2.09518167">
        <ele>203.0</ele>
        <time>2019-06-09T12:36:00+02:00</time>
      </trkpt>
      <trkpt lat="41.67581667" lon="2.0951833399999993">
        <ele>203.0</ele>
        <time>2019-06-09T12:36:01+02:00</time>
      </trkpt>
      <trkpt lat="41.67576834" lon="2.09517667">
        <ele>203.0</ele>
        <time>2019-06-09T12:36:02+02:00</time>
      </trkpt>
      <trkpt lat="41.67572" lon="2.09516167">
        <ele>203.0</ele>
        <time>2019-06-09T12:36:03+02:00</time>
      </trkpt>
      <trkpt lat="41.67567834" lon="2.09513834">
        <ele>203.0</ele>
        <time>2019-06-09T12:36:04+02:00</time>
      </trkpt>
      <trkpt lat="41.67564" lon="2.095104">
        <ele>204.0</ele>
        <time>2019-06-09T12:36:05+02:00</time>
      </trkpt>
      <trkpt lat="41.675605" lon="2.0950606699999996">
        <ele>204.0</ele>
        <time>2019-06-09T12:36:06+02:00</time>
      </trkpt>
      <trkpt lat="41.67556667000001" lon="2.09497">
        <ele>204.0</ele>
        <time>2019-06-09T12:36:07+02:00</time>
      </trkpt>
      <trkpt lat="41.67553167" lon="2.09488667">
        <ele>204.0</ele>
        <time>2019-06-09T12:36:08+02:00</time>
      </trkpt>
      <trkpt lat="41.67550834" lon="2.0948066699999996">
        <ele>205.0</ele>
        <time>2019-06-09T12:36:09+02:00</time>
      </trkpt>
      <trkpt lat="41.67549167" lon="2.09472">
        <ele>205.0</ele>
        <time>2019-06-09T12:36:10+02:00</time>
      </trkpt>
      <trkpt lat="41.67547667000001" lon="2.0946316699999996">
        <ele>205.0</ele>
        <time>2019-06-09T12:36:11+02:00</time>
      </trkpt>
      <trkpt lat="41.67546" lon="2.0945633399999997">
        <ele>205.0</ele>
        <time>2019-06-09T12:36:12+02:00</time>
      </trkpt>
      <trkpt lat="41.67543334" lon="2.0944783399999998">
        <ele>206.0</ele>
        <time>2019-06-09T12:36:13+02:00</time>
      </trkpt>
      <trkpt lat="41.675403669999994" lon="2.09439334">
        <ele>206.0</ele>
        <time>2019-06-09T12:36:14+02:00</time>
      </trkpt>
      <trkpt lat="41.675371670000004" lon="2.094325">
        <ele>206.0</ele>
        <time>2019-06-09T12:36:15+02:00</time>
      </trkpt>
      <trkpt lat="41.675339339999994" lon="2.094275">
        <ele>207.0</ele>
        <time>2019-06-09T12:36:16+02:00</time>
      </trkpt>
      <trkpt lat="41.675295670000004" lon="2.09421834">
        <ele>207.0</ele>
        <time>2019-06-09T12:36:17+02:00</time>
      </trkpt>
      <trkpt lat="41.675262000000004" lon="2.0941816699999998">
        <ele>207.0</ele>
        <time>2019-06-09T12:36:18+02:00</time>
      </trkpt>
      <trkpt lat="41.675169999999994" lon="2.09414834">
        <ele>208.0</ele>
        <time>2019-06-09T12:36:20+02:00</time>
      </trkpt>
      <trkpt lat="41.675106670000005" lon="2.094145">
        <ele>209.0</ele>
        <time>2019-06-09T12:36:22+02:00</time>
      </trkpt>
      <trkpt lat="41.675034999999994" lon="2.094165">
        <ele>209.0</ele>
        <time>2019-06-09T12:36:24+02:00</time>
      </trkpt>
      <trkpt lat="41.674978339999996" lon="2.0941750000000003">
        <ele>210.0</ele>
        <time>2019-06-09T12:36:26+02:00</time>
      </trkpt>
      <trkpt lat="41.67492167" lon="2.09415">
        <ele>210.0</ele>
        <time>2019-06-09T12:36:28+02:00</time>
      </trkpt>
      <trkpt lat="41.67487667" lon="2.09409967">
        <ele>210.0</ele>
        <time>2019-06-09T12:36:30+02:00</time>
      </trkpt>
      <trkpt lat="41.67485167000001" lon="2.0940266700000003">
        <ele>210.0</ele>
        <time>2019-06-09T12:36:32+02:00</time>
      </trkpt>
      <trkpt lat="41.67483" lon="2.0939633399999997">
        <ele>210.0</ele>
        <time>2019-06-09T12:36:34+02:00</time>
      </trkpt>
      <trkpt lat="41.67481834" lon="2.09389667">
        <ele>210.0</ele>
        <time>2019-06-09T12:36:36+02:00</time>
      </trkpt>
      <trkpt lat="41.67480167" lon="2.09381167">
        <ele>210.0</ele>
        <time>2019-06-09T12:36:38+02:00</time>
      </trkpt>
      <trkpt lat="41.674776670000014" lon="2.09374167">
        <ele>210.0</ele>
        <time>2019-06-09T12:36:40+02:00</time>
      </trkpt>
      <trkpt lat="41.67475267" lon="2.09366834">
        <ele>210.0</ele>
        <time>2019-06-09T12:36:42+02:00</time>
      </trkpt>
      <trkpt lat="41.674732340000006" lon="2.0936099999999995">
        <ele>210.0</ele>
        <time>2019-06-09T12:36:44+02:00</time>
      </trkpt>
      <trkpt lat="41.674701670000005" lon="2.093535">
        <ele>210.0</ele>
        <time>2019-06-09T12:36:46+02:00</time>
      </trkpt>
      <trkpt lat="41.67466567" lon="2.0934800000000005">
        <ele>210.0</ele>
        <time>2019-06-09T12:36:48+02:00</time>
      </trkpt>
      <trkpt lat="41.67460834" lon="2.09344">
        <ele>210.0</ele>
        <time>2019-06-09T12:36:50+02:00</time>
      </trkpt>
      <trkpt lat="41.67455534" lon="2.09340167">
        <ele>210.0</ele>
        <time>2019-06-09T12:36:52+02:00</time>
      </trkpt>
      <trkpt lat="41.674504999999996" lon="2.09337834">
        <ele>210.0</ele>
        <time>2019-06-09T12:36:54+02:00</time>
      </trkpt>
      <trkpt lat="41.67444999999999" lon="2.0933599999999997">
        <ele>211.0</ele>
        <time>2019-06-09T12:36:56+02:00</time>
      </trkpt>
      <trkpt lat="41.674398339999996" lon="2.09335">
        <ele>211.0</ele>
        <time>2019-06-09T12:36:58+02:00</time>
      </trkpt>
      <trkpt lat="41.67433333999999" lon="2.0933483399999995">
        <ele>211.0</ele>
        <time>2019-06-09T12:37:00+02:00</time>
      </trkpt>
      <trkpt lat="41.67426834" lon="2.09337334">
        <ele>211.0</ele>
        <time>2019-06-09T12:37:02+02:00</time>
      </trkpt>
      <trkpt lat="41.674220000000005" lon="2.0934049999999997">
        <ele>211.0</ele>
        <time>2019-06-09T12:37:04+02:00</time>
      </trkpt>
      <trkpt lat="41.67416999999999" lon="2.0934466699999996">
        <ele>211.0</ele>
        <time>2019-06-09T12:37:06+02:00</time>
      </trkpt>
      <trkpt lat="41.674125000000004" lon="2.0934883399999995">
        <ele>211.0</ele>
        <time>2019-06-09T12:37:08+02:00</time>
      </trkpt>
      <trkpt lat="41.674074999999995" lon="2.0935433399999996">
        <ele>211.0</ele>
        <time>2019-06-09T12:37:10+02:00</time>
      </trkpt>
      <trkpt lat="41.67402833999999" lon="2.0936150000000007">
        <ele>211.0</ele>
        <time>2019-06-09T12:37:12+02:00</time>
      </trkpt>
      <trkpt lat="41.673988339999994" lon="2.09368634">
        <ele>211.0</ele>
        <time>2019-06-09T12:37:14+02:00</time>
      </trkpt>
      <trkpt lat="41.673943339999994" lon="2.0937683399999996">
        <ele>211.0</ele>
        <time>2019-06-09T12:37:16+02:00</time>
      </trkpt>
      <trkpt lat="41.6739" lon="2.0938499999999998">
        <ele>211.0</ele>
        <time>2019-06-09T12:37:18+02:00</time>
      </trkpt>
      <trkpt lat="41.67384833999999" lon="2.09392">
        <ele>211.0</ele>
        <time>2019-06-09T12:37:20+02:00</time>
      </trkpt>
      <trkpt lat="41.67379" lon="2.0939849999999995">
        <ele>211.0</ele>
        <time>2019-06-09T12:37:22+02:00</time>
      </trkpt>
      <trkpt lat="41.67371833999999" lon="2.094035">
        <ele>211.0</ele>
        <time>2019-06-09T12:37:24+02:00</time>
      </trkpt>
      <trkpt lat="41.67366" lon="2.0940696699999997">
        <ele>211.0</ele>
        <time>2019-06-09T12:37:26+02:00</time>
      </trkpt>
      <trkpt lat="41.67359667000001" lon="2.0940900000000005">
        <ele>212.0</ele>
        <time>2019-06-09T12:37:28+02:00</time>
      </trkpt>
      <trkpt lat="41.673525" lon="2.0940833399999996">
        <ele>212.0</ele>
        <time>2019-06-09T12:37:30+02:00</time>
      </trkpt>
      <trkpt lat="41.67345999999999" lon="2.09403834">
        <ele>212.0</ele>
        <time>2019-06-09T12:37:32+02:00</time>
      </trkpt>
      <trkpt lat="41.673405" lon="2.0939666699999995">
        <ele>212.0</ele>
        <time>2019-06-09T12:37:34+02:00</time>
      </trkpt>
      <trkpt lat="41.67335" lon="2.0938749999999997">
        <ele>212.0</ele>
        <time>2019-06-09T12:37:36+02:00</time>
      </trkpt>
      <trkpt lat="41.673289999999994" lon="2.09378834">
        <ele>212.0</ele>
        <time>2019-06-09T12:37:38+02:00</time>
      </trkpt>
      <trkpt lat="41.673251670000006" lon="2.09375">
        <ele>212.0</ele>
        <time>2019-06-09T12:37:39+02:00</time>
      </trkpt>
      <trkpt lat="41.67320834" lon="2.09372934">
        <ele>212.0</ele>
        <time>2019-06-09T12:37:40+02:00</time>
      </trkpt>
      <trkpt lat="41.673131670000004" lon="2.0937220000000005">
        <ele>212.0</ele>
        <time>2019-06-09T12:37:42+02:00</time>
      </trkpt>
      <trkpt lat="41.673071670000006" lon="2.0937633399999998">
        <ele>213.0</ele>
        <time>2019-06-09T12:37:44+02:00</time>
      </trkpt>
      <trkpt lat="41.67303167" lon="2.0938033399999996">
        <ele>213.0</ele>
        <time>2019-06-09T12:37:46+02:00</time>
      </trkpt>
      <trkpt lat="41.67297833999999" lon="2.093855">
        <ele>213.0</ele>
        <time>2019-06-09T12:37:48+02:00</time>
      </trkpt>
      <trkpt lat="41.672925000000006" lon="2.09390167">
        <ele>213.0</ele>
        <time>2019-06-09T12:37:50+02:00</time>
      </trkpt>
      <trkpt lat="41.672875000000005" lon="2.09393634">
        <ele>213.0</ele>
        <time>2019-06-09T12:37:52+02:00</time>
      </trkpt>
      <trkpt lat="41.672813340000005" lon="2.0939723399999997">
        <ele>214.0</ele>
        <time>2019-06-09T12:37:54+02:00</time>
      </trkpt>
      <trkpt lat="41.67276" lon="2.09399234">
        <ele>214.0</ele>
        <time>2019-06-09T12:37:56+02:00</time>
      </trkpt>
      <trkpt lat="41.672709999999995" lon="2.0940116699999995">
        <ele>214.0</ele>
        <time>2019-06-09T12:37:58+02:00</time>
      </trkpt>
      <trkpt lat="41.67265834" lon="2.094029">
        <ele>215.0</ele>
        <time>2019-06-09T12:38:00+02:00</time>
      </trkpt>
      <trkpt lat="41.672603339999995" lon="2.094049">
        <ele>215.0</ele>
        <time>2019-06-09T12:38:02+02:00</time>
      </trkpt>
      <trkpt lat="41.67255834000001" lon="2.0940649999999996">
        <ele>215.0</ele>
        <time>2019-06-09T12:38:04+02:00</time>
      </trkpt>
      <trkpt lat="41.672520000000006" lon="2.094085">
        <ele>215.0</ele>
        <time>2019-06-09T12:38:06+02:00</time>
      </trkpt>
      <trkpt lat="41.67247834" lon="2.09410934">
        <ele>215.0</ele>
        <time>2019-06-09T12:38:08+02:00</time>
      </trkpt>
      <trkpt lat="41.672430000000006" lon="2.0941400000000003">
        <ele>215.0</ele>
        <time>2019-06-09T12:38:10+02:00</time>
      </trkpt>
      <trkpt lat="41.67237999999999" lon="2.094172">
        <ele>215.0</ele>
        <time>2019-06-09T12:38:12+02:00</time>
      </trkpt>
      <trkpt lat="41.672326670000004" lon="2.0942033399999995">
        <ele>214.0</ele>
        <time>2019-06-09T12:38:14+02:00</time>
      </trkpt>
      <trkpt lat="41.67227000000001" lon="2.09421667">
        <ele>214.0</ele>
        <time>2019-06-09T12:38:16+02:00</time>
      </trkpt>
      <trkpt lat="41.672216670000005" lon="2.0942033399999995">
        <ele>213.0</ele>
        <time>2019-06-09T12:38:18+02:00</time>
      </trkpt>
      <trkpt lat="41.67216667000001" lon="2.0941716699999997">
        <ele>213.0</ele>
        <time>2019-06-09T12:38:20+02:00</time>
      </trkpt>
      <trkpt lat="41.672126670000004" lon="2.09412667">
        <ele>213.0</ele>
        <time>2019-06-09T12:38:22+02:00</time>
      </trkpt>
      <trkpt lat="41.67208334" lon="2.09408">
        <ele>213.0</ele>
        <time>2019-06-09T12:38:24+02:00</time>
      </trkpt>
      <trkpt lat="41.672039999999996" lon="2.09404">
        <ele>212.0</ele>
        <time>2019-06-09T12:38:26+02:00</time>
      </trkpt>
      <trkpt lat="41.67198334" lon="2.09401334">
        <ele>212.0</ele>
        <time>2019-06-09T12:38:28+02:00</time>
      </trkpt>
      <trkpt lat="41.67192333999999" lon="2.0940003399999996">
        <ele>211.0</ele>
        <time>2019-06-09T12:38:30+02:00</time>
      </trkpt>
      <trkpt lat="41.67186667" lon="2.09399567">
        <ele>211.0</ele>
        <time>2019-06-09T12:38:32+02:00</time>
      </trkpt>
      <trkpt lat="41.67181667000001" lon="2.094005">
        <ele>211.0</ele>
        <time>2019-06-09T12:38:34+02:00</time>
      </trkpt>
      <trkpt lat="41.671766670000004" lon="2.0940116699999995">
        <ele>211.0</ele>
        <time>2019-06-09T12:38:36+02:00</time>
      </trkpt>
      <trkpt lat="41.67171334000001" lon="2.09401267">
        <ele>211.0</ele>
        <time>2019-06-09T12:38:38+02:00</time>
      </trkpt>
      <trkpt lat="41.671661670000006" lon="2.09402434">
        <ele>211.0</ele>
        <time>2019-06-09T12:38:40+02:00</time>
      </trkpt>
      <trkpt lat="41.671615" lon="2.0940426699999994">
        <ele>211.0</ele>
        <time>2019-06-09T12:38:42+02:00</time>
      </trkpt>
      <trkpt lat="41.671575" lon="2.0940916699999996">
        <ele>211.0</ele>
        <time>2019-06-09T12:38:44+02:00</time>
      </trkpt>
      <trkpt lat="41.67152334000001" lon="2.0941466699999998">
        <ele>211.0</ele>
        <time>2019-06-09T12:38:46+02:00</time>
      </trkpt>
      <trkpt lat="41.671468340000004" lon="2.0942">
        <ele>211.0</ele>
        <time>2019-06-09T12:38:48+02:00</time>
      </trkpt>
      <trkpt lat="41.67140834" lon="2.094228">
        <ele>211.0</ele>
        <time>2019-06-09T12:38:50+02:00</time>
      </trkpt>
      <trkpt lat="41.67135499999999" lon="2.094245">
        <ele>211.0</ele>
        <time>2019-06-09T12:38:52+02:00</time>
      </trkpt>
      <trkpt lat="41.67129833999999" lon="2.094255">
        <ele>211.0</ele>
        <time>2019-06-09T12:38:54+02:00</time>
      </trkpt>
      <trkpt lat="41.671243340000004" lon="2.094245">
        <ele>211.0</ele>
        <time>2019-06-09T12:38:56+02:00</time>
      </trkpt>
      <trkpt lat="41.671183340000006" lon="2.09424">
        <ele>210.0</ele>
        <time>2019-06-09T12:38:59+02:00</time>
      </trkpt>
      <trkpt lat="41.67112" lon="2.0942193399999995">
        <ele>209.0</ele>
        <time>2019-06-09T12:39:02+02:00</time>
      </trkpt>
      <trkpt lat="41.67107333999999" lon="2.0942006699999998">
        <ele>208.0</ele>
        <time>2019-06-09T12:39:04+02:00</time>
      </trkpt>
      <trkpt lat="41.67102833999999" lon="2.0941780000000003">
        <ele>207.0</ele>
        <time>2019-06-09T12:39:06+02:00</time>
      </trkpt>
      <trkpt lat="41.67097833999999" lon="2.0941439999999996">
        <ele>206.0</ele>
        <time>2019-06-09T12:39:08+02:00</time>
      </trkpt>
      <trkpt lat="41.670921670000006" lon="2.0940633399999995">
        <ele>205.0</ele>
        <time>2019-06-09T12:39:10+02:00</time>
      </trkpt>
      <trkpt lat="41.67087334" lon="2.093995">
        <ele>205.0</ele>
        <time>2019-06-09T12:39:12+02:00</time>
      </trkpt>
      <trkpt lat="41.67084334" lon="2.09391">
        <ele>204.0</ele>
        <time>2019-06-09T12:39:14+02:00</time>
      </trkpt>
      <trkpt lat="41.67083334" lon="2.093815">
        <ele>204.0</ele>
        <time>2019-06-09T12:39:16+02:00</time>
      </trkpt>
      <trkpt lat="41.67083334" lon="2.09372167">
        <ele>203.0</ele>
        <time>2019-06-09T12:39:18+02:00</time>
      </trkpt>
      <trkpt lat="41.67083667000001" lon="2.0936416700000002">
        <ele>203.0</ele>
        <time>2019-06-09T12:39:20+02:00</time>
      </trkpt>
      <trkpt lat="41.670851670000005" lon="2.09354834">
        <ele>203.0</ele>
        <time>2019-06-09T12:39:22+02:00</time>
      </trkpt>
      <trkpt lat="41.670865000000006" lon="2.09344">
        <ele>202.0</ele>
        <time>2019-06-09T12:39:24+02:00</time>
      </trkpt>
      <trkpt lat="41.67086633999999" lon="2.09337834">
        <ele>202.0</ele>
        <time>2019-06-09T12:39:25+02:00</time>
      </trkpt>
      <trkpt lat="41.670860000000005" lon="2.09331">
        <ele>202.0</ele>
        <time>2019-06-09T12:39:26+02:00</time>
      </trkpt>
      <trkpt lat="41.670847" lon="2.0932366699999996">
        <ele>202.0</ele>
        <time>2019-06-09T12:39:27+02:00</time>
      </trkpt>
      <trkpt lat="41.67082667000001" lon="2.093165">
        <ele>202.0</ele>
        <time>2019-06-09T12:39:28+02:00</time>
      </trkpt>
      <trkpt lat="41.670799" lon="2.09309667">
        <ele>202.0</ele>
        <time>2019-06-09T12:39:29+02:00</time>
      </trkpt>
      <trkpt lat="41.67074667000001" lon="2.09303167">
        <ele>202.0</ele>
        <time>2019-06-09T12:39:30+02:00</time>
      </trkpt>
      <trkpt lat="41.67070167" lon="2.09297">
        <ele>202.0</ele>
        <time>2019-06-09T12:39:31+02:00</time>
      </trkpt>
      <trkpt lat="41.67065334" lon="2.09291334">
        <ele>202.0</ele>
        <time>2019-06-09T12:39:32+02:00</time>
      </trkpt>
      <trkpt lat="41.67060334" lon="2.0928666700000003">
        <ele>202.0</ele>
        <time>2019-06-09T12:39:33+02:00</time>
      </trkpt>
      <trkpt lat="41.67055334" lon="2.0928383399999997">
        <ele>202.0</ele>
        <time>2019-06-09T12:39:34+02:00</time>
      </trkpt>
      <trkpt lat="41.67048" lon="2.0928016699999996">
        <ele>202.0</ele>
        <time>2019-06-09T12:39:35+02:00</time>
      </trkpt>
      <trkpt lat="41.67042834" lon="2.092785">
        <ele>203.0</ele>
        <time>2019-06-09T12:39:36+02:00</time>
      </trkpt>
      <trkpt lat="41.67036167" lon="2.09276167">
        <ele>203.0</ele>
        <time>2019-06-09T12:39:37+02:00</time>
      </trkpt>
      <trkpt lat="41.670296670000006" lon="2.09274">
        <ele>203.0</ele>
        <time>2019-06-09T12:39:38+02:00</time>
      </trkpt>
      <trkpt lat="41.67022667" lon="2.092705">
        <ele>204.0</ele>
        <time>2019-06-09T12:39:39+02:00</time>
      </trkpt>
      <trkpt lat="41.67018" lon="2.09266767">
        <ele>204.0</ele>
        <time>2019-06-09T12:39:40+02:00</time>
      </trkpt>
      <trkpt lat="41.67008167" lon="2.09254867">
        <ele>206.0</ele>
        <time>2019-06-09T12:39:41+02:00</time>
      </trkpt>
      <trkpt lat="41.67005167000001" lon="2.0924966699999996">
        <ele>206.0</ele>
        <time>2019-06-09T12:39:42+02:00</time>
      </trkpt>
      <trkpt lat="41.670003339999994" lon="2.092422">
        <ele>207.0</ele>
        <time>2019-06-09T12:39:44+02:00</time>
      </trkpt>
      <trkpt lat="41.66997" lon="2.0923366699999995">
        <ele>207.0</ele>
        <time>2019-06-09T12:39:45+02:00</time>
      </trkpt>
      <trkpt lat="41.66990167000001" lon="2.0922599999999996">
        <ele>208.0</ele>
        <time>2019-06-09T12:39:47+02:00</time>
      </trkpt>
      <trkpt lat="41.66983167" lon="2.09221334">
        <ele>208.0</ele>
        <time>2019-06-09T12:39:49+02:00</time>
      </trkpt>
      <trkpt lat="41.669781670000006" lon="2.09218534">
        <ele>208.0</ele>
        <time>2019-06-09T12:39:50+02:00</time>
      </trkpt>
      <trkpt lat="41.669693339999995" lon="2.092143">
        <ele>209.0</ele>
        <time>2019-06-09T12:39:52+02:00</time>
      </trkpt>
      <trkpt lat="41.66964834" lon="2.0921263399999996">
        <ele>209.0</ele>
        <time>2019-06-09T12:39:53+02:00</time>
      </trkpt>
      <trkpt lat="41.66956334" lon="2.09209934">
        <ele>209.0</ele>
        <time>2019-06-09T12:39:55+02:00</time>
      </trkpt>
      <trkpt lat="41.669518339999996" lon="2.092089">
        <ele>209.0</ele>
        <time>2019-06-09T12:39:56+02:00</time>
      </trkpt>
      <trkpt lat="41.669433340000005" lon="2.0920680000000003">
        <ele>210.0</ele>
        <time>2019-06-09T12:39:58+02:00</time>
      </trkpt>
      <trkpt lat="41.66935334" lon="2.0920476700000004">
        <ele>210.0</ele>
        <time>2019-06-09T12:40:00+02:00</time>
      </trkpt>
      <trkpt lat="41.669273340000004" lon="2.09202767">
        <ele>210.0</ele>
        <time>2019-06-09T12:40:02+02:00</time>
      </trkpt>
      <trkpt lat="41.66919" lon="2.0920063399999997">
        <ele>210.0</ele>
        <time>2019-06-09T12:40:04+02:00</time>
      </trkpt>
      <trkpt lat="41.66910333999999" lon="2.0919833399999996">
        <ele>210.0</ele>
        <time>2019-06-09T12:40:06+02:00</time>
      </trkpt>
      <trkpt lat="41.66902667000001" lon="2.09196034">
        <ele>211.0</ele>
        <time>2019-06-09T12:40:08+02:00</time>
      </trkpt>
      <trkpt lat="41.668945" lon="2.0919326699999994">
        <ele>211.0</ele>
        <time>2019-06-09T12:40:10+02:00</time>
      </trkpt>
      <trkpt lat="41.66889834" lon="2.0919129999999995">
        <ele>211.0</ele>
        <time>2019-06-09T12:40:11+02:00</time>
      </trkpt>
      <trkpt lat="41.66884167000001" lon="2.09189167">
        <ele>211.0</ele>
        <time>2019-06-09T12:40:12+02:00</time>
      </trkpt>
      <trkpt lat="41.668785" lon="2.0918673399999994">
        <ele>211.0</ele>
        <time>2019-06-09T12:40:13+02:00</time>
      </trkpt>
      <trkpt lat="41.66873" lon="2.0918456699999997">
        <ele>212.0</ele>
        <time>2019-06-09T12:40:14+02:00</time>
      </trkpt>
      <trkpt lat="41.66867667" lon="2.09182167">
        <ele>212.0</ele>
        <time>2019-06-09T12:40:15+02:00</time>
      </trkpt>
      <trkpt lat="41.66862999999999" lon="2.09179867">
        <ele>212.0</ele>
        <time>2019-06-09T12:40:16+02:00</time>
      </trkpt>
      <trkpt lat="41.66858334" lon="2.0917719999999997">
        <ele>212.0</ele>
        <time>2019-06-09T12:40:17+02:00</time>
      </trkpt>
      <trkpt lat="41.66854" lon="2.0917446699999998">
        <ele>212.0</ele>
        <time>2019-06-09T12:40:18+02:00</time>
      </trkpt>
      <trkpt lat="41.66849667" lon="2.09171367">
        <ele>212.0</ele>
        <time>2019-06-09T12:40:19+02:00</time>
      </trkpt>
      <trkpt lat="41.66846334" lon="2.09168167">
        <ele>213.0</ele>
        <time>2019-06-09T12:40:20+02:00</time>
      </trkpt>
      <trkpt lat="41.668431670000004" lon="2.09164967">
        <ele>213.0</ele>
        <time>2019-06-09T12:40:21+02:00</time>
      </trkpt>
      <trkpt lat="41.66839167" lon="2.0916129999999997">
        <ele>213.0</ele>
        <time>2019-06-09T12:40:22+02:00</time>
      </trkpt>
      <trkpt lat="41.668348339999994" lon="2.091577">
        <ele>213.0</ele>
        <time>2019-06-09T12:40:23+02:00</time>
      </trkpt>
      <trkpt lat="41.66825999999999" lon="2.09152034">
        <ele>214.0</ele>
        <time>2019-06-09T12:40:25+02:00</time>
      </trkpt>
      <trkpt lat="41.66821167" lon="2.091488">
        <ele>214.0</ele>
        <time>2019-06-09T12:40:26+02:00</time>
      </trkpt>
      <trkpt lat="41.668165" lon="2.0914166699999996">
        <ele>214.0</ele>
        <time>2019-06-09T12:40:27+02:00</time>
      </trkpt>
      <trkpt lat="41.66811834" lon="2.0914283399999993">
        <ele>214.0</ele>
        <time>2019-06-09T12:40:28+02:00</time>
      </trkpt>
      <trkpt lat="41.66803334" lon="2.09146">
        <ele>215.0</ele>
        <time>2019-06-09T12:40:30+02:00</time>
      </trkpt>
      <trkpt lat="41.667948339999995" lon="2.0914866699999997">
        <ele>215.0</ele>
        <time>2019-06-09T12:40:32+02:00</time>
      </trkpt>
      <trkpt lat="41.66787333999999" lon="2.0915113400000003">
        <ele>216.0</ele>
        <time>2019-06-09T12:40:34+02:00</time>
      </trkpt>
      <trkpt lat="41.66782167" lon="2.091528">
        <ele>216.0</ele>
        <time>2019-06-09T12:40:35+02:00</time>
      </trkpt>
      <trkpt lat="41.66773334" lon="2.09155667">
        <ele>216.0</ele>
        <time>2019-06-09T12:40:37+02:00</time>
      </trkpt>
      <trkpt lat="41.66764833999999" lon="2.09158367">
        <ele>216.0</ele>
        <time>2019-06-09T12:40:39+02:00</time>
      </trkpt>
      <trkpt lat="41.66756667000001" lon="2.09160734">
        <ele>216.0</ele>
        <time>2019-06-09T12:40:41+02:00</time>
      </trkpt>
      <trkpt lat="41.667505" lon="2.09162267">
        <ele>217.0</ele>
        <time>2019-06-09T12:40:43+02:00</time>
      </trkpt>
      <trkpt lat="41.667458339999996" lon="2.091633">
        <ele>217.0</ele>
        <time>2019-06-09T12:40:44+02:00</time>
      </trkpt>
      <trkpt lat="41.66737667" lon="2.091658">
        <ele>217.0</ele>
        <time>2019-06-09T12:40:46+02:00</time>
      </trkpt>
      <trkpt lat="41.667298339999995" lon="2.0916883399999997">
        <ele>217.0</ele>
        <time>2019-06-09T12:40:48+02:00</time>
      </trkpt>
      <trkpt lat="41.66721667" lon="2.0917213400000003">
        <ele>217.0</ele>
        <time>2019-06-09T12:40:50+02:00</time>
      </trkpt>
      <trkpt lat="41.66713334" lon="2.0917553399999997">
        <ele>217.0</ele>
        <time>2019-06-09T12:40:52+02:00</time>
      </trkpt>
      <trkpt lat="41.66705167" lon="2.09178967">
        <ele>218.0</ele>
        <time>2019-06-09T12:40:54+02:00</time>
      </trkpt>
      <trkpt lat="41.666965" lon="2.09182067">
        <ele>218.0</ele>
        <time>2019-06-09T12:40:56+02:00</time>
      </trkpt>
      <trkpt lat="41.66687334" lon="2.0918496699999998">
        <ele>218.0</ele>
        <time>2019-06-09T12:40:58+02:00</time>
      </trkpt>
      <trkpt lat="41.66682667" lon="2.09186267">
        <ele>219.0</ele>
        <time>2019-06-09T12:40:59+02:00</time>
      </trkpt>
      <trkpt lat="41.66677834" lon="2.09187267">
        <ele>219.0</ele>
        <time>2019-06-09T12:41:00+02:00</time>
      </trkpt>
      <trkpt lat="41.666731670000004" lon="2.09188167">
        <ele>219.0</ele>
        <time>2019-06-09T12:41:01+02:00</time>
      </trkpt>
      <trkpt lat="41.66663834" lon="2.0918983399999993">
        <ele>219.0</ele>
        <time>2019-06-09T12:41:03+02:00</time>
      </trkpt>
      <trkpt lat="41.66655334" lon="2.09191267">
        <ele>220.0</ele>
        <time>2019-06-09T12:41:05+02:00</time>
      </trkpt>
      <trkpt lat="41.6665" lon="2.09191367">
        <ele>220.0</ele>
        <time>2019-06-09T12:41:06+02:00</time>
      </trkpt>
      <trkpt lat="41.66641334" lon="2.0919220000000003">
        <ele>220.0</ele>
        <time>2019-06-09T12:41:08+02:00</time>
      </trkpt>
      <trkpt lat="41.66632499999999" lon="2.0919239999999997">
        <ele>221.0</ele>
        <time>2019-06-09T12:41:10+02:00</time>
      </trkpt>
      <trkpt lat="41.66628334" lon="2.09191534">
        <ele>221.0</ele>
        <time>2019-06-09T12:41:11+02:00</time>
      </trkpt>
      <trkpt lat="41.666215" lon="2.09190434">
        <ele>221.0</ele>
        <time>2019-06-09T12:41:13+02:00</time>
      </trkpt>
      <trkpt lat="41.66616167" lon="2.0918870000000003">
        <ele>222.0</ele>
        <time>2019-06-09T12:41:15+02:00</time>
      </trkpt>
      <trkpt lat="41.666090000000004" lon="2.0918699999999997">
        <ele>222.0</ele>
        <time>2019-06-09T12:41:17+02:00</time>
      </trkpt>
      <trkpt lat="41.66602667000001" lon="2.0918456699999997">
        <ele>223.0</ele>
        <time>2019-06-09T12:41:19+02:00</time>
      </trkpt>
      <trkpt lat="41.665946670000004" lon="2.091829">
        <ele>223.0</ele>
        <time>2019-06-09T12:41:21+02:00</time>
      </trkpt>
      <trkpt lat="41.66589834" lon="2.0918076699999997">
        <ele>223.0</ele>
        <time>2019-06-09T12:41:22+02:00</time>
      </trkpt>
      <trkpt lat="41.665815" lon="2.09179267">
        <ele>224.0</ele>
        <time>2019-06-09T12:41:24+02:00</time>
      </trkpt>
      <trkpt lat="41.665766670000004" lon="2.09177467">
        <ele>224.0</ele>
        <time>2019-06-09T12:41:25+02:00</time>
      </trkpt>
      <trkpt lat="41.66571834" lon="2.0917603399999996">
        <ele>224.0</ele>
        <time>2019-06-09T12:41:26+02:00</time>
      </trkpt>
      <trkpt lat="41.66563334000001" lon="2.09175234">
        <ele>224.0</ele>
        <time>2019-06-09T12:41:28+02:00</time>
      </trkpt>
      <trkpt lat="41.66558167" lon="2.09167334">
        <ele>224.0</ele>
        <time>2019-06-09T12:41:29+02:00</time>
      </trkpt>
      <trkpt lat="41.66553834" lon="2.0916900000000003">
        <ele>224.0</ele>
        <time>2019-06-09T12:41:30+02:00</time>
      </trkpt>
      <trkpt lat="41.66549334" lon="2.091705">
        <ele>224.0</ele>
        <time>2019-06-09T12:41:31+02:00</time>
      </trkpt>
      <trkpt lat="41.66544667" lon="2.0917193399999996">
        <ele>224.0</ele>
        <time>2019-06-09T12:41:32+02:00</time>
      </trkpt>
      <trkpt lat="41.66539667" lon="2.0917310000000002">
        <ele>225.0</ele>
        <time>2019-06-09T12:41:33+02:00</time>
      </trkpt>
      <trkpt lat="41.665346670000005" lon="2.09174334">
        <ele>225.0</ele>
        <time>2019-06-09T12:41:34+02:00</time>
      </trkpt>
      <trkpt lat="41.665295" lon="2.0917570000000003">
        <ele>225.0</ele>
        <time>2019-06-09T12:41:35+02:00</time>
      </trkpt>
      <trkpt lat="41.665243339999996" lon="2.09177234">
        <ele>225.0</ele>
        <time>2019-06-09T12:41:36+02:00</time>
      </trkpt>
      <trkpt lat="41.665195000000004" lon="2.091786">
        <ele>225.0</ele>
        <time>2019-06-09T12:41:37+02:00</time>
      </trkpt>
      <trkpt lat="41.665148339999995" lon="2.091799">
        <ele>225.0</ele>
        <time>2019-06-09T12:41:38+02:00</time>
      </trkpt>
      <trkpt lat="41.665103339999995" lon="2.0918093399999997">
        <ele>225.0</ele>
        <time>2019-06-09T12:41:39+02:00</time>
      </trkpt>
      <trkpt lat="41.665013339999994" lon="2.09182934">
        <ele>225.0</ele>
        <time>2019-06-09T12:41:41+02:00</time>
      </trkpt>
      <trkpt lat="41.664968339999994" lon="2.0918356699999996">
        <ele>225.0</ele>
        <time>2019-06-09T12:41:42+02:00</time>
      </trkpt>
      <trkpt lat="41.664923339999994" lon="2.09184167">
        <ele>226.0</ele>
        <time>2019-06-09T12:41:43+02:00</time>
      </trkpt>
      <trkpt lat="41.66482834" lon="2.0918579999999998">
        <ele>226.0</ele>
        <time>2019-06-09T12:41:45+02:00</time>
      </trkpt>
      <trkpt lat="41.66478167" lon="2.091862">
        <ele>226.0</ele>
        <time>2019-06-09T12:41:46+02:00</time>
      </trkpt>
      <trkpt lat="41.66473667" lon="2.0918650000000003">
        <ele>226.0</ele>
        <time>2019-06-09T12:41:47+02:00</time>
      </trkpt>
      <trkpt lat="41.66469167000001" lon="2.0918693399999997">
        <ele>226.0</ele>
        <time>2019-06-09T12:41:48+02:00</time>
      </trkpt>
      <trkpt lat="41.66464667" lon="2.09187267">
        <ele>226.0</ele>
        <time>2019-06-09T12:41:49+02:00</time>
      </trkpt>
      <trkpt lat="41.66460167" lon="2.09187334">
        <ele>226.0</ele>
        <time>2019-06-09T12:41:50+02:00</time>
      </trkpt>
      <trkpt lat="41.664523339999995" lon="2.091881">
        <ele>226.0</ele>
        <time>2019-06-09T12:41:52+02:00</time>
      </trkpt>
      <trkpt lat="41.66444334" lon="2.0918853399999997">
        <ele>226.0</ele>
        <time>2019-06-09T12:41:54+02:00</time>
      </trkpt>
      <trkpt lat="41.66437167000001" lon="2.0918870000000003">
        <ele>226.0</ele>
        <time>2019-06-09T12:41:56+02:00</time>
      </trkpt>
      <trkpt lat="41.66430999999999" lon="2.091889">
        <ele>226.0</ele>
        <time>2019-06-09T12:41:58+02:00</time>
      </trkpt>
      <trkpt lat="41.664251670000006" lon="2.0918893399999994">
        <ele>226.0</ele>
        <time>2019-06-09T12:42:00+02:00</time>
      </trkpt>
      <trkpt lat="41.66419667" lon="2.0918853399999997">
        <ele>226.0</ele>
        <time>2019-06-09T12:42:02+02:00</time>
      </trkpt>
      <trkpt lat="41.664145000000005" lon="2.091876">
        <ele>226.0</ele>
        <time>2019-06-09T12:42:04+02:00</time>
      </trkpt>
      <trkpt lat="41.66408" lon="2.0918693399999997">
        <ele>226.0</ele>
        <time>2019-06-09T12:42:07+02:00</time>
      </trkpt>
      <trkpt lat="41.664030000000004" lon="2.09185767">
        <ele>226.0</ele>
        <time>2019-06-09T12:42:09+02:00</time>
      </trkpt>
      <trkpt lat="41.663975" lon="2.091853">
        <ele>227.0</ele>
        <time>2019-06-09T12:42:12+02:00</time>
      </trkpt>
      <trkpt lat="41.663935" lon="2.091835">
        <ele>227.0</ele>
        <time>2019-06-09T12:42:15+02:00</time>
      </trkpt>
      <trkpt lat="41.66389667" lon="2.0919083399999994">
        <ele>228.0</ele>
        <time>2019-06-09T12:42:18+02:00</time>
      </trkpt>
      <trkpt lat="41.66388833999999" lon="2.0919849999999998">
        <ele>229.0</ele>
        <time>2019-06-09T12:42:21+02:00</time>
      </trkpt>
      <trkpt lat="41.66391" lon="2.0920633399999997">
        <ele>229.0</ele>
        <time>2019-06-09T12:42:24+02:00</time>
      </trkpt>
      <trkpt lat="41.66393167" lon="2.09212667">
        <ele>230.0</ele>
        <time>2019-06-09T12:42:26+02:00</time>
      </trkpt>
      <trkpt lat="41.66395167" lon="2.09220667">
        <ele>230.0</ele>
        <time>2019-06-09T12:42:29+02:00</time>
      </trkpt>
      <trkpt lat="41.663963" lon="2.0922783399999996">
        <ele>231.0</ele>
        <time>2019-06-09T12:42:32+02:00</time>
      </trkpt>
      <trkpt lat="41.663963339999995" lon="2.09235667">
        <ele>231.0</ele>
        <time>2019-06-09T12:42:35+02:00</time>
      </trkpt>
      <trkpt lat="41.66395333999999" lon="2.09243167">
        <ele>231.0</ele>
        <time>2019-06-09T12:42:38+02:00</time>
      </trkpt>
      <trkpt lat="41.66390667" lon="2.09248167">
        <ele>231.0</ele>
        <time>2019-06-09T12:42:41+02:00</time>
      </trkpt>
      <trkpt lat="41.66385167" lon="2.0924983399999997">
        <ele>231.0</ele>
        <time>2019-06-09T12:42:44+02:00</time>
      </trkpt>
      <trkpt lat="41.66379" lon="2.09249">
        <ele>230.0</ele>
        <time>2019-06-09T12:42:47+02:00</time>
      </trkpt>
      <trkpt lat="41.66373334" lon="2.092485">
        <ele>230.0</ele>
        <time>2019-06-09T12:42:50+02:00</time>
      </trkpt>
      <trkpt lat="41.663668339999994" lon="2.092475">
        <ele>229.0</ele>
        <time>2019-06-09T12:42:53+02:00</time>
      </trkpt>
      <trkpt lat="41.663605" lon="2.092453">
        <ele>229.0</ele>
        <time>2019-06-09T12:42:55+02:00</time>
      </trkpt>
      <trkpt lat="41.663538339999995" lon="2.09242934">
        <ele>229.0</ele>
        <time>2019-06-09T12:42:57+02:00</time>
      </trkpt>
      <trkpt lat="41.66347667" lon="2.09240434">
        <ele>229.0</ele>
        <time>2019-06-09T12:42:59+02:00</time>
      </trkpt>
      <trkpt lat="41.663421670000005" lon="2.09238234">
        <ele>229.0</ele>
        <time>2019-06-09T12:43:01+02:00</time>
      </trkpt>
      <trkpt lat="41.663376670000005" lon="2.0923653399999997">
        <ele>229.0</ele>
        <time>2019-06-09T12:43:03+02:00</time>
      </trkpt>
      <trkpt lat="41.663305" lon="2.0923480000000003">
        <ele>229.0</ele>
        <time>2019-06-09T12:43:06+02:00</time>
      </trkpt>
      <trkpt lat="41.663245" lon="2.0923456699999994">
        <ele>229.0</ele>
        <time>2019-06-09T12:43:09+02:00</time>
      </trkpt>
      <trkpt lat="41.66319334" lon="2.09239834">
        <ele>229.0</ele>
        <time>2019-06-09T12:43:11+02:00</time>
      </trkpt>
      <trkpt lat="41.663135" lon="2.09244167">
        <ele>229.0</ele>
        <time>2019-06-09T12:43:13+02:00</time>
      </trkpt>
      <trkpt lat="41.66309667" lon="2.092475">
        <ele>229.0</ele>
        <time>2019-06-09T12:43:14+02:00</time>
      </trkpt>
      <trkpt lat="41.663036670000004" lon="2.0925333399999992">
        <ele>229.0</ele>
        <time>2019-06-09T12:43:16+02:00</time>
      </trkpt>
      <trkpt lat="41.662976670000006" lon="2.092588">
        <ele>229.0</ele>
        <time>2019-06-09T12:43:18+02:00</time>
      </trkpt>
      <trkpt lat="41.662915000000005" lon="2.09266134">
        <ele>229.0</ele>
        <time>2019-06-09T12:43:20+02:00</time>
      </trkpt>
      <trkpt lat="41.66286167" lon="2.09272834">
        <ele>230.0</ele>
        <time>2019-06-09T12:43:22+02:00</time>
      </trkpt>
      <trkpt lat="41.662808340000005" lon="2.0928139999999997">
        <ele>230.0</ele>
        <time>2019-06-09T12:43:24+02:00</time>
      </trkpt>
      <trkpt lat="41.66278167" lon="2.092925">
        <ele>231.0</ele>
        <time>2019-06-09T12:43:26+02:00</time>
      </trkpt>
      <trkpt lat="41.662763340000005" lon="2.0929900000000004">
        <ele>231.0</ele>
        <time>2019-06-09T12:43:27+02:00</time>
      </trkpt>
      <trkpt lat="41.66274" lon="2.0930416699999994">
        <ele>231.0</ele>
        <time>2019-06-09T12:43:28+02:00</time>
      </trkpt>
      <trkpt lat="41.66271533999999" lon="2.09309334">
        <ele>231.0</ele>
        <time>2019-06-09T12:43:29+02:00</time>
      </trkpt>
      <trkpt lat="41.662667" lon="2.09318">
        <ele>232.0</ele>
        <time>2019-06-09T12:43:31+02:00</time>
      </trkpt>
      <trkpt lat="41.66262034" lon="2.09326">
        <ele>232.0</ele>
        <time>2019-06-09T12:43:33+02:00</time>
      </trkpt>
      <trkpt lat="41.662566670000004" lon="2.09332834">
        <ele>233.0</ele>
        <time>2019-06-09T12:43:35+02:00</time>
      </trkpt>
      <trkpt lat="41.66247499999999" lon="2.09337834">
        <ele>233.0</ele>
        <time>2019-06-09T12:43:37+02:00</time>
      </trkpt>
      <trkpt lat="41.66239667" lon="2.093415">
        <ele>233.0</ele>
        <time>2019-06-09T12:43:39+02:00</time>
      </trkpt>
      <trkpt lat="41.66232333999999" lon="2.09344967">
        <ele>233.0</ele>
        <time>2019-06-09T12:43:41+02:00</time>
      </trkpt>
      <trkpt lat="41.66225333999999" lon="2.09348467">
        <ele>233.0</ele>
        <time>2019-06-09T12:43:43+02:00</time>
      </trkpt>
      <trkpt lat="41.66218334" lon="2.093526">
        <ele>234.0</ele>
        <time>2019-06-09T12:43:45+02:00</time>
      </trkpt>
      <trkpt lat="41.66211833999999" lon="2.0935770000000002">
        <ele>235.0</ele>
        <time>2019-06-09T12:43:47+02:00</time>
      </trkpt>
      <trkpt lat="41.662065" lon="2.093634">
        <ele>235.0</ele>
        <time>2019-06-09T12:43:49+02:00</time>
      </trkpt>
      <trkpt lat="41.66201667" lon="2.09369667">
        <ele>235.0</ele>
        <time>2019-06-09T12:43:51+02:00</time>
      </trkpt>
      <trkpt lat="41.661975" lon="2.0937606699999995">
        <ele>235.0</ele>
        <time>2019-06-09T12:43:53+02:00</time>
      </trkpt>
      <trkpt lat="41.66193667" lon="2.09391167">
        <ele>236.0</ele>
        <time>2019-06-09T12:43:55+02:00</time>
      </trkpt>
      <trkpt lat="41.66190667000001" lon="2.0940199999999995">
        <ele>236.0</ele>
        <time>2019-06-09T12:43:56+02:00</time>
      </trkpt>
      <trkpt lat="41.66187334" lon="2.09415">
        <ele>237.0</ele>
        <time>2019-06-09T12:43:58+02:00</time>
      </trkpt>
      <trkpt lat="41.661856" lon="2.0942116699999995">
        <ele>237.0</ele>
        <time>2019-06-09T12:43:59+02:00</time>
      </trkpt>
      <trkpt lat="41.661826669999996" lon="2.0942966699999994">
        <ele>238.0</ele>
        <time>2019-06-09T12:44:00+02:00</time>
      </trkpt>
      <trkpt lat="41.66180200000001" lon="2.0943566700000003">
        <ele>238.0</ele>
        <time>2019-06-09T12:44:01+02:00</time>
      </trkpt>
      <trkpt lat="41.66176367" lon="2.0944533399999994">
        <ele>238.0</ele>
        <time>2019-06-09T12:44:02+02:00</time>
      </trkpt>
      <trkpt lat="41.66173533999999" lon="2.09452334">
        <ele>239.0</ele>
        <time>2019-06-09T12:44:03+02:00</time>
      </trkpt>
      <trkpt lat="41.66169567" lon="2.09462834">
        <ele>239.0</ele>
        <time>2019-06-09T12:44:04+02:00</time>
      </trkpt>
      <trkpt lat="41.66166034" lon="2.09474167">
        <ele>240.0</ele>
        <time>2019-06-09T12:44:05+02:00</time>
      </trkpt>
      <trkpt lat="41.661625" lon="2.094855">
        <ele>240.0</ele>
        <time>2019-06-09T12:44:06+02:00</time>
      </trkpt>
      <trkpt lat="41.6616" lon="2.09492667">
        <ele>241.0</ele>
        <time>2019-06-09T12:44:07+02:00</time>
      </trkpt>
      <trkpt lat="41.66155834" lon="2.095025">
        <ele>241.0</ele>
        <time>2019-06-09T12:44:08+02:00</time>
      </trkpt>
      <trkpt lat="41.661517" lon="2.0951150000000003">
        <ele>241.0</ele>
        <time>2019-06-09T12:44:09+02:00</time>
      </trkpt>
      <trkpt lat="41.661472" lon="2.0951950000000004">
        <ele>242.0</ele>
        <time>2019-06-09T12:44:10+02:00</time>
      </trkpt>
      <trkpt lat="41.661424669999995" lon="2.0952733399999994">
        <ele>242.0</ele>
        <time>2019-06-09T12:44:11+02:00</time>
      </trkpt>
      <trkpt lat="41.661374339999995" lon="2.0953516700000003">
        <ele>242.0</ele>
        <time>2019-06-09T12:44:12+02:00</time>
      </trkpt>
      <trkpt lat="41.66133334" lon="2.09540334">
        <ele>243.0</ele>
        <time>2019-06-09T12:44:13+02:00</time>
      </trkpt>
      <trkpt lat="41.661168339999996" lon="2.09547167">
        <ele>243.0</ele>
        <time>2019-06-09T12:44:14+02:00</time>
      </trkpt>
      <trkpt lat="41.661095" lon="2.095493">
        <ele>244.0</ele>
        <time>2019-06-09T12:44:15+02:00</time>
      </trkpt>
      <trkpt lat="41.66103499999999" lon="2.095535">
        <ele>244.0</ele>
        <time>2019-06-09T12:44:16+02:00</time>
      </trkpt>
      <trkpt lat="41.66099167" lon="2.09556834">
        <ele>244.0</ele>
        <time>2019-06-09T12:44:17+02:00</time>
      </trkpt>
      <trkpt lat="41.66095667" lon="2.0956663399999997">
        <ele>245.0</ele>
        <time>2019-06-09T12:44:18+02:00</time>
      </trkpt>
      <trkpt lat="41.66088499999999" lon="2.0957510000000004">
        <ele>245.0</ele>
        <time>2019-06-09T12:44:19+02:00</time>
      </trkpt>
      <trkpt lat="41.66083834" lon="2.0958049999999995">
        <ele>245.0</ele>
        <time>2019-06-09T12:44:20+02:00</time>
      </trkpt>
      <trkpt lat="41.66079167000001" lon="2.09585734">
        <ele>246.0</ele>
        <time>2019-06-09T12:44:21+02:00</time>
      </trkpt>
      <trkpt lat="41.66072333999999" lon="2.09594134">
        <ele>246.0</ele>
        <time>2019-06-09T12:44:23+02:00</time>
      </trkpt>
      <trkpt lat="41.66068" lon="2.0959993399999997">
        <ele>246.0</ele>
        <time>2019-06-09T12:44:24+02:00</time>
      </trkpt>
      <trkpt lat="41.660646670000006" lon="2.096047">
        <ele>247.0</ele>
        <time>2019-06-09T12:44:25+02:00</time>
      </trkpt>
      <trkpt lat="41.660596670000004" lon="2.096135">
        <ele>247.0</ele>
        <time>2019-06-09T12:44:27+02:00</time>
      </trkpt>
      <trkpt lat="41.66054834" lon="2.09621">
        <ele>247.0</ele>
        <time>2019-06-09T12:44:29+02:00</time>
      </trkpt>
      <trkpt lat="41.66048833999999" lon="2.09628834">
        <ele>247.0</ele>
        <time>2019-06-09T12:44:31+02:00</time>
      </trkpt>
      <trkpt lat="41.66044067000001" lon="2.0963533399999994">
        <ele>247.0</ele>
        <time>2019-06-09T12:44:33+02:00</time>
      </trkpt>
      <trkpt lat="41.66039033999999" lon="2.0964166699999995">
        <ele>247.0</ele>
        <time>2019-06-09T12:44:35+02:00</time>
      </trkpt>
      <trkpt lat="41.66033" lon="2.09648">
        <ele>247.0</ele>
        <time>2019-06-09T12:44:37+02:00</time>
      </trkpt>
      <trkpt lat="41.66027834" lon="2.0965413399999995">
        <ele>247.0</ele>
        <time>2019-06-09T12:44:39+02:00</time>
      </trkpt>
      <trkpt lat="41.66021334" lon="2.096602">
        <ele>247.0</ele>
        <time>2019-06-09T12:44:41+02:00</time>
      </trkpt>
      <trkpt lat="41.66015334" lon="2.0966523399999994">
        <ele>247.0</ele>
        <time>2019-06-09T12:44:43+02:00</time>
      </trkpt>
      <trkpt lat="41.660090000000004" lon="2.0967006699999997">
        <ele>247.0</ele>
        <time>2019-06-09T12:44:45+02:00</time>
      </trkpt>
      <trkpt lat="41.66002999999999" lon="2.0967439999999997">
        <ele>247.0</ele>
        <time>2019-06-09T12:44:47+02:00</time>
      </trkpt>
      <trkpt lat="41.659974999999996" lon="2.09677634">
        <ele>247.0</ele>
        <time>2019-06-09T12:44:49+02:00</time>
      </trkpt>
      <trkpt lat="41.65993" lon="2.0968020000000003">
        <ele>247.0</ele>
        <time>2019-06-09T12:44:51+02:00</time>
      </trkpt>
      <trkpt lat="41.659859999999995" lon="2.0968386700000003">
        <ele>247.0</ele>
        <time>2019-06-09T12:44:54+02:00</time>
      </trkpt>
      <trkpt lat="41.659811669999996" lon="2.09685734">
        <ele>247.0</ele>
        <time>2019-06-09T12:44:56+02:00</time>
      </trkpt>
      <trkpt lat="41.65976667000001" lon="2.09686667">
        <ele>247.0</ele>
        <time>2019-06-09T12:44:58+02:00</time>
      </trkpt>
      <trkpt lat="41.659701670000004" lon="2.09679">
        <ele>246.0</ele>
        <time>2019-06-09T12:45:01+02:00</time>
      </trkpt>
      <trkpt lat="41.65965" lon="2.09677167">
        <ele>245.0</ele>
        <time>2019-06-09T12:45:03+02:00</time>
      </trkpt>
      <trkpt lat="41.65958667000001" lon="2.0967616700000002">
        <ele>244.0</ele>
        <time>2019-06-09T12:45:06+02:00</time>
      </trkpt>
      <trkpt lat="41.65953" lon="2.09676234">
        <ele>244.0</ele>
        <time>2019-06-09T12:45:08+02:00</time>
      </trkpt>
      <trkpt lat="41.659438339999994" lon="2.09676667">
        <ele>243.0</ele>
        <time>2019-06-09T12:45:10+02:00</time>
      </trkpt>
      <trkpt lat="41.659383340000005" lon="2.09676667">
        <ele>243.0</ele>
        <time>2019-06-09T12:45:11+02:00</time>
      </trkpt>
      <trkpt lat="41.65933" lon="2.0967593399999993">
        <ele>242.0</ele>
        <time>2019-06-09T12:45:12+02:00</time>
      </trkpt>
      <trkpt lat="41.65927834" lon="2.09674434">
        <ele>242.0</ele>
        <time>2019-06-09T12:45:13+02:00</time>
      </trkpt>
      <trkpt lat="41.659229999999994" lon="2.0967239999999996">
        <ele>242.0</ele>
        <time>2019-06-09T12:45:14+02:00</time>
      </trkpt>
      <trkpt lat="41.65914167000001" lon="2.09661834">
        <ele>242.0</ele>
        <time>2019-06-09T12:45:16+02:00</time>
      </trkpt>
      <trkpt lat="41.659105" lon="2.09657667">
        <ele>242.0</ele>
        <time>2019-06-09T12:45:17+02:00</time>
      </trkpt>
      <trkpt lat="41.65904667000001" lon="2.09651167">
        <ele>242.0</ele>
        <time>2019-06-09T12:45:19+02:00</time>
      </trkpt>
      <trkpt lat="41.65898667" lon="2.09646">
        <ele>242.0</ele>
        <time>2019-06-09T12:45:21+02:00</time>
      </trkpt>
      <trkpt lat="41.65891834" lon="2.09641734">
        <ele>242.0</ele>
        <time>2019-06-09T12:45:23+02:00</time>
      </trkpt>
      <trkpt lat="41.658856670000006" lon="2.09639534">
        <ele>242.0</ele>
        <time>2019-06-09T12:45:25+02:00</time>
      </trkpt>
      <trkpt lat="41.658809999999995" lon="2.09643">
        <ele>242.0</ele>
        <time>2019-06-09T12:45:27+02:00</time>
      </trkpt>
      <trkpt lat="41.65874834" lon="2.09648">
        <ele>242.0</ele>
        <time>2019-06-09T12:45:29+02:00</time>
      </trkpt>
      <trkpt lat="41.65869334" lon="2.0965299999999996">
        <ele>242.0</ele>
        <time>2019-06-09T12:45:31+02:00</time>
      </trkpt>
      <trkpt lat="41.65865" lon="2.09658">
        <ele>242.0</ele>
        <time>2019-06-09T12:45:33+02:00</time>
      </trkpt>
      <trkpt lat="41.65861667" lon="2.09663">
        <ele>242.0</ele>
        <time>2019-06-09T12:45:35+02:00</time>
      </trkpt>
      <trkpt lat="41.658564999999996" lon="2.0966713399999994">
        <ele>242.0</ele>
        <time>2019-06-09T12:45:38+02:00</time>
      </trkpt>
      <trkpt lat="41.65852167" lon="2.09671834">
        <ele>242.0</ele>
        <time>2019-06-09T12:45:41+02:00</time>
      </trkpt>
      <trkpt lat="41.658478339999995" lon="2.0967770000000003">
        <ele>241.0</ele>
        <time>2019-06-09T12:45:44+02:00</time>
      </trkpt>
      <trkpt lat="41.658435" lon="2.09682034">
        <ele>241.0</ele>
        <time>2019-06-09T12:45:46+02:00</time>
      </trkpt>
      <trkpt lat="41.65838834" lon="2.09686767">
        <ele>240.0</ele>
        <time>2019-06-09T12:45:49+02:00</time>
      </trkpt>
      <trkpt lat="41.65834167000001" lon="2.096913">
        <ele>239.0</ele>
        <time>2019-06-09T12:45:53+02:00</time>
      </trkpt>
      <trkpt lat="41.6583" lon="2.09695367">
        <ele>238.0</ele>
        <time>2019-06-09T12:45:56+02:00</time>
      </trkpt>
      <trkpt lat="41.65825999999999" lon="2.0969966699999993">
        <ele>236.0</ele>
        <time>2019-06-09T12:45:59+02:00</time>
      </trkpt>
      <trkpt lat="41.658218340000005" lon="2.0970420000000005">
        <ele>235.0</ele>
        <time>2019-06-09T12:46:02+02:00</time>
      </trkpt>
      <trkpt lat="41.65816667000001" lon="2.09709967">
        <ele>234.0</ele>
        <time>2019-06-09T12:46:05+02:00</time>
      </trkpt>
      <trkpt lat="41.658133340000006" lon="2.09714034">
        <ele>233.0</ele>
        <time>2019-06-09T12:46:07+02:00</time>
      </trkpt>
      <trkpt lat="41.65810334" lon="2.0971793399999994">
        <ele>232.0</ele>
        <time>2019-06-09T12:46:09+02:00</time>
      </trkpt>
      <trkpt lat="41.658073339999994" lon="2.0972566699999997">
        <ele>231.0</ele>
        <time>2019-06-09T12:46:11+02:00</time>
      </trkpt>
      <trkpt lat="41.65804333999999" lon="2.09731167">
        <ele>230.0</ele>
        <time>2019-06-09T12:46:13+02:00</time>
      </trkpt>
      <trkpt lat="41.65801467" lon="2.0973650000000004">
        <ele>229.0</ele>
        <time>2019-06-09T12:46:15+02:00</time>
      </trkpt>
      <trkpt lat="41.657987999999996" lon="2.0974166699999994">
        <ele>228.0</ele>
        <time>2019-06-09T12:46:17+02:00</time>
      </trkpt>
      <trkpt lat="41.657962" lon="2.0974666699999998">
        <ele>228.0</ele>
        <time>2019-06-09T12:46:19+02:00</time>
      </trkpt>
      <trkpt lat="41.65793566999999" lon="2.09752167">
        <ele>228.0</ele>
        <time>2019-06-09T12:46:21+02:00</time>
      </trkpt>
      <trkpt lat="41.657909339999996" lon="2.0975866699999997">
        <ele>228.0</ele>
        <time>2019-06-09T12:46:23+02:00</time>
      </trkpt>
      <trkpt lat="41.657885670000006" lon="2.0976549999999996">
        <ele>227.0</ele>
        <time>2019-06-09T12:46:25+02:00</time>
      </trkpt>
      <trkpt lat="41.657864000000004" lon="2.0977200000000003">
        <ele>226.0</ele>
        <time>2019-06-09T12:46:27+02:00</time>
      </trkpt>
      <trkpt lat="41.65784334" lon="2.09778667">
        <ele>226.0</ele>
        <time>2019-06-09T12:46:29+02:00</time>
      </trkpt>
      <trkpt lat="41.65782234" lon="2.09784667">
        <ele>225.0</ele>
        <time>2019-06-09T12:46:31+02:00</time>
      </trkpt>
      <trkpt lat="41.65780167" lon="2.0979066699999995">
        <ele>224.0</ele>
        <time>2019-06-09T12:46:33+02:00</time>
      </trkpt>
      <trkpt lat="41.65777934" lon="2.09796834">
        <ele>224.0</ele>
        <time>2019-06-09T12:46:35+02:00</time>
      </trkpt>
      <trkpt lat="41.657755339999994" lon="2.09802">
        <ele>223.0</ele>
        <time>2019-06-09T12:46:37+02:00</time>
      </trkpt>
      <trkpt lat="41.65772867" lon="2.098065">
        <ele>222.0</ele>
        <time>2019-06-09T12:46:39+02:00</time>
      </trkpt>
      <trkpt lat="41.65765834" lon="2.0981033399999993">
        <ele>222.0</ele>
        <time>2019-06-09T12:46:41+02:00</time>
      </trkpt>
      <trkpt lat="41.65761334" lon="2.0981516700000005">
        <ele>221.0</ele>
        <time>2019-06-09T12:46:43+02:00</time>
      </trkpt>
      <trkpt lat="41.65758167" lon="2.09819967">
        <ele>221.0</ele>
        <time>2019-06-09T12:46:45+02:00</time>
      </trkpt>
      <trkpt lat="41.65754833999999" lon="2.0982466699999995">
        <ele>220.0</ele>
        <time>2019-06-09T12:46:47+02:00</time>
      </trkpt>
      <trkpt lat="41.65750999999999" lon="2.09831334">
        <ele>219.0</ele>
        <time>2019-06-09T12:46:49+02:00</time>
      </trkpt>
      <trkpt lat="41.65747499999999" lon="2.0983733399999998">
        <ele>219.0</ele>
        <time>2019-06-09T12:46:51+02:00</time>
      </trkpt>
      <trkpt lat="41.65742667000001" lon="2.09844834">
        <ele>218.0</ele>
        <time>2019-06-09T12:46:53+02:00</time>
      </trkpt>
      <trkpt lat="41.65737934" lon="2.0985050000000003">
        <ele>218.0</ele>
        <time>2019-06-09T12:46:55+02:00</time>
      </trkpt>
      <trkpt lat="41.65731834" lon="2.0985633399999997">
        <ele>218.0</ele>
        <time>2019-06-09T12:46:57+02:00</time>
      </trkpt>
      <trkpt lat="41.65726833999999" lon="2.09861334">
        <ele>218.0</ele>
        <time>2019-06-09T12:46:59+02:00</time>
      </trkpt>
      <trkpt lat="41.65721667000001" lon="2.09866034">
        <ele>218.0</ele>
        <time>2019-06-09T12:47:01+02:00</time>
      </trkpt>
      <trkpt lat="41.65716667" lon="2.0987103400000002">
        <ele>218.0</ele>
        <time>2019-06-09T12:47:03+02:00</time>
      </trkpt>
      <trkpt lat="41.657113339999995" lon="2.098767">
        <ele>218.0</ele>
        <time>2019-06-09T12:47:05+02:00</time>
      </trkpt>
      <trkpt lat="41.657058340000006" lon="2.09882634">
        <ele>218.0</ele>
        <time>2019-06-09T12:47:07+02:00</time>
      </trkpt>
      <trkpt lat="41.65701333999999" lon="2.0988846700000003">
        <ele>218.0</ele>
        <time>2019-06-09T12:47:09+02:00</time>
      </trkpt>
      <trkpt lat="41.65697999999999" lon="2.0989733399999997">
        <ele>218.0</ele>
        <time>2019-06-09T12:47:11+02:00</time>
      </trkpt>
      <trkpt lat="41.65695834" lon="2.099055">
        <ele>218.0</ele>
        <time>2019-06-09T12:47:13+02:00</time>
      </trkpt>
      <trkpt lat="41.65694334" lon="2.0991400000000007">
        <ele>218.0</ele>
        <time>2019-06-09T12:47:15+02:00</time>
      </trkpt>
      <trkpt lat="41.65694167" lon="2.09922834">
        <ele>218.0</ele>
        <time>2019-06-09T12:47:17+02:00</time>
      </trkpt>
      <trkpt lat="41.65695167" lon="2.0993133399999997">
        <ele>218.0</ele>
        <time>2019-06-09T12:47:19+02:00</time>
      </trkpt>
      <trkpt lat="41.65697" lon="2.0993966699999995">
        <ele>218.0</ele>
        <time>2019-06-09T12:47:21+02:00</time>
      </trkpt>
      <trkpt lat="41.65699000000001" lon="2.0994783399999997">
        <ele>218.0</ele>
        <time>2019-06-09T12:47:23+02:00</time>
      </trkpt>
      <trkpt lat="41.65700667" lon="2.09956">
        <ele>218.0</ele>
        <time>2019-06-09T12:47:25+02:00</time>
      </trkpt>
      <trkpt lat="41.657021670000006" lon="2.09964">
        <ele>218.0</ele>
        <time>2019-06-09T12:47:27+02:00</time>
      </trkpt>
      <trkpt lat="41.65703734" lon="2.099715">
        <ele>218.0</ele>
        <time>2019-06-09T12:47:29+02:00</time>
      </trkpt>
      <trkpt lat="41.65705567" lon="2.09979834">
        <ele>218.0</ele>
        <time>2019-06-09T12:47:31+02:00</time>
      </trkpt>
      <trkpt lat="41.65707533999999" lon="2.09988167">
        <ele>218.0</ele>
        <time>2019-06-09T12:47:33+02:00</time>
      </trkpt>
      <trkpt lat="41.65709700000001" lon="2.09996167">
        <ele>218.0</ele>
        <time>2019-06-09T12:47:35+02:00</time>
      </trkpt>
      <trkpt lat="41.65711834" lon="2.10004334">
        <ele>218.0</ele>
        <time>2019-06-09T12:47:37+02:00</time>
      </trkpt>
      <trkpt lat="41.657137" lon="2.100121669999999">
        <ele>219.0</ele>
        <time>2019-06-09T12:47:39+02:00</time>
      </trkpt>
      <trkpt lat="41.65715399999999" lon="2.1001866700000003">
        <ele>219.0</ele>
        <time>2019-06-09T12:47:41+02:00</time>
      </trkpt>
      <trkpt lat="41.65717033999999" lon="2.10026334">
        <ele>219.0</ele>
        <time>2019-06-09T12:47:43+02:00</time>
      </trkpt>
      <trkpt lat="41.65717834" lon="2.1003383399999995">
        <ele>219.0</ele>
        <time>2019-06-09T12:47:45+02:00</time>
      </trkpt>
      <trkpt lat="41.65712167" lon="2.10041">
        <ele>218.0</ele>
        <time>2019-06-09T12:47:47+02:00</time>
      </trkpt>
      <trkpt lat="41.65708167" lon="2.1004700000000005">
        <ele>218.0</ele>
        <time>2019-06-09T12:47:49+02:00</time>
      </trkpt>
      <trkpt lat="41.657041670000005" lon="2.10052834">
        <ele>218.0</ele>
        <time>2019-06-09T12:47:51+02:00</time>
      </trkpt>
      <trkpt lat="41.657005" lon="2.100595">
        <ele>218.0</ele>
        <time>2019-06-09T12:47:53+02:00</time>
      </trkpt>
      <trkpt lat="41.656972339999996" lon="2.10066334">
        <ele>217.0</ele>
        <time>2019-06-09T12:47:55+02:00</time>
      </trkpt>
      <trkpt lat="41.656931670000006" lon="2.10075667">
        <ele>217.0</ele>
        <time>2019-06-09T12:47:57+02:00</time>
      </trkpt>
      <trkpt lat="41.656898" lon="2.1008383399999997">
        <ele>217.0</ele>
        <time>2019-06-09T12:47:59+02:00</time>
      </trkpt>
      <trkpt lat="41.656862999999994" lon="2.1009266699999998">
        <ele>217.0</ele>
        <time>2019-06-09T12:48:01+02:00</time>
      </trkpt>
      <trkpt lat="41.656832" lon="2.10102334">
        <ele>217.0</ele>
        <time>2019-06-09T12:48:03+02:00</time>
      </trkpt>
      <trkpt lat="41.656811" lon="2.10111834">
        <ele>217.0</ele>
        <time>2019-06-09T12:48:05+02:00</time>
      </trkpt>
      <trkpt lat="41.65680167000001" lon="2.10119">
        <ele>217.0</ele>
        <time>2019-06-09T12:48:07+02:00</time>
      </trkpt>
      <trkpt lat="41.656843339999995" lon="2.101265">
        <ele>210.0</ele>
        <time>2019-06-09T12:49:02+02:00</time>
      </trkpt>
      <trkpt lat="41.65684467000001" lon="2.10133">
        <ele>209.0</ele>
        <time>2019-06-09T12:49:04+02:00</time>
      </trkpt>
      <trkpt lat="41.65683834" lon="2.1014000000000004">
        <ele>209.0</ele>
        <time>2019-06-09T12:49:06+02:00</time>
      </trkpt>
      <trkpt lat="41.656826" lon="2.1014900000000005">
        <ele>209.0</ele>
        <time>2019-06-09T12:49:08+02:00</time>
      </trkpt>
      <trkpt lat="41.65680834000001" lon="2.1016083399999994">
        <ele>209.0</ele>
        <time>2019-06-09T12:49:10+02:00</time>
      </trkpt>
      <trkpt lat="41.656797999999995" lon="2.10167334">
        <ele>209.0</ele>
        <time>2019-06-09T12:49:11+02:00</time>
      </trkpt>
      <trkpt lat="41.656774999999996" lon="2.1018066699999998">
        <ele>209.0</ele>
        <time>2019-06-09T12:49:13+02:00</time>
      </trkpt>
      <trkpt lat="41.65673867" lon="2.10194">
        <ele>209.0</ele>
        <time>2019-06-09T12:49:15+02:00</time>
      </trkpt>
      <trkpt lat="41.65671700000001" lon="2.1019883399999997">
        <ele>209.0</ele>
        <time>2019-06-09T12:49:16+02:00</time>
      </trkpt>
      <trkpt lat="41.656655" lon="2.10205667">
        <ele>209.0</ele>
        <time>2019-06-09T12:49:17+02:00</time>
      </trkpt>
      <trkpt lat="41.656625000000005" lon="2.10210167">
        <ele>209.0</ele>
        <time>2019-06-09T12:49:18+02:00</time>
      </trkpt>
      <trkpt lat="41.656586" lon="2.10216667">
        <ele>209.0</ele>
        <time>2019-06-09T12:49:19+02:00</time>
      </trkpt>
      <trkpt lat="41.65652133999999" lon="2.10226334">
        <ele>209.0</ele>
        <time>2019-06-09T12:49:21+02:00</time>
      </trkpt>
      <trkpt lat="41.65649034" lon="2.10230167">
        <ele>209.0</ele>
        <time>2019-06-09T12:49:22+02:00</time>
      </trkpt>
      <trkpt lat="41.656435339999994" lon="2.1023599999999996">
        <ele>209.0</ele>
        <time>2019-06-09T12:49:24+02:00</time>
      </trkpt>
      <trkpt lat="41.656348339999994" lon="2.1024149999999997">
        <ele>209.0</ele>
        <time>2019-06-09T12:49:26+02:00</time>
      </trkpt>
      <trkpt lat="41.656285" lon="2.1024616699999994">
        <ele>209.0</ele>
        <time>2019-06-09T12:49:28+02:00</time>
      </trkpt>
      <trkpt lat="41.65623167" lon="2.1025053399999996">
        <ele>209.0</ele>
        <time>2019-06-09T12:49:30+02:00</time>
      </trkpt>
      <trkpt lat="41.656180000000006" lon="2.1025423400000003">
        <ele>209.0</ele>
        <time>2019-06-09T12:49:32+02:00</time>
      </trkpt>
      <trkpt lat="41.65613167" lon="2.1025739999999997">
        <ele>209.0</ele>
        <time>2019-06-09T12:49:34+02:00</time>
      </trkpt>
      <trkpt lat="41.65608" lon="2.10261334">
        <ele>209.0</ele>
        <time>2019-06-09T12:49:36+02:00</time>
      </trkpt>
      <trkpt lat="41.65604167" lon="2.1026456700000002">
        <ele>209.0</ele>
        <time>2019-06-09T12:49:38+02:00</time>
      </trkpt>
      <trkpt lat="41.65600334" lon="2.10268067">
        <ele>209.0</ele>
        <time>2019-06-09T12:49:40+02:00</time>
      </trkpt>
      <trkpt lat="41.65595999999999" lon="2.1027233399999994">
        <ele>209.0</ele>
        <time>2019-06-09T12:49:42+02:00</time>
      </trkpt>
      <trkpt lat="41.65592167000001" lon="2.102765">
        <ele>209.0</ele>
        <time>2019-06-09T12:49:44+02:00</time>
      </trkpt>
      <trkpt lat="41.65587667000001" lon="2.1028166699999997">
        <ele>209.0</ele>
        <time>2019-06-09T12:49:46+02:00</time>
      </trkpt>
      <trkpt lat="41.65582334" lon="2.102876">
        <ele>209.0</ele>
        <time>2019-06-09T12:49:48+02:00</time>
      </trkpt>
      <trkpt lat="41.65577167" lon="2.1029336699999996">
        <ele>209.0</ele>
        <time>2019-06-09T12:49:50+02:00</time>
      </trkpt>
      <trkpt lat="41.655721670000005" lon="2.10298867">
        <ele>209.0</ele>
        <time>2019-06-09T12:49:52+02:00</time>
      </trkpt>
      <trkpt lat="41.65567" lon="2.10304767">
        <ele>209.0</ele>
        <time>2019-06-09T12:49:54+02:00</time>
      </trkpt>
      <trkpt lat="41.655625" lon="2.1030996699999998">
        <ele>209.0</ele>
        <time>2019-06-09T12:49:56+02:00</time>
      </trkpt>
      <trkpt lat="41.655585" lon="2.103148">
        <ele>209.0</ele>
        <time>2019-06-09T12:49:58+02:00</time>
      </trkpt>
      <trkpt lat="41.65553834000001" lon="2.10320434">
        <ele>210.0</ele>
        <time>2019-06-09T12:50:00+02:00</time>
      </trkpt>
      <trkpt lat="41.65548667" lon="2.10326634">
        <ele>211.0</ele>
        <time>2019-06-09T12:50:02+02:00</time>
      </trkpt>
      <trkpt lat="41.655445" lon="2.10332">
        <ele>211.0</ele>
        <time>2019-06-09T12:50:04+02:00</time>
      </trkpt>
      <trkpt lat="41.65540167000001" lon="2.10337367">
        <ele>212.0</ele>
        <time>2019-06-09T12:50:06+02:00</time>
      </trkpt>
      <trkpt lat="41.65534834" lon="2.10343867">
        <ele>212.0</ele>
        <time>2019-06-09T12:50:08+02:00</time>
      </trkpt>
      <trkpt lat="41.65529167000001" lon="2.103504">
        <ele>214.0</ele>
        <time>2019-06-09T12:50:10+02:00</time>
      </trkpt>
      <trkpt lat="41.65523834" lon="2.10356767">
        <ele>214.0</ele>
        <time>2019-06-09T12:50:12+02:00</time>
      </trkpt>
      <trkpt lat="41.65519167000001" lon="2.1036196699999996">
        <ele>215.0</ele>
        <time>2019-06-09T12:50:14+02:00</time>
      </trkpt>
      <trkpt lat="41.65514167" lon="2.10367767">
        <ele>216.0</ele>
        <time>2019-06-09T12:50:16+02:00</time>
      </trkpt>
      <trkpt lat="41.65510667" lon="2.10372234">
        <ele>217.0</ele>
        <time>2019-06-09T12:50:18+02:00</time>
      </trkpt>
      <trkpt lat="41.65505" lon="2.103789">
        <ele>218.0</ele>
        <time>2019-06-09T12:50:20+02:00</time>
      </trkpt>
      <trkpt lat="41.655001670000004" lon="2.103844">
        <ele>219.0</ele>
        <time>2019-06-09T12:50:22+02:00</time>
      </trkpt>
      <trkpt lat="41.654956670000004" lon="2.1038939999999995">
        <ele>220.0</ele>
        <time>2019-06-09T12:50:24+02:00</time>
      </trkpt>
      <trkpt lat="41.65491" lon="2.10394567">
        <ele>221.0</ele>
        <time>2019-06-09T12:50:26+02:00</time>
      </trkpt>
      <trkpt lat="41.654849999999996" lon="2.103935">
        <ele>222.0</ele>
        <time>2019-06-09T12:50:29+02:00</time>
      </trkpt>
      <trkpt lat="41.65480000000001" lon="2.1039283399999995">
        <ele>224.0</ele>
        <time>2019-06-09T12:50:33+02:00</time>
      </trkpt>
      <trkpt lat="41.65476167" lon="2.1038849999999996">
        <ele>227.0</ele>
        <time>2019-06-09T12:50:46+02:00</time>
      </trkpt>
      <trkpt lat="41.65477667000001" lon="2.1038249999999996">
        <ele>224.0</ele>
        <time>2019-06-09T12:51:26+02:00</time>
      </trkpt>
      <trkpt lat="41.654773340000006" lon="2.1037550000000005">
        <ele>224.0</ele>
        <time>2019-06-09T12:51:29+02:00</time>
      </trkpt>
      <trkpt lat="41.65476667000001" lon="2.10369334">
        <ele>224.0</ele>
        <time>2019-06-09T12:51:31+02:00</time>
      </trkpt>
      <trkpt lat="41.65475834" lon="2.1036283399999993">
        <ele>224.0</ele>
        <time>2019-06-09T12:51:33+02:00</time>
      </trkpt>
      <trkpt lat="41.65475334" lon="2.10356167">
        <ele>224.0</ele>
        <time>2019-06-09T12:51:35+02:00</time>
      </trkpt>
      <trkpt lat="41.654753670000005" lon="2.10347667">
        <ele>225.0</ele>
        <time>2019-06-09T12:51:38+02:00</time>
      </trkpt>
      <trkpt lat="41.654751999999995" lon="2.1034133400000004">
        <ele>225.0</ele>
        <time>2019-06-09T12:51:40+02:00</time>
      </trkpt>
      <trkpt lat="41.65474967" lon="2.1033533399999995">
        <ele>226.0</ele>
        <time>2019-06-09T12:51:42+02:00</time>
      </trkpt>
      <trkpt lat="41.654737000000004" lon="2.1032699999999998">
        <ele>227.0</ele>
        <time>2019-06-09T12:51:45+02:00</time>
      </trkpt>
      <trkpt lat="41.654725339999985" lon="2.10320167">
        <ele>227.0</ele>
        <time>2019-06-09T12:51:48+02:00</time>
      </trkpt>
      <trkpt lat="41.65470767" lon="2.1031533399999995">
        <ele>228.0</ele>
        <time>2019-06-09T12:51:51+02:00</time>
      </trkpt>
      <trkpt lat="41.65464834000001" lon="2.10311834">
        <ele>229.0</ele>
        <time>2019-06-09T12:51:54+02:00</time>
      </trkpt>
      <trkpt lat="41.65460499999999" lon="2.10309834">
        <ele>229.0</ele>
        <time>2019-06-09T12:51:57+02:00</time>
      </trkpt>
      <trkpt lat="41.65455667" lon="2.1030866699999997">
        <ele>230.0</ele>
        <time>2019-06-09T12:52:00+02:00</time>
      </trkpt>
      <trkpt lat="41.65450167000001" lon="2.1031066700000003">
        <ele>230.0</ele>
        <time>2019-06-09T12:52:04+02:00</time>
      </trkpt>
      <trkpt lat="41.654444999999996" lon="2.103095">
        <ele>230.0</ele>
        <time>2019-06-09T12:52:07+02:00</time>
      </trkpt>
      <trkpt lat="41.65439" lon="2.103103">
        <ele>230.0</ele>
        <time>2019-06-09T12:52:10+02:00</time>
      </trkpt>
      <trkpt lat="41.654335" lon="2.1031033399999997">
        <ele>231.0</ele>
        <time>2019-06-09T12:52:13+02:00</time>
      </trkpt>
      <trkpt lat="41.654273339999996" lon="2.10310767">
        <ele>232.0</ele>
        <time>2019-06-09T12:52:16+02:00</time>
      </trkpt>
      <trkpt lat="41.65421" lon="2.10310434">
        <ele>233.0</ele>
        <time>2019-06-09T12:52:19+02:00</time>
      </trkpt>
      <trkpt lat="41.65407834" lon="2.10311667">
        <ele>235.0</ele>
        <time>2019-06-09T12:52:22+02:00</time>
      </trkpt>
      <trkpt lat="41.65403667" lon="2.1031566699999997">
        <ele>236.0</ele>
        <time>2019-06-09T12:52:24+02:00</time>
      </trkpt>
      <trkpt lat="41.653978339999995" lon="2.10319334">
        <ele>237.0</ele>
        <time>2019-06-09T12:52:26+02:00</time>
      </trkpt>
      <trkpt lat="41.653906670000005" lon="2.10322134">
        <ele>238.0</ele>
        <time>2019-06-09T12:52:28+02:00</time>
      </trkpt>
      <trkpt lat="41.65384334" lon="2.103237">
        <ele>238.0</ele>
        <time>2019-06-09T12:52:30+02:00</time>
      </trkpt>
      <trkpt lat="41.65378167000001" lon="2.1032546699999997">
        <ele>240.0</ele>
        <time>2019-06-09T12:52:32+02:00</time>
      </trkpt>
      <trkpt lat="41.65372167" lon="2.10328">
        <ele>241.0</ele>
        <time>2019-06-09T12:52:34+02:00</time>
      </trkpt>
      <trkpt lat="41.65366" lon="2.10330667">
        <ele>242.0</ele>
        <time>2019-06-09T12:52:36+02:00</time>
      </trkpt>
      <trkpt lat="41.653591670000004" lon="2.10333367">
        <ele>243.0</ele>
        <time>2019-06-09T12:52:38+02:00</time>
      </trkpt>
      <trkpt lat="41.653544999999994" lon="2.10334967">
        <ele>244.0</ele>
        <time>2019-06-09T12:52:39+02:00</time>
      </trkpt>
      <trkpt lat="41.65347833999999" lon="2.10337867">
        <ele>245.0</ele>
        <time>2019-06-09T12:52:41+02:00</time>
      </trkpt>
      <trkpt lat="41.65343167000001" lon="2.10340367">
        <ele>245.0</ele>
        <time>2019-06-09T12:52:42+02:00</time>
      </trkpt>
      <trkpt lat="41.65338334" lon="2.1034293399999995">
        <ele>246.0</ele>
        <time>2019-06-09T12:52:43+02:00</time>
      </trkpt>
      <trkpt lat="41.65334000000001" lon="2.1034576699999996">
        <ele>246.0</ele>
        <time>2019-06-09T12:52:44+02:00</time>
      </trkpt>
      <trkpt lat="41.65329833999999" lon="2.1034866699999997">
        <ele>247.0</ele>
        <time>2019-06-09T12:52:45+02:00</time>
      </trkpt>
      <trkpt lat="41.653245000000005" lon="2.1035189999999995">
        <ele>247.0</ele>
        <time>2019-06-09T12:52:46+02:00</time>
      </trkpt>
      <trkpt lat="41.653165" lon="2.1035546700000003">
        <ele>249.0</ele>
        <time>2019-06-09T12:52:48+02:00</time>
      </trkpt>
      <trkpt lat="41.65309334" lon="2.10357967">
        <ele>250.0</ele>
        <time>2019-06-09T12:52:50+02:00</time>
      </trkpt>
      <trkpt lat="41.653020000000005" lon="2.10360567">
        <ele>252.0</ele>
        <time>2019-06-09T12:52:52+02:00</time>
      </trkpt>
      <trkpt lat="41.652941670000004" lon="2.1036349999999997">
        <ele>253.0</ele>
        <time>2019-06-09T12:52:54+02:00</time>
      </trkpt>
      <trkpt lat="41.65286667" lon="2.10366234">
        <ele>255.0</ele>
        <time>2019-06-09T12:52:56+02:00</time>
      </trkpt>
      <trkpt lat="41.65279" lon="2.103695">
        <ele>256.0</ele>
        <time>2019-06-09T12:52:58+02:00</time>
      </trkpt>
      <trkpt lat="41.65273167" lon="2.1037233399999997">
        <ele>257.0</ele>
        <time>2019-06-09T12:53:00+02:00</time>
      </trkpt>
      <trkpt lat="41.65266667000001" lon="2.1037550000000005">
        <ele>258.0</ele>
        <time>2019-06-09T12:53:02+02:00</time>
      </trkpt>
      <trkpt lat="41.652595000000005" lon="2.1037870000000005">
        <ele>259.0</ele>
        <time>2019-06-09T12:53:04+02:00</time>
      </trkpt>
      <trkpt lat="41.65252667000001" lon="2.1038203399999995">
        <ele>260.0</ele>
        <time>2019-06-09T12:53:06+02:00</time>
      </trkpt>
      <trkpt lat="41.652458339999995" lon="2.10384667">
        <ele>261.0</ele>
        <time>2019-06-09T12:53:08+02:00</time>
      </trkpt>
      <trkpt lat="41.65237667" lon="2.103874">
        <ele>261.0</ele>
        <time>2019-06-09T12:53:10+02:00</time>
      </trkpt>
      <trkpt lat="41.65233" lon="2.1038849999999996">
        <ele>261.0</ele>
        <time>2019-06-09T12:53:11+02:00</time>
      </trkpt>
      <trkpt lat="41.65228167" lon="2.103892">
        <ele>261.0</ele>
        <time>2019-06-09T12:53:12+02:00</time>
      </trkpt>
      <trkpt lat="41.65221667000001" lon="2.1039003399999996">
        <ele>261.0</ele>
        <time>2019-06-09T12:53:13+02:00</time>
      </trkpt>
      <trkpt lat="41.65215834000001" lon="2.1037550000000005">
        <ele>261.0</ele>
        <time>2019-06-09T12:53:14+02:00</time>
      </trkpt>
      <trkpt lat="41.652098339999995" lon="2.1037216699999997">
        <ele>261.0</ele>
        <time>2019-06-09T12:53:15+02:00</time>
      </trkpt>
      <trkpt lat="41.652038340000004" lon="2.10369667">
        <ele>261.0</ele>
        <time>2019-06-09T12:53:16+02:00</time>
      </trkpt>
      <trkpt lat="41.65196334" lon="2.1036650000000003">
        <ele>262.0</ele>
        <time>2019-06-09T12:53:18+02:00</time>
      </trkpt>
      <trkpt lat="41.651918339999995" lon="2.1036799999999998">
        <ele>263.0</ele>
        <time>2019-06-09T12:53:23+02:00</time>
      </trkpt>
      <trkpt lat="41.65186667" lon="2.10369167">
        <ele>264.0</ele>
        <time>2019-06-09T12:53:35+02:00</time>
      </trkpt>
      <trkpt lat="41.651815000000006" lon="2.1037096699999998">
        <ele>264.0</ele>
        <time>2019-06-09T12:53:38+02:00</time>
      </trkpt>
      <trkpt lat="41.651765" lon="2.1037363399999998">
        <ele>264.0</ele>
        <time>2019-06-09T12:53:40+02:00</time>
      </trkpt>
      <trkpt lat="41.65171334" lon="2.103763">
        <ele>264.0</ele>
        <time>2019-06-09T12:53:42+02:00</time>
      </trkpt>
      <trkpt lat="41.651651670000014" lon="2.1037870000000005">
        <ele>264.0</ele>
        <time>2019-06-09T12:53:44+02:00</time>
      </trkpt>
      <trkpt lat="41.65158167" lon="2.1038113399999996">
        <ele>264.0</ele>
        <time>2019-06-09T12:53:46+02:00</time>
      </trkpt>
      <trkpt lat="41.65150834" lon="2.10383634">
        <ele>264.0</ele>
        <time>2019-06-09T12:53:48+02:00</time>
      </trkpt>
      <trkpt lat="41.651419999999995" lon="2.1038689999999995">
        <ele>264.0</ele>
        <time>2019-06-09T12:53:50+02:00</time>
      </trkpt>
      <trkpt lat="41.651326669999996" lon="2.1039083399999994">
        <ele>265.0</ele>
        <time>2019-06-09T12:53:52+02:00</time>
      </trkpt>
      <trkpt lat="41.65122667000001" lon="2.103957">
        <ele>265.0</ele>
        <time>2019-06-09T12:53:54+02:00</time>
      </trkpt>
      <trkpt lat="41.651185" lon="2.1039803399999997">
        <ele>265.0</ele>
        <time>2019-06-09T12:53:55+02:00</time>
      </trkpt>
      <trkpt lat="41.651131670000005" lon="2.1040096700000004">
        <ele>265.0</ele>
        <time>2019-06-09T12:53:56+02:00</time>
      </trkpt>
      <trkpt lat="41.651065" lon="2.10404567">
        <ele>265.0</ele>
        <time>2019-06-09T12:53:57+02:00</time>
      </trkpt>
      <trkpt lat="41.65102" lon="2.10406834">
        <ele>265.0</ele>
        <time>2019-06-09T12:53:58+02:00</time>
      </trkpt>
      <trkpt lat="41.65094667" lon="2.1041040000000004">
        <ele>265.0</ele>
        <time>2019-06-09T12:53:59+02:00</time>
      </trkpt>
      <trkpt lat="41.65089" lon="2.104125">
        <ele>265.0</ele>
        <time>2019-06-09T12:54:00+02:00</time>
      </trkpt>
      <trkpt lat="41.650818339999994" lon="2.10415067">
        <ele>266.0</ele>
        <time>2019-06-09T12:54:01+02:00</time>
      </trkpt>
      <trkpt lat="41.650746670000004" lon="2.1041613399999997">
        <ele>266.0</ele>
        <time>2019-06-09T12:54:02+02:00</time>
      </trkpt>
      <trkpt lat="41.65066334" lon="2.1041726699999996">
        <ele>266.0</ele>
        <time>2019-06-09T12:54:03+02:00</time>
      </trkpt>
      <trkpt lat="41.65059167000001" lon="2.1041760000000003">
        <ele>266.0</ele>
        <time>2019-06-09T12:54:04+02:00</time>
      </trkpt>
      <trkpt lat="41.650515" lon="2.1041783399999994">
        <ele>266.0</ele>
        <time>2019-06-09T12:54:05+02:00</time>
      </trkpt>
      <trkpt lat="41.65041834" lon="2.104183">
        <ele>267.0</ele>
        <time>2019-06-09T12:54:06+02:00</time>
      </trkpt>
      <trkpt lat="41.65034334" lon="2.10418067">
        <ele>267.0</ele>
        <time>2019-06-09T12:54:07+02:00</time>
      </trkpt>
      <trkpt lat="41.650259999999996" lon="2.10417767">
        <ele>267.0</ele>
        <time>2019-06-09T12:54:08+02:00</time>
      </trkpt>
      <trkpt lat="41.65018167" lon="2.10417467">
        <ele>267.0</ele>
        <time>2019-06-09T12:54:09+02:00</time>
      </trkpt>
      <trkpt lat="41.65011500000001" lon="2.10416767">
        <ele>267.0</ele>
        <time>2019-06-09T12:54:10+02:00</time>
      </trkpt>
      <trkpt lat="41.65005" lon="2.10416734">
        <ele>268.0</ele>
        <time>2019-06-09T12:54:11+02:00</time>
      </trkpt>
      <trkpt lat="41.64997834" lon="2.10417167">
        <ele>268.0</ele>
        <time>2019-06-09T12:54:12+02:00</time>
      </trkpt>
      <trkpt lat="41.649854999999995" lon="2.10419567">
        <ele>268.0</ele>
        <time>2019-06-09T12:54:13+02:00</time>
      </trkpt>
      <trkpt lat="41.649800000000006" lon="2.1042009999999998">
        <ele>268.0</ele>
        <time>2019-06-09T12:54:14+02:00</time>
      </trkpt>
      <trkpt lat="41.64974667" lon="2.104206">
        <ele>269.0</ele>
        <time>2019-06-09T12:54:15+02:00</time>
      </trkpt>
      <trkpt lat="41.649705000000004" lon="2.10420867">
        <ele>269.0</ele>
        <time>2019-06-09T12:54:16+02:00</time>
      </trkpt>
      <trkpt lat="41.649625" lon="2.1042236700000005">
        <ele>269.0</ele>
        <time>2019-06-09T12:54:18+02:00</time>
      </trkpt>
      <trkpt lat="41.649539999999995" lon="2.10423934">
        <ele>270.0</ele>
        <time>2019-06-09T12:54:20+02:00</time>
      </trkpt>
      <trkpt lat="41.64949334" lon="2.104248">
        <ele>270.0</ele>
        <time>2019-06-09T12:54:21+02:00</time>
      </trkpt>
      <trkpt lat="41.64940834" lon="2.1042636699999995">
        <ele>271.0</ele>
        <time>2019-06-09T12:54:23+02:00</time>
      </trkpt>
      <trkpt lat="41.649321670000006" lon="2.104281">
        <ele>271.0</ele>
        <time>2019-06-09T12:54:25+02:00</time>
      </trkpt>
      <trkpt lat="41.649253339999994" lon="2.1043">
        <ele>271.0</ele>
        <time>2019-06-09T12:54:27+02:00</time>
      </trkpt>
      <trkpt lat="41.649181670000004" lon="2.1043209999999997">
        <ele>271.0</ele>
        <time>2019-06-09T12:54:29+02:00</time>
      </trkpt>
      <trkpt lat="41.649105" lon="2.1043443399999995">
        <ele>272.0</ele>
        <time>2019-06-09T12:54:31+02:00</time>
      </trkpt>
      <trkpt lat="41.64904334" lon="2.10437134">
        <ele>272.0</ele>
        <time>2019-06-09T12:54:33+02:00</time>
      </trkpt>
      <trkpt lat="41.648975" lon="2.104401">
        <ele>273.0</ele>
        <time>2019-06-09T12:54:35+02:00</time>
      </trkpt>
      <trkpt lat="41.64893667" lon="2.104425">
        <ele>273.0</ele>
        <time>2019-06-09T12:54:36+02:00</time>
      </trkpt>
      <trkpt lat="41.648878339999996" lon="2.1044549999999997">
        <ele>273.0</ele>
        <time>2019-06-09T12:54:38+02:00</time>
      </trkpt>
      <trkpt lat="41.64884667" lon="2.10448567">
        <ele>273.0</ele>
        <time>2019-06-09T12:54:39+02:00</time>
      </trkpt>
      <trkpt lat="41.64881167" lon="2.1045120000000006">
        <ele>274.0</ele>
        <time>2019-06-09T12:54:40+02:00</time>
      </trkpt>
      <trkpt lat="41.64876834" lon="2.10454667">
        <ele>274.0</ele>
        <time>2019-06-09T12:54:41+02:00</time>
      </trkpt>
      <trkpt lat="41.64870333999999" lon="2.104589">
        <ele>275.0</ele>
        <time>2019-06-09T12:54:43+02:00</time>
      </trkpt>
      <trkpt lat="41.64866667" lon="2.10462434">
        <ele>275.0</ele>
        <time>2019-06-09T12:54:44+02:00</time>
      </trkpt>
      <trkpt lat="41.64862999999999" lon="2.10466067">
        <ele>275.0</ele>
        <time>2019-06-09T12:54:45+02:00</time>
      </trkpt>
      <trkpt lat="41.64858834" lon="2.1046983399999997">
        <ele>276.0</ele>
        <time>2019-06-09T12:54:46+02:00</time>
      </trkpt>
      <trkpt lat="41.64854667000001" lon="2.10473634">
        <ele>276.0</ele>
        <time>2019-06-09T12:54:47+02:00</time>
      </trkpt>
      <trkpt lat="41.64850334" lon="2.1047743399999996">
        <ele>276.0</ele>
        <time>2019-06-09T12:54:48+02:00</time>
      </trkpt>
      <trkpt lat="41.64845999999999" lon="2.10481234">
        <ele>277.0</ele>
        <time>2019-06-09T12:54:49+02:00</time>
      </trkpt>
      <trkpt lat="41.64840667" lon="2.10485934">
        <ele>277.0</ele>
        <time>2019-06-09T12:54:50+02:00</time>
      </trkpt>
      <trkpt lat="41.64832167000001" lon="2.104918">
        <ele>277.0</ele>
        <time>2019-06-09T12:54:52+02:00</time>
      </trkpt>
      <trkpt lat="41.64827667000001" lon="2.10495667">
        <ele>278.0</ele>
        <time>2019-06-09T12:54:53+02:00</time>
      </trkpt>
      <trkpt lat="41.64823167000001" lon="2.105">
        <ele>278.0</ele>
        <time>2019-06-09T12:54:54+02:00</time>
      </trkpt>
      <trkpt lat="41.64818667000001" lon="2.10504234">
        <ele>278.0</ele>
        <time>2019-06-09T12:54:55+02:00</time>
      </trkpt>
      <trkpt lat="41.64809" lon="2.105106">
        <ele>278.0</ele>
        <time>2019-06-09T12:54:57+02:00</time>
      </trkpt>
      <trkpt lat="41.648016670000004" lon="2.10515967">
        <ele>279.0</ele>
        <time>2019-06-09T12:54:59+02:00</time>
      </trkpt>
      <trkpt lat="41.64793834" lon="2.1052143399999994">
        <ele>279.0</ele>
        <time>2019-06-09T12:55:01+02:00</time>
      </trkpt>
      <trkpt lat="41.64784834" lon="2.105268">
        <ele>279.0</ele>
        <time>2019-06-09T12:55:03+02:00</time>
      </trkpt>
      <trkpt lat="41.647796670000005" lon="2.105303">
        <ele>279.0</ele>
        <time>2019-06-09T12:55:04+02:00</time>
      </trkpt>
      <trkpt lat="41.64773834" lon="2.1053403399999997">
        <ele>279.0</ele>
        <time>2019-06-09T12:55:05+02:00</time>
      </trkpt>
      <trkpt lat="41.647663339999994" lon="2.1053849999999996">
        <ele>279.0</ele>
        <time>2019-06-09T12:55:06+02:00</time>
      </trkpt>
      <trkpt lat="41.647611669999996" lon="2.10540434">
        <ele>279.0</ele>
        <time>2019-06-09T12:55:07+02:00</time>
      </trkpt>
      <trkpt lat="41.647546670000004" lon="2.10542567">
        <ele>279.0</ele>
        <time>2019-06-09T12:55:08+02:00</time>
      </trkpt>
      <trkpt lat="41.647451669999995" lon="2.105456">
        <ele>279.0</ele>
        <time>2019-06-09T12:55:09+02:00</time>
      </trkpt>
      <trkpt lat="41.64734500000001" lon="2.10548467">
        <ele>279.0</ele>
        <time>2019-06-09T12:55:10+02:00</time>
      </trkpt>
      <trkpt lat="41.647235" lon="2.10550767">
        <ele>280.0</ele>
        <time>2019-06-09T12:55:11+02:00</time>
      </trkpt>
      <trkpt lat="41.647121670000004" lon="2.105518">
        <ele>280.0</ele>
        <time>2019-06-09T12:55:12+02:00</time>
      </trkpt>
      <trkpt lat="41.64702334" lon="2.10551234">
        <ele>280.0</ele>
        <time>2019-06-09T12:55:13+02:00</time>
      </trkpt>
      <trkpt lat="41.646926670000006" lon="2.1054966699999995">
        <ele>280.0</ele>
        <time>2019-06-09T12:55:14+02:00</time>
      </trkpt>
      <trkpt lat="41.64683167" lon="2.1054643399999997">
        <ele>280.0</ele>
        <time>2019-06-09T12:55:15+02:00</time>
      </trkpt>
      <trkpt lat="41.64672" lon="2.1054340000000002">
        <ele>280.0</ele>
        <time>2019-06-09T12:55:16+02:00</time>
      </trkpt>
      <trkpt lat="41.64664500000001" lon="2.10538767">
        <ele>281.0</ele>
        <time>2019-06-09T12:55:17+02:00</time>
      </trkpt>
      <trkpt lat="41.646555" lon="2.10533667">
        <ele>281.0</ele>
        <time>2019-06-09T12:55:18+02:00</time>
      </trkpt>
      <trkpt lat="41.64647167000001" lon="2.1052799999999996">
        <ele>281.0</ele>
        <time>2019-06-09T12:55:19+02:00</time>
      </trkpt>
      <trkpt lat="41.64639834" lon="2.10521967">
        <ele>282.0</ele>
        <time>2019-06-09T12:55:20+02:00</time>
      </trkpt>
      <trkpt lat="41.64633667" lon="2.105156">
        <ele>282.0</ele>
        <time>2019-06-09T12:55:21+02:00</time>
      </trkpt>
      <trkpt lat="41.64628667" lon="2.10509067">
        <ele>283.0</ele>
        <time>2019-06-09T12:55:22+02:00</time>
      </trkpt>
      <trkpt lat="41.646245" lon="2.10503134">
        <ele>283.0</ele>
        <time>2019-06-09T12:55:23+02:00</time>
      </trkpt>
      <trkpt lat="41.64620333999999" lon="2.10496634">
        <ele>283.0</ele>
        <time>2019-06-09T12:55:24+02:00</time>
      </trkpt>
      <trkpt lat="41.64614834" lon="2.1049016700000003">
        <ele>284.0</ele>
        <time>2019-06-09T12:55:26+02:00</time>
      </trkpt>
      <trkpt lat="41.64608334" lon="2.10485067">
        <ele>284.0</ele>
        <time>2019-06-09T12:55:27+02:00</time>
      </trkpt>
      <trkpt lat="41.64601166999999" lon="2.1047916699999996">
        <ele>285.0</ele>
        <time>2019-06-09T12:55:28+02:00</time>
      </trkpt>
      <trkpt lat="41.645965000000004" lon="2.10473367">
        <ele>285.0</ele>
        <time>2019-06-09T12:55:29+02:00</time>
      </trkpt>
      <trkpt lat="41.64592167000001" lon="2.1046819999999995">
        <ele>285.0</ele>
        <time>2019-06-09T12:55:30+02:00</time>
      </trkpt>
      <trkpt lat="41.645873339999994" lon="2.10462834">
        <ele>285.0</ele>
        <time>2019-06-09T12:55:31+02:00</time>
      </trkpt>
      <trkpt lat="41.645830000000004" lon="2.10458167">
        <ele>286.0</ele>
        <time>2019-06-09T12:55:32+02:00</time>
      </trkpt>
      <trkpt lat="41.64578834" lon="2.10452834">
        <ele>286.0</ele>
        <time>2019-06-09T12:55:33+02:00</time>
      </trkpt>
      <trkpt lat="41.64575" lon="2.104482">
        <ele>286.0</ele>
        <time>2019-06-09T12:55:34+02:00</time>
      </trkpt>
      <trkpt lat="41.645709999999994" lon="2.10444034">
        <ele>286.0</ele>
        <time>2019-06-09T12:55:35+02:00</time>
      </trkpt>
      <trkpt lat="41.64565667000001" lon="2.1043886699999996">
        <ele>286.0</ele>
        <time>2019-06-09T12:55:36+02:00</time>
      </trkpt>
      <trkpt lat="41.645599999999995" lon="2.104342">
        <ele>287.0</ele>
        <time>2019-06-09T12:55:37+02:00</time>
      </trkpt>
      <trkpt lat="41.645531670000004" lon="2.1042966699999996">
        <ele>287.0</ele>
        <time>2019-06-09T12:55:38+02:00</time>
      </trkpt>
      <trkpt lat="41.64548334" lon="2.10425634">
        <ele>287.0</ele>
        <time>2019-06-09T12:55:39+02:00</time>
      </trkpt>
      <trkpt lat="41.645425" lon="2.10421834">
        <ele>287.0</ele>
        <time>2019-06-09T12:55:40+02:00</time>
      </trkpt>
      <trkpt lat="41.64536667" lon="2.1041793399999995">
        <ele>287.0</ele>
        <time>2019-06-09T12:55:41+02:00</time>
      </trkpt>
      <trkpt lat="41.64530834" lon="2.10414534">
        <ele>287.0</ele>
        <time>2019-06-09T12:55:42+02:00</time>
      </trkpt>
      <trkpt lat="41.64525" lon="2.1041109999999996">
        <ele>287.0</ele>
        <time>2019-06-09T12:55:43+02:00</time>
      </trkpt>
      <trkpt lat="41.645196670000004" lon="2.1040780000000003">
        <ele>287.0</ele>
        <time>2019-06-09T12:55:44+02:00</time>
      </trkpt>
      <trkpt lat="41.645145" lon="2.10404467">
        <ele>287.0</ele>
        <time>2019-06-09T12:55:45+02:00</time>
      </trkpt>
      <trkpt lat="41.645095000000005" lon="2.1040173399999995">
        <ele>288.0</ele>
        <time>2019-06-09T12:55:46+02:00</time>
      </trkpt>
      <trkpt lat="41.645048339999995" lon="2.10399667">
        <ele>288.0</ele>
        <time>2019-06-09T12:55:47+02:00</time>
      </trkpt>
      <trkpt lat="41.645003339999995" lon="2.1039756699999996">
        <ele>288.0</ele>
        <time>2019-06-09T12:55:48+02:00</time>
      </trkpt>
      <trkpt lat="41.64492167" lon="2.1039443399999995">
        <ele>288.0</ele>
        <time>2019-06-09T12:55:50+02:00</time>
      </trkpt>
      <trkpt lat="41.644845000000004" lon="2.1039090000000003">
        <ele>288.0</ele>
        <time>2019-06-09T12:55:52+02:00</time>
      </trkpt>
      <trkpt lat="41.64476334" lon="2.10388267">
        <ele>288.0</ele>
        <time>2019-06-09T12:55:54+02:00</time>
      </trkpt>
      <trkpt lat="41.64470834" lon="2.10386834">
        <ele>288.0</ele>
        <time>2019-06-09T12:55:55+02:00</time>
      </trkpt>
      <trkpt lat="41.64462167000001" lon="2.10385234">
        <ele>288.0</ele>
        <time>2019-06-09T12:55:57+02:00</time>
      </trkpt>
      <trkpt lat="41.644574999999996" lon="2.10384767">
        <ele>288.0</ele>
        <time>2019-06-09T12:55:58+02:00</time>
      </trkpt>
      <trkpt lat="41.644490000000005" lon="2.1038336699999998">
        <ele>288.0</ele>
        <time>2019-06-09T12:56:00+02:00</time>
      </trkpt>
      <trkpt lat="41.64441334" lon="2.10383">
        <ele>288.0</ele>
        <time>2019-06-09T12:56:02+02:00</time>
      </trkpt>
      <trkpt lat="41.64433667" lon="2.1038273399999996">
        <ele>288.0</ele>
        <time>2019-06-09T12:56:04+02:00</time>
      </trkpt>
      <trkpt lat="41.64427334" lon="2.10382634">
        <ele>288.0</ele>
        <time>2019-06-09T12:56:06+02:00</time>
      </trkpt>
      <trkpt lat="41.64420334" lon="2.1038356699999996">
        <ele>288.0</ele>
        <time>2019-06-09T12:56:08+02:00</time>
      </trkpt>
      <trkpt lat="41.644133339999996" lon="2.103846">
        <ele>288.0</ele>
        <time>2019-06-09T12:56:10+02:00</time>
      </trkpt>
      <trkpt lat="41.64406334" lon="2.1038633399999997">
        <ele>288.0</ele>
        <time>2019-06-09T12:56:12+02:00</time>
      </trkpt>
      <trkpt lat="41.643993339999994" lon="2.103888">
        <ele>288.0</ele>
        <time>2019-06-09T12:56:14+02:00</time>
      </trkpt>
      <trkpt lat="41.643925" lon="2.1039139999999996">
        <ele>288.0</ele>
        <time>2019-06-09T12:56:16+02:00</time>
      </trkpt>
      <trkpt lat="41.64384667" lon="2.10394634">
        <ele>288.0</ele>
        <time>2019-06-09T12:56:18+02:00</time>
      </trkpt>
      <trkpt lat="41.64380333999999" lon="2.10398667">
        <ele>288.0</ele>
        <time>2019-06-09T12:56:19+02:00</time>
      </trkpt>
      <trkpt lat="41.64375667" lon="2.1040273399999996">
        <ele>288.0</ele>
        <time>2019-06-09T12:56:20+02:00</time>
      </trkpt>
      <trkpt lat="41.643708339999996" lon="2.1040686699999998">
        <ele>288.0</ele>
        <time>2019-06-09T12:56:21+02:00</time>
      </trkpt>
      <trkpt lat="41.64366" lon="2.10411134">
        <ele>288.0</ele>
        <time>2019-06-09T12:56:22+02:00</time>
      </trkpt>
      <trkpt lat="41.643595000000005" lon="2.104162">
        <ele>288.0</ele>
        <time>2019-06-09T12:56:23+02:00</time>
      </trkpt>
      <trkpt lat="41.64353167" lon="2.104221">
        <ele>288.0</ele>
        <time>2019-06-09T12:56:24+02:00</time>
      </trkpt>
      <trkpt lat="41.64348" lon="2.104815">
        <ele>288.0</ele>
        <time>2019-06-09T12:56:25+02:00</time>
      </trkpt>
      <trkpt lat="41.643449999999994" lon="2.104895">
        <ele>288.0</ele>
        <time>2019-06-09T12:56:26+02:00</time>
      </trkpt>
      <trkpt lat="41.64342834" lon="2.1050033399999997">
        <ele>288.0</ele>
        <time>2019-06-09T12:56:27+02:00</time>
      </trkpt>
      <trkpt lat="41.643405" lon="2.1050916699999997">
        <ele>288.0</ele>
        <time>2019-06-09T12:56:28+02:00</time>
      </trkpt>
      <trkpt lat="41.643366670000006" lon="2.1052033399999996">
        <ele>288.0</ele>
        <time>2019-06-09T12:56:29+02:00</time>
      </trkpt>
      <trkpt lat="41.64331266999999" lon="2.10534334">
        <ele>288.0</ele>
        <time>2019-06-09T12:56:30+02:00</time>
      </trkpt>
      <trkpt lat="41.64327367" lon="2.10544167">
        <ele>288.0</ele>
        <time>2019-06-09T12:56:31+02:00</time>
      </trkpt>
      <trkpt lat="41.643226000000006" lon="2.10555667">
        <ele>288.0</ele>
        <time>2019-06-09T12:56:32+02:00</time>
      </trkpt>
      <trkpt lat="41.643168339999995" lon="2.10569">
        <ele>288.0</ele>
        <time>2019-06-09T12:56:33+02:00</time>
      </trkpt>
      <trkpt lat="41.64313266999999" lon="2.10577334">
        <ele>288.0</ele>
        <time>2019-06-09T12:56:34+02:00</time>
      </trkpt>
      <trkpt lat="41.64308534" lon="2.10588">
        <ele>289.0</ele>
        <time>2019-06-09T12:56:35+02:00</time>
      </trkpt>
      <trkpt lat="41.643042" lon="2.1059733399999994">
        <ele>289.0</ele>
        <time>2019-06-09T12:56:36+02:00</time>
      </trkpt>
      <trkpt lat="41.642956670000004" lon="2.10612667">
        <ele>289.0</ele>
        <time>2019-06-09T12:56:37+02:00</time>
      </trkpt>
      <trkpt lat="41.64290333999999" lon="2.10621334">
        <ele>290.0</ele>
        <time>2019-06-09T12:56:38+02:00</time>
      </trkpt>
      <trkpt lat="41.64285867" lon="2.1062866700000002">
        <ele>290.0</ele>
        <time>2019-06-09T12:56:39+02:00</time>
      </trkpt>
      <trkpt lat="41.642813340000004" lon="2.1063599999999996">
        <ele>290.0</ele>
        <time>2019-06-09T12:56:40+02:00</time>
      </trkpt>
      <trkpt lat="41.64275834" lon="2.1064583399999997">
        <ele>290.0</ele>
        <time>2019-06-09T12:56:41+02:00</time>
      </trkpt>
      <trkpt lat="41.64272333999999" lon="2.1065066699999995">
        <ele>291.0</ele>
        <time>2019-06-09T12:56:42+02:00</time>
      </trkpt>
      <trkpt lat="41.642675" lon="2.106585">
        <ele>291.0</ele>
        <time>2019-06-09T12:56:43+02:00</time>
      </trkpt>
      <trkpt lat="41.642643" lon="2.10661667">
        <ele>291.0</ele>
        <time>2019-06-09T12:56:44+02:00</time>
      </trkpt>
      <trkpt lat="41.642508340000006" lon="2.1066216699999996">
        <ele>291.0</ele>
        <time>2019-06-09T12:56:45+02:00</time>
      </trkpt>
      <trkpt lat="41.64241833999999" lon="2.1067150000000003">
        <ele>292.0</ele>
        <time>2019-06-09T12:56:46+02:00</time>
      </trkpt>
      <trkpt lat="41.642368340000004" lon="2.10674334">
        <ele>292.0</ele>
        <time>2019-06-09T12:56:47+02:00</time>
      </trkpt>
      <trkpt lat="41.642300000000006" lon="2.1067833399999993">
        <ele>292.0</ele>
        <time>2019-06-09T12:56:48+02:00</time>
      </trkpt>
      <trkpt lat="41.642205000000004" lon="2.106815">
        <ele>292.0</ele>
        <time>2019-06-09T12:56:49+02:00</time>
      </trkpt>
      <trkpt lat="41.64213167" lon="2.10680167">
        <ele>292.0</ele>
        <time>2019-06-09T12:56:50+02:00</time>
      </trkpt>
      <trkpt lat="41.642058340000006" lon="2.1067733399999997">
        <ele>292.0</ele>
        <time>2019-06-09T12:56:51+02:00</time>
      </trkpt>
      <trkpt lat="41.64199167" lon="2.1067400000000003">
        <ele>292.0</ele>
        <time>2019-06-09T12:56:52+02:00</time>
      </trkpt>
      <trkpt lat="41.64191334" lon="2.10669334">
        <ele>292.0</ele>
        <time>2019-06-09T12:56:53+02:00</time>
      </trkpt>
      <trkpt lat="41.64185334" lon="2.10665">
        <ele>292.0</ele>
        <time>2019-06-09T12:56:54+02:00</time>
      </trkpt>
      <trkpt lat="41.64178167" lon="2.10660667">
        <ele>292.0</ele>
        <time>2019-06-09T12:56:55+02:00</time>
      </trkpt>
      <trkpt lat="41.641706670000005" lon="2.10656">
        <ele>292.0</ele>
        <time>2019-06-09T12:56:56+02:00</time>
      </trkpt>
      <trkpt lat="41.641639999999995" lon="2.10652167">
        <ele>293.0</ele>
        <time>2019-06-09T12:56:57+02:00</time>
      </trkpt>
      <trkpt lat="41.641571670000005" lon="2.1064903399999997">
        <ele>293.0</ele>
        <time>2019-06-09T12:56:58+02:00</time>
      </trkpt>
      <trkpt lat="41.641515" lon="2.106477">
        <ele>293.0</ele>
        <time>2019-06-09T12:56:59+02:00</time>
      </trkpt>
      <trkpt lat="41.641495000000006" lon="2.1065916699999994">
        <ele>294.0</ele>
        <time>2019-06-09T12:57:01+02:00</time>
      </trkpt>
      <trkpt lat="41.64147333999999" lon="2.1066849999999997">
        <ele>294.0</ele>
        <time>2019-06-09T12:57:02+02:00</time>
      </trkpt>
      <trkpt lat="41.641443339999995" lon="2.106755">
        <ele>294.0</ele>
        <time>2019-06-09T12:57:03+02:00</time>
      </trkpt>
      <trkpt lat="41.64140167000001" lon="2.1068583399999996">
        <ele>294.0</ele>
        <time>2019-06-09T12:57:04+02:00</time>
      </trkpt>
      <trkpt lat="41.641335" lon="2.10698334">
        <ele>294.0</ele>
        <time>2019-06-09T12:57:05+02:00</time>
      </trkpt>
      <trkpt lat="41.64129833999999" lon="2.107048">
        <ele>294.0</ele>
        <time>2019-06-09T12:57:06+02:00</time>
      </trkpt>
      <trkpt lat="41.641248340000004" lon="2.10710367">
        <ele>294.0</ele>
        <time>2019-06-09T12:57:07+02:00</time>
      </trkpt>
      <trkpt lat="41.641165" lon="2.10718467">
        <ele>294.0</ele>
        <time>2019-06-09T12:57:08+02:00</time>
      </trkpt>
      <trkpt lat="41.64108834" lon="2.10724367">
        <ele>294.0</ele>
        <time>2019-06-09T12:57:09+02:00</time>
      </trkpt>
      <trkpt lat="41.641023340000004" lon="2.10729834">
        <ele>294.0</ele>
        <time>2019-06-09T12:57:10+02:00</time>
      </trkpt>
      <trkpt lat="41.64096500000001" lon="2.10735034">
        <ele>294.0</ele>
        <time>2019-06-09T12:57:11+02:00</time>
      </trkpt>
      <trkpt lat="41.640919999999994" lon="2.10739567">
        <ele>294.0</ele>
        <time>2019-06-09T12:57:12+02:00</time>
      </trkpt>
      <trkpt lat="41.640845" lon="2.107475">
        <ele>294.0</ele>
        <time>2019-06-09T12:57:13+02:00</time>
      </trkpt>
      <trkpt lat="41.64077999999999" lon="2.10754734">
        <ele>294.0</ele>
        <time>2019-06-09T12:57:14+02:00</time>
      </trkpt>
      <trkpt lat="41.640721670000005" lon="2.1076133399999994">
        <ele>295.0</ele>
        <time>2019-06-09T12:57:15+02:00</time>
      </trkpt>
      <trkpt lat="41.640638339999995" lon="2.10770734">
        <ele>295.0</ele>
        <time>2019-06-09T12:57:16+02:00</time>
      </trkpt>
      <trkpt lat="41.64059" lon="2.107763">
        <ele>295.0</ele>
        <time>2019-06-09T12:57:17+02:00</time>
      </trkpt>
      <trkpt lat="41.64054" lon="2.10782167">
        <ele>295.0</ele>
        <time>2019-06-09T12:57:18+02:00</time>
      </trkpt>
      <trkpt lat="41.640503339999995" lon="2.1078716699999993">
        <ele>296.0</ele>
        <time>2019-06-09T12:57:19+02:00</time>
      </trkpt>
      <trkpt lat="41.64047334" lon="2.1079983399999995">
        <ele>296.0</ele>
        <time>2019-06-09T12:57:20+02:00</time>
      </trkpt>
      <trkpt lat="41.64044833999999" lon="2.10809334">
        <ele>296.0</ele>
        <time>2019-06-09T12:57:21+02:00</time>
      </trkpt>
      <trkpt lat="41.64042167000001" lon="2.10821334">
        <ele>296.0</ele>
        <time>2019-06-09T12:57:22+02:00</time>
      </trkpt>
      <trkpt lat="41.6404" lon="2.108325">
        <ele>296.0</ele>
        <time>2019-06-09T12:57:23+02:00</time>
      </trkpt>
      <trkpt lat="41.64038334" lon="2.1084383399999997">
        <ele>297.0</ele>
        <time>2019-06-09T12:57:24+02:00</time>
      </trkpt>
      <trkpt lat="41.640378" lon="2.1085299999999996">
        <ele>297.0</ele>
        <time>2019-06-09T12:57:25+02:00</time>
      </trkpt>
      <trkpt lat="41.64036467" lon="2.108645">
        <ele>297.0</ele>
        <time>2019-06-09T12:57:26+02:00</time>
      </trkpt>
      <trkpt lat="41.640352670000006" lon="2.1087483399999996">
        <ele>297.0</ele>
        <time>2019-06-09T12:57:27+02:00</time>
      </trkpt>
      <trkpt lat="41.640338" lon="2.1088383399999997">
        <ele>297.0</ele>
        <time>2019-06-09T12:57:28+02:00</time>
      </trkpt>
      <trkpt lat="41.64031767" lon="2.108925">
        <ele>297.0</ele>
        <time>2019-06-09T12:57:29+02:00</time>
      </trkpt>
      <trkpt lat="41.640289" lon="2.1090050000000002">
        <ele>297.0</ele>
        <time>2019-06-09T12:57:30+02:00</time>
      </trkpt>
      <trkpt lat="41.640252" lon="2.1090950000000004">
        <ele>298.0</ele>
        <time>2019-06-09T12:57:31+02:00</time>
      </trkpt>
      <trkpt lat="41.64021433999999" lon="2.10918167">
        <ele>298.0</ele>
        <time>2019-06-09T12:57:32+02:00</time>
      </trkpt>
      <trkpt lat="41.64017700000001" lon="2.10926">
        <ele>298.0</ele>
        <time>2019-06-09T12:57:33+02:00</time>
      </trkpt>
      <trkpt lat="41.64014100000001" lon="2.10932334">
        <ele>298.0</ele>
        <time>2019-06-09T12:57:34+02:00</time>
      </trkpt>
      <trkpt lat="41.640105670000004" lon="2.109375">
        <ele>298.0</ele>
        <time>2019-06-09T12:57:35+02:00</time>
      </trkpt>
      <trkpt lat="41.63998667" lon="2.1093699999999997">
        <ele>299.0</ele>
        <time>2019-06-09T12:57:36+02:00</time>
      </trkpt>
      <trkpt lat="41.63990834" lon="2.1093800000000003">
        <ele>299.0</ele>
        <time>2019-06-09T12:57:37+02:00</time>
      </trkpt>
      <trkpt lat="41.639849999999996" lon="2.109375">
        <ele>299.0</ele>
        <time>2019-06-09T12:57:38+02:00</time>
      </trkpt>
      <trkpt lat="41.6398" lon="2.109315">
        <ele>299.0</ele>
        <time>2019-06-09T12:57:39+02:00</time>
      </trkpt>
      <trkpt lat="41.63974" lon="2.1092583399999993">
        <ele>299.0</ele>
        <time>2019-06-09T12:57:40+02:00</time>
      </trkpt>
      <trkpt lat="41.63968334" lon="2.1091833399999995">
        <ele>299.0</ele>
        <time>2019-06-09T12:57:41+02:00</time>
      </trkpt>
      <trkpt lat="41.63964" lon="2.1091233399999996">
        <ele>299.0</ele>
        <time>2019-06-09T12:57:42+02:00</time>
      </trkpt>
      <trkpt lat="41.63959000000001" lon="2.1090833399999998">
        <ele>299.0</ele>
        <time>2019-06-09T12:57:43+02:00</time>
      </trkpt>
      <trkpt lat="41.63953167000001" lon="2.109065">
        <ele>299.0</ele>
        <time>2019-06-09T12:57:45+02:00</time>
      </trkpt>
      <trkpt lat="41.63945834" lon="2.1091386699999997">
        <ele>299.0</ele>
        <time>2019-06-09T12:57:47+02:00</time>
      </trkpt>
      <trkpt lat="41.63937" lon="2.1093183399999997">
        <ele>299.0</ele>
        <time>2019-06-09T12:57:49+02:00</time>
      </trkpt>
      <trkpt lat="41.63927167" lon="2.10956167">
        <ele>299.0</ele>
        <time>2019-06-09T12:57:51+02:00</time>
      </trkpt>
      <trkpt lat="41.63923167" lon="2.1096049999999997">
        <ele>299.0</ele>
        <time>2019-06-09T12:57:52+02:00</time>
      </trkpt>
      <trkpt lat="41.63917500000001" lon="2.1096413399999996">
        <ele>299.0</ele>
        <time>2019-06-09T12:57:53+02:00</time>
      </trkpt>
      <trkpt lat="41.639129999999994" lon="2.1096589999999997">
        <ele>299.0</ele>
        <time>2019-06-09T12:57:54+02:00</time>
      </trkpt>
      <trkpt lat="41.63904000000001" lon="2.1097183399999997">
        <ele>298.0</ele>
        <time>2019-06-09T12:57:56+02:00</time>
      </trkpt>
      <trkpt lat="41.638996670000004" lon="2.10977">
        <ele>298.0</ele>
        <time>2019-06-09T12:57:57+02:00</time>
      </trkpt>
      <trkpt lat="41.638955" lon="2.1098336699999996">
        <ele>298.0</ele>
        <time>2019-06-09T12:57:58+02:00</time>
      </trkpt>
      <trkpt lat="41.63893167" lon="2.1098856699999997">
        <ele>298.0</ele>
        <time>2019-06-09T12:57:59+02:00</time>
      </trkpt>
      <trkpt lat="41.63890834" lon="2.1100233399999997">
        <ele>298.0</ele>
        <time>2019-06-09T12:58:00+02:00</time>
      </trkpt>
      <trkpt lat="41.638893339999996" lon="2.1100950000000003">
        <ele>298.0</ele>
        <time>2019-06-09T12:58:01+02:00</time>
      </trkpt>
      <trkpt lat="41.638884999999995" lon="2.1101750000000004">
        <ele>298.0</ele>
        <time>2019-06-09T12:58:02+02:00</time>
      </trkpt>
      <trkpt lat="41.638893339999996" lon="2.1102650000000005">
        <ele>298.0</ele>
        <time>2019-06-09T12:58:03+02:00</time>
      </trkpt>
      <trkpt lat="41.63890834" lon="2.11035167">
        <ele>297.0</ele>
        <time>2019-06-09T12:58:04+02:00</time>
      </trkpt>
      <trkpt lat="41.63890334" lon="2.1104316699999996">
        <ele>297.0</ele>
        <time>2019-06-09T12:58:05+02:00</time>
      </trkpt>
      <trkpt lat="41.63888334" lon="2.1104900000000004">
        <ele>297.0</ele>
        <time>2019-06-09T12:58:06+02:00</time>
      </trkpt>
      <trkpt lat="41.638842000000004" lon="2.1104866699999993">
        <ele>297.0</ele>
        <time>2019-06-09T12:58:08+02:00</time>
      </trkpt>
      <trkpt lat="41.63871834" lon="2.1104316699999996">
        <ele>297.0</ele>
        <time>2019-06-09T12:58:10+02:00</time>
      </trkpt>
      <trkpt lat="41.63864500000001" lon="2.1103983399999997">
        <ele>297.0</ele>
        <time>2019-06-09T12:58:12+02:00</time>
      </trkpt>
      <trkpt lat="41.63861333999999" lon="2.110448">
        <ele>297.0</ele>
        <time>2019-06-09T12:58:14+02:00</time>
      </trkpt>
      <trkpt lat="41.638653340000005" lon="2.1105349999999996">
        <ele>296.0</ele>
        <time>2019-06-09T12:58:17+02:00</time>
      </trkpt>
      <trkpt lat="41.63869833999999" lon="2.1105566700000002">
        <ele>296.0</ele>
        <time>2019-06-09T12:58:18+02:00</time>
      </trkpt>
      <trkpt lat="41.638775" lon="2.11059767">
        <ele>296.0</ele>
        <time>2019-06-09T12:58:20+02:00</time>
      </trkpt>
      <trkpt lat="41.63884167000001" lon="2.11062934">
        <ele>296.0</ele>
        <time>2019-06-09T12:58:22+02:00</time>
      </trkpt>
      <trkpt lat="41.63889667" lon="2.1106546699999997">
        <ele>295.0</ele>
        <time>2019-06-09T12:58:24+02:00</time>
      </trkpt>
      <trkpt lat="41.63895834" lon="2.1106766699999997">
        <ele>295.0</ele>
        <time>2019-06-09T12:58:26+02:00</time>
      </trkpt>
      <trkpt lat="41.63902" lon="2.11069667">
        <ele>294.0</ele>
        <time>2019-06-09T12:58:29+02:00</time>
      </trkpt>
      <trkpt lat="41.63907667" lon="2.1107156700000003">
        <ele>294.0</ele>
        <time>2019-06-09T12:58:32+02:00</time>
      </trkpt>
      <trkpt lat="41.63914" lon="2.1107329999999997">
        <ele>293.0</ele>
        <time>2019-06-09T12:58:35+02:00</time>
      </trkpt>
      <trkpt lat="41.63918667" lon="2.1107393399999994">
        <ele>292.0</ele>
        <time>2019-06-09T12:58:37+02:00</time>
      </trkpt>
      <trkpt lat="41.63923833999999" lon="2.11069667">
        <ele>291.0</ele>
        <time>2019-06-09T12:58:40+02:00</time>
      </trkpt>
      <trkpt lat="41.63927" lon="2.11065334">
        <ele>291.0</ele>
        <time>2019-06-09T12:58:42+02:00</time>
      </trkpt>
      <trkpt lat="41.639315" lon="2.1106000000000003">
        <ele>290.0</ele>
        <time>2019-06-09T12:58:45+02:00</time>
      </trkpt>
      <trkpt lat="41.639345000000006" lon="2.1105333399999995">
        <ele>289.0</ele>
        <time>2019-06-09T12:58:48+02:00</time>
      </trkpt>
      <trkpt lat="41.63938499999999" lon="2.11046167">
        <ele>288.0</ele>
        <time>2019-06-09T12:58:51+02:00</time>
      </trkpt>
      <trkpt lat="41.63941634" lon="2.11041834">
        <ele>287.0</ele>
        <time>2019-06-09T12:58:53+02:00</time>
      </trkpt>
      <trkpt lat="41.639450999999994" lon="2.1103733399999998">
        <ele>286.0</ele>
        <time>2019-06-09T12:58:55+02:00</time>
      </trkpt>
      <trkpt lat="41.639495000000004" lon="2.1103249999999996">
        <ele>285.0</ele>
        <time>2019-06-09T12:58:57+02:00</time>
      </trkpt>
      <trkpt lat="41.63952999999999" lon="2.11028167">
        <ele>285.0</ele>
        <time>2019-06-09T12:58:59+02:00</time>
      </trkpt>
      <trkpt lat="41.63957334" lon="2.1102439999999993">
        <ele>284.0</ele>
        <time>2019-06-09T12:59:01+02:00</time>
      </trkpt>
      <trkpt lat="41.63962834" lon="2.11021834">
        <ele>284.0</ele>
        <time>2019-06-09T12:59:03+02:00</time>
      </trkpt>
      <trkpt lat="41.63968" lon="2.1102200000000004">
        <ele>284.0</ele>
        <time>2019-06-09T12:59:05+02:00</time>
      </trkpt>
      <trkpt lat="41.63973" lon="2.110225">
        <ele>284.0</ele>
        <time>2019-06-09T12:59:07+02:00</time>
      </trkpt>
      <trkpt lat="41.63979499999999" lon="2.11024">
        <ele>283.0</ele>
        <time>2019-06-09T12:59:10+02:00</time>
      </trkpt>
      <trkpt lat="41.639849999999996" lon="2.1102546699999998">
        <ele>283.0</ele>
        <time>2019-06-09T12:59:12+02:00</time>
      </trkpt>
      <trkpt lat="41.63989667" lon="2.11028167">
        <ele>283.0</ele>
        <time>2019-06-09T12:59:14+02:00</time>
      </trkpt>
      <trkpt lat="41.63993667000001" lon="2.11031167">
        <ele>282.0</ele>
        <time>2019-06-09T12:59:16+02:00</time>
      </trkpt>
      <trkpt lat="41.639984999999996" lon="2.1103393399999995">
        <ele>282.0</ele>
        <time>2019-06-09T12:59:18+02:00</time>
      </trkpt>
      <trkpt lat="41.640035" lon="2.1103606699999995">
        <ele>282.0</ele>
        <time>2019-06-09T12:59:20+02:00</time>
      </trkpt>
      <trkpt lat="41.64008667" lon="2.110384">
        <ele>281.0</ele>
        <time>2019-06-09T12:59:22+02:00</time>
      </trkpt>
      <trkpt lat="41.64013167" lon="2.110407">
        <ele>281.0</ele>
        <time>2019-06-09T12:59:24+02:00</time>
      </trkpt>
      <trkpt lat="41.640186670000006" lon="2.1104323400000005">
        <ele>281.0</ele>
        <time>2019-06-09T12:59:26+02:00</time>
      </trkpt>
      <trkpt lat="41.640233339999995" lon="2.11045467">
        <ele>280.0</ele>
        <time>2019-06-09T12:59:28+02:00</time>
      </trkpt>
      <trkpt lat="41.640276670000006" lon="2.11047734">
        <ele>280.0</ele>
        <time>2019-06-09T12:59:30+02:00</time>
      </trkpt>
      <trkpt lat="41.64033834" lon="2.110509">
        <ele>279.0</ele>
        <time>2019-06-09T12:59:33+02:00</time>
      </trkpt>
      <trkpt lat="41.64038334" lon="2.11052867">
        <ele>279.0</ele>
        <time>2019-06-09T12:59:35+02:00</time>
      </trkpt>
      <trkpt lat="41.640455" lon="2.11055467">
        <ele>278.0</ele>
        <time>2019-06-09T12:59:38+02:00</time>
      </trkpt>
      <trkpt lat="41.640505" lon="2.11056134">
        <ele>277.0</ele>
        <time>2019-06-09T12:59:40+02:00</time>
      </trkpt>
      <trkpt lat="41.640559999999994" lon="2.1105650000000002">
        <ele>277.0</ele>
        <time>2019-06-09T12:59:42+02:00</time>
      </trkpt>
      <trkpt lat="41.64062167000001" lon="2.1105693399999996">
        <ele>276.0</ele>
        <time>2019-06-09T12:59:44+02:00</time>
      </trkpt>
      <trkpt lat="41.64067" lon="2.1105813399999995">
        <ele>276.0</ele>
        <time>2019-06-09T12:59:46+02:00</time>
      </trkpt>
      <trkpt lat="41.64066833999999" lon="2.1106599999999998">
        <ele>276.0</ele>
        <time>2019-06-09T12:59:48+02:00</time>
      </trkpt>
      <trkpt lat="41.64061167" lon="2.11075167">
        <ele>275.0</ele>
        <time>2019-06-09T12:59:50+02:00</time>
      </trkpt>
      <trkpt lat="41.64057167000001" lon="2.11078834">
        <ele>275.0</ele>
        <time>2019-06-09T12:59:51+02:00</time>
      </trkpt>
      <trkpt lat="41.640516670000004" lon="2.1108200000000004">
        <ele>275.0</ele>
        <time>2019-06-09T12:59:52+02:00</time>
      </trkpt>
      <trkpt lat="41.640456670000006" lon="2.1108433399999997">
        <ele>275.0</ele>
        <time>2019-06-09T12:59:53+02:00</time>
      </trkpt>
      <trkpt lat="41.64039" lon="2.1108583399999996">
        <ele>275.0</ele>
        <time>2019-06-09T12:59:54+02:00</time>
      </trkpt>
      <trkpt lat="41.640325" lon="2.1108599999999997">
        <ele>275.0</ele>
        <time>2019-06-09T12:59:55+02:00</time>
      </trkpt>
      <trkpt lat="41.64026167" lon="2.11085667">
        <ele>275.0</ele>
        <time>2019-06-09T12:59:56+02:00</time>
      </trkpt>
      <trkpt lat="41.640193339999996" lon="2.11085667">
        <ele>275.0</ele>
        <time>2019-06-09T12:59:57+02:00</time>
      </trkpt>
      <trkpt lat="41.640074999999996" lon="2.1108350000000002">
        <ele>274.0</ele>
        <time>2019-06-09T12:59:58+02:00</time>
      </trkpt>
      <trkpt lat="41.64001" lon="2.110815">
        <ele>274.0</ele>
        <time>2019-06-09T12:59:59+02:00</time>
      </trkpt>
      <trkpt lat="41.639918339999994" lon="2.11083167">
        <ele>274.0</ele>
        <time>2019-06-09T13:00:00+02:00</time>
      </trkpt>
      <trkpt lat="41.63983167" lon="2.110848">
        <ele>274.0</ele>
        <time>2019-06-09T13:00:01+02:00</time>
      </trkpt>
      <trkpt lat="41.639754999999994" lon="2.1108803399999996">
        <ele>274.0</ele>
        <time>2019-06-09T13:00:02+02:00</time>
      </trkpt>
      <trkpt lat="41.639665" lon="2.11097167">
        <ele>274.0</ele>
        <time>2019-06-09T13:00:03+02:00</time>
      </trkpt>
      <trkpt lat="41.63958834" lon="2.111052">
        <ele>274.0</ele>
        <time>2019-06-09T13:00:04+02:00</time>
      </trkpt>
      <trkpt lat="41.639518339999995" lon="2.11113134">
        <ele>274.0</ele>
        <time>2019-06-09T13:00:05+02:00</time>
      </trkpt>
      <trkpt lat="41.639446670000005" lon="2.1112076699999998">
        <ele>274.0</ele>
        <time>2019-06-09T13:00:06+02:00</time>
      </trkpt>
      <trkpt lat="41.639354999999995" lon="2.1112876700000003">
        <ele>275.0</ele>
        <time>2019-06-09T13:00:07+02:00</time>
      </trkpt>
      <trkpt lat="41.63926834" lon="2.111343">
        <ele>275.0</ele>
        <time>2019-06-09T13:00:08+02:00</time>
      </trkpt>
      <trkpt lat="41.639196670000004" lon="2.1113216699999997">
        <ele>275.0</ele>
        <time>2019-06-09T13:00:09+02:00</time>
      </trkpt>
      <trkpt lat="41.63910333999999" lon="2.1113150000000003">
        <ele>275.0</ele>
        <time>2019-06-09T13:00:10+02:00</time>
      </trkpt>
      <trkpt lat="41.639015" lon="2.1113000000000004">
        <ele>275.0</ele>
        <time>2019-06-09T13:00:11+02:00</time>
      </trkpt>
      <trkpt lat="41.638935000000004" lon="2.11129">
        <ele>275.0</ele>
        <time>2019-06-09T13:00:12+02:00</time>
      </trkpt>
      <trkpt lat="41.638866670000006" lon="2.1112966699999998">
        <ele>275.0</ele>
        <time>2019-06-09T13:00:13+02:00</time>
      </trkpt>
      <trkpt lat="41.63879" lon="2.111317">
        <ele>275.0</ele>
        <time>2019-06-09T13:00:14+02:00</time>
      </trkpt>
      <trkpt lat="41.638726670000004" lon="2.11134967">
        <ele>275.0</ele>
        <time>2019-06-09T13:00:15+02:00</time>
      </trkpt>
      <trkpt lat="41.638686670000006" lon="2.11138234">
        <ele>276.0</ele>
        <time>2019-06-09T13:00:16+02:00</time>
      </trkpt>
      <trkpt lat="41.638670000000005" lon="2.1115483399999997">
        <ele>276.0</ele>
        <time>2019-06-09T13:00:17+02:00</time>
      </trkpt>
      <trkpt lat="41.63862667" lon="2.1116">
        <ele>276.0</ele>
        <time>2019-06-09T13:00:18+02:00</time>
      </trkpt>
      <trkpt lat="41.638578339999995" lon="2.11168167">
        <ele>277.0</ele>
        <time>2019-06-09T13:00:19+02:00</time>
      </trkpt>
      <trkpt lat="41.63854" lon="2.11173834">
        <ele>277.0</ele>
        <time>2019-06-09T13:00:20+02:00</time>
      </trkpt>
      <trkpt lat="41.63850334" lon="2.1117799999999995">
        <ele>277.0</ele>
        <time>2019-06-09T13:00:21+02:00</time>
      </trkpt>
      <trkpt lat="41.63849667000001" lon="2.11186834">
        <ele>278.0</ele>
        <time>2019-06-09T13:00:23+02:00</time>
      </trkpt>
      <trkpt lat="41.63856834" lon="2.1118699999999997">
        <ele>278.0</ele>
        <time>2019-06-09T13:00:26+02:00</time>
      </trkpt>
      <trkpt lat="41.638623339999995" lon="2.11186667">
        <ele>279.0</ele>
        <time>2019-06-09T13:00:28+02:00</time>
      </trkpt>
      <trkpt lat="41.6387" lon="2.11184667">
        <ele>279.0</ele>
        <time>2019-06-09T13:00:30+02:00</time>
      </trkpt>
      <trkpt lat="41.638755" lon="2.11183834">
        <ele>279.0</ele>
        <time>2019-06-09T13:00:31+02:00</time>
      </trkpt>
      <trkpt lat="41.63881167000001" lon="2.1118333399999996">
        <ele>279.0</ele>
        <time>2019-06-09T13:00:32+02:00</time>
      </trkpt>
      <trkpt lat="41.63915999999999" lon="2.11170167">
        <ele>280.0</ele>
        <time>2019-06-09T13:00:34+02:00</time>
      </trkpt>
      <trkpt lat="41.639224999999996" lon="2.11173834">
        <ele>280.0</ele>
        <time>2019-06-09T13:00:35+02:00</time>
      </trkpt>
      <trkpt lat="41.63933333999999" lon="2.111759">
        <ele>280.0</ele>
        <time>2019-06-09T13:00:36+02:00</time>
      </trkpt>
      <trkpt lat="41.63941833999999" lon="2.11177134">
        <ele>281.0</ele>
        <time>2019-06-09T13:00:37+02:00</time>
      </trkpt>
      <trkpt lat="41.63949000000001" lon="2.1117956700000002">
        <ele>281.0</ele>
        <time>2019-06-09T13:00:38+02:00</time>
      </trkpt>
      <trkpt lat="41.63954833999999" lon="2.1118166699999996">
        <ele>281.0</ele>
        <time>2019-06-09T13:00:39+02:00</time>
      </trkpt>
      <trkpt lat="41.63961834" lon="2.11183467">
        <ele>281.0</ele>
        <time>2019-06-09T13:00:40+02:00</time>
      </trkpt>
      <trkpt lat="41.63968667" lon="2.1118456699999997">
        <ele>281.0</ele>
        <time>2019-06-09T13:00:41+02:00</time>
      </trkpt>
      <trkpt lat="41.639745000000005" lon="2.111849">
        <ele>281.0</ele>
        <time>2019-06-09T13:00:42+02:00</time>
      </trkpt>
      <trkpt lat="41.63980167" lon="2.11185">
        <ele>282.0</ele>
        <time>2019-06-09T13:00:43+02:00</time>
      </trkpt>
      <trkpt lat="41.63985834" lon="2.11185167">
        <ele>282.0</ele>
        <time>2019-06-09T13:00:44+02:00</time>
      </trkpt>
      <trkpt lat="41.639923339999996" lon="2.1117966699999995">
        <ele>282.0</ele>
        <time>2019-06-09T13:00:45+02:00</time>
      </trkpt>
      <trkpt lat="41.639965000000004" lon="2.11176">
        <ele>282.0</ele>
        <time>2019-06-09T13:00:46+02:00</time>
      </trkpt>
      <trkpt lat="41.64003667" lon="2.11174234">
        <ele>282.0</ele>
        <time>2019-06-09T13:00:47+02:00</time>
      </trkpt>
      <trkpt lat="41.64010499999999" lon="2.11174334">
        <ele>282.0</ele>
        <time>2019-06-09T13:00:48+02:00</time>
      </trkpt>
      <trkpt lat="41.64016334" lon="2.1117466699999996">
        <ele>282.0</ele>
        <time>2019-06-09T13:00:49+02:00</time>
      </trkpt>
      <trkpt lat="41.640218340000004" lon="2.1117576700000003">
        <ele>282.0</ele>
        <time>2019-06-09T13:00:50+02:00</time>
      </trkpt>
      <trkpt lat="41.64028167" lon="2.11177134">
        <ele>282.0</ele>
        <time>2019-06-09T13:00:51+02:00</time>
      </trkpt>
      <trkpt lat="41.64045" lon="2.11183467">
        <ele>282.0</ele>
        <time>2019-06-09T13:00:52+02:00</time>
      </trkpt>
      <trkpt lat="41.64052834" lon="2.11186334">
        <ele>282.0</ele>
        <time>2019-06-09T13:00:53+02:00</time>
      </trkpt>
      <trkpt lat="41.64061834" lon="2.1118716699999998">
        <ele>282.0</ele>
        <time>2019-06-09T13:00:54+02:00</time>
      </trkpt>
      <trkpt lat="41.64073" lon="2.111876">
        <ele>282.0</ele>
        <time>2019-06-09T13:00:55+02:00</time>
      </trkpt>
      <trkpt lat="41.640795" lon="2.1118786700000003">
        <ele>282.0</ele>
        <time>2019-06-09T13:00:56+02:00</time>
      </trkpt>
      <trkpt lat="41.640845" lon="2.1118863400000003">
        <ele>282.0</ele>
        <time>2019-06-09T13:00:57+02:00</time>
      </trkpt>
      <trkpt lat="41.64090667000001" lon="2.1119066699999998">
        <ele>282.0</ele>
        <time>2019-06-09T13:00:58+02:00</time>
      </trkpt>
      <trkpt lat="41.64096167000001" lon="2.11200334">
        <ele>282.0</ele>
        <time>2019-06-09T13:00:59+02:00</time>
      </trkpt>
      <trkpt lat="41.641025" lon="2.1120433399999996">
        <ele>282.0</ele>
        <time>2019-06-09T13:01:00+02:00</time>
      </trkpt>
      <trkpt lat="41.64109667000001" lon="2.1120866699999996">
        <ele>282.0</ele>
        <time>2019-06-09T13:01:01+02:00</time>
      </trkpt>
      <trkpt lat="41.64118834" lon="2.1121256699999997">
        <ele>282.0</ele>
        <time>2019-06-09T13:01:02+02:00</time>
      </trkpt>
      <trkpt lat="41.64124167" lon="2.1121406699999996">
        <ele>283.0</ele>
        <time>2019-06-09T13:01:03+02:00</time>
      </trkpt>
      <trkpt lat="41.64128667" lon="2.11215434">
        <ele>283.0</ele>
        <time>2019-06-09T13:01:04+02:00</time>
      </trkpt>
      <trkpt lat="41.641343340000006" lon="2.1121776700000003">
        <ele>283.0</ele>
        <time>2019-06-09T13:01:05+02:00</time>
      </trkpt>
      <trkpt lat="41.64130999999999" lon="2.11222">
        <ele>283.0</ele>
        <time>2019-06-09T13:01:08+02:00</time>
      </trkpt>
      <trkpt lat="41.64125834" lon="2.1122383399999998">
        <ele>283.0</ele>
        <time>2019-06-09T13:01:09+02:00</time>
      </trkpt>
      <trkpt lat="41.641205" lon="2.112255">
        <ele>283.0</ele>
        <time>2019-06-09T13:01:10+02:00</time>
      </trkpt>
      <trkpt lat="41.64114500000001" lon="2.11227">
        <ele>283.0</ele>
        <time>2019-06-09T13:01:11+02:00</time>
      </trkpt>
      <trkpt lat="41.64108834" lon="2.11227">
        <ele>283.0</ele>
        <time>2019-06-09T13:01:12+02:00</time>
      </trkpt>
      <trkpt lat="41.641014999999996" lon="2.11226667">
        <ele>283.0</ele>
        <time>2019-06-09T13:01:13+02:00</time>
      </trkpt>
      <trkpt lat="41.64094333999999" lon="2.1122616699999996">
        <ele>283.0</ele>
        <time>2019-06-09T13:01:14+02:00</time>
      </trkpt>
      <trkpt lat="41.64084167000001" lon="2.112295">
        <ele>283.0</ele>
        <time>2019-06-09T13:01:15+02:00</time>
      </trkpt>
      <trkpt lat="41.640805" lon="2.1123450000000004">
        <ele>283.0</ele>
        <time>2019-06-09T13:01:16+02:00</time>
      </trkpt>
      <trkpt lat="41.64073334" lon="2.1123629999999998">
        <ele>283.0</ele>
        <time>2019-06-09T13:01:17+02:00</time>
      </trkpt>
      <trkpt lat="41.64058167" lon="2.11245867">
        <ele>283.0</ele>
        <time>2019-06-09T13:01:18+02:00</time>
      </trkpt>
      <trkpt lat="41.64049833999999" lon="2.11253134">
        <ele>283.0</ele>
        <time>2019-06-09T13:01:19+02:00</time>
      </trkpt>
      <trkpt lat="41.64043167000001" lon="2.11257034">
        <ele>283.0</ele>
        <time>2019-06-09T13:01:20+02:00</time>
      </trkpt>
      <trkpt lat="41.64036" lon="2.1125976700000004">
        <ele>283.0</ele>
        <time>2019-06-09T13:01:21+02:00</time>
      </trkpt>
      <trkpt lat="41.64025834" lon="2.1126276699999997">
        <ele>283.0</ele>
        <time>2019-06-09T13:01:22+02:00</time>
      </trkpt>
      <trkpt lat="41.64015499999999" lon="2.1126463400000004">
        <ele>283.0</ele>
        <time>2019-06-09T13:01:23+02:00</time>
      </trkpt>
      <trkpt lat="41.64005667" lon="2.11266034">
        <ele>283.0</ele>
        <time>2019-06-09T13:01:24+02:00</time>
      </trkpt>
      <trkpt lat="41.63996" lon="2.112674">
        <ele>283.0</ele>
        <time>2019-06-09T13:01:25+02:00</time>
      </trkpt>
      <trkpt lat="41.63987" lon="2.1126966699999996">
        <ele>283.0</ele>
        <time>2019-06-09T13:01:26+02:00</time>
      </trkpt>
      <trkpt lat="41.639815" lon="2.1127126699999996">
        <ele>284.0</ele>
        <time>2019-06-09T13:01:27+02:00</time>
      </trkpt>
      <trkpt lat="41.63973167" lon="2.1127483399999996">
        <ele>284.0</ele>
        <time>2019-06-09T13:01:28+02:00</time>
      </trkpt>
      <trkpt lat="41.63966834" lon="2.11278467">
        <ele>284.0</ele>
        <time>2019-06-09T13:01:29+02:00</time>
      </trkpt>
      <trkpt lat="41.63961334" lon="2.11282067">
        <ele>284.0</ele>
        <time>2019-06-09T13:01:30+02:00</time>
      </trkpt>
      <trkpt lat="41.63956" lon="2.11286">
        <ele>284.0</ele>
        <time>2019-06-09T13:01:31+02:00</time>
      </trkpt>
      <trkpt lat="41.63950999999999" lon="2.112897">
        <ele>284.0</ele>
        <time>2019-06-09T13:01:32+02:00</time>
      </trkpt>
      <trkpt lat="41.63946667000001" lon="2.11292967">
        <ele>284.0</ele>
        <time>2019-06-09T13:01:33+02:00</time>
      </trkpt>
      <trkpt lat="41.63940834" lon="2.1129653399999997">
        <ele>284.0</ele>
        <time>2019-06-09T13:01:35+02:00</time>
      </trkpt>
      <trkpt lat="41.63936167" lon="2.11298967">
        <ele>284.0</ele>
        <time>2019-06-09T13:01:36+02:00</time>
      </trkpt>
      <trkpt lat="41.63929667000001" lon="2.11302334">
        <ele>284.0</ele>
        <time>2019-06-09T13:01:38+02:00</time>
      </trkpt>
      <trkpt lat="41.63921834" lon="2.1130590000000002">
        <ele>284.0</ele>
        <time>2019-06-09T13:01:40+02:00</time>
      </trkpt>
      <trkpt lat="41.639134999999996" lon="2.113093">
        <ele>283.0</ele>
        <time>2019-06-09T13:01:42+02:00</time>
      </trkpt>
      <trkpt lat="41.63905334" lon="2.1131243399999997">
        <ele>283.0</ele>
        <time>2019-06-09T13:01:44+02:00</time>
      </trkpt>
      <trkpt lat="41.638968340000005" lon="2.1131533399999998">
        <ele>282.0</ele>
        <time>2019-06-09T13:01:46+02:00</time>
      </trkpt>
      <trkpt lat="41.638888339999994" lon="2.1131783399999997">
        <ele>282.0</ele>
        <time>2019-06-09T13:01:48+02:00</time>
      </trkpt>
      <trkpt lat="41.638808340000004" lon="2.113203339999999">
        <ele>281.0</ele>
        <time>2019-06-09T13:01:50+02:00</time>
      </trkpt>
      <trkpt lat="41.638738339999996" lon="2.1132223399999996">
        <ele>281.0</ele>
        <time>2019-06-09T13:01:52+02:00</time>
      </trkpt>
      <trkpt lat="41.63867667000001" lon="2.1132370000000003">
        <ele>281.0</ele>
        <time>2019-06-09T13:01:54+02:00</time>
      </trkpt>
      <trkpt lat="41.63862" lon="2.11324867">
        <ele>280.0</ele>
        <time>2019-06-09T13:01:56+02:00</time>
      </trkpt>
      <trkpt lat="41.63857" lon="2.11325267">
        <ele>279.0</ele>
        <time>2019-06-09T13:01:58+02:00</time>
      </trkpt>
      <trkpt lat="41.63851667000001" lon="2.11326067">
        <ele>279.0</ele>
        <time>2019-06-09T13:02:00+02:00</time>
      </trkpt>
      <trkpt lat="41.63845834" lon="2.1132656699999997">
        <ele>278.0</ele>
        <time>2019-06-09T13:02:02+02:00</time>
      </trkpt>
      <trkpt lat="41.63839" lon="2.1132730000000004">
        <ele>278.0</ele>
        <time>2019-06-09T13:02:04+02:00</time>
      </trkpt>
      <trkpt lat="41.63831334" lon="2.1132870000000006">
        <ele>277.0</ele>
        <time>2019-06-09T13:02:06+02:00</time>
      </trkpt>
      <trkpt lat="41.63822834" lon="2.11329867">
        <ele>276.0</ele>
        <time>2019-06-09T13:02:08+02:00</time>
      </trkpt>
      <trkpt lat="41.638183340000005" lon="2.11330567">
        <ele>276.0</ele>
        <time>2019-06-09T13:02:09+02:00</time>
      </trkpt>
      <trkpt lat="41.63813834" lon="2.1133083399999997">
        <ele>275.0</ele>
        <time>2019-06-09T13:02:10+02:00</time>
      </trkpt>
      <trkpt lat="41.63809500000001" lon="2.1133213399999997">
        <ele>275.0</ele>
        <time>2019-06-09T13:02:11+02:00</time>
      </trkpt>
      <trkpt lat="41.63805334" lon="2.1133290000000002">
        <ele>274.0</ele>
        <time>2019-06-09T13:02:12+02:00</time>
      </trkpt>
      <trkpt lat="41.63800834" lon="2.1133599999999992">
        <ele>274.0</ele>
        <time>2019-06-09T13:02:13+02:00</time>
      </trkpt>
      <trkpt lat="41.637975" lon="2.11340667">
        <ele>273.0</ele>
        <time>2019-06-09T13:02:14+02:00</time>
      </trkpt>
      <trkpt lat="41.63792500000001" lon="2.11347667">
        <ele>273.0</ele>
        <time>2019-06-09T13:02:15+02:00</time>
      </trkpt>
      <trkpt lat="41.63788834" lon="2.11354667">
        <ele>273.0</ele>
        <time>2019-06-09T13:02:16+02:00</time>
      </trkpt>
      <trkpt lat="41.63785834" lon="2.113625">
        <ele>272.0</ele>
        <time>2019-06-09T13:02:17+02:00</time>
      </trkpt>
      <trkpt lat="41.63782499999999" lon="2.113715">
        <ele>272.0</ele>
        <time>2019-06-09T13:02:18+02:00</time>
      </trkpt>
      <trkpt lat="41.637795" lon="2.1138066699999998">
        <ele>272.0</ele>
        <time>2019-06-09T13:02:19+02:00</time>
      </trkpt>
      <trkpt lat="41.63777167" lon="2.1138766700000002">
        <ele>272.0</ele>
        <time>2019-06-09T13:02:20+02:00</time>
      </trkpt>
      <trkpt lat="41.63772999999999" lon="2.1139733399999994">
        <ele>271.0</ele>
        <time>2019-06-09T13:02:21+02:00</time>
      </trkpt>
      <trkpt lat="41.637692339999994" lon="2.1140333399999998">
        <ele>271.0</ele>
        <time>2019-06-09T13:02:22+02:00</time>
      </trkpt>
      <trkpt lat="41.63765099999999" lon="2.11407834">
        <ele>271.0</ele>
        <time>2019-06-09T13:02:23+02:00</time>
      </trkpt>
      <trkpt lat="41.637611" lon="2.1141066700000004">
        <ele>270.0</ele>
        <time>2019-06-09T13:02:24+02:00</time>
      </trkpt>
      <trkpt lat="41.63753" lon="2.1141216699999994">
        <ele>270.0</ele>
        <time>2019-06-09T13:02:25+02:00</time>
      </trkpt>
      <trkpt lat="41.63748334" lon="2.1141216699999994">
        <ele>270.0</ele>
        <time>2019-06-09T13:02:26+02:00</time>
      </trkpt>
      <trkpt lat="41.63741667000001" lon="2.1141366699999997">
        <ele>270.0</ele>
        <time>2019-06-09T13:02:27+02:00</time>
      </trkpt>
      <trkpt lat="41.637358340000006" lon="2.11415667">
        <ele>270.0</ele>
        <time>2019-06-09T13:02:28+02:00</time>
      </trkpt>
      <trkpt lat="41.637296670000005" lon="2.11418134">
        <ele>269.0</ele>
        <time>2019-06-09T13:02:29+02:00</time>
      </trkpt>
      <trkpt lat="41.637235" lon="2.1142120000000006">
        <ele>269.0</ele>
        <time>2019-06-09T13:02:30+02:00</time>
      </trkpt>
      <trkpt lat="41.637175000000006" lon="2.1142519999999996">
        <ele>269.0</ele>
        <time>2019-06-09T13:02:31+02:00</time>
      </trkpt>
      <trkpt lat="41.63712" lon="2.1143006699999995">
        <ele>269.0</ele>
        <time>2019-06-09T13:02:32+02:00</time>
      </trkpt>
      <trkpt lat="41.637026670000004" lon="2.1143923399999998">
        <ele>269.0</ele>
        <time>2019-06-09T13:02:33+02:00</time>
      </trkpt>
      <trkpt lat="41.636979999999994" lon="2.1144600000000002">
        <ele>269.0</ele>
        <time>2019-06-09T13:02:34+02:00</time>
      </trkpt>
      <trkpt lat="41.63694" lon="2.11457667">
        <ele>268.0</ele>
        <time>2019-06-09T13:02:35+02:00</time>
      </trkpt>
      <trkpt lat="41.63689834" lon="2.114655">
        <ele>268.0</ele>
        <time>2019-06-09T13:02:36+02:00</time>
      </trkpt>
      <trkpt lat="41.63686500000001" lon="2.1147583399999994">
        <ele>268.0</ele>
        <time>2019-06-09T13:02:37+02:00</time>
      </trkpt>
      <trkpt lat="41.636825" lon="2.1148633400000003">
        <ele>268.0</ele>
        <time>2019-06-09T13:02:38+02:00</time>
      </trkpt>
      <trkpt lat="41.636779" lon="2.11495667">
        <ele>267.0</ele>
        <time>2019-06-09T13:02:39+02:00</time>
      </trkpt>
      <trkpt lat="41.63672866999999" lon="2.115045">
        <ele>267.0</ele>
        <time>2019-06-09T13:02:40+02:00</time>
      </trkpt>
      <trkpt lat="41.63667334" lon="2.1151299999999997">
        <ele>267.0</ele>
        <time>2019-06-09T13:02:41+02:00</time>
      </trkpt>
      <trkpt lat="41.636612670000005" lon="2.11522167">
        <ele>267.0</ele>
        <time>2019-06-09T13:02:42+02:00</time>
      </trkpt>
      <trkpt lat="41.63655167" lon="2.115315">
        <ele>267.0</ele>
        <time>2019-06-09T13:02:43+02:00</time>
      </trkpt>
      <trkpt lat="41.63649100000001" lon="2.11541">
        <ele>267.0</ele>
        <time>2019-06-09T13:02:44+02:00</time>
      </trkpt>
      <trkpt lat="41.63642234" lon="2.1155166700000003">
        <ele>266.0</ele>
        <time>2019-06-09T13:02:45+02:00</time>
      </trkpt>
      <trkpt lat="41.63636067" lon="2.11561834">
        <ele>266.0</ele>
        <time>2019-06-09T13:02:46+02:00</time>
      </trkpt>
      <trkpt lat="41.63629933999999" lon="2.11572667">
        <ele>266.0</ele>
        <time>2019-06-09T13:02:47+02:00</time>
      </trkpt>
      <trkpt lat="41.63624134" lon="2.11583834">
        <ele>266.0</ele>
        <time>2019-06-09T13:02:48+02:00</time>
      </trkpt>
      <trkpt lat="41.63618934" lon="2.11594334">
        <ele>266.0</ele>
        <time>2019-06-09T13:02:49+02:00</time>
      </trkpt>
      <trkpt lat="41.63614167000001" lon="2.11603667">
        <ele>266.0</ele>
        <time>2019-06-09T13:02:50+02:00</time>
      </trkpt>
      <trkpt lat="41.636093" lon="2.116121669999999">
        <ele>266.0</ele>
        <time>2019-06-09T13:02:51+02:00</time>
      </trkpt>
      <trkpt lat="41.636037339999994" lon="2.1162">
        <ele>266.0</ele>
        <time>2019-06-09T13:02:52+02:00</time>
      </trkpt>
      <trkpt lat="41.63591834" lon="2.1162799999999997">
        <ele>266.0</ele>
        <time>2019-06-09T13:02:53+02:00</time>
      </trkpt>
      <trkpt lat="41.635841670000005" lon="2.1163499999999997">
        <ele>266.0</ele>
        <time>2019-06-09T13:02:54+02:00</time>
      </trkpt>
      <trkpt lat="41.63575999999999" lon="2.1164049999999994">
        <ele>266.0</ele>
        <time>2019-06-09T13:02:55+02:00</time>
      </trkpt>
      <trkpt lat="41.63568334" lon="2.1164326699999996">
        <ele>265.0</ele>
        <time>2019-06-09T13:02:56+02:00</time>
      </trkpt>
      <trkpt lat="41.63560167000001" lon="2.1164166699999996">
        <ele>265.0</ele>
        <time>2019-06-09T13:02:57+02:00</time>
      </trkpt>
      <trkpt lat="41.63551667" lon="2.1163833399999996">
        <ele>265.0</ele>
        <time>2019-06-09T13:02:58+02:00</time>
      </trkpt>
      <trkpt lat="41.63544167000001" lon="2.11631667">
        <ele>265.0</ele>
        <time>2019-06-09T13:02:59+02:00</time>
      </trkpt>
      <trkpt lat="41.63539333999999" lon="2.1162466699999998">
        <ele>265.0</ele>
        <time>2019-06-09T13:03:00+02:00</time>
      </trkpt>
      <trkpt lat="41.635326670000005" lon="2.11612">
        <ele>265.0</ele>
        <time>2019-06-09T13:03:01+02:00</time>
      </trkpt>
      <trkpt lat="41.635273340000005" lon="2.1160099999999997">
        <ele>264.0</ele>
        <time>2019-06-09T13:03:02+02:00</time>
      </trkpt>
      <trkpt lat="41.635196670000006" lon="2.1158416699999996">
        <ele>264.0</ele>
        <time>2019-06-09T13:03:03+02:00</time>
      </trkpt>
      <trkpt lat="41.63513334" lon="2.11576334">
        <ele>264.0</ele>
        <time>2019-06-09T13:03:04+02:00</time>
      </trkpt>
      <trkpt lat="41.635016670000006" lon="2.1157473399999995">
        <ele>264.0</ele>
        <time>2019-06-09T13:03:05+02:00</time>
      </trkpt>
      <trkpt lat="41.63491834" lon="2.1157066700000002">
        <ele>264.0</ele>
        <time>2019-06-09T13:03:06+02:00</time>
      </trkpt>
      <trkpt lat="41.63482667" lon="2.11565667">
        <ele>264.0</ele>
        <time>2019-06-09T13:03:07+02:00</time>
      </trkpt>
      <trkpt lat="41.634741670000004" lon="2.115598">
        <ele>264.0</ele>
        <time>2019-06-09T13:03:08+02:00</time>
      </trkpt>
      <trkpt lat="41.634665000000005" lon="2.1155323400000006">
        <ele>264.0</ele>
        <time>2019-06-09T13:03:09+02:00</time>
      </trkpt>
      <trkpt lat="41.63459334" lon="2.1154640000000002">
        <ele>263.0</ele>
        <time>2019-06-09T13:03:10+02:00</time>
      </trkpt>
      <trkpt lat="41.634521670000005" lon="2.11540134">
        <ele>263.0</ele>
        <time>2019-06-09T13:03:11+02:00</time>
      </trkpt>
      <trkpt lat="41.63446167" lon="2.1153606699999994">
        <ele>263.0</ele>
        <time>2019-06-09T13:03:12+02:00</time>
      </trkpt>
      <trkpt lat="41.63441334" lon="2.11534267">
        <ele>263.0</ele>
        <time>2019-06-09T13:03:13+02:00</time>
      </trkpt>
      <trkpt lat="41.634384999999995" lon="2.1154433399999997">
        <ele>263.0</ele>
        <time>2019-06-09T13:03:14+02:00</time>
      </trkpt>
      <trkpt lat="41.63431834" lon="2.11559667">
        <ele>263.0</ele>
        <time>2019-06-09T13:03:15+02:00</time>
      </trkpt>
      <trkpt lat="41.63436334" lon="2.1156750000000004">
        <ele>263.0</ele>
        <time>2019-06-09T13:03:16+02:00</time>
      </trkpt>
      <trkpt lat="41.63437334" lon="2.1157483399999997">
        <ele>263.0</ele>
        <time>2019-06-09T13:03:17+02:00</time>
      </trkpt>
      <trkpt lat="41.63438334000001" lon="2.11583834">
        <ele>263.0</ele>
        <time>2019-06-09T13:03:18+02:00</time>
      </trkpt>
      <trkpt lat="41.63439167" lon="2.1159216699999996">
        <ele>263.0</ele>
        <time>2019-06-09T13:03:19+02:00</time>
      </trkpt>
      <trkpt lat="41.634409999999995" lon="2.1160083399999996">
        <ele>263.0</ele>
        <time>2019-06-09T13:03:20+02:00</time>
      </trkpt>
      <trkpt lat="41.63441167" lon="2.116105">
        <ele>263.0</ele>
        <time>2019-06-09T13:03:21+02:00</time>
      </trkpt>
      <trkpt lat="41.63440667000001" lon="2.1162016699999997">
        <ele>263.0</ele>
        <time>2019-06-09T13:03:22+02:00</time>
      </trkpt>
      <trkpt lat="41.63439367000001" lon="2.116295">
        <ele>263.0</ele>
        <time>2019-06-09T13:03:23+02:00</time>
      </trkpt>
      <trkpt lat="41.63438033999999" lon="2.1163833399999996">
        <ele>263.0</ele>
        <time>2019-06-09T13:03:24+02:00</time>
      </trkpt>
      <trkpt lat="41.63435667" lon="2.11646667">
        <ele>263.0</ele>
        <time>2019-06-09T13:03:25+02:00</time>
      </trkpt>
      <trkpt lat="41.63432567000001" lon="2.1165383400000004">
        <ele>263.0</ele>
        <time>2019-06-09T13:03:26+02:00</time>
      </trkpt>
      <trkpt lat="41.634287670000006" lon="2.11659667">
        <ele>263.0</ele>
        <time>2019-06-09T13:03:27+02:00</time>
      </trkpt>
      <trkpt lat="41.634175000000006" lon="2.1166066700000004">
        <ele>263.0</ele>
        <time>2019-06-09T13:03:28+02:00</time>
      </trkpt>
      <trkpt lat="41.63410834" lon="2.11667">
        <ele>263.0</ele>
        <time>2019-06-09T13:03:29+02:00</time>
      </trkpt>
      <trkpt lat="41.634065" lon="2.1167400000000005">
        <ele>263.0</ele>
        <time>2019-06-09T13:03:30+02:00</time>
      </trkpt>
      <trkpt lat="41.63400834" lon="2.11680167">
        <ele>263.0</ele>
        <time>2019-06-09T13:03:31+02:00</time>
      </trkpt>
      <trkpt lat="41.633940339999995" lon="2.1168716699999997">
        <ele>263.0</ele>
        <time>2019-06-09T13:03:32+02:00</time>
      </trkpt>
      <trkpt lat="41.63386834" lon="2.1169400000000005">
        <ele>263.0</ele>
        <time>2019-06-09T13:03:33+02:00</time>
      </trkpt>
      <trkpt lat="41.6338" lon="2.117023">
        <ele>263.0</ele>
        <time>2019-06-09T13:03:34+02:00</time>
      </trkpt>
      <trkpt lat="41.633734999999994" lon="2.1171099999999994">
        <ele>263.0</ele>
        <time>2019-06-09T13:03:35+02:00</time>
      </trkpt>
      <trkpt lat="41.63368167" lon="2.1172116699999997">
        <ele>263.0</ele>
        <time>2019-06-09T13:03:36+02:00</time>
      </trkpt>
      <trkpt lat="41.63363034" lon="2.1173049999999995">
        <ele>263.0</ele>
        <time>2019-06-09T13:03:37+02:00</time>
      </trkpt>
      <trkpt lat="41.633582000000004" lon="2.1173816699999994">
        <ele>263.0</ele>
        <time>2019-06-09T13:03:38+02:00</time>
      </trkpt>
      <trkpt lat="41.63351167" lon="2.1174299999999997">
        <ele>263.0</ele>
        <time>2019-06-09T13:03:39+02:00</time>
      </trkpt>
      <trkpt lat="41.63344" lon="2.1174633399999996">
        <ele>263.0</ele>
        <time>2019-06-09T13:03:40+02:00</time>
      </trkpt>
      <trkpt lat="41.633363339999995" lon="2.1174933400000002">
        <ele>263.0</ele>
        <time>2019-06-09T13:03:41+02:00</time>
      </trkpt>
      <trkpt lat="41.63328667" lon="2.11754467">
        <ele>263.0</ele>
        <time>2019-06-09T13:03:42+02:00</time>
      </trkpt>
      <trkpt lat="41.63322" lon="2.1176043399999998">
        <ele>263.0</ele>
        <time>2019-06-09T13:03:43+02:00</time>
      </trkpt>
      <trkpt lat="41.63316667000001" lon="2.1176709999999996">
        <ele>263.0</ele>
        <time>2019-06-09T13:03:44+02:00</time>
      </trkpt>
      <trkpt lat="41.633125" lon="2.1177460000000004">
        <ele>263.0</ele>
        <time>2019-06-09T13:03:45+02:00</time>
      </trkpt>
      <trkpt lat="41.63309" lon="2.11788167">
        <ele>263.0</ele>
        <time>2019-06-09T13:03:46+02:00</time>
      </trkpt>
      <trkpt lat="41.63307" lon="2.11798834">
        <ele>263.0</ele>
        <time>2019-06-09T13:03:47+02:00</time>
      </trkpt>
      <trkpt lat="41.63305167" lon="2.1181">
        <ele>263.0</ele>
        <time>2019-06-09T13:03:48+02:00</time>
      </trkpt>
      <trkpt lat="41.633033340000004" lon="2.1182133399999996">
        <ele>263.0</ele>
        <time>2019-06-09T13:03:49+02:00</time>
      </trkpt>
      <trkpt lat="41.63301700000001" lon="2.11832334">
        <ele>263.0</ele>
        <time>2019-06-09T13:03:50+02:00</time>
      </trkpt>
      <trkpt lat="41.63299467" lon="2.1184333399999997">
        <ele>263.0</ele>
        <time>2019-06-09T13:03:51+02:00</time>
      </trkpt>
      <trkpt lat="41.63296533999999" lon="2.118545">
        <ele>263.0</ele>
        <time>2019-06-09T13:03:52+02:00</time>
      </trkpt>
      <trkpt lat="41.632938339999995" lon="2.1186583399999996">
        <ele>263.0</ele>
        <time>2019-06-09T13:03:53+02:00</time>
      </trkpt>
      <trkpt lat="41.63291234" lon="2.1187599999999995">
        <ele>263.0</ele>
        <time>2019-06-09T13:03:54+02:00</time>
      </trkpt>
      <trkpt lat="41.63288767" lon="2.11886667">
        <ele>262.0</ele>
        <time>2019-06-09T13:03:55+02:00</time>
      </trkpt>
      <trkpt lat="41.63286333999999" lon="2.11897">
        <ele>262.0</ele>
        <time>2019-06-09T13:03:56+02:00</time>
      </trkpt>
      <trkpt lat="41.632835670000006" lon="2.11906167">
        <ele>262.0</ele>
        <time>2019-06-09T13:03:57+02:00</time>
      </trkpt>
      <trkpt lat="41.63280667000001" lon="2.11913834">
        <ele>262.0</ele>
        <time>2019-06-09T13:03:58+02:00</time>
      </trkpt>
      <trkpt lat="41.632768999999996" lon="2.11920167">
        <ele>261.0</ele>
        <time>2019-06-09T13:03:59+02:00</time>
      </trkpt>
      <trkpt lat="41.632645000000004" lon="2.11924167">
        <ele>261.0</ele>
        <time>2019-06-09T13:04:00+02:00</time>
      </trkpt>
      <trkpt lat="41.632571670000004" lon="2.119255">
        <ele>261.0</ele>
        <time>2019-06-09T13:04:01+02:00</time>
      </trkpt>
      <trkpt lat="41.6325" lon="2.1192466699999994">
        <ele>261.0</ele>
        <time>2019-06-09T13:04:02+02:00</time>
      </trkpt>
      <trkpt lat="41.63241334000001" lon="2.11914167">
        <ele>261.0</ele>
        <time>2019-06-09T13:04:03+02:00</time>
      </trkpt>
      <trkpt lat="41.632346670000004" lon="2.11909667">
        <ele>260.0</ele>
        <time>2019-06-09T13:04:04+02:00</time>
      </trkpt>
      <trkpt lat="41.63228499999999" lon="2.1190666699999996">
        <ele>260.0</ele>
        <time>2019-06-09T13:04:05+02:00</time>
      </trkpt>
      <trkpt lat="41.63219167000001" lon="2.119033339999999">
        <ele>260.0</ele>
        <time>2019-06-09T13:04:06+02:00</time>
      </trkpt>
      <trkpt lat="41.63211334" lon="2.1189916699999998">
        <ele>259.0</ele>
        <time>2019-06-09T13:04:07+02:00</time>
      </trkpt>
      <trkpt lat="41.63203667" lon="2.1189716699999996">
        <ele>259.0</ele>
        <time>2019-06-09T13:04:08+02:00</time>
      </trkpt>
      <trkpt lat="41.63195834" lon="2.1189709999999997">
        <ele>259.0</ele>
        <time>2019-06-09T13:04:09+02:00</time>
      </trkpt>
      <trkpt lat="41.631890000000006" lon="2.11899034">
        <ele>259.0</ele>
        <time>2019-06-09T13:04:10+02:00</time>
      </trkpt>
      <trkpt lat="41.63183667" lon="2.11901167">
        <ele>258.0</ele>
        <time>2019-06-09T13:04:11+02:00</time>
      </trkpt>
      <trkpt lat="41.631745" lon="2.119046">
        <ele>258.0</ele>
        <time>2019-06-09T13:04:12+02:00</time>
      </trkpt>
      <trkpt lat="41.63166667" lon="2.119071">
        <ele>258.0</ele>
        <time>2019-06-09T13:04:13+02:00</time>
      </trkpt>
      <trkpt lat="41.631591670000006" lon="2.1190806699999998">
        <ele>257.0</ele>
        <time>2019-06-09T13:04:14+02:00</time>
      </trkpt>
      <trkpt lat="41.63152167" lon="2.119076">
        <ele>257.0</ele>
        <time>2019-06-09T13:04:15+02:00</time>
      </trkpt>
      <trkpt lat="41.63145834" lon="2.11905634">
        <ele>257.0</ele>
        <time>2019-06-09T13:04:16+02:00</time>
      </trkpt>
      <trkpt lat="41.63140334" lon="2.11895834">
        <ele>257.0</ele>
        <time>2019-06-09T13:04:17+02:00</time>
      </trkpt>
      <trkpt lat="41.63131334" lon="2.11891167">
        <ele>257.0</ele>
        <time>2019-06-09T13:04:18+02:00</time>
      </trkpt>
      <trkpt lat="41.631235" lon="2.118892">
        <ele>257.0</ele>
        <time>2019-06-09T13:04:19+02:00</time>
      </trkpt>
      <trkpt lat="41.631164999999996" lon="2.11889534">
        <ele>257.0</ele>
        <time>2019-06-09T13:04:20+02:00</time>
      </trkpt>
      <trkpt lat="41.631096670000005" lon="2.1189193399999993">
        <ele>257.0</ele>
        <time>2019-06-09T13:04:21+02:00</time>
      </trkpt>
      <trkpt lat="41.63103667" lon="2.1190016700000003">
        <ele>257.0</ele>
        <time>2019-06-09T13:04:22+02:00</time>
      </trkpt>
      <trkpt lat="41.63097667" lon="2.11907667">
        <ele>256.0</ele>
        <time>2019-06-09T13:04:23+02:00</time>
      </trkpt>
      <trkpt lat="41.63091167" lon="2.11914334">
        <ele>256.0</ele>
        <time>2019-06-09T13:04:24+02:00</time>
      </trkpt>
      <trkpt lat="41.63084334" lon="2.1191913399999995">
        <ele>256.0</ele>
        <time>2019-06-09T13:04:25+02:00</time>
      </trkpt>
      <trkpt lat="41.630765000000004" lon="2.11923667">
        <ele>256.0</ele>
        <time>2019-06-09T13:04:26+02:00</time>
      </trkpt>
      <trkpt lat="41.63068" lon="2.119275">
        <ele>256.0</ele>
        <time>2019-06-09T13:04:27+02:00</time>
      </trkpt>
      <trkpt lat="41.63059833999999" lon="2.11930534">
        <ele>255.0</ele>
        <time>2019-06-09T13:04:28+02:00</time>
      </trkpt>
      <trkpt lat="41.630514999999995" lon="2.11933067">
        <ele>255.0</ele>
        <time>2019-06-09T13:04:29+02:00</time>
      </trkpt>
      <trkpt lat="41.63043167000001" lon="2.11935567">
        <ele>255.0</ele>
        <time>2019-06-09T13:04:30+02:00</time>
      </trkpt>
      <trkpt lat="41.630340000000004" lon="2.1193779999999998">
        <ele>255.0</ele>
        <time>2019-06-09T13:04:31+02:00</time>
      </trkpt>
      <trkpt lat="41.63024" lon="2.11939434">
        <ele>254.0</ele>
        <time>2019-06-09T13:04:32+02:00</time>
      </trkpt>
      <trkpt lat="41.630138339999995" lon="2.11940134">
        <ele>254.0</ele>
        <time>2019-06-09T13:04:33+02:00</time>
      </trkpt>
      <trkpt lat="41.630036669999996" lon="2.1194026700000004">
        <ele>254.0</ele>
        <time>2019-06-09T13:04:34+02:00</time>
      </trkpt>
      <trkpt lat="41.629934999999996" lon="2.1194046699999998">
        <ele>253.0</ele>
        <time>2019-06-09T13:04:35+02:00</time>
      </trkpt>
      <trkpt lat="41.629845" lon="2.1194170000000003">
        <ele>253.0</ele>
        <time>2019-06-09T13:04:36+02:00</time>
      </trkpt>
      <trkpt lat="41.62976833999999" lon="2.11943834">
        <ele>253.0</ele>
        <time>2019-06-09T13:04:37+02:00</time>
      </trkpt>
      <trkpt lat="41.62970334" lon="2.11946834">
        <ele>253.0</ele>
        <time>2019-06-09T13:04:38+02:00</time>
      </trkpt>
      <trkpt lat="41.629645" lon="2.11960167">
        <ele>252.0</ele>
        <time>2019-06-09T13:04:39+02:00</time>
      </trkpt>
      <trkpt lat="41.629598339999994" lon="2.11968">
        <ele>252.0</ele>
        <time>2019-06-09T13:04:40+02:00</time>
      </trkpt>
      <trkpt lat="41.62954499999999" lon="2.1197433400000003">
        <ele>252.0</ele>
        <time>2019-06-09T13:04:41+02:00</time>
      </trkpt>
      <trkpt lat="41.629485" lon="2.1197933399999997">
        <ele>252.0</ele>
        <time>2019-06-09T13:04:42+02:00</time>
      </trkpt>
      <trkpt lat="41.62941667000001" lon="2.11982534">
        <ele>251.0</ele>
        <time>2019-06-09T13:04:43+02:00</time>
      </trkpt>
      <trkpt lat="41.629349999999995" lon="2.1198273399999996">
        <ele>251.0</ele>
        <time>2019-06-09T13:04:44+02:00</time>
      </trkpt>
      <trkpt lat="41.629295" lon="2.11975">
        <ele>251.0</ele>
        <time>2019-06-09T13:04:45+02:00</time>
      </trkpt>
      <trkpt lat="41.629178339999996" lon="2.119675">
        <ele>250.0</ele>
        <time>2019-06-09T13:04:46+02:00</time>
      </trkpt>
      <trkpt lat="41.62914500000001" lon="2.11961834">
        <ele>250.0</ele>
        <time>2019-06-09T13:04:47+02:00</time>
      </trkpt>
      <trkpt lat="41.629084999999996" lon="2.11956">
        <ele>250.0</ele>
        <time>2019-06-09T13:04:48+02:00</time>
      </trkpt>
      <trkpt lat="41.62902834" lon="2.1195216699999997">
        <ele>249.0</ele>
        <time>2019-06-09T13:04:49+02:00</time>
      </trkpt>
      <trkpt lat="41.628969999999995" lon="2.1195013400000002">
        <ele>249.0</ele>
        <time>2019-06-09T13:04:50+02:00</time>
      </trkpt>
      <trkpt lat="41.628908339999995" lon="2.11949934">
        <ele>249.0</ele>
        <time>2019-06-09T13:04:51+02:00</time>
      </trkpt>
      <trkpt lat="41.628834999999995" lon="2.1195233399999998">
        <ele>249.0</ele>
        <time>2019-06-09T13:04:52+02:00</time>
      </trkpt>
      <trkpt lat="41.628771670000006" lon="2.11956567">
        <ele>248.0</ele>
        <time>2019-06-09T13:04:53+02:00</time>
      </trkpt>
      <trkpt lat="41.628721670000004" lon="2.11969">
        <ele>248.0</ele>
        <time>2019-06-09T13:04:54+02:00</time>
      </trkpt>
      <trkpt lat="41.628654999999995" lon="2.11976334">
        <ele>248.0</ele>
        <time>2019-06-09T13:04:55+02:00</time>
      </trkpt>
      <trkpt lat="41.62857834" lon="2.1198249999999996">
        <ele>248.0</ele>
        <time>2019-06-09T13:04:56+02:00</time>
      </trkpt>
      <trkpt lat="41.62851167" lon="2.1199033399999996">
        <ele>248.0</ele>
        <time>2019-06-09T13:04:57+02:00</time>
      </trkpt>
      <trkpt lat="41.62844" lon="2.119975">
        <ele>247.0</ele>
        <time>2019-06-09T13:04:58+02:00</time>
      </trkpt>
      <trkpt lat="41.62836166999999" lon="2.1200496699999998">
        <ele>247.0</ele>
        <time>2019-06-09T13:04:59+02:00</time>
      </trkpt>
      <trkpt lat="41.628278339999994" lon="2.12011567">
        <ele>247.0</ele>
        <time>2019-06-09T13:05:00+02:00</time>
      </trkpt>
      <trkpt lat="41.628186670000005" lon="2.1201666699999997">
        <ele>246.0</ele>
        <time>2019-06-09T13:05:01+02:00</time>
      </trkpt>
      <trkpt lat="41.62809" lon="2.12020667">
        <ele>246.0</ele>
        <time>2019-06-09T13:05:02+02:00</time>
      </trkpt>
      <trkpt lat="41.62799667000001" lon="2.120223">
        <ele>246.0</ele>
        <time>2019-06-09T13:05:03+02:00</time>
      </trkpt>
      <trkpt lat="41.62791334" lon="2.120218">
        <ele>245.0</ele>
        <time>2019-06-09T13:05:04+02:00</time>
      </trkpt>
      <trkpt lat="41.62784334" lon="2.1201133399999996">
        <ele>245.0</ele>
        <time>2019-06-09T13:05:05+02:00</time>
      </trkpt>
      <trkpt lat="41.627788339999995" lon="2.12003167">
        <ele>244.0</ele>
        <time>2019-06-09T13:05:06+02:00</time>
      </trkpt>
      <trkpt lat="41.62773167" lon="2.11984">
        <ele>244.0</ele>
        <time>2019-06-09T13:05:07+02:00</time>
      </trkpt>
      <trkpt lat="41.627716670000005" lon="2.11969334">
        <ele>243.0</ele>
        <time>2019-06-09T13:05:08+02:00</time>
      </trkpt>
      <trkpt lat="41.62771167000001" lon="2.11956834">
        <ele>243.0</ele>
        <time>2019-06-09T13:05:09+02:00</time>
      </trkpt>
      <trkpt lat="41.627698339999995" lon="2.1194583399999996">
        <ele>243.0</ele>
        <time>2019-06-09T13:05:10+02:00</time>
      </trkpt>
      <trkpt lat="41.62766667000001" lon="2.11935834">
        <ele>242.0</ele>
        <time>2019-06-09T13:05:11+02:00</time>
      </trkpt>
      <trkpt lat="41.62762033999999" lon="2.119275">
        <ele>242.0</ele>
        <time>2019-06-09T13:05:12+02:00</time>
      </trkpt>
      <trkpt lat="41.627565000000004" lon="2.11920667">
        <ele>242.0</ele>
        <time>2019-06-09T13:05:13+02:00</time>
      </trkpt>
      <trkpt lat="41.627478339999996" lon="2.1191566699999997">
        <ele>242.0</ele>
        <time>2019-06-09T13:05:14+02:00</time>
      </trkpt>
      <trkpt lat="41.62739500000001" lon="2.1191216699999993">
        <ele>241.0</ele>
        <time>2019-06-09T13:05:15+02:00</time>
      </trkpt>
      <trkpt lat="41.62730667000001" lon="2.1191050000000002">
        <ele>241.0</ele>
        <time>2019-06-09T13:05:16+02:00</time>
      </trkpt>
      <trkpt lat="41.62721834" lon="2.1190950000000006">
        <ele>241.0</ele>
        <time>2019-06-09T13:05:17+02:00</time>
      </trkpt>
      <trkpt lat="41.62713167" lon="2.11908834">
        <ele>240.0</ele>
        <time>2019-06-09T13:05:18+02:00</time>
      </trkpt>
      <trkpt lat="41.627041670000004" lon="2.1191050000000002">
        <ele>240.0</ele>
        <time>2019-06-09T13:05:19+02:00</time>
      </trkpt>
      <trkpt lat="41.626954999999995" lon="2.11912667">
        <ele>240.0</ele>
        <time>2019-06-09T13:05:20+02:00</time>
      </trkpt>
      <trkpt lat="41.62687334" lon="2.1191566699999997">
        <ele>240.0</ele>
        <time>2019-06-09T13:05:21+02:00</time>
      </trkpt>
      <trkpt lat="41.62679333999999" lon="2.11919667">
        <ele>240.0</ele>
        <time>2019-06-09T13:05:22+02:00</time>
      </trkpt>
      <trkpt lat="41.62671334" lon="2.11923167">
        <ele>239.0</ele>
        <time>2019-06-09T13:05:23+02:00</time>
      </trkpt>
      <trkpt lat="41.62663167000001" lon="2.1192450000000003">
        <ele>239.0</ele>
        <time>2019-06-09T13:05:24+02:00</time>
      </trkpt>
      <trkpt lat="41.626554999999996" lon="2.11923067">
        <ele>239.0</ele>
        <time>2019-06-09T13:05:25+02:00</time>
      </trkpt>
      <trkpt lat="41.626488339999995" lon="2.1191950000000004">
        <ele>238.0</ele>
        <time>2019-06-09T13:05:26+02:00</time>
      </trkpt>
      <trkpt lat="41.626435" lon="2.1191033399999997">
        <ele>238.0</ele>
        <time>2019-06-09T13:05:27+02:00</time>
      </trkpt>
      <trkpt lat="41.62640167000001" lon="2.1190050000000005">
        <ele>237.0</ele>
        <time>2019-06-09T13:05:28+02:00</time>
      </trkpt>
      <trkpt lat="41.62638167" lon="2.1189166699999995">
        <ele>237.0</ele>
        <time>2019-06-09T13:05:29+02:00</time>
      </trkpt>
      <trkpt lat="41.626353339999994" lon="2.11879834">
        <ele>237.0</ele>
        <time>2019-06-09T13:05:30+02:00</time>
      </trkpt>
      <trkpt lat="41.62632167" lon="2.11872034">
        <ele>236.0</ele>
        <time>2019-06-09T13:05:31+02:00</time>
      </trkpt>
      <trkpt lat="41.62628167000001" lon="2.11867434">
        <ele>236.0</ele>
        <time>2019-06-09T13:05:32+02:00</time>
      </trkpt>
      <trkpt lat="41.626234999999994" lon="2.118659">
        <ele>236.0</ele>
        <time>2019-06-09T13:05:33+02:00</time>
      </trkpt>
      <trkpt lat="41.626175" lon="2.11877034">
        <ele>235.0</ele>
        <time>2019-06-09T13:05:34+02:00</time>
      </trkpt>
      <trkpt lat="41.62615334" lon="2.1189016700000005">
        <ele>235.0</ele>
        <time>2019-06-09T13:05:35+02:00</time>
      </trkpt>
      <trkpt lat="41.62608834000001" lon="2.11901">
        <ele>235.0</ele>
        <time>2019-06-09T13:05:37+02:00</time>
      </trkpt>
      <trkpt lat="41.626081670000005" lon="2.1191199999999997">
        <ele>235.0</ele>
        <time>2019-06-09T13:05:38+02:00</time>
      </trkpt>
      <trkpt lat="41.62607833999999" lon="2.1192400000000005">
        <ele>235.0</ele>
        <time>2019-06-09T13:05:39+02:00</time>
      </trkpt>
      <trkpt lat="41.62606834" lon="2.11937">
        <ele>234.0</ele>
        <time>2019-06-09T13:05:40+02:00</time>
      </trkpt>
      <trkpt lat="41.62607833999999" lon="2.1194966699999993">
        <ele>234.0</ele>
        <time>2019-06-09T13:05:41+02:00</time>
      </trkpt>
      <trkpt lat="41.62611" lon="2.11961834">
        <ele>234.0</ele>
        <time>2019-06-09T13:05:42+02:00</time>
      </trkpt>
      <trkpt lat="41.62614" lon="2.1197283399999995">
        <ele>234.0</ele>
        <time>2019-06-09T13:05:43+02:00</time>
      </trkpt>
      <trkpt lat="41.626194999999996" lon="2.1198183399999997">
        <ele>233.0</ele>
        <time>2019-06-09T13:05:44+02:00</time>
      </trkpt>
      <trkpt lat="41.626256670000004" lon="2.1198783399999996">
        <ele>233.0</ele>
        <time>2019-06-09T13:05:45+02:00</time>
      </trkpt>
      <trkpt lat="41.62631834" lon="2.11997167">
        <ele>233.0</ele>
        <time>2019-06-09T13:05:46+02:00</time>
      </trkpt>
      <trkpt lat="41.62638" lon="2.12004834">
        <ele>233.0</ele>
        <time>2019-06-09T13:05:47+02:00</time>
      </trkpt>
      <trkpt lat="41.626433340000006" lon="2.12013">
        <ele>232.0</ele>
        <time>2019-06-09T13:05:48+02:00</time>
      </trkpt>
      <trkpt lat="41.626476999999994" lon="2.12021667">
        <ele>232.0</ele>
        <time>2019-06-09T13:05:49+02:00</time>
      </trkpt>
      <trkpt lat="41.626504000000004" lon="2.12029834">
        <ele>232.0</ele>
        <time>2019-06-09T13:05:50+02:00</time>
      </trkpt>
      <trkpt lat="41.626523670000005" lon="2.12037">
        <ele>232.0</ele>
        <time>2019-06-09T13:05:51+02:00</time>
      </trkpt>
      <trkpt lat="41.62655633999999" lon="2.120425">
        <ele>231.0</ele>
        <time>2019-06-09T13:05:54+02:00</time>
      </trkpt>
      <trkpt lat="41.626616670000004" lon="2.1204016700000006">
        <ele>230.0</ele>
        <time>2019-06-09T13:05:56+02:00</time>
      </trkpt>
      <trkpt lat="41.62665334" lon="2.1204566700000003">
        <ele>229.0</ele>
        <time>2019-06-09T13:05:59+02:00</time>
      </trkpt>
      <trkpt lat="41.62670833999999" lon="2.1205266700000003">
        <ele>228.0</ele>
        <time>2019-06-09T13:06:01+02:00</time>
      </trkpt>
      <trkpt lat="41.626751670000004" lon="2.1206333399999995">
        <ele>228.0</ele>
        <time>2019-06-09T13:06:03+02:00</time>
      </trkpt>
      <trkpt lat="41.62678167" lon="2.12068334">
        <ele>227.0</ele>
        <time>2019-06-09T13:06:04+02:00</time>
      </trkpt>
      <trkpt lat="41.626824670000005" lon="2.1207533399999994">
        <ele>227.0</ele>
        <time>2019-06-09T13:06:06+02:00</time>
      </trkpt>
      <trkpt lat="41.62686299999999" lon="2.12085">
        <ele>227.0</ele>
        <time>2019-06-09T13:06:08+02:00</time>
      </trkpt>
      <trkpt lat="41.62689733999999" lon="2.12096">
        <ele>227.0</ele>
        <time>2019-06-09T13:06:10+02:00</time>
      </trkpt>
      <trkpt lat="41.62691534" lon="2.1210299999999997">
        <ele>226.0</ele>
        <time>2019-06-09T13:06:11+02:00</time>
      </trkpt>
      <trkpt lat="41.626928" lon="2.12111667">
        <ele>226.0</ele>
        <time>2019-06-09T13:06:13+02:00</time>
      </trkpt>
      <trkpt lat="41.62685334" lon="2.12117">
        <ele>226.0</ele>
        <time>2019-06-09T13:06:15+02:00</time>
      </trkpt>
      <trkpt lat="41.62678667" lon="2.1212150000000003">
        <ele>226.0</ele>
        <time>2019-06-09T13:06:17+02:00</time>
      </trkpt>
      <trkpt lat="41.626715000000004" lon="2.12123334">
        <ele>225.0</ele>
        <time>2019-06-09T13:06:19+02:00</time>
      </trkpt>
      <trkpt lat="41.62664667" lon="2.12124167">
        <ele>224.0</ele>
        <time>2019-06-09T13:06:21+02:00</time>
      </trkpt>
      <trkpt lat="41.62657" lon="2.1212833399999993">
        <ele>224.0</ele>
        <time>2019-06-09T13:06:23+02:00</time>
      </trkpt>
      <trkpt lat="41.62650667" lon="2.121368">
        <ele>223.0</ele>
        <time>2019-06-09T13:06:25+02:00</time>
      </trkpt>
      <trkpt lat="41.626475" lon="2.1214180000000002">
        <ele>223.0</ele>
        <time>2019-06-09T13:06:26+02:00</time>
      </trkpt>
      <trkpt lat="41.626441670000006" lon="2.1214723399999995">
        <ele>223.0</ele>
        <time>2019-06-09T13:06:27+02:00</time>
      </trkpt>
      <trkpt lat="41.62640499999999" lon="2.1215333399999996">
        <ele>222.0</ele>
        <time>2019-06-09T13:06:28+02:00</time>
      </trkpt>
      <trkpt lat="41.62636500000001" lon="2.12159634">
        <ele>222.0</ele>
        <time>2019-06-09T13:06:29+02:00</time>
      </trkpt>
      <trkpt lat="41.62632833999999" lon="2.1216549999999996">
        <ele>222.0</ele>
        <time>2019-06-09T13:06:30+02:00</time>
      </trkpt>
      <trkpt lat="41.62629" lon="2.12171834">
        <ele>222.0</ele>
        <time>2019-06-09T13:06:31+02:00</time>
      </trkpt>
      <trkpt lat="41.62625167" lon="2.12178167">
        <ele>221.0</ele>
        <time>2019-06-09T13:06:32+02:00</time>
      </trkpt>
      <trkpt lat="41.62620867" lon="2.1218366699999995">
        <ele>221.0</ele>
        <time>2019-06-09T13:06:33+02:00</time>
      </trkpt>
      <trkpt lat="41.62616233999999" lon="2.1218833399999992">
        <ele>221.0</ele>
        <time>2019-06-09T13:06:34+02:00</time>
      </trkpt>
      <trkpt lat="41.62610167000001" lon="2.1219266699999997">
        <ele>221.0</ele>
        <time>2019-06-09T13:06:35+02:00</time>
      </trkpt>
      <trkpt lat="41.62604499999999" lon="2.121955">
        <ele>221.0</ele>
        <time>2019-06-09T13:06:36+02:00</time>
      </trkpt>
      <trkpt lat="41.62598667" lon="2.1219706699999996">
        <ele>221.0</ele>
        <time>2019-06-09T13:06:37+02:00</time>
      </trkpt>
      <trkpt lat="41.62593334" lon="2.1219616699999997">
        <ele>221.0</ele>
        <time>2019-06-09T13:06:38+02:00</time>
      </trkpt>
      <trkpt lat="41.62588334" lon="2.12195834">
        <ele>221.0</ele>
        <time>2019-06-09T13:06:39+02:00</time>
      </trkpt>
      <trkpt lat="41.625834999999995" lon="2.1219633399999998">
        <ele>221.0</ele>
        <time>2019-06-09T13:06:40+02:00</time>
      </trkpt>
      <trkpt lat="41.62578834" lon="2.12196667">
        <ele>221.0</ele>
        <time>2019-06-09T13:06:41+02:00</time>
      </trkpt>
      <trkpt lat="41.62570667" lon="2.121998">
        <ele>221.0</ele>
        <time>2019-06-09T13:06:43+02:00</time>
      </trkpt>
      <trkpt lat="41.62561834" lon="2.122044">
        <ele>221.0</ele>
        <time>2019-06-09T13:06:45+02:00</time>
      </trkpt>
      <trkpt lat="41.625546670000006" lon="2.1220846700000005">
        <ele>221.0</ele>
        <time>2019-06-09T13:06:47+02:00</time>
      </trkpt>
      <trkpt lat="41.62548334" lon="2.12213234">
        <ele>221.0</ele>
        <time>2019-06-09T13:06:49+02:00</time>
      </trkpt>
      <trkpt lat="41.62543334" lon="2.122181">
        <ele>221.0</ele>
        <time>2019-06-09T13:06:51+02:00</time>
      </trkpt>
      <trkpt lat="41.62540333999999" lon="2.12227667">
        <ele>221.0</ele>
        <time>2019-06-09T13:06:53+02:00</time>
      </trkpt>
      <trkpt lat="41.62537167000001" lon="2.1223466699999998">
        <ele>221.0</ele>
        <time>2019-06-09T13:06:55+02:00</time>
      </trkpt>
      <trkpt lat="41.62532499999999" lon="2.12241167">
        <ele>221.0</ele>
        <time>2019-06-09T13:06:57+02:00</time>
      </trkpt>
      <trkpt lat="41.625283" lon="2.12248667">
        <ele>220.0</ele>
        <time>2019-06-09T13:06:59+02:00</time>
      </trkpt>
      <trkpt lat="41.62524267" lon="2.12256334">
        <ele>220.0</ele>
        <time>2019-06-09T13:07:01+02:00</time>
      </trkpt>
      <trkpt lat="41.62520567" lon="2.1226466699999995">
        <ele>220.0</ele>
        <time>2019-06-09T13:07:03+02:00</time>
      </trkpt>
      <trkpt lat="41.62517234" lon="2.12272667">
        <ele>220.0</ele>
        <time>2019-06-09T13:07:05+02:00</time>
      </trkpt>
      <trkpt lat="41.62514" lon="2.12280667">
        <ele>220.0</ele>
        <time>2019-06-09T13:07:07+02:00</time>
      </trkpt>
      <trkpt lat="41.62510799999999" lon="2.1228933399999996">
        <ele>220.0</ele>
        <time>2019-06-09T13:07:09+02:00</time>
      </trkpt>
      <trkpt lat="41.62507899999999" lon="2.12298">
        <ele>220.0</ele>
        <time>2019-06-09T13:07:11+02:00</time>
      </trkpt>
      <trkpt lat="41.625054" lon="2.1230666699999996">
        <ele>219.0</ele>
        <time>2019-06-09T13:07:13+02:00</time>
      </trkpt>
      <trkpt lat="41.625031" lon="2.1231533399999996">
        <ele>219.0</ele>
        <time>2019-06-09T13:07:15+02:00</time>
      </trkpt>
      <trkpt lat="41.62501234" lon="2.1232416699999996">
        <ele>219.0</ele>
        <time>2019-06-09T13:07:17+02:00</time>
      </trkpt>
      <trkpt lat="41.62499733999999" lon="2.1233216699999997">
        <ele>218.0</ele>
        <time>2019-06-09T13:07:19+02:00</time>
      </trkpt>
      <trkpt lat="41.62498133999999" lon="2.1233966699999995">
        <ele>217.0</ele>
        <time>2019-06-09T13:07:21+02:00</time>
      </trkpt>
      <trkpt lat="41.624964" lon="2.12347">
        <ele>217.0</ele>
        <time>2019-06-09T13:07:23+02:00</time>
      </trkpt>
      <trkpt lat="41.62493867" lon="2.1235533399999995">
        <ele>216.0</ele>
        <time>2019-06-09T13:07:25+02:00</time>
      </trkpt>
      <trkpt lat="41.624913" lon="2.12362667">
        <ele>216.0</ele>
        <time>2019-06-09T13:07:27+02:00</time>
      </trkpt>
      <trkpt lat="41.624885670000005" lon="2.12369334">
        <ele>216.0</ele>
        <time>2019-06-09T13:07:29+02:00</time>
      </trkpt>
      <trkpt lat="41.62485734" lon="2.1237583399999993">
        <ele>215.0</ele>
        <time>2019-06-09T13:07:31+02:00</time>
      </trkpt>
      <trkpt lat="41.624824000000004" lon="2.12382667">
        <ele>215.0</ele>
        <time>2019-06-09T13:07:33+02:00</time>
      </trkpt>
      <trkpt lat="41.62478600000001" lon="2.12390167">
        <ele>215.0</ele>
        <time>2019-06-09T13:07:35+02:00</time>
      </trkpt>
      <trkpt lat="41.624635" lon="2.12395667">
        <ele>214.0</ele>
        <time>2019-06-09T13:07:37+02:00</time>
      </trkpt>
      <trkpt lat="41.624593340000004" lon="2.1239813399999994">
        <ele>214.0</ele>
        <time>2019-06-09T13:07:38+02:00</time>
      </trkpt>
      <trkpt lat="41.624511670000004" lon="2.12401167">
        <ele>214.0</ele>
        <time>2019-06-09T13:07:40+02:00</time>
      </trkpt>
      <trkpt lat="41.62446834000001" lon="2.1240283399999997">
        <ele>214.0</ele>
        <time>2019-06-09T13:07:41+02:00</time>
      </trkpt>
      <trkpt lat="41.624425" lon="2.124045">
        <ele>213.0</ele>
        <time>2019-06-09T13:07:42+02:00</time>
      </trkpt>
      <trkpt lat="41.624381670000005" lon="2.124065">
        <ele>213.0</ele>
        <time>2019-06-09T13:07:43+02:00</time>
      </trkpt>
      <trkpt lat="41.62433333999999" lon="2.124089">
        <ele>213.0</ele>
        <time>2019-06-09T13:07:44+02:00</time>
      </trkpt>
      <trkpt lat="41.62428834000001" lon="2.124113">
        <ele>213.0</ele>
        <time>2019-06-09T13:07:45+02:00</time>
      </trkpt>
      <trkpt lat="41.62422167000001" lon="2.12417034">
        <ele>212.0</ele>
        <time>2019-06-09T13:07:47+02:00</time>
      </trkpt>
      <trkpt lat="41.624201670000005" lon="2.12420867">
        <ele>212.0</ele>
        <time>2019-06-09T13:07:48+02:00</time>
      </trkpt>
      <trkpt lat="41.62419" lon="2.12431167">
        <ele>212.0</ele>
        <time>2019-06-09T13:07:49+02:00</time>
      </trkpt>
      <trkpt lat="41.62417667" lon="2.12437">
        <ele>212.0</ele>
        <time>2019-06-09T13:07:50+02:00</time>
      </trkpt>
      <trkpt lat="41.624175" lon="2.124435">
        <ele>212.0</ele>
        <time>2019-06-09T13:07:51+02:00</time>
      </trkpt>
      <trkpt lat="41.62416834" lon="2.1244966699999996">
        <ele>212.0</ele>
        <time>2019-06-09T13:07:52+02:00</time>
      </trkpt>
      <trkpt lat="41.62416667000001" lon="2.1245633399999995">
        <ele>212.0</ele>
        <time>2019-06-09T13:07:53+02:00</time>
      </trkpt>
      <trkpt lat="41.624163339999996" lon="2.12463167">
        <ele>212.0</ele>
        <time>2019-06-09T13:07:54+02:00</time>
      </trkpt>
      <trkpt lat="41.624155" lon="2.124695">
        <ele>212.0</ele>
        <time>2019-06-09T13:07:55+02:00</time>
      </trkpt>
      <trkpt lat="41.62414367" lon="2.1247599999999998">
        <ele>212.0</ele>
        <time>2019-06-09T13:07:56+02:00</time>
      </trkpt>
      <trkpt lat="41.624130339999994" lon="2.12481834">
        <ele>212.0</ele>
        <time>2019-06-09T13:07:57+02:00</time>
      </trkpt>
      <trkpt lat="41.62410667" lon="2.1249283399999994">
        <ele>211.0</ele>
        <time>2019-06-09T13:07:59+02:00</time>
      </trkpt>
      <trkpt lat="41.624086999999996" lon="2.12503834">
        <ele>211.0</ele>
        <time>2019-06-09T13:08:01+02:00</time>
      </trkpt>
      <trkpt lat="41.62406933999999" lon="2.1251383400000003">
        <ele>211.0</ele>
        <time>2019-06-09T13:08:03+02:00</time>
      </trkpt>
      <trkpt lat="41.62405700000001" lon="2.12524167">
        <ele>210.0</ele>
        <time>2019-06-09T13:08:05+02:00</time>
      </trkpt>
      <trkpt lat="41.624046" lon="2.1253533399999998">
        <ele>210.0</ele>
        <time>2019-06-09T13:08:07+02:00</time>
      </trkpt>
      <trkpt lat="41.62403467" lon="2.125475">
        <ele>209.0</ele>
        <time>2019-06-09T13:08:09+02:00</time>
      </trkpt>
      <trkpt lat="41.624031" lon="2.12553667">
        <ele>209.0</ele>
        <time>2019-06-09T13:08:10+02:00</time>
      </trkpt>
      <trkpt lat="41.62402034" lon="2.12565667">
        <ele>208.0</ele>
        <time>2019-06-09T13:08:12+02:00</time>
      </trkpt>
      <trkpt lat="41.62401767" lon="2.1257200000000003">
        <ele>208.0</ele>
        <time>2019-06-09T13:08:13+02:00</time>
      </trkpt>
      <trkpt lat="41.624013" lon="2.1257849999999996">
        <ele>208.0</ele>
        <time>2019-06-09T13:08:14+02:00</time>
      </trkpt>
      <trkpt lat="41.624005999999994" lon="2.1258483399999997">
        <ele>208.0</ele>
        <time>2019-06-09T13:08:15+02:00</time>
      </trkpt>
      <trkpt lat="41.623995670000006" lon="2.125965">
        <ele>207.0</ele>
        <time>2019-06-09T13:08:17+02:00</time>
      </trkpt>
      <trkpt lat="41.623987" lon="2.12607667">
        <ele>206.0</ele>
        <time>2019-06-09T13:08:19+02:00</time>
      </trkpt>
      <trkpt lat="41.623979999999996" lon="2.12618">
        <ele>206.0</ele>
        <time>2019-06-09T13:08:21+02:00</time>
      </trkpt>
      <trkpt lat="41.62397333999999" lon="2.1262833399999996">
        <ele>205.0</ele>
        <time>2019-06-09T13:08:23+02:00</time>
      </trkpt>
      <trkpt lat="41.623968000000005" lon="2.126385">
        <ele>204.0</ele>
        <time>2019-06-09T13:08:25+02:00</time>
      </trkpt>
      <trkpt lat="41.62396767" lon="2.12648834">
        <ele>204.0</ele>
        <time>2019-06-09T13:08:27+02:00</time>
      </trkpt>
      <trkpt lat="41.62397" lon="2.126585">
        <ele>203.0</ele>
        <time>2019-06-09T13:08:29+02:00</time>
      </trkpt>
      <trkpt lat="41.62407167" lon="2.126675">
        <ele>202.0</ele>
        <time>2019-06-09T13:08:31+02:00</time>
      </trkpt>
      <trkpt lat="41.62412167000001" lon="2.12675667">
        <ele>202.0</ele>
        <time>2019-06-09T13:08:33+02:00</time>
      </trkpt>
      <trkpt lat="41.624179999999996" lon="2.1268333399999997">
        <ele>201.0</ele>
        <time>2019-06-09T13:08:35+02:00</time>
      </trkpt>
      <trkpt lat="41.62423667" lon="2.1269099999999996">
        <ele>200.0</ele>
        <time>2019-06-09T13:08:37+02:00</time>
      </trkpt>
      <trkpt lat="41.62428200000001" lon="2.127">
        <ele>199.0</ele>
        <time>2019-06-09T13:08:39+02:00</time>
      </trkpt>
      <trkpt lat="41.624297999999996" lon="2.127105">
        <ele>199.0</ele>
        <time>2019-06-09T13:08:41+02:00</time>
      </trkpt>
      <trkpt lat="41.62424000000001" lon="2.12718667">
        <ele>199.0</ele>
        <time>2019-06-09T13:08:43+02:00</time>
      </trkpt>
      <trkpt lat="41.62417667" lon="2.1272533399999998">
        <ele>199.0</ele>
        <time>2019-06-09T13:08:45+02:00</time>
      </trkpt>
      <trkpt lat="41.62410667" lon="2.1273283399999996">
        <ele>198.0</ele>
        <time>2019-06-09T13:08:47+02:00</time>
      </trkpt>
      <trkpt lat="41.624073339999995" lon="2.1273733399999997">
        <ele>198.0</ele>
        <time>2019-06-09T13:08:48+02:00</time>
      </trkpt>
      <trkpt lat="41.62404334" lon="2.1274183399999997">
        <ele>198.0</ele>
        <time>2019-06-09T13:08:49+02:00</time>
      </trkpt>
      <trkpt lat="41.62399133999999" lon="2.12750667">
        <ele>197.0</ele>
        <time>2019-06-09T13:08:51+02:00</time>
      </trkpt>
      <trkpt lat="41.623950670000006" lon="2.12758834">
        <ele>196.0</ele>
        <time>2019-06-09T13:08:53+02:00</time>
      </trkpt>
      <trkpt lat="41.623909999999995" lon="2.12767667">
        <ele>196.0</ele>
        <time>2019-06-09T13:08:55+02:00</time>
      </trkpt>
      <trkpt lat="41.623870999999994" lon="2.12776">
        <ele>195.0</ele>
        <time>2019-06-09T13:08:57+02:00</time>
      </trkpt>
      <trkpt lat="41.623834339999995" lon="2.12784334">
        <ele>194.0</ele>
        <time>2019-06-09T13:08:59+02:00</time>
      </trkpt>
      <trkpt lat="41.623801" lon="2.1279283399999995">
        <ele>193.0</ele>
        <time>2019-06-09T13:09:01+02:00</time>
      </trkpt>
      <trkpt lat="41.62376700000001" lon="2.1280083399999996">
        <ele>192.0</ele>
        <time>2019-06-09T13:09:03+02:00</time>
      </trkpt>
      <trkpt lat="41.62373167" lon="2.128085">
        <ele>191.0</ele>
        <time>2019-06-09T13:09:05+02:00</time>
      </trkpt>
      <trkpt lat="41.623688" lon="2.1281799999999995">
        <ele>190.0</ele>
        <time>2019-06-09T13:09:07+02:00</time>
      </trkpt>
      <trkpt lat="41.62364334" lon="2.1282766700000004">
        <ele>190.0</ele>
        <time>2019-06-09T13:09:09+02:00</time>
      </trkpt>
      <trkpt lat="41.623617" lon="2.1283283399999995">
        <ele>188.0</ele>
        <time>2019-06-09T13:09:10+02:00</time>
      </trkpt>
      <trkpt lat="41.623592339999995" lon="2.128375">
        <ele>188.0</ele>
        <time>2019-06-09T13:09:11+02:00</time>
      </trkpt>
      <trkpt lat="41.623565" lon="2.1284216699999994">
        <ele>188.0</ele>
        <time>2019-06-09T13:09:12+02:00</time>
      </trkpt>
      <trkpt lat="41.623537999999996" lon="2.1284700000000005">
        <ele>187.0</ele>
        <time>2019-06-09T13:09:13+02:00</time>
      </trkpt>
      <trkpt lat="41.62350567" lon="2.1285250000000002">
        <ele>187.0</ele>
        <time>2019-06-09T13:09:14+02:00</time>
      </trkpt>
      <trkpt lat="41.623473" lon="2.128585">
        <ele>187.0</ele>
        <time>2019-06-09T13:09:15+02:00</time>
      </trkpt>
      <trkpt lat="41.62343834" lon="2.12864834">
        <ele>187.0</ele>
        <time>2019-06-09T13:09:16+02:00</time>
      </trkpt>
      <trkpt lat="41.62340567" lon="2.1287083399999998">
        <ele>187.0</ele>
        <time>2019-06-09T13:09:17+02:00</time>
      </trkpt>
      <trkpt lat="41.623372669999995" lon="2.12876667">
        <ele>186.0</ele>
        <time>2019-06-09T13:09:18+02:00</time>
      </trkpt>
      <trkpt lat="41.623340999999996" lon="2.1288216699999998">
        <ele>186.0</ele>
        <time>2019-06-09T13:09:19+02:00</time>
      </trkpt>
      <trkpt lat="41.62330967" lon="2.128875">
        <ele>186.0</ele>
        <time>2019-06-09T13:09:20+02:00</time>
      </trkpt>
      <trkpt lat="41.62327933999999" lon="2.128925">
        <ele>185.0</ele>
        <time>2019-06-09T13:09:21+02:00</time>
      </trkpt>
      <trkpt lat="41.623215339999994" lon="2.12901667">
        <ele>185.0</ele>
        <time>2019-06-09T13:09:22+02:00</time>
      </trkpt>
      <trkpt lat="41.623183340000004" lon="2.12906">
        <ele>184.0</ele>
        <time>2019-06-09T13:09:23+02:00</time>
      </trkpt>
      <trkpt lat="41.62307" lon="2.12910167">
        <ele>184.0</ele>
        <time>2019-06-09T13:09:24+02:00</time>
      </trkpt>
      <trkpt lat="41.62302667000001" lon="2.12914167">
        <ele>184.0</ele>
        <time>2019-06-09T13:09:25+02:00</time>
      </trkpt>
      <trkpt lat="41.62298167" lon="2.12918167">
        <ele>183.0</ele>
        <time>2019-06-09T13:09:26+02:00</time>
      </trkpt>
      <trkpt lat="41.62294" lon="2.1292193399999997">
        <ele>183.0</ele>
        <time>2019-06-09T13:09:27+02:00</time>
      </trkpt>
      <trkpt lat="41.62289500000001" lon="2.129261">
        <ele>183.0</ele>
        <time>2019-06-09T13:09:28+02:00</time>
      </trkpt>
      <trkpt lat="41.62285167" lon="2.1293010000000003">
        <ele>182.0</ele>
        <time>2019-06-09T13:09:29+02:00</time>
      </trkpt>
      <trkpt lat="41.62281" lon="2.129339">
        <ele>182.0</ele>
        <time>2019-06-09T13:09:30+02:00</time>
      </trkpt>
      <trkpt lat="41.62276833999999" lon="2.1293796699999996">
        <ele>182.0</ele>
        <time>2019-06-09T13:09:31+02:00</time>
      </trkpt>
      <trkpt lat="41.62273167" lon="2.129419339999999">
        <ele>181.0</ele>
        <time>2019-06-09T13:09:32+02:00</time>
      </trkpt>
      <trkpt lat="41.62269667" lon="2.1294606699999994">
        <ele>181.0</ele>
        <time>2019-06-09T13:09:33+02:00</time>
      </trkpt>
      <trkpt lat="41.62266167" lon="2.129506">
        <ele>181.0</ele>
        <time>2019-06-09T13:09:34+02:00</time>
      </trkpt>
      <trkpt lat="41.622625" lon="2.1295543399999994">
        <ele>181.0</ele>
        <time>2019-06-09T13:09:35+02:00</time>
      </trkpt>
      <trkpt lat="41.62258667" lon="2.12960534">
        <ele>180.0</ele>
        <time>2019-06-09T13:09:36+02:00</time>
      </trkpt>
      <trkpt lat="41.622550000000004" lon="2.1296556699999996">
        <ele>180.0</ele>
        <time>2019-06-09T13:09:37+02:00</time>
      </trkpt>
      <trkpt lat="41.62251167000001" lon="2.1297076699999997">
        <ele>180.0</ele>
        <time>2019-06-09T13:09:38+02:00</time>
      </trkpt>
      <trkpt lat="41.622474999999994" lon="2.1297593399999997">
        <ele>180.0</ele>
        <time>2019-06-09T13:09:39+02:00</time>
      </trkpt>
      <trkpt lat="41.622440000000005" lon="2.1298483399999997">
        <ele>179.0</ele>
        <time>2019-06-09T13:09:40+02:00</time>
      </trkpt>
      <trkpt lat="41.62240667" lon="2.12990167">
        <ele>179.0</ele>
        <time>2019-06-09T13:09:41+02:00</time>
      </trkpt>
      <trkpt lat="41.62237434" lon="2.12995667">
        <ele>179.0</ele>
        <time>2019-06-09T13:09:42+02:00</time>
      </trkpt>
      <trkpt lat="41.62234367" lon="2.13001334">
        <ele>179.0</ele>
        <time>2019-06-09T13:09:43+02:00</time>
      </trkpt>
      <trkpt lat="41.62231433999999" lon="2.13007167">
        <ele>178.0</ele>
        <time>2019-06-09T13:09:44+02:00</time>
      </trkpt>
      <trkpt lat="41.622284" lon="2.1301349999999997">
        <ele>178.0</ele>
        <time>2019-06-09T13:09:45+02:00</time>
      </trkpt>
      <trkpt lat="41.622252339999996" lon="2.13020667">
        <ele>178.0</ele>
        <time>2019-06-09T13:09:46+02:00</time>
      </trkpt>
      <trkpt lat="41.622223" lon="2.13028">
        <ele>178.0</ele>
        <time>2019-06-09T13:09:47+02:00</time>
      </trkpt>
      <trkpt lat="41.622192000000005" lon="2.13035">
        <ele>177.0</ele>
        <time>2019-06-09T13:09:48+02:00</time>
      </trkpt>
      <trkpt lat="41.62216099999999" lon="2.13041167">
        <ele>177.0</ele>
        <time>2019-06-09T13:09:49+02:00</time>
      </trkpt>
      <trkpt lat="41.622127" lon="2.130465">
        <ele>177.0</ele>
        <time>2019-06-09T13:09:50+02:00</time>
      </trkpt>
      <trkpt lat="41.622091" lon="2.1305083399999996">
        <ele>177.0</ele>
        <time>2019-06-09T13:09:51+02:00</time>
      </trkpt>
      <trkpt lat="41.622051" lon="2.1305500000000004">
        <ele>177.0</ele>
        <time>2019-06-09T13:09:52+02:00</time>
      </trkpt>
      <trkpt lat="41.62193499999999" lon="2.13059">
        <ele>176.0</ele>
        <time>2019-06-09T13:09:53+02:00</time>
      </trkpt>
      <trkpt lat="41.62187334" lon="2.1306233399999996">
        <ele>176.0</ele>
        <time>2019-06-09T13:09:54+02:00</time>
      </trkpt>
      <trkpt lat="41.62180834000001" lon="2.130655">
        <ele>176.0</ele>
        <time>2019-06-09T13:09:55+02:00</time>
      </trkpt>
      <trkpt lat="41.621745" lon="2.13068967">
        <ele>176.0</ele>
        <time>2019-06-09T13:09:56+02:00</time>
      </trkpt>
      <trkpt lat="41.62168167000001" lon="2.130725">
        <ele>176.0</ele>
        <time>2019-06-09T13:09:57+02:00</time>
      </trkpt>
      <trkpt lat="41.621618340000005" lon="2.13075867">
        <ele>176.0</ele>
        <time>2019-06-09T13:09:58+02:00</time>
      </trkpt>
      <trkpt lat="41.62155834" lon="2.1307913399999996">
        <ele>176.0</ele>
        <time>2019-06-09T13:09:59+02:00</time>
      </trkpt>
      <trkpt lat="41.62149834" lon="2.1308249999999997">
        <ele>176.0</ele>
        <time>2019-06-09T13:10:00+02:00</time>
      </trkpt>
      <trkpt lat="41.62143667" lon="2.1308583399999996">
        <ele>176.0</ele>
        <time>2019-06-09T13:10:01+02:00</time>
      </trkpt>
      <trkpt lat="41.621375" lon="2.1308920000000002">
        <ele>176.0</ele>
        <time>2019-06-09T13:10:02+02:00</time>
      </trkpt>
      <trkpt lat="41.621315" lon="2.1309250000000004">
        <ele>176.0</ele>
        <time>2019-06-09T13:10:03+02:00</time>
      </trkpt>
      <trkpt lat="41.62125667" lon="2.13096">
        <ele>176.0</ele>
        <time>2019-06-09T13:10:04+02:00</time>
      </trkpt>
      <trkpt lat="41.62119833999999" lon="2.130994">
        <ele>176.0</ele>
        <time>2019-06-09T13:10:05+02:00</time>
      </trkpt>
      <trkpt lat="41.62114167000001" lon="2.13102767">
        <ele>176.0</ele>
        <time>2019-06-09T13:10:06+02:00</time>
      </trkpt>
      <trkpt lat="41.62108334" lon="2.13106234">
        <ele>176.0</ele>
        <time>2019-06-09T13:10:07+02:00</time>
      </trkpt>
      <trkpt lat="41.621026670000006" lon="2.13109634">
        <ele>176.0</ele>
        <time>2019-06-09T13:10:08+02:00</time>
      </trkpt>
      <trkpt lat="41.620968340000005" lon="2.1311279999999995">
        <ele>176.0</ele>
        <time>2019-06-09T13:10:09+02:00</time>
      </trkpt>
      <trkpt lat="41.620911670000005" lon="2.13115967">
        <ele>176.0</ele>
        <time>2019-06-09T13:10:10+02:00</time>
      </trkpt>
      <trkpt lat="41.62085499999999" lon="2.1311893399999997">
        <ele>176.0</ele>
        <time>2019-06-09T13:10:11+02:00</time>
      </trkpt>
      <trkpt lat="41.62079833999999" lon="2.13121867">
        <ele>175.0</ele>
        <time>2019-06-09T13:10:12+02:00</time>
      </trkpt>
      <trkpt lat="41.62074500000001" lon="2.1312456699999998">
        <ele>175.0</ele>
        <time>2019-06-09T13:10:13+02:00</time>
      </trkpt>
      <trkpt lat="41.62068834" lon="2.13127134">
        <ele>175.0</ele>
        <time>2019-06-09T13:10:14+02:00</time>
      </trkpt>
      <trkpt lat="41.62063167" lon="2.13129934">
        <ele>175.0</ele>
        <time>2019-06-09T13:10:15+02:00</time>
      </trkpt>
      <trkpt lat="41.620576670000005" lon="2.1313229999999996">
        <ele>175.0</ele>
        <time>2019-06-09T13:10:16+02:00</time>
      </trkpt>
      <trkpt lat="41.62052334" lon="2.131348">
        <ele>174.0</ele>
        <time>2019-06-09T13:10:17+02:00</time>
      </trkpt>
      <trkpt lat="41.620466670000006" lon="2.131374">
        <ele>174.0</ele>
        <time>2019-06-09T13:10:18+02:00</time>
      </trkpt>
      <trkpt lat="41.62041333999999" lon="2.13139567">
        <ele>174.0</ele>
        <time>2019-06-09T13:10:19+02:00</time>
      </trkpt>
      <trkpt lat="41.62035834" lon="2.1314203399999996">
        <ele>174.0</ele>
        <time>2019-06-09T13:10:20+02:00</time>
      </trkpt>
      <trkpt lat="41.620304999999995" lon="2.1314436699999995">
        <ele>173.0</ele>
        <time>2019-06-09T13:10:21+02:00</time>
      </trkpt>
      <trkpt lat="41.620255" lon="2.131465">
        <ele>173.0</ele>
        <time>2019-06-09T13:10:22+02:00</time>
      </trkpt>
      <trkpt lat="41.620205000000006" lon="2.13148634">
        <ele>173.0</ele>
        <time>2019-06-09T13:10:23+02:00</time>
      </trkpt>
      <trkpt lat="41.620155" lon="2.1315073399999998">
        <ele>173.0</ele>
        <time>2019-06-09T13:10:24+02:00</time>
      </trkpt>
      <trkpt lat="41.620106670000006" lon="2.131527">
        <ele>173.0</ele>
        <time>2019-06-09T13:10:25+02:00</time>
      </trkpt>
      <trkpt lat="41.620059999999995" lon="2.1315459999999997">
        <ele>172.0</ele>
        <time>2019-06-09T13:10:26+02:00</time>
      </trkpt>
      <trkpt lat="41.62000999999999" lon="2.1315703399999997">
        <ele>172.0</ele>
        <time>2019-06-09T13:10:27+02:00</time>
      </trkpt>
      <trkpt lat="41.619960000000006" lon="2.131591">
        <ele>172.0</ele>
        <time>2019-06-09T13:10:28+02:00</time>
      </trkpt>
      <trkpt lat="41.61991" lon="2.13161567">
        <ele>172.0</ele>
        <time>2019-06-09T13:10:29+02:00</time>
      </trkpt>
      <trkpt lat="41.61986" lon="2.1316400000000004">
        <ele>171.0</ele>
        <time>2019-06-09T13:10:30+02:00</time>
      </trkpt>
      <trkpt lat="41.619811670000004" lon="2.1316676699999997">
        <ele>171.0</ele>
        <time>2019-06-09T13:10:31+02:00</time>
      </trkpt>
      <trkpt lat="41.61976334" lon="2.131692">
        <ele>171.0</ele>
        <time>2019-06-09T13:10:32+02:00</time>
      </trkpt>
      <trkpt lat="41.61971500000001" lon="2.1317209999999998">
        <ele>171.0</ele>
        <time>2019-06-09T13:10:33+02:00</time>
      </trkpt>
      <trkpt lat="41.619665000000005" lon="2.131746669999999">
        <ele>171.0</ele>
        <time>2019-06-09T13:10:34+02:00</time>
      </trkpt>
      <trkpt lat="41.619616670000006" lon="2.1317760000000003">
        <ele>170.0</ele>
        <time>2019-06-09T13:10:35+02:00</time>
      </trkpt>
      <trkpt lat="41.619568339999994" lon="2.1318010000000003">
        <ele>170.0</ele>
        <time>2019-06-09T13:10:36+02:00</time>
      </trkpt>
      <trkpt lat="41.61951834" lon="2.1318313399999997">
        <ele>170.0</ele>
        <time>2019-06-09T13:10:37+02:00</time>
      </trkpt>
      <trkpt lat="41.61946667000001" lon="2.13186267">
        <ele>170.0</ele>
        <time>2019-06-09T13:10:38+02:00</time>
      </trkpt>
      <trkpt lat="41.619415" lon="2.13188967">
        <ele>169.0</ele>
        <time>2019-06-09T13:10:39+02:00</time>
      </trkpt>
      <trkpt lat="41.61936667" lon="2.1319196700000003">
        <ele>169.0</ele>
        <time>2019-06-09T13:10:40+02:00</time>
      </trkpt>
      <trkpt lat="41.619323339999994" lon="2.1319423399999997">
        <ele>169.0</ele>
        <time>2019-06-09T13:10:41+02:00</time>
      </trkpt>
      <trkpt lat="41.619240000000005" lon="2.131986">
        <ele>169.0</ele>
        <time>2019-06-09T13:10:43+02:00</time>
      </trkpt>
      <trkpt lat="41.61919667" lon="2.13201334">
        <ele>169.0</ele>
        <time>2019-06-09T13:10:44+02:00</time>
      </trkpt>
      <trkpt lat="41.61915667" lon="2.13203534">
        <ele>168.0</ele>
        <time>2019-06-09T13:10:45+02:00</time>
      </trkpt>
      <trkpt lat="41.619115" lon="2.1320629999999996">
        <ele>168.0</ele>
        <time>2019-06-09T13:10:46+02:00</time>
      </trkpt>
      <trkpt lat="41.619071670000004" lon="2.1320870000000007">
        <ele>168.0</ele>
        <time>2019-06-09T13:10:47+02:00</time>
      </trkpt>
      <trkpt lat="41.61902833999999" lon="2.13211667">
        <ele>168.0</ele>
        <time>2019-06-09T13:10:48+02:00</time>
      </trkpt>
      <trkpt lat="41.618981670000004" lon="2.132148">
        <ele>167.0</ele>
        <time>2019-06-09T13:10:49+02:00</time>
      </trkpt>
      <trkpt lat="41.61893167" lon="2.132186">
        <ele>167.0</ele>
        <time>2019-06-09T13:10:50+02:00</time>
      </trkpt>
      <trkpt lat="41.61888167" lon="2.13221967">
        <ele>167.0</ele>
        <time>2019-06-09T13:10:51+02:00</time>
      </trkpt>
      <trkpt lat="41.618829999999996" lon="2.132259">
        <ele>167.0</ele>
        <time>2019-06-09T13:10:52+02:00</time>
      </trkpt>
      <trkpt lat="41.61877500000001" lon="2.13229567">
        <ele>167.0</ele>
        <time>2019-06-09T13:10:53+02:00</time>
      </trkpt>
      <trkpt lat="41.61872" lon="2.1323373400000003">
        <ele>167.0</ele>
        <time>2019-06-09T13:10:54+02:00</time>
      </trkpt>
      <trkpt lat="41.618665" lon="2.13237934">
        <ele>167.0</ele>
        <time>2019-06-09T13:10:55+02:00</time>
      </trkpt>
      <trkpt lat="41.61861167" lon="2.132421">
        <ele>167.0</ele>
        <time>2019-06-09T13:10:56+02:00</time>
      </trkpt>
      <trkpt lat="41.618559999999995" lon="2.13246667">
        <ele>167.0</ele>
        <time>2019-06-09T13:10:57+02:00</time>
      </trkpt>
      <trkpt lat="41.618536670000005" lon="2.13250167">
        <ele>167.0</ele>
        <time>2019-06-09T13:10:58+02:00</time>
      </trkpt>
      <trkpt lat="41.618455000000004" lon="2.13256734">
        <ele>167.0</ele>
        <time>2019-06-09T13:10:59+02:00</time>
      </trkpt>
      <trkpt lat="41.61841" lon="2.132617">
        <ele>167.0</ele>
        <time>2019-06-09T13:11:00+02:00</time>
      </trkpt>
      <trkpt lat="41.61835" lon="2.13268167">
        <ele>167.0</ele>
        <time>2019-06-09T13:11:01+02:00</time>
      </trkpt>
      <trkpt lat="41.61828334" lon="2.1327466699999995">
        <ele>167.0</ele>
        <time>2019-06-09T13:11:02+02:00</time>
      </trkpt>
      <trkpt lat="41.61823" lon="2.13280867">
        <ele>167.0</ele>
        <time>2019-06-09T13:11:03+02:00</time>
      </trkpt>
      <trkpt lat="41.61818667000001" lon="2.13285934">
        <ele>167.0</ele>
        <time>2019-06-09T13:11:04+02:00</time>
      </trkpt>
      <trkpt lat="41.618145000000005" lon="2.13290867">
        <ele>167.0</ele>
        <time>2019-06-09T13:11:05+02:00</time>
      </trkpt>
      <trkpt lat="41.61807834" lon="2.13297634">
        <ele>167.0</ele>
        <time>2019-06-09T13:11:07+02:00</time>
      </trkpt>
      <trkpt lat="41.61803334" lon="2.133023">
        <ele>167.0</ele>
        <time>2019-06-09T13:11:09+02:00</time>
      </trkpt>
      <trkpt lat="41.617976670000004" lon="2.1331333399999997">
        <ele>166.0</ele>
        <time>2019-06-09T13:11:13+02:00</time>
      </trkpt>
      <trkpt lat="41.617909999999995" lon="2.13315334">
        <ele>166.0</ele>
        <time>2019-06-09T13:11:16+02:00</time>
      </trkpt>
      <trkpt lat="41.61785167" lon="2.1331713399999996">
        <ele>166.0</ele>
        <time>2019-06-09T13:11:18+02:00</time>
      </trkpt>
      <trkpt lat="41.617778339999994" lon="2.1332026699999997">
        <ele>165.0</ele>
        <time>2019-06-09T13:11:20+02:00</time>
      </trkpt>
      <trkpt lat="41.617695000000005" lon="2.13324067">
        <ele>165.0</ele>
        <time>2019-06-09T13:11:22+02:00</time>
      </trkpt>
      <trkpt lat="41.61765167" lon="2.1332593399999995">
        <ele>165.0</ele>
        <time>2019-06-09T13:11:23+02:00</time>
      </trkpt>
      <trkpt lat="41.61760667" lon="2.133277">
        <ele>164.0</ele>
        <time>2019-06-09T13:11:24+02:00</time>
      </trkpt>
      <trkpt lat="41.61755999999999" lon="2.1332943399999995">
        <ele>164.0</ele>
        <time>2019-06-09T13:11:25+02:00</time>
      </trkpt>
      <trkpt lat="41.617513339999995" lon="2.13330967">
        <ele>164.0</ele>
        <time>2019-06-09T13:11:26+02:00</time>
      </trkpt>
      <trkpt lat="41.61746667000001" lon="2.133325">
        <ele>163.0</ele>
        <time>2019-06-09T13:11:27+02:00</time>
      </trkpt>
      <trkpt lat="41.61741833999999" lon="2.1333403399999997">
        <ele>163.0</ele>
        <time>2019-06-09T13:11:28+02:00</time>
      </trkpt>
      <trkpt lat="41.61736834" lon="2.13335734">
        <ele>163.0</ele>
        <time>2019-06-09T13:11:29+02:00</time>
      </trkpt>
      <trkpt lat="41.61728" lon="2.1333843399999997">
        <ele>162.0</ele>
        <time>2019-06-09T13:11:31+02:00</time>
      </trkpt>
      <trkpt lat="41.617195" lon="2.1334">
        <ele>162.0</ele>
        <time>2019-06-09T13:11:33+02:00</time>
      </trkpt>
      <trkpt lat="41.61711167" lon="2.1334113399999994">
        <ele>162.0</ele>
        <time>2019-06-09T13:11:35+02:00</time>
      </trkpt>
      <trkpt lat="41.61702667000001" lon="2.1334193399999997">
        <ele>161.0</ele>
        <time>2019-06-09T13:11:37+02:00</time>
      </trkpt>
      <trkpt lat="41.616945" lon="2.13342767">
        <ele>161.0</ele>
        <time>2019-06-09T13:11:39+02:00</time>
      </trkpt>
      <trkpt lat="41.616863339999995" lon="2.13343634">
        <ele>161.0</ele>
        <time>2019-06-09T13:11:41+02:00</time>
      </trkpt>
      <trkpt lat="41.61678834000001" lon="2.133445">
        <ele>161.0</ele>
        <time>2019-06-09T13:11:43+02:00</time>
      </trkpt>
      <trkpt lat="41.61671167000001" lon="2.1334589999999998">
        <ele>161.0</ele>
        <time>2019-06-09T13:11:45+02:00</time>
      </trkpt>
      <trkpt lat="41.61664" lon="2.133475">
        <ele>161.0</ele>
        <time>2019-06-09T13:11:47+02:00</time>
      </trkpt>
      <trkpt lat="41.616575" lon="2.1334933400000002">
        <ele>161.0</ele>
        <time>2019-06-09T13:11:49+02:00</time>
      </trkpt>
      <trkpt lat="41.61651334" lon="2.13351167">
        <ele>160.0</ele>
        <time>2019-06-09T13:11:51+02:00</time>
      </trkpt>
      <trkpt lat="41.61644667" lon="2.13353534">
        <ele>160.0</ele>
        <time>2019-06-09T13:11:53+02:00</time>
      </trkpt>
      <trkpt lat="41.61637167000001" lon="2.1335616699999997">
        <ele>159.0</ele>
        <time>2019-06-09T13:11:55+02:00</time>
      </trkpt>
      <trkpt lat="41.616285" lon="2.1335923400000003">
        <ele>159.0</ele>
        <time>2019-06-09T13:11:57+02:00</time>
      </trkpt>
      <trkpt lat="41.61623834" lon="2.1336096700000002">
        <ele>159.0</ele>
        <time>2019-06-09T13:11:58+02:00</time>
      </trkpt>
      <trkpt lat="41.61619334" lon="2.13363034">
        <ele>159.0</ele>
        <time>2019-06-09T13:11:59+02:00</time>
      </trkpt>
      <trkpt lat="41.616145" lon="2.1336483399999997">
        <ele>159.0</ele>
        <time>2019-06-09T13:12:00+02:00</time>
      </trkpt>
      <trkpt lat="41.61609833999999" lon="2.1336660000000003">
        <ele>159.0</ele>
        <time>2019-06-09T13:12:01+02:00</time>
      </trkpt>
      <trkpt lat="41.61605167" lon="2.13368367">
        <ele>157.0</ele>
        <time>2019-06-09T13:12:02+02:00</time>
      </trkpt>
      <trkpt lat="41.616006670000004" lon="2.1337016699999998">
        <ele>156.0</ele>
        <time>2019-06-09T13:12:03+02:00</time>
      </trkpt>
      <trkpt lat="41.61595834" lon="2.13372034">
        <ele>156.0</ele>
        <time>2019-06-09T13:12:04+02:00</time>
      </trkpt>
      <trkpt lat="41.61591167" lon="2.1337349999999997">
        <ele>156.0</ele>
        <time>2019-06-09T13:12:05+02:00</time>
      </trkpt>
      <trkpt lat="41.615865" lon="2.1337533399999997">
        <ele>156.0</ele>
        <time>2019-06-09T13:12:06+02:00</time>
      </trkpt>
      <trkpt lat="41.615815000000005" lon="2.13377334">
        <ele>156.0</ele>
        <time>2019-06-09T13:12:07+02:00</time>
      </trkpt>
      <trkpt lat="41.615764999999996" lon="2.1337889999999997">
        <ele>156.0</ele>
        <time>2019-06-09T13:12:08+02:00</time>
      </trkpt>
      <trkpt lat="41.61571334" lon="2.13381">
        <ele>156.0</ele>
        <time>2019-06-09T13:12:09+02:00</time>
      </trkpt>
      <trkpt lat="41.615661669999994" lon="2.133831">
        <ele>156.0</ele>
        <time>2019-06-09T13:12:10+02:00</time>
      </trkpt>
      <trkpt lat="41.61560834" lon="2.1338529999999998">
        <ele>156.0</ele>
        <time>2019-06-09T13:12:11+02:00</time>
      </trkpt>
      <trkpt lat="41.615556670000004" lon="2.13387">
        <ele>156.0</ele>
        <time>2019-06-09T13:12:12+02:00</time>
      </trkpt>
      <trkpt lat="41.61550167" lon="2.13389234">
        <ele>156.0</ele>
        <time>2019-06-09T13:12:13+02:00</time>
      </trkpt>
      <trkpt lat="41.61544334" lon="2.1339166699999996">
        <ele>157.0</ele>
        <time>2019-06-09T13:12:14+02:00</time>
      </trkpt>
      <trkpt lat="41.615384999999996" lon="2.1339363399999995">
        <ele>157.0</ele>
        <time>2019-06-09T13:12:15+02:00</time>
      </trkpt>
      <trkpt lat="41.61532834" lon="2.1339603400000002">
        <ele>157.0</ele>
        <time>2019-06-09T13:12:16+02:00</time>
      </trkpt>
      <trkpt lat="41.61527334" lon="2.133979">
        <ele>157.0</ele>
        <time>2019-06-09T13:12:17+02:00</time>
      </trkpt>
      <trkpt lat="41.61522" lon="2.13400234">
        <ele>157.0</ele>
        <time>2019-06-09T13:12:18+02:00</time>
      </trkpt>
      <trkpt lat="41.61517167" lon="2.13402434">
        <ele>157.0</ele>
        <time>2019-06-09T13:12:19+02:00</time>
      </trkpt>
      <trkpt lat="41.615136670000005" lon="2.134043">
        <ele>157.0</ele>
        <time>2019-06-09T13:12:20+02:00</time>
      </trkpt>
      <trkpt lat="41.615116670000006" lon="2.13405767">
        <ele>157.0</ele>
        <time>2019-06-09T13:12:21+02:00</time>
      </trkpt>
      <trkpt lat="41.61513" lon="2.13430167">
        <ele>157.0</ele>
        <time>2019-06-09T13:12:23+02:00</time>
      </trkpt>
      <trkpt lat="41.61515333999999" lon="2.1343566700000003">
        <ele>157.0</ele>
        <time>2019-06-09T13:12:24+02:00</time>
      </trkpt>
      <trkpt lat="41.61518334" lon="2.13441334">
        <ele>157.0</ele>
        <time>2019-06-09T13:12:25+02:00</time>
      </trkpt>
      <trkpt lat="41.61521834" lon="2.1344700000000003">
        <ele>157.0</ele>
        <time>2019-06-09T13:12:26+02:00</time>
      </trkpt>
      <trkpt lat="41.61526" lon="2.134525">
        <ele>157.0</ele>
        <time>2019-06-09T13:12:27+02:00</time>
      </trkpt>
      <trkpt lat="41.61530667000001" lon="2.1345783399999996">
        <ele>157.0</ele>
        <time>2019-06-09T13:12:28+02:00</time>
      </trkpt>
      <trkpt lat="41.615359999999995" lon="2.1346266700000003">
        <ele>157.0</ele>
        <time>2019-06-09T13:12:29+02:00</time>
      </trkpt>
      <trkpt lat="41.61540999999999" lon="2.1346683399999997">
        <ele>157.0</ele>
        <time>2019-06-09T13:12:30+02:00</time>
      </trkpt>
      <trkpt lat="41.61546500000001" lon="2.13471334">
        <ele>157.0</ele>
        <time>2019-06-09T13:12:31+02:00</time>
      </trkpt>
      <trkpt lat="41.61550999999999" lon="2.13475">
        <ele>156.0</ele>
        <time>2019-06-09T13:12:32+02:00</time>
      </trkpt>
      <trkpt lat="41.61556334" lon="2.13478">
        <ele>156.0</ele>
        <time>2019-06-09T13:12:33+02:00</time>
      </trkpt>
      <trkpt lat="41.61566833999999" lon="2.1348483399999996">
        <ele>156.0</ele>
        <time>2019-06-09T13:12:34+02:00</time>
      </trkpt>
      <trkpt lat="41.61575667" lon="2.1349266699999996">
        <ele>156.0</ele>
        <time>2019-06-09T13:12:35+02:00</time>
      </trkpt>
      <trkpt lat="41.61581834" lon="2.1350166699999997">
        <ele>156.0</ele>
        <time>2019-06-09T13:12:36+02:00</time>
      </trkpt>
      <trkpt lat="41.61585634" lon="2.135115">
        <ele>156.0</ele>
        <time>2019-06-09T13:12:37+02:00</time>
      </trkpt>
      <trkpt lat="41.615877999999995" lon="2.1352033399999995">
        <ele>156.0</ele>
        <time>2019-06-09T13:12:38+02:00</time>
      </trkpt>
      <trkpt lat="41.615899999999996" lon="2.1353483399999993">
        <ele>156.0</ele>
        <time>2019-06-09T13:12:39+02:00</time>
      </trkpt>
      <trkpt lat="41.61591500000001" lon="2.13547667">
        <ele>156.0</ele>
        <time>2019-06-09T13:12:40+02:00</time>
      </trkpt>
      <trkpt lat="41.615921670000006" lon="2.1356033399999994">
        <ele>156.0</ele>
        <time>2019-06-09T13:12:41+02:00</time>
      </trkpt>
      <trkpt lat="41.61593167000001" lon="2.13573167">
        <ele>156.0</ele>
        <time>2019-06-09T13:12:42+02:00</time>
      </trkpt>
      <trkpt lat="41.615933340000005" lon="2.13585667">
        <ele>156.0</ele>
        <time>2019-06-09T13:12:43+02:00</time>
      </trkpt>
      <trkpt lat="41.61593167000001" lon="2.13595167">
        <ele>156.0</ele>
        <time>2019-06-09T13:12:44+02:00</time>
      </trkpt>
      <trkpt lat="41.61591833999999" lon="2.13609167">
        <ele>156.0</ele>
        <time>2019-06-09T13:12:45+02:00</time>
      </trkpt>
      <trkpt lat="41.615885" lon="2.1361933399999997">
        <ele>156.0</ele>
        <time>2019-06-09T13:12:46+02:00</time>
      </trkpt>
      <trkpt lat="41.615838339999996" lon="2.13628834">
        <ele>156.0</ele>
        <time>2019-06-09T13:12:47+02:00</time>
      </trkpt>
      <trkpt lat="41.61577667" lon="2.13637667">
        <ele>156.0</ele>
        <time>2019-06-09T13:12:48+02:00</time>
      </trkpt>
      <trkpt lat="41.615706669999994" lon="2.13645167">
        <ele>156.0</ele>
        <time>2019-06-09T13:12:49+02:00</time>
      </trkpt>
      <trkpt lat="41.615631670000006" lon="2.13652">
        <ele>156.0</ele>
        <time>2019-06-09T13:12:50+02:00</time>
      </trkpt>
      <trkpt lat="41.615568339999996" lon="2.136585">
        <ele>156.0</ele>
        <time>2019-06-09T13:12:51+02:00</time>
      </trkpt>
      <trkpt lat="41.61550999999999" lon="2.1366466699999997">
        <ele>155.0</ele>
        <time>2019-06-09T13:12:52+02:00</time>
      </trkpt>
      <trkpt lat="41.61546" lon="2.1366983399999997">
        <ele>155.0</ele>
        <time>2019-06-09T13:12:53+02:00</time>
      </trkpt>
      <trkpt lat="41.615413339999996" lon="2.1367433399999998">
        <ele>155.0</ele>
        <time>2019-06-09T13:12:54+02:00</time>
      </trkpt>
      <trkpt lat="41.615355" lon="2.1367833399999996">
        <ele>154.0</ele>
        <time>2019-06-09T13:12:56+02:00</time>
      </trkpt>
      <trkpt lat="41.61534667000001" lon="2.1368433399999995">
        <ele>155.0</ele>
        <time>2019-06-09T13:12:58+02:00</time>
      </trkpt>
      <trkpt lat="41.61534167000001" lon="2.13677834">
        <ele>156.0</ele>
        <time>2019-06-09T13:13:04+02:00</time>
      </trkpt>
    </trkseg>
  </trk>
</gpx>
